<?xml version="1.0" encoding="UTF-8" standalone="no" ?>
<gpx xmlns="http://www.topografix.com/GPX/1/1" xmlns:xsi="http://www.w3.org/2001/XMLSchema-instance" xsi:schemaLocation="http://www.topografix.com/GPX/1/1 http://www.topografix.com/GPX/1/1/gpx.xsd" version="1.1" creator="VisuGPX - https://www.visugpx.com">
  <metadata>
    <name>vtt st bueil</name>
    <desc><![CDATA[sortie club ida]]></desc>
  </metadata>
  <trk>
    <name><![CDATA[vtt st bueil_1]]></name>
    <trkseg>
      <trkpt lat="45.47598" lon="5.68122">
        <ele>439.5</ele>
        <time>2015-05-17T05:58:03Z</time>
      </trkpt>
      <trkpt lat="45.47598" lon="5.68122">
        <ele>439.5</ele>
        <time>2015-05-17T05:57:35Z</time>
      </trkpt>
      <trkpt lat="45.4759" lon="5.6812">
        <ele>430.2</ele>
        <time>2015-05-17T05:58:51Z</time>
      </trkpt>
      <trkpt lat="45.47584" lon="5.6812">
        <ele>429.4</ele>
        <time>2015-05-17T05:59:39Z</time>
      </trkpt>
      <trkpt lat="45.47579" lon="5.68131">
        <ele>428.6</ele>
        <time>2015-05-17T05:59:44Z</time>
      </trkpt>
      <trkpt lat="45.47578" lon="5.68145">
        <ele>428.4</ele>
        <time>2015-05-17T05:59:48Z</time>
      </trkpt>
      <trkpt lat="45.47581" lon="5.68158">
        <ele>428.3</ele>
        <time>2015-05-17T05:59:51Z</time>
      </trkpt>
      <trkpt lat="45.47584" lon="5.68168">
        <ele>428.2</ele>
        <time>2015-05-17T05:59:54Z</time>
      </trkpt>
      <trkpt lat="45.47581" lon="5.6818">
        <ele>427.9</ele>
        <time>2015-05-17T05:59:58Z</time>
      </trkpt>
      <trkpt lat="45.47575" lon="5.68188">
        <ele>427.7</ele>
        <time>2015-05-17T06:00:01Z</time>
      </trkpt>
      <trkpt lat="45.47567" lon="5.68194">
        <ele>427.5</ele>
        <time>2015-05-17T06:00:05Z</time>
      </trkpt>
      <trkpt lat="45.47558" lon="5.68201">
        <ele>427.3</ele>
        <time>2015-05-17T06:00:09Z</time>
      </trkpt>
      <trkpt lat="45.4755" lon="5.68207">
        <ele>427.3</ele>
        <time>2015-05-17T06:00:13Z</time>
      </trkpt>
      <trkpt lat="45.4754" lon="5.68214">
        <ele>427.4</ele>
        <time>2015-05-17T06:00:16Z</time>
      </trkpt>
      <trkpt lat="45.47533" lon="5.68221">
        <ele>427.4</ele>
        <time>2015-05-17T06:00:19Z</time>
      </trkpt>
      <trkpt lat="45.47526" lon="5.68228">
        <ele>427.4</ele>
        <time>2015-05-17T06:00:22Z</time>
      </trkpt>
      <trkpt lat="45.4752" lon="5.68236">
        <ele>427.5</ele>
        <time>2015-05-17T06:00:25Z</time>
      </trkpt>
      <trkpt lat="45.47515" lon="5.68245">
        <ele>427.6</ele>
        <time>2015-05-17T06:00:28Z</time>
      </trkpt>
      <trkpt lat="45.4751" lon="5.68256">
        <ele>427.9</ele>
        <time>2015-05-17T06:00:31Z</time>
      </trkpt>
      <trkpt lat="45.47507" lon="5.68267">
        <ele>428.4</ele>
        <time>2015-05-17T06:00:34Z</time>
      </trkpt>
      <trkpt lat="45.47504" lon="5.68277">
        <ele>429</ele>
        <time>2015-05-17T06:00:37Z</time>
      </trkpt>
      <trkpt lat="45.475" lon="5.68289">
        <ele>429.5</ele>
        <time>2015-05-17T06:00:41Z</time>
      </trkpt>
      <trkpt lat="45.47494" lon="5.68301">
        <ele>429.9</ele>
        <time>2015-05-17T06:00:44Z</time>
      </trkpt>
      <trkpt lat="45.47491" lon="5.68311">
        <ele>430.4</ele>
        <time>2015-05-17T06:00:47Z</time>
      </trkpt>
      <trkpt lat="45.47486" lon="5.68322">
        <ele>430.7</ele>
        <time>2015-05-17T06:00:50Z</time>
      </trkpt>
      <trkpt lat="45.47481" lon="5.68332">
        <ele>431.1</ele>
        <time>2015-05-17T06:00:53Z</time>
      </trkpt>
      <trkpt lat="45.47478" lon="5.68342">
        <ele>431.7</ele>
        <time>2015-05-17T06:00:57Z</time>
      </trkpt>
      <trkpt lat="45.47478" lon="5.68354">
        <ele>432.2</ele>
        <time>2015-05-17T06:01:01Z</time>
      </trkpt>
      <trkpt lat="45.47476" lon="5.68356">
        <ele>431.9</ele>
        <time>2015-05-17T06:01:08Z</time>
      </trkpt>
      <trkpt lat="45.47471" lon="5.68368">
        <ele>432</ele>
        <time>2015-05-17T06:01:13Z</time>
      </trkpt>
      <trkpt lat="45.47468" lon="5.68384">
        <ele>431.9</ele>
        <time>2015-05-17T06:01:16Z</time>
      </trkpt>
      <trkpt lat="45.47465" lon="5.68395">
        <ele>432</ele>
        <time>2015-05-17T06:01:18Z</time>
      </trkpt>
      <trkpt lat="45.47462" lon="5.68406">
        <ele>430.6</ele>
        <time>2015-05-17T06:01:20Z</time>
      </trkpt>
      <trkpt lat="45.47457" lon="5.68419">
        <ele>431.2</ele>
        <time>2015-05-17T06:01:22Z</time>
      </trkpt>
      <trkpt lat="45.47452" lon="5.68433">
        <ele>431.1</ele>
        <time>2015-05-17T06:01:24Z</time>
      </trkpt>
      <trkpt lat="45.47448" lon="5.68444">
        <ele>429.9</ele>
        <time>2015-05-17T06:01:26Z</time>
      </trkpt>
      <trkpt lat="45.47444" lon="5.68456">
        <ele>427.7</ele>
        <time>2015-05-17T06:01:28Z</time>
      </trkpt>
      <trkpt lat="45.4744" lon="5.68468">
        <ele>425.7</ele>
        <time>2015-05-17T06:01:30Z</time>
      </trkpt>
      <trkpt lat="45.47435" lon="5.68481">
        <ele>424.1</ele>
        <time>2015-05-17T06:01:32Z</time>
      </trkpt>
      <trkpt lat="45.47431" lon="5.68495">
        <ele>421.9</ele>
        <time>2015-05-17T06:01:34Z</time>
      </trkpt>
      <trkpt lat="45.47426" lon="5.68509">
        <ele>420.5</ele>
        <time>2015-05-17T06:01:36Z</time>
      </trkpt>
      <trkpt lat="45.47423" lon="5.68522">
        <ele>420</ele>
        <time>2015-05-17T06:01:38Z</time>
      </trkpt>
      <trkpt lat="45.4742" lon="5.68535">
        <ele>419.9</ele>
        <time>2015-05-17T06:01:40Z</time>
      </trkpt>
      <trkpt lat="45.47417" lon="5.68548">
        <ele>419.4</ele>
        <time>2015-05-17T06:01:42Z</time>
      </trkpt>
      <trkpt lat="45.47416" lon="5.68563">
        <ele>418.6</ele>
        <time>2015-05-17T06:01:44Z</time>
      </trkpt>
      <trkpt lat="45.47416" lon="5.68578">
        <ele>417.5</ele>
        <time>2015-05-17T06:01:46Z</time>
      </trkpt>
      <trkpt lat="45.47418" lon="5.68594">
        <ele>417.3</ele>
        <time>2015-05-17T06:01:48Z</time>
      </trkpt>
      <trkpt lat="45.47421" lon="5.68609">
        <ele>415.4</ele>
        <time>2015-05-17T06:01:50Z</time>
      </trkpt>
      <trkpt lat="45.47425" lon="5.68625">
        <ele>413.2</ele>
        <time>2015-05-17T06:01:52Z</time>
      </trkpt>
      <trkpt lat="45.4743" lon="5.68643">
        <ele>411.8</ele>
        <time>2015-05-17T06:01:54Z</time>
      </trkpt>
      <trkpt lat="45.47435" lon="5.68661">
        <ele>410</ele>
        <time>2015-05-17T06:01:56Z</time>
      </trkpt>
      <trkpt lat="45.47439" lon="5.68669">
        <ele>409.2</ele>
        <time>2015-05-17T06:01:57Z</time>
      </trkpt>
      <trkpt lat="45.47445" lon="5.68679">
        <ele>408.3</ele>
        <time>2015-05-17T06:01:58Z</time>
      </trkpt>
      <trkpt lat="45.4745" lon="5.68689">
        <ele>406.6</ele>
        <time>2015-05-17T06:01:59Z</time>
      </trkpt>
      <trkpt lat="45.47455" lon="5.68698">
        <ele>405.1</ele>
        <time>2015-05-17T06:02:00Z</time>
      </trkpt>
      <trkpt lat="45.4746" lon="5.68707">
        <ele>403.9</ele>
        <time>2015-05-17T06:02:01Z</time>
      </trkpt>
      <trkpt lat="45.47464" lon="5.68717">
        <ele>403.5</ele>
        <time>2015-05-17T06:02:02Z</time>
      </trkpt>
      <trkpt lat="45.47467" lon="5.68727">
        <ele>403.1</ele>
        <time>2015-05-17T06:02:03Z</time>
      </trkpt>
      <trkpt lat="45.4747" lon="5.68738">
        <ele>401.8</ele>
        <time>2015-05-17T06:02:04Z</time>
      </trkpt>
      <trkpt lat="45.47474" lon="5.68755">
        <ele>400.8</ele>
        <time>2015-05-17T06:02:06Z</time>
      </trkpt>
      <trkpt lat="45.47478" lon="5.68772">
        <ele>398.2</ele>
        <time>2015-05-17T06:02:08Z</time>
      </trkpt>
      <trkpt lat="45.47483" lon="5.68783">
        <ele>396.2</ele>
        <time>2015-05-17T06:02:10Z</time>
      </trkpt>
      <trkpt lat="45.47485" lon="5.68796">
        <ele>395.8</ele>
        <time>2015-05-17T06:02:13Z</time>
      </trkpt>
      <trkpt lat="45.47491" lon="5.68803">
        <ele>395.1</ele>
        <time>2015-05-17T06:02:20Z</time>
      </trkpt>
      <trkpt lat="45.47484" lon="5.68812">
        <ele>394.6</ele>
        <time>2015-05-17T06:02:24Z</time>
      </trkpt>
      <trkpt lat="45.47473" lon="5.68819">
        <ele>394.1</ele>
        <time>2015-05-17T06:02:27Z</time>
      </trkpt>
      <trkpt lat="45.47466" lon="5.68826">
        <ele>393.8</ele>
        <time>2015-05-17T06:02:29Z</time>
      </trkpt>
      <trkpt lat="45.47458" lon="5.68833">
        <ele>390.8</ele>
        <time>2015-05-17T06:02:31Z</time>
      </trkpt>
      <trkpt lat="45.4745" lon="5.68841">
        <ele>389.7</ele>
        <time>2015-05-17T06:02:33Z</time>
      </trkpt>
      <trkpt lat="45.47442" lon="5.6885">
        <ele>389.2</ele>
        <time>2015-05-17T06:02:35Z</time>
      </trkpt>
      <trkpt lat="45.47435" lon="5.68858">
        <ele>389.1</ele>
        <time>2015-05-17T06:02:37Z</time>
      </trkpt>
      <trkpt lat="45.47426" lon="5.68863">
        <ele>389.1</ele>
        <time>2015-05-17T06:02:39Z</time>
      </trkpt>
      <trkpt lat="45.47417" lon="5.68866">
        <ele>389.2</ele>
        <time>2015-05-17T06:02:41Z</time>
      </trkpt>
      <trkpt lat="45.47407" lon="5.6887">
        <ele>387.4</ele>
        <time>2015-05-17T06:02:43Z</time>
      </trkpt>
      <trkpt lat="45.47398" lon="5.6887">
        <ele>386.3</ele>
        <time>2015-05-17T06:02:45Z</time>
      </trkpt>
      <trkpt lat="45.47392" lon="5.68887">
        <ele>385.3</ele>
        <time>2015-05-17T06:02:48Z</time>
      </trkpt>
      <trkpt lat="45.47393" lon="5.68902">
        <ele>385.1</ele>
        <time>2015-05-17T06:02:50Z</time>
      </trkpt>
      <trkpt lat="45.47398" lon="5.68913">
        <ele>384.6</ele>
        <time>2015-05-17T06:02:53Z</time>
      </trkpt>
      <trkpt lat="45.47402" lon="5.68916">
        <ele>383.5</ele>
        <time>2015-05-17T06:03:00Z</time>
      </trkpt>
      <trkpt lat="45.47409" lon="5.68916">
        <ele>383.4</ele>
        <time>2015-05-17T06:03:12Z</time>
      </trkpt>
      <trkpt lat="45.47426" lon="5.68912">
        <ele>380.1</ele>
        <time>2015-05-17T06:05:14Z</time>
      </trkpt>
      <trkpt lat="45.47407" lon="5.68898">
        <ele>377.9</ele>
        <time>2015-05-17T06:06:38Z</time>
      </trkpt>
      <trkpt lat="45.47404" lon="5.68899">
        <ele>378.1</ele>
        <time>2015-05-17T06:06:45Z</time>
      </trkpt>
      <trkpt lat="45.47398" lon="5.68905">
        <ele>377.7</ele>
        <time>2015-05-17T06:07:13Z</time>
      </trkpt>
      <trkpt lat="45.47397" lon="5.68907">
        <ele>377.4</ele>
        <time>2015-05-17T06:07:20Z</time>
      </trkpt>
      <trkpt lat="45.47402" lon="5.68912">
        <ele>377</ele>
        <time>2015-05-17T06:07:44Z</time>
      </trkpt>
      <trkpt lat="45.4741" lon="5.68911">
        <ele>372.8</ele>
        <time>2015-05-17T06:08:06Z</time>
      </trkpt>
      <trkpt lat="45.47419" lon="5.68909">
        <ele>372.5</ele>
        <time>2015-05-17T06:08:12Z</time>
      </trkpt>
      <trkpt lat="45.47426" lon="5.68906">
        <ele>372.5</ele>
        <time>2015-05-17T06:08:16Z</time>
      </trkpt>
      <trkpt lat="45.4743" lon="5.68903">
        <ele>372.7</ele>
        <time>2015-05-17T06:08:23Z</time>
      </trkpt>
      <trkpt lat="45.47431" lon="5.689">
        <ele>373.4</ele>
        <time>2015-05-17T06:08:50Z</time>
      </trkpt>
      <trkpt lat="45.47433" lon="5.68901">
        <ele>375.4</ele>
        <time>2015-05-17T06:08:29Z</time>
      </trkpt>
      <trkpt lat="45.47435" lon="5.68897">
        <ele>375.5</ele>
        <time>2015-05-17T06:09:48Z</time>
      </trkpt>
      <trkpt lat="45.47429" lon="5.68901">
        <ele>375.5</ele>
        <time>2015-05-17T06:09:55Z</time>
      </trkpt>
      <trkpt lat="45.47426" lon="5.68899">
        <ele>375.6</ele>
        <time>2015-05-17T06:10:12Z</time>
      </trkpt>
      <trkpt lat="45.47429" lon="5.68898">
        <ele>375.8</ele>
        <time>2015-05-17T06:10:19Z</time>
      </trkpt>
      <trkpt lat="45.47426" lon="5.689">
        <ele>375.6</ele>
        <time>2015-05-17T06:10:45Z</time>
      </trkpt>
      <trkpt lat="45.47421" lon="5.68902">
        <ele>375.9</ele>
        <time>2015-05-17T06:10:58Z</time>
      </trkpt>
      <trkpt lat="45.47417" lon="5.68905">
        <ele>376.2</ele>
        <time>2015-05-17T06:11:05Z</time>
      </trkpt>
      <trkpt lat="45.47415" lon="5.68914">
        <ele>376.2</ele>
        <time>2015-05-17T06:11:12Z</time>
      </trkpt>
      <trkpt lat="45.47412" lon="5.68919">
        <ele>375.9</ele>
        <time>2015-05-17T06:11:19Z</time>
      </trkpt>
      <trkpt lat="45.4741" lon="5.68913">
        <ele>375.8</ele>
        <time>2015-05-17T06:11:26Z</time>
      </trkpt>
      <trkpt lat="45.47411" lon="5.68905">
        <ele>375.6</ele>
        <time>2015-05-17T06:11:33Z</time>
      </trkpt>
      <trkpt lat="45.4741" lon="5.68911">
        <ele>376.1</ele>
        <time>2015-05-17T06:11:56Z</time>
      </trkpt>
      <trkpt lat="45.47413" lon="5.68914">
        <ele>376.6</ele>
        <time>2015-05-17T06:12:03Z</time>
      </trkpt>
      <trkpt lat="45.47418" lon="5.68914">
        <ele>377.2</ele>
        <time>2015-05-17T06:14:16Z</time>
      </trkpt>
      <trkpt lat="45.47413" lon="5.68921">
        <ele>377.7</ele>
        <time>2015-05-17T06:14:27Z</time>
      </trkpt>
      <trkpt lat="45.47413" lon="5.68918">
        <ele>377.9</ele>
        <time>2015-05-17T06:14:52Z</time>
      </trkpt>
      <trkpt lat="45.47413" lon="5.68918">
        <ele>378</ele>
        <time>2015-05-17T06:15:03Z</time>
      </trkpt>
      <trkpt lat="45.47402" lon="5.6892">
        <ele>378.4</ele>
        <time>2015-05-17T06:16:53Z</time>
      </trkpt>
      <trkpt lat="45.47397" lon="5.68912">
        <ele>379</ele>
        <time>2015-05-17T06:16:59Z</time>
      </trkpt>
      <trkpt lat="45.47394" lon="5.68901">
        <ele>379.4</ele>
        <time>2015-05-17T06:17:03Z</time>
      </trkpt>
      <trkpt lat="45.47394" lon="5.6889">
        <ele>379.7</ele>
        <time>2015-05-17T06:17:07Z</time>
      </trkpt>
      <trkpt lat="45.47391" lon="5.6888">
        <ele>380.1</ele>
        <time>2015-05-17T06:17:13Z</time>
      </trkpt>
      <trkpt lat="45.47384" lon="5.68876">
        <ele>380.6</ele>
        <time>2015-05-17T06:17:18Z</time>
      </trkpt>
      <trkpt lat="45.47375" lon="5.68878">
        <ele>381</ele>
        <time>2015-05-17T06:17:22Z</time>
      </trkpt>
      <trkpt lat="45.47367" lon="5.6888">
        <ele>381.4</ele>
        <time>2015-05-17T06:17:26Z</time>
      </trkpt>
      <trkpt lat="45.47358" lon="5.68881">
        <ele>381.8</ele>
        <time>2015-05-17T06:17:30Z</time>
      </trkpt>
      <trkpt lat="45.47351" lon="5.68883">
        <ele>382.1</ele>
        <time>2015-05-17T06:17:33Z</time>
      </trkpt>
      <trkpt lat="45.47344" lon="5.68883">
        <ele>382.4</ele>
        <time>2015-05-17T06:17:36Z</time>
      </trkpt>
      <trkpt lat="45.47336" lon="5.68884">
        <ele>382.7</ele>
        <time>2015-05-17T06:17:39Z</time>
      </trkpt>
      <trkpt lat="45.47328" lon="5.68883">
        <ele>382.9</ele>
        <time>2015-05-17T06:17:42Z</time>
      </trkpt>
      <trkpt lat="45.4732" lon="5.68882">
        <ele>383.1</ele>
        <time>2015-05-17T06:17:45Z</time>
      </trkpt>
      <trkpt lat="45.47314" lon="5.68876">
        <ele>383.2</ele>
        <time>2015-05-17T06:17:48Z</time>
      </trkpt>
      <trkpt lat="45.47308" lon="5.68868">
        <ele>383.4</ele>
        <time>2015-05-17T06:17:51Z</time>
      </trkpt>
      <trkpt lat="45.47303" lon="5.6886">
        <ele>383.5</ele>
        <time>2015-05-17T06:17:54Z</time>
      </trkpt>
      <trkpt lat="45.47297" lon="5.6885">
        <ele>383.5</ele>
        <time>2015-05-17T06:17:58Z</time>
      </trkpt>
      <trkpt lat="45.47294" lon="5.6884">
        <ele>383.7</ele>
        <time>2015-05-17T06:18:01Z</time>
      </trkpt>
      <trkpt lat="45.47293" lon="5.68828">
        <ele>383.9</ele>
        <time>2015-05-17T06:18:04Z</time>
      </trkpt>
      <trkpt lat="45.47292" lon="5.68816">
        <ele>384.1</ele>
        <time>2015-05-17T06:18:07Z</time>
      </trkpt>
      <trkpt lat="45.47292" lon="5.68805">
        <ele>384.2</ele>
        <time>2015-05-17T06:18:10Z</time>
      </trkpt>
      <trkpt lat="45.47292" lon="5.68794">
        <ele>384.4</ele>
        <time>2015-05-17T06:18:13Z</time>
      </trkpt>
      <trkpt lat="45.47291" lon="5.68782">
        <ele>384.5</ele>
        <time>2015-05-17T06:18:16Z</time>
      </trkpt>
      <trkpt lat="45.47289" lon="5.68771">
        <ele>384.7</ele>
        <time>2015-05-17T06:18:19Z</time>
      </trkpt>
      <trkpt lat="45.47285" lon="5.68762">
        <ele>384.9</ele>
        <time>2015-05-17T06:18:22Z</time>
      </trkpt>
      <trkpt lat="45.47277" lon="5.68756">
        <ele>385.1</ele>
        <time>2015-05-17T06:18:25Z</time>
      </trkpt>
      <trkpt lat="45.47269" lon="5.68749">
        <ele>385.3</ele>
        <time>2015-05-17T06:18:28Z</time>
      </trkpt>
      <trkpt lat="45.47262" lon="5.6874">
        <ele>385.5</ele>
        <time>2015-05-17T06:18:31Z</time>
      </trkpt>
      <trkpt lat="45.47257" lon="5.68729">
        <ele>385.6</ele>
        <time>2015-05-17T06:18:34Z</time>
      </trkpt>
      <trkpt lat="45.47254" lon="5.68718">
        <ele>385.8</ele>
        <time>2015-05-17T06:18:37Z</time>
      </trkpt>
      <trkpt lat="45.47252" lon="5.68707">
        <ele>386</ele>
        <time>2015-05-17T06:18:40Z</time>
      </trkpt>
      <trkpt lat="45.47247" lon="5.687">
        <ele>386.4</ele>
        <time>2015-05-17T06:18:43Z</time>
      </trkpt>
      <trkpt lat="45.47239" lon="5.68694">
        <ele>386.9</ele>
        <time>2015-05-17T06:18:48Z</time>
      </trkpt>
      <trkpt lat="45.47232" lon="5.68696">
        <ele>387.6</ele>
        <time>2015-05-17T06:18:52Z</time>
      </trkpt>
      <trkpt lat="45.47224" lon="5.68703">
        <ele>388.6</ele>
        <time>2015-05-17T06:18:56Z</time>
      </trkpt>
      <trkpt lat="45.47219" lon="5.68711">
        <ele>389.4</ele>
        <time>2015-05-17T06:18:59Z</time>
      </trkpt>
      <trkpt lat="45.47216" lon="5.68723">
        <ele>390.4</ele>
        <time>2015-05-17T06:19:03Z</time>
      </trkpt>
      <trkpt lat="45.47214" lon="5.68733">
        <ele>390.8</ele>
        <time>2015-05-17T06:19:06Z</time>
      </trkpt>
      <trkpt lat="45.47213" lon="5.68744">
        <ele>391.2</ele>
        <time>2015-05-17T06:19:09Z</time>
      </trkpt>
      <trkpt lat="45.47212" lon="5.68755">
        <ele>391.7</ele>
        <time>2015-05-17T06:19:13Z</time>
      </trkpt>
      <trkpt lat="45.47211" lon="5.68767">
        <ele>392.5</ele>
        <time>2015-05-17T06:19:17Z</time>
      </trkpt>
      <trkpt lat="45.47209" lon="5.68777">
        <ele>393.1</ele>
        <time>2015-05-17T06:19:20Z</time>
      </trkpt>
      <trkpt lat="45.47205" lon="5.68788">
        <ele>393.7</ele>
        <time>2015-05-17T06:19:23Z</time>
      </trkpt>
      <trkpt lat="45.47201" lon="5.68797">
        <ele>394.4</ele>
        <time>2015-05-17T06:19:27Z</time>
      </trkpt>
      <trkpt lat="45.47195" lon="5.68804">
        <ele>394.8</ele>
        <time>2015-05-17T06:19:30Z</time>
      </trkpt>
      <trkpt lat="45.47187" lon="5.68809">
        <ele>395.3</ele>
        <time>2015-05-17T06:19:34Z</time>
      </trkpt>
      <trkpt lat="45.47179" lon="5.68811">
        <ele>395.9</ele>
        <time>2015-05-17T06:19:38Z</time>
      </trkpt>
      <trkpt lat="45.47172" lon="5.68815">
        <ele>396.6</ele>
        <time>2015-05-17T06:19:42Z</time>
      </trkpt>
      <trkpt lat="45.47167" lon="5.68824">
        <ele>397.5</ele>
        <time>2015-05-17T06:19:46Z</time>
      </trkpt>
      <trkpt lat="45.47166" lon="5.68837">
        <ele>398.4</ele>
        <time>2015-05-17T06:19:50Z</time>
      </trkpt>
      <trkpt lat="45.47165" lon="5.68848">
        <ele>399</ele>
        <time>2015-05-17T06:19:53Z</time>
      </trkpt>
      <trkpt lat="45.47165" lon="5.68858">
        <ele>399.7</ele>
        <time>2015-05-17T06:19:56Z</time>
      </trkpt>
      <trkpt lat="45.47164" lon="5.68869">
        <ele>400.4</ele>
        <time>2015-05-17T06:19:59Z</time>
      </trkpt>
      <trkpt lat="45.47164" lon="5.6888">
        <ele>401</ele>
        <time>2015-05-17T06:20:02Z</time>
      </trkpt>
      <trkpt lat="45.47163" lon="5.68891">
        <ele>401.8</ele>
        <time>2015-05-17T06:20:05Z</time>
      </trkpt>
      <trkpt lat="45.47163" lon="5.68904">
        <ele>402.8</ele>
        <time>2015-05-17T06:20:09Z</time>
      </trkpt>
      <trkpt lat="45.47164" lon="5.68918">
        <ele>403.8</ele>
        <time>2015-05-17T06:20:13Z</time>
      </trkpt>
      <trkpt lat="45.47165" lon="5.68931">
        <ele>404.4</ele>
        <time>2015-05-17T06:20:16Z</time>
      </trkpt>
      <trkpt lat="45.47165" lon="5.68943">
        <ele>405.3</ele>
        <time>2015-05-17T06:20:20Z</time>
      </trkpt>
      <trkpt lat="45.47165" lon="5.68955">
        <ele>406</ele>
        <time>2015-05-17T06:20:23Z</time>
      </trkpt>
      <trkpt lat="45.47165" lon="5.68965">
        <ele>406.7</ele>
        <time>2015-05-17T06:20:26Z</time>
      </trkpt>
      <trkpt lat="45.47165" lon="5.68977">
        <ele>407.2</ele>
        <time>2015-05-17T06:20:29Z</time>
      </trkpt>
      <trkpt lat="45.47166" lon="5.68989">
        <ele>407.5</ele>
        <time>2015-05-17T06:20:32Z</time>
      </trkpt>
      <trkpt lat="45.47168" lon="5.69001">
        <ele>407.8</ele>
        <time>2015-05-17T06:20:35Z</time>
      </trkpt>
      <trkpt lat="45.4717" lon="5.69014">
        <ele>408.3</ele>
        <time>2015-05-17T06:20:39Z</time>
      </trkpt>
      <trkpt lat="45.47172" lon="5.69024">
        <ele>408.7</ele>
        <time>2015-05-17T06:20:42Z</time>
      </trkpt>
      <trkpt lat="45.47174" lon="5.69035">
        <ele>409.2</ele>
        <time>2015-05-17T06:20:45Z</time>
      </trkpt>
      <trkpt lat="45.47176" lon="5.69048">
        <ele>409.5</ele>
        <time>2015-05-17T06:20:48Z</time>
      </trkpt>
      <trkpt lat="45.47178" lon="5.6906">
        <ele>409.8</ele>
        <time>2015-05-17T06:20:51Z</time>
      </trkpt>
      <trkpt lat="45.4718" lon="5.69072">
        <ele>410</ele>
        <time>2015-05-17T06:20:54Z</time>
      </trkpt>
      <trkpt lat="45.47182" lon="5.69083">
        <ele>410.1</ele>
        <time>2015-05-17T06:20:57Z</time>
      </trkpt>
      <trkpt lat="45.47184" lon="5.69096">
        <ele>410.3</ele>
        <time>2015-05-17T06:21:01Z</time>
      </trkpt>
      <trkpt lat="45.47184" lon="5.69108">
        <ele>410.6</ele>
        <time>2015-05-17T06:21:04Z</time>
      </trkpt>
      <trkpt lat="45.47185" lon="5.6912">
        <ele>410.9</ele>
        <time>2015-05-17T06:21:07Z</time>
      </trkpt>
      <trkpt lat="45.47187" lon="5.69133">
        <ele>411.4</ele>
        <time>2015-05-17T06:21:11Z</time>
      </trkpt>
      <trkpt lat="45.47188" lon="5.69143">
        <ele>411.8</ele>
        <time>2015-05-17T06:21:14Z</time>
      </trkpt>
      <trkpt lat="45.47188" lon="5.69155">
        <ele>412.3</ele>
        <time>2015-05-17T06:21:17Z</time>
      </trkpt>
      <trkpt lat="45.47189" lon="5.69167">
        <ele>412.8</ele>
        <time>2015-05-17T06:21:21Z</time>
      </trkpt>
      <trkpt lat="45.4719" lon="5.69178">
        <ele>413.2</ele>
        <time>2015-05-17T06:21:24Z</time>
      </trkpt>
      <trkpt lat="45.47192" lon="5.69191">
        <ele>413.9</ele>
        <time>2015-05-17T06:21:28Z</time>
      </trkpt>
      <trkpt lat="45.47192" lon="5.69203">
        <ele>414.5</ele>
        <time>2015-05-17T06:21:31Z</time>
      </trkpt>
      <trkpt lat="45.47193" lon="5.69217">
        <ele>414.9</ele>
        <time>2015-05-17T06:21:34Z</time>
      </trkpt>
      <trkpt lat="45.47194" lon="5.69228">
        <ele>415.2</ele>
        <time>2015-05-17T06:21:37Z</time>
      </trkpt>
      <trkpt lat="45.47196" lon="5.69239">
        <ele>415.5</ele>
        <time>2015-05-17T06:21:40Z</time>
      </trkpt>
      <trkpt lat="45.47198" lon="5.6925">
        <ele>415.9</ele>
        <time>2015-05-17T06:21:43Z</time>
      </trkpt>
      <trkpt lat="45.47201" lon="5.69261">
        <ele>416.3</ele>
        <time>2015-05-17T06:21:46Z</time>
      </trkpt>
      <trkpt lat="45.47205" lon="5.69274">
        <ele>416.4</ele>
        <time>2015-05-17T06:21:49Z</time>
      </trkpt>
      <trkpt lat="45.47209" lon="5.69287">
        <ele>416.4</ele>
        <time>2015-05-17T06:21:52Z</time>
      </trkpt>
      <trkpt lat="45.47213" lon="5.69297">
        <ele>416.3</ele>
        <time>2015-05-17T06:21:55Z</time>
      </trkpt>
      <trkpt lat="45.47218" lon="5.69307">
        <ele>416.3</ele>
        <time>2015-05-17T06:21:58Z</time>
      </trkpt>
      <trkpt lat="45.47222" lon="5.69317">
        <ele>416.3</ele>
        <time>2015-05-17T06:22:01Z</time>
      </trkpt>
      <trkpt lat="45.47227" lon="5.69329">
        <ele>416.4</ele>
        <time>2015-05-17T06:22:04Z</time>
      </trkpt>
      <trkpt lat="45.47232" lon="5.69338">
        <ele>416.6</ele>
        <time>2015-05-17T06:22:07Z</time>
      </trkpt>
      <trkpt lat="45.47236" lon="5.69348">
        <ele>416.8</ele>
        <time>2015-05-17T06:22:10Z</time>
      </trkpt>
      <trkpt lat="45.47239" lon="5.69357">
        <ele>417.2</ele>
        <time>2015-05-17T06:22:13Z</time>
      </trkpt>
      <trkpt lat="45.47243" lon="5.69369">
        <ele>417.5</ele>
        <time>2015-05-17T06:22:16Z</time>
      </trkpt>
      <trkpt lat="45.47248" lon="5.69381">
        <ele>417.7</ele>
        <time>2015-05-17T06:22:19Z</time>
      </trkpt>
      <trkpt lat="45.47253" lon="5.6939">
        <ele>418</ele>
        <time>2015-05-17T06:22:22Z</time>
      </trkpt>
      <trkpt lat="45.47257" lon="5.694">
        <ele>418.3</ele>
        <time>2015-05-17T06:22:25Z</time>
      </trkpt>
      <trkpt lat="45.47262" lon="5.6941">
        <ele>418.4</ele>
        <time>2015-05-17T06:22:28Z</time>
      </trkpt>
      <trkpt lat="45.47266" lon="5.6942">
        <ele>418.4</ele>
        <time>2015-05-17T06:22:30Z</time>
      </trkpt>
      <trkpt lat="45.47271" lon="5.69428">
        <ele>418.5</ele>
        <time>2015-05-17T06:22:32Z</time>
      </trkpt>
      <trkpt lat="45.47276" lon="5.69438">
        <ele>418.7</ele>
        <time>2015-05-17T06:22:35Z</time>
      </trkpt>
      <trkpt lat="45.47283" lon="5.69452">
        <ele>418.7</ele>
        <time>2015-05-17T06:22:38Z</time>
      </trkpt>
      <trkpt lat="45.47287" lon="5.69461">
        <ele>418.7</ele>
        <time>2015-05-17T06:22:40Z</time>
      </trkpt>
      <trkpt lat="45.47293" lon="5.69472">
        <ele>418.6</ele>
        <time>2015-05-17T06:22:43Z</time>
      </trkpt>
      <trkpt lat="45.47299" lon="5.69483">
        <ele>418.7</ele>
        <time>2015-05-17T06:22:46Z</time>
      </trkpt>
      <trkpt lat="45.47305" lon="5.69494">
        <ele>418.9</ele>
        <time>2015-05-17T06:22:49Z</time>
      </trkpt>
      <trkpt lat="45.47311" lon="5.69505">
        <ele>419.2</ele>
        <time>2015-05-17T06:22:52Z</time>
      </trkpt>
      <trkpt lat="45.47317" lon="5.69517">
        <ele>419.4</ele>
        <time>2015-05-17T06:22:55Z</time>
      </trkpt>
      <trkpt lat="45.47323" lon="5.69529">
        <ele>419.6</ele>
        <time>2015-05-17T06:22:58Z</time>
      </trkpt>
      <trkpt lat="45.4733" lon="5.6954">
        <ele>419.9</ele>
        <time>2015-05-17T06:23:01Z</time>
      </trkpt>
      <trkpt lat="45.47336" lon="5.69551">
        <ele>420.2</ele>
        <time>2015-05-17T06:23:04Z</time>
      </trkpt>
      <trkpt lat="45.47341" lon="5.69558">
        <ele>420.3</ele>
        <time>2015-05-17T06:23:06Z</time>
      </trkpt>
      <trkpt lat="45.47347" lon="5.69566">
        <ele>421</ele>
        <time>2015-05-17T06:23:08Z</time>
      </trkpt>
      <trkpt lat="45.47352" lon="5.69574">
        <ele>421.1</ele>
        <time>2015-05-17T06:23:10Z</time>
      </trkpt>
      <trkpt lat="45.47357" lon="5.69583">
        <ele>421.4</ele>
        <time>2015-05-17T06:23:12Z</time>
      </trkpt>
      <trkpt lat="45.47364" lon="5.69595">
        <ele>421.5</ele>
        <time>2015-05-17T06:23:15Z</time>
      </trkpt>
      <trkpt lat="45.47369" lon="5.69604">
        <ele>421.6</ele>
        <time>2015-05-17T06:23:17Z</time>
      </trkpt>
      <trkpt lat="45.47374" lon="5.69612">
        <ele>421.6</ele>
        <time>2015-05-17T06:23:19Z</time>
      </trkpt>
      <trkpt lat="45.47379" lon="5.6962">
        <ele>422</ele>
        <time>2015-05-17T06:23:21Z</time>
      </trkpt>
      <trkpt lat="45.47383" lon="5.69628">
        <ele>422.5</ele>
        <time>2015-05-17T06:23:23Z</time>
      </trkpt>
      <trkpt lat="45.47389" lon="5.69635">
        <ele>422.7</ele>
        <time>2015-05-17T06:23:25Z</time>
      </trkpt>
      <trkpt lat="45.47394" lon="5.69642">
        <ele>422.7</ele>
        <time>2015-05-17T06:23:27Z</time>
      </trkpt>
      <trkpt lat="45.474" lon="5.69651">
        <ele>422.6</ele>
        <time>2015-05-17T06:23:29Z</time>
      </trkpt>
      <trkpt lat="45.47405" lon="5.69661">
        <ele>422.4</ele>
        <time>2015-05-17T06:23:31Z</time>
      </trkpt>
      <trkpt lat="45.47411" lon="5.69672">
        <ele>422.3</ele>
        <time>2015-05-17T06:23:33Z</time>
      </trkpt>
      <trkpt lat="45.47417" lon="5.69685">
        <ele>422.1</ele>
        <time>2015-05-17T06:23:35Z</time>
      </trkpt>
      <trkpt lat="45.47422" lon="5.69697">
        <ele>422.8</ele>
        <time>2015-05-17T06:23:37Z</time>
      </trkpt>
      <trkpt lat="45.47427" lon="5.69709">
        <ele>423.5</ele>
        <time>2015-05-17T06:23:39Z</time>
      </trkpt>
      <trkpt lat="45.47433" lon="5.69721">
        <ele>424.2</ele>
        <time>2015-05-17T06:23:41Z</time>
      </trkpt>
      <trkpt lat="45.47439" lon="5.69732">
        <ele>424.2</ele>
        <time>2015-05-17T06:23:43Z</time>
      </trkpt>
      <trkpt lat="45.47446" lon="5.69744">
        <ele>423.5</ele>
        <time>2015-05-17T06:23:45Z</time>
      </trkpt>
      <trkpt lat="45.47452" lon="5.69754">
        <ele>422.4</ele>
        <time>2015-05-17T06:23:47Z</time>
      </trkpt>
      <trkpt lat="45.47457" lon="5.69764">
        <ele>421.9</ele>
        <time>2015-05-17T06:23:49Z</time>
      </trkpt>
      <trkpt lat="45.47462" lon="5.69772">
        <ele>422</ele>
        <time>2015-05-17T06:23:51Z</time>
      </trkpt>
      <trkpt lat="45.47467" lon="5.6978">
        <ele>421.8</ele>
        <time>2015-05-17T06:23:53Z</time>
      </trkpt>
      <trkpt lat="45.47471" lon="5.69789">
        <ele>421.9</ele>
        <time>2015-05-17T06:23:55Z</time>
      </trkpt>
      <trkpt lat="45.47478" lon="5.69798">
        <ele>421.9</ele>
        <time>2015-05-17T06:23:57Z</time>
      </trkpt>
      <trkpt lat="45.47484" lon="5.69804">
        <ele>422.1</ele>
        <time>2015-05-17T06:23:59Z</time>
      </trkpt>
      <trkpt lat="45.47491" lon="5.69812">
        <ele>422.4</ele>
        <time>2015-05-17T06:24:02Z</time>
      </trkpt>
      <trkpt lat="45.47497" lon="5.69818">
        <ele>423.8</ele>
        <time>2015-05-17T06:24:04Z</time>
      </trkpt>
      <trkpt lat="45.47503" lon="5.69825">
        <ele>424.2</ele>
        <time>2015-05-17T06:24:06Z</time>
      </trkpt>
      <trkpt lat="45.47509" lon="5.69831">
        <ele>424.4</ele>
        <time>2015-05-17T06:24:08Z</time>
      </trkpt>
      <trkpt lat="45.47516" lon="5.69837">
        <ele>424.2</ele>
        <time>2015-05-17T06:24:10Z</time>
      </trkpt>
      <trkpt lat="45.47523" lon="5.69843">
        <ele>423.8</ele>
        <time>2015-05-17T06:24:12Z</time>
      </trkpt>
      <trkpt lat="45.47529" lon="5.69849">
        <ele>423.5</ele>
        <time>2015-05-17T06:24:14Z</time>
      </trkpt>
      <trkpt lat="45.47536" lon="5.69855">
        <ele>423.4</ele>
        <time>2015-05-17T06:24:16Z</time>
      </trkpt>
      <trkpt lat="45.47542" lon="5.69863">
        <ele>423.4</ele>
        <time>2015-05-17T06:24:18Z</time>
      </trkpt>
      <trkpt lat="45.47549" lon="5.69871">
        <ele>423.2</ele>
        <time>2015-05-17T06:24:20Z</time>
      </trkpt>
      <trkpt lat="45.47555" lon="5.69879">
        <ele>423</ele>
        <time>2015-05-17T06:24:22Z</time>
      </trkpt>
      <trkpt lat="45.47562" lon="5.69888">
        <ele>423</ele>
        <time>2015-05-17T06:24:24Z</time>
      </trkpt>
      <trkpt lat="45.4757" lon="5.69896">
        <ele>422.8</ele>
        <time>2015-05-17T06:24:26Z</time>
      </trkpt>
      <trkpt lat="45.47577" lon="5.69904">
        <ele>422.6</ele>
        <time>2015-05-17T06:24:28Z</time>
      </trkpt>
      <trkpt lat="45.47585" lon="5.69913">
        <ele>422.5</ele>
        <time>2015-05-17T06:24:30Z</time>
      </trkpt>
      <trkpt lat="45.47592" lon="5.69921">
        <ele>422.6</ele>
        <time>2015-05-17T06:24:32Z</time>
      </trkpt>
      <trkpt lat="45.47601" lon="5.6993">
        <ele>422.4</ele>
        <time>2015-05-17T06:24:34Z</time>
      </trkpt>
      <trkpt lat="45.4761" lon="5.6994">
        <ele>422.1</ele>
        <time>2015-05-17T06:24:36Z</time>
      </trkpt>
      <trkpt lat="45.4762" lon="5.6995">
        <ele>421.8</ele>
        <time>2015-05-17T06:24:38Z</time>
      </trkpt>
      <trkpt lat="45.4763" lon="5.6996">
        <ele>421.4</ele>
        <time>2015-05-17T06:24:40Z</time>
      </trkpt>
      <trkpt lat="45.47639" lon="5.69971">
        <ele>420.5</ele>
        <time>2015-05-17T06:24:42Z</time>
      </trkpt>
      <trkpt lat="45.47649" lon="5.69982">
        <ele>420.2</ele>
        <time>2015-05-17T06:24:44Z</time>
      </trkpt>
      <trkpt lat="45.47658" lon="5.69994">
        <ele>420</ele>
        <time>2015-05-17T06:24:46Z</time>
      </trkpt>
      <trkpt lat="45.47666" lon="5.70004">
        <ele>420.4</ele>
        <time>2015-05-17T06:24:48Z</time>
      </trkpt>
      <trkpt lat="45.47674" lon="5.70012">
        <ele>420.9</ele>
        <time>2015-05-17T06:24:50Z</time>
      </trkpt>
      <trkpt lat="45.47681" lon="5.70018">
        <ele>421.9</ele>
        <time>2015-05-17T06:24:52Z</time>
      </trkpt>
      <trkpt lat="45.47687" lon="5.70024">
        <ele>423</ele>
        <time>2015-05-17T06:24:54Z</time>
      </trkpt>
      <trkpt lat="45.47694" lon="5.70032">
        <ele>423.5</ele>
        <time>2015-05-17T06:24:56Z</time>
      </trkpt>
      <trkpt lat="45.477" lon="5.7004">
        <ele>423.8</ele>
        <time>2015-05-17T06:24:58Z</time>
      </trkpt>
      <trkpt lat="45.47706" lon="5.7005">
        <ele>423</ele>
        <time>2015-05-17T06:25:00Z</time>
      </trkpt>
      <trkpt lat="45.47712" lon="5.70058">
        <ele>422.4</ele>
        <time>2015-05-17T06:25:02Z</time>
      </trkpt>
      <trkpt lat="45.47717" lon="5.70065">
        <ele>422.5</ele>
        <time>2015-05-17T06:25:04Z</time>
      </trkpt>
      <trkpt lat="45.47723" lon="5.70073">
        <ele>422.9</ele>
        <time>2015-05-17T06:25:06Z</time>
      </trkpt>
      <trkpt lat="45.47727" lon="5.70082">
        <ele>423.5</ele>
        <time>2015-05-17T06:25:08Z</time>
      </trkpt>
      <trkpt lat="45.47734" lon="5.70093">
        <ele>424.8</ele>
        <time>2015-05-17T06:25:11Z</time>
      </trkpt>
      <trkpt lat="45.47739" lon="5.70101">
        <ele>425.8</ele>
        <time>2015-05-17T06:25:13Z</time>
      </trkpt>
      <trkpt lat="45.47744" lon="5.70109">
        <ele>427.4</ele>
        <time>2015-05-17T06:25:15Z</time>
      </trkpt>
      <trkpt lat="45.47748" lon="5.70118">
        <ele>427.5</ele>
        <time>2015-05-17T06:25:17Z</time>
      </trkpt>
      <trkpt lat="45.47753" lon="5.70128">
        <ele>426.6</ele>
        <time>2015-05-17T06:25:19Z</time>
      </trkpt>
      <trkpt lat="45.47758" lon="5.70136">
        <ele>425.9</ele>
        <time>2015-05-17T06:25:21Z</time>
      </trkpt>
      <trkpt lat="45.47765" lon="5.70145">
        <ele>425.5</ele>
        <time>2015-05-17T06:25:23Z</time>
      </trkpt>
      <trkpt lat="45.47773" lon="5.70154">
        <ele>425.3</ele>
        <time>2015-05-17T06:25:25Z</time>
      </trkpt>
      <trkpt lat="45.4778" lon="5.70163">
        <ele>426.2</ele>
        <time>2015-05-17T06:25:27Z</time>
      </trkpt>
      <trkpt lat="45.47788" lon="5.70172">
        <ele>427.4</ele>
        <time>2015-05-17T06:25:29Z</time>
      </trkpt>
      <trkpt lat="45.47796" lon="5.70181">
        <ele>427.8</ele>
        <time>2015-05-17T06:25:31Z</time>
      </trkpt>
      <trkpt lat="45.47803" lon="5.7019">
        <ele>427.5</ele>
        <time>2015-05-17T06:25:33Z</time>
      </trkpt>
      <trkpt lat="45.47809" lon="5.70199">
        <ele>427</ele>
        <time>2015-05-17T06:25:35Z</time>
      </trkpt>
      <trkpt lat="45.47818" lon="5.70209">
        <ele>426.7</ele>
        <time>2015-05-17T06:25:38Z</time>
      </trkpt>
      <trkpt lat="45.47824" lon="5.70215">
        <ele>426.5</ele>
        <time>2015-05-17T06:25:40Z</time>
      </trkpt>
      <trkpt lat="45.4783" lon="5.70222">
        <ele>426.5</ele>
        <time>2015-05-17T06:25:42Z</time>
      </trkpt>
      <trkpt lat="45.47838" lon="5.7023">
        <ele>426.8</ele>
        <time>2015-05-17T06:25:45Z</time>
      </trkpt>
      <trkpt lat="45.47845" lon="5.7024">
        <ele>427</ele>
        <time>2015-05-17T06:25:48Z</time>
      </trkpt>
      <trkpt lat="45.47849" lon="5.70248">
        <ele>427.3</ele>
        <time>2015-05-17T06:25:50Z</time>
      </trkpt>
      <trkpt lat="45.47856" lon="5.70259">
        <ele>427.7</ele>
        <time>2015-05-17T06:25:53Z</time>
      </trkpt>
      <trkpt lat="45.4786" lon="5.70268">
        <ele>428</ele>
        <time>2015-05-17T06:25:55Z</time>
      </trkpt>
      <trkpt lat="45.47866" lon="5.70279">
        <ele>428.4</ele>
        <time>2015-05-17T06:25:58Z</time>
      </trkpt>
      <trkpt lat="45.47873" lon="5.70292">
        <ele>428.8</ele>
        <time>2015-05-17T06:26:01Z</time>
      </trkpt>
      <trkpt lat="45.47878" lon="5.703">
        <ele>429</ele>
        <time>2015-05-17T06:26:03Z</time>
      </trkpt>
      <trkpt lat="45.47884" lon="5.70311">
        <ele>429.2</ele>
        <time>2015-05-17T06:26:06Z</time>
      </trkpt>
      <trkpt lat="45.47891" lon="5.70322">
        <ele>430.7</ele>
        <time>2015-05-17T06:26:09Z</time>
      </trkpt>
      <trkpt lat="45.47897" lon="5.7033">
        <ele>430.8</ele>
        <time>2015-05-17T06:26:11Z</time>
      </trkpt>
      <trkpt lat="45.47904" lon="5.7034">
        <ele>430.9</ele>
        <time>2015-05-17T06:26:14Z</time>
      </trkpt>
      <trkpt lat="45.47909" lon="5.70349">
        <ele>431</ele>
        <time>2015-05-17T06:26:16Z</time>
      </trkpt>
      <trkpt lat="45.47914" lon="5.70357">
        <ele>431.3</ele>
        <time>2015-05-17T06:26:18Z</time>
      </trkpt>
      <trkpt lat="45.47921" lon="5.70369">
        <ele>431.5</ele>
        <time>2015-05-17T06:26:21Z</time>
      </trkpt>
      <trkpt lat="45.47926" lon="5.70376">
        <ele>431.7</ele>
        <time>2015-05-17T06:26:23Z</time>
      </trkpt>
      <trkpt lat="45.47933" lon="5.70388">
        <ele>432.1</ele>
        <time>2015-05-17T06:26:26Z</time>
      </trkpt>
      <trkpt lat="45.47941" lon="5.70398">
        <ele>432.6</ele>
        <time>2015-05-17T06:26:29Z</time>
      </trkpt>
      <trkpt lat="45.47947" lon="5.70406">
        <ele>432.9</ele>
        <time>2015-05-17T06:26:32Z</time>
      </trkpt>
      <trkpt lat="45.47953" lon="5.70414">
        <ele>433.5</ele>
        <time>2015-05-17T06:26:34Z</time>
      </trkpt>
      <trkpt lat="45.47961" lon="5.70421">
        <ele>433.4</ele>
        <time>2015-05-17T06:26:36Z</time>
      </trkpt>
      <trkpt lat="45.47969" lon="5.70429">
        <ele>433.1</ele>
        <time>2015-05-17T06:26:38Z</time>
      </trkpt>
      <trkpt lat="45.47977" lon="5.70436">
        <ele>432.7</ele>
        <time>2015-05-17T06:26:40Z</time>
      </trkpt>
      <trkpt lat="45.47986" lon="5.70444">
        <ele>432.3</ele>
        <time>2015-05-17T06:26:42Z</time>
      </trkpt>
      <trkpt lat="45.47994" lon="5.7045">
        <ele>432.4</ele>
        <time>2015-05-17T06:26:44Z</time>
      </trkpt>
      <trkpt lat="45.48003" lon="5.70458">
        <ele>432.9</ele>
        <time>2015-05-17T06:26:46Z</time>
      </trkpt>
      <trkpt lat="45.48013" lon="5.70465">
        <ele>433.1</ele>
        <time>2015-05-17T06:26:48Z</time>
      </trkpt>
      <trkpt lat="45.48024" lon="5.70474">
        <ele>433</ele>
        <time>2015-05-17T06:26:50Z</time>
      </trkpt>
      <trkpt lat="45.48036" lon="5.70483">
        <ele>433</ele>
        <time>2015-05-17T06:26:52Z</time>
      </trkpt>
      <trkpt lat="45.48047" lon="5.70491">
        <ele>433.2</ele>
        <time>2015-05-17T06:26:54Z</time>
      </trkpt>
      <trkpt lat="45.48058" lon="5.705">
        <ele>433.9</ele>
        <time>2015-05-17T06:26:56Z</time>
      </trkpt>
      <trkpt lat="45.48069" lon="5.70507">
        <ele>434.8</ele>
        <time>2015-05-17T06:26:58Z</time>
      </trkpt>
      <trkpt lat="45.48076" lon="5.70514">
        <ele>434.3</ele>
        <time>2015-05-17T06:27:00Z</time>
      </trkpt>
      <trkpt lat="45.48085" lon="5.70521">
        <ele>433.8</ele>
        <time>2015-05-17T06:27:02Z</time>
      </trkpt>
      <trkpt lat="45.48094" lon="5.70529">
        <ele>434.3</ele>
        <time>2015-05-17T06:27:04Z</time>
      </trkpt>
      <trkpt lat="45.48103" lon="5.70537">
        <ele>434.6</ele>
        <time>2015-05-17T06:27:06Z</time>
      </trkpt>
      <trkpt lat="45.48112" lon="5.70545">
        <ele>434</ele>
        <time>2015-05-17T06:27:08Z</time>
      </trkpt>
      <trkpt lat="45.48119" lon="5.70552">
        <ele>433.3</ele>
        <time>2015-05-17T06:27:10Z</time>
      </trkpt>
      <trkpt lat="45.48125" lon="5.70558">
        <ele>433.1</ele>
        <time>2015-05-17T06:27:12Z</time>
      </trkpt>
      <trkpt lat="45.48132" lon="5.70564">
        <ele>433.1</ele>
        <time>2015-05-17T06:27:14Z</time>
      </trkpt>
      <trkpt lat="45.48138" lon="5.70569">
        <ele>433.1</ele>
        <time>2015-05-17T06:27:16Z</time>
      </trkpt>
      <trkpt lat="45.48145" lon="5.70574">
        <ele>433</ele>
        <time>2015-05-17T06:27:18Z</time>
      </trkpt>
      <trkpt lat="45.48151" lon="5.7058">
        <ele>433</ele>
        <time>2015-05-17T06:27:20Z</time>
      </trkpt>
      <trkpt lat="45.48157" lon="5.70586">
        <ele>433</ele>
        <time>2015-05-17T06:27:22Z</time>
      </trkpt>
      <trkpt lat="45.48167" lon="5.70595">
        <ele>432.8</ele>
        <time>2015-05-17T06:27:25Z</time>
      </trkpt>
      <trkpt lat="45.48174" lon="5.70601">
        <ele>433.3</ele>
        <time>2015-05-17T06:27:27Z</time>
      </trkpt>
      <trkpt lat="45.48181" lon="5.70608">
        <ele>433.9</ele>
        <time>2015-05-17T06:27:29Z</time>
      </trkpt>
      <trkpt lat="45.48188" lon="5.70619">
        <ele>434.3</ele>
        <time>2015-05-17T06:27:31Z</time>
      </trkpt>
      <trkpt lat="45.48195" lon="5.70628">
        <ele>435.3</ele>
        <time>2015-05-17T06:27:33Z</time>
      </trkpt>
      <trkpt lat="45.482" lon="5.70638">
        <ele>436.6</ele>
        <time>2015-05-17T06:27:35Z</time>
      </trkpt>
      <trkpt lat="45.48205" lon="5.70647">
        <ele>438.5</ele>
        <time>2015-05-17T06:27:37Z</time>
      </trkpt>
      <trkpt lat="45.4821" lon="5.70658">
        <ele>439.5</ele>
        <time>2015-05-17T06:27:39Z</time>
      </trkpt>
      <trkpt lat="45.48214" lon="5.7067">
        <ele>440.1</ele>
        <time>2015-05-17T06:27:41Z</time>
      </trkpt>
      <trkpt lat="45.48217" lon="5.70682">
        <ele>441.1</ele>
        <time>2015-05-17T06:27:43Z</time>
      </trkpt>
      <trkpt lat="45.4822" lon="5.70694">
        <ele>441.8</ele>
        <time>2015-05-17T06:27:45Z</time>
      </trkpt>
      <trkpt lat="45.48223" lon="5.70706">
        <ele>441.9</ele>
        <time>2015-05-17T06:27:47Z</time>
      </trkpt>
      <trkpt lat="45.48225" lon="5.70718">
        <ele>441.1</ele>
        <time>2015-05-17T06:27:49Z</time>
      </trkpt>
      <trkpt lat="45.48228" lon="5.70731">
        <ele>439.9</ele>
        <time>2015-05-17T06:27:51Z</time>
      </trkpt>
      <trkpt lat="45.48231" lon="5.70744">
        <ele>438.1</ele>
        <time>2015-05-17T06:27:53Z</time>
      </trkpt>
      <trkpt lat="45.48234" lon="5.70756">
        <ele>436.5</ele>
        <time>2015-05-17T06:27:55Z</time>
      </trkpt>
      <trkpt lat="45.48237" lon="5.70768">
        <ele>435.2</ele>
        <time>2015-05-17T06:27:57Z</time>
      </trkpt>
      <trkpt lat="45.48241" lon="5.7078">
        <ele>434.4</ele>
        <time>2015-05-17T06:27:59Z</time>
      </trkpt>
      <trkpt lat="45.48246" lon="5.70792">
        <ele>434.9</ele>
        <time>2015-05-17T06:28:01Z</time>
      </trkpt>
      <trkpt lat="45.48251" lon="5.70803">
        <ele>435.5</ele>
        <time>2015-05-17T06:28:03Z</time>
      </trkpt>
      <trkpt lat="45.48257" lon="5.70816">
        <ele>435.7</ele>
        <time>2015-05-17T06:28:05Z</time>
      </trkpt>
      <trkpt lat="45.48263" lon="5.70827">
        <ele>436</ele>
        <time>2015-05-17T06:28:07Z</time>
      </trkpt>
      <trkpt lat="45.4827" lon="5.70839">
        <ele>435.9</ele>
        <time>2015-05-17T06:28:09Z</time>
      </trkpt>
      <trkpt lat="45.48277" lon="5.70851">
        <ele>435.4</ele>
        <time>2015-05-17T06:28:11Z</time>
      </trkpt>
      <trkpt lat="45.48284" lon="5.70862">
        <ele>435</ele>
        <time>2015-05-17T06:28:13Z</time>
      </trkpt>
      <trkpt lat="45.4829" lon="5.70873">
        <ele>434.7</ele>
        <time>2015-05-17T06:28:15Z</time>
      </trkpt>
      <trkpt lat="45.48297" lon="5.70883">
        <ele>434.5</ele>
        <time>2015-05-17T06:28:17Z</time>
      </trkpt>
      <trkpt lat="45.48302" lon="5.70893">
        <ele>434.5</ele>
        <time>2015-05-17T06:28:20Z</time>
      </trkpt>
      <trkpt lat="45.48295" lon="5.70902">
        <ele>434.6</ele>
        <time>2015-05-17T06:28:24Z</time>
      </trkpt>
      <trkpt lat="45.48286" lon="5.70907">
        <ele>434.9</ele>
        <time>2015-05-17T06:28:28Z</time>
      </trkpt>
      <trkpt lat="45.48279" lon="5.70914">
        <ele>435.2</ele>
        <time>2015-05-17T06:28:32Z</time>
      </trkpt>
      <trkpt lat="45.48272" lon="5.70919">
        <ele>435.7</ele>
        <time>2015-05-17T06:28:38Z</time>
      </trkpt>
      <trkpt lat="45.48266" lon="5.70911">
        <ele>436.2</ele>
        <time>2015-05-17T06:28:42Z</time>
      </trkpt>
      <trkpt lat="45.4826" lon="5.70904">
        <ele>436.6</ele>
        <time>2015-05-17T06:28:45Z</time>
      </trkpt>
      <trkpt lat="45.48254" lon="5.70895">
        <ele>436.9</ele>
        <time>2015-05-17T06:28:49Z</time>
      </trkpt>
      <trkpt lat="45.48247" lon="5.70886">
        <ele>437.1</ele>
        <time>2015-05-17T06:28:53Z</time>
      </trkpt>
      <trkpt lat="45.48239" lon="5.7088">
        <ele>437.4</ele>
        <time>2015-05-17T06:28:57Z</time>
      </trkpt>
      <trkpt lat="45.48232" lon="5.70878">
        <ele>437.7</ele>
        <time>2015-05-17T06:29:00Z</time>
      </trkpt>
      <trkpt lat="45.48225" lon="5.70881">
        <ele>437.9</ele>
        <time>2015-05-17T06:29:03Z</time>
      </trkpt>
      <trkpt lat="45.4822" lon="5.70889">
        <ele>438</ele>
        <time>2015-05-17T06:29:06Z</time>
      </trkpt>
      <trkpt lat="45.48218" lon="5.70899">
        <ele>438.1</ele>
        <time>2015-05-17T06:29:09Z</time>
      </trkpt>
      <trkpt lat="45.48219" lon="5.7091">
        <ele>438.4</ele>
        <time>2015-05-17T06:29:12Z</time>
      </trkpt>
      <trkpt lat="45.48222" lon="5.70922">
        <ele>438.9</ele>
        <time>2015-05-17T06:29:16Z</time>
      </trkpt>
      <trkpt lat="45.48225" lon="5.70934">
        <ele>439.6</ele>
        <time>2015-05-17T06:29:20Z</time>
      </trkpt>
      <trkpt lat="45.48226" lon="5.70944">
        <ele>440</ele>
        <time>2015-05-17T06:29:23Z</time>
      </trkpt>
      <trkpt lat="45.48226" lon="5.70955">
        <ele>440.4</ele>
        <time>2015-05-17T06:29:26Z</time>
      </trkpt>
      <trkpt lat="45.48226" lon="5.70966">
        <ele>440.8</ele>
        <time>2015-05-17T06:29:29Z</time>
      </trkpt>
      <trkpt lat="45.48226" lon="5.70978">
        <ele>441.5</ele>
        <time>2015-05-17T06:29:33Z</time>
      </trkpt>
      <trkpt lat="45.48228" lon="5.70989">
        <ele>442.1</ele>
        <time>2015-05-17T06:29:37Z</time>
      </trkpt>
      <trkpt lat="45.48234" lon="5.70999">
        <ele>442.8</ele>
        <time>2015-05-17T06:29:41Z</time>
      </trkpt>
      <trkpt lat="45.48236" lon="5.71005">
        <ele>444.1</ele>
        <time>2015-05-17T06:29:48Z</time>
      </trkpt>
      <trkpt lat="45.48228" lon="5.71">
        <ele>444.6</ele>
        <time>2015-05-17T06:29:51Z</time>
      </trkpt>
      <trkpt lat="45.48223" lon="5.70992">
        <ele>445.9</ele>
        <time>2015-05-17T06:29:55Z</time>
      </trkpt>
      <trkpt lat="45.48218" lon="5.70984">
        <ele>447.2</ele>
        <time>2015-05-17T06:29:59Z</time>
      </trkpt>
      <trkpt lat="45.48212" lon="5.70979">
        <ele>448.2</ele>
        <time>2015-05-17T06:30:04Z</time>
      </trkpt>
      <trkpt lat="45.48203" lon="5.70973">
        <ele>448.9</ele>
        <time>2015-05-17T06:30:09Z</time>
      </trkpt>
      <trkpt lat="45.48197" lon="5.70968">
        <ele>449.5</ele>
        <time>2015-05-17T06:30:13Z</time>
      </trkpt>
      <trkpt lat="45.4819" lon="5.70963">
        <ele>450.3</ele>
        <time>2015-05-17T06:30:17Z</time>
      </trkpt>
      <trkpt lat="45.48183" lon="5.70954">
        <ele>451.3</ele>
        <time>2015-05-17T06:30:22Z</time>
      </trkpt>
      <trkpt lat="45.48177" lon="5.70947">
        <ele>452.1</ele>
        <time>2015-05-17T06:30:26Z</time>
      </trkpt>
      <trkpt lat="45.48171" lon="5.70937">
        <ele>453</ele>
        <time>2015-05-17T06:30:30Z</time>
      </trkpt>
      <trkpt lat="45.48167" lon="5.70928">
        <ele>453.6</ele>
        <time>2015-05-17T06:30:33Z</time>
      </trkpt>
      <trkpt lat="45.48161" lon="5.70919">
        <ele>454.5</ele>
        <time>2015-05-17T06:30:37Z</time>
      </trkpt>
      <trkpt lat="45.48159" lon="5.70918">
        <ele>455.9</ele>
        <time>2015-05-17T06:30:44Z</time>
      </trkpt>
      <trkpt lat="45.4816" lon="5.70929">
        <ele>458.4</ele>
        <time>2015-05-17T06:30:58Z</time>
      </trkpt>
      <trkpt lat="45.48163" lon="5.70938">
        <ele>459.6</ele>
        <time>2015-05-17T06:31:05Z</time>
      </trkpt>
      <trkpt lat="45.48166" lon="5.70945">
        <ele>461.1</ele>
        <time>2015-05-17T06:31:12Z</time>
      </trkpt>
      <trkpt lat="45.48171" lon="5.70951">
        <ele>462.6</ele>
        <time>2015-05-17T06:31:19Z</time>
      </trkpt>
      <trkpt lat="45.48174" lon="5.70963">
        <ele>463.9</ele>
        <time>2015-05-17T06:31:26Z</time>
      </trkpt>
      <trkpt lat="45.48178" lon="5.7097">
        <ele>465.4</ele>
        <time>2015-05-17T06:31:33Z</time>
      </trkpt>
      <trkpt lat="45.48179" lon="5.70972">
        <ele>466.2</ele>
        <time>2015-05-17T06:31:40Z</time>
      </trkpt>
      <trkpt lat="45.4818" lon="5.70985">
        <ele>466.7</ele>
        <time>2015-05-17T06:31:44Z</time>
      </trkpt>
      <trkpt lat="45.48182" lon="5.70995">
        <ele>467.9</ele>
        <time>2015-05-17T06:31:50Z</time>
      </trkpt>
      <trkpt lat="45.48183" lon="5.71006">
        <ele>468.9</ele>
        <time>2015-05-17T06:31:56Z</time>
      </trkpt>
      <trkpt lat="45.48185" lon="5.71014">
        <ele>469.7</ele>
        <time>2015-05-17T06:32:03Z</time>
      </trkpt>
      <trkpt lat="45.48186" lon="5.71025">
        <ele>470.9</ele>
        <time>2015-05-17T06:32:10Z</time>
      </trkpt>
      <trkpt lat="45.48186" lon="5.7103">
        <ele>472</ele>
        <time>2015-05-17T06:32:17Z</time>
      </trkpt>
      <trkpt lat="45.48182" lon="5.71036">
        <ele>474.5</ele>
        <time>2015-05-17T06:32:32Z</time>
      </trkpt>
      <trkpt lat="45.48178" lon="5.71035">
        <ele>475.7</ele>
        <time>2015-05-17T06:32:39Z</time>
      </trkpt>
      <trkpt lat="45.48174" lon="5.71036">
        <ele>477.3</ele>
        <time>2015-05-17T06:32:46Z</time>
      </trkpt>
      <trkpt lat="45.48171" lon="5.71036">
        <ele>478.1</ele>
        <time>2015-05-17T06:32:53Z</time>
      </trkpt>
      <trkpt lat="45.48163" lon="5.71034">
        <ele>480.3</ele>
        <time>2015-05-17T06:33:14Z</time>
      </trkpt>
      <trkpt lat="45.48156" lon="5.71028">
        <ele>481</ele>
        <time>2015-05-17T06:33:19Z</time>
      </trkpt>
      <trkpt lat="45.4815" lon="5.71023">
        <ele>482.8</ele>
        <time>2015-05-17T06:33:33Z</time>
      </trkpt>
      <trkpt lat="45.48144" lon="5.7102">
        <ele>484.7</ele>
        <time>2015-05-17T06:33:54Z</time>
      </trkpt>
      <trkpt lat="45.48136" lon="5.71015">
        <ele>485.6</ele>
        <time>2015-05-17T06:33:58Z</time>
      </trkpt>
      <trkpt lat="45.4813" lon="5.71017">
        <ele>486.6</ele>
        <time>2015-05-17T06:34:05Z</time>
      </trkpt>
      <trkpt lat="45.48125" lon="5.71018">
        <ele>486.9</ele>
        <time>2015-05-17T06:34:12Z</time>
      </trkpt>
      <trkpt lat="45.48125" lon="5.71022">
        <ele>487.5</ele>
        <time>2015-05-17T06:34:19Z</time>
      </trkpt>
      <trkpt lat="45.48122" lon="5.71019">
        <ele>488.4</ele>
        <time>2015-05-17T06:34:26Z</time>
      </trkpt>
      <trkpt lat="45.48107" lon="5.71015">
        <ele>493.9</ele>
        <time>2015-05-17T06:34:47Z</time>
      </trkpt>
      <trkpt lat="45.48099" lon="5.71012">
        <ele>494.1</ele>
        <time>2015-05-17T06:34:53Z</time>
      </trkpt>
      <trkpt lat="45.48096" lon="5.71012">
        <ele>494.3</ele>
        <time>2015-05-17T06:35:00Z</time>
      </trkpt>
      <trkpt lat="45.4809" lon="5.71002">
        <ele>496.6</ele>
        <time>2015-05-17T06:35:21Z</time>
      </trkpt>
      <trkpt lat="45.48083" lon="5.70996">
        <ele>497</ele>
        <time>2015-05-17T06:35:25Z</time>
      </trkpt>
      <trkpt lat="45.48076" lon="5.7099">
        <ele>497.5</ele>
        <time>2015-05-17T06:35:32Z</time>
      </trkpt>
      <trkpt lat="45.48068" lon="5.70983">
        <ele>498.2</ele>
        <time>2015-05-17T06:35:37Z</time>
      </trkpt>
      <trkpt lat="45.48061" lon="5.70976">
        <ele>498.9</ele>
        <time>2015-05-17T06:35:41Z</time>
      </trkpt>
      <trkpt lat="45.48055" lon="5.70969">
        <ele>499.6</ele>
        <time>2015-05-17T06:35:45Z</time>
      </trkpt>
      <trkpt lat="45.48048" lon="5.70963">
        <ele>501</ele>
        <time>2015-05-17T06:35:50Z</time>
      </trkpt>
      <trkpt lat="45.48043" lon="5.70956">
        <ele>503.3</ele>
        <time>2015-05-17T06:35:57Z</time>
      </trkpt>
      <trkpt lat="45.48037" lon="5.70949">
        <ele>506</ele>
        <time>2015-05-17T06:36:04Z</time>
      </trkpt>
      <trkpt lat="45.48031" lon="5.70942">
        <ele>508.1</ele>
        <time>2015-05-17T06:36:10Z</time>
      </trkpt>
      <trkpt lat="45.48024" lon="5.70935">
        <ele>509.2</ele>
        <time>2015-05-17T06:36:14Z</time>
      </trkpt>
      <trkpt lat="45.48019" lon="5.70928">
        <ele>510.4</ele>
        <time>2015-05-17T06:36:19Z</time>
      </trkpt>
      <trkpt lat="45.48013" lon="5.7092">
        <ele>511.4</ele>
        <time>2015-05-17T06:36:23Z</time>
      </trkpt>
      <trkpt lat="45.48007" lon="5.70914">
        <ele>511.8</ele>
        <time>2015-05-17T06:36:28Z</time>
      </trkpt>
      <trkpt lat="45.48003" lon="5.70904">
        <ele>512.4</ele>
        <time>2015-05-17T06:36:33Z</time>
      </trkpt>
      <trkpt lat="45.47996" lon="5.70897">
        <ele>513.5</ele>
        <time>2015-05-17T06:36:38Z</time>
      </trkpt>
      <trkpt lat="45.47989" lon="5.70891">
        <ele>514.9</ele>
        <time>2015-05-17T06:36:44Z</time>
      </trkpt>
      <trkpt lat="45.47982" lon="5.70884">
        <ele>516.4</ele>
        <time>2015-05-17T06:36:50Z</time>
      </trkpt>
      <trkpt lat="45.47977" lon="5.70876">
        <ele>517.8</ele>
        <time>2015-05-17T06:36:56Z</time>
      </trkpt>
      <trkpt lat="45.47971" lon="5.70869">
        <ele>519</ele>
        <time>2015-05-17T06:37:03Z</time>
      </trkpt>
      <trkpt lat="45.47966" lon="5.70859">
        <ele>519.5</ele>
        <time>2015-05-17T06:37:07Z</time>
      </trkpt>
      <trkpt lat="45.47961" lon="5.7085">
        <ele>519.7</ele>
        <time>2015-05-17T06:37:10Z</time>
      </trkpt>
      <trkpt lat="45.47955" lon="5.70839">
        <ele>520.1</ele>
        <time>2015-05-17T06:37:13Z</time>
      </trkpt>
      <trkpt lat="45.47948" lon="5.70829">
        <ele>520.5</ele>
        <time>2015-05-17T06:37:16Z</time>
      </trkpt>
      <trkpt lat="45.47941" lon="5.70819">
        <ele>520.7</ele>
        <time>2015-05-17T06:37:19Z</time>
      </trkpt>
      <trkpt lat="45.47934" lon="5.70811">
        <ele>520.8</ele>
        <time>2015-05-17T06:37:21Z</time>
      </trkpt>
      <trkpt lat="45.47927" lon="5.70803">
        <ele>520.8</ele>
        <time>2015-05-17T06:37:23Z</time>
      </trkpt>
      <trkpt lat="45.47922" lon="5.70795">
        <ele>520.7</ele>
        <time>2015-05-17T06:37:25Z</time>
      </trkpt>
      <trkpt lat="45.47915" lon="5.70785">
        <ele>520.7</ele>
        <time>2015-05-17T06:37:27Z</time>
      </trkpt>
      <trkpt lat="45.47907" lon="5.70776">
        <ele>520.1</ele>
        <time>2015-05-17T06:37:29Z</time>
      </trkpt>
      <trkpt lat="45.479" lon="5.7077">
        <ele>520.3</ele>
        <time>2015-05-17T06:37:31Z</time>
      </trkpt>
      <trkpt lat="45.47892" lon="5.70765">
        <ele>520.5</ele>
        <time>2015-05-17T06:37:34Z</time>
      </trkpt>
      <trkpt lat="45.47885" lon="5.7076">
        <ele>520.7</ele>
        <time>2015-05-17T06:37:36Z</time>
      </trkpt>
      <trkpt lat="45.47878" lon="5.70756">
        <ele>521.1</ele>
        <time>2015-05-17T06:37:40Z</time>
      </trkpt>
      <trkpt lat="45.4787" lon="5.70751">
        <ele>521</ele>
        <time>2015-05-17T06:37:44Z</time>
      </trkpt>
      <trkpt lat="45.47863" lon="5.70744">
        <ele>521</ele>
        <time>2015-05-17T06:37:50Z</time>
      </trkpt>
      <trkpt lat="45.47857" lon="5.70739">
        <ele>522.3</ele>
        <time>2015-05-17T06:37:57Z</time>
      </trkpt>
      <trkpt lat="45.4785" lon="5.70737">
        <ele>523.8</ele>
        <time>2015-05-17T06:38:03Z</time>
      </trkpt>
      <trkpt lat="45.47844" lon="5.70731">
        <ele>525.3</ele>
        <time>2015-05-17T06:38:08Z</time>
      </trkpt>
      <trkpt lat="45.47836" lon="5.70726">
        <ele>525.7</ele>
        <time>2015-05-17T06:38:11Z</time>
      </trkpt>
      <trkpt lat="45.47829" lon="5.70721">
        <ele>525.8</ele>
        <time>2015-05-17T06:38:13Z</time>
      </trkpt>
      <trkpt lat="45.47821" lon="5.70717">
        <ele>526.4</ele>
        <time>2015-05-17T06:38:17Z</time>
      </trkpt>
      <trkpt lat="45.47813" lon="5.70712">
        <ele>527.5</ele>
        <time>2015-05-17T06:38:22Z</time>
      </trkpt>
      <trkpt lat="45.47806" lon="5.70708">
        <ele>529.1</ele>
        <time>2015-05-17T06:38:27Z</time>
      </trkpt>
      <trkpt lat="45.47799" lon="5.70701">
        <ele>531.4</ele>
        <time>2015-05-17T06:38:34Z</time>
      </trkpt>
      <trkpt lat="45.47793" lon="5.70694">
        <ele>532.7</ele>
        <time>2015-05-17T06:38:40Z</time>
      </trkpt>
      <trkpt lat="45.47786" lon="5.70689">
        <ele>534.1</ele>
        <time>2015-05-17T06:38:45Z</time>
      </trkpt>
      <trkpt lat="45.47779" lon="5.70682">
        <ele>535.4</ele>
        <time>2015-05-17T06:38:50Z</time>
      </trkpt>
      <trkpt lat="45.47772" lon="5.70675">
        <ele>536.3</ele>
        <time>2015-05-17T06:38:54Z</time>
      </trkpt>
      <trkpt lat="45.47766" lon="5.70666">
        <ele>537.1</ele>
        <time>2015-05-17T06:38:59Z</time>
      </trkpt>
      <trkpt lat="45.47758" lon="5.70661">
        <ele>537.4</ele>
        <time>2015-05-17T06:39:03Z</time>
      </trkpt>
      <trkpt lat="45.47751" lon="5.70656">
        <ele>538</ele>
        <time>2015-05-17T06:39:08Z</time>
      </trkpt>
      <trkpt lat="45.47744" lon="5.70652">
        <ele>538.3</ele>
        <time>2015-05-17T06:39:12Z</time>
      </trkpt>
      <trkpt lat="45.47736" lon="5.70648">
        <ele>538.9</ele>
        <time>2015-05-17T06:39:17Z</time>
      </trkpt>
      <trkpt lat="45.47728" lon="5.70644">
        <ele>539.2</ele>
        <time>2015-05-17T06:39:22Z</time>
      </trkpt>
      <trkpt lat="45.4772" lon="5.70638">
        <ele>539.2</ele>
        <time>2015-05-17T06:39:27Z</time>
      </trkpt>
      <trkpt lat="45.47714" lon="5.70634">
        <ele>539.4</ele>
        <time>2015-05-17T06:39:32Z</time>
      </trkpt>
      <trkpt lat="45.47707" lon="5.70627">
        <ele>539.5</ele>
        <time>2015-05-17T06:39:37Z</time>
      </trkpt>
      <trkpt lat="45.477" lon="5.70624">
        <ele>540</ele>
        <time>2015-05-17T06:39:42Z</time>
      </trkpt>
      <trkpt lat="45.47694" lon="5.70617">
        <ele>541</ele>
        <time>2015-05-17T06:39:49Z</time>
      </trkpt>
      <trkpt lat="45.47688" lon="5.70608">
        <ele>542.5</ele>
        <time>2015-05-17T06:39:55Z</time>
      </trkpt>
      <trkpt lat="45.47682" lon="5.70602">
        <ele>543.4</ele>
        <time>2015-05-17T06:40:01Z</time>
      </trkpt>
      <trkpt lat="45.47675" lon="5.70595">
        <ele>544.8</ele>
        <time>2015-05-17T06:40:07Z</time>
      </trkpt>
      <trkpt lat="45.47668" lon="5.70581">
        <ele>548.3</ele>
        <time>2015-05-17T06:40:20Z</time>
      </trkpt>
      <trkpt lat="45.47661" lon="5.70574">
        <ele>550.2</ele>
        <time>2015-05-17T06:40:26Z</time>
      </trkpt>
      <trkpt lat="45.47653" lon="5.70569">
        <ele>551.6</ele>
        <time>2015-05-17T06:40:30Z</time>
      </trkpt>
      <trkpt lat="45.47647" lon="5.7056">
        <ele>554</ele>
        <time>2015-05-17T06:40:36Z</time>
      </trkpt>
      <trkpt lat="45.47641" lon="5.70555">
        <ele>555.8</ele>
        <time>2015-05-17T06:40:41Z</time>
      </trkpt>
      <trkpt lat="45.47635" lon="5.70551">
        <ele>557.6</ele>
        <time>2015-05-17T06:40:48Z</time>
      </trkpt>
      <trkpt lat="45.47628" lon="5.70548">
        <ele>558.3</ele>
        <time>2015-05-17T06:40:52Z</time>
      </trkpt>
      <trkpt lat="45.4762" lon="5.70542">
        <ele>559.4</ele>
        <time>2015-05-17T06:40:57Z</time>
      </trkpt>
      <trkpt lat="45.47614" lon="5.70538">
        <ele>560.6</ele>
        <time>2015-05-17T06:41:04Z</time>
      </trkpt>
      <trkpt lat="45.47606" lon="5.70535">
        <ele>561.6</ele>
        <time>2015-05-17T06:41:08Z</time>
      </trkpt>
      <trkpt lat="45.47599" lon="5.70528">
        <ele>563.1</ele>
        <time>2015-05-17T06:41:13Z</time>
      </trkpt>
      <trkpt lat="45.47592" lon="5.7052">
        <ele>564</ele>
        <time>2015-05-17T06:41:16Z</time>
      </trkpt>
      <trkpt lat="45.47586" lon="5.70512">
        <ele>565.3</ele>
        <time>2015-05-17T06:41:20Z</time>
      </trkpt>
      <trkpt lat="45.4758" lon="5.70503">
        <ele>566.9</ele>
        <time>2015-05-17T06:41:26Z</time>
      </trkpt>
      <trkpt lat="45.47574" lon="5.70497">
        <ele>568.1</ele>
        <time>2015-05-17T06:41:32Z</time>
      </trkpt>
      <trkpt lat="45.47566" lon="5.70491">
        <ele>569.3</ele>
        <time>2015-05-17T06:41:39Z</time>
      </trkpt>
      <trkpt lat="45.47559" lon="5.70487">
        <ele>570.9</ele>
        <time>2015-05-17T06:41:45Z</time>
      </trkpt>
      <trkpt lat="45.47552" lon="5.70482">
        <ele>572.2</ele>
        <time>2015-05-17T06:41:51Z</time>
      </trkpt>
      <trkpt lat="45.47547" lon="5.70476">
        <ele>573.8</ele>
        <time>2015-05-17T06:41:58Z</time>
      </trkpt>
      <trkpt lat="45.47542" lon="5.70468">
        <ele>575.4</ele>
        <time>2015-05-17T06:42:05Z</time>
      </trkpt>
      <trkpt lat="45.47535" lon="5.70461">
        <ele>576.4</ele>
        <time>2015-05-17T06:42:11Z</time>
      </trkpt>
      <trkpt lat="45.47528" lon="5.70455">
        <ele>577.7</ele>
        <time>2015-05-17T06:42:16Z</time>
      </trkpt>
      <trkpt lat="45.4752" lon="5.70449">
        <ele>578.8</ele>
        <time>2015-05-17T06:42:21Z</time>
      </trkpt>
      <trkpt lat="45.47513" lon="5.70446">
        <ele>579.7</ele>
        <time>2015-05-17T06:42:25Z</time>
      </trkpt>
      <trkpt lat="45.47505" lon="5.70445">
        <ele>579.9</ele>
        <time>2015-05-17T06:42:31Z</time>
      </trkpt>
      <trkpt lat="45.47498" lon="5.70441">
        <ele>579.8</ele>
        <time>2015-05-17T06:42:36Z</time>
      </trkpt>
      <trkpt lat="45.47492" lon="5.70436">
        <ele>579.5</ele>
        <time>2015-05-17T06:42:40Z</time>
      </trkpt>
      <trkpt lat="45.47486" lon="5.70428">
        <ele>579.7</ele>
        <time>2015-05-17T06:42:45Z</time>
      </trkpt>
      <trkpt lat="45.4748" lon="5.7042">
        <ele>580.9</ele>
        <time>2015-05-17T06:42:52Z</time>
      </trkpt>
      <trkpt lat="45.47474" lon="5.70413">
        <ele>581.9</ele>
        <time>2015-05-17T06:42:57Z</time>
      </trkpt>
      <trkpt lat="45.47467" lon="5.70406">
        <ele>583.5</ele>
        <time>2015-05-17T06:43:03Z</time>
      </trkpt>
      <trkpt lat="45.47459" lon="5.70402">
        <ele>584.9</ele>
        <time>2015-05-17T06:43:09Z</time>
      </trkpt>
      <trkpt lat="45.47451" lon="5.70398">
        <ele>585.8</ele>
        <time>2015-05-17T06:43:14Z</time>
      </trkpt>
      <trkpt lat="45.47444" lon="5.70393">
        <ele>586.5</ele>
        <time>2015-05-17T06:43:19Z</time>
      </trkpt>
      <trkpt lat="45.47437" lon="5.7039">
        <ele>587.6</ele>
        <time>2015-05-17T06:43:25Z</time>
      </trkpt>
      <trkpt lat="45.4743" lon="5.70385">
        <ele>588.9</ele>
        <time>2015-05-17T06:43:32Z</time>
      </trkpt>
      <trkpt lat="45.47425" lon="5.70378">
        <ele>590.3</ele>
        <time>2015-05-17T06:43:39Z</time>
      </trkpt>
      <trkpt lat="45.47419" lon="5.70371">
        <ele>591.4</ele>
        <time>2015-05-17T06:43:44Z</time>
      </trkpt>
      <trkpt lat="45.47412" lon="5.70366">
        <ele>592.8</ele>
        <time>2015-05-17T06:43:49Z</time>
      </trkpt>
      <trkpt lat="45.47405" lon="5.7036">
        <ele>594.7</ele>
        <time>2015-05-17T06:43:55Z</time>
      </trkpt>
      <trkpt lat="45.47398" lon="5.70357">
        <ele>596.1</ele>
        <time>2015-05-17T06:44:02Z</time>
      </trkpt>
      <trkpt lat="45.47391" lon="5.7035">
        <ele>596.9</ele>
        <time>2015-05-17T06:44:07Z</time>
      </trkpt>
      <trkpt lat="45.47387" lon="5.70341">
        <ele>597.9</ele>
        <time>2015-05-17T06:44:11Z</time>
      </trkpt>
      <trkpt lat="45.47381" lon="5.70334">
        <ele>598.9</ele>
        <time>2015-05-17T06:44:16Z</time>
      </trkpt>
      <trkpt lat="45.47376" lon="5.70325">
        <ele>599.9</ele>
        <time>2015-05-17T06:44:22Z</time>
      </trkpt>
      <trkpt lat="45.4737" lon="5.70318">
        <ele>601</ele>
        <time>2015-05-17T06:44:27Z</time>
      </trkpt>
      <trkpt lat="45.47364" lon="5.70311">
        <ele>601.6</ele>
        <time>2015-05-17T06:44:32Z</time>
      </trkpt>
      <trkpt lat="45.47359" lon="5.70305">
        <ele>603</ele>
        <time>2015-05-17T06:44:39Z</time>
      </trkpt>
      <trkpt lat="45.47352" lon="5.70299">
        <ele>604.5</ele>
        <time>2015-05-17T06:44:44Z</time>
      </trkpt>
      <trkpt lat="45.47345" lon="5.70296">
        <ele>605.8</ele>
        <time>2015-05-17T06:44:49Z</time>
      </trkpt>
      <trkpt lat="45.47339" lon="5.70291">
        <ele>606.4</ele>
        <time>2015-05-17T06:44:56Z</time>
      </trkpt>
      <trkpt lat="45.47335" lon="5.70281">
        <ele>607.6</ele>
        <time>2015-05-17T06:45:02Z</time>
      </trkpt>
      <trkpt lat="45.47331" lon="5.70271">
        <ele>610.4</ele>
        <time>2015-05-17T06:45:08Z</time>
      </trkpt>
      <trkpt lat="45.47325" lon="5.70264">
        <ele>611.9</ele>
        <time>2015-05-17T06:45:12Z</time>
      </trkpt>
      <trkpt lat="45.47318" lon="5.70258">
        <ele>612.9</ele>
        <time>2015-05-17T06:45:16Z</time>
      </trkpt>
      <trkpt lat="45.47312" lon="5.70251">
        <ele>614.2</ele>
        <time>2015-05-17T06:45:22Z</time>
      </trkpt>
      <trkpt lat="45.47306" lon="5.70244">
        <ele>615.8</ele>
        <time>2015-05-17T06:45:27Z</time>
      </trkpt>
      <trkpt lat="45.47298" lon="5.70238">
        <ele>617.7</ele>
        <time>2015-05-17T06:45:32Z</time>
      </trkpt>
      <trkpt lat="45.47291" lon="5.70232">
        <ele>619.8</ele>
        <time>2015-05-17T06:45:38Z</time>
      </trkpt>
      <trkpt lat="45.47284" lon="5.70224">
        <ele>622</ele>
        <time>2015-05-17T06:45:44Z</time>
      </trkpt>
      <trkpt lat="45.47277" lon="5.70219">
        <ele>623.9</ele>
        <time>2015-05-17T06:45:50Z</time>
      </trkpt>
      <trkpt lat="45.47272" lon="5.70217">
        <ele>625.9</ele>
        <time>2015-05-17T06:45:57Z</time>
      </trkpt>
      <trkpt lat="45.47264" lon="5.70212">
        <ele>627.8</ele>
        <time>2015-05-17T06:46:04Z</time>
      </trkpt>
      <trkpt lat="45.47258" lon="5.70208">
        <ele>629.5</ele>
        <time>2015-05-17T06:46:11Z</time>
      </trkpt>
      <trkpt lat="45.4725" lon="5.70204">
        <ele>631</ele>
        <time>2015-05-17T06:46:17Z</time>
      </trkpt>
      <trkpt lat="45.47243" lon="5.702">
        <ele>632.1</ele>
        <time>2015-05-17T06:46:22Z</time>
      </trkpt>
      <trkpt lat="45.47232" lon="5.70198">
        <ele>633.9</ele>
        <time>2015-05-17T06:46:29Z</time>
      </trkpt>
      <trkpt lat="45.47225" lon="5.70194">
        <ele>634.8</ele>
        <time>2015-05-17T06:46:34Z</time>
      </trkpt>
      <trkpt lat="45.47218" lon="5.70191">
        <ele>635.6</ele>
        <time>2015-05-17T06:46:37Z</time>
      </trkpt>
      <trkpt lat="45.4721" lon="5.70186">
        <ele>636.4</ele>
        <time>2015-05-17T06:46:42Z</time>
      </trkpt>
      <trkpt lat="45.47202" lon="5.70182">
        <ele>638.1</ele>
        <time>2015-05-17T06:46:48Z</time>
      </trkpt>
      <trkpt lat="45.47195" lon="5.70176">
        <ele>640.1</ele>
        <time>2015-05-17T06:46:54Z</time>
      </trkpt>
      <trkpt lat="45.47189" lon="5.70171">
        <ele>642.2</ele>
        <time>2015-05-17T06:47:01Z</time>
      </trkpt>
      <trkpt lat="45.47182" lon="5.70166">
        <ele>643.8</ele>
        <time>2015-05-17T06:47:08Z</time>
      </trkpt>
      <trkpt lat="45.47174" lon="5.70163">
        <ele>645</ele>
        <time>2015-05-17T06:47:13Z</time>
      </trkpt>
      <trkpt lat="45.47167" lon="5.70158">
        <ele>646.3</ele>
        <time>2015-05-17T06:47:19Z</time>
      </trkpt>
      <trkpt lat="45.47158" lon="5.70155">
        <ele>647.1</ele>
        <time>2015-05-17T06:47:25Z</time>
      </trkpt>
      <trkpt lat="45.47151" lon="5.70149">
        <ele>647.6</ele>
        <time>2015-05-17T06:47:29Z</time>
      </trkpt>
      <trkpt lat="45.47143" lon="5.70145">
        <ele>648.7</ele>
        <time>2015-05-17T06:47:35Z</time>
      </trkpt>
      <trkpt lat="45.47138" lon="5.70139">
        <ele>648.9</ele>
        <time>2015-05-17T06:47:42Z</time>
      </trkpt>
      <trkpt lat="45.47134" lon="5.70128">
        <ele>649.3</ele>
        <time>2015-05-17T06:47:49Z</time>
      </trkpt>
      <trkpt lat="45.47127" lon="5.70122">
        <ele>649.6</ele>
        <time>2015-05-17T06:47:53Z</time>
      </trkpt>
      <trkpt lat="45.4712" lon="5.70114">
        <ele>650.2</ele>
        <time>2015-05-17T06:47:59Z</time>
      </trkpt>
      <trkpt lat="45.47114" lon="5.70108">
        <ele>650.8</ele>
        <time>2015-05-17T06:48:03Z</time>
      </trkpt>
      <trkpt lat="45.47106" lon="5.70103">
        <ele>651.4</ele>
        <time>2015-05-17T06:48:08Z</time>
      </trkpt>
      <trkpt lat="45.471" lon="5.70096">
        <ele>651.6</ele>
        <time>2015-05-17T06:48:13Z</time>
      </trkpt>
      <trkpt lat="45.47092" lon="5.7009">
        <ele>652.2</ele>
        <time>2015-05-17T06:48:20Z</time>
      </trkpt>
      <trkpt lat="45.47086" lon="5.70083">
        <ele>653.2</ele>
        <time>2015-05-17T06:48:26Z</time>
      </trkpt>
      <trkpt lat="45.47081" lon="5.70074">
        <ele>654.9</ele>
        <time>2015-05-17T06:48:33Z</time>
      </trkpt>
      <trkpt lat="45.47074" lon="5.7007">
        <ele>656.5</ele>
        <time>2015-05-17T06:48:38Z</time>
      </trkpt>
      <trkpt lat="45.47069" lon="5.70065">
        <ele>659.4</ele>
        <time>2015-05-17T06:48:45Z</time>
      </trkpt>
      <trkpt lat="45.47062" lon="5.70059">
        <ele>662.7</ele>
        <time>2015-05-17T06:48:52Z</time>
      </trkpt>
      <trkpt lat="45.47056" lon="5.70053">
        <ele>663.9</ele>
        <time>2015-05-17T06:48:58Z</time>
      </trkpt>
      <trkpt lat="45.47049" lon="5.70047">
        <ele>665.7</ele>
        <time>2015-05-17T06:49:05Z</time>
      </trkpt>
      <trkpt lat="45.47042" lon="5.70041">
        <ele>666.8</ele>
        <time>2015-05-17T06:49:10Z</time>
      </trkpt>
      <trkpt lat="45.47034" lon="5.70036">
        <ele>668.2</ele>
        <time>2015-05-17T06:49:16Z</time>
      </trkpt>
      <trkpt lat="45.47028" lon="5.7003">
        <ele>670.3</ele>
        <time>2015-05-17T06:49:23Z</time>
      </trkpt>
      <trkpt lat="45.47022" lon="5.70021">
        <ele>672.6</ele>
        <time>2015-05-17T06:49:29Z</time>
      </trkpt>
      <trkpt lat="45.47013" lon="5.70012">
        <ele>677.6</ele>
        <time>2015-05-17T06:49:43Z</time>
      </trkpt>
      <trkpt lat="45.47007" lon="5.70004">
        <ele>677.6</ele>
        <time>2015-05-17T06:49:48Z</time>
      </trkpt>
      <trkpt lat="45.47003" lon="5.69998">
        <ele>678.3</ele>
        <time>2015-05-17T06:49:55Z</time>
      </trkpt>
      <trkpt lat="45.46999" lon="5.69993">
        <ele>679</ele>
        <time>2015-05-17T06:50:02Z</time>
      </trkpt>
      <trkpt lat="45.46997" lon="5.6999">
        <ele>679.8</ele>
        <time>2015-05-17T06:50:09Z</time>
      </trkpt>
      <trkpt lat="45.4699" lon="5.69984">
        <ele>680</ele>
        <time>2015-05-17T06:50:23Z</time>
      </trkpt>
      <trkpt lat="45.46983" lon="5.69979">
        <ele>679.5</ele>
        <time>2015-05-17T06:50:28Z</time>
      </trkpt>
      <trkpt lat="45.46978" lon="5.69974">
        <ele>679.4</ele>
        <time>2015-05-17T06:50:35Z</time>
      </trkpt>
      <trkpt lat="45.46971" lon="5.6997">
        <ele>679.3</ele>
        <time>2015-05-17T06:50:40Z</time>
      </trkpt>
      <trkpt lat="45.46965" lon="5.69963">
        <ele>680.2</ele>
        <time>2015-05-17T06:50:46Z</time>
      </trkpt>
      <trkpt lat="45.46954" lon="5.69962">
        <ele>683.9</ele>
        <time>2015-05-17T06:51:00Z</time>
      </trkpt>
      <trkpt lat="45.46947" lon="5.69958">
        <ele>684.8</ele>
        <time>2015-05-17T06:51:05Z</time>
      </trkpt>
      <trkpt lat="45.4694" lon="5.69953">
        <ele>685.2</ele>
        <time>2015-05-17T06:51:12Z</time>
      </trkpt>
      <trkpt lat="45.46935" lon="5.69952">
        <ele>685.6</ele>
        <time>2015-05-17T06:51:19Z</time>
      </trkpt>
      <trkpt lat="45.46928" lon="5.69949">
        <ele>685.5</ele>
        <time>2015-05-17T06:51:26Z</time>
      </trkpt>
      <trkpt lat="45.46925" lon="5.69949">
        <ele>685.3</ele>
        <time>2015-05-17T06:51:33Z</time>
      </trkpt>
      <trkpt lat="45.46917" lon="5.69943">
        <ele>684.9</ele>
        <time>2015-05-17T06:51:39Z</time>
      </trkpt>
      <trkpt lat="45.46911" lon="5.69936">
        <ele>685.2</ele>
        <time>2015-05-17T06:51:45Z</time>
      </trkpt>
      <trkpt lat="45.46903" lon="5.6993">
        <ele>685.6</ele>
        <time>2015-05-17T06:51:51Z</time>
      </trkpt>
      <trkpt lat="45.46898" lon="5.69925">
        <ele>687</ele>
        <time>2015-05-17T06:51:58Z</time>
      </trkpt>
      <trkpt lat="45.46892" lon="5.69918">
        <ele>688.1</ele>
        <time>2015-05-17T06:52:03Z</time>
      </trkpt>
      <trkpt lat="45.46885" lon="5.69912">
        <ele>689.3</ele>
        <time>2015-05-17T06:52:09Z</time>
      </trkpt>
      <trkpt lat="45.46877" lon="5.69906">
        <ele>690.7</ele>
        <time>2015-05-17T06:52:15Z</time>
      </trkpt>
      <trkpt lat="45.4687" lon="5.69902">
        <ele>691.6</ele>
        <time>2015-05-17T06:52:19Z</time>
      </trkpt>
      <trkpt lat="45.46862" lon="5.69899">
        <ele>693</ele>
        <time>2015-05-17T06:52:25Z</time>
      </trkpt>
      <trkpt lat="45.46855" lon="5.69895">
        <ele>695.1</ele>
        <time>2015-05-17T06:52:32Z</time>
      </trkpt>
      <trkpt lat="45.46848" lon="5.69891">
        <ele>696.5</ele>
        <time>2015-05-17T06:52:37Z</time>
      </trkpt>
      <trkpt lat="45.4684" lon="5.69888">
        <ele>698</ele>
        <time>2015-05-17T06:52:43Z</time>
      </trkpt>
      <trkpt lat="45.46833" lon="5.69886">
        <ele>699</ele>
        <time>2015-05-17T06:52:49Z</time>
      </trkpt>
      <trkpt lat="45.46827" lon="5.69882">
        <ele>700.5</ele>
        <time>2015-05-17T06:52:56Z</time>
      </trkpt>
      <trkpt lat="45.4682" lon="5.69877">
        <ele>701.5</ele>
        <time>2015-05-17T06:53:01Z</time>
      </trkpt>
      <trkpt lat="45.46811" lon="5.69872">
        <ele>702.5</ele>
        <time>2015-05-17T06:53:07Z</time>
      </trkpt>
      <trkpt lat="45.46804" lon="5.69865">
        <ele>703</ele>
        <time>2015-05-17T06:53:13Z</time>
      </trkpt>
      <trkpt lat="45.46798" lon="5.69861">
        <ele>703</ele>
        <time>2015-05-17T06:53:20Z</time>
      </trkpt>
      <trkpt lat="45.46792" lon="5.69855">
        <ele>703.3</ele>
        <time>2015-05-17T06:53:25Z</time>
      </trkpt>
      <trkpt lat="45.46785" lon="5.6985">
        <ele>704.2</ele>
        <time>2015-05-17T06:53:30Z</time>
      </trkpt>
      <trkpt lat="45.46778" lon="5.69844">
        <ele>705</ele>
        <time>2015-05-17T06:53:35Z</time>
      </trkpt>
      <trkpt lat="45.46771" lon="5.69839">
        <ele>705.3</ele>
        <time>2015-05-17T06:53:38Z</time>
      </trkpt>
      <trkpt lat="45.46765" lon="5.69836">
        <ele>705.5</ele>
        <time>2015-05-17T06:53:45Z</time>
      </trkpt>
      <trkpt lat="45.46764" lon="5.69835">
        <ele>705.9</ele>
        <time>2015-05-17T06:54:11Z</time>
      </trkpt>
      <trkpt lat="45.4676" lon="5.69833">
        <ele>706.3</ele>
        <time>2015-05-17T06:54:31Z</time>
      </trkpt>
      <trkpt lat="45.4676" lon="5.6983">
        <ele>706.7</ele>
        <time>2015-05-17T06:55:24Z</time>
      </trkpt>
      <trkpt lat="45.46756" lon="5.69834">
        <ele>704.1</ele>
        <time>2015-05-17T06:55:51Z</time>
      </trkpt>
      <trkpt lat="45.46758" lon="5.69836">
        <ele>704.6</ele>
        <time>2015-05-17T06:56:34Z</time>
      </trkpt>
      <trkpt lat="45.4676" lon="5.69835">
        <ele>709.2</ele>
        <time>2015-05-17T06:56:53Z</time>
      </trkpt>
      <trkpt lat="45.46759" lon="5.69834">
        <ele>711.3</ele>
        <time>2015-05-17T06:57:40Z</time>
      </trkpt>
      <trkpt lat="45.46759" lon="5.69831">
        <ele>711.3</ele>
        <time>2015-05-17T06:59:39Z</time>
      </trkpt>
      <trkpt lat="45.46761" lon="5.69833">
        <ele>712.6</ele>
        <time>2015-05-17T06:59:30Z</time>
      </trkpt>
      <trkpt lat="45.46764" lon="5.69842">
        <ele>711.9</ele>
        <time>2015-05-17T07:01:11Z</time>
      </trkpt>
      <trkpt lat="45.46769" lon="5.69851">
        <ele>711.9</ele>
        <time>2015-05-17T07:01:17Z</time>
      </trkpt>
      <trkpt lat="45.46776" lon="5.69857">
        <ele>712.1</ele>
        <time>2015-05-17T07:01:21Z</time>
      </trkpt>
      <trkpt lat="45.46782" lon="5.69865">
        <ele>712.7</ele>
        <time>2015-05-17T07:01:26Z</time>
      </trkpt>
      <trkpt lat="45.46786" lon="5.69874">
        <ele>714.3</ele>
        <time>2015-05-17T07:01:33Z</time>
      </trkpt>
      <trkpt lat="45.4679" lon="5.69884">
        <ele>715.1</ele>
        <time>2015-05-17T07:01:37Z</time>
      </trkpt>
      <trkpt lat="45.46797" lon="5.6989">
        <ele>715.6</ele>
        <time>2015-05-17T07:01:40Z</time>
      </trkpt>
      <trkpt lat="45.46804" lon="5.69896">
        <ele>716.6</ele>
        <time>2015-05-17T07:01:45Z</time>
      </trkpt>
      <trkpt lat="45.46809" lon="5.69903">
        <ele>717.3</ele>
        <time>2015-05-17T07:01:52Z</time>
      </trkpt>
      <trkpt lat="45.46816" lon="5.69908">
        <ele>718.1</ele>
        <time>2015-05-17T07:01:58Z</time>
      </trkpt>
      <trkpt lat="45.46824" lon="5.69914">
        <ele>718.7</ele>
        <time>2015-05-17T07:02:03Z</time>
      </trkpt>
      <trkpt lat="45.4683" lon="5.6992">
        <ele>719</ele>
        <time>2015-05-17T07:02:08Z</time>
      </trkpt>
      <trkpt lat="45.46834" lon="5.69928">
        <ele>719.2</ele>
        <time>2015-05-17T07:02:13Z</time>
      </trkpt>
      <trkpt lat="45.46842" lon="5.69935">
        <ele>720</ele>
        <time>2015-05-17T07:02:18Z</time>
      </trkpt>
      <trkpt lat="45.4685" lon="5.69939">
        <ele>720.5</ele>
        <time>2015-05-17T07:02:23Z</time>
      </trkpt>
      <trkpt lat="45.46859" lon="5.69945">
        <ele>721</ele>
        <time>2015-05-17T07:02:27Z</time>
      </trkpt>
      <trkpt lat="45.46868" lon="5.69951">
        <ele>721.1</ele>
        <time>2015-05-17T07:02:30Z</time>
      </trkpt>
      <trkpt lat="45.46875" lon="5.69958">
        <ele>721</ele>
        <time>2015-05-17T07:02:32Z</time>
      </trkpt>
      <trkpt lat="45.46883" lon="5.69964">
        <ele>720.7</ele>
        <time>2015-05-17T07:02:34Z</time>
      </trkpt>
      <trkpt lat="45.46889" lon="5.6997">
        <ele>720.3</ele>
        <time>2015-05-17T07:02:36Z</time>
      </trkpt>
      <trkpt lat="45.46895" lon="5.69978">
        <ele>719.8</ele>
        <time>2015-05-17T07:02:39Z</time>
      </trkpt>
      <trkpt lat="45.46904" lon="5.69985">
        <ele>719.2</ele>
        <time>2015-05-17T07:02:43Z</time>
      </trkpt>
      <trkpt lat="45.46911" lon="5.69996">
        <ele>718.7</ele>
        <time>2015-05-17T07:02:46Z</time>
      </trkpt>
      <trkpt lat="45.46916" lon="5.70006">
        <ele>718.1</ele>
        <time>2015-05-17T07:02:51Z</time>
      </trkpt>
      <trkpt lat="45.46923" lon="5.70014">
        <ele>717.7</ele>
        <time>2015-05-17T07:02:54Z</time>
      </trkpt>
      <trkpt lat="45.46929" lon="5.70023">
        <ele>717.2</ele>
        <time>2015-05-17T07:02:57Z</time>
      </trkpt>
      <trkpt lat="45.46936" lon="5.70029">
        <ele>716.8</ele>
        <time>2015-05-17T07:03:01Z</time>
      </trkpt>
      <trkpt lat="45.46943" lon="5.70033">
        <ele>716.4</ele>
        <time>2015-05-17T07:03:04Z</time>
      </trkpt>
      <trkpt lat="45.46951" lon="5.70042">
        <ele>716</ele>
        <time>2015-05-17T07:03:07Z</time>
      </trkpt>
      <trkpt lat="45.4696" lon="5.7005">
        <ele>715.6</ele>
        <time>2015-05-17T07:03:10Z</time>
      </trkpt>
      <trkpt lat="45.46968" lon="5.70058">
        <ele>715</ele>
        <time>2015-05-17T07:03:13Z</time>
      </trkpt>
      <trkpt lat="45.46974" lon="5.70064">
        <ele>714.2</ele>
        <time>2015-05-17T07:03:17Z</time>
      </trkpt>
      <trkpt lat="45.46981" lon="5.70071">
        <ele>713.5</ele>
        <time>2015-05-17T07:03:20Z</time>
      </trkpt>
      <trkpt lat="45.46986" lon="5.70081">
        <ele>713.2</ele>
        <time>2015-05-17T07:03:23Z</time>
      </trkpt>
      <trkpt lat="45.46991" lon="5.70092">
        <ele>712.9</ele>
        <time>2015-05-17T07:03:28Z</time>
      </trkpt>
      <trkpt lat="45.46996" lon="5.701">
        <ele>712.5</ele>
        <time>2015-05-17T07:03:32Z</time>
      </trkpt>
      <trkpt lat="45.47002" lon="5.70107">
        <ele>712.2</ele>
        <time>2015-05-17T07:03:38Z</time>
      </trkpt>
      <trkpt lat="45.47007" lon="5.70115">
        <ele>712.1</ele>
        <time>2015-05-17T07:03:41Z</time>
      </trkpt>
      <trkpt lat="45.47014" lon="5.70123">
        <ele>712.6</ele>
        <time>2015-05-17T07:03:45Z</time>
      </trkpt>
      <trkpt lat="45.47019" lon="5.70131">
        <ele>713</ele>
        <time>2015-05-17T07:03:49Z</time>
      </trkpt>
      <trkpt lat="45.47023" lon="5.70141">
        <ele>713.2</ele>
        <time>2015-05-17T07:03:53Z</time>
      </trkpt>
      <trkpt lat="45.47027" lon="5.70151">
        <ele>713.9</ele>
        <time>2015-05-17T07:03:58Z</time>
      </trkpt>
      <trkpt lat="45.47027" lon="5.70161">
        <ele>715.1</ele>
        <time>2015-05-17T07:04:04Z</time>
      </trkpt>
      <trkpt lat="45.47027" lon="5.70171">
        <ele>716.7</ele>
        <time>2015-05-17T07:04:11Z</time>
      </trkpt>
      <trkpt lat="45.47032" lon="5.70182">
        <ele>717.9</ele>
        <time>2015-05-17T07:04:16Z</time>
      </trkpt>
      <trkpt lat="45.47035" lon="5.70193">
        <ele>719.3</ele>
        <time>2015-05-17T07:04:22Z</time>
      </trkpt>
      <trkpt lat="45.4704" lon="5.70203">
        <ele>720.2</ele>
        <time>2015-05-17T07:04:26Z</time>
      </trkpt>
      <trkpt lat="45.47044" lon="5.70213">
        <ele>720.8</ele>
        <time>2015-05-17T07:04:29Z</time>
      </trkpt>
      <trkpt lat="45.47048" lon="5.70222">
        <ele>721.2</ele>
        <time>2015-05-17T07:04:32Z</time>
      </trkpt>
      <trkpt lat="45.47053" lon="5.70232">
        <ele>721.5</ele>
        <time>2015-05-17T07:04:36Z</time>
      </trkpt>
      <trkpt lat="45.47058" lon="5.70239">
        <ele>721.6</ele>
        <time>2015-05-17T07:04:40Z</time>
      </trkpt>
      <trkpt lat="45.47062" lon="5.70249">
        <ele>722.3</ele>
        <time>2015-05-17T07:04:47Z</time>
      </trkpt>
      <trkpt lat="45.47068" lon="5.70257">
        <ele>722.6</ele>
        <time>2015-05-17T07:04:51Z</time>
      </trkpt>
      <trkpt lat="45.47073" lon="5.70264">
        <ele>722.5</ele>
        <time>2015-05-17T07:04:54Z</time>
      </trkpt>
      <trkpt lat="45.47079" lon="5.70271">
        <ele>722.6</ele>
        <time>2015-05-17T07:04:58Z</time>
      </trkpt>
      <trkpt lat="45.47084" lon="5.70279">
        <ele>722.4</ele>
        <time>2015-05-17T07:05:05Z</time>
      </trkpt>
      <trkpt lat="45.47091" lon="5.70286">
        <ele>722.2</ele>
        <time>2015-05-17T07:05:08Z</time>
      </trkpt>
      <trkpt lat="45.47099" lon="5.70291">
        <ele>721.5</ele>
        <time>2015-05-17T07:05:13Z</time>
      </trkpt>
      <trkpt lat="45.47103" lon="5.703">
        <ele>721.7</ele>
        <time>2015-05-17T07:05:20Z</time>
      </trkpt>
      <trkpt lat="45.47111" lon="5.70307">
        <ele>722</ele>
        <time>2015-05-17T07:05:24Z</time>
      </trkpt>
      <trkpt lat="45.47117" lon="5.70316">
        <ele>721.8</ele>
        <time>2015-05-17T07:05:27Z</time>
      </trkpt>
      <trkpt lat="45.47122" lon="5.70325">
        <ele>721.4</ele>
        <time>2015-05-17T07:05:31Z</time>
      </trkpt>
      <trkpt lat="45.47128" lon="5.70333">
        <ele>721.2</ele>
        <time>2015-05-17T07:05:34Z</time>
      </trkpt>
      <trkpt lat="45.47134" lon="5.70341">
        <ele>721.3</ele>
        <time>2015-05-17T07:05:38Z</time>
      </trkpt>
      <trkpt lat="45.47142" lon="5.70348">
        <ele>721.5</ele>
        <time>2015-05-17T07:05:42Z</time>
      </trkpt>
      <trkpt lat="45.47149" lon="5.70352">
        <ele>721.5</ele>
        <time>2015-05-17T07:05:45Z</time>
      </trkpt>
      <trkpt lat="45.47156" lon="5.70357">
        <ele>721.5</ele>
        <time>2015-05-17T07:05:49Z</time>
      </trkpt>
      <trkpt lat="45.47164" lon="5.70363">
        <ele>721</ele>
        <time>2015-05-17T07:05:53Z</time>
      </trkpt>
      <trkpt lat="45.4717" lon="5.70371">
        <ele>720.5</ele>
        <time>2015-05-17T07:05:56Z</time>
      </trkpt>
      <trkpt lat="45.47177" lon="5.70381">
        <ele>720.3</ele>
        <time>2015-05-17T07:06:00Z</time>
      </trkpt>
      <trkpt lat="45.47183" lon="5.70391">
        <ele>720.4</ele>
        <time>2015-05-17T07:06:03Z</time>
      </trkpt>
      <trkpt lat="45.47192" lon="5.70398">
        <ele>720.5</ele>
        <time>2015-05-17T07:06:06Z</time>
      </trkpt>
      <trkpt lat="45.47198" lon="5.70407">
        <ele>720.4</ele>
        <time>2015-05-17T07:06:11Z</time>
      </trkpt>
      <trkpt lat="45.47203" lon="5.70416">
        <ele>720.2</ele>
        <time>2015-05-17T07:06:15Z</time>
      </trkpt>
      <trkpt lat="45.47208" lon="5.70425">
        <ele>720.1</ele>
        <time>2015-05-17T07:06:19Z</time>
      </trkpt>
      <trkpt lat="45.47212" lon="5.70434">
        <ele>719.9</ele>
        <time>2015-05-17T07:06:24Z</time>
      </trkpt>
      <trkpt lat="45.47216" lon="5.70446">
        <ele>720.1</ele>
        <time>2015-05-17T07:06:31Z</time>
      </trkpt>
      <trkpt lat="45.4722" lon="5.70454">
        <ele>720.2</ele>
        <time>2015-05-17T07:06:35Z</time>
      </trkpt>
      <trkpt lat="45.47226" lon="5.70464">
        <ele>720</ele>
        <time>2015-05-17T07:06:38Z</time>
      </trkpt>
      <trkpt lat="45.4723" lon="5.70474">
        <ele>719.5</ele>
        <time>2015-05-17T07:06:42Z</time>
      </trkpt>
      <trkpt lat="45.47237" lon="5.70482">
        <ele>719.1</ele>
        <time>2015-05-17T07:06:47Z</time>
      </trkpt>
      <trkpt lat="45.47243" lon="5.70492">
        <ele>718.8</ele>
        <time>2015-05-17T07:06:50Z</time>
      </trkpt>
      <trkpt lat="45.47246" lon="5.70501">
        <ele>718.5</ele>
        <time>2015-05-17T07:06:54Z</time>
      </trkpt>
      <trkpt lat="45.47247" lon="5.70512">
        <ele>717.9</ele>
        <time>2015-05-17T07:07:00Z</time>
      </trkpt>
      <trkpt lat="45.4725" lon="5.70522">
        <ele>717.5</ele>
        <time>2015-05-17T07:07:05Z</time>
      </trkpt>
      <trkpt lat="45.47254" lon="5.70531">
        <ele>717.6</ele>
        <time>2015-05-17T07:07:09Z</time>
      </trkpt>
      <trkpt lat="45.4726" lon="5.7054">
        <ele>718</ele>
        <time>2015-05-17T07:07:13Z</time>
      </trkpt>
      <trkpt lat="45.47266" lon="5.70547">
        <ele>718.6</ele>
        <time>2015-05-17T07:07:16Z</time>
      </trkpt>
      <trkpt lat="45.47274" lon="5.70555">
        <ele>719.3</ele>
        <time>2015-05-17T07:07:20Z</time>
      </trkpt>
      <trkpt lat="45.47281" lon="5.70562">
        <ele>720</ele>
        <time>2015-05-17T07:07:23Z</time>
      </trkpt>
      <trkpt lat="45.47287" lon="5.7057">
        <ele>720.6</ele>
        <time>2015-05-17T07:07:27Z</time>
      </trkpt>
      <trkpt lat="45.47294" lon="5.70577">
        <ele>721.4</ele>
        <time>2015-05-17T07:07:31Z</time>
      </trkpt>
      <trkpt lat="45.47298" lon="5.70587">
        <ele>722.1</ele>
        <time>2015-05-17T07:07:35Z</time>
      </trkpt>
      <trkpt lat="45.47301" lon="5.70596">
        <ele>722.6</ele>
        <time>2015-05-17T07:07:39Z</time>
      </trkpt>
      <trkpt lat="45.47306" lon="5.70605">
        <ele>722.6</ele>
        <time>2015-05-17T07:07:42Z</time>
      </trkpt>
      <trkpt lat="45.4731" lon="5.70618">
        <ele>722.5</ele>
        <time>2015-05-17T07:07:47Z</time>
      </trkpt>
      <trkpt lat="45.47311" lon="5.70629">
        <ele>722.2</ele>
        <time>2015-05-17T07:07:53Z</time>
      </trkpt>
      <trkpt lat="45.47313" lon="5.70641">
        <ele>722.2</ele>
        <time>2015-05-17T07:08:07Z</time>
      </trkpt>
      <trkpt lat="45.47316" lon="5.70648">
        <ele>722.2</ele>
        <time>2015-05-17T07:08:14Z</time>
      </trkpt>
      <trkpt lat="45.47322" lon="5.70663">
        <ele>722.9</ele>
        <time>2015-05-17T07:08:25Z</time>
      </trkpt>
      <trkpt lat="45.47326" lon="5.70674">
        <ele>722.6</ele>
        <time>2015-05-17T07:08:30Z</time>
      </trkpt>
      <trkpt lat="45.4733" lon="5.70684">
        <ele>722.4</ele>
        <time>2015-05-17T07:08:33Z</time>
      </trkpt>
      <trkpt lat="45.47334" lon="5.70697">
        <ele>722.3</ele>
        <time>2015-05-17T07:08:36Z</time>
      </trkpt>
      <trkpt lat="45.47338" lon="5.70709">
        <ele>722.1</ele>
        <time>2015-05-17T07:08:39Z</time>
      </trkpt>
      <trkpt lat="45.47341" lon="5.7072">
        <ele>722</ele>
        <time>2015-05-17T07:08:42Z</time>
      </trkpt>
      <trkpt lat="45.47344" lon="5.7073">
        <ele>721.9</ele>
        <time>2015-05-17T07:08:45Z</time>
      </trkpt>
      <trkpt lat="45.47348" lon="5.70739">
        <ele>721.9</ele>
        <time>2015-05-17T07:08:48Z</time>
      </trkpt>
      <trkpt lat="45.47351" lon="5.70749">
        <ele>722</ele>
        <time>2015-05-17T07:08:52Z</time>
      </trkpt>
      <trkpt lat="45.47354" lon="5.70759">
        <ele>721.8</ele>
        <time>2015-05-17T07:08:56Z</time>
      </trkpt>
      <trkpt lat="45.47357" lon="5.7077">
        <ele>721.8</ele>
        <time>2015-05-17T07:09:00Z</time>
      </trkpt>
      <trkpt lat="45.47359" lon="5.70781">
        <ele>721.9</ele>
        <time>2015-05-17T07:09:05Z</time>
      </trkpt>
      <trkpt lat="45.47362" lon="5.70794">
        <ele>721.9</ele>
        <time>2015-05-17T07:09:09Z</time>
      </trkpt>
      <trkpt lat="45.47363" lon="5.70804">
        <ele>721.7</ele>
        <time>2015-05-17T07:09:12Z</time>
      </trkpt>
      <trkpt lat="45.47364" lon="5.70815">
        <ele>721.5</ele>
        <time>2015-05-17T07:09:15Z</time>
      </trkpt>
      <trkpt lat="45.47364" lon="5.70826">
        <ele>721.2</ele>
        <time>2015-05-17T07:09:18Z</time>
      </trkpt>
      <trkpt lat="45.47364" lon="5.7083">
        <ele>720.9</ele>
        <time>2015-05-17T07:09:25Z</time>
      </trkpt>
      <trkpt lat="45.47361" lon="5.70827">
        <ele>719.2</ele>
        <time>2015-05-17T07:09:43Z</time>
      </trkpt>
      <trkpt lat="45.47364" lon="5.70828">
        <ele>718.8</ele>
        <time>2015-05-17T07:10:01Z</time>
      </trkpt>
      <trkpt lat="45.47366" lon="5.7083">
        <ele>718.8</ele>
        <time>2015-05-17T07:10:08Z</time>
      </trkpt>
      <trkpt lat="45.47365" lon="5.70827">
        <ele>718.4</ele>
        <time>2015-05-17T07:09:43Z</time>
      </trkpt>
      <trkpt lat="45.47362" lon="5.70827">
        <ele>718.2</ele>
        <time>2015-05-17T07:10:56Z</time>
      </trkpt>
      <trkpt lat="45.47361" lon="5.70835">
        <ele>717.9</ele>
        <time>2015-05-17T07:10:40Z</time>
      </trkpt>
      <trkpt lat="45.47361" lon="5.70833">
        <ele>717.7</ele>
        <time>2015-05-17T07:12:06Z</time>
      </trkpt>
      <trkpt lat="45.47368" lon="5.70831">
        <ele>717.2</ele>
        <time>2015-05-17T07:14:36Z</time>
      </trkpt>
      <trkpt lat="45.47371" lon="5.70832">
        <ele>717</ele>
        <time>2015-05-17T07:14:43Z</time>
      </trkpt>
      <trkpt lat="45.47368" lon="5.70823">
        <ele>716.6</ele>
        <time>2015-05-17T07:15:00Z</time>
      </trkpt>
      <trkpt lat="45.47364" lon="5.70822">
        <ele>716.7</ele>
        <time>2015-05-17T07:15:07Z</time>
      </trkpt>
      <trkpt lat="45.47365" lon="5.7083">
        <ele>716.9</ele>
        <time>2015-05-17T07:15:14Z</time>
      </trkpt>
      <trkpt lat="45.47364" lon="5.70827">
        <ele>717.4</ele>
        <time>2015-05-17T07:15:21Z</time>
      </trkpt>
      <trkpt lat="45.47366" lon="5.70817">
        <ele>717.4</ele>
        <time>2015-05-17T07:15:25Z</time>
      </trkpt>
      <trkpt lat="45.47366" lon="5.70806">
        <ele>717.1</ele>
        <time>2015-05-17T07:15:31Z</time>
      </trkpt>
      <trkpt lat="45.47364" lon="5.70801">
        <ele>717.2</ele>
        <time>2015-05-17T07:15:38Z</time>
      </trkpt>
      <trkpt lat="45.4736" lon="5.708">
        <ele>717.5</ele>
        <time>2015-05-17T07:15:45Z</time>
      </trkpt>
      <trkpt lat="45.47361" lon="5.708">
        <ele>717.6</ele>
        <time>2015-05-17T07:16:12Z</time>
      </trkpt>
      <trkpt lat="45.47364" lon="5.70796">
        <ele>717</ele>
        <time>2015-05-17T07:16:05Z</time>
      </trkpt>
      <trkpt lat="45.47363" lon="5.70802">
        <ele>717.8</ele>
        <time>2015-05-17T07:16:26Z</time>
      </trkpt>
      <trkpt lat="45.47364" lon="5.70813">
        <ele>718</ele>
        <time>2015-05-17T07:17:36Z</time>
      </trkpt>
      <trkpt lat="45.47364" lon="5.70824">
        <ele>718.2</ele>
        <time>2015-05-17T07:17:40Z</time>
      </trkpt>
      <trkpt lat="45.4736" lon="5.70835">
        <ele>718.3</ele>
        <time>2015-05-17T07:17:43Z</time>
      </trkpt>
      <trkpt lat="45.47354" lon="5.70843">
        <ele>718.4</ele>
        <time>2015-05-17T07:17:46Z</time>
      </trkpt>
      <trkpt lat="45.47348" lon="5.70852">
        <ele>718.3</ele>
        <time>2015-05-17T07:17:49Z</time>
      </trkpt>
      <trkpt lat="45.47342" lon="5.70862">
        <ele>718.3</ele>
        <time>2015-05-17T07:17:53Z</time>
      </trkpt>
      <trkpt lat="45.47335" lon="5.7087">
        <ele>718.3</ele>
        <time>2015-05-17T07:17:56Z</time>
      </trkpt>
      <trkpt lat="45.4733" lon="5.70879">
        <ele>718.3</ele>
        <time>2015-05-17T07:17:59Z</time>
      </trkpt>
      <trkpt lat="45.47322" lon="5.70889">
        <ele>718.2</ele>
        <time>2015-05-17T07:18:02Z</time>
      </trkpt>
      <trkpt lat="45.47315" lon="5.70894">
        <ele>718.1</ele>
        <time>2015-05-17T07:18:04Z</time>
      </trkpt>
      <trkpt lat="45.47309" lon="5.709">
        <ele>717.9</ele>
        <time>2015-05-17T07:18:07Z</time>
      </trkpt>
      <trkpt lat="45.47301" lon="5.70907">
        <ele>717.8</ele>
        <time>2015-05-17T07:18:10Z</time>
      </trkpt>
      <trkpt lat="45.47294" lon="5.70914">
        <ele>717.7</ele>
        <time>2015-05-17T07:18:14Z</time>
      </trkpt>
      <trkpt lat="45.47286" lon="5.70918">
        <ele>717.5</ele>
        <time>2015-05-17T07:18:18Z</time>
      </trkpt>
      <trkpt lat="45.47279" lon="5.70922">
        <ele>717.1</ele>
        <time>2015-05-17T07:18:21Z</time>
      </trkpt>
      <trkpt lat="45.47271" lon="5.70926">
        <ele>716.9</ele>
        <time>2015-05-17T07:18:25Z</time>
      </trkpt>
      <trkpt lat="45.47263" lon="5.7093">
        <ele>716.8</ele>
        <time>2015-05-17T07:18:28Z</time>
      </trkpt>
      <trkpt lat="45.47255" lon="5.70932">
        <ele>716.7</ele>
        <time>2015-05-17T07:18:30Z</time>
      </trkpt>
      <trkpt lat="45.47245" lon="5.70936">
        <ele>716.8</ele>
        <time>2015-05-17T07:18:33Z</time>
      </trkpt>
      <trkpt lat="45.47237" lon="5.70939">
        <ele>716.8</ele>
        <time>2015-05-17T07:18:36Z</time>
      </trkpt>
      <trkpt lat="45.47228" lon="5.70944">
        <ele>716.7</ele>
        <time>2015-05-17T07:18:39Z</time>
      </trkpt>
      <trkpt lat="45.47221" lon="5.70948">
        <ele>716.7</ele>
        <time>2015-05-17T07:18:42Z</time>
      </trkpt>
      <trkpt lat="45.47213" lon="5.70951">
        <ele>716.9</ele>
        <time>2015-05-17T07:18:45Z</time>
      </trkpt>
      <trkpt lat="45.47205" lon="5.70956">
        <ele>717</ele>
        <time>2015-05-17T07:18:48Z</time>
      </trkpt>
      <trkpt lat="45.47197" lon="5.70958">
        <ele>717.2</ele>
        <time>2015-05-17T07:18:51Z</time>
      </trkpt>
      <trkpt lat="45.4719" lon="5.70963">
        <ele>717.7</ele>
        <time>2015-05-17T07:18:54Z</time>
      </trkpt>
      <trkpt lat="45.47183" lon="5.70968">
        <ele>718.2</ele>
        <time>2015-05-17T07:18:57Z</time>
      </trkpt>
      <trkpt lat="45.47174" lon="5.70971">
        <ele>718.5</ele>
        <time>2015-05-17T07:19:00Z</time>
      </trkpt>
      <trkpt lat="45.47166" lon="5.70975">
        <ele>719</ele>
        <time>2015-05-17T07:19:03Z</time>
      </trkpt>
      <trkpt lat="45.47156" lon="5.7098">
        <ele>719.3</ele>
        <time>2015-05-17T07:19:06Z</time>
      </trkpt>
      <trkpt lat="45.47148" lon="5.70984">
        <ele>719.6</ele>
        <time>2015-05-17T07:19:09Z</time>
      </trkpt>
      <trkpt lat="45.47138" lon="5.70989">
        <ele>719.9</ele>
        <time>2015-05-17T07:19:13Z</time>
      </trkpt>
      <trkpt lat="45.47132" lon="5.70993">
        <ele>720.1</ele>
        <time>2015-05-17T07:19:16Z</time>
      </trkpt>
      <trkpt lat="45.47124" lon="5.70997">
        <ele>720.2</ele>
        <time>2015-05-17T07:19:19Z</time>
      </trkpt>
      <trkpt lat="45.47115" lon="5.71002">
        <ele>720.8</ele>
        <time>2015-05-17T07:19:23Z</time>
      </trkpt>
      <trkpt lat="45.47108" lon="5.71005">
        <ele>721.3</ele>
        <time>2015-05-17T07:19:27Z</time>
      </trkpt>
      <trkpt lat="45.471" lon="5.71008">
        <ele>721.8</ele>
        <time>2015-05-17T07:19:30Z</time>
      </trkpt>
      <trkpt lat="45.47091" lon="5.71012">
        <ele>722.4</ele>
        <time>2015-05-17T07:19:34Z</time>
      </trkpt>
      <trkpt lat="45.47084" lon="5.71015">
        <ele>723</ele>
        <time>2015-05-17T07:19:38Z</time>
      </trkpt>
      <trkpt lat="45.47077" lon="5.71019">
        <ele>723.7</ele>
        <time>2015-05-17T07:19:43Z</time>
      </trkpt>
      <trkpt lat="45.4707" lon="5.71021">
        <ele>724.4</ele>
        <time>2015-05-17T07:19:47Z</time>
      </trkpt>
      <trkpt lat="45.47062" lon="5.71022">
        <ele>725.1</ele>
        <time>2015-05-17T07:19:52Z</time>
      </trkpt>
      <trkpt lat="45.47053" lon="5.71021">
        <ele>726</ele>
        <time>2015-05-17T07:19:57Z</time>
      </trkpt>
      <trkpt lat="45.47046" lon="5.7102">
        <ele>727.4</ele>
        <time>2015-05-17T07:20:03Z</time>
      </trkpt>
      <trkpt lat="45.47037" lon="5.7102">
        <ele>729.2</ele>
        <time>2015-05-17T07:20:09Z</time>
      </trkpt>
      <trkpt lat="45.47029" lon="5.71019">
        <ele>730.7</ele>
        <time>2015-05-17T07:20:14Z</time>
      </trkpt>
      <trkpt lat="45.47022" lon="5.71019">
        <ele>731.8</ele>
        <time>2015-05-17T07:20:19Z</time>
      </trkpt>
      <trkpt lat="45.47015" lon="5.71016">
        <ele>732.6</ele>
        <time>2015-05-17T07:20:24Z</time>
      </trkpt>
      <trkpt lat="45.47007" lon="5.71011">
        <ele>733.7</ele>
        <time>2015-05-17T07:20:30Z</time>
      </trkpt>
      <trkpt lat="45.47" lon="5.71005">
        <ele>735.2</ele>
        <time>2015-05-17T07:20:36Z</time>
      </trkpt>
      <trkpt lat="45.46993" lon="5.70998">
        <ele>736.3</ele>
        <time>2015-05-17T07:20:41Z</time>
      </trkpt>
      <trkpt lat="45.46985" lon="5.70994">
        <ele>737.4</ele>
        <time>2015-05-17T07:20:45Z</time>
      </trkpt>
      <trkpt lat="45.46977" lon="5.70988">
        <ele>738.6</ele>
        <time>2015-05-17T07:20:50Z</time>
      </trkpt>
      <trkpt lat="45.4697" lon="5.70986">
        <ele>739.7</ele>
        <time>2015-05-17T07:20:55Z</time>
      </trkpt>
      <trkpt lat="45.46963" lon="5.70992">
        <ele>741.2</ele>
        <time>2015-05-17T07:21:01Z</time>
      </trkpt>
      <trkpt lat="45.46956" lon="5.70998">
        <ele>741.8</ele>
        <time>2015-05-17T07:21:05Z</time>
      </trkpt>
      <trkpt lat="45.46951" lon="5.71008">
        <ele>742.5</ele>
        <time>2015-05-17T07:21:09Z</time>
      </trkpt>
      <trkpt lat="45.46947" lon="5.7102">
        <ele>743</ele>
        <time>2015-05-17T07:21:13Z</time>
      </trkpt>
      <trkpt lat="45.46944" lon="5.71031">
        <ele>743.4</ele>
        <time>2015-05-17T07:21:17Z</time>
      </trkpt>
      <trkpt lat="45.4694" lon="5.71041">
        <ele>743.8</ele>
        <time>2015-05-17T07:21:21Z</time>
      </trkpt>
      <trkpt lat="45.46937" lon="5.71052">
        <ele>744.2</ele>
        <time>2015-05-17T07:21:25Z</time>
      </trkpt>
      <trkpt lat="45.46931" lon="5.71059">
        <ele>744.8</ele>
        <time>2015-05-17T07:21:30Z</time>
      </trkpt>
      <trkpt lat="45.46924" lon="5.71065">
        <ele>745.2</ele>
        <time>2015-05-17T07:21:34Z</time>
      </trkpt>
      <trkpt lat="45.46917" lon="5.7107">
        <ele>746.2</ele>
        <time>2015-05-17T07:21:41Z</time>
      </trkpt>
      <trkpt lat="45.4691" lon="5.71075">
        <ele>746.8</ele>
        <time>2015-05-17T07:21:46Z</time>
      </trkpt>
      <trkpt lat="45.46902" lon="5.71075">
        <ele>747.3</ele>
        <time>2015-05-17T07:21:50Z</time>
      </trkpt>
      <trkpt lat="45.46895" lon="5.71072">
        <ele>748.4</ele>
        <time>2015-05-17T07:21:55Z</time>
      </trkpt>
      <trkpt lat="45.46886" lon="5.71072">
        <ele>749.6</ele>
        <time>2015-05-17T07:22:00Z</time>
      </trkpt>
      <trkpt lat="45.46878" lon="5.71074">
        <ele>750.4</ele>
        <time>2015-05-17T07:22:04Z</time>
      </trkpt>
      <trkpt lat="45.4687" lon="5.71078">
        <ele>751.5</ele>
        <time>2015-05-17T07:22:09Z</time>
      </trkpt>
      <trkpt lat="45.46862" lon="5.71085">
        <ele>752.5</ele>
        <time>2015-05-17T07:22:14Z</time>
      </trkpt>
      <trkpt lat="45.46855" lon="5.71091">
        <ele>753.3</ele>
        <time>2015-05-17T07:22:18Z</time>
      </trkpt>
      <trkpt lat="45.46848" lon="5.71098">
        <ele>754.1</ele>
        <time>2015-05-17T07:22:22Z</time>
      </trkpt>
      <trkpt lat="45.46841" lon="5.71105">
        <ele>754.8</ele>
        <time>2015-05-17T07:22:26Z</time>
      </trkpt>
      <trkpt lat="45.46835" lon="5.71113">
        <ele>755.4</ele>
        <time>2015-05-17T07:22:30Z</time>
      </trkpt>
      <trkpt lat="45.46829" lon="5.71123">
        <ele>755.9</ele>
        <time>2015-05-17T07:22:34Z</time>
      </trkpt>
      <trkpt lat="45.46823" lon="5.71129">
        <ele>756.6</ele>
        <time>2015-05-17T07:22:39Z</time>
      </trkpt>
      <trkpt lat="45.46817" lon="5.71137">
        <ele>757.3</ele>
        <time>2015-05-17T07:22:45Z</time>
      </trkpt>
      <trkpt lat="45.46811" lon="5.71143">
        <ele>758.1</ele>
        <time>2015-05-17T07:22:50Z</time>
      </trkpt>
      <trkpt lat="45.46801" lon="5.7115">
        <ele>758.7</ele>
        <time>2015-05-17T07:22:54Z</time>
      </trkpt>
      <trkpt lat="45.46793" lon="5.71156">
        <ele>761.9</ele>
        <time>2015-05-17T07:22:56Z</time>
      </trkpt>
      <trkpt lat="45.46784" lon="5.71162">
        <ele>764.2</ele>
        <time>2015-05-17T07:22:58Z</time>
      </trkpt>
      <trkpt lat="45.46774" lon="5.71166">
        <ele>764.5</ele>
        <time>2015-05-17T07:23:00Z</time>
      </trkpt>
      <trkpt lat="45.46766" lon="5.71171">
        <ele>764.2</ele>
        <time>2015-05-17T07:23:02Z</time>
      </trkpt>
      <trkpt lat="45.46757" lon="5.71177">
        <ele>763.6</ele>
        <time>2015-05-17T07:23:05Z</time>
      </trkpt>
      <trkpt lat="45.4675" lon="5.71182">
        <ele>763.2</ele>
        <time>2015-05-17T07:23:07Z</time>
      </trkpt>
      <trkpt lat="45.46744" lon="5.71188">
        <ele>762.9</ele>
        <time>2015-05-17T07:23:09Z</time>
      </trkpt>
      <trkpt lat="45.46737" lon="5.71193">
        <ele>762.9</ele>
        <time>2015-05-17T07:23:11Z</time>
      </trkpt>
      <trkpt lat="45.46731" lon="5.712">
        <ele>763.1</ele>
        <time>2015-05-17T07:23:13Z</time>
      </trkpt>
      <trkpt lat="45.46724" lon="5.71205">
        <ele>763.6</ele>
        <time>2015-05-17T07:23:15Z</time>
      </trkpt>
      <trkpt lat="45.46717" lon="5.71211">
        <ele>764</ele>
        <time>2015-05-17T07:23:17Z</time>
      </trkpt>
      <trkpt lat="45.46711" lon="5.71217">
        <ele>764.1</ele>
        <time>2015-05-17T07:23:19Z</time>
      </trkpt>
      <trkpt lat="45.46704" lon="5.71222">
        <ele>763.9</ele>
        <time>2015-05-17T07:23:21Z</time>
      </trkpt>
      <trkpt lat="45.46697" lon="5.71228">
        <ele>763.7</ele>
        <time>2015-05-17T07:23:23Z</time>
      </trkpt>
      <trkpt lat="45.46691" lon="5.71233">
        <ele>763.6</ele>
        <time>2015-05-17T07:23:25Z</time>
      </trkpt>
      <trkpt lat="45.46682" lon="5.71241">
        <ele>763.6</ele>
        <time>2015-05-17T07:23:28Z</time>
      </trkpt>
      <trkpt lat="45.46676" lon="5.71247">
        <ele>763.6</ele>
        <time>2015-05-17T07:23:30Z</time>
      </trkpt>
      <trkpt lat="45.4667" lon="5.71253">
        <ele>763.7</ele>
        <time>2015-05-17T07:23:32Z</time>
      </trkpt>
      <trkpt lat="45.46661" lon="5.71261">
        <ele>763.7</ele>
        <time>2015-05-17T07:23:35Z</time>
      </trkpt>
      <trkpt lat="45.46655" lon="5.71268">
        <ele>763.7</ele>
        <time>2015-05-17T07:23:37Z</time>
      </trkpt>
      <trkpt lat="45.4665" lon="5.71275">
        <ele>763.6</ele>
        <time>2015-05-17T07:23:39Z</time>
      </trkpt>
      <trkpt lat="45.46642" lon="5.71286">
        <ele>762.9</ele>
        <time>2015-05-17T07:23:42Z</time>
      </trkpt>
      <trkpt lat="45.46636" lon="5.71293">
        <ele>763.8</ele>
        <time>2015-05-17T07:23:44Z</time>
      </trkpt>
      <trkpt lat="45.46631" lon="5.71301">
        <ele>764.2</ele>
        <time>2015-05-17T07:23:46Z</time>
      </trkpt>
      <trkpt lat="45.46624" lon="5.71308">
        <ele>764.4</ele>
        <time>2015-05-17T07:23:48Z</time>
      </trkpt>
      <trkpt lat="45.46618" lon="5.71315">
        <ele>764.7</ele>
        <time>2015-05-17T07:23:50Z</time>
      </trkpt>
      <trkpt lat="45.46612" lon="5.71322">
        <ele>765.1</ele>
        <time>2015-05-17T07:23:52Z</time>
      </trkpt>
      <trkpt lat="45.46606" lon="5.71331">
        <ele>766.3</ele>
        <time>2015-05-17T07:23:54Z</time>
      </trkpt>
      <trkpt lat="45.466" lon="5.71339">
        <ele>767.1</ele>
        <time>2015-05-17T07:23:56Z</time>
      </trkpt>
      <trkpt lat="45.46594" lon="5.71349">
        <ele>767.2</ele>
        <time>2015-05-17T07:23:58Z</time>
      </trkpt>
      <trkpt lat="45.46589" lon="5.71357">
        <ele>769.1</ele>
        <time>2015-05-17T07:24:00Z</time>
      </trkpt>
      <trkpt lat="45.46582" lon="5.71367">
        <ele>769.2</ele>
        <time>2015-05-17T07:24:03Z</time>
      </trkpt>
      <trkpt lat="45.46575" lon="5.71377">
        <ele>769.4</ele>
        <time>2015-05-17T07:24:06Z</time>
      </trkpt>
      <trkpt lat="45.46569" lon="5.71386">
        <ele>769.5</ele>
        <time>2015-05-17T07:24:09Z</time>
      </trkpt>
      <trkpt lat="45.46563" lon="5.71394">
        <ele>770.3</ele>
        <time>2015-05-17T07:24:11Z</time>
      </trkpt>
      <trkpt lat="45.46556" lon="5.714">
        <ele>771.3</ele>
        <time>2015-05-17T07:24:13Z</time>
      </trkpt>
      <trkpt lat="45.46549" lon="5.71404">
        <ele>772</ele>
        <time>2015-05-17T07:24:15Z</time>
      </trkpt>
      <trkpt lat="45.46538" lon="5.71407">
        <ele>772.5</ele>
        <time>2015-05-17T07:24:17Z</time>
      </trkpt>
      <trkpt lat="45.46528" lon="5.7141">
        <ele>772.7</ele>
        <time>2015-05-17T07:24:19Z</time>
      </trkpt>
      <trkpt lat="45.46517" lon="5.71413">
        <ele>773.1</ele>
        <time>2015-05-17T07:24:21Z</time>
      </trkpt>
      <trkpt lat="45.46508" lon="5.7142">
        <ele>772.9</ele>
        <time>2015-05-17T07:24:23Z</time>
      </trkpt>
      <trkpt lat="45.46501" lon="5.71427">
        <ele>772.5</ele>
        <time>2015-05-17T07:24:25Z</time>
      </trkpt>
      <trkpt lat="45.46493" lon="5.71432">
        <ele>772.7</ele>
        <time>2015-05-17T07:24:27Z</time>
      </trkpt>
      <trkpt lat="45.46486" lon="5.71434">
        <ele>772.7</ele>
        <time>2015-05-17T07:24:30Z</time>
      </trkpt>
      <trkpt lat="45.46485" lon="5.71423">
        <ele>772.7</ele>
        <time>2015-05-17T07:24:34Z</time>
      </trkpt>
      <trkpt lat="45.46486" lon="5.71413">
        <ele>772.8</ele>
        <time>2015-05-17T07:24:37Z</time>
      </trkpt>
      <trkpt lat="45.46488" lon="5.714">
        <ele>773</ele>
        <time>2015-05-17T07:24:40Z</time>
      </trkpt>
      <trkpt lat="45.46492" lon="5.71388">
        <ele>773.2</ele>
        <time>2015-05-17T07:24:43Z</time>
      </trkpt>
      <trkpt lat="45.46495" lon="5.71376">
        <ele>773.4</ele>
        <time>2015-05-17T07:24:47Z</time>
      </trkpt>
      <trkpt lat="45.46497" lon="5.71366">
        <ele>773.6</ele>
        <time>2015-05-17T07:24:50Z</time>
      </trkpt>
      <trkpt lat="45.46499" lon="5.71355">
        <ele>773.8</ele>
        <time>2015-05-17T07:24:53Z</time>
      </trkpt>
      <trkpt lat="45.465" lon="5.71341">
        <ele>774.1</ele>
        <time>2015-05-17T07:24:57Z</time>
      </trkpt>
      <trkpt lat="45.46502" lon="5.71331">
        <ele>774.5</ele>
        <time>2015-05-17T07:25:00Z</time>
      </trkpt>
      <trkpt lat="45.46503" lon="5.71318">
        <ele>775</ele>
        <time>2015-05-17T07:25:04Z</time>
      </trkpt>
      <trkpt lat="45.46504" lon="5.71305">
        <ele>775.8</ele>
        <time>2015-05-17T07:25:08Z</time>
      </trkpt>
      <trkpt lat="45.46503" lon="5.71294">
        <ele>776.4</ele>
        <time>2015-05-17T07:25:12Z</time>
      </trkpt>
      <trkpt lat="45.465" lon="5.71284">
        <ele>776.9</ele>
        <time>2015-05-17T07:25:15Z</time>
      </trkpt>
      <trkpt lat="45.46499" lon="5.71272">
        <ele>777.6</ele>
        <time>2015-05-17T07:25:19Z</time>
      </trkpt>
      <trkpt lat="45.46499" lon="5.7126">
        <ele>778.3</ele>
        <time>2015-05-17T07:25:23Z</time>
      </trkpt>
      <trkpt lat="45.46496" lon="5.71247">
        <ele>778.8</ele>
        <time>2015-05-17T07:25:27Z</time>
      </trkpt>
      <trkpt lat="45.46494" lon="5.71237">
        <ele>779.2</ele>
        <time>2015-05-17T07:25:30Z</time>
      </trkpt>
      <trkpt lat="45.46491" lon="5.71224">
        <ele>779.7</ele>
        <time>2015-05-17T07:25:34Z</time>
      </trkpt>
      <trkpt lat="45.46489" lon="5.71214">
        <ele>780.1</ele>
        <time>2015-05-17T07:25:37Z</time>
      </trkpt>
      <trkpt lat="45.46486" lon="5.71203">
        <ele>780.5</ele>
        <time>2015-05-17T07:25:40Z</time>
      </trkpt>
      <trkpt lat="45.46484" lon="5.71192">
        <ele>780.8</ele>
        <time>2015-05-17T07:25:43Z</time>
      </trkpt>
      <trkpt lat="45.46483" lon="5.71182">
        <ele>781.2</ele>
        <time>2015-05-17T07:25:46Z</time>
      </trkpt>
      <trkpt lat="45.46481" lon="5.71172">
        <ele>781.5</ele>
        <time>2015-05-17T07:25:49Z</time>
      </trkpt>
      <trkpt lat="45.46479" lon="5.71162">
        <ele>781.9</ele>
        <time>2015-05-17T07:25:52Z</time>
      </trkpt>
      <trkpt lat="45.46477" lon="5.71148">
        <ele>782.5</ele>
        <time>2015-05-17T07:25:56Z</time>
      </trkpt>
      <trkpt lat="45.46476" lon="5.71138">
        <ele>783</ele>
        <time>2015-05-17T07:26:00Z</time>
      </trkpt>
      <trkpt lat="45.46474" lon="5.71127">
        <ele>783.6</ele>
        <time>2015-05-17T07:26:04Z</time>
      </trkpt>
      <trkpt lat="45.46472" lon="5.71116">
        <ele>784.2</ele>
        <time>2015-05-17T07:26:08Z</time>
      </trkpt>
      <trkpt lat="45.46469" lon="5.71106">
        <ele>784.8</ele>
        <time>2015-05-17T07:26:12Z</time>
      </trkpt>
      <trkpt lat="45.46467" lon="5.71095">
        <ele>785.4</ele>
        <time>2015-05-17T07:26:16Z</time>
      </trkpt>
      <trkpt lat="45.46466" lon="5.71083">
        <ele>786.4</ele>
        <time>2015-05-17T07:26:21Z</time>
      </trkpt>
      <trkpt lat="45.46464" lon="5.71072">
        <ele>787.3</ele>
        <time>2015-05-17T07:26:25Z</time>
      </trkpt>
      <trkpt lat="45.4646" lon="5.71062">
        <ele>788</ele>
        <time>2015-05-17T07:26:29Z</time>
      </trkpt>
      <trkpt lat="45.46463" lon="5.71052">
        <ele>788.7</ele>
        <time>2015-05-17T07:26:33Z</time>
      </trkpt>
      <trkpt lat="45.46469" lon="5.71045">
        <ele>789.2</ele>
        <time>2015-05-17T07:26:37Z</time>
      </trkpt>
      <trkpt lat="45.46473" lon="5.71035">
        <ele>790.2</ele>
        <time>2015-05-17T07:26:41Z</time>
      </trkpt>
      <trkpt lat="45.46479" lon="5.71027">
        <ele>790.9</ele>
        <time>2015-05-17T07:26:45Z</time>
      </trkpt>
      <trkpt lat="45.46485" lon="5.7102">
        <ele>791.9</ele>
        <time>2015-05-17T07:26:49Z</time>
      </trkpt>
      <trkpt lat="45.46491" lon="5.71012">
        <ele>792.6</ele>
        <time>2015-05-17T07:26:53Z</time>
      </trkpt>
      <trkpt lat="45.46495" lon="5.71003">
        <ele>793</ele>
        <time>2015-05-17T07:26:56Z</time>
      </trkpt>
      <trkpt lat="45.46498" lon="5.70994">
        <ele>793.5</ele>
        <time>2015-05-17T07:26:59Z</time>
      </trkpt>
      <trkpt lat="45.46502" lon="5.70985">
        <ele>794</ele>
        <time>2015-05-17T07:27:03Z</time>
      </trkpt>
      <trkpt lat="45.46508" lon="5.70975">
        <ele>794.4</ele>
        <time>2015-05-17T07:27:06Z</time>
      </trkpt>
      <trkpt lat="45.46513" lon="5.70966">
        <ele>794.8</ele>
        <time>2015-05-17T07:27:09Z</time>
      </trkpt>
      <trkpt lat="45.46517" lon="5.70958">
        <ele>795.1</ele>
        <time>2015-05-17T07:27:12Z</time>
      </trkpt>
      <trkpt lat="45.46523" lon="5.7095">
        <ele>795.6</ele>
        <time>2015-05-17T07:27:15Z</time>
      </trkpt>
      <trkpt lat="45.46529" lon="5.70942">
        <ele>796.1</ele>
        <time>2015-05-17T07:27:18Z</time>
      </trkpt>
      <trkpt lat="45.46533" lon="5.70932">
        <ele>796.6</ele>
        <time>2015-05-17T07:27:21Z</time>
      </trkpt>
      <trkpt lat="45.46537" lon="5.70922">
        <ele>797</ele>
        <time>2015-05-17T07:27:24Z</time>
      </trkpt>
      <trkpt lat="45.46542" lon="5.70913">
        <ele>797.4</ele>
        <time>2015-05-17T07:27:27Z</time>
      </trkpt>
      <trkpt lat="45.46548" lon="5.70902">
        <ele>797.7</ele>
        <time>2015-05-17T07:27:30Z</time>
      </trkpt>
      <trkpt lat="45.46553" lon="5.70892">
        <ele>798</ele>
        <time>2015-05-17T07:27:33Z</time>
      </trkpt>
      <trkpt lat="45.46559" lon="5.70883">
        <ele>798.3</ele>
        <time>2015-05-17T07:27:36Z</time>
      </trkpt>
      <trkpt lat="45.46564" lon="5.70872">
        <ele>798.8</ele>
        <time>2015-05-17T07:27:39Z</time>
      </trkpt>
      <trkpt lat="45.46571" lon="5.7086">
        <ele>799.2</ele>
        <time>2015-05-17T07:27:42Z</time>
      </trkpt>
      <trkpt lat="45.46576" lon="5.70848">
        <ele>799.5</ele>
        <time>2015-05-17T07:27:45Z</time>
      </trkpt>
      <trkpt lat="45.46581" lon="5.70841">
        <ele>799.7</ele>
        <time>2015-05-17T07:27:48Z</time>
      </trkpt>
      <trkpt lat="45.46585" lon="5.70829">
        <ele>799.9</ele>
        <time>2015-05-17T07:27:51Z</time>
      </trkpt>
      <trkpt lat="45.46587" lon="5.70817">
        <ele>800.1</ele>
        <time>2015-05-17T07:27:54Z</time>
      </trkpt>
      <trkpt lat="45.46588" lon="5.70806">
        <ele>800.6</ele>
        <time>2015-05-17T07:27:57Z</time>
      </trkpt>
      <trkpt lat="45.4659" lon="5.70795">
        <ele>801.1</ele>
        <time>2015-05-17T07:28:00Z</time>
      </trkpt>
      <trkpt lat="45.46591" lon="5.70779">
        <ele>801.4</ele>
        <time>2015-05-17T07:28:03Z</time>
      </trkpt>
      <trkpt lat="45.46591" lon="5.70769">
        <ele>801.7</ele>
        <time>2015-05-17T07:28:05Z</time>
      </trkpt>
      <trkpt lat="45.46593" lon="5.70758">
        <ele>801.9</ele>
        <time>2015-05-17T07:28:08Z</time>
      </trkpt>
      <trkpt lat="45.46593" lon="5.70744">
        <ele>802.1</ele>
        <time>2015-05-17T07:28:12Z</time>
      </trkpt>
      <trkpt lat="45.46593" lon="5.70733">
        <ele>802.4</ele>
        <time>2015-05-17T07:28:15Z</time>
      </trkpt>
      <trkpt lat="45.46593" lon="5.70722">
        <ele>802.8</ele>
        <time>2015-05-17T07:28:18Z</time>
      </trkpt>
      <trkpt lat="45.46596" lon="5.70709">
        <ele>803.4</ele>
        <time>2015-05-17T07:28:22Z</time>
      </trkpt>
      <trkpt lat="45.46597" lon="5.70698">
        <ele>804</ele>
        <time>2015-05-17T07:28:25Z</time>
      </trkpt>
      <trkpt lat="45.46598" lon="5.70686">
        <ele>804.6</ele>
        <time>2015-05-17T07:28:28Z</time>
      </trkpt>
      <trkpt lat="45.46599" lon="5.70672">
        <ele>805.3</ele>
        <time>2015-05-17T07:28:32Z</time>
      </trkpt>
      <trkpt lat="45.466" lon="5.70659">
        <ele>806</ele>
        <time>2015-05-17T07:28:35Z</time>
      </trkpt>
      <trkpt lat="45.46597" lon="5.70649">
        <ele>806.3</ele>
        <time>2015-05-17T07:28:37Z</time>
      </trkpt>
      <trkpt lat="45.46594" lon="5.70636">
        <ele>806.8</ele>
        <time>2015-05-17T07:28:40Z</time>
      </trkpt>
      <trkpt lat="45.46592" lon="5.70623">
        <ele>807.2</ele>
        <time>2015-05-17T07:28:43Z</time>
      </trkpt>
      <trkpt lat="45.4659" lon="5.70613">
        <ele>807.4</ele>
        <time>2015-05-17T07:28:45Z</time>
      </trkpt>
      <trkpt lat="45.46588" lon="5.706">
        <ele>807.8</ele>
        <time>2015-05-17T07:28:49Z</time>
      </trkpt>
      <trkpt lat="45.46578" lon="5.70595">
        <ele>808.6</ele>
        <time>2015-05-17T07:28:54Z</time>
      </trkpt>
      <trkpt lat="45.46569" lon="5.70592">
        <ele>808.8</ele>
        <time>2015-05-17T07:28:56Z</time>
      </trkpt>
      <trkpt lat="45.46561" lon="5.7059">
        <ele>809.1</ele>
        <time>2015-05-17T07:28:58Z</time>
      </trkpt>
      <trkpt lat="45.46553" lon="5.70589">
        <ele>811.3</ele>
        <time>2015-05-17T07:29:00Z</time>
      </trkpt>
      <trkpt lat="45.46546" lon="5.70589">
        <ele>812.4</ele>
        <time>2015-05-17T07:29:02Z</time>
      </trkpt>
      <trkpt lat="45.46538" lon="5.70588">
        <ele>812.6</ele>
        <time>2015-05-17T07:29:04Z</time>
      </trkpt>
      <trkpt lat="45.46531" lon="5.70586">
        <ele>812.6</ele>
        <time>2015-05-17T07:29:06Z</time>
      </trkpt>
      <trkpt lat="45.4652" lon="5.70585">
        <ele>812.7</ele>
        <time>2015-05-17T07:29:09Z</time>
      </trkpt>
      <trkpt lat="45.4651" lon="5.70583">
        <ele>812.6</ele>
        <time>2015-05-17T07:29:12Z</time>
      </trkpt>
      <trkpt lat="45.46501" lon="5.7058">
        <ele>812.5</ele>
        <time>2015-05-17T07:29:15Z</time>
      </trkpt>
      <trkpt lat="45.46493" lon="5.70576">
        <ele>812.5</ele>
        <time>2015-05-17T07:29:19Z</time>
      </trkpt>
      <trkpt lat="45.46485" lon="5.70579">
        <ele>812.5</ele>
        <time>2015-05-17T07:29:22Z</time>
      </trkpt>
      <trkpt lat="45.46476" lon="5.70579">
        <ele>812.5</ele>
        <time>2015-05-17T07:29:25Z</time>
      </trkpt>
      <trkpt lat="45.46468" lon="5.70579">
        <ele>813.3</ele>
        <time>2015-05-17T07:29:27Z</time>
      </trkpt>
      <trkpt lat="45.46461" lon="5.70579">
        <ele>814.3</ele>
        <time>2015-05-17T07:29:29Z</time>
      </trkpt>
      <trkpt lat="45.46453" lon="5.70579">
        <ele>814.8</ele>
        <time>2015-05-17T07:29:31Z</time>
      </trkpt>
      <trkpt lat="45.46445" lon="5.7058">
        <ele>814.9</ele>
        <time>2015-05-17T07:29:33Z</time>
      </trkpt>
      <trkpt lat="45.46435" lon="5.70581">
        <ele>814.3</ele>
        <time>2015-05-17T07:29:35Z</time>
      </trkpt>
      <trkpt lat="45.46426" lon="5.70583">
        <ele>813</ele>
        <time>2015-05-17T07:29:37Z</time>
      </trkpt>
      <trkpt lat="45.46419" lon="5.70585">
        <ele>812.9</ele>
        <time>2015-05-17T07:29:39Z</time>
      </trkpt>
      <trkpt lat="45.4641" lon="5.70587">
        <ele>812.1</ele>
        <time>2015-05-17T07:29:41Z</time>
      </trkpt>
      <trkpt lat="45.46402" lon="5.70588">
        <ele>811.8</ele>
        <time>2015-05-17T07:29:43Z</time>
      </trkpt>
      <trkpt lat="45.46394" lon="5.70589">
        <ele>812.3</ele>
        <time>2015-05-17T07:29:45Z</time>
      </trkpt>
      <trkpt lat="45.46384" lon="5.70591">
        <ele>813.1</ele>
        <time>2015-05-17T07:29:48Z</time>
      </trkpt>
      <trkpt lat="45.46376" lon="5.70593">
        <ele>814.3</ele>
        <time>2015-05-17T07:29:50Z</time>
      </trkpt>
      <trkpt lat="45.46366" lon="5.70595">
        <ele>815.4</ele>
        <time>2015-05-17T07:29:53Z</time>
      </trkpt>
      <trkpt lat="45.46358" lon="5.70598">
        <ele>815.5</ele>
        <time>2015-05-17T07:29:55Z</time>
      </trkpt>
      <trkpt lat="45.46351" lon="5.70599">
        <ele>815.8</ele>
        <time>2015-05-17T07:29:57Z</time>
      </trkpt>
      <trkpt lat="45.46344" lon="5.70599">
        <ele>815.8</ele>
        <time>2015-05-17T07:29:59Z</time>
      </trkpt>
      <trkpt lat="45.46336" lon="5.70599">
        <ele>816.3</ele>
        <time>2015-05-17T07:30:01Z</time>
      </trkpt>
      <trkpt lat="45.46328" lon="5.70598">
        <ele>817</ele>
        <time>2015-05-17T07:30:03Z</time>
      </trkpt>
      <trkpt lat="45.46321" lon="5.70597">
        <ele>818.1</ele>
        <time>2015-05-17T07:30:05Z</time>
      </trkpt>
      <trkpt lat="45.46313" lon="5.70595">
        <ele>819.3</ele>
        <time>2015-05-17T07:30:07Z</time>
      </trkpt>
      <trkpt lat="45.46305" lon="5.70592">
        <ele>820.3</ele>
        <time>2015-05-17T07:30:09Z</time>
      </trkpt>
      <trkpt lat="45.46296" lon="5.7059">
        <ele>820.9</ele>
        <time>2015-05-17T07:30:11Z</time>
      </trkpt>
      <trkpt lat="45.46287" lon="5.70588">
        <ele>820.9</ele>
        <time>2015-05-17T07:30:13Z</time>
      </trkpt>
      <trkpt lat="45.4628" lon="5.70587">
        <ele>820.9</ele>
        <time>2015-05-17T07:30:15Z</time>
      </trkpt>
      <trkpt lat="45.46271" lon="5.70584">
        <ele>821.1</ele>
        <time>2015-05-17T07:30:18Z</time>
      </trkpt>
      <trkpt lat="45.46264" lon="5.70582">
        <ele>821.3</ele>
        <time>2015-05-17T07:30:20Z</time>
      </trkpt>
      <trkpt lat="45.46256" lon="5.70578">
        <ele>821.3</ele>
        <time>2015-05-17T07:30:22Z</time>
      </trkpt>
      <trkpt lat="45.46247" lon="5.70571">
        <ele>820.7</ele>
        <time>2015-05-17T07:30:24Z</time>
      </trkpt>
      <trkpt lat="45.46237" lon="5.70566">
        <ele>819.8</ele>
        <time>2015-05-17T07:30:26Z</time>
      </trkpt>
      <trkpt lat="45.46229" lon="5.70564">
        <ele>818.6</ele>
        <time>2015-05-17T07:30:28Z</time>
      </trkpt>
      <trkpt lat="45.4622" lon="5.7056">
        <ele>817.7</ele>
        <time>2015-05-17T07:30:30Z</time>
      </trkpt>
      <trkpt lat="45.46212" lon="5.70559">
        <ele>817.1</ele>
        <time>2015-05-17T07:30:32Z</time>
      </trkpt>
      <trkpt lat="45.46204" lon="5.70556">
        <ele>817.1</ele>
        <time>2015-05-17T07:30:34Z</time>
      </trkpt>
      <trkpt lat="45.46196" lon="5.70553">
        <ele>817.7</ele>
        <time>2015-05-17T07:30:36Z</time>
      </trkpt>
      <trkpt lat="45.46187" lon="5.7055">
        <ele>818</ele>
        <time>2015-05-17T07:30:38Z</time>
      </trkpt>
      <trkpt lat="45.46179" lon="5.70547">
        <ele>818.2</ele>
        <time>2015-05-17T07:30:40Z</time>
      </trkpt>
      <trkpt lat="45.46171" lon="5.70544">
        <ele>818.7</ele>
        <time>2015-05-17T07:30:42Z</time>
      </trkpt>
      <trkpt lat="45.46163" lon="5.70541">
        <ele>819.2</ele>
        <time>2015-05-17T07:30:44Z</time>
      </trkpt>
      <trkpt lat="45.46154" lon="5.70538">
        <ele>819.5</ele>
        <time>2015-05-17T07:30:46Z</time>
      </trkpt>
      <trkpt lat="45.46145" lon="5.70535">
        <ele>819.8</ele>
        <time>2015-05-17T07:30:48Z</time>
      </trkpt>
      <trkpt lat="45.46137" lon="5.70532">
        <ele>820.5</ele>
        <time>2015-05-17T07:30:50Z</time>
      </trkpt>
      <trkpt lat="45.4613" lon="5.7053">
        <ele>821.1</ele>
        <time>2015-05-17T07:30:52Z</time>
      </trkpt>
      <trkpt lat="45.46122" lon="5.70527">
        <ele>821.6</ele>
        <time>2015-05-17T07:30:54Z</time>
      </trkpt>
      <trkpt lat="45.46115" lon="5.70522">
        <ele>822.1</ele>
        <time>2015-05-17T07:30:56Z</time>
      </trkpt>
      <trkpt lat="45.46106" lon="5.70519">
        <ele>822.6</ele>
        <time>2015-05-17T07:30:58Z</time>
      </trkpt>
      <trkpt lat="45.46099" lon="5.70515">
        <ele>823</ele>
        <time>2015-05-17T07:31:00Z</time>
      </trkpt>
      <trkpt lat="45.46091" lon="5.70512">
        <ele>823.3</ele>
        <time>2015-05-17T07:31:02Z</time>
      </trkpt>
      <trkpt lat="45.46083" lon="5.70509">
        <ele>823.8</ele>
        <time>2015-05-17T07:31:04Z</time>
      </trkpt>
      <trkpt lat="45.46075" lon="5.70508">
        <ele>824.3</ele>
        <time>2015-05-17T07:31:06Z</time>
      </trkpt>
      <trkpt lat="45.46067" lon="5.70505">
        <ele>825</ele>
        <time>2015-05-17T07:31:08Z</time>
      </trkpt>
      <trkpt lat="45.46059" lon="5.70501">
        <ele>825</ele>
        <time>2015-05-17T07:31:10Z</time>
      </trkpt>
      <trkpt lat="45.4605" lon="5.70497">
        <ele>824.9</ele>
        <time>2015-05-17T07:31:13Z</time>
      </trkpt>
      <trkpt lat="45.46042" lon="5.70494">
        <ele>824.6</ele>
        <time>2015-05-17T07:31:15Z</time>
      </trkpt>
      <trkpt lat="45.46034" lon="5.70486">
        <ele>824.9</ele>
        <time>2015-05-17T07:31:18Z</time>
      </trkpt>
      <trkpt lat="45.46034" lon="5.70474">
        <ele>825.6</ele>
        <time>2015-05-17T07:31:20Z</time>
      </trkpt>
      <trkpt lat="45.46037" lon="5.70461">
        <ele>825.4</ele>
        <time>2015-05-17T07:31:22Z</time>
      </trkpt>
      <trkpt lat="45.4604" lon="5.70451">
        <ele>824.2</ele>
        <time>2015-05-17T07:31:24Z</time>
      </trkpt>
      <trkpt lat="45.46043" lon="5.70441">
        <ele>823.2</ele>
        <time>2015-05-17T07:31:26Z</time>
      </trkpt>
      <trkpt lat="45.46048" lon="5.70431">
        <ele>823.3</ele>
        <time>2015-05-17T07:31:28Z</time>
      </trkpt>
      <trkpt lat="45.46055" lon="5.7042">
        <ele>823.3</ele>
        <time>2015-05-17T07:31:31Z</time>
      </trkpt>
      <trkpt lat="45.46061" lon="5.70414">
        <ele>823.2</ele>
        <time>2015-05-17T07:31:33Z</time>
      </trkpt>
      <trkpt lat="45.46068" lon="5.70403">
        <ele>823.3</ele>
        <time>2015-05-17T07:31:36Z</time>
      </trkpt>
      <trkpt lat="45.46073" lon="5.70391">
        <ele>823.5</ele>
        <time>2015-05-17T07:31:39Z</time>
      </trkpt>
      <trkpt lat="45.46077" lon="5.70379">
        <ele>823.8</ele>
        <time>2015-05-17T07:31:42Z</time>
      </trkpt>
      <trkpt lat="45.46081" lon="5.70367">
        <ele>824.5</ele>
        <time>2015-05-17T07:31:46Z</time>
      </trkpt>
      <trkpt lat="45.46085" lon="5.70356">
        <ele>824.9</ele>
        <time>2015-05-17T07:31:49Z</time>
      </trkpt>
      <trkpt lat="45.46089" lon="5.70346">
        <ele>825.2</ele>
        <time>2015-05-17T07:31:52Z</time>
      </trkpt>
      <trkpt lat="45.46095" lon="5.70336">
        <ele>825.6</ele>
        <time>2015-05-17T07:31:56Z</time>
      </trkpt>
      <trkpt lat="45.46099" lon="5.70325">
        <ele>826.2</ele>
        <time>2015-05-17T07:32:00Z</time>
      </trkpt>
      <trkpt lat="45.46104" lon="5.70314">
        <ele>826.6</ele>
        <time>2015-05-17T07:32:04Z</time>
      </trkpt>
      <trkpt lat="45.46106" lon="5.70304">
        <ele>826.9</ele>
        <time>2015-05-17T07:32:07Z</time>
      </trkpt>
      <trkpt lat="45.46109" lon="5.70293">
        <ele>827.6</ele>
        <time>2015-05-17T07:32:11Z</time>
      </trkpt>
      <trkpt lat="45.46113" lon="5.70284">
        <ele>828.5</ele>
        <time>2015-05-17T07:32:15Z</time>
      </trkpt>
      <trkpt lat="45.46118" lon="5.70275">
        <ele>829.3</ele>
        <time>2015-05-17T07:32:19Z</time>
      </trkpt>
      <trkpt lat="45.46122" lon="5.70265">
        <ele>829.6</ele>
        <time>2015-05-17T07:32:23Z</time>
      </trkpt>
      <trkpt lat="45.46125" lon="5.70255">
        <ele>830.1</ele>
        <time>2015-05-17T07:32:27Z</time>
      </trkpt>
      <trkpt lat="45.46129" lon="5.70244">
        <ele>831.1</ele>
        <time>2015-05-17T07:32:32Z</time>
      </trkpt>
      <trkpt lat="45.46132" lon="5.70234">
        <ele>832.1</ele>
        <time>2015-05-17T07:32:37Z</time>
      </trkpt>
      <trkpt lat="45.46135" lon="5.70222">
        <ele>833.3</ele>
        <time>2015-05-17T07:32:42Z</time>
      </trkpt>
      <trkpt lat="45.46134" lon="5.70211">
        <ele>834.4</ele>
        <time>2015-05-17T07:32:47Z</time>
      </trkpt>
      <trkpt lat="45.46135" lon="5.702">
        <ele>836.1</ele>
        <time>2015-05-17T07:32:54Z</time>
      </trkpt>
      <trkpt lat="45.46135" lon="5.70189">
        <ele>837.4</ele>
        <time>2015-05-17T07:32:59Z</time>
      </trkpt>
      <trkpt lat="45.46134" lon="5.70178">
        <ele>838.9</ele>
        <time>2015-05-17T07:33:05Z</time>
      </trkpt>
      <trkpt lat="45.46133" lon="5.70166">
        <ele>840.3</ele>
        <time>2015-05-17T07:33:11Z</time>
      </trkpt>
      <trkpt lat="45.46133" lon="5.70156">
        <ele>841.8</ele>
        <time>2015-05-17T07:33:17Z</time>
      </trkpt>
      <trkpt lat="45.4613" lon="5.70144">
        <ele>843</ele>
        <time>2015-05-17T07:33:23Z</time>
      </trkpt>
      <trkpt lat="45.4613" lon="5.70133">
        <ele>844.4</ele>
        <time>2015-05-17T07:33:29Z</time>
      </trkpt>
      <trkpt lat="45.46129" lon="5.70122">
        <ele>845.9</ele>
        <time>2015-05-17T07:33:35Z</time>
      </trkpt>
      <trkpt lat="45.46128" lon="5.70112">
        <ele>847.4</ele>
        <time>2015-05-17T07:33:41Z</time>
      </trkpt>
      <trkpt lat="45.46125" lon="5.70101">
        <ele>848.7</ele>
        <time>2015-05-17T07:33:47Z</time>
      </trkpt>
      <trkpt lat="45.46123" lon="5.7009">
        <ele>850.1</ele>
        <time>2015-05-17T07:33:53Z</time>
      </trkpt>
      <trkpt lat="45.46122" lon="5.70078">
        <ele>851.4</ele>
        <time>2015-05-17T07:33:59Z</time>
      </trkpt>
      <trkpt lat="45.46121" lon="5.70068">
        <ele>852.8</ele>
        <time>2015-05-17T07:34:05Z</time>
      </trkpt>
      <trkpt lat="45.46119" lon="5.70057">
        <ele>854.2</ele>
        <time>2015-05-17T07:34:11Z</time>
      </trkpt>
      <trkpt lat="45.46116" lon="5.70046">
        <ele>855.7</ele>
        <time>2015-05-17T07:34:17Z</time>
      </trkpt>
      <trkpt lat="45.46113" lon="5.70036">
        <ele>857.1</ele>
        <time>2015-05-17T07:34:23Z</time>
      </trkpt>
      <trkpt lat="45.4611" lon="5.70025">
        <ele>858.4</ele>
        <time>2015-05-17T07:34:28Z</time>
      </trkpt>
      <trkpt lat="45.46108" lon="5.70014">
        <ele>859.9</ele>
        <time>2015-05-17T07:34:34Z</time>
      </trkpt>
      <trkpt lat="45.46105" lon="5.70004">
        <ele>861.2</ele>
        <time>2015-05-17T07:34:40Z</time>
      </trkpt>
      <trkpt lat="45.46102" lon="5.69992">
        <ele>862.4</ele>
        <time>2015-05-17T07:34:46Z</time>
      </trkpt>
      <trkpt lat="45.46099" lon="5.69982">
        <ele>863.6</ele>
        <time>2015-05-17T07:34:52Z</time>
      </trkpt>
      <trkpt lat="45.46094" lon="5.69972">
        <ele>864.5</ele>
        <time>2015-05-17T07:34:58Z</time>
      </trkpt>
      <trkpt lat="45.46089" lon="5.69962">
        <ele>865.4</ele>
        <time>2015-05-17T07:35:04Z</time>
      </trkpt>
      <trkpt lat="45.46087" lon="5.69952">
        <ele>866.3</ele>
        <time>2015-05-17T07:35:10Z</time>
      </trkpt>
      <trkpt lat="45.46083" lon="5.69942">
        <ele>867.5</ele>
        <time>2015-05-17T07:35:16Z</time>
      </trkpt>
      <trkpt lat="45.46076" lon="5.69938">
        <ele>868.6</ele>
        <time>2015-05-17T07:35:22Z</time>
      </trkpt>
      <trkpt lat="45.46068" lon="5.69935">
        <ele>869.6</ele>
        <time>2015-05-17T07:35:27Z</time>
      </trkpt>
      <trkpt lat="45.46061" lon="5.69932">
        <ele>870.4</ele>
        <time>2015-05-17T07:35:31Z</time>
      </trkpt>
      <trkpt lat="45.46053" lon="5.69928">
        <ele>871.1</ele>
        <time>2015-05-17T07:35:35Z</time>
      </trkpt>
      <trkpt lat="45.46045" lon="5.69925">
        <ele>872</ele>
        <time>2015-05-17T07:35:41Z</time>
      </trkpt>
      <trkpt lat="45.46038" lon="5.69921">
        <ele>872.9</ele>
        <time>2015-05-17T07:35:46Z</time>
      </trkpt>
      <trkpt lat="45.46032" lon="5.69915">
        <ele>874.1</ele>
        <time>2015-05-17T07:35:51Z</time>
      </trkpt>
      <trkpt lat="45.46025" lon="5.69911">
        <ele>875</ele>
        <time>2015-05-17T07:35:55Z</time>
      </trkpt>
      <trkpt lat="45.46018" lon="5.69907">
        <ele>875.7</ele>
        <time>2015-05-17T07:35:58Z</time>
      </trkpt>
      <trkpt lat="45.46011" lon="5.69902">
        <ele>877</ele>
        <time>2015-05-17T07:36:03Z</time>
      </trkpt>
      <trkpt lat="45.46003" lon="5.69895">
        <ele>878.4</ele>
        <time>2015-05-17T07:36:08Z</time>
      </trkpt>
      <trkpt lat="45.45996" lon="5.69889">
        <ele>879.5</ele>
        <time>2015-05-17T07:36:13Z</time>
      </trkpt>
      <trkpt lat="45.4599" lon="5.69881">
        <ele>880.4</ele>
        <time>2015-05-17T07:36:18Z</time>
      </trkpt>
      <trkpt lat="45.45983" lon="5.69873">
        <ele>881.6</ele>
        <time>2015-05-17T07:36:23Z</time>
      </trkpt>
      <trkpt lat="45.45978" lon="5.69865">
        <ele>882.5</ele>
        <time>2015-05-17T07:36:27Z</time>
      </trkpt>
      <trkpt lat="45.45972" lon="5.69858">
        <ele>884.5</ele>
        <time>2015-05-17T07:36:34Z</time>
      </trkpt>
      <trkpt lat="45.45967" lon="5.69851">
        <ele>885.7</ele>
        <time>2015-05-17T07:36:38Z</time>
      </trkpt>
      <trkpt lat="45.4596" lon="5.69843">
        <ele>886</ele>
        <time>2015-05-17T07:36:40Z</time>
      </trkpt>
      <trkpt lat="45.45954" lon="5.69836">
        <ele>886.5</ele>
        <time>2015-05-17T07:36:43Z</time>
      </trkpt>
      <trkpt lat="45.45947" lon="5.69831">
        <ele>887.1</ele>
        <time>2015-05-17T07:36:46Z</time>
      </trkpt>
      <trkpt lat="45.45939" lon="5.6983">
        <ele>888.3</ele>
        <time>2015-05-17T07:36:51Z</time>
      </trkpt>
      <trkpt lat="45.4593" lon="5.69833">
        <ele>889</ele>
        <time>2015-05-17T07:36:55Z</time>
      </trkpt>
      <trkpt lat="45.45924" lon="5.69838">
        <ele>889.6</ele>
        <time>2015-05-17T07:36:59Z</time>
      </trkpt>
      <trkpt lat="45.45914" lon="5.69842">
        <ele>889</ele>
        <time>2015-05-17T07:37:51Z</time>
      </trkpt>
      <trkpt lat="45.45905" lon="5.69844">
        <ele>889.5</ele>
        <time>2015-05-17T07:37:54Z</time>
      </trkpt>
      <trkpt lat="45.45896" lon="5.69845">
        <ele>890.1</ele>
        <time>2015-05-17T07:37:58Z</time>
      </trkpt>
      <trkpt lat="45.45888" lon="5.69847">
        <ele>890.5</ele>
        <time>2015-05-17T07:38:02Z</time>
      </trkpt>
      <trkpt lat="45.4588" lon="5.69844">
        <ele>891</ele>
        <time>2015-05-17T07:38:07Z</time>
      </trkpt>
      <trkpt lat="45.4587" lon="5.6984">
        <ele>891.4</ele>
        <time>2015-05-17T07:38:10Z</time>
      </trkpt>
      <trkpt lat="45.45863" lon="5.69831">
        <ele>891.8</ele>
        <time>2015-05-17T07:38:13Z</time>
      </trkpt>
      <trkpt lat="45.45855" lon="5.69824">
        <ele>892.3</ele>
        <time>2015-05-17T07:38:17Z</time>
      </trkpt>
      <trkpt lat="45.45847" lon="5.69822">
        <ele>892.6</ele>
        <time>2015-05-17T07:38:20Z</time>
      </trkpt>
      <trkpt lat="45.45839" lon="5.69823">
        <ele>893.1</ele>
        <time>2015-05-17T07:38:23Z</time>
      </trkpt>
      <trkpt lat="45.45832" lon="5.69822">
        <ele>893.5</ele>
        <time>2015-05-17T07:38:25Z</time>
      </trkpt>
      <trkpt lat="45.45824" lon="5.69823">
        <ele>893.9</ele>
        <time>2015-05-17T07:38:27Z</time>
      </trkpt>
      <trkpt lat="45.45817" lon="5.69823">
        <ele>894.3</ele>
        <time>2015-05-17T07:38:29Z</time>
      </trkpt>
      <trkpt lat="45.45808" lon="5.69824">
        <ele>894.6</ele>
        <time>2015-05-17T07:38:32Z</time>
      </trkpt>
      <trkpt lat="45.45801" lon="5.69829">
        <ele>894.9</ele>
        <time>2015-05-17T07:38:35Z</time>
      </trkpt>
      <trkpt lat="45.45798" lon="5.69833">
        <ele>895.6</ele>
        <time>2015-05-17T07:38:42Z</time>
      </trkpt>
      <trkpt lat="45.45798" lon="5.69836">
        <ele>896.5</ele>
        <time>2015-05-17T07:38:52Z</time>
      </trkpt>
      <trkpt lat="45.45799" lon="5.69833">
        <ele>897.2</ele>
        <time>2015-05-17T07:38:59Z</time>
      </trkpt>
      <trkpt lat="45.45801" lon="5.69828">
        <ele>897.4</ele>
        <time>2015-05-17T07:39:06Z</time>
      </trkpt>
      <trkpt lat="45.45803" lon="5.69824">
        <ele>897</ele>
        <time>2015-05-17T07:39:13Z</time>
      </trkpt>
      <trkpt lat="45.45798" lon="5.69829">
        <ele>896.3</ele>
        <time>2015-05-17T07:39:20Z</time>
      </trkpt>
      <trkpt lat="45.45797" lon="5.6984">
        <ele>896.3</ele>
        <time>2015-05-17T07:39:23Z</time>
      </trkpt>
      <trkpt lat="45.45793" lon="5.69853">
        <ele>896.4</ele>
        <time>2015-05-17T07:39:25Z</time>
      </trkpt>
      <trkpt lat="45.45789" lon="5.69862">
        <ele>896.4</ele>
        <time>2015-05-17T07:39:27Z</time>
      </trkpt>
      <trkpt lat="45.45785" lon="5.69874">
        <ele>896.8</ele>
        <time>2015-05-17T07:39:29Z</time>
      </trkpt>
      <trkpt lat="45.45781" lon="5.69886">
        <ele>896.6</ele>
        <time>2015-05-17T07:39:31Z</time>
      </trkpt>
      <trkpt lat="45.45776" lon="5.699">
        <ele>895.4</ele>
        <time>2015-05-17T07:39:34Z</time>
      </trkpt>
      <trkpt lat="45.45771" lon="5.69911">
        <ele>895.1</ele>
        <time>2015-05-17T07:39:36Z</time>
      </trkpt>
      <trkpt lat="45.45766" lon="5.69919">
        <ele>894.7</ele>
        <time>2015-05-17T07:39:38Z</time>
      </trkpt>
      <trkpt lat="45.4576" lon="5.69926">
        <ele>894.3</ele>
        <time>2015-05-17T07:39:40Z</time>
      </trkpt>
      <trkpt lat="45.45752" lon="5.69934">
        <ele>890.7</ele>
        <time>2015-05-17T07:39:42Z</time>
      </trkpt>
      <trkpt lat="45.45743" lon="5.69942">
        <ele>888.1</ele>
        <time>2015-05-17T07:39:44Z</time>
      </trkpt>
      <trkpt lat="45.45735" lon="5.6995">
        <ele>885.5</ele>
        <time>2015-05-17T07:39:46Z</time>
      </trkpt>
      <trkpt lat="45.45725" lon="5.69962">
        <ele>883.6</ele>
        <time>2015-05-17T07:39:48Z</time>
      </trkpt>
      <trkpt lat="45.4572" lon="5.69969">
        <ele>882.4</ele>
        <time>2015-05-17T07:39:49Z</time>
      </trkpt>
      <trkpt lat="45.45715" lon="5.69978">
        <ele>881.2</ele>
        <time>2015-05-17T07:39:50Z</time>
      </trkpt>
      <trkpt lat="45.4571" lon="5.69987">
        <ele>880.1</ele>
        <time>2015-05-17T07:39:51Z</time>
      </trkpt>
      <trkpt lat="45.45705" lon="5.69996">
        <ele>878.9</ele>
        <time>2015-05-17T07:39:52Z</time>
      </trkpt>
      <trkpt lat="45.45701" lon="5.70004">
        <ele>877.6</ele>
        <time>2015-05-17T07:39:53Z</time>
      </trkpt>
      <trkpt lat="45.45696" lon="5.70014">
        <ele>876.2</ele>
        <time>2015-05-17T07:39:54Z</time>
      </trkpt>
      <trkpt lat="45.4569" lon="5.70023">
        <ele>874.9</ele>
        <time>2015-05-17T07:39:55Z</time>
      </trkpt>
      <trkpt lat="45.45686" lon="5.70031">
        <ele>873.4</ele>
        <time>2015-05-17T07:39:56Z</time>
      </trkpt>
      <trkpt lat="45.45679" lon="5.70046">
        <ele>870.6</ele>
        <time>2015-05-17T07:39:58Z</time>
      </trkpt>
      <trkpt lat="45.45678" lon="5.7006">
        <ele>868.5</ele>
        <time>2015-05-17T07:40:00Z</time>
      </trkpt>
      <trkpt lat="45.45681" lon="5.7008">
        <ele>866</ele>
        <time>2015-05-17T07:40:02Z</time>
      </trkpt>
      <trkpt lat="45.4568" lon="5.70095">
        <ele>863.1</ele>
        <time>2015-05-17T07:40:04Z</time>
      </trkpt>
      <trkpt lat="45.45674" lon="5.70105">
        <ele>860.6</ele>
        <time>2015-05-17T07:40:06Z</time>
      </trkpt>
      <trkpt lat="45.45665" lon="5.70107">
        <ele>858.7</ele>
        <time>2015-05-17T07:40:08Z</time>
      </trkpt>
      <trkpt lat="45.45653" lon="5.70106">
        <ele>856.5</ele>
        <time>2015-05-17T07:40:10Z</time>
      </trkpt>
      <trkpt lat="45.45642" lon="5.70104">
        <ele>855</ele>
        <time>2015-05-17T07:40:12Z</time>
      </trkpt>
      <trkpt lat="45.45629" lon="5.70094">
        <ele>855</ele>
        <time>2015-05-17T07:40:14Z</time>
      </trkpt>
      <trkpt lat="45.45622" lon="5.7009">
        <ele>855.1</ele>
        <time>2015-05-17T07:40:15Z</time>
      </trkpt>
      <trkpt lat="45.45613" lon="5.70085">
        <ele>855.7</ele>
        <time>2015-05-17T07:40:16Z</time>
      </trkpt>
      <trkpt lat="45.45604" lon="5.70081">
        <ele>855.7</ele>
        <time>2015-05-17T07:40:17Z</time>
      </trkpt>
      <trkpt lat="45.45596" lon="5.70077">
        <ele>855.3</ele>
        <time>2015-05-17T07:40:18Z</time>
      </trkpt>
      <trkpt lat="45.45583" lon="5.70074">
        <ele>853.8</ele>
        <time>2015-05-17T07:40:20Z</time>
      </trkpt>
      <trkpt lat="45.45574" lon="5.70075">
        <ele>853.3</ele>
        <time>2015-05-17T07:40:21Z</time>
      </trkpt>
      <trkpt lat="45.45565" lon="5.70076">
        <ele>852.3</ele>
        <time>2015-05-17T07:40:22Z</time>
      </trkpt>
      <trkpt lat="45.45556" lon="5.70077">
        <ele>851.5</ele>
        <time>2015-05-17T07:40:23Z</time>
      </trkpt>
      <trkpt lat="45.45549" lon="5.70077">
        <ele>850.8</ele>
        <time>2015-05-17T07:40:24Z</time>
      </trkpt>
      <trkpt lat="45.45541" lon="5.70079">
        <ele>851</ele>
        <time>2015-05-17T07:40:25Z</time>
      </trkpt>
      <trkpt lat="45.45527" lon="5.70082">
        <ele>850.3</ele>
        <time>2015-05-17T07:40:27Z</time>
      </trkpt>
      <trkpt lat="45.4552" lon="5.70084">
        <ele>849.7</ele>
        <time>2015-05-17T07:40:28Z</time>
      </trkpt>
      <trkpt lat="45.45507" lon="5.70088">
        <ele>848.1</ele>
        <time>2015-05-17T07:40:30Z</time>
      </trkpt>
      <trkpt lat="45.45495" lon="5.70093">
        <ele>846</ele>
        <time>2015-05-17T07:40:32Z</time>
      </trkpt>
      <trkpt lat="45.45483" lon="5.70099">
        <ele>844.9</ele>
        <time>2015-05-17T07:40:34Z</time>
      </trkpt>
      <trkpt lat="45.4547" lon="5.70106">
        <ele>844.6</ele>
        <time>2015-05-17T07:40:36Z</time>
      </trkpt>
      <trkpt lat="45.45458" lon="5.70116">
        <ele>844.1</ele>
        <time>2015-05-17T07:40:38Z</time>
      </trkpt>
      <trkpt lat="45.45451" lon="5.70123">
        <ele>843.6</ele>
        <time>2015-05-17T07:40:39Z</time>
      </trkpt>
      <trkpt lat="45.45445" lon="5.70131">
        <ele>843.1</ele>
        <time>2015-05-17T07:40:40Z</time>
      </trkpt>
      <trkpt lat="45.45439" lon="5.7014">
        <ele>842.4</ele>
        <time>2015-05-17T07:40:41Z</time>
      </trkpt>
      <trkpt lat="45.45434" lon="5.7015">
        <ele>841.5</ele>
        <time>2015-05-17T07:40:42Z</time>
      </trkpt>
      <trkpt lat="45.45428" lon="5.70159">
        <ele>840.6</ele>
        <time>2015-05-17T07:40:43Z</time>
      </trkpt>
      <trkpt lat="45.45421" lon="5.70164">
        <ele>840.3</ele>
        <time>2015-05-17T07:40:44Z</time>
      </trkpt>
      <trkpt lat="45.45413" lon="5.7017">
        <ele>839.6</ele>
        <time>2015-05-17T07:40:45Z</time>
      </trkpt>
      <trkpt lat="45.45406" lon="5.70174">
        <ele>839.3</ele>
        <time>2015-05-17T07:40:46Z</time>
      </trkpt>
      <trkpt lat="45.45398" lon="5.70177">
        <ele>838.8</ele>
        <time>2015-05-17T07:40:47Z</time>
      </trkpt>
      <trkpt lat="45.4539" lon="5.70179">
        <ele>838.2</ele>
        <time>2015-05-17T07:40:48Z</time>
      </trkpt>
      <trkpt lat="45.45381" lon="5.70179">
        <ele>837.6</ele>
        <time>2015-05-17T07:40:49Z</time>
      </trkpt>
      <trkpt lat="45.45372" lon="5.70178">
        <ele>837.1</ele>
        <time>2015-05-17T07:40:50Z</time>
      </trkpt>
      <trkpt lat="45.45363" lon="5.70177">
        <ele>836.8</ele>
        <time>2015-05-17T07:40:51Z</time>
      </trkpt>
      <trkpt lat="45.45355" lon="5.70175">
        <ele>836.4</ele>
        <time>2015-05-17T07:40:52Z</time>
      </trkpt>
      <trkpt lat="45.45348" lon="5.70172">
        <ele>836.1</ele>
        <time>2015-05-17T07:40:53Z</time>
      </trkpt>
      <trkpt lat="45.4534" lon="5.7017">
        <ele>835.8</ele>
        <time>2015-05-17T07:40:54Z</time>
      </trkpt>
      <trkpt lat="45.45333" lon="5.70168">
        <ele>835.8</ele>
        <time>2015-05-17T07:40:55Z</time>
      </trkpt>
      <trkpt lat="45.45318" lon="5.70163">
        <ele>836.2</ele>
        <time>2015-05-17T07:40:57Z</time>
      </trkpt>
      <trkpt lat="45.45311" lon="5.70162">
        <ele>836.6</ele>
        <time>2015-05-17T07:40:58Z</time>
      </trkpt>
      <trkpt lat="45.45303" lon="5.70161">
        <ele>836.8</ele>
        <time>2015-05-17T07:40:59Z</time>
      </trkpt>
      <trkpt lat="45.45296" lon="5.7016">
        <ele>836.7</ele>
        <time>2015-05-17T07:41:00Z</time>
      </trkpt>
      <trkpt lat="45.45288" lon="5.7016">
        <ele>836.6</ele>
        <time>2015-05-17T07:41:01Z</time>
      </trkpt>
      <trkpt lat="45.4528" lon="5.70159">
        <ele>836.3</ele>
        <time>2015-05-17T07:41:02Z</time>
      </trkpt>
      <trkpt lat="45.45271" lon="5.70158">
        <ele>836</ele>
        <time>2015-05-17T07:41:03Z</time>
      </trkpt>
      <trkpt lat="45.45262" lon="5.70159">
        <ele>835.5</ele>
        <time>2015-05-17T07:41:04Z</time>
      </trkpt>
      <trkpt lat="45.45253" lon="5.7016">
        <ele>834.9</ele>
        <time>2015-05-17T07:41:05Z</time>
      </trkpt>
      <trkpt lat="45.45243" lon="5.7016">
        <ele>834.4</ele>
        <time>2015-05-17T07:41:06Z</time>
      </trkpt>
      <trkpt lat="45.45234" lon="5.70162">
        <ele>834</ele>
        <time>2015-05-17T07:41:07Z</time>
      </trkpt>
      <trkpt lat="45.45226" lon="5.70164">
        <ele>833.7</ele>
        <time>2015-05-17T07:41:08Z</time>
      </trkpt>
      <trkpt lat="45.45213" lon="5.70167">
        <ele>833</ele>
        <time>2015-05-17T07:41:10Z</time>
      </trkpt>
      <trkpt lat="45.452" lon="5.70173">
        <ele>832</ele>
        <time>2015-05-17T07:41:12Z</time>
      </trkpt>
      <trkpt lat="45.45192" lon="5.7018">
        <ele>831.5</ele>
        <time>2015-05-17T07:41:14Z</time>
      </trkpt>
      <trkpt lat="45.45186" lon="5.70185">
        <ele>831.4</ele>
        <time>2015-05-17T07:41:17Z</time>
      </trkpt>
      <trkpt lat="45.45182" lon="5.7019">
        <ele>831</ele>
        <time>2015-05-17T07:41:24Z</time>
      </trkpt>
      <trkpt lat="45.4519" lon="5.70186">
        <ele>830.7</ele>
        <time>2015-05-17T07:41:28Z</time>
      </trkpt>
      <trkpt lat="45.45197" lon="5.70181">
        <ele>830.8</ele>
        <time>2015-05-17T07:41:32Z</time>
      </trkpt>
      <trkpt lat="45.45204" lon="5.70176">
        <ele>831.1</ele>
        <time>2015-05-17T07:41:35Z</time>
      </trkpt>
      <trkpt lat="45.45211" lon="5.70172">
        <ele>831.3</ele>
        <time>2015-05-17T07:41:38Z</time>
      </trkpt>
      <trkpt lat="45.45219" lon="5.70172">
        <ele>831.5</ele>
        <time>2015-05-17T07:41:41Z</time>
      </trkpt>
      <trkpt lat="45.45228" lon="5.7017">
        <ele>831.7</ele>
        <time>2015-05-17T07:41:44Z</time>
      </trkpt>
      <trkpt lat="45.45236" lon="5.70168">
        <ele>832</ele>
        <time>2015-05-17T07:41:47Z</time>
      </trkpt>
      <trkpt lat="45.45245" lon="5.70166">
        <ele>832.3</ele>
        <time>2015-05-17T07:41:50Z</time>
      </trkpt>
      <trkpt lat="45.45253" lon="5.70163">
        <ele>832.5</ele>
        <time>2015-05-17T07:41:53Z</time>
      </trkpt>
      <trkpt lat="45.45262" lon="5.70163">
        <ele>832.7</ele>
        <time>2015-05-17T07:41:56Z</time>
      </trkpt>
      <trkpt lat="45.45271" lon="5.70161">
        <ele>832.9</ele>
        <time>2015-05-17T07:41:59Z</time>
      </trkpt>
      <trkpt lat="45.45279" lon="5.7016">
        <ele>833.1</ele>
        <time>2015-05-17T07:42:02Z</time>
      </trkpt>
      <trkpt lat="45.45287" lon="5.7016">
        <ele>833.3</ele>
        <time>2015-05-17T07:42:05Z</time>
      </trkpt>
      <trkpt lat="45.45296" lon="5.70161">
        <ele>833.4</ele>
        <time>2015-05-17T07:42:08Z</time>
      </trkpt>
      <trkpt lat="45.45305" lon="5.70162">
        <ele>833.4</ele>
        <time>2015-05-17T07:42:11Z</time>
      </trkpt>
      <trkpt lat="45.45314" lon="5.70166">
        <ele>833.8</ele>
        <time>2015-05-17T07:42:15Z</time>
      </trkpt>
      <trkpt lat="45.45322" lon="5.70168">
        <ele>834.1</ele>
        <time>2015-05-17T07:42:18Z</time>
      </trkpt>
      <trkpt lat="45.45331" lon="5.70169">
        <ele>834.4</ele>
        <time>2015-05-17T07:42:21Z</time>
      </trkpt>
      <trkpt lat="45.4534" lon="5.70171">
        <ele>834.6</ele>
        <time>2015-05-17T07:42:24Z</time>
      </trkpt>
      <trkpt lat="45.45349" lon="5.70174">
        <ele>834.9</ele>
        <time>2015-05-17T07:42:27Z</time>
      </trkpt>
      <trkpt lat="45.4536" lon="5.70178">
        <ele>835.4</ele>
        <time>2015-05-17T07:42:30Z</time>
      </trkpt>
      <trkpt lat="45.45367" lon="5.70179">
        <ele>835.8</ele>
        <time>2015-05-17T07:42:32Z</time>
      </trkpt>
      <trkpt lat="45.45375" lon="5.70181">
        <ele>836.1</ele>
        <time>2015-05-17T07:42:34Z</time>
      </trkpt>
      <trkpt lat="45.45382" lon="5.70182">
        <ele>836.5</ele>
        <time>2015-05-17T07:42:36Z</time>
      </trkpt>
      <trkpt lat="45.45389" lon="5.70182">
        <ele>836.9</ele>
        <time>2015-05-17T07:42:38Z</time>
      </trkpt>
      <trkpt lat="45.45396" lon="5.70181">
        <ele>837.3</ele>
        <time>2015-05-17T07:42:40Z</time>
      </trkpt>
      <trkpt lat="45.45404" lon="5.70179">
        <ele>837.7</ele>
        <time>2015-05-17T07:42:42Z</time>
      </trkpt>
      <trkpt lat="45.45411" lon="5.70177">
        <ele>838</ele>
        <time>2015-05-17T07:42:44Z</time>
      </trkpt>
      <trkpt lat="45.4542" lon="5.70172">
        <ele>838.5</ele>
        <time>2015-05-17T07:42:47Z</time>
      </trkpt>
      <trkpt lat="45.45429" lon="5.70164">
        <ele>839</ele>
        <time>2015-05-17T07:42:50Z</time>
      </trkpt>
      <trkpt lat="45.45434" lon="5.70157">
        <ele>839.3</ele>
        <time>2015-05-17T07:42:52Z</time>
      </trkpt>
      <trkpt lat="45.4544" lon="5.70147">
        <ele>839.8</ele>
        <time>2015-05-17T07:42:55Z</time>
      </trkpt>
      <trkpt lat="45.45447" lon="5.70135">
        <ele>840.3</ele>
        <time>2015-05-17T07:42:58Z</time>
      </trkpt>
      <trkpt lat="45.45454" lon="5.70125">
        <ele>840.8</ele>
        <time>2015-05-17T07:43:01Z</time>
      </trkpt>
      <trkpt lat="45.45462" lon="5.70117">
        <ele>841.4</ele>
        <time>2015-05-17T07:43:04Z</time>
      </trkpt>
      <trkpt lat="45.45468" lon="5.70111">
        <ele>841.7</ele>
        <time>2015-05-17T07:43:06Z</time>
      </trkpt>
      <trkpt lat="45.45477" lon="5.70105">
        <ele>842.2</ele>
        <time>2015-05-17T07:43:09Z</time>
      </trkpt>
      <trkpt lat="45.45484" lon="5.70101">
        <ele>842.4</ele>
        <time>2015-05-17T07:43:11Z</time>
      </trkpt>
      <trkpt lat="45.45494" lon="5.70097">
        <ele>842.8</ele>
        <time>2015-05-17T07:43:14Z</time>
      </trkpt>
      <trkpt lat="45.45501" lon="5.70094">
        <ele>843</ele>
        <time>2015-05-17T07:43:16Z</time>
      </trkpt>
      <trkpt lat="45.4551" lon="5.70092">
        <ele>843.2</ele>
        <time>2015-05-17T07:43:19Z</time>
      </trkpt>
      <trkpt lat="45.45519" lon="5.70089">
        <ele>843.6</ele>
        <time>2015-05-17T07:43:22Z</time>
      </trkpt>
      <trkpt lat="45.45528" lon="5.70084">
        <ele>845.3</ele>
        <time>2015-05-17T07:43:25Z</time>
      </trkpt>
      <trkpt lat="45.45536" lon="5.70085">
        <ele>845.6</ele>
        <time>2015-05-17T07:43:27Z</time>
      </trkpt>
      <trkpt lat="45.45545" lon="5.70085">
        <ele>846.2</ele>
        <time>2015-05-17T07:43:29Z</time>
      </trkpt>
      <trkpt lat="45.45553" lon="5.70085">
        <ele>846.9</ele>
        <time>2015-05-17T07:43:31Z</time>
      </trkpt>
      <trkpt lat="45.4556" lon="5.70083">
        <ele>847.1</ele>
        <time>2015-05-17T07:43:33Z</time>
      </trkpt>
      <trkpt lat="45.45572" lon="5.70084">
        <ele>846.8</ele>
        <time>2015-05-17T07:43:36Z</time>
      </trkpt>
      <trkpt lat="45.45583" lon="5.70089">
        <ele>846.7</ele>
        <time>2015-05-17T07:43:38Z</time>
      </trkpt>
      <trkpt lat="45.4559" lon="5.7009">
        <ele>846.5</ele>
        <time>2015-05-17T07:43:40Z</time>
      </trkpt>
      <trkpt lat="45.45601" lon="5.70093">
        <ele>846.5</ele>
        <time>2015-05-17T07:43:43Z</time>
      </trkpt>
      <trkpt lat="45.45609" lon="5.70095">
        <ele>846.4</ele>
        <time>2015-05-17T07:43:46Z</time>
      </trkpt>
      <trkpt lat="45.45618" lon="5.70102">
        <ele>846.4</ele>
        <time>2015-05-17T07:43:49Z</time>
      </trkpt>
      <trkpt lat="45.45627" lon="5.70104">
        <ele>846.8</ele>
        <time>2015-05-17T07:43:52Z</time>
      </trkpt>
      <trkpt lat="45.45635" lon="5.70106">
        <ele>846.9</ele>
        <time>2015-05-17T07:43:55Z</time>
      </trkpt>
      <trkpt lat="45.45644" lon="5.70109">
        <ele>846.9</ele>
        <time>2015-05-17T07:43:58Z</time>
      </trkpt>
      <trkpt lat="45.45651" lon="5.70111">
        <ele>847.1</ele>
        <time>2015-05-17T07:44:01Z</time>
      </trkpt>
      <trkpt lat="45.45658" lon="5.70114">
        <ele>847.3</ele>
        <time>2015-05-17T07:44:04Z</time>
      </trkpt>
      <trkpt lat="45.45667" lon="5.70114">
        <ele>847.7</ele>
        <time>2015-05-17T07:44:08Z</time>
      </trkpt>
      <trkpt lat="45.45676" lon="5.70109">
        <ele>848.3</ele>
        <time>2015-05-17T07:44:11Z</time>
      </trkpt>
      <trkpt lat="45.4568" lon="5.70099">
        <ele>849</ele>
        <time>2015-05-17T07:44:15Z</time>
      </trkpt>
      <trkpt lat="45.45681" lon="5.70088">
        <ele>849.7</ele>
        <time>2015-05-17T07:44:19Z</time>
      </trkpt>
      <trkpt lat="45.45681" lon="5.70077">
        <ele>850.6</ele>
        <time>2015-05-17T07:44:24Z</time>
      </trkpt>
      <trkpt lat="45.4568" lon="5.70065">
        <ele>851.6</ele>
        <time>2015-05-17T07:44:30Z</time>
      </trkpt>
      <trkpt lat="45.45681" lon="5.70054">
        <ele>852.4</ele>
        <time>2015-05-17T07:44:34Z</time>
      </trkpt>
      <trkpt lat="45.45684" lon="5.70043">
        <ele>853.5</ele>
        <time>2015-05-17T07:44:40Z</time>
      </trkpt>
      <trkpt lat="45.45687" lon="5.70032">
        <ele>854.3</ele>
        <time>2015-05-17T07:44:45Z</time>
      </trkpt>
      <trkpt lat="45.45691" lon="5.70022">
        <ele>855</ele>
        <time>2015-05-17T07:44:49Z</time>
      </trkpt>
      <trkpt lat="45.45695" lon="5.70013">
        <ele>856.1</ele>
        <time>2015-05-17T07:44:54Z</time>
      </trkpt>
      <trkpt lat="45.457" lon="5.70003">
        <ele>857.5</ele>
        <time>2015-05-17T07:44:59Z</time>
      </trkpt>
      <trkpt lat="45.45705" lon="5.69994">
        <ele>858.7</ele>
        <time>2015-05-17T07:45:04Z</time>
      </trkpt>
      <trkpt lat="45.45711" lon="5.69984">
        <ele>859.8</ele>
        <time>2015-05-17T07:45:09Z</time>
      </trkpt>
      <trkpt lat="45.45715" lon="5.69974">
        <ele>860.8</ele>
        <time>2015-05-17T07:45:14Z</time>
      </trkpt>
      <trkpt lat="45.45721" lon="5.69966">
        <ele>861.8</ele>
        <time>2015-05-17T07:45:19Z</time>
      </trkpt>
      <trkpt lat="45.45727" lon="5.69959">
        <ele>863.1</ele>
        <time>2015-05-17T07:45:25Z</time>
      </trkpt>
      <trkpt lat="45.45734" lon="5.69952">
        <ele>865</ele>
        <time>2015-05-17T07:45:31Z</time>
      </trkpt>
      <trkpt lat="45.4574" lon="5.69945">
        <ele>867</ele>
        <time>2015-05-17T07:45:37Z</time>
      </trkpt>
      <trkpt lat="45.45747" lon="5.6994">
        <ele>868.8</ele>
        <time>2015-05-17T07:45:42Z</time>
      </trkpt>
      <trkpt lat="45.45755" lon="5.69935">
        <ele>870.5</ele>
        <time>2015-05-17T07:45:48Z</time>
      </trkpt>
      <trkpt lat="45.45761" lon="5.69927">
        <ele>871.3</ele>
        <time>2015-05-17T07:45:52Z</time>
      </trkpt>
      <trkpt lat="45.45767" lon="5.69922">
        <ele>872.3</ele>
        <time>2015-05-17T07:45:57Z</time>
      </trkpt>
      <trkpt lat="45.45772" lon="5.6991">
        <ele>873.8</ele>
        <time>2015-05-17T07:46:03Z</time>
      </trkpt>
      <trkpt lat="45.45775" lon="5.69899">
        <ele>874.8</ele>
        <time>2015-05-17T07:46:08Z</time>
      </trkpt>
      <trkpt lat="45.45778" lon="5.69889">
        <ele>875.7</ele>
        <time>2015-05-17T07:46:12Z</time>
      </trkpt>
      <trkpt lat="45.45781" lon="5.69879">
        <ele>877.1</ele>
        <time>2015-05-17T07:46:18Z</time>
      </trkpt>
      <trkpt lat="45.45784" lon="5.69867">
        <ele>878.1</ele>
        <time>2015-05-17T07:46:23Z</time>
      </trkpt>
      <trkpt lat="45.45788" lon="5.69855">
        <ele>878.9</ele>
        <time>2015-05-17T07:46:28Z</time>
      </trkpt>
      <trkpt lat="45.45791" lon="5.69842">
        <ele>880.2</ele>
        <time>2015-05-17T07:46:33Z</time>
      </trkpt>
      <trkpt lat="45.45794" lon="5.69832">
        <ele>881.4</ele>
        <time>2015-05-17T07:46:38Z</time>
      </trkpt>
      <trkpt lat="45.458" lon="5.69826">
        <ele>882.7</ele>
        <time>2015-05-17T07:46:45Z</time>
      </trkpt>
      <trkpt lat="45.45808" lon="5.69823">
        <ele>883.5</ele>
        <time>2015-05-17T07:46:49Z</time>
      </trkpt>
      <trkpt lat="45.45817" lon="5.6982">
        <ele>884.5</ele>
        <time>2015-05-17T07:46:53Z</time>
      </trkpt>
      <trkpt lat="45.45825" lon="5.6982">
        <ele>885.5</ele>
        <time>2015-05-17T07:46:56Z</time>
      </trkpt>
      <trkpt lat="45.45833" lon="5.69819">
        <ele>886.9</ele>
        <time>2015-05-17T07:47:01Z</time>
      </trkpt>
      <trkpt lat="45.45841" lon="5.69815">
        <ele>888.3</ele>
        <time>2015-05-17T07:47:06Z</time>
      </trkpt>
      <trkpt lat="45.45849" lon="5.6981">
        <ele>889.4</ele>
        <time>2015-05-17T07:47:10Z</time>
      </trkpt>
      <trkpt lat="45.45855" lon="5.69802">
        <ele>890.2</ele>
        <time>2015-05-17T07:47:14Z</time>
      </trkpt>
      <trkpt lat="45.45856" lon="5.69791">
        <ele>891</ele>
        <time>2015-05-17T07:47:17Z</time>
      </trkpt>
      <trkpt lat="45.45861" lon="5.6978">
        <ele>892.1</ele>
        <time>2015-05-17T07:47:22Z</time>
      </trkpt>
      <trkpt lat="45.45867" lon="5.69773">
        <ele>892.4</ele>
        <time>2015-05-17T07:47:24Z</time>
      </trkpt>
      <trkpt lat="45.45873" lon="5.69765">
        <ele>892.7</ele>
        <time>2015-05-17T07:47:27Z</time>
      </trkpt>
      <trkpt lat="45.45877" lon="5.69755">
        <ele>892.8</ele>
        <time>2015-05-17T07:47:30Z</time>
      </trkpt>
      <trkpt lat="45.45882" lon="5.69746">
        <ele>893.2</ele>
        <time>2015-05-17T07:47:34Z</time>
      </trkpt>
      <trkpt lat="45.45884" lon="5.69737">
        <ele>893.6</ele>
        <time>2015-05-17T07:47:37Z</time>
      </trkpt>
      <trkpt lat="45.45888" lon="5.69728">
        <ele>893.8</ele>
        <time>2015-05-17T07:47:40Z</time>
      </trkpt>
      <trkpt lat="45.45893" lon="5.69718">
        <ele>893.8</ele>
        <time>2015-05-17T07:47:43Z</time>
      </trkpt>
      <trkpt lat="45.45898" lon="5.69704">
        <ele>894.2</ele>
        <time>2015-05-17T07:47:47Z</time>
      </trkpt>
      <trkpt lat="45.45902" lon="5.69691">
        <ele>894.5</ele>
        <time>2015-05-17T07:47:50Z</time>
      </trkpt>
      <trkpt lat="45.45905" lon="5.6968">
        <ele>894.6</ele>
        <time>2015-05-17T07:47:52Z</time>
      </trkpt>
      <trkpt lat="45.45902" lon="5.69667">
        <ele>895.2</ele>
        <time>2015-05-17T07:47:55Z</time>
      </trkpt>
      <trkpt lat="45.45897" lon="5.69658">
        <ele>895.6</ele>
        <time>2015-05-17T07:47:58Z</time>
      </trkpt>
      <trkpt lat="45.45893" lon="5.69648">
        <ele>896</ele>
        <time>2015-05-17T07:48:01Z</time>
      </trkpt>
      <trkpt lat="45.45889" lon="5.69638">
        <ele>896.3</ele>
        <time>2015-05-17T07:48:04Z</time>
      </trkpt>
      <trkpt lat="45.45886" lon="5.69629">
        <ele>896.5</ele>
        <time>2015-05-17T07:48:06Z</time>
      </trkpt>
      <trkpt lat="45.45881" lon="5.69619">
        <ele>898.1</ele>
        <time>2015-05-17T07:48:08Z</time>
      </trkpt>
      <trkpt lat="45.45875" lon="5.6961">
        <ele>899</ele>
        <time>2015-05-17T07:48:10Z</time>
      </trkpt>
      <trkpt lat="45.45869" lon="5.69599">
        <ele>899.3</ele>
        <time>2015-05-17T07:48:13Z</time>
      </trkpt>
      <trkpt lat="45.45864" lon="5.6959">
        <ele>899.4</ele>
        <time>2015-05-17T07:48:15Z</time>
      </trkpt>
      <trkpt lat="45.45861" lon="5.69579">
        <ele>899.5</ele>
        <time>2015-05-17T07:48:17Z</time>
      </trkpt>
      <trkpt lat="45.45854" lon="5.69568">
        <ele>900.1</ele>
        <time>2015-05-17T07:48:20Z</time>
      </trkpt>
      <trkpt lat="45.45848" lon="5.69556">
        <ele>901.9</ele>
        <time>2015-05-17T07:48:22Z</time>
      </trkpt>
      <trkpt lat="45.45842" lon="5.69545">
        <ele>903.2</ele>
        <time>2015-05-17T07:48:24Z</time>
      </trkpt>
      <trkpt lat="45.45837" lon="5.69529">
        <ele>903.2</ele>
        <time>2015-05-17T07:48:26Z</time>
      </trkpt>
      <trkpt lat="45.45835" lon="5.69514">
        <ele>903.2</ele>
        <time>2015-05-17T07:48:28Z</time>
      </trkpt>
      <trkpt lat="45.45828" lon="5.69501">
        <ele>902.4</ele>
        <time>2015-05-17T07:48:30Z</time>
      </trkpt>
      <trkpt lat="45.45822" lon="5.69488">
        <ele>902.2</ele>
        <time>2015-05-17T07:48:32Z</time>
      </trkpt>
      <trkpt lat="45.45815" lon="5.69478">
        <ele>901.3</ele>
        <time>2015-05-17T07:48:34Z</time>
      </trkpt>
      <trkpt lat="45.45803" lon="5.69473">
        <ele>900.1</ele>
        <time>2015-05-17T07:48:36Z</time>
      </trkpt>
      <trkpt lat="45.45793" lon="5.69473">
        <ele>899.1</ele>
        <time>2015-05-17T07:48:38Z</time>
      </trkpt>
      <trkpt lat="45.4578" lon="5.69473">
        <ele>898.6</ele>
        <time>2015-05-17T07:48:40Z</time>
      </trkpt>
      <trkpt lat="45.45769" lon="5.69472">
        <ele>898</ele>
        <time>2015-05-17T07:48:42Z</time>
      </trkpt>
      <trkpt lat="45.45761" lon="5.69471">
        <ele>897.8</ele>
        <time>2015-05-17T07:48:44Z</time>
      </trkpt>
      <trkpt lat="45.45754" lon="5.69473">
        <ele>897.6</ele>
        <time>2015-05-17T07:48:46Z</time>
      </trkpt>
      <trkpt lat="45.45745" lon="5.69472">
        <ele>897.6</ele>
        <time>2015-05-17T07:48:49Z</time>
      </trkpt>
      <trkpt lat="45.45737" lon="5.6947">
        <ele>897.5</ele>
        <time>2015-05-17T07:48:51Z</time>
      </trkpt>
      <trkpt lat="45.45729" lon="5.6947">
        <ele>897.5</ele>
        <time>2015-05-17T07:48:53Z</time>
      </trkpt>
      <trkpt lat="45.45721" lon="5.69471">
        <ele>897.5</ele>
        <time>2015-05-17T07:48:56Z</time>
      </trkpt>
      <trkpt lat="45.45712" lon="5.69474">
        <ele>897.3</ele>
        <time>2015-05-17T07:49:00Z</time>
      </trkpt>
      <trkpt lat="45.45705" lon="5.69478">
        <ele>896.8</ele>
        <time>2015-05-17T07:49:05Z</time>
      </trkpt>
      <trkpt lat="45.45697" lon="5.69482">
        <ele>896.4</ele>
        <time>2015-05-17T07:49:10Z</time>
      </trkpt>
      <trkpt lat="45.45691" lon="5.69487">
        <ele>896.4</ele>
        <time>2015-05-17T07:49:14Z</time>
      </trkpt>
      <trkpt lat="45.45686" lon="5.69499">
        <ele>896.2</ele>
        <time>2015-05-17T07:49:18Z</time>
      </trkpt>
      <trkpt lat="45.45681" lon="5.69509">
        <ele>896.4</ele>
        <time>2015-05-17T07:49:24Z</time>
      </trkpt>
      <trkpt lat="45.45675" lon="5.69518">
        <ele>896.8</ele>
        <time>2015-05-17T07:49:29Z</time>
      </trkpt>
      <trkpt lat="45.45668" lon="5.69527">
        <ele>896.9</ele>
        <time>2015-05-17T07:49:34Z</time>
      </trkpt>
      <trkpt lat="45.45662" lon="5.69535">
        <ele>896.9</ele>
        <time>2015-05-17T07:49:38Z</time>
      </trkpt>
      <trkpt lat="45.45654" lon="5.69544">
        <ele>896.8</ele>
        <time>2015-05-17T07:49:42Z</time>
      </trkpt>
      <trkpt lat="45.45647" lon="5.69546">
        <ele>896.9</ele>
        <time>2015-05-17T07:49:45Z</time>
      </trkpt>
      <trkpt lat="45.45638" lon="5.6955">
        <ele>897</ele>
        <time>2015-05-17T07:49:48Z</time>
      </trkpt>
      <trkpt lat="45.45628" lon="5.69559">
        <ele>897.3</ele>
        <time>2015-05-17T07:49:51Z</time>
      </trkpt>
      <trkpt lat="45.45621" lon="5.69562">
        <ele>897.5</ele>
        <time>2015-05-17T07:49:53Z</time>
      </trkpt>
      <trkpt lat="45.45611" lon="5.69565">
        <ele>897.9</ele>
        <time>2015-05-17T07:49:56Z</time>
      </trkpt>
      <trkpt lat="45.45602" lon="5.69564">
        <ele>901</ele>
        <time>2015-05-17T07:49:58Z</time>
      </trkpt>
      <trkpt lat="45.45593" lon="5.69561">
        <ele>901.3</ele>
        <time>2015-05-17T07:50:01Z</time>
      </trkpt>
      <trkpt lat="45.45586" lon="5.69555">
        <ele>901.6</ele>
        <time>2015-05-17T07:50:04Z</time>
      </trkpt>
      <trkpt lat="45.45581" lon="5.69547">
        <ele>902.2</ele>
        <time>2015-05-17T07:50:07Z</time>
      </trkpt>
      <trkpt lat="45.45572" lon="5.69542">
        <ele>903.9</ele>
        <time>2015-05-17T07:50:10Z</time>
      </trkpt>
      <trkpt lat="45.45564" lon="5.69545">
        <ele>905.1</ele>
        <time>2015-05-17T07:50:13Z</time>
      </trkpt>
      <trkpt lat="45.45553" lon="5.6955">
        <ele>905.1</ele>
        <time>2015-05-17T07:50:16Z</time>
      </trkpt>
      <trkpt lat="45.45546" lon="5.69551">
        <ele>905.2</ele>
        <time>2015-05-17T07:50:18Z</time>
      </trkpt>
      <trkpt lat="45.45538" lon="5.6955">
        <ele>905.4</ele>
        <time>2015-05-17T07:50:20Z</time>
      </trkpt>
      <trkpt lat="45.45529" lon="5.6955">
        <ele>905.7</ele>
        <time>2015-05-17T07:50:23Z</time>
      </trkpt>
      <trkpt lat="45.45521" lon="5.69546">
        <ele>906.1</ele>
        <time>2015-05-17T07:50:26Z</time>
      </trkpt>
      <trkpt lat="45.45514" lon="5.69541">
        <ele>906.2</ele>
        <time>2015-05-17T07:50:30Z</time>
      </trkpt>
      <trkpt lat="45.45512" lon="5.6953">
        <ele>906</ele>
        <time>2015-05-17T07:50:33Z</time>
      </trkpt>
      <trkpt lat="45.45502" lon="5.69523">
        <ele>906</ele>
        <time>2015-05-17T07:50:36Z</time>
      </trkpt>
      <trkpt lat="45.45494" lon="5.69522">
        <ele>906</ele>
        <time>2015-05-17T07:50:38Z</time>
      </trkpt>
      <trkpt lat="45.45486" lon="5.69523">
        <ele>905.9</ele>
        <time>2015-05-17T07:50:40Z</time>
      </trkpt>
      <trkpt lat="45.45477" lon="5.6953">
        <ele>905.8</ele>
        <time>2015-05-17T07:50:43Z</time>
      </trkpt>
      <trkpt lat="45.4547" lon="5.69535">
        <ele>905.8</ele>
        <time>2015-05-17T07:50:45Z</time>
      </trkpt>
      <trkpt lat="45.4546" lon="5.69537">
        <ele>905.4</ele>
        <time>2015-05-17T07:50:48Z</time>
      </trkpt>
      <trkpt lat="45.45451" lon="5.69544">
        <ele>904.9</ele>
        <time>2015-05-17T07:50:51Z</time>
      </trkpt>
      <trkpt lat="45.45441" lon="5.69553">
        <ele>904.4</ele>
        <time>2015-05-17T07:50:54Z</time>
      </trkpt>
      <trkpt lat="45.45435" lon="5.69561">
        <ele>904</ele>
        <time>2015-05-17T07:50:56Z</time>
      </trkpt>
      <trkpt lat="45.45427" lon="5.69564">
        <ele>901.7</ele>
        <time>2015-05-17T07:50:58Z</time>
      </trkpt>
      <trkpt lat="45.45417" lon="5.69567">
        <ele>900.2</ele>
        <time>2015-05-17T07:51:01Z</time>
      </trkpt>
      <trkpt lat="45.45409" lon="5.69564">
        <ele>900.1</ele>
        <time>2015-05-17T07:51:04Z</time>
      </trkpt>
      <trkpt lat="45.45402" lon="5.69559">
        <ele>900</ele>
        <time>2015-05-17T07:51:06Z</time>
      </trkpt>
      <trkpt lat="45.45393" lon="5.69553">
        <ele>900</ele>
        <time>2015-05-17T07:51:08Z</time>
      </trkpt>
      <trkpt lat="45.45385" lon="5.69547">
        <ele>900</ele>
        <time>2015-05-17T07:51:10Z</time>
      </trkpt>
      <trkpt lat="45.45378" lon="5.6954">
        <ele>900</ele>
        <time>2015-05-17T07:51:12Z</time>
      </trkpt>
      <trkpt lat="45.45369" lon="5.69536">
        <ele>900.1</ele>
        <time>2015-05-17T07:51:14Z</time>
      </trkpt>
      <trkpt lat="45.45361" lon="5.69536">
        <ele>900.1</ele>
        <time>2015-05-17T07:51:16Z</time>
      </trkpt>
      <trkpt lat="45.45354" lon="5.69539">
        <ele>900.1</ele>
        <time>2015-05-17T07:51:19Z</time>
      </trkpt>
      <trkpt lat="45.45349" lon="5.6955">
        <ele>899.9</ele>
        <time>2015-05-17T07:51:23Z</time>
      </trkpt>
      <trkpt lat="45.4534" lon="5.69555">
        <ele>899.5</ele>
        <time>2015-05-17T07:51:26Z</time>
      </trkpt>
      <trkpt lat="45.45333" lon="5.69551">
        <ele>899.4</ele>
        <time>2015-05-17T07:51:28Z</time>
      </trkpt>
      <trkpt lat="45.45321" lon="5.69546">
        <ele>899.1</ele>
        <time>2015-05-17T07:51:31Z</time>
      </trkpt>
      <trkpt lat="45.45313" lon="5.69538">
        <ele>898.6</ele>
        <time>2015-05-17T07:51:33Z</time>
      </trkpt>
      <trkpt lat="45.45303" lon="5.69527">
        <ele>897.6</ele>
        <time>2015-05-17T07:51:35Z</time>
      </trkpt>
      <trkpt lat="45.45296" lon="5.69522">
        <ele>897.2</ele>
        <time>2015-05-17T07:51:36Z</time>
      </trkpt>
      <trkpt lat="45.45284" lon="5.69517">
        <ele>896.1</ele>
        <time>2015-05-17T07:51:38Z</time>
      </trkpt>
      <trkpt lat="45.45274" lon="5.6951">
        <ele>894.5</ele>
        <time>2015-05-17T07:51:40Z</time>
      </trkpt>
      <trkpt lat="45.45266" lon="5.695">
        <ele>893.6</ele>
        <time>2015-05-17T07:51:43Z</time>
      </trkpt>
      <trkpt lat="45.45261" lon="5.69485">
        <ele>893.4</ele>
        <time>2015-05-17T07:51:46Z</time>
      </trkpt>
      <trkpt lat="45.45259" lon="5.69475">
        <ele>893.2</ele>
        <time>2015-05-17T07:51:48Z</time>
      </trkpt>
      <trkpt lat="45.45257" lon="5.69463">
        <ele>893</ele>
        <time>2015-05-17T07:51:50Z</time>
      </trkpt>
      <trkpt lat="45.45254" lon="5.69448">
        <ele>892.2</ele>
        <time>2015-05-17T07:51:52Z</time>
      </trkpt>
      <trkpt lat="45.45257" lon="5.69438">
        <ele>892</ele>
        <time>2015-05-17T07:51:54Z</time>
      </trkpt>
      <trkpt lat="45.45254" lon="5.69428">
        <ele>890.8</ele>
        <time>2015-05-17T07:51:56Z</time>
      </trkpt>
      <trkpt lat="45.45246" lon="5.69417">
        <ele>889</ele>
        <time>2015-05-17T07:51:59Z</time>
      </trkpt>
      <trkpt lat="45.45236" lon="5.69407">
        <ele>889.2</ele>
        <time>2015-05-17T07:52:01Z</time>
      </trkpt>
      <trkpt lat="45.45226" lon="5.69397">
        <ele>889.2</ele>
        <time>2015-05-17T07:52:03Z</time>
      </trkpt>
      <trkpt lat="45.45214" lon="5.69392">
        <ele>888.5</ele>
        <time>2015-05-17T07:52:05Z</time>
      </trkpt>
      <trkpt lat="45.45202" lon="5.69389">
        <ele>885.7</ele>
        <time>2015-05-17T07:52:07Z</time>
      </trkpt>
      <trkpt lat="45.45188" lon="5.69388">
        <ele>882.8</ele>
        <time>2015-05-17T07:52:09Z</time>
      </trkpt>
      <trkpt lat="45.45175" lon="5.69385">
        <ele>881.3</ele>
        <time>2015-05-17T07:52:11Z</time>
      </trkpt>
      <trkpt lat="45.45162" lon="5.69379">
        <ele>880.9</ele>
        <time>2015-05-17T07:52:13Z</time>
      </trkpt>
      <trkpt lat="45.45149" lon="5.69372">
        <ele>881.5</ele>
        <time>2015-05-17T07:52:15Z</time>
      </trkpt>
      <trkpt lat="45.45141" lon="5.69369">
        <ele>881.2</ele>
        <time>2015-05-17T07:52:16Z</time>
      </trkpt>
      <trkpt lat="45.45127" lon="5.69364">
        <ele>880.9</ele>
        <time>2015-05-17T07:52:18Z</time>
      </trkpt>
      <trkpt lat="45.45115" lon="5.69359">
        <ele>880.6</ele>
        <time>2015-05-17T07:52:20Z</time>
      </trkpt>
      <trkpt lat="45.45103" lon="5.69355">
        <ele>880.1</ele>
        <time>2015-05-17T07:52:22Z</time>
      </trkpt>
      <trkpt lat="45.45095" lon="5.69351">
        <ele>880</ele>
        <time>2015-05-17T07:52:23Z</time>
      </trkpt>
      <trkpt lat="45.45087" lon="5.69341">
        <ele>878.9</ele>
        <time>2015-05-17T07:52:25Z</time>
      </trkpt>
      <trkpt lat="45.45076" lon="5.69331">
        <ele>876.2</ele>
        <time>2015-05-17T07:52:27Z</time>
      </trkpt>
      <trkpt lat="45.45067" lon="5.69324">
        <ele>874.7</ele>
        <time>2015-05-17T07:52:29Z</time>
      </trkpt>
      <trkpt lat="45.45058" lon="5.69318">
        <ele>873.7</ele>
        <time>2015-05-17T07:52:31Z</time>
      </trkpt>
      <trkpt lat="45.45044" lon="5.69314">
        <ele>872.4</ele>
        <time>2015-05-17T07:52:33Z</time>
      </trkpt>
      <trkpt lat="45.45038" lon="5.69309">
        <ele>871.4</ele>
        <time>2015-05-17T07:52:34Z</time>
      </trkpt>
      <trkpt lat="45.45025" lon="5.69298">
        <ele>869.7</ele>
        <time>2015-05-17T07:52:36Z</time>
      </trkpt>
      <trkpt lat="45.45019" lon="5.69291">
        <ele>868.9</ele>
        <time>2015-05-17T07:52:37Z</time>
      </trkpt>
      <trkpt lat="45.45013" lon="5.69284">
        <ele>867.9</ele>
        <time>2015-05-17T07:52:38Z</time>
      </trkpt>
      <trkpt lat="45.45003" lon="5.6927">
        <ele>866.4</ele>
        <time>2015-05-17T07:52:40Z</time>
      </trkpt>
      <trkpt lat="45.44995" lon="5.69259">
        <ele>865.6</ele>
        <time>2015-05-17T07:52:42Z</time>
      </trkpt>
      <trkpt lat="45.4499" lon="5.69248">
        <ele>865</ele>
        <time>2015-05-17T07:52:44Z</time>
      </trkpt>
      <trkpt lat="45.44983" lon="5.6924">
        <ele>864.9</ele>
        <time>2015-05-17T07:52:46Z</time>
      </trkpt>
      <trkpt lat="45.44977" lon="5.69238">
        <ele>864.2</ele>
        <time>2015-05-17T07:52:53Z</time>
      </trkpt>
      <trkpt lat="45.44972" lon="5.69235">
        <ele>863.2</ele>
        <time>2015-05-17T07:54:44Z</time>
      </trkpt>
      <trkpt lat="45.44972" lon="5.69232">
        <ele>861.1</ele>
        <time>2015-05-17T07:57:53Z</time>
      </trkpt>
      <trkpt lat="45.44972" lon="5.69232">
        <ele>861.7</ele>
        <time>2015-05-17T07:58:00Z</time>
      </trkpt>
      <trkpt lat="45.44973" lon="5.69235">
        <ele>861.8</ele>
        <time>2015-05-17T07:58:07Z</time>
      </trkpt>
      <trkpt lat="45.44973" lon="5.69234">
        <ele>861.1</ele>
        <time>2015-05-17T07:58:32Z</time>
      </trkpt>
      <trkpt lat="45.44973" lon="5.69238">
        <ele>861.2</ele>
        <time>2015-05-17T07:58:59Z</time>
      </trkpt>
      <trkpt lat="45.44966" lon="5.69229">
        <ele>861.7</ele>
        <time>2015-05-17T07:59:05Z</time>
      </trkpt>
      <trkpt lat="45.4496" lon="5.69219">
        <ele>862</ele>
        <time>2015-05-17T07:59:08Z</time>
      </trkpt>
      <trkpt lat="45.44954" lon="5.69209">
        <ele>862.2</ele>
        <time>2015-05-17T07:59:11Z</time>
      </trkpt>
      <trkpt lat="45.44947" lon="5.69199">
        <ele>862.5</ele>
        <time>2015-05-17T07:59:15Z</time>
      </trkpt>
      <trkpt lat="45.44941" lon="5.69191">
        <ele>862.5</ele>
        <time>2015-05-17T07:59:17Z</time>
      </trkpt>
      <trkpt lat="45.44933" lon="5.69183">
        <ele>862.6</ele>
        <time>2015-05-17T07:59:20Z</time>
      </trkpt>
      <trkpt lat="45.44924" lon="5.69174">
        <ele>862.6</ele>
        <time>2015-05-17T07:59:23Z</time>
      </trkpt>
      <trkpt lat="45.44919" lon="5.69165">
        <ele>862.6</ele>
        <time>2015-05-17T07:59:25Z</time>
      </trkpt>
      <trkpt lat="45.44911" lon="5.69157">
        <ele>862.6</ele>
        <time>2015-05-17T07:59:27Z</time>
      </trkpt>
      <trkpt lat="45.44905" lon="5.69148">
        <ele>862.6</ele>
        <time>2015-05-17T07:59:29Z</time>
      </trkpt>
      <trkpt lat="45.44898" lon="5.69136">
        <ele>862.7</ele>
        <time>2015-05-17T07:59:32Z</time>
      </trkpt>
      <trkpt lat="45.44891" lon="5.69128">
        <ele>862.7</ele>
        <time>2015-05-17T07:59:35Z</time>
      </trkpt>
      <trkpt lat="45.44886" lon="5.6912">
        <ele>862.7</ele>
        <time>2015-05-17T07:59:37Z</time>
      </trkpt>
      <trkpt lat="45.44879" lon="5.69111">
        <ele>862.8</ele>
        <time>2015-05-17T07:59:39Z</time>
      </trkpt>
      <trkpt lat="45.44872" lon="5.69104">
        <ele>862.9</ele>
        <time>2015-05-17T07:59:42Z</time>
      </trkpt>
      <trkpt lat="45.44867" lon="5.69094">
        <ele>863</ele>
        <time>2015-05-17T07:59:45Z</time>
      </trkpt>
      <trkpt lat="45.4486" lon="5.69085">
        <ele>863.5</ele>
        <time>2015-05-17T07:59:48Z</time>
      </trkpt>
      <trkpt lat="45.44852" lon="5.69076">
        <ele>863.9</ele>
        <time>2015-05-17T07:59:51Z</time>
      </trkpt>
      <trkpt lat="45.44845" lon="5.69067">
        <ele>864.9</ele>
        <time>2015-05-17T07:59:53Z</time>
      </trkpt>
      <trkpt lat="45.44836" lon="5.69055">
        <ele>867.5</ele>
        <time>2015-05-17T07:59:55Z</time>
      </trkpt>
      <trkpt lat="45.44828" lon="5.69048">
        <ele>867.6</ele>
        <time>2015-05-17T07:59:57Z</time>
      </trkpt>
      <trkpt lat="45.4482" lon="5.69042">
        <ele>867.5</ele>
        <time>2015-05-17T07:59:59Z</time>
      </trkpt>
      <trkpt lat="45.44812" lon="5.69035">
        <ele>867.4</ele>
        <time>2015-05-17T08:00:01Z</time>
      </trkpt>
      <trkpt lat="45.44805" lon="5.69032">
        <ele>867.3</ele>
        <time>2015-05-17T08:00:04Z</time>
      </trkpt>
      <trkpt lat="45.44796" lon="5.6903">
        <ele>867.3</ele>
        <time>2015-05-17T08:00:08Z</time>
      </trkpt>
      <trkpt lat="45.44789" lon="5.69028">
        <ele>867.2</ele>
        <time>2015-05-17T08:00:11Z</time>
      </trkpt>
      <trkpt lat="45.4478" lon="5.69027">
        <ele>867.3</ele>
        <time>2015-05-17T08:00:16Z</time>
      </trkpt>
      <trkpt lat="45.44771" lon="5.69028">
        <ele>867.3</ele>
        <time>2015-05-17T08:00:19Z</time>
      </trkpt>
      <trkpt lat="45.44763" lon="5.69028">
        <ele>867.2</ele>
        <time>2015-05-17T08:00:22Z</time>
      </trkpt>
      <trkpt lat="45.44753" lon="5.69027">
        <ele>867.3</ele>
        <time>2015-05-17T08:00:25Z</time>
      </trkpt>
      <trkpt lat="45.44744" lon="5.69024">
        <ele>867.3</ele>
        <time>2015-05-17T08:00:28Z</time>
      </trkpt>
      <trkpt lat="45.44737" lon="5.69019">
        <ele>867.4</ele>
        <time>2015-05-17T08:00:32Z</time>
      </trkpt>
      <trkpt lat="45.44728" lon="5.69015">
        <ele>867.4</ele>
        <time>2015-05-17T08:00:35Z</time>
      </trkpt>
      <trkpt lat="45.44719" lon="5.69013">
        <ele>867.3</ele>
        <time>2015-05-17T08:00:39Z</time>
      </trkpt>
      <trkpt lat="45.44712" lon="5.69009">
        <ele>867.3</ele>
        <time>2015-05-17T08:00:42Z</time>
      </trkpt>
      <trkpt lat="45.44705" lon="5.69005">
        <ele>867.3</ele>
        <time>2015-05-17T08:00:45Z</time>
      </trkpt>
      <trkpt lat="45.44697" lon="5.68999">
        <ele>867.4</ele>
        <time>2015-05-17T08:00:49Z</time>
      </trkpt>
      <trkpt lat="45.44688" lon="5.68995">
        <ele>867.5</ele>
        <time>2015-05-17T08:00:53Z</time>
      </trkpt>
      <trkpt lat="45.4468" lon="5.68993">
        <ele>867.5</ele>
        <time>2015-05-17T08:00:56Z</time>
      </trkpt>
      <trkpt lat="45.44672" lon="5.68994">
        <ele>867.6</ele>
        <time>2015-05-17T08:01:00Z</time>
      </trkpt>
      <trkpt lat="45.44664" lon="5.68994">
        <ele>867.7</ele>
        <time>2015-05-17T08:01:03Z</time>
      </trkpt>
      <trkpt lat="45.44656" lon="5.68993">
        <ele>867.6</ele>
        <time>2015-05-17T08:01:06Z</time>
      </trkpt>
      <trkpt lat="45.44648" lon="5.68993">
        <ele>867.5</ele>
        <time>2015-05-17T08:01:09Z</time>
      </trkpt>
      <trkpt lat="45.4464" lon="5.68992">
        <ele>867.7</ele>
        <time>2015-05-17T08:01:13Z</time>
      </trkpt>
      <trkpt lat="45.44632" lon="5.68993">
        <ele>868</ele>
        <time>2015-05-17T08:01:17Z</time>
      </trkpt>
      <trkpt lat="45.44623" lon="5.68992">
        <ele>868</ele>
        <time>2015-05-17T08:01:21Z</time>
      </trkpt>
      <trkpt lat="45.44613" lon="5.68993">
        <ele>868.1</ele>
        <time>2015-05-17T08:01:25Z</time>
      </trkpt>
      <trkpt lat="45.44605" lon="5.68994">
        <ele>868.3</ele>
        <time>2015-05-17T08:01:28Z</time>
      </trkpt>
      <trkpt lat="45.44598" lon="5.68994">
        <ele>868.5</ele>
        <time>2015-05-17T08:01:31Z</time>
      </trkpt>
      <trkpt lat="45.44588" lon="5.68994">
        <ele>868.8</ele>
        <time>2015-05-17T08:01:35Z</time>
      </trkpt>
      <trkpt lat="45.4458" lon="5.68993">
        <ele>869</ele>
        <time>2015-05-17T08:01:38Z</time>
      </trkpt>
      <trkpt lat="45.44571" lon="5.68992">
        <ele>869.3</ele>
        <time>2015-05-17T08:01:41Z</time>
      </trkpt>
      <trkpt lat="45.44564" lon="5.68991">
        <ele>869.5</ele>
        <time>2015-05-17T08:01:44Z</time>
      </trkpt>
      <trkpt lat="45.44557" lon="5.68989">
        <ele>869.6</ele>
        <time>2015-05-17T08:01:47Z</time>
      </trkpt>
      <trkpt lat="45.44548" lon="5.68988">
        <ele>869.6</ele>
        <time>2015-05-17T08:01:50Z</time>
      </trkpt>
      <trkpt lat="45.44539" lon="5.68987">
        <ele>869.8</ele>
        <time>2015-05-17T08:01:53Z</time>
      </trkpt>
      <trkpt lat="45.4453" lon="5.68986">
        <ele>870.2</ele>
        <time>2015-05-17T08:01:56Z</time>
      </trkpt>
      <trkpt lat="45.44523" lon="5.68986">
        <ele>870.6</ele>
        <time>2015-05-17T08:01:59Z</time>
      </trkpt>
      <trkpt lat="45.44514" lon="5.68983">
        <ele>870.8</ele>
        <time>2015-05-17T08:02:02Z</time>
      </trkpt>
      <trkpt lat="45.44506" lon="5.68981">
        <ele>871</ele>
        <time>2015-05-17T08:02:04Z</time>
      </trkpt>
      <trkpt lat="45.44498" lon="5.6898">
        <ele>872.1</ele>
        <time>2015-05-17T08:02:06Z</time>
      </trkpt>
      <trkpt lat="45.44491" lon="5.68979">
        <ele>872.8</ele>
        <time>2015-05-17T08:02:08Z</time>
      </trkpt>
      <trkpt lat="45.44481" lon="5.68976">
        <ele>873.9</ele>
        <time>2015-05-17T08:02:11Z</time>
      </trkpt>
      <trkpt lat="45.44471" lon="5.68976">
        <ele>874.2</ele>
        <time>2015-05-17T08:02:14Z</time>
      </trkpt>
      <trkpt lat="45.44464" lon="5.68978">
        <ele>874.4</ele>
        <time>2015-05-17T08:02:17Z</time>
      </trkpt>
      <trkpt lat="45.4446" lon="5.68987">
        <ele>874.6</ele>
        <time>2015-05-17T08:02:20Z</time>
      </trkpt>
      <trkpt lat="45.44457" lon="5.68996">
        <ele>874.5</ele>
        <time>2015-05-17T08:02:22Z</time>
      </trkpt>
      <trkpt lat="45.44454" lon="5.69007">
        <ele>873.9</ele>
        <time>2015-05-17T08:02:24Z</time>
      </trkpt>
      <trkpt lat="45.44451" lon="5.69022">
        <ele>873.7</ele>
        <time>2015-05-17T08:02:27Z</time>
      </trkpt>
      <trkpt lat="45.44447" lon="5.69034">
        <ele>873.9</ele>
        <time>2015-05-17T08:02:29Z</time>
      </trkpt>
      <trkpt lat="45.44438" lon="5.69038">
        <ele>874.2</ele>
        <time>2015-05-17T08:02:32Z</time>
      </trkpt>
      <trkpt lat="45.44431" lon="5.69037">
        <ele>874.4</ele>
        <time>2015-05-17T08:02:34Z</time>
      </trkpt>
      <trkpt lat="45.44424" lon="5.69035">
        <ele>873.8</ele>
        <time>2015-05-17T08:02:36Z</time>
      </trkpt>
      <trkpt lat="45.44416" lon="5.69034">
        <ele>873.2</ele>
        <time>2015-05-17T08:02:38Z</time>
      </trkpt>
      <trkpt lat="45.44406" lon="5.69032">
        <ele>873.5</ele>
        <time>2015-05-17T08:02:41Z</time>
      </trkpt>
      <trkpt lat="45.44396" lon="5.69028">
        <ele>873.6</ele>
        <time>2015-05-17T08:02:44Z</time>
      </trkpt>
      <trkpt lat="45.44386" lon="5.69026">
        <ele>873.8</ele>
        <time>2015-05-17T08:02:47Z</time>
      </trkpt>
      <trkpt lat="45.44378" lon="5.69025">
        <ele>874</ele>
        <time>2015-05-17T08:02:49Z</time>
      </trkpt>
      <trkpt lat="45.44371" lon="5.69024">
        <ele>874.2</ele>
        <time>2015-05-17T08:02:51Z</time>
      </trkpt>
      <trkpt lat="45.44363" lon="5.69023">
        <ele>875</ele>
        <time>2015-05-17T08:02:53Z</time>
      </trkpt>
      <trkpt lat="45.44355" lon="5.69024">
        <ele>876.1</ele>
        <time>2015-05-17T08:02:55Z</time>
      </trkpt>
      <trkpt lat="45.44347" lon="5.69025">
        <ele>876.6</ele>
        <time>2015-05-17T08:02:57Z</time>
      </trkpt>
      <trkpt lat="45.44337" lon="5.69028">
        <ele>877.4</ele>
        <time>2015-05-17T08:03:00Z</time>
      </trkpt>
      <trkpt lat="45.44328" lon="5.6903">
        <ele>877.5</ele>
        <time>2015-05-17T08:03:03Z</time>
      </trkpt>
      <trkpt lat="45.44318" lon="5.69029">
        <ele>877.6</ele>
        <time>2015-05-17T08:03:06Z</time>
      </trkpt>
      <trkpt lat="45.44308" lon="5.69026">
        <ele>877.8</ele>
        <time>2015-05-17T08:03:09Z</time>
      </trkpt>
      <trkpt lat="45.44299" lon="5.69022">
        <ele>878.1</ele>
        <time>2015-05-17T08:03:12Z</time>
      </trkpt>
      <trkpt lat="45.44288" lon="5.69019">
        <ele>878.5</ele>
        <time>2015-05-17T08:03:15Z</time>
      </trkpt>
      <trkpt lat="45.44281" lon="5.69015">
        <ele>878.6</ele>
        <time>2015-05-17T08:03:17Z</time>
      </trkpt>
      <trkpt lat="45.44274" lon="5.69012">
        <ele>878.7</ele>
        <time>2015-05-17T08:03:19Z</time>
      </trkpt>
      <trkpt lat="45.44266" lon="5.6901">
        <ele>878.8</ele>
        <time>2015-05-17T08:03:21Z</time>
      </trkpt>
      <trkpt lat="45.44259" lon="5.69007">
        <ele>878.9</ele>
        <time>2015-05-17T08:03:23Z</time>
      </trkpt>
      <trkpt lat="45.44249" lon="5.69003">
        <ele>879.7</ele>
        <time>2015-05-17T08:03:26Z</time>
      </trkpt>
      <trkpt lat="45.44241" lon="5.69001">
        <ele>880.5</ele>
        <time>2015-05-17T08:03:28Z</time>
      </trkpt>
      <trkpt lat="45.44233" lon="5.68997">
        <ele>880.8</ele>
        <time>2015-05-17T08:03:30Z</time>
      </trkpt>
      <trkpt lat="45.44223" lon="5.68994">
        <ele>881.3</ele>
        <time>2015-05-17T08:03:32Z</time>
      </trkpt>
      <trkpt lat="45.44214" lon="5.68991">
        <ele>882.4</ele>
        <time>2015-05-17T08:03:34Z</time>
      </trkpt>
      <trkpt lat="45.44205" lon="5.6899">
        <ele>883.5</ele>
        <time>2015-05-17T08:03:36Z</time>
      </trkpt>
      <trkpt lat="45.44196" lon="5.68988">
        <ele>884.1</ele>
        <time>2015-05-17T08:03:38Z</time>
      </trkpt>
      <trkpt lat="45.44186" lon="5.68986">
        <ele>884.7</ele>
        <time>2015-05-17T08:03:40Z</time>
      </trkpt>
      <trkpt lat="45.44176" lon="5.68984">
        <ele>885.1</ele>
        <time>2015-05-17T08:03:42Z</time>
      </trkpt>
      <trkpt lat="45.44167" lon="5.68982">
        <ele>885.3</ele>
        <time>2015-05-17T08:03:44Z</time>
      </trkpt>
      <trkpt lat="45.44159" lon="5.6898">
        <ele>884.9</ele>
        <time>2015-05-17T08:03:46Z</time>
      </trkpt>
      <trkpt lat="45.44149" lon="5.68976">
        <ele>884.7</ele>
        <time>2015-05-17T08:03:48Z</time>
      </trkpt>
      <trkpt lat="45.4414" lon="5.68974">
        <ele>885</ele>
        <time>2015-05-17T08:03:50Z</time>
      </trkpt>
      <trkpt lat="45.44131" lon="5.68971">
        <ele>886.1</ele>
        <time>2015-05-17T08:03:52Z</time>
      </trkpt>
      <trkpt lat="45.44122" lon="5.68966">
        <ele>886.7</ele>
        <time>2015-05-17T08:03:54Z</time>
      </trkpt>
      <trkpt lat="45.44111" lon="5.68958">
        <ele>886.4</ele>
        <time>2015-05-17T08:03:56Z</time>
      </trkpt>
      <trkpt lat="45.441" lon="5.68949">
        <ele>885.4</ele>
        <time>2015-05-17T08:03:58Z</time>
      </trkpt>
      <trkpt lat="45.44089" lon="5.68943">
        <ele>884.6</ele>
        <time>2015-05-17T08:04:00Z</time>
      </trkpt>
      <trkpt lat="45.44079" lon="5.68937">
        <ele>884</ele>
        <time>2015-05-17T08:04:02Z</time>
      </trkpt>
      <trkpt lat="45.44067" lon="5.68932">
        <ele>883.8</ele>
        <time>2015-05-17T08:04:04Z</time>
      </trkpt>
      <trkpt lat="45.44054" lon="5.68928">
        <ele>884.2</ele>
        <time>2015-05-17T08:04:06Z</time>
      </trkpt>
      <trkpt lat="45.44041" lon="5.68924">
        <ele>884.9</ele>
        <time>2015-05-17T08:04:08Z</time>
      </trkpt>
      <trkpt lat="45.44028" lon="5.68921">
        <ele>884.2</ele>
        <time>2015-05-17T08:04:10Z</time>
      </trkpt>
      <trkpt lat="45.44015" lon="5.68919">
        <ele>882.9</ele>
        <time>2015-05-17T08:04:12Z</time>
      </trkpt>
      <trkpt lat="45.44002" lon="5.68916">
        <ele>882.1</ele>
        <time>2015-05-17T08:04:14Z</time>
      </trkpt>
      <trkpt lat="45.43995" lon="5.68914">
        <ele>882.2</ele>
        <time>2015-05-17T08:04:15Z</time>
      </trkpt>
      <trkpt lat="45.4398" lon="5.68912">
        <ele>882</ele>
        <time>2015-05-17T08:04:17Z</time>
      </trkpt>
      <trkpt lat="45.43973" lon="5.68912">
        <ele>881.7</ele>
        <time>2015-05-17T08:04:18Z</time>
      </trkpt>
      <trkpt lat="45.43961" lon="5.68914">
        <ele>880.8</ele>
        <time>2015-05-17T08:04:20Z</time>
      </trkpt>
      <trkpt lat="45.43953" lon="5.68906">
        <ele>880.7</ele>
        <time>2015-05-17T08:04:23Z</time>
      </trkpt>
      <trkpt lat="45.43956" lon="5.68895">
        <ele>879.7</ele>
        <time>2015-05-17T08:04:26Z</time>
      </trkpt>
      <trkpt lat="45.43962" lon="5.68886">
        <ele>878.5</ele>
        <time>2015-05-17T08:04:28Z</time>
      </trkpt>
      <trkpt lat="45.43968" lon="5.68874">
        <ele>877.6</ele>
        <time>2015-05-17T08:04:30Z</time>
      </trkpt>
      <trkpt lat="45.43975" lon="5.68863">
        <ele>876.9</ele>
        <time>2015-05-17T08:04:32Z</time>
      </trkpt>
      <trkpt lat="45.43984" lon="5.68854">
        <ele>876.4</ele>
        <time>2015-05-17T08:04:34Z</time>
      </trkpt>
      <trkpt lat="45.43992" lon="5.68845">
        <ele>876.6</ele>
        <time>2015-05-17T08:04:36Z</time>
      </trkpt>
      <trkpt lat="45.43999" lon="5.68835">
        <ele>876.6</ele>
        <time>2015-05-17T08:04:38Z</time>
      </trkpt>
      <trkpt lat="45.44004" lon="5.68823">
        <ele>876.9</ele>
        <time>2015-05-17T08:04:40Z</time>
      </trkpt>
      <trkpt lat="45.44008" lon="5.6881">
        <ele>877.3</ele>
        <time>2015-05-17T08:04:42Z</time>
      </trkpt>
      <trkpt lat="45.44009" lon="5.68796">
        <ele>877.9</ele>
        <time>2015-05-17T08:04:44Z</time>
      </trkpt>
      <trkpt lat="45.44009" lon="5.68783">
        <ele>878.4</ele>
        <time>2015-05-17T08:04:46Z</time>
      </trkpt>
      <trkpt lat="45.44007" lon="5.68769">
        <ele>878.9</ele>
        <time>2015-05-17T08:04:48Z</time>
      </trkpt>
      <trkpt lat="45.44003" lon="5.68756">
        <ele>879.2</ele>
        <time>2015-05-17T08:04:50Z</time>
      </trkpt>
      <trkpt lat="45.43998" lon="5.68744">
        <ele>879.8</ele>
        <time>2015-05-17T08:04:52Z</time>
      </trkpt>
      <trkpt lat="45.43993" lon="5.68735">
        <ele>880.8</ele>
        <time>2015-05-17T08:04:54Z</time>
      </trkpt>
      <trkpt lat="45.43988" lon="5.68726">
        <ele>881.5</ele>
        <time>2015-05-17T08:04:56Z</time>
      </trkpt>
      <trkpt lat="45.43981" lon="5.68717">
        <ele>882</ele>
        <time>2015-05-17T08:04:58Z</time>
      </trkpt>
      <trkpt lat="45.43975" lon="5.68708">
        <ele>882.2</ele>
        <time>2015-05-17T08:05:00Z</time>
      </trkpt>
      <trkpt lat="45.43969" lon="5.68699">
        <ele>882.5</ele>
        <time>2015-05-17T08:05:02Z</time>
      </trkpt>
      <trkpt lat="45.43964" lon="5.68692">
        <ele>882.6</ele>
        <time>2015-05-17T08:05:04Z</time>
      </trkpt>
      <trkpt lat="45.43958" lon="5.68683">
        <ele>883.3</ele>
        <time>2015-05-17T08:05:06Z</time>
      </trkpt>
      <trkpt lat="45.43953" lon="5.68676">
        <ele>883.8</ele>
        <time>2015-05-17T08:05:08Z</time>
      </trkpt>
      <trkpt lat="45.43947" lon="5.68668">
        <ele>884.2</ele>
        <time>2015-05-17T08:05:10Z</time>
      </trkpt>
      <trkpt lat="45.43942" lon="5.6866">
        <ele>884.2</ele>
        <time>2015-05-17T08:05:12Z</time>
      </trkpt>
      <trkpt lat="45.43936" lon="5.68653">
        <ele>884.5</ele>
        <time>2015-05-17T08:05:14Z</time>
      </trkpt>
      <trkpt lat="45.43931" lon="5.68646">
        <ele>884.7</ele>
        <time>2015-05-17T08:05:16Z</time>
      </trkpt>
      <trkpt lat="45.43923" lon="5.68635">
        <ele>884.8</ele>
        <time>2015-05-17T08:05:19Z</time>
      </trkpt>
      <trkpt lat="45.43915" lon="5.68625">
        <ele>884.9</ele>
        <time>2015-05-17T08:05:22Z</time>
      </trkpt>
      <trkpt lat="45.43908" lon="5.68615">
        <ele>884.9</ele>
        <time>2015-05-17T08:05:25Z</time>
      </trkpt>
      <trkpt lat="45.43901" lon="5.68605">
        <ele>885.1</ele>
        <time>2015-05-17T08:05:28Z</time>
      </trkpt>
      <trkpt lat="45.43894" lon="5.68596">
        <ele>885.3</ele>
        <time>2015-05-17T08:05:31Z</time>
      </trkpt>
      <trkpt lat="45.43887" lon="5.68587">
        <ele>885.5</ele>
        <time>2015-05-17T08:05:34Z</time>
      </trkpt>
      <trkpt lat="45.43881" lon="5.68577">
        <ele>885.7</ele>
        <time>2015-05-17T08:05:37Z</time>
      </trkpt>
      <trkpt lat="45.43874" lon="5.68567">
        <ele>885.9</ele>
        <time>2015-05-17T08:05:40Z</time>
      </trkpt>
      <trkpt lat="45.43867" lon="5.68557">
        <ele>886.1</ele>
        <time>2015-05-17T08:05:43Z</time>
      </trkpt>
      <trkpt lat="45.4386" lon="5.68547">
        <ele>886.5</ele>
        <time>2015-05-17T08:05:46Z</time>
      </trkpt>
      <trkpt lat="45.43866" lon="5.68542">
        <ele>887.2</ele>
        <time>2015-05-17T08:05:53Z</time>
      </trkpt>
      <trkpt lat="45.43875" lon="5.6855">
        <ele>887.6</ele>
        <time>2015-05-17T08:05:56Z</time>
      </trkpt>
      <trkpt lat="45.43882" lon="5.68557">
        <ele>887.9</ele>
        <time>2015-05-17T08:05:58Z</time>
      </trkpt>
      <trkpt lat="45.43887" lon="5.68564">
        <ele>888.3</ele>
        <time>2015-05-17T08:06:00Z</time>
      </trkpt>
      <trkpt lat="45.43892" lon="5.68572">
        <ele>890.6</ele>
        <time>2015-05-17T08:06:02Z</time>
      </trkpt>
      <trkpt lat="45.43899" lon="5.68577">
        <ele>891</ele>
        <time>2015-05-17T08:06:05Z</time>
      </trkpt>
      <trkpt lat="45.43909" lon="5.68585">
        <ele>892.2</ele>
        <time>2015-05-17T08:06:08Z</time>
      </trkpt>
      <trkpt lat="45.43918" lon="5.6859">
        <ele>892.3</ele>
        <time>2015-05-17T08:06:11Z</time>
      </trkpt>
      <trkpt lat="45.43923" lon="5.68594">
        <ele>892.3</ele>
        <time>2015-05-17T08:06:18Z</time>
      </trkpt>
      <trkpt lat="45.43915" lon="5.68588">
        <ele>891.7</ele>
        <time>2015-05-17T08:06:28Z</time>
      </trkpt>
      <trkpt lat="45.43908" lon="5.68583">
        <ele>891.6</ele>
        <time>2015-05-17T08:06:31Z</time>
      </trkpt>
      <trkpt lat="45.43901" lon="5.68579">
        <ele>891.6</ele>
        <time>2015-05-17T08:06:34Z</time>
      </trkpt>
      <trkpt lat="45.43896" lon="5.68571">
        <ele>891.4</ele>
        <time>2015-05-17T08:06:36Z</time>
      </trkpt>
      <trkpt lat="45.43887" lon="5.68562">
        <ele>891.4</ele>
        <time>2015-05-17T08:06:38Z</time>
      </trkpt>
      <trkpt lat="45.43882" lon="5.68553">
        <ele>891.7</ele>
        <time>2015-05-17T08:06:40Z</time>
      </trkpt>
      <trkpt lat="45.43878" lon="5.68541">
        <ele>891.7</ele>
        <time>2015-05-17T08:06:43Z</time>
      </trkpt>
      <trkpt lat="45.4388" lon="5.68529">
        <ele>891.7</ele>
        <time>2015-05-17T08:06:46Z</time>
      </trkpt>
      <trkpt lat="45.43878" lon="5.68518">
        <ele>891.8</ele>
        <time>2015-05-17T08:06:50Z</time>
      </trkpt>
      <trkpt lat="45.43875" lon="5.68507">
        <ele>891.7</ele>
        <time>2015-05-17T08:06:54Z</time>
      </trkpt>
      <trkpt lat="45.43871" lon="5.68495">
        <ele>891.7</ele>
        <time>2015-05-17T08:06:58Z</time>
      </trkpt>
      <trkpt lat="45.43868" lon="5.68485">
        <ele>891.5</ele>
        <time>2015-05-17T08:07:02Z</time>
      </trkpt>
      <trkpt lat="45.43865" lon="5.68474">
        <ele>891.6</ele>
        <time>2015-05-17T08:07:06Z</time>
      </trkpt>
      <trkpt lat="45.43863" lon="5.68462">
        <ele>891.8</ele>
        <time>2015-05-17T08:07:10Z</time>
      </trkpt>
      <trkpt lat="45.43861" lon="5.68448">
        <ele>891.9</ele>
        <time>2015-05-17T08:07:14Z</time>
      </trkpt>
      <trkpt lat="45.43859" lon="5.68436">
        <ele>892.1</ele>
        <time>2015-05-17T08:07:17Z</time>
      </trkpt>
      <trkpt lat="45.43856" lon="5.68423">
        <ele>892.3</ele>
        <time>2015-05-17T08:07:21Z</time>
      </trkpt>
      <trkpt lat="45.43853" lon="5.68412">
        <ele>892.5</ele>
        <time>2015-05-17T08:07:24Z</time>
      </trkpt>
      <trkpt lat="45.43851" lon="5.68402">
        <ele>892.8</ele>
        <time>2015-05-17T08:07:27Z</time>
      </trkpt>
      <trkpt lat="45.43848" lon="5.68392">
        <ele>893.2</ele>
        <time>2015-05-17T08:07:31Z</time>
      </trkpt>
      <trkpt lat="45.43846" lon="5.68379">
        <ele>893.7</ele>
        <time>2015-05-17T08:07:36Z</time>
      </trkpt>
      <trkpt lat="45.43843" lon="5.68368">
        <ele>894.1</ele>
        <time>2015-05-17T08:07:40Z</time>
      </trkpt>
      <trkpt lat="45.4384" lon="5.68355">
        <ele>894.6</ele>
        <time>2015-05-17T08:07:45Z</time>
      </trkpt>
      <trkpt lat="45.4384" lon="5.68345">
        <ele>895</ele>
        <time>2015-05-17T08:07:50Z</time>
      </trkpt>
      <trkpt lat="45.4384" lon="5.68331">
        <ele>895.7</ele>
        <time>2015-05-17T08:07:55Z</time>
      </trkpt>
      <trkpt lat="45.43843" lon="5.68319">
        <ele>896.3</ele>
        <time>2015-05-17T08:07:59Z</time>
      </trkpt>
      <trkpt lat="45.43845" lon="5.68307">
        <ele>896.9</ele>
        <time>2015-05-17T08:08:03Z</time>
      </trkpt>
      <trkpt lat="45.43847" lon="5.68296">
        <ele>897.6</ele>
        <time>2015-05-17T08:08:07Z</time>
      </trkpt>
      <trkpt lat="45.4385" lon="5.68287">
        <ele>898.4</ele>
        <time>2015-05-17T08:08:11Z</time>
      </trkpt>
      <trkpt lat="45.43853" lon="5.68275">
        <ele>899.3</ele>
        <time>2015-05-17T08:08:15Z</time>
      </trkpt>
      <trkpt lat="45.43855" lon="5.68265">
        <ele>900.1</ele>
        <time>2015-05-17T08:08:19Z</time>
      </trkpt>
      <trkpt lat="45.43858" lon="5.68255">
        <ele>901</ele>
        <time>2015-05-17T08:08:24Z</time>
      </trkpt>
      <trkpt lat="45.43861" lon="5.68244">
        <ele>901.6</ele>
        <time>2015-05-17T08:08:29Z</time>
      </trkpt>
      <trkpt lat="45.43863" lon="5.68234">
        <ele>902.5</ele>
        <time>2015-05-17T08:08:33Z</time>
      </trkpt>
      <trkpt lat="45.43867" lon="5.68223">
        <ele>903.8</ele>
        <time>2015-05-17T08:08:38Z</time>
      </trkpt>
      <trkpt lat="45.4387" lon="5.68213">
        <ele>904.6</ele>
        <time>2015-05-17T08:08:42Z</time>
      </trkpt>
      <trkpt lat="45.43873" lon="5.68203">
        <ele>905.3</ele>
        <time>2015-05-17T08:08:46Z</time>
      </trkpt>
      <trkpt lat="45.43875" lon="5.68193">
        <ele>906</ele>
        <time>2015-05-17T08:08:49Z</time>
      </trkpt>
      <trkpt lat="45.43877" lon="5.6818">
        <ele>906.8</ele>
        <time>2015-05-17T08:08:53Z</time>
      </trkpt>
      <trkpt lat="45.43879" lon="5.6817">
        <ele>907.5</ele>
        <time>2015-05-17T08:08:57Z</time>
      </trkpt>
      <trkpt lat="45.43881" lon="5.68158">
        <ele>909.2</ele>
        <time>2015-05-17T08:09:04Z</time>
      </trkpt>
      <trkpt lat="45.43883" lon="5.68145">
        <ele>909.7</ele>
        <time>2015-05-17T08:09:07Z</time>
      </trkpt>
      <trkpt lat="45.43881" lon="5.6813">
        <ele>910.4</ele>
        <time>2015-05-17T08:09:10Z</time>
      </trkpt>
      <trkpt lat="45.43876" lon="5.68122">
        <ele>911.3</ele>
        <time>2015-05-17T08:09:14Z</time>
      </trkpt>
      <trkpt lat="45.43869" lon="5.68112">
        <ele>913.4</ele>
        <time>2015-05-17T08:09:20Z</time>
      </trkpt>
      <trkpt lat="45.43863" lon="5.68105">
        <ele>914.2</ele>
        <time>2015-05-17T08:09:22Z</time>
      </trkpt>
      <trkpt lat="45.43858" lon="5.68098">
        <ele>915.1</ele>
        <time>2015-05-17T08:09:24Z</time>
      </trkpt>
      <trkpt lat="45.43852" lon="5.68086">
        <ele>915.9</ele>
        <time>2015-05-17T08:09:27Z</time>
      </trkpt>
      <trkpt lat="45.43846" lon="5.68079">
        <ele>916.5</ele>
        <time>2015-05-17T08:09:29Z</time>
      </trkpt>
      <trkpt lat="45.4384" lon="5.68071">
        <ele>917.1</ele>
        <time>2015-05-17T08:09:32Z</time>
      </trkpt>
      <trkpt lat="45.43833" lon="5.68063">
        <ele>917.3</ele>
        <time>2015-05-17T08:09:35Z</time>
      </trkpt>
      <trkpt lat="45.43825" lon="5.68055">
        <ele>917.4</ele>
        <time>2015-05-17T08:09:39Z</time>
      </trkpt>
      <trkpt lat="45.43817" lon="5.68046">
        <ele>917.3</ele>
        <time>2015-05-17T08:09:42Z</time>
      </trkpt>
      <trkpt lat="45.43809" lon="5.68036">
        <ele>917.4</ele>
        <time>2015-05-17T08:09:45Z</time>
      </trkpt>
      <trkpt lat="45.43804" lon="5.68028">
        <ele>917.7</ele>
        <time>2015-05-17T08:09:49Z</time>
      </trkpt>
      <trkpt lat="45.43797" lon="5.68025">
        <ele>917.9</ele>
        <time>2015-05-17T08:09:51Z</time>
      </trkpt>
      <trkpt lat="45.4379" lon="5.68025">
        <ele>918.2</ele>
        <time>2015-05-17T08:09:54Z</time>
      </trkpt>
      <trkpt lat="45.4378" lon="5.68018">
        <ele>918.5</ele>
        <time>2015-05-17T08:09:57Z</time>
      </trkpt>
      <trkpt lat="45.43775" lon="5.68008">
        <ele>918.9</ele>
        <time>2015-05-17T08:10:01Z</time>
      </trkpt>
      <trkpt lat="45.43771" lon="5.68">
        <ele>919.3</ele>
        <time>2015-05-17T08:10:04Z</time>
      </trkpt>
      <trkpt lat="45.43765" lon="5.6799">
        <ele>919.6</ele>
        <time>2015-05-17T08:10:07Z</time>
      </trkpt>
      <trkpt lat="45.43759" lon="5.67983">
        <ele>919.9</ele>
        <time>2015-05-17T08:10:09Z</time>
      </trkpt>
      <trkpt lat="45.43749" lon="5.67977">
        <ele>920.1</ele>
        <time>2015-05-17T08:10:12Z</time>
      </trkpt>
      <trkpt lat="45.43744" lon="5.67968">
        <ele>920.1</ele>
        <time>2015-05-17T08:10:15Z</time>
      </trkpt>
      <trkpt lat="45.43737" lon="5.67961">
        <ele>920.1</ele>
        <time>2015-05-17T08:10:18Z</time>
      </trkpt>
      <trkpt lat="45.4373" lon="5.67953">
        <ele>920.2</ele>
        <time>2015-05-17T08:10:21Z</time>
      </trkpt>
      <trkpt lat="45.43724" lon="5.67945">
        <ele>920.3</ele>
        <time>2015-05-17T08:10:24Z</time>
      </trkpt>
      <trkpt lat="45.43715" lon="5.67944">
        <ele>920.3</ele>
        <time>2015-05-17T08:10:27Z</time>
      </trkpt>
      <trkpt lat="45.43705" lon="5.67938">
        <ele>920.4</ele>
        <time>2015-05-17T08:10:30Z</time>
      </trkpt>
      <trkpt lat="45.43696" lon="5.67931">
        <ele>920.5</ele>
        <time>2015-05-17T08:10:33Z</time>
      </trkpt>
      <trkpt lat="45.43688" lon="5.67929">
        <ele>920.7</ele>
        <time>2015-05-17T08:10:35Z</time>
      </trkpt>
      <trkpt lat="45.4368" lon="5.67923">
        <ele>920.9</ele>
        <time>2015-05-17T08:10:37Z</time>
      </trkpt>
      <trkpt lat="45.43672" lon="5.6792">
        <ele>921</ele>
        <time>2015-05-17T08:10:39Z</time>
      </trkpt>
      <trkpt lat="45.43665" lon="5.67915">
        <ele>921.1</ele>
        <time>2015-05-17T08:10:41Z</time>
      </trkpt>
      <trkpt lat="45.43656" lon="5.67909">
        <ele>921.3</ele>
        <time>2015-05-17T08:10:43Z</time>
      </trkpt>
      <trkpt lat="45.43647" lon="5.67904">
        <ele>921.4</ele>
        <time>2015-05-17T08:10:45Z</time>
      </trkpt>
      <trkpt lat="45.4364" lon="5.67899">
        <ele>921.8</ele>
        <time>2015-05-17T08:10:47Z</time>
      </trkpt>
      <trkpt lat="45.43633" lon="5.67896">
        <ele>922.2</ele>
        <time>2015-05-17T08:10:49Z</time>
      </trkpt>
      <trkpt lat="45.43625" lon="5.67888">
        <ele>924.1</ele>
        <time>2015-05-17T08:10:51Z</time>
      </trkpt>
      <trkpt lat="45.43616" lon="5.67879">
        <ele>924</ele>
        <time>2015-05-17T08:10:53Z</time>
      </trkpt>
      <trkpt lat="45.43608" lon="5.67873">
        <ele>924.1</ele>
        <time>2015-05-17T08:10:54Z</time>
      </trkpt>
      <trkpt lat="45.43595" lon="5.67868">
        <ele>924.4</ele>
        <time>2015-05-17T08:10:56Z</time>
      </trkpt>
      <trkpt lat="45.43586" lon="5.67866">
        <ele>924.3</ele>
        <time>2015-05-17T08:10:58Z</time>
      </trkpt>
      <trkpt lat="45.43576" lon="5.67867">
        <ele>924.2</ele>
        <time>2015-05-17T08:11:00Z</time>
      </trkpt>
      <trkpt lat="45.43569" lon="5.67873">
        <ele>923.9</ele>
        <time>2015-05-17T08:11:03Z</time>
      </trkpt>
      <trkpt lat="45.43565" lon="5.67881">
        <ele>923.6</ele>
        <time>2015-05-17T08:11:10Z</time>
      </trkpt>
      <trkpt lat="45.43559" lon="5.67874">
        <ele>923.6</ele>
        <time>2015-05-17T08:11:12Z</time>
      </trkpt>
      <trkpt lat="45.4355" lon="5.67866">
        <ele>923.5</ele>
        <time>2015-05-17T08:11:15Z</time>
      </trkpt>
      <trkpt lat="45.43543" lon="5.67863">
        <ele>923.4</ele>
        <time>2015-05-17T08:11:17Z</time>
      </trkpt>
      <trkpt lat="45.43536" lon="5.67858">
        <ele>923.3</ele>
        <time>2015-05-17T08:11:19Z</time>
      </trkpt>
      <trkpt lat="45.43528" lon="5.67851">
        <ele>923.1</ele>
        <time>2015-05-17T08:11:23Z</time>
      </trkpt>
      <trkpt lat="45.43522" lon="5.67845">
        <ele>923.2</ele>
        <time>2015-05-17T08:11:27Z</time>
      </trkpt>
      <trkpt lat="45.43514" lon="5.67841">
        <ele>922.9</ele>
        <time>2015-05-17T08:11:31Z</time>
      </trkpt>
      <trkpt lat="45.43506" lon="5.67838">
        <ele>922.5</ele>
        <time>2015-05-17T08:11:35Z</time>
      </trkpt>
      <trkpt lat="45.435" lon="5.67831">
        <ele>922.6</ele>
        <time>2015-05-17T08:11:38Z</time>
      </trkpt>
      <trkpt lat="45.43493" lon="5.67828">
        <ele>922.6</ele>
        <time>2015-05-17T08:11:42Z</time>
      </trkpt>
      <trkpt lat="45.43486" lon="5.67824">
        <ele>922.6</ele>
        <time>2015-05-17T08:11:45Z</time>
      </trkpt>
      <trkpt lat="45.43479" lon="5.67817">
        <ele>922.3</ele>
        <time>2015-05-17T08:11:49Z</time>
      </trkpt>
      <trkpt lat="45.43473" lon="5.67811">
        <ele>922.2</ele>
        <time>2015-05-17T08:11:52Z</time>
      </trkpt>
      <trkpt lat="45.43464" lon="5.67805">
        <ele>922</ele>
        <time>2015-05-17T08:11:56Z</time>
      </trkpt>
      <trkpt lat="45.43459" lon="5.67798">
        <ele>921.8</ele>
        <time>2015-05-17T08:11:59Z</time>
      </trkpt>
      <trkpt lat="45.43453" lon="5.67791">
        <ele>922</ele>
        <time>2015-05-17T08:12:02Z</time>
      </trkpt>
      <trkpt lat="45.43446" lon="5.67787">
        <ele>922.5</ele>
        <time>2015-05-17T08:12:07Z</time>
      </trkpt>
      <trkpt lat="45.43439" lon="5.67791">
        <ele>922.9</ele>
        <time>2015-05-17T08:12:12Z</time>
      </trkpt>
      <trkpt lat="45.4343" lon="5.67792">
        <ele>923.4</ele>
        <time>2015-05-17T08:12:16Z</time>
      </trkpt>
      <trkpt lat="45.43422" lon="5.6779">
        <ele>924.1</ele>
        <time>2015-05-17T08:12:20Z</time>
      </trkpt>
      <trkpt lat="45.43414" lon="5.67788">
        <ele>924.5</ele>
        <time>2015-05-17T08:12:23Z</time>
      </trkpt>
      <trkpt lat="45.43404" lon="5.67788">
        <ele>925.2</ele>
        <time>2015-05-17T08:12:26Z</time>
      </trkpt>
      <trkpt lat="45.43394" lon="5.67789">
        <ele>925.5</ele>
        <time>2015-05-17T08:12:29Z</time>
      </trkpt>
      <trkpt lat="45.43385" lon="5.67791">
        <ele>925.6</ele>
        <time>2015-05-17T08:12:34Z</time>
      </trkpt>
      <trkpt lat="45.43378" lon="5.67787">
        <ele>925.9</ele>
        <time>2015-05-17T08:12:40Z</time>
      </trkpt>
      <trkpt lat="45.4337" lon="5.67785">
        <ele>926.1</ele>
        <time>2015-05-17T08:12:43Z</time>
      </trkpt>
      <trkpt lat="45.43362" lon="5.67784">
        <ele>926.3</ele>
        <time>2015-05-17T08:12:45Z</time>
      </trkpt>
      <trkpt lat="45.43351" lon="5.67785">
        <ele>926.5</ele>
        <time>2015-05-17T08:12:48Z</time>
      </trkpt>
      <trkpt lat="45.43343" lon="5.67787">
        <ele>926.6</ele>
        <time>2015-05-17T08:12:50Z</time>
      </trkpt>
      <trkpt lat="45.43333" lon="5.6779">
        <ele>926.8</ele>
        <time>2015-05-17T08:12:53Z</time>
      </trkpt>
      <trkpt lat="45.43324" lon="5.67794">
        <ele>927.1</ele>
        <time>2015-05-17T08:12:56Z</time>
      </trkpt>
      <trkpt lat="45.43317" lon="5.67802">
        <ele>927.5</ele>
        <time>2015-05-17T08:13:00Z</time>
      </trkpt>
      <trkpt lat="45.4331" lon="5.6781">
        <ele>927.9</ele>
        <time>2015-05-17T08:13:05Z</time>
      </trkpt>
      <trkpt lat="45.43305" lon="5.6781">
        <ele>927.9</ele>
        <time>2015-05-17T08:13:12Z</time>
      </trkpt>
      <trkpt lat="45.43295" lon="5.67807">
        <ele>928.1</ele>
        <time>2015-05-17T08:13:17Z</time>
      </trkpt>
      <trkpt lat="45.43285" lon="5.67802">
        <ele>928.2</ele>
        <time>2015-05-17T08:13:20Z</time>
      </trkpt>
      <trkpt lat="45.43277" lon="5.67797">
        <ele>928.2</ele>
        <time>2015-05-17T08:13:22Z</time>
      </trkpt>
      <trkpt lat="45.43269" lon="5.67792">
        <ele>928.1</ele>
        <time>2015-05-17T08:13:25Z</time>
      </trkpt>
      <trkpt lat="45.43261" lon="5.67788">
        <ele>927.9</ele>
        <time>2015-05-17T08:13:27Z</time>
      </trkpt>
      <trkpt lat="45.43252" lon="5.67785">
        <ele>927.3</ele>
        <time>2015-05-17T08:13:29Z</time>
      </trkpt>
      <trkpt lat="45.43242" lon="5.6778">
        <ele>927</ele>
        <time>2015-05-17T08:13:31Z</time>
      </trkpt>
      <trkpt lat="45.43234" lon="5.67778">
        <ele>926.9</ele>
        <time>2015-05-17T08:13:34Z</time>
      </trkpt>
      <trkpt lat="45.43225" lon="5.67774">
        <ele>926.7</ele>
        <time>2015-05-17T08:13:38Z</time>
      </trkpt>
      <trkpt lat="45.43219" lon="5.67768">
        <ele>926.9</ele>
        <time>2015-05-17T08:13:41Z</time>
      </trkpt>
      <trkpt lat="45.43212" lon="5.6776">
        <ele>927.2</ele>
        <time>2015-05-17T08:13:44Z</time>
      </trkpt>
      <trkpt lat="45.43205" lon="5.67754">
        <ele>927.5</ele>
        <time>2015-05-17T08:13:47Z</time>
      </trkpt>
      <trkpt lat="45.43197" lon="5.67746">
        <ele>927.8</ele>
        <time>2015-05-17T08:13:50Z</time>
      </trkpt>
      <trkpt lat="45.43193" lon="5.67736">
        <ele>928</ele>
        <time>2015-05-17T08:13:53Z</time>
      </trkpt>
      <trkpt lat="45.43189" lon="5.67725">
        <ele>928.2</ele>
        <time>2015-05-17T08:13:57Z</time>
      </trkpt>
      <trkpt lat="45.43186" lon="5.67712">
        <ele>928.3</ele>
        <time>2015-05-17T08:14:00Z</time>
      </trkpt>
      <trkpt lat="45.43183" lon="5.677">
        <ele>928.4</ele>
        <time>2015-05-17T08:14:02Z</time>
      </trkpt>
      <trkpt lat="45.4318" lon="5.67688">
        <ele>928.5</ele>
        <time>2015-05-17T08:14:05Z</time>
      </trkpt>
      <trkpt lat="45.43176" lon="5.67678">
        <ele>928.7</ele>
        <time>2015-05-17T08:14:08Z</time>
      </trkpt>
      <trkpt lat="45.43172" lon="5.67669">
        <ele>929.2</ele>
        <time>2015-05-17T08:14:11Z</time>
      </trkpt>
      <trkpt lat="45.43168" lon="5.67656">
        <ele>929.5</ele>
        <time>2015-05-17T08:14:13Z</time>
      </trkpt>
      <trkpt lat="45.43162" lon="5.67645">
        <ele>932.2</ele>
        <time>2015-05-17T08:14:15Z</time>
      </trkpt>
      <trkpt lat="45.43156" lon="5.67631">
        <ele>933.1</ele>
        <time>2015-05-17T08:14:17Z</time>
      </trkpt>
      <trkpt lat="45.4315" lon="5.67617">
        <ele>934.3</ele>
        <time>2015-05-17T08:14:19Z</time>
      </trkpt>
      <trkpt lat="45.43144" lon="5.67602">
        <ele>935.3</ele>
        <time>2015-05-17T08:14:21Z</time>
      </trkpt>
      <trkpt lat="45.4314" lon="5.67587">
        <ele>936.5</ele>
        <time>2015-05-17T08:14:23Z</time>
      </trkpt>
      <trkpt lat="45.43138" lon="5.67576">
        <ele>936.7</ele>
        <time>2015-05-17T08:14:25Z</time>
      </trkpt>
      <trkpt lat="45.43136" lon="5.67562">
        <ele>936.5</ele>
        <time>2015-05-17T08:14:27Z</time>
      </trkpt>
      <trkpt lat="45.43134" lon="5.67551">
        <ele>936.2</ele>
        <time>2015-05-17T08:14:29Z</time>
      </trkpt>
      <trkpt lat="45.43131" lon="5.67536">
        <ele>935.4</ele>
        <time>2015-05-17T08:14:32Z</time>
      </trkpt>
      <trkpt lat="45.43128" lon="5.67526">
        <ele>934.4</ele>
        <time>2015-05-17T08:14:34Z</time>
      </trkpt>
      <trkpt lat="45.43126" lon="5.67515">
        <ele>934.1</ele>
        <time>2015-05-17T08:14:36Z</time>
      </trkpt>
      <trkpt lat="45.43121" lon="5.67507">
        <ele>933.7</ele>
        <time>2015-05-17T08:14:38Z</time>
      </trkpt>
      <trkpt lat="45.43118" lon="5.67496">
        <ele>933.6</ele>
        <time>2015-05-17T08:14:40Z</time>
      </trkpt>
      <trkpt lat="45.43115" lon="5.67482">
        <ele>933.4</ele>
        <time>2015-05-17T08:14:42Z</time>
      </trkpt>
      <trkpt lat="45.43113" lon="5.67467">
        <ele>933.1</ele>
        <time>2015-05-17T08:14:44Z</time>
      </trkpt>
      <trkpt lat="45.43113" lon="5.67453">
        <ele>932.8</ele>
        <time>2015-05-17T08:14:46Z</time>
      </trkpt>
      <trkpt lat="45.4311" lon="5.6744">
        <ele>932.4</ele>
        <time>2015-05-17T08:14:48Z</time>
      </trkpt>
      <trkpt lat="45.43104" lon="5.6742">
        <ele>932.2</ele>
        <time>2015-05-17T08:14:50Z</time>
      </trkpt>
      <trkpt lat="45.43101" lon="5.67409">
        <ele>932.4</ele>
        <time>2015-05-17T08:14:51Z</time>
      </trkpt>
      <trkpt lat="45.43098" lon="5.67398">
        <ele>932.6</ele>
        <time>2015-05-17T08:14:52Z</time>
      </trkpt>
      <trkpt lat="45.43094" lon="5.67389">
        <ele>932.7</ele>
        <time>2015-05-17T08:14:53Z</time>
      </trkpt>
      <trkpt lat="45.4309" lon="5.67379">
        <ele>933.6</ele>
        <time>2015-05-17T08:14:54Z</time>
      </trkpt>
      <trkpt lat="45.43088" lon="5.67364">
        <ele>933.9</ele>
        <time>2015-05-17T08:14:55Z</time>
      </trkpt>
      <trkpt lat="45.43085" lon="5.67353">
        <ele>933.8</ele>
        <time>2015-05-17T08:14:56Z</time>
      </trkpt>
      <trkpt lat="45.4308" lon="5.67343">
        <ele>933.8</ele>
        <time>2015-05-17T08:14:57Z</time>
      </trkpt>
      <trkpt lat="45.43078" lon="5.67332">
        <ele>933.3</ele>
        <time>2015-05-17T08:14:58Z</time>
      </trkpt>
      <trkpt lat="45.43075" lon="5.67322">
        <ele>932.9</ele>
        <time>2015-05-17T08:14:59Z</time>
      </trkpt>
      <trkpt lat="45.43071" lon="5.67303">
        <ele>933.1</ele>
        <time>2015-05-17T08:15:01Z</time>
      </trkpt>
      <trkpt lat="45.43067" lon="5.67286">
        <ele>932.4</ele>
        <time>2015-05-17T08:15:03Z</time>
      </trkpt>
      <trkpt lat="45.43062" lon="5.67275">
        <ele>931.5</ele>
        <time>2015-05-17T08:15:05Z</time>
      </trkpt>
      <trkpt lat="45.43056" lon="5.67268">
        <ele>930.8</ele>
        <time>2015-05-17T08:15:07Z</time>
      </trkpt>
      <trkpt lat="45.43047" lon="5.67256">
        <ele>930.6</ele>
        <time>2015-05-17T08:15:09Z</time>
      </trkpt>
      <trkpt lat="45.43042" lon="5.67241">
        <ele>930.1</ele>
        <time>2015-05-17T08:15:11Z</time>
      </trkpt>
      <trkpt lat="45.43039" lon="5.67224">
        <ele>930</ele>
        <time>2015-05-17T08:15:13Z</time>
      </trkpt>
      <trkpt lat="45.43039" lon="5.67207">
        <ele>929.8</ele>
        <time>2015-05-17T08:15:15Z</time>
      </trkpt>
      <trkpt lat="45.43036" lon="5.67195">
        <ele>929.7</ele>
        <time>2015-05-17T08:15:17Z</time>
      </trkpt>
      <trkpt lat="45.43029" lon="5.67185">
        <ele>928.5</ele>
        <time>2015-05-17T08:15:19Z</time>
      </trkpt>
      <trkpt lat="45.43023" lon="5.67175">
        <ele>927.5</ele>
        <time>2015-05-17T08:15:21Z</time>
      </trkpt>
      <trkpt lat="45.43018" lon="5.67162">
        <ele>927</ele>
        <time>2015-05-17T08:15:23Z</time>
      </trkpt>
      <trkpt lat="45.43007" lon="5.67147">
        <ele>927.3</ele>
        <time>2015-05-17T08:15:25Z</time>
      </trkpt>
      <trkpt lat="45.43" lon="5.67141">
        <ele>927.8</ele>
        <time>2015-05-17T08:15:26Z</time>
      </trkpt>
      <trkpt lat="45.42994" lon="5.67134">
        <ele>927.8</ele>
        <time>2015-05-17T08:15:27Z</time>
      </trkpt>
      <trkpt lat="45.42987" lon="5.67128">
        <ele>927.6</ele>
        <time>2015-05-17T08:15:29Z</time>
      </trkpt>
      <trkpt lat="45.42979" lon="5.67122">
        <ele>925.4</ele>
        <time>2015-05-17T08:15:31Z</time>
      </trkpt>
      <trkpt lat="45.4297" lon="5.67111">
        <ele>923.8</ele>
        <time>2015-05-17T08:15:33Z</time>
      </trkpt>
      <trkpt lat="45.42961" lon="5.67102">
        <ele>923.6</ele>
        <time>2015-05-17T08:15:35Z</time>
      </trkpt>
      <trkpt lat="45.42951" lon="5.6709">
        <ele>923.6</ele>
        <time>2015-05-17T08:15:37Z</time>
      </trkpt>
      <trkpt lat="45.4294" lon="5.67076">
        <ele>922.9</ele>
        <time>2015-05-17T08:15:39Z</time>
      </trkpt>
      <trkpt lat="45.42935" lon="5.67066">
        <ele>922.3</ele>
        <time>2015-05-17T08:15:40Z</time>
      </trkpt>
      <trkpt lat="45.4293" lon="5.67056">
        <ele>921.6</ele>
        <time>2015-05-17T08:15:41Z</time>
      </trkpt>
      <trkpt lat="45.42926" lon="5.67043">
        <ele>920.8</ele>
        <time>2015-05-17T08:15:42Z</time>
      </trkpt>
      <trkpt lat="45.42923" lon="5.67032">
        <ele>920.2</ele>
        <time>2015-05-17T08:15:43Z</time>
      </trkpt>
      <trkpt lat="45.42915" lon="5.67017">
        <ele>919.9</ele>
        <time>2015-05-17T08:15:45Z</time>
      </trkpt>
      <trkpt lat="45.42909" lon="5.67003">
        <ele>917.6</ele>
        <time>2015-05-17T08:15:47Z</time>
      </trkpt>
      <trkpt lat="45.42903" lon="5.66993">
        <ele>916.2</ele>
        <time>2015-05-17T08:15:49Z</time>
      </trkpt>
      <trkpt lat="45.42899" lon="5.66982">
        <ele>915.2</ele>
        <time>2015-05-17T08:15:51Z</time>
      </trkpt>
      <trkpt lat="45.42895" lon="5.66971">
        <ele>915.2</ele>
        <time>2015-05-17T08:15:53Z</time>
      </trkpt>
      <trkpt lat="45.42891" lon="5.66959">
        <ele>915.1</ele>
        <time>2015-05-17T08:15:55Z</time>
      </trkpt>
      <trkpt lat="45.42889" lon="5.66947">
        <ele>914.8</ele>
        <time>2015-05-17T08:15:58Z</time>
      </trkpt>
      <trkpt lat="45.42887" lon="5.66937">
        <ele>914.9</ele>
        <time>2015-05-17T08:16:03Z</time>
      </trkpt>
      <trkpt lat="45.42882" lon="5.66924">
        <ele>915.5</ele>
        <time>2015-05-17T08:16:11Z</time>
      </trkpt>
      <trkpt lat="45.42879" lon="5.66908">
        <ele>916.5</ele>
        <time>2015-05-17T08:16:16Z</time>
      </trkpt>
      <trkpt lat="45.42877" lon="5.66897">
        <ele>917.2</ele>
        <time>2015-05-17T08:16:19Z</time>
      </trkpt>
      <trkpt lat="45.42878" lon="5.66886">
        <ele>918</ele>
        <time>2015-05-17T08:16:24Z</time>
      </trkpt>
      <trkpt lat="45.42873" lon="5.66875">
        <ele>918.6</ele>
        <time>2015-05-17T08:16:28Z</time>
      </trkpt>
      <trkpt lat="45.42867" lon="5.66866">
        <ele>919.4</ele>
        <time>2015-05-17T08:16:32Z</time>
      </trkpt>
      <trkpt lat="45.42864" lon="5.66855">
        <ele>920.2</ele>
        <time>2015-05-17T08:16:37Z</time>
      </trkpt>
      <trkpt lat="45.42857" lon="5.66847">
        <ele>920.9</ele>
        <time>2015-05-17T08:16:40Z</time>
      </trkpt>
      <trkpt lat="45.42853" lon="5.66831">
        <ele>921.6</ele>
        <time>2015-05-17T08:16:43Z</time>
      </trkpt>
      <trkpt lat="45.42848" lon="5.66821">
        <ele>922.3</ele>
        <time>2015-05-17T08:16:46Z</time>
      </trkpt>
      <trkpt lat="45.42841" lon="5.66815">
        <ele>922.9</ele>
        <time>2015-05-17T08:16:48Z</time>
      </trkpt>
      <trkpt lat="45.42838" lon="5.66802">
        <ele>923.6</ele>
        <time>2015-05-17T08:16:53Z</time>
      </trkpt>
      <trkpt lat="45.42834" lon="5.66793">
        <ele>924</ele>
        <time>2015-05-17T08:16:55Z</time>
      </trkpt>
      <trkpt lat="45.42829" lon="5.66782">
        <ele>924.3</ele>
        <time>2015-05-17T08:16:57Z</time>
      </trkpt>
      <trkpt lat="45.42821" lon="5.66775">
        <ele>924.8</ele>
        <time>2015-05-17T08:17:00Z</time>
      </trkpt>
      <trkpt lat="45.42816" lon="5.66766">
        <ele>925</ele>
        <time>2015-05-17T08:17:02Z</time>
      </trkpt>
      <trkpt lat="45.42813" lon="5.66751">
        <ele>925</ele>
        <time>2015-05-17T08:17:04Z</time>
      </trkpt>
      <trkpt lat="45.42808" lon="5.66742">
        <ele>925.1</ele>
        <time>2015-05-17T08:17:06Z</time>
      </trkpt>
      <trkpt lat="45.42802" lon="5.66729">
        <ele>925.4</ele>
        <time>2015-05-17T08:17:09Z</time>
      </trkpt>
      <trkpt lat="45.42797" lon="5.66719">
        <ele>925.6</ele>
        <time>2015-05-17T08:17:12Z</time>
      </trkpt>
      <trkpt lat="45.42795" lon="5.66706">
        <ele>926</ele>
        <time>2015-05-17T08:17:15Z</time>
      </trkpt>
      <trkpt lat="45.4279" lon="5.66696">
        <ele>926.7</ele>
        <time>2015-05-17T08:17:18Z</time>
      </trkpt>
      <trkpt lat="45.42789" lon="5.66685">
        <ele>927.3</ele>
        <time>2015-05-17T08:17:20Z</time>
      </trkpt>
      <trkpt lat="45.42786" lon="5.66674">
        <ele>928</ele>
        <time>2015-05-17T08:17:23Z</time>
      </trkpt>
      <trkpt lat="45.4278" lon="5.66667">
        <ele>928.5</ele>
        <time>2015-05-17T08:17:25Z</time>
      </trkpt>
      <trkpt lat="45.42774" lon="5.66658">
        <ele>929.8</ele>
        <time>2015-05-17T08:17:30Z</time>
      </trkpt>
      <trkpt lat="45.42767" lon="5.66648">
        <ele>930.5</ele>
        <time>2015-05-17T08:17:33Z</time>
      </trkpt>
      <trkpt lat="45.42761" lon="5.66639">
        <ele>930.9</ele>
        <time>2015-05-17T08:17:35Z</time>
      </trkpt>
      <trkpt lat="45.42754" lon="5.6663">
        <ele>931.3</ele>
        <time>2015-05-17T08:17:38Z</time>
      </trkpt>
      <trkpt lat="45.42748" lon="5.66621">
        <ele>931.5</ele>
        <time>2015-05-17T08:17:40Z</time>
      </trkpt>
      <trkpt lat="45.4274" lon="5.66611">
        <ele>932.1</ele>
        <time>2015-05-17T08:17:43Z</time>
      </trkpt>
      <trkpt lat="45.42735" lon="5.66602">
        <ele>932.5</ele>
        <time>2015-05-17T08:17:45Z</time>
      </trkpt>
      <trkpt lat="45.42729" lon="5.66587">
        <ele>932.9</ele>
        <time>2015-05-17T08:17:48Z</time>
      </trkpt>
      <trkpt lat="45.42725" lon="5.66575">
        <ele>933.3</ele>
        <time>2015-05-17T08:17:50Z</time>
      </trkpt>
      <trkpt lat="45.42721" lon="5.66559">
        <ele>936.7</ele>
        <time>2015-05-17T08:17:52Z</time>
      </trkpt>
      <trkpt lat="45.42718" lon="5.66544">
        <ele>937.8</ele>
        <time>2015-05-17T08:17:54Z</time>
      </trkpt>
      <trkpt lat="45.42716" lon="5.6653">
        <ele>937.8</ele>
        <time>2015-05-17T08:17:56Z</time>
      </trkpt>
      <trkpt lat="45.42713" lon="5.66517">
        <ele>937.8</ele>
        <time>2015-05-17T08:17:58Z</time>
      </trkpt>
      <trkpt lat="45.42709" lon="5.66505">
        <ele>937.6</ele>
        <time>2015-05-17T08:18:02Z</time>
      </trkpt>
      <trkpt lat="45.42705" lon="5.66495">
        <ele>937.4</ele>
        <time>2015-05-17T08:18:05Z</time>
      </trkpt>
      <trkpt lat="45.42699" lon="5.66483">
        <ele>937.4</ele>
        <time>2015-05-17T08:18:08Z</time>
      </trkpt>
      <trkpt lat="45.42694" lon="5.66472">
        <ele>937.4</ele>
        <time>2015-05-17T08:18:10Z</time>
      </trkpt>
      <trkpt lat="45.42687" lon="5.66463">
        <ele>937.1</ele>
        <time>2015-05-17T08:18:12Z</time>
      </trkpt>
      <trkpt lat="45.4268" lon="5.66454">
        <ele>936.8</ele>
        <time>2015-05-17T08:18:14Z</time>
      </trkpt>
      <trkpt lat="45.42675" lon="5.66446">
        <ele>936.6</ele>
        <time>2015-05-17T08:18:16Z</time>
      </trkpt>
      <trkpt lat="45.4267" lon="5.66438">
        <ele>936.4</ele>
        <time>2015-05-17T08:18:18Z</time>
      </trkpt>
      <trkpt lat="45.42665" lon="5.6643">
        <ele>935.2</ele>
        <time>2015-05-17T08:18:20Z</time>
      </trkpt>
      <trkpt lat="45.42659" lon="5.66421">
        <ele>934.3</ele>
        <time>2015-05-17T08:18:22Z</time>
      </trkpt>
      <trkpt lat="45.42653" lon="5.66413">
        <ele>933.1</ele>
        <time>2015-05-17T08:18:24Z</time>
      </trkpt>
      <trkpt lat="45.42647" lon="5.66402">
        <ele>933</ele>
        <time>2015-05-17T08:18:26Z</time>
      </trkpt>
      <trkpt lat="45.4264" lon="5.66392">
        <ele>932.8</ele>
        <time>2015-05-17T08:18:29Z</time>
      </trkpt>
      <trkpt lat="45.42632" lon="5.66382">
        <ele>932.8</ele>
        <time>2015-05-17T08:18:33Z</time>
      </trkpt>
      <trkpt lat="45.42627" lon="5.66373">
        <ele>933</ele>
        <time>2015-05-17T08:18:35Z</time>
      </trkpt>
      <trkpt lat="45.42622" lon="5.66365">
        <ele>933.2</ele>
        <time>2015-05-17T08:18:37Z</time>
      </trkpt>
      <trkpt lat="45.42617" lon="5.66353">
        <ele>933.4</ele>
        <time>2015-05-17T08:18:40Z</time>
      </trkpt>
      <trkpt lat="45.4261" lon="5.66345">
        <ele>933.9</ele>
        <time>2015-05-17T08:18:43Z</time>
      </trkpt>
      <trkpt lat="45.42605" lon="5.66338">
        <ele>934.3</ele>
        <time>2015-05-17T08:18:45Z</time>
      </trkpt>
      <trkpt lat="45.42601" lon="5.66327">
        <ele>935</ele>
        <time>2015-05-17T08:18:48Z</time>
      </trkpt>
      <trkpt lat="45.42597" lon="5.66315">
        <ele>935.6</ele>
        <time>2015-05-17T08:18:51Z</time>
      </trkpt>
      <trkpt lat="45.42594" lon="5.66304">
        <ele>936</ele>
        <time>2015-05-17T08:18:53Z</time>
      </trkpt>
      <trkpt lat="45.42584" lon="5.663">
        <ele>936.7</ele>
        <time>2015-05-17T08:18:57Z</time>
      </trkpt>
      <trkpt lat="45.42581" lon="5.66295">
        <ele>936.7</ele>
        <time>2015-05-17T08:19:04Z</time>
      </trkpt>
      <trkpt lat="45.42576" lon="5.66287">
        <ele>936.7</ele>
        <time>2015-05-17T08:19:05Z</time>
      </trkpt>
      <trkpt lat="45.42573" lon="5.66258">
        <ele>939.1</ele>
        <time>2015-05-17T08:19:24Z</time>
      </trkpt>
      <trkpt lat="45.42573" lon="5.66244">
        <ele>939.9</ele>
        <time>2015-05-17T08:19:31Z</time>
      </trkpt>
      <trkpt lat="45.42574" lon="5.66233">
        <ele>940.5</ele>
        <time>2015-05-17T08:19:35Z</time>
      </trkpt>
      <trkpt lat="45.42578" lon="5.66223">
        <ele>940.9</ele>
        <time>2015-05-17T08:19:38Z</time>
      </trkpt>
      <trkpt lat="45.42585" lon="5.66209">
        <ele>942.7</ele>
        <time>2015-05-17T08:19:48Z</time>
      </trkpt>
      <trkpt lat="45.42588" lon="5.66198">
        <ele>943.5</ele>
        <time>2015-05-17T08:19:52Z</time>
      </trkpt>
      <trkpt lat="45.42593" lon="5.66188">
        <ele>944.4</ele>
        <time>2015-05-17T08:19:56Z</time>
      </trkpt>
      <trkpt lat="45.426" lon="5.66176">
        <ele>945.5</ele>
        <time>2015-05-17T08:20:01Z</time>
      </trkpt>
      <trkpt lat="45.42605" lon="5.66169">
        <ele>946.2</ele>
        <time>2015-05-17T08:20:06Z</time>
      </trkpt>
      <trkpt lat="45.42606" lon="5.66167">
        <ele>946.8</ele>
        <time>2015-05-17T08:20:13Z</time>
      </trkpt>
      <trkpt lat="45.42611" lon="5.66153">
        <ele>947.3</ele>
        <time>2015-05-17T08:20:16Z</time>
      </trkpt>
      <trkpt lat="45.42615" lon="5.66144">
        <ele>947.7</ele>
        <time>2015-05-17T08:20:19Z</time>
      </trkpt>
      <trkpt lat="45.42621" lon="5.66129">
        <ele>949.3</ele>
        <time>2015-05-17T08:20:27Z</time>
      </trkpt>
      <trkpt lat="45.42623" lon="5.66118">
        <ele>950.4</ele>
        <time>2015-05-17T08:20:33Z</time>
      </trkpt>
      <trkpt lat="45.42625" lon="5.66113">
        <ele>950.6</ele>
        <time>2015-05-17T08:20:40Z</time>
      </trkpt>
      <trkpt lat="45.42627" lon="5.66111">
        <ele>950.4</ele>
        <time>2015-05-17T08:20:51Z</time>
      </trkpt>
      <trkpt lat="45.42628" lon="5.66097">
        <ele>953.9</ele>
        <time>2015-05-17T08:21:43Z</time>
      </trkpt>
      <trkpt lat="45.42621" lon="5.66086">
        <ele>954.3</ele>
        <time>2015-05-17T08:21:46Z</time>
      </trkpt>
      <trkpt lat="45.42614" lon="5.66075">
        <ele>954.4</ele>
        <time>2015-05-17T08:21:48Z</time>
      </trkpt>
      <trkpt lat="45.42611" lon="5.66066">
        <ele>954.4</ele>
        <time>2015-05-17T08:21:52Z</time>
      </trkpt>
      <trkpt lat="45.42607" lon="5.66055">
        <ele>954.2</ele>
        <time>2015-05-17T08:21:56Z</time>
      </trkpt>
      <trkpt lat="45.426" lon="5.66049">
        <ele>954</ele>
        <time>2015-05-17T08:22:00Z</time>
      </trkpt>
      <trkpt lat="45.42595" lon="5.66041">
        <ele>953.8</ele>
        <time>2015-05-17T08:22:03Z</time>
      </trkpt>
      <trkpt lat="45.42592" lon="5.66039">
        <ele>952.7</ele>
        <time>2015-05-17T08:22:10Z</time>
      </trkpt>
      <trkpt lat="45.42585" lon="5.66033">
        <ele>952.1</ele>
        <time>2015-05-17T08:22:15Z</time>
      </trkpt>
      <trkpt lat="45.42578" lon="5.66025">
        <ele>952</ele>
        <time>2015-05-17T08:22:19Z</time>
      </trkpt>
      <trkpt lat="45.42573" lon="5.66017">
        <ele>952</ele>
        <time>2015-05-17T08:22:24Z</time>
      </trkpt>
      <trkpt lat="45.42571" lon="5.66006">
        <ele>952.2</ele>
        <time>2015-05-17T08:22:27Z</time>
      </trkpt>
      <trkpt lat="45.42565" lon="5.66003">
        <ele>952.8</ele>
        <time>2015-05-17T08:22:34Z</time>
      </trkpt>
      <trkpt lat="45.42556" lon="5.65997">
        <ele>953.1</ele>
        <time>2015-05-17T08:22:37Z</time>
      </trkpt>
      <trkpt lat="45.42548" lon="5.65989">
        <ele>953.4</ele>
        <time>2015-05-17T08:22:42Z</time>
      </trkpt>
      <trkpt lat="45.4254" lon="5.6598">
        <ele>953.4</ele>
        <time>2015-05-17T08:22:45Z</time>
      </trkpt>
      <trkpt lat="45.42534" lon="5.65972">
        <ele>953.2</ele>
        <time>2015-05-17T08:22:47Z</time>
      </trkpt>
      <trkpt lat="45.42527" lon="5.65963">
        <ele>953.4</ele>
        <time>2015-05-17T08:22:50Z</time>
      </trkpt>
      <trkpt lat="45.42516" lon="5.65957">
        <ele>953</ele>
        <time>2015-05-17T08:22:53Z</time>
      </trkpt>
      <trkpt lat="45.42509" lon="5.65953">
        <ele>952.8</ele>
        <time>2015-05-17T08:22:55Z</time>
      </trkpt>
      <trkpt lat="45.42502" lon="5.65946">
        <ele>952.7</ele>
        <time>2015-05-17T08:22:57Z</time>
      </trkpt>
      <trkpt lat="45.42493" lon="5.65936">
        <ele>952.6</ele>
        <time>2015-05-17T08:23:00Z</time>
      </trkpt>
      <trkpt lat="45.42484" lon="5.65931">
        <ele>952.6</ele>
        <time>2015-05-17T08:23:03Z</time>
      </trkpt>
      <trkpt lat="45.42477" lon="5.65927">
        <ele>952.7</ele>
        <time>2015-05-17T08:23:05Z</time>
      </trkpt>
      <trkpt lat="45.42471" lon="5.65922">
        <ele>952.6</ele>
        <time>2015-05-17T08:23:07Z</time>
      </trkpt>
      <trkpt lat="45.42466" lon="5.65913">
        <ele>952.5</ele>
        <time>2015-05-17T08:23:09Z</time>
      </trkpt>
      <trkpt lat="45.42463" lon="5.65903">
        <ele>952.3</ele>
        <time>2015-05-17T08:23:11Z</time>
      </trkpt>
      <trkpt lat="45.42456" lon="5.65891">
        <ele>952</ele>
        <time>2015-05-17T08:23:14Z</time>
      </trkpt>
      <trkpt lat="45.42452" lon="5.65882">
        <ele>952.1</ele>
        <time>2015-05-17T08:23:20Z</time>
      </trkpt>
      <trkpt lat="45.42446" lon="5.65876">
        <ele>951.7</ele>
        <time>2015-05-17T08:23:27Z</time>
      </trkpt>
      <trkpt lat="45.42439" lon="5.65865">
        <ele>951.2</ele>
        <time>2015-05-17T08:23:32Z</time>
      </trkpt>
      <trkpt lat="45.42434" lon="5.65855">
        <ele>951.1</ele>
        <time>2015-05-17T08:23:36Z</time>
      </trkpt>
      <trkpt lat="45.42425" lon="5.65847">
        <ele>950.6</ele>
        <time>2015-05-17T08:23:41Z</time>
      </trkpt>
      <trkpt lat="45.4242" lon="5.65836">
        <ele>950.5</ele>
        <time>2015-05-17T08:23:44Z</time>
      </trkpt>
      <trkpt lat="45.42419" lon="5.65825">
        <ele>950.4</ele>
        <time>2015-05-17T08:23:46Z</time>
      </trkpt>
      <trkpt lat="45.42416" lon="5.65813">
        <ele>950</ele>
        <time>2015-05-17T08:23:50Z</time>
      </trkpt>
      <trkpt lat="45.42412" lon="5.65801">
        <ele>949.5</ele>
        <time>2015-05-17T08:23:54Z</time>
      </trkpt>
      <trkpt lat="45.42407" lon="5.65797">
        <ele>948.9</ele>
        <time>2015-05-17T08:24:01Z</time>
      </trkpt>
      <trkpt lat="45.42405" lon="5.65792">
        <ele>948.6</ele>
        <time>2015-05-17T08:24:08Z</time>
      </trkpt>
      <trkpt lat="45.42402" lon="5.65778">
        <ele>948.9</ele>
        <time>2015-05-17T08:24:15Z</time>
      </trkpt>
      <trkpt lat="45.42396" lon="5.6577">
        <ele>948.8</ele>
        <time>2015-05-17T08:24:18Z</time>
      </trkpt>
      <trkpt lat="45.42389" lon="5.65771">
        <ele>949</ele>
        <time>2015-05-17T08:24:25Z</time>
      </trkpt>
      <trkpt lat="45.42377" lon="5.65772">
        <ele>948.1</ele>
        <time>2015-05-17T08:24:28Z</time>
      </trkpt>
      <trkpt lat="45.42364" lon="5.65769">
        <ele>947</ele>
        <time>2015-05-17T08:24:30Z</time>
      </trkpt>
      <trkpt lat="45.42354" lon="5.65765">
        <ele>945.2</ele>
        <time>2015-05-17T08:24:32Z</time>
      </trkpt>
      <trkpt lat="45.42345" lon="5.65759">
        <ele>944.1</ele>
        <time>2015-05-17T08:24:34Z</time>
      </trkpt>
      <trkpt lat="45.42338" lon="5.65749">
        <ele>943.9</ele>
        <time>2015-05-17T08:24:37Z</time>
      </trkpt>
      <trkpt lat="45.42332" lon="5.65737">
        <ele>943.6</ele>
        <time>2015-05-17T08:24:40Z</time>
      </trkpt>
      <trkpt lat="45.42325" lon="5.65724">
        <ele>941</ele>
        <time>2015-05-17T08:24:42Z</time>
      </trkpt>
      <trkpt lat="45.42318" lon="5.65711">
        <ele>937.7</ele>
        <time>2015-05-17T08:24:44Z</time>
      </trkpt>
      <trkpt lat="45.42311" lon="5.65696">
        <ele>935.3</ele>
        <time>2015-05-17T08:24:46Z</time>
      </trkpt>
      <trkpt lat="45.42304" lon="5.65686">
        <ele>933.4</ele>
        <time>2015-05-17T08:24:48Z</time>
      </trkpt>
      <trkpt lat="45.42294" lon="5.65677">
        <ele>932.7</ele>
        <time>2015-05-17T08:24:50Z</time>
      </trkpt>
      <trkpt lat="45.42285" lon="5.6567">
        <ele>931.6</ele>
        <time>2015-05-17T08:24:52Z</time>
      </trkpt>
      <trkpt lat="45.42274" lon="5.65658">
        <ele>931.6</ele>
        <time>2015-05-17T08:24:54Z</time>
      </trkpt>
      <trkpt lat="45.42267" lon="5.65654">
        <ele>931.8</ele>
        <time>2015-05-17T08:24:55Z</time>
      </trkpt>
      <trkpt lat="45.42255" lon="5.65647">
        <ele>930.6</ele>
        <time>2015-05-17T08:24:57Z</time>
      </trkpt>
      <trkpt lat="45.42241" lon="5.65635">
        <ele>929.6</ele>
        <time>2015-05-17T08:24:59Z</time>
      </trkpt>
      <trkpt lat="45.42235" lon="5.65629">
        <ele>928.2</ele>
        <time>2015-05-17T08:25:00Z</time>
      </trkpt>
      <trkpt lat="45.42225" lon="5.65618">
        <ele>925</ele>
        <time>2015-05-17T08:25:02Z</time>
      </trkpt>
      <trkpt lat="45.42215" lon="5.65612">
        <ele>924.6</ele>
        <time>2015-05-17T08:25:04Z</time>
      </trkpt>
      <trkpt lat="45.42202" lon="5.65604">
        <ele>920.2</ele>
        <time>2015-05-17T08:25:06Z</time>
      </trkpt>
      <trkpt lat="45.42191" lon="5.65594">
        <ele>917.1</ele>
        <time>2015-05-17T08:25:08Z</time>
      </trkpt>
      <trkpt lat="45.42181" lon="5.65585">
        <ele>914.5</ele>
        <time>2015-05-17T08:25:10Z</time>
      </trkpt>
      <trkpt lat="45.42176" lon="5.65575">
        <ele>913.9</ele>
        <time>2015-05-17T08:25:13Z</time>
      </trkpt>
      <trkpt lat="45.42173" lon="5.65564">
        <ele>913.7</ele>
        <time>2015-05-17T08:25:15Z</time>
      </trkpt>
      <trkpt lat="45.42167" lon="5.65553">
        <ele>913.5</ele>
        <time>2015-05-17T08:25:18Z</time>
      </trkpt>
      <trkpt lat="45.42163" lon="5.65543">
        <ele>913.3</ele>
        <time>2015-05-17T08:25:21Z</time>
      </trkpt>
      <trkpt lat="45.42164" lon="5.6553">
        <ele>913.2</ele>
        <time>2015-05-17T08:25:24Z</time>
      </trkpt>
      <trkpt lat="45.42163" lon="5.65513">
        <ele>911.4</ele>
        <time>2015-05-17T08:25:27Z</time>
      </trkpt>
      <trkpt lat="45.42164" lon="5.65499">
        <ele>911.2</ele>
        <time>2015-05-17T08:25:29Z</time>
      </trkpt>
      <trkpt lat="45.42166" lon="5.65487">
        <ele>910.3</ele>
        <time>2015-05-17T08:25:31Z</time>
      </trkpt>
      <trkpt lat="45.42171" lon="5.65477">
        <ele>910.3</ele>
        <time>2015-05-17T08:25:33Z</time>
      </trkpt>
      <trkpt lat="45.42175" lon="5.65466">
        <ele>909.9</ele>
        <time>2015-05-17T08:25:36Z</time>
      </trkpt>
      <trkpt lat="45.42177" lon="5.65454">
        <ele>909</ele>
        <time>2015-05-17T08:25:38Z</time>
      </trkpt>
      <trkpt lat="45.42178" lon="5.6544">
        <ele>908.5</ele>
        <time>2015-05-17T08:25:41Z</time>
      </trkpt>
      <trkpt lat="45.42176" lon="5.65426">
        <ele>907.9</ele>
        <time>2015-05-17T08:25:43Z</time>
      </trkpt>
      <trkpt lat="45.42174" lon="5.65415">
        <ele>907.8</ele>
        <time>2015-05-17T08:25:45Z</time>
      </trkpt>
      <trkpt lat="45.42173" lon="5.65399">
        <ele>907.5</ele>
        <time>2015-05-17T08:25:49Z</time>
      </trkpt>
      <trkpt lat="45.42179" lon="5.65388">
        <ele>907.1</ele>
        <time>2015-05-17T08:25:53Z</time>
      </trkpt>
      <trkpt lat="45.42189" lon="5.65389">
        <ele>906.9</ele>
        <time>2015-05-17T08:25:56Z</time>
      </trkpt>
      <trkpt lat="45.42199" lon="5.65388">
        <ele>906.8</ele>
        <time>2015-05-17T08:25:59Z</time>
      </trkpt>
      <trkpt lat="45.42206" lon="5.65379">
        <ele>906.8</ele>
        <time>2015-05-17T08:26:03Z</time>
      </trkpt>
      <trkpt lat="45.42207" lon="5.65368">
        <ele>906.6</ele>
        <time>2015-05-17T08:26:05Z</time>
      </trkpt>
      <trkpt lat="45.4221" lon="5.65351">
        <ele>905.6</ele>
        <time>2015-05-17T08:26:07Z</time>
      </trkpt>
      <trkpt lat="45.42211" lon="5.65334">
        <ele>904.3</ele>
        <time>2015-05-17T08:26:09Z</time>
      </trkpt>
      <trkpt lat="45.42214" lon="5.65322">
        <ele>902.6</ele>
        <time>2015-05-17T08:26:11Z</time>
      </trkpt>
      <trkpt lat="45.42216" lon="5.65309">
        <ele>902.2</ele>
        <time>2015-05-17T08:26:14Z</time>
      </trkpt>
      <trkpt lat="45.42217" lon="5.65296">
        <ele>901.9</ele>
        <time>2015-05-17T08:26:18Z</time>
      </trkpt>
      <trkpt lat="45.42217" lon="5.65285">
        <ele>901.8</ele>
        <time>2015-05-17T08:26:21Z</time>
      </trkpt>
      <trkpt lat="45.42217" lon="5.65272">
        <ele>901.8</ele>
        <time>2015-05-17T08:26:25Z</time>
      </trkpt>
      <trkpt lat="45.42217" lon="5.65258">
        <ele>901.9</ele>
        <time>2015-05-17T08:26:29Z</time>
      </trkpt>
      <trkpt lat="45.42215" lon="5.65248">
        <ele>901.9</ele>
        <time>2015-05-17T08:26:33Z</time>
      </trkpt>
      <trkpt lat="45.42213" lon="5.65237">
        <ele>902.1</ele>
        <time>2015-05-17T08:26:37Z</time>
      </trkpt>
      <trkpt lat="45.42214" lon="5.65226">
        <ele>902.5</ele>
        <time>2015-05-17T08:26:41Z</time>
      </trkpt>
      <trkpt lat="45.42213" lon="5.65218">
        <ele>903.8</ele>
        <time>2015-05-17T08:26:48Z</time>
      </trkpt>
      <trkpt lat="45.42208" lon="5.65207">
        <ele>905</ele>
        <time>2015-05-17T08:26:54Z</time>
      </trkpt>
      <trkpt lat="45.42207" lon="5.65195">
        <ele>906.4</ele>
        <time>2015-05-17T08:27:00Z</time>
      </trkpt>
      <trkpt lat="45.42208" lon="5.65184">
        <ele>907.6</ele>
        <time>2015-05-17T08:27:04Z</time>
      </trkpt>
      <trkpt lat="45.422" lon="5.65163">
        <ele>911.9</ele>
        <time>2015-05-17T08:27:26Z</time>
      </trkpt>
      <trkpt lat="45.42197" lon="5.65157">
        <ele>912.4</ele>
        <time>2015-05-17T08:27:33Z</time>
      </trkpt>
      <trkpt lat="45.42189" lon="5.65151">
        <ele>912.4</ele>
        <time>2015-05-17T08:27:38Z</time>
      </trkpt>
      <trkpt lat="45.42184" lon="5.65148">
        <ele>912.9</ele>
        <time>2015-05-17T08:27:45Z</time>
      </trkpt>
      <trkpt lat="45.42177" lon="5.65132">
        <ele>913.3</ele>
        <time>2015-05-17T08:27:50Z</time>
      </trkpt>
      <trkpt lat="45.42174" lon="5.65121">
        <ele>913.8</ele>
        <time>2015-05-17T08:27:53Z</time>
      </trkpt>
      <trkpt lat="45.42173" lon="5.65111">
        <ele>914.1</ele>
        <time>2015-05-17T08:27:56Z</time>
      </trkpt>
      <trkpt lat="45.42174" lon="5.65098">
        <ele>914.5</ele>
        <time>2015-05-17T08:27:59Z</time>
      </trkpt>
      <trkpt lat="45.42177" lon="5.65086">
        <ele>915</ele>
        <time>2015-05-17T08:28:02Z</time>
      </trkpt>
      <trkpt lat="45.42181" lon="5.65072">
        <ele>915.6</ele>
        <time>2015-05-17T08:28:05Z</time>
      </trkpt>
      <trkpt lat="45.42181" lon="5.65062">
        <ele>916.1</ele>
        <time>2015-05-17T08:28:07Z</time>
      </trkpt>
      <trkpt lat="45.42183" lon="5.6505">
        <ele>916.9</ele>
        <time>2015-05-17T08:28:10Z</time>
      </trkpt>
      <trkpt lat="45.42183" lon="5.65036">
        <ele>917.7</ele>
        <time>2015-05-17T08:28:14Z</time>
      </trkpt>
      <trkpt lat="45.42183" lon="5.65025">
        <ele>917.9</ele>
        <time>2015-05-17T08:28:16Z</time>
      </trkpt>
      <trkpt lat="45.4218" lon="5.65012">
        <ele>918.3</ele>
        <time>2015-05-17T08:28:19Z</time>
      </trkpt>
      <trkpt lat="45.42179" lon="5.65001">
        <ele>918.4</ele>
        <time>2015-05-17T08:28:21Z</time>
      </trkpt>
      <trkpt lat="45.4218" lon="5.6499">
        <ele>918.3</ele>
        <time>2015-05-17T08:28:23Z</time>
      </trkpt>
      <trkpt lat="45.42181" lon="5.64975">
        <ele>918.4</ele>
        <time>2015-05-17T08:28:25Z</time>
      </trkpt>
      <trkpt lat="45.42186" lon="5.64962">
        <ele>918.4</ele>
        <time>2015-05-17T08:28:28Z</time>
      </trkpt>
      <trkpt lat="45.42188" lon="5.64949">
        <ele>918.4</ele>
        <time>2015-05-17T08:28:31Z</time>
      </trkpt>
      <trkpt lat="45.42188" lon="5.64933">
        <ele>918.6</ele>
        <time>2015-05-17T08:28:35Z</time>
      </trkpt>
      <trkpt lat="45.42186" lon="5.64921">
        <ele>919.1</ele>
        <time>2015-05-17T08:28:39Z</time>
      </trkpt>
      <trkpt lat="45.42183" lon="5.6491">
        <ele>919.4</ele>
        <time>2015-05-17T08:28:41Z</time>
      </trkpt>
      <trkpt lat="45.42181" lon="5.64896">
        <ele>919.7</ele>
        <time>2015-05-17T08:28:44Z</time>
      </trkpt>
      <trkpt lat="45.4218" lon="5.64883">
        <ele>919.9</ele>
        <time>2015-05-17T08:28:46Z</time>
      </trkpt>
      <trkpt lat="45.42182" lon="5.6487">
        <ele>920</ele>
        <time>2015-05-17T08:28:49Z</time>
      </trkpt>
      <trkpt lat="45.42182" lon="5.64856">
        <ele>919.7</ele>
        <time>2015-05-17T08:28:52Z</time>
      </trkpt>
      <trkpt lat="45.4218" lon="5.64844">
        <ele>919.6</ele>
        <time>2015-05-17T08:28:54Z</time>
      </trkpt>
      <trkpt lat="45.4218" lon="5.64829">
        <ele>919.4</ele>
        <time>2015-05-17T08:28:56Z</time>
      </trkpt>
      <trkpt lat="45.42179" lon="5.64817">
        <ele>919.1</ele>
        <time>2015-05-17T08:28:58Z</time>
      </trkpt>
      <trkpt lat="45.42176" lon="5.64805">
        <ele>918.5</ele>
        <time>2015-05-17T08:29:01Z</time>
      </trkpt>
      <trkpt lat="45.42166" lon="5.64804">
        <ele>916</ele>
        <time>2015-05-17T08:29:06Z</time>
      </trkpt>
      <trkpt lat="45.42157" lon="5.64812">
        <ele>915.7</ele>
        <time>2015-05-17T08:29:09Z</time>
      </trkpt>
      <trkpt lat="45.42149" lon="5.64825">
        <ele>915</ele>
        <time>2015-05-17T08:29:12Z</time>
      </trkpt>
      <trkpt lat="45.42137" lon="5.64834">
        <ele>911.7</ele>
        <time>2015-05-17T08:29:14Z</time>
      </trkpt>
      <trkpt lat="45.4213" lon="5.64839">
        <ele>910.2</ele>
        <time>2015-05-17T08:29:15Z</time>
      </trkpt>
      <trkpt lat="45.42116" lon="5.64847">
        <ele>906.2</ele>
        <time>2015-05-17T08:29:17Z</time>
      </trkpt>
      <trkpt lat="45.42108" lon="5.64851">
        <ele>904.3</ele>
        <time>2015-05-17T08:29:18Z</time>
      </trkpt>
      <trkpt lat="45.42095" lon="5.64857">
        <ele>900.7</ele>
        <time>2015-05-17T08:29:20Z</time>
      </trkpt>
      <trkpt lat="45.42088" lon="5.6486">
        <ele>899.1</ele>
        <time>2015-05-17T08:29:21Z</time>
      </trkpt>
      <trkpt lat="45.4208" lon="5.64863">
        <ele>897.7</ele>
        <time>2015-05-17T08:29:22Z</time>
      </trkpt>
      <trkpt lat="45.42066" lon="5.64869">
        <ele>894.8</ele>
        <time>2015-05-17T08:29:24Z</time>
      </trkpt>
      <trkpt lat="45.42059" lon="5.64873">
        <ele>893.5</ele>
        <time>2015-05-17T08:29:25Z</time>
      </trkpt>
      <trkpt lat="45.42052" lon="5.64878">
        <ele>892.2</ele>
        <time>2015-05-17T08:29:26Z</time>
      </trkpt>
      <trkpt lat="45.42045" lon="5.64883">
        <ele>891.1</ele>
        <time>2015-05-17T08:29:27Z</time>
      </trkpt>
      <trkpt lat="45.42034" lon="5.64893">
        <ele>890.1</ele>
        <time>2015-05-17T08:29:29Z</time>
      </trkpt>
      <trkpt lat="45.42022" lon="5.64903">
        <ele>889.7</ele>
        <time>2015-05-17T08:29:31Z</time>
      </trkpt>
      <trkpt lat="45.4201" lon="5.6491">
        <ele>889.6</ele>
        <time>2015-05-17T08:29:33Z</time>
      </trkpt>
      <trkpt lat="45.41997" lon="5.64916">
        <ele>889.6</ele>
        <time>2015-05-17T08:29:35Z</time>
      </trkpt>
      <trkpt lat="45.4199" lon="5.64918">
        <ele>889.5</ele>
        <time>2015-05-17T08:29:36Z</time>
      </trkpt>
      <trkpt lat="45.41981" lon="5.6492">
        <ele>889.3</ele>
        <time>2015-05-17T08:29:37Z</time>
      </trkpt>
      <trkpt lat="45.41974" lon="5.64922">
        <ele>888.7</ele>
        <time>2015-05-17T08:29:38Z</time>
      </trkpt>
      <trkpt lat="45.4196" lon="5.64924">
        <ele>888.2</ele>
        <time>2015-05-17T08:29:40Z</time>
      </trkpt>
      <trkpt lat="45.41952" lon="5.64925">
        <ele>888</ele>
        <time>2015-05-17T08:29:41Z</time>
      </trkpt>
      <trkpt lat="45.41944" lon="5.64925">
        <ele>888.3</ele>
        <time>2015-05-17T08:29:42Z</time>
      </trkpt>
      <trkpt lat="45.41933" lon="5.64925">
        <ele>888.3</ele>
        <time>2015-05-17T08:29:43Z</time>
      </trkpt>
      <trkpt lat="45.41922" lon="5.64924">
        <ele>887.7</ele>
        <time>2015-05-17T08:29:44Z</time>
      </trkpt>
      <trkpt lat="45.41911" lon="5.64924">
        <ele>887</ele>
        <time>2015-05-17T08:29:45Z</time>
      </trkpt>
      <trkpt lat="45.419" lon="5.64927">
        <ele>885.5</ele>
        <time>2015-05-17T08:29:46Z</time>
      </trkpt>
      <trkpt lat="45.41889" lon="5.64932">
        <ele>883.8</ele>
        <time>2015-05-17T08:29:47Z</time>
      </trkpt>
      <trkpt lat="45.41878" lon="5.64937">
        <ele>882.1</ele>
        <time>2015-05-17T08:29:48Z</time>
      </trkpt>
      <trkpt lat="45.41868" lon="5.64943">
        <ele>880.5</ele>
        <time>2015-05-17T08:29:49Z</time>
      </trkpt>
      <trkpt lat="45.4186" lon="5.64949">
        <ele>878.7</ele>
        <time>2015-05-17T08:29:50Z</time>
      </trkpt>
      <trkpt lat="45.41851" lon="5.64955">
        <ele>877.3</ele>
        <time>2015-05-17T08:29:51Z</time>
      </trkpt>
      <trkpt lat="45.41841" lon="5.64957">
        <ele>876.3</ele>
        <time>2015-05-17T08:29:52Z</time>
      </trkpt>
      <trkpt lat="45.41832" lon="5.64959">
        <ele>875.8</ele>
        <time>2015-05-17T08:29:53Z</time>
      </trkpt>
      <trkpt lat="45.41823" lon="5.64959">
        <ele>875.9</ele>
        <time>2015-05-17T08:29:54Z</time>
      </trkpt>
      <trkpt lat="45.41815" lon="5.64959">
        <ele>875.9</ele>
        <time>2015-05-17T08:29:55Z</time>
      </trkpt>
      <trkpt lat="45.41807" lon="5.64959">
        <ele>876.2</ele>
        <time>2015-05-17T08:29:56Z</time>
      </trkpt>
      <trkpt lat="45.41799" lon="5.64959">
        <ele>876.7</ele>
        <time>2015-05-17T08:29:57Z</time>
      </trkpt>
      <trkpt lat="45.4179" lon="5.64959">
        <ele>877</ele>
        <time>2015-05-17T08:29:59Z</time>
      </trkpt>
      <trkpt lat="45.41782" lon="5.64959">
        <ele>877</ele>
        <time>2015-05-17T08:30:01Z</time>
      </trkpt>
      <trkpt lat="45.41784" lon="5.64948">
        <ele>877</ele>
        <time>2015-05-17T08:30:08Z</time>
      </trkpt>
      <trkpt lat="45.41792" lon="5.6494">
        <ele>877.2</ele>
        <time>2015-05-17T08:30:11Z</time>
      </trkpt>
      <trkpt lat="45.41798" lon="5.64933">
        <ele>877.5</ele>
        <time>2015-05-17T08:30:14Z</time>
      </trkpt>
      <trkpt lat="45.41805" lon="5.64924">
        <ele>877.8</ele>
        <time>2015-05-17T08:30:17Z</time>
      </trkpt>
      <trkpt lat="45.4181" lon="5.64914">
        <ele>878.2</ele>
        <time>2015-05-17T08:30:19Z</time>
      </trkpt>
      <trkpt lat="45.41812" lon="5.64904">
        <ele>878.8</ele>
        <time>2015-05-17T08:30:22Z</time>
      </trkpt>
      <trkpt lat="45.41814" lon="5.64891">
        <ele>879.5</ele>
        <time>2015-05-17T08:30:25Z</time>
      </trkpt>
      <trkpt lat="45.41813" lon="5.64876">
        <ele>880</ele>
        <time>2015-05-17T08:30:28Z</time>
      </trkpt>
      <trkpt lat="45.41812" lon="5.64866">
        <ele>880.1</ele>
        <time>2015-05-17T08:30:31Z</time>
      </trkpt>
      <trkpt lat="45.41812" lon="5.64854">
        <ele>880.2</ele>
        <time>2015-05-17T08:30:34Z</time>
      </trkpt>
      <trkpt lat="45.4181" lon="5.64842">
        <ele>880.6</ele>
        <time>2015-05-17T08:30:38Z</time>
      </trkpt>
      <trkpt lat="45.41808" lon="5.64831">
        <ele>881.2</ele>
        <time>2015-05-17T08:30:43Z</time>
      </trkpt>
      <trkpt lat="45.41807" lon="5.64821">
        <ele>881.6</ele>
        <time>2015-05-17T08:30:47Z</time>
      </trkpt>
      <trkpt lat="45.41807" lon="5.6481">
        <ele>882.1</ele>
        <time>2015-05-17T08:30:51Z</time>
      </trkpt>
      <trkpt lat="45.41805" lon="5.64803">
        <ele>882.6</ele>
        <time>2015-05-17T08:30:58Z</time>
      </trkpt>
      <trkpt lat="45.41801" lon="5.64794">
        <ele>884.6</ele>
        <time>2015-05-17T08:35:04Z</time>
      </trkpt>
      <trkpt lat="45.418" lon="5.64782">
        <ele>885.2</ele>
        <time>2015-05-17T08:35:08Z</time>
      </trkpt>
      <trkpt lat="45.41801" lon="5.64769">
        <ele>885.7</ele>
        <time>2015-05-17T08:35:12Z</time>
      </trkpt>
      <trkpt lat="45.418" lon="5.64758">
        <ele>886.1</ele>
        <time>2015-05-17T08:35:15Z</time>
      </trkpt>
      <trkpt lat="45.41797" lon="5.64746">
        <ele>886.6</ele>
        <time>2015-05-17T08:35:19Z</time>
      </trkpt>
      <trkpt lat="45.41794" lon="5.64736">
        <ele>887</ele>
        <time>2015-05-17T08:35:23Z</time>
      </trkpt>
      <trkpt lat="45.41793" lon="5.64725">
        <ele>887.3</ele>
        <time>2015-05-17T08:35:26Z</time>
      </trkpt>
      <trkpt lat="45.41792" lon="5.64714">
        <ele>887.6</ele>
        <time>2015-05-17T08:35:30Z</time>
      </trkpt>
      <trkpt lat="45.41791" lon="5.64701">
        <ele>887.9</ele>
        <time>2015-05-17T08:35:34Z</time>
      </trkpt>
      <trkpt lat="45.4179" lon="5.64688">
        <ele>888.3</ele>
        <time>2015-05-17T08:35:38Z</time>
      </trkpt>
      <trkpt lat="45.41789" lon="5.64676">
        <ele>888.6</ele>
        <time>2015-05-17T08:35:42Z</time>
      </trkpt>
      <trkpt lat="45.41789" lon="5.64666">
        <ele>888.9</ele>
        <time>2015-05-17T08:35:46Z</time>
      </trkpt>
      <trkpt lat="45.4179" lon="5.64654">
        <ele>889.3</ele>
        <time>2015-05-17T08:35:51Z</time>
      </trkpt>
      <trkpt lat="45.41786" lon="5.64648">
        <ele>889.8</ele>
        <time>2015-05-17T08:35:58Z</time>
      </trkpt>
      <trkpt lat="45.41783" lon="5.64637">
        <ele>891.1</ele>
        <time>2015-05-17T08:36:05Z</time>
      </trkpt>
      <trkpt lat="45.41781" lon="5.64627">
        <ele>892.2</ele>
        <time>2015-05-17T08:36:09Z</time>
      </trkpt>
      <trkpt lat="45.41778" lon="5.64617">
        <ele>892.7</ele>
        <time>2015-05-17T08:36:13Z</time>
      </trkpt>
      <trkpt lat="45.41776" lon="5.64606">
        <ele>893.7</ele>
        <time>2015-05-17T08:36:18Z</time>
      </trkpt>
      <trkpt lat="45.41775" lon="5.64595">
        <ele>894.9</ele>
        <time>2015-05-17T08:36:24Z</time>
      </trkpt>
      <trkpt lat="45.41772" lon="5.64584">
        <ele>895.9</ele>
        <time>2015-05-17T08:36:29Z</time>
      </trkpt>
      <trkpt lat="45.4177" lon="5.64574">
        <ele>897.2</ele>
        <time>2015-05-17T08:36:35Z</time>
      </trkpt>
      <trkpt lat="45.41769" lon="5.64563">
        <ele>898.6</ele>
        <time>2015-05-17T08:36:41Z</time>
      </trkpt>
      <trkpt lat="45.41769" lon="5.64552">
        <ele>899.8</ele>
        <time>2015-05-17T08:36:46Z</time>
      </trkpt>
      <trkpt lat="45.41771" lon="5.64542">
        <ele>901</ele>
        <time>2015-05-17T08:36:52Z</time>
      </trkpt>
      <trkpt lat="45.41774" lon="5.64532">
        <ele>902</ele>
        <time>2015-05-17T08:36:58Z</time>
      </trkpt>
      <trkpt lat="45.41776" lon="5.64527">
        <ele>903.1</ele>
        <time>2015-05-17T08:37:05Z</time>
      </trkpt>
      <trkpt lat="45.41778" lon="5.64516">
        <ele>904.7</ele>
        <time>2015-05-17T08:37:12Z</time>
      </trkpt>
      <trkpt lat="45.41777" lon="5.64507">
        <ele>907</ele>
        <time>2015-05-17T08:37:19Z</time>
      </trkpt>
      <trkpt lat="45.41778" lon="5.64499">
        <ele>909.2</ele>
        <time>2015-05-17T08:37:26Z</time>
      </trkpt>
      <trkpt lat="45.41783" lon="5.64491">
        <ele>910.8</ele>
        <time>2015-05-17T08:37:31Z</time>
      </trkpt>
      <trkpt lat="45.41783" lon="5.64483">
        <ele>912.4</ele>
        <time>2015-05-17T08:37:38Z</time>
      </trkpt>
      <trkpt lat="45.41785" lon="5.64472">
        <ele>913.4</ele>
        <time>2015-05-17T08:37:52Z</time>
      </trkpt>
      <trkpt lat="45.41786" lon="5.64466">
        <ele>914.2</ele>
        <time>2015-05-17T08:37:59Z</time>
      </trkpt>
      <trkpt lat="45.41788" lon="5.64455">
        <ele>915.3</ele>
        <time>2015-05-17T08:38:05Z</time>
      </trkpt>
      <trkpt lat="45.41789" lon="5.64446">
        <ele>916.5</ele>
        <time>2015-05-17T08:38:12Z</time>
      </trkpt>
      <trkpt lat="45.4179" lon="5.64435">
        <ele>917.7</ele>
        <time>2015-05-17T08:38:18Z</time>
      </trkpt>
      <trkpt lat="45.41792" lon="5.64431">
        <ele>919.1</ele>
        <time>2015-05-17T08:38:25Z</time>
      </trkpt>
      <trkpt lat="45.41793" lon="5.64427">
        <ele>920.5</ele>
        <time>2015-05-17T08:38:32Z</time>
      </trkpt>
      <trkpt lat="45.41796" lon="5.64422">
        <ele>922.7</ele>
        <time>2015-05-17T08:38:45Z</time>
      </trkpt>
      <trkpt lat="45.41798" lon="5.64409">
        <ele>924.8</ele>
        <time>2015-05-17T08:38:51Z</time>
      </trkpt>
      <trkpt lat="45.41802" lon="5.644">
        <ele>927.3</ele>
        <time>2015-05-17T08:38:58Z</time>
      </trkpt>
      <trkpt lat="45.41804" lon="5.64389">
        <ele>928.4</ele>
        <time>2015-05-17T08:39:03Z</time>
      </trkpt>
      <trkpt lat="45.41805" lon="5.64378">
        <ele>929.1</ele>
        <time>2015-05-17T08:39:07Z</time>
      </trkpt>
      <trkpt lat="45.41807" lon="5.64364">
        <ele>929.9</ele>
        <time>2015-05-17T08:39:12Z</time>
      </trkpt>
      <trkpt lat="45.4181" lon="5.64354">
        <ele>930.7</ele>
        <time>2015-05-17T08:39:17Z</time>
      </trkpt>
      <trkpt lat="45.41813" lon="5.6434">
        <ele>932</ele>
        <time>2015-05-17T08:39:24Z</time>
      </trkpt>
      <trkpt lat="45.41815" lon="5.64329">
        <ele>932.6</ele>
        <time>2015-05-17T08:39:27Z</time>
      </trkpt>
      <trkpt lat="45.41819" lon="5.64319">
        <ele>933.8</ele>
        <time>2015-05-17T08:39:31Z</time>
      </trkpt>
      <trkpt lat="45.41823" lon="5.64308">
        <ele>934.9</ele>
        <time>2015-05-17T08:39:36Z</time>
      </trkpt>
      <trkpt lat="45.41829" lon="5.64298">
        <ele>935.7</ele>
        <time>2015-05-17T08:39:40Z</time>
      </trkpt>
      <trkpt lat="45.41831" lon="5.64286">
        <ele>936.8</ele>
        <time>2015-05-17T08:39:44Z</time>
      </trkpt>
      <trkpt lat="45.41834" lon="5.64275">
        <ele>937.8</ele>
        <time>2015-05-17T08:39:48Z</time>
      </trkpt>
      <trkpt lat="45.41837" lon="5.64263">
        <ele>938.8</ele>
        <time>2015-05-17T08:39:52Z</time>
      </trkpt>
      <trkpt lat="45.41839" lon="5.6425">
        <ele>939.9</ele>
        <time>2015-05-17T08:39:56Z</time>
      </trkpt>
      <trkpt lat="45.4184" lon="5.64239">
        <ele>941.3</ele>
        <time>2015-05-17T08:40:02Z</time>
      </trkpt>
      <trkpt lat="45.41842" lon="5.64228">
        <ele>942.2</ele>
        <time>2015-05-17T08:40:06Z</time>
      </trkpt>
      <trkpt lat="45.41845" lon="5.64218">
        <ele>944</ele>
        <time>2015-05-17T08:40:13Z</time>
      </trkpt>
      <trkpt lat="45.41847" lon="5.64208">
        <ele>945.1</ele>
        <time>2015-05-17T08:40:18Z</time>
      </trkpt>
      <trkpt lat="45.41848" lon="5.64195">
        <ele>946.4</ele>
        <time>2015-05-17T08:40:24Z</time>
      </trkpt>
      <trkpt lat="45.41849" lon="5.64185">
        <ele>948.1</ele>
        <time>2015-05-17T08:40:31Z</time>
      </trkpt>
      <trkpt lat="45.4185" lon="5.64174">
        <ele>949</ele>
        <time>2015-05-17T08:40:38Z</time>
      </trkpt>
      <trkpt lat="45.41852" lon="5.64161">
        <ele>949.4</ele>
        <time>2015-05-17T08:40:43Z</time>
      </trkpt>
      <trkpt lat="45.41849" lon="5.64151">
        <ele>950.1</ele>
        <time>2015-05-17T08:40:49Z</time>
      </trkpt>
      <trkpt lat="45.41852" lon="5.64133">
        <ele>950.6</ele>
        <time>2015-05-17T08:40:52Z</time>
      </trkpt>
      <trkpt lat="45.41853" lon="5.64122">
        <ele>950.9</ele>
        <time>2015-05-17T08:40:55Z</time>
      </trkpt>
      <trkpt lat="45.41853" lon="5.6411">
        <ele>951.2</ele>
        <time>2015-05-17T08:40:58Z</time>
      </trkpt>
      <trkpt lat="45.41852" lon="5.64098">
        <ele>951.7</ele>
        <time>2015-05-17T08:41:04Z</time>
      </trkpt>
      <trkpt lat="45.41852" lon="5.64088">
        <ele>952.1</ele>
        <time>2015-05-17T08:41:08Z</time>
      </trkpt>
      <trkpt lat="45.41847" lon="5.64075">
        <ele>953.3</ele>
        <time>2015-05-17T08:41:14Z</time>
      </trkpt>
      <trkpt lat="45.41846" lon="5.64065">
        <ele>954.2</ele>
        <time>2015-05-17T08:41:18Z</time>
      </trkpt>
      <trkpt lat="45.41844" lon="5.64054">
        <ele>954.7</ele>
        <time>2015-05-17T08:41:21Z</time>
      </trkpt>
      <trkpt lat="45.41843" lon="5.64042">
        <ele>955.1</ele>
        <time>2015-05-17T08:41:25Z</time>
      </trkpt>
      <trkpt lat="45.41845" lon="5.64037">
        <ele>955.2</ele>
        <time>2015-05-17T08:41:31Z</time>
      </trkpt>
      <trkpt lat="45.41848" lon="5.64034">
        <ele>955</ele>
        <time>2015-05-17T08:41:38Z</time>
      </trkpt>
      <trkpt lat="45.41852" lon="5.64036">
        <ele>954.6</ele>
        <time>2015-05-17T08:41:50Z</time>
      </trkpt>
      <trkpt lat="45.41855" lon="5.64044">
        <ele>953.3</ele>
        <time>2015-05-17T08:42:04Z</time>
      </trkpt>
      <trkpt lat="45.41849" lon="5.64043">
        <ele>953.8</ele>
        <time>2015-05-17T08:41:44Z</time>
      </trkpt>
      <trkpt lat="45.41847" lon="5.64042">
        <ele>953.7</ele>
        <time>2015-05-17T08:42:56Z</time>
      </trkpt>
      <trkpt lat="45.41844" lon="5.6403">
        <ele>951.7</ele>
        <time>2015-05-17T08:43:09Z</time>
      </trkpt>
      <trkpt lat="45.41843" lon="5.64019">
        <ele>951</ele>
        <time>2015-05-17T08:43:12Z</time>
      </trkpt>
      <trkpt lat="45.41843" lon="5.64007">
        <ele>950.6</ele>
        <time>2015-05-17T08:43:16Z</time>
      </trkpt>
      <trkpt lat="45.41842" lon="5.63997">
        <ele>950.8</ele>
        <time>2015-05-17T08:43:19Z</time>
      </trkpt>
      <trkpt lat="45.4184" lon="5.63985">
        <ele>951.1</ele>
        <time>2015-05-17T08:43:22Z</time>
      </trkpt>
      <trkpt lat="45.41836" lon="5.63972">
        <ele>951.2</ele>
        <time>2015-05-17T08:43:25Z</time>
      </trkpt>
      <trkpt lat="45.41834" lon="5.63961">
        <ele>951.4</ele>
        <time>2015-05-17T08:43:27Z</time>
      </trkpt>
      <trkpt lat="45.4183" lon="5.63946">
        <ele>952.7</ele>
        <time>2015-05-17T08:43:29Z</time>
      </trkpt>
      <trkpt lat="45.41824" lon="5.63934">
        <ele>953.2</ele>
        <time>2015-05-17T08:43:31Z</time>
      </trkpt>
      <trkpt lat="45.41816" lon="5.6393">
        <ele>953.1</ele>
        <time>2015-05-17T08:43:34Z</time>
      </trkpt>
      <trkpt lat="45.41805" lon="5.63935">
        <ele>952.9</ele>
        <time>2015-05-17T08:43:36Z</time>
      </trkpt>
      <trkpt lat="45.41792" lon="5.63941">
        <ele>951</ele>
        <time>2015-05-17T08:43:38Z</time>
      </trkpt>
      <trkpt lat="45.41779" lon="5.63946">
        <ele>949.5</ele>
        <time>2015-05-17T08:43:40Z</time>
      </trkpt>
      <trkpt lat="45.41769" lon="5.63949">
        <ele>949</ele>
        <time>2015-05-17T08:43:42Z</time>
      </trkpt>
      <trkpt lat="45.4176" lon="5.63951">
        <ele>948.5</ele>
        <time>2015-05-17T08:43:44Z</time>
      </trkpt>
      <trkpt lat="45.4175" lon="5.63952">
        <ele>948.4</ele>
        <time>2015-05-17T08:43:47Z</time>
      </trkpt>
      <trkpt lat="45.4174" lon="5.63953">
        <ele>948.2</ele>
        <time>2015-05-17T08:43:50Z</time>
      </trkpt>
      <trkpt lat="45.41732" lon="5.63954">
        <ele>947.9</ele>
        <time>2015-05-17T08:43:54Z</time>
      </trkpt>
      <trkpt lat="45.41726" lon="5.63954">
        <ele>947.3</ele>
        <time>2015-05-17T08:44:01Z</time>
      </trkpt>
      <trkpt lat="45.41722" lon="5.6395">
        <ele>946.3</ele>
        <time>2015-05-17T08:44:08Z</time>
      </trkpt>
      <trkpt lat="45.41715" lon="5.63945">
        <ele>945.2</ele>
        <time>2015-05-17T08:44:13Z</time>
      </trkpt>
      <trkpt lat="45.41707" lon="5.63936">
        <ele>944.7</ele>
        <time>2015-05-17T08:44:15Z</time>
      </trkpt>
      <trkpt lat="45.41699" lon="5.63931">
        <ele>944.3</ele>
        <time>2015-05-17T08:44:17Z</time>
      </trkpt>
      <trkpt lat="45.41695" lon="5.63926">
        <ele>943.2</ele>
        <time>2015-05-17T08:44:24Z</time>
      </trkpt>
      <trkpt lat="45.41689" lon="5.63908">
        <ele>942.2</ele>
        <time>2015-05-17T08:44:32Z</time>
      </trkpt>
      <trkpt lat="45.41677" lon="5.63885">
        <ele>942.3</ele>
        <time>2015-05-17T08:44:47Z</time>
      </trkpt>
      <trkpt lat="45.41672" lon="5.63873">
        <ele>943.1</ele>
        <time>2015-05-17T08:44:53Z</time>
      </trkpt>
      <trkpt lat="45.41666" lon="5.63862">
        <ele>943.2</ele>
        <time>2015-05-17T08:44:56Z</time>
      </trkpt>
      <trkpt lat="45.41659" lon="5.63854">
        <ele>943.2</ele>
        <time>2015-05-17T08:44:59Z</time>
      </trkpt>
      <trkpt lat="45.41654" lon="5.63845">
        <ele>943.8</ele>
        <time>2015-05-17T08:45:02Z</time>
      </trkpt>
      <trkpt lat="45.41648" lon="5.63831">
        <ele>945.6</ele>
        <time>2015-05-17T08:45:10Z</time>
      </trkpt>
      <trkpt lat="45.41636" lon="5.6381">
        <ele>946.3</ele>
        <time>2015-05-17T08:45:16Z</time>
      </trkpt>
      <trkpt lat="45.41633" lon="5.638">
        <ele>946.2</ele>
        <time>2015-05-17T08:45:21Z</time>
      </trkpt>
      <trkpt lat="45.41631" lon="5.6379">
        <ele>946.1</ele>
        <time>2015-05-17T08:45:25Z</time>
      </trkpt>
      <trkpt lat="45.41626" lon="5.63781">
        <ele>946.5</ele>
        <time>2015-05-17T08:45:29Z</time>
      </trkpt>
      <trkpt lat="45.41618" lon="5.63772">
        <ele>946.8</ele>
        <time>2015-05-17T08:45:32Z</time>
      </trkpt>
      <trkpt lat="45.41612" lon="5.63756">
        <ele>946.8</ele>
        <time>2015-05-17T08:45:36Z</time>
      </trkpt>
      <trkpt lat="45.41601" lon="5.63749">
        <ele>947</ele>
        <time>2015-05-17T08:45:41Z</time>
      </trkpt>
      <trkpt lat="45.41594" lon="5.63744">
        <ele>946.9</ele>
        <time>2015-05-17T08:45:44Z</time>
      </trkpt>
      <trkpt lat="45.41592" lon="5.63729">
        <ele>947</ele>
        <time>2015-05-17T08:45:47Z</time>
      </trkpt>
      <trkpt lat="45.41592" lon="5.63726">
        <ele>947.2</ele>
        <time>2015-05-17T08:45:54Z</time>
      </trkpt>
      <trkpt lat="45.41589" lon="5.63714">
        <ele>947.2</ele>
        <time>2015-05-17T08:45:57Z</time>
      </trkpt>
      <trkpt lat="45.41585" lon="5.63705">
        <ele>947.1</ele>
        <time>2015-05-17T08:46:00Z</time>
      </trkpt>
      <trkpt lat="45.41578" lon="5.63695">
        <ele>946.9</ele>
        <time>2015-05-17T08:46:04Z</time>
      </trkpt>
      <trkpt lat="45.41572" lon="5.6369">
        <ele>946.9</ele>
        <time>2015-05-17T08:46:07Z</time>
      </trkpt>
      <trkpt lat="45.41563" lon="5.63685">
        <ele>946.7</ele>
        <time>2015-05-17T08:46:10Z</time>
      </trkpt>
      <trkpt lat="45.41555" lon="5.6368">
        <ele>946.4</ele>
        <time>2015-05-17T08:46:13Z</time>
      </trkpt>
      <trkpt lat="45.41547" lon="5.63675">
        <ele>945.8</ele>
        <time>2015-05-17T08:46:17Z</time>
      </trkpt>
      <trkpt lat="45.41544" lon="5.63672">
        <ele>945</ele>
        <time>2015-05-17T08:46:24Z</time>
      </trkpt>
      <trkpt lat="45.41534" lon="5.63657">
        <ele>944.7</ele>
        <time>2015-05-17T08:46:26Z</time>
      </trkpt>
      <trkpt lat="45.41529" lon="5.63645">
        <ele>944.2</ele>
        <time>2015-05-17T08:46:37Z</time>
      </trkpt>
      <trkpt lat="45.41525" lon="5.63625">
        <ele>944.2</ele>
        <time>2015-05-17T08:46:42Z</time>
      </trkpt>
      <trkpt lat="45.41522" lon="5.63608">
        <ele>944.7</ele>
        <time>2015-05-17T08:46:49Z</time>
      </trkpt>
      <trkpt lat="45.41516" lon="5.63584">
        <ele>945.1</ele>
        <time>2015-05-17T08:46:58Z</time>
      </trkpt>
      <trkpt lat="45.41509" lon="5.63575">
        <ele>945.4</ele>
        <time>2015-05-17T08:47:01Z</time>
      </trkpt>
      <trkpt lat="45.41504" lon="5.63561">
        <ele>945.1</ele>
        <time>2015-05-17T08:47:07Z</time>
      </trkpt>
      <trkpt lat="45.41503" lon="5.63544">
        <ele>944.4</ele>
        <time>2015-05-17T08:47:13Z</time>
      </trkpt>
      <trkpt lat="45.41502" lon="5.63527">
        <ele>943.9</ele>
        <time>2015-05-17T08:47:18Z</time>
      </trkpt>
      <trkpt lat="45.41501" lon="5.63523">
        <ele>942.6</ele>
        <time>2015-05-17T08:47:25Z</time>
      </trkpt>
      <trkpt lat="45.41505" lon="5.63499">
        <ele>941.9</ele>
        <time>2015-05-17T08:47:33Z</time>
      </trkpt>
      <trkpt lat="45.41507" lon="5.6349">
        <ele>942.8</ele>
        <time>2015-05-17T08:47:49Z</time>
      </trkpt>
      <trkpt lat="45.41511" lon="5.63474">
        <ele>942.5</ele>
        <time>2015-05-17T08:48:04Z</time>
      </trkpt>
      <trkpt lat="45.41514" lon="5.6346">
        <ele>940.5</ele>
        <time>2015-05-17T08:48:30Z</time>
      </trkpt>
      <trkpt lat="45.41517" lon="5.63451">
        <ele>940.4</ele>
        <time>2015-05-17T08:48:42Z</time>
      </trkpt>
      <trkpt lat="45.41523" lon="5.63444">
        <ele>941.1</ele>
        <time>2015-05-17T08:48:46Z</time>
      </trkpt>
      <trkpt lat="45.41527" lon="5.63439">
        <ele>942.3</ele>
        <time>2015-05-17T08:48:53Z</time>
      </trkpt>
      <trkpt lat="45.41529" lon="5.63434">
        <ele>944.6</ele>
        <time>2015-05-17T08:49:03Z</time>
      </trkpt>
      <trkpt lat="45.41532" lon="5.63427">
        <ele>945.9</ele>
        <time>2015-05-17T08:49:10Z</time>
      </trkpt>
      <trkpt lat="45.41532" lon="5.63415">
        <ele>946.9</ele>
        <time>2015-05-17T08:49:15Z</time>
      </trkpt>
      <trkpt lat="45.41532" lon="5.63413">
        <ele>947.3</ele>
        <time>2015-05-17T08:49:29Z</time>
      </trkpt>
      <trkpt lat="45.41531" lon="5.63399">
        <ele>942.8</ele>
        <time>2015-05-17T08:49:02Z</time>
      </trkpt>
      <trkpt lat="45.41529" lon="5.63389">
        <ele>942.8</ele>
        <time>2015-05-17T08:49:04Z</time>
      </trkpt>
      <trkpt lat="45.41528" lon="5.63375">
        <ele>942.6</ele>
        <time>2015-05-17T08:49:07Z</time>
      </trkpt>
      <trkpt lat="45.41526" lon="5.63364">
        <ele>942.1</ele>
        <time>2015-05-17T08:50:15Z</time>
      </trkpt>
      <trkpt lat="45.4152" lon="5.63343">
        <ele>941.5</ele>
        <time>2015-05-17T08:50:26Z</time>
      </trkpt>
      <trkpt lat="45.4152" lon="5.63332">
        <ele>941.5</ele>
        <time>2015-05-17T08:50:28Z</time>
      </trkpt>
      <trkpt lat="45.4152" lon="5.63318">
        <ele>941.4</ele>
        <time>2015-05-17T08:50:31Z</time>
      </trkpt>
      <trkpt lat="45.41517" lon="5.63308">
        <ele>941.4</ele>
        <time>2015-05-17T08:50:33Z</time>
      </trkpt>
      <trkpt lat="45.41512" lon="5.63299">
        <ele>941.4</ele>
        <time>2015-05-17T08:50:35Z</time>
      </trkpt>
      <trkpt lat="45.41506" lon="5.63287">
        <ele>941.4</ele>
        <time>2015-05-17T08:50:38Z</time>
      </trkpt>
      <trkpt lat="45.41502" lon="5.63278">
        <ele>941.1</ele>
        <time>2015-05-17T08:50:42Z</time>
      </trkpt>
      <trkpt lat="45.41495" lon="5.63271">
        <ele>941.2</ele>
        <time>2015-05-17T08:50:46Z</time>
      </trkpt>
      <trkpt lat="45.41487" lon="5.63272">
        <ele>941.2</ele>
        <time>2015-05-17T08:50:49Z</time>
      </trkpt>
      <trkpt lat="45.4148" lon="5.63269">
        <ele>941.2</ele>
        <time>2015-05-17T08:50:53Z</time>
      </trkpt>
      <trkpt lat="45.41477" lon="5.63259">
        <ele>941.3</ele>
        <time>2015-05-17T08:50:57Z</time>
      </trkpt>
      <trkpt lat="45.41475" lon="5.63248">
        <ele>941.5</ele>
        <time>2015-05-17T08:51:00Z</time>
      </trkpt>
      <trkpt lat="45.41467" lon="5.63237">
        <ele>941.7</ele>
        <time>2015-05-17T08:51:03Z</time>
      </trkpt>
      <trkpt lat="45.41459" lon="5.63228">
        <ele>941.8</ele>
        <time>2015-05-17T08:51:06Z</time>
      </trkpt>
      <trkpt lat="45.41451" lon="5.63219">
        <ele>941.9</ele>
        <time>2015-05-17T08:51:09Z</time>
      </trkpt>
      <trkpt lat="45.41443" lon="5.63217">
        <ele>942</ele>
        <time>2015-05-17T08:51:11Z</time>
      </trkpt>
      <trkpt lat="45.41436" lon="5.63216">
        <ele>942.1</ele>
        <time>2015-05-17T08:51:13Z</time>
      </trkpt>
      <trkpt lat="45.41428" lon="5.63214">
        <ele>942</ele>
        <time>2015-05-17T08:51:15Z</time>
      </trkpt>
      <trkpt lat="45.41418" lon="5.6321">
        <ele>941.9</ele>
        <time>2015-05-17T08:51:18Z</time>
      </trkpt>
      <trkpt lat="45.41408" lon="5.63206">
        <ele>941.8</ele>
        <time>2015-05-17T08:51:21Z</time>
      </trkpt>
      <trkpt lat="45.414" lon="5.63205">
        <ele>941.8</ele>
        <time>2015-05-17T08:51:23Z</time>
      </trkpt>
      <trkpt lat="45.4139" lon="5.632">
        <ele>941.8</ele>
        <time>2015-05-17T08:51:26Z</time>
      </trkpt>
      <trkpt lat="45.41381" lon="5.63198">
        <ele>941.7</ele>
        <time>2015-05-17T08:51:28Z</time>
      </trkpt>
      <trkpt lat="45.4137" lon="5.63194">
        <ele>941.6</ele>
        <time>2015-05-17T08:51:30Z</time>
      </trkpt>
      <trkpt lat="45.41358" lon="5.63191">
        <ele>941.6</ele>
        <time>2015-05-17T08:51:32Z</time>
      </trkpt>
      <trkpt lat="45.4135" lon="5.63188">
        <ele>941.5</ele>
        <time>2015-05-17T08:51:33Z</time>
      </trkpt>
      <trkpt lat="45.41343" lon="5.63185">
        <ele>941.4</ele>
        <time>2015-05-17T08:51:34Z</time>
      </trkpt>
      <trkpt lat="45.41331" lon="5.63183">
        <ele>941.3</ele>
        <time>2015-05-17T08:51:36Z</time>
      </trkpt>
      <trkpt lat="45.41321" lon="5.63181">
        <ele>941.1</ele>
        <time>2015-05-17T08:51:38Z</time>
      </trkpt>
      <trkpt lat="45.41309" lon="5.63177">
        <ele>939.9</ele>
        <time>2015-05-17T08:51:40Z</time>
      </trkpt>
      <trkpt lat="45.41299" lon="5.63177">
        <ele>939.7</ele>
        <time>2015-05-17T08:51:42Z</time>
      </trkpt>
      <trkpt lat="45.41288" lon="5.63176">
        <ele>939.4</ele>
        <time>2015-05-17T08:51:44Z</time>
      </trkpt>
      <trkpt lat="45.41279" lon="5.63176">
        <ele>939.1</ele>
        <time>2015-05-17T08:51:46Z</time>
      </trkpt>
      <trkpt lat="45.4127" lon="5.63178">
        <ele>938.7</ele>
        <time>2015-05-17T08:51:48Z</time>
      </trkpt>
      <trkpt lat="45.41261" lon="5.63175">
        <ele>937.9</ele>
        <time>2015-05-17T08:51:51Z</time>
      </trkpt>
      <trkpt lat="45.41252" lon="5.63173">
        <ele>936.2</ele>
        <time>2015-05-17T08:51:56Z</time>
      </trkpt>
      <trkpt lat="45.41244" lon="5.63172">
        <ele>934.8</ele>
        <time>2015-05-17T08:52:00Z</time>
      </trkpt>
      <trkpt lat="45.41237" lon="5.63172">
        <ele>934.2</ele>
        <time>2015-05-17T08:52:02Z</time>
      </trkpt>
      <trkpt lat="45.41228" lon="5.63172">
        <ele>933.5</ele>
        <time>2015-05-17T08:52:05Z</time>
      </trkpt>
      <trkpt lat="45.41221" lon="5.63169">
        <ele>932.8</ele>
        <time>2015-05-17T08:52:08Z</time>
      </trkpt>
      <trkpt lat="45.41212" lon="5.63168">
        <ele>932.4</ele>
        <time>2015-05-17T08:52:10Z</time>
      </trkpt>
      <trkpt lat="45.41201" lon="5.63169">
        <ele>932</ele>
        <time>2015-05-17T08:52:13Z</time>
      </trkpt>
      <trkpt lat="45.41192" lon="5.63169">
        <ele>931.5</ele>
        <time>2015-05-17T08:52:16Z</time>
      </trkpt>
      <trkpt lat="45.41185" lon="5.63168">
        <ele>931.1</ele>
        <time>2015-05-17T08:52:18Z</time>
      </trkpt>
      <trkpt lat="45.41176" lon="5.63164">
        <ele>930.7</ele>
        <time>2015-05-17T08:52:20Z</time>
      </trkpt>
      <trkpt lat="45.41168" lon="5.63163">
        <ele>930.3</ele>
        <time>2015-05-17T08:52:22Z</time>
      </trkpt>
      <trkpt lat="45.41157" lon="5.6316">
        <ele>929.3</ele>
        <time>2015-05-17T08:52:25Z</time>
      </trkpt>
      <trkpt lat="45.41147" lon="5.63158">
        <ele>928.5</ele>
        <time>2015-05-17T08:52:27Z</time>
      </trkpt>
      <trkpt lat="45.4114" lon="5.63151">
        <ele>927.5</ele>
        <time>2015-05-17T08:52:30Z</time>
      </trkpt>
      <trkpt lat="45.41128" lon="5.63146">
        <ele>927</ele>
        <time>2015-05-17T08:52:32Z</time>
      </trkpt>
      <trkpt lat="45.41119" lon="5.63145">
        <ele>926.4</ele>
        <time>2015-05-17T08:52:34Z</time>
      </trkpt>
      <trkpt lat="45.41111" lon="5.63144">
        <ele>925.8</ele>
        <time>2015-05-17T08:52:36Z</time>
      </trkpt>
      <trkpt lat="45.41103" lon="5.63143">
        <ele>924.7</ele>
        <time>2015-05-17T08:52:39Z</time>
      </trkpt>
      <trkpt lat="45.41097" lon="5.63136">
        <ele>923.5</ele>
        <time>2015-05-17T08:52:43Z</time>
      </trkpt>
      <trkpt lat="45.41094" lon="5.63128">
        <ele>921.9</ele>
        <time>2015-05-17T08:52:50Z</time>
      </trkpt>
      <trkpt lat="45.4109" lon="5.63124">
        <ele>920.6</ele>
        <time>2015-05-17T08:52:57Z</time>
      </trkpt>
      <trkpt lat="45.41088" lon="5.63123">
        <ele>920</ele>
        <time>2015-05-17T08:53:04Z</time>
      </trkpt>
      <trkpt lat="45.41082" lon="5.63123">
        <ele>918</ele>
        <time>2015-05-17T08:53:15Z</time>
      </trkpt>
      <trkpt lat="45.41073" lon="5.63113">
        <ele>914.1</ele>
        <time>2015-05-17T08:53:40Z</time>
      </trkpt>
      <trkpt lat="45.41069" lon="5.631">
        <ele>912.9</ele>
        <time>2015-05-17T08:53:43Z</time>
      </trkpt>
      <trkpt lat="45.41066" lon="5.63092">
        <ele>911</ele>
        <time>2015-05-17T08:53:47Z</time>
      </trkpt>
      <trkpt lat="45.4106" lon="5.63081">
        <ele>909.6</ele>
        <time>2015-05-17T08:53:50Z</time>
      </trkpt>
      <trkpt lat="45.41055" lon="5.63067">
        <ele>908.4</ele>
        <time>2015-05-17T08:53:53Z</time>
      </trkpt>
      <trkpt lat="45.41047" lon="5.63062">
        <ele>906.4</ele>
        <time>2015-05-17T08:53:59Z</time>
      </trkpt>
      <trkpt lat="45.41048" lon="5.63061">
        <ele>905</ele>
        <time>2015-05-17T08:54:06Z</time>
      </trkpt>
      <trkpt lat="45.41048" lon="5.63059">
        <ele>903.9</ele>
        <time>2015-05-17T08:54:13Z</time>
      </trkpt>
      <trkpt lat="45.41055" lon="5.63059">
        <ele>900.2</ele>
        <time>2015-05-17T08:54:41Z</time>
      </trkpt>
      <trkpt lat="45.41063" lon="5.63059">
        <ele>899.9</ele>
        <time>2015-05-17T08:54:46Z</time>
      </trkpt>
      <trkpt lat="45.41071" lon="5.63059">
        <ele>899.9</ele>
        <time>2015-05-17T08:54:51Z</time>
      </trkpt>
      <trkpt lat="45.41079" lon="5.63061">
        <ele>900.5</ele>
        <time>2015-05-17T08:54:57Z</time>
      </trkpt>
      <trkpt lat="45.41083" lon="5.63068">
        <ele>900.8</ele>
        <time>2015-05-17T08:55:04Z</time>
      </trkpt>
      <trkpt lat="45.41089" lon="5.63071">
        <ele>899.9</ele>
        <time>2015-05-17T08:55:11Z</time>
      </trkpt>
      <trkpt lat="45.41092" lon="5.63069">
        <ele>899.2</ele>
        <time>2015-05-17T08:55:18Z</time>
      </trkpt>
      <trkpt lat="45.41098" lon="5.63072">
        <ele>898.8</ele>
        <time>2015-05-17T08:55:25Z</time>
      </trkpt>
      <trkpt lat="45.41104" lon="5.63075">
        <ele>898</ele>
        <time>2015-05-17T08:55:32Z</time>
      </trkpt>
      <trkpt lat="45.41109" lon="5.63075">
        <ele>897.8</ele>
        <time>2015-05-17T08:55:39Z</time>
      </trkpt>
      <trkpt lat="45.41112" lon="5.63077">
        <ele>897.5</ele>
        <time>2015-05-17T08:55:46Z</time>
      </trkpt>
      <trkpt lat="45.41118" lon="5.63084">
        <ele>897.8</ele>
        <time>2015-05-17T08:55:50Z</time>
      </trkpt>
      <trkpt lat="45.41127" lon="5.63089">
        <ele>898.2</ele>
        <time>2015-05-17T08:55:54Z</time>
      </trkpt>
      <trkpt lat="45.41134" lon="5.63092">
        <ele>898.5</ele>
        <time>2015-05-17T08:55:59Z</time>
      </trkpt>
      <trkpt lat="45.41141" lon="5.63096">
        <ele>898.8</ele>
        <time>2015-05-17T08:56:03Z</time>
      </trkpt>
      <trkpt lat="45.41149" lon="5.63098">
        <ele>899.1</ele>
        <time>2015-05-17T08:56:07Z</time>
      </trkpt>
      <trkpt lat="45.41157" lon="5.63102">
        <ele>899.1</ele>
        <time>2015-05-17T08:56:11Z</time>
      </trkpt>
      <trkpt lat="45.41165" lon="5.63106">
        <ele>899.1</ele>
        <time>2015-05-17T08:56:15Z</time>
      </trkpt>
      <trkpt lat="45.4117" lon="5.63111">
        <ele>899.3</ele>
        <time>2015-05-17T08:56:22Z</time>
      </trkpt>
      <trkpt lat="45.41173" lon="5.63112">
        <ele>899</ele>
        <time>2015-05-17T08:56:35Z</time>
      </trkpt>
      <trkpt lat="45.41177" lon="5.63113">
        <ele>898.8</ele>
        <time>2015-05-17T08:56:42Z</time>
      </trkpt>
      <trkpt lat="45.41179" lon="5.63113">
        <ele>898.9</ele>
        <time>2015-05-17T08:56:49Z</time>
      </trkpt>
      <trkpt lat="45.41185" lon="5.63118">
        <ele>900.3</ele>
        <time>2015-05-17T08:56:58Z</time>
      </trkpt>
      <trkpt lat="45.41192" lon="5.63123">
        <ele>901.7</ele>
        <time>2015-05-17T08:57:04Z</time>
      </trkpt>
      <trkpt lat="45.41198" lon="5.63129">
        <ele>902.6</ele>
        <time>2015-05-17T08:57:07Z</time>
      </trkpt>
      <trkpt lat="45.41206" lon="5.63133">
        <ele>904</ele>
        <time>2015-05-17T08:57:12Z</time>
      </trkpt>
      <trkpt lat="45.41214" lon="5.63138">
        <ele>904.6</ele>
        <time>2015-05-17T08:57:16Z</time>
      </trkpt>
      <trkpt lat="45.41224" lon="5.63136">
        <ele>905.2</ele>
        <time>2015-05-17T08:57:20Z</time>
      </trkpt>
      <trkpt lat="45.41232" lon="5.63132">
        <ele>905.5</ele>
        <time>2015-05-17T08:57:23Z</time>
      </trkpt>
      <trkpt lat="45.41239" lon="5.63126">
        <ele>905.5</ele>
        <time>2015-05-17T08:57:25Z</time>
      </trkpt>
      <trkpt lat="45.41246" lon="5.6312">
        <ele>905.6</ele>
        <time>2015-05-17T08:57:27Z</time>
      </trkpt>
      <trkpt lat="45.41255" lon="5.63115">
        <ele>905.8</ele>
        <time>2015-05-17T08:57:30Z</time>
      </trkpt>
      <trkpt lat="45.41264" lon="5.63113">
        <ele>905.9</ele>
        <time>2015-05-17T08:57:33Z</time>
      </trkpt>
      <trkpt lat="45.41272" lon="5.63113">
        <ele>906.6</ele>
        <time>2015-05-17T08:57:38Z</time>
      </trkpt>
      <trkpt lat="45.41282" lon="5.63111">
        <ele>906.7</ele>
        <time>2015-05-17T08:57:40Z</time>
      </trkpt>
      <trkpt lat="45.41289" lon="5.63108">
        <ele>906.9</ele>
        <time>2015-05-17T08:57:42Z</time>
      </trkpt>
      <trkpt lat="45.41297" lon="5.63104">
        <ele>907.1</ele>
        <time>2015-05-17T08:57:46Z</time>
      </trkpt>
      <trkpt lat="45.41304" lon="5.63108">
        <ele>907.4</ele>
        <time>2015-05-17T08:57:50Z</time>
      </trkpt>
      <trkpt lat="45.41311" lon="5.6311">
        <ele>907.5</ele>
        <time>2015-05-17T08:57:53Z</time>
      </trkpt>
      <trkpt lat="45.41319" lon="5.63113">
        <ele>907.9</ele>
        <time>2015-05-17T08:57:57Z</time>
      </trkpt>
      <trkpt lat="45.4133" lon="5.63113">
        <ele>908.3</ele>
        <time>2015-05-17T08:58:01Z</time>
      </trkpt>
      <trkpt lat="45.41337" lon="5.63113">
        <ele>908.6</ele>
        <time>2015-05-17T08:58:04Z</time>
      </trkpt>
      <trkpt lat="45.41345" lon="5.63115">
        <ele>909</ele>
        <time>2015-05-17T08:58:07Z</time>
      </trkpt>
      <trkpt lat="45.41355" lon="5.63116">
        <ele>909.4</ele>
        <time>2015-05-17T08:58:10Z</time>
      </trkpt>
      <trkpt lat="45.41362" lon="5.63113">
        <ele>909.8</ele>
        <time>2015-05-17T08:58:13Z</time>
      </trkpt>
      <trkpt lat="45.4137" lon="5.63113">
        <ele>910.2</ele>
        <time>2015-05-17T08:58:17Z</time>
      </trkpt>
      <trkpt lat="45.4138" lon="5.63117">
        <ele>910.5</ele>
        <time>2015-05-17T08:58:21Z</time>
      </trkpt>
      <trkpt lat="45.41389" lon="5.63118">
        <ele>910.9</ele>
        <time>2015-05-17T08:58:24Z</time>
      </trkpt>
      <trkpt lat="45.41398" lon="5.6312">
        <ele>911.5</ele>
        <time>2015-05-17T08:58:27Z</time>
      </trkpt>
      <trkpt lat="45.41407" lon="5.63115">
        <ele>912.1</ele>
        <time>2015-05-17T08:58:31Z</time>
      </trkpt>
      <trkpt lat="45.41415" lon="5.6311">
        <ele>912.4</ele>
        <time>2015-05-17T08:58:34Z</time>
      </trkpt>
      <trkpt lat="45.41422" lon="5.63105">
        <ele>912.3</ele>
        <time>2015-05-17T08:58:37Z</time>
      </trkpt>
      <trkpt lat="45.41431" lon="5.63097">
        <ele>912.1</ele>
        <time>2015-05-17T08:58:40Z</time>
      </trkpt>
      <trkpt lat="45.4144" lon="5.6309">
        <ele>911.8</ele>
        <time>2015-05-17T08:58:43Z</time>
      </trkpt>
      <trkpt lat="45.41447" lon="5.63086">
        <ele>911.5</ele>
        <time>2015-05-17T08:58:45Z</time>
      </trkpt>
      <trkpt lat="45.41454" lon="5.63082">
        <ele>911.2</ele>
        <time>2015-05-17T08:58:47Z</time>
      </trkpt>
      <trkpt lat="45.41462" lon="5.63081">
        <ele>910.1</ele>
        <time>2015-05-17T08:58:53Z</time>
      </trkpt>
      <trkpt lat="45.4147" lon="5.63075">
        <ele>909.2</ele>
        <time>2015-05-17T08:58:58Z</time>
      </trkpt>
      <trkpt lat="45.41477" lon="5.6307">
        <ele>909</ele>
        <time>2015-05-17T08:59:00Z</time>
      </trkpt>
      <trkpt lat="45.41483" lon="5.63062">
        <ele>908.5</ele>
        <time>2015-05-17T08:59:05Z</time>
      </trkpt>
      <trkpt lat="45.4149" lon="5.63056">
        <ele>908.3</ele>
        <time>2015-05-17T08:59:06Z</time>
      </trkpt>
      <trkpt lat="45.415" lon="5.63046">
        <ele>908</ele>
        <time>2015-05-17T08:59:08Z</time>
      </trkpt>
      <trkpt lat="45.4151" lon="5.63039">
        <ele>907.7</ele>
        <time>2015-05-17T08:59:10Z</time>
      </trkpt>
      <trkpt lat="45.41517" lon="5.63034">
        <ele>907.4</ele>
        <time>2015-05-17T08:59:12Z</time>
      </trkpt>
      <trkpt lat="45.41525" lon="5.6303">
        <ele>907.1</ele>
        <time>2015-05-17T08:59:15Z</time>
      </trkpt>
      <trkpt lat="45.41533" lon="5.63028">
        <ele>906.8</ele>
        <time>2015-05-17T08:59:17Z</time>
      </trkpt>
      <trkpt lat="45.41543" lon="5.63028">
        <ele>906.4</ele>
        <time>2015-05-17T08:59:20Z</time>
      </trkpt>
      <trkpt lat="45.4155" lon="5.63032">
        <ele>906.3</ele>
        <time>2015-05-17T08:59:23Z</time>
      </trkpt>
      <trkpt lat="45.41558" lon="5.63034">
        <ele>906.5</ele>
        <time>2015-05-17T08:59:28Z</time>
      </trkpt>
      <trkpt lat="45.4156" lon="5.63043">
        <ele>906.1</ele>
        <time>2015-05-17T08:59:34Z</time>
      </trkpt>
      <trkpt lat="45.4156" lon="5.63055">
        <ele>906.1</ele>
        <time>2015-05-17T08:59:37Z</time>
      </trkpt>
      <trkpt lat="45.41561" lon="5.63067">
        <ele>906.1</ele>
        <time>2015-05-17T08:59:40Z</time>
      </trkpt>
      <trkpt lat="45.41562" lon="5.63081">
        <ele>906.4</ele>
        <time>2015-05-17T08:59:44Z</time>
      </trkpt>
      <trkpt lat="45.41561" lon="5.63093">
        <ele>906.8</ele>
        <time>2015-05-17T08:59:48Z</time>
      </trkpt>
      <trkpt lat="45.4156" lon="5.63106">
        <ele>907.5</ele>
        <time>2015-05-17T08:59:52Z</time>
      </trkpt>
      <trkpt lat="45.41559" lon="5.63116">
        <ele>907.8</ele>
        <time>2015-05-17T08:59:55Z</time>
      </trkpt>
      <trkpt lat="45.41558" lon="5.63129">
        <ele>907.9</ele>
        <time>2015-05-17T08:59:58Z</time>
      </trkpt>
      <trkpt lat="45.41557" lon="5.63143">
        <ele>908</ele>
        <time>2015-05-17T09:00:01Z</time>
      </trkpt>
      <trkpt lat="45.41558" lon="5.63154">
        <ele>908.2</ele>
        <time>2015-05-17T09:00:04Z</time>
      </trkpt>
      <trkpt lat="45.41558" lon="5.63165">
        <ele>908.4</ele>
        <time>2015-05-17T09:00:06Z</time>
      </trkpt>
      <trkpt lat="45.41559" lon="5.6318">
        <ele>908.6</ele>
        <time>2015-05-17T09:00:09Z</time>
      </trkpt>
      <trkpt lat="45.41563" lon="5.63193">
        <ele>908.8</ele>
        <time>2015-05-17T09:00:12Z</time>
      </trkpt>
      <trkpt lat="45.41568" lon="5.63204">
        <ele>909</ele>
        <time>2015-05-17T09:00:15Z</time>
      </trkpt>
      <trkpt lat="45.4157" lon="5.63214">
        <ele>909</ele>
        <time>2015-05-17T09:00:17Z</time>
      </trkpt>
      <trkpt lat="45.41575" lon="5.63223">
        <ele>909</ele>
        <time>2015-05-17T09:00:20Z</time>
      </trkpt>
      <trkpt lat="45.41582" lon="5.6323">
        <ele>909.3</ele>
        <time>2015-05-17T09:00:26Z</time>
      </trkpt>
      <trkpt lat="45.41589" lon="5.63237">
        <ele>909.9</ele>
        <time>2015-05-17T09:00:28Z</time>
      </trkpt>
      <trkpt lat="45.41596" lon="5.63243">
        <ele>911</ele>
        <time>2015-05-17T09:00:32Z</time>
      </trkpt>
      <trkpt lat="45.41603" lon="5.63249">
        <ele>911.9</ele>
        <time>2015-05-17T09:00:36Z</time>
      </trkpt>
      <trkpt lat="45.41611" lon="5.6325">
        <ele>912.1</ele>
        <time>2015-05-17T09:00:39Z</time>
      </trkpt>
      <trkpt lat="45.41619" lon="5.63254">
        <ele>912.2</ele>
        <time>2015-05-17T09:00:43Z</time>
      </trkpt>
      <trkpt lat="45.41628" lon="5.63262">
        <ele>912.6</ele>
        <time>2015-05-17T09:00:48Z</time>
      </trkpt>
      <trkpt lat="45.41637" lon="5.63267">
        <ele>913.1</ele>
        <time>2015-05-17T09:00:52Z</time>
      </trkpt>
      <trkpt lat="45.41644" lon="5.63267">
        <ele>913.5</ele>
        <time>2015-05-17T09:00:55Z</time>
      </trkpt>
      <trkpt lat="45.41648" lon="5.63266">
        <ele>914.6</ele>
        <time>2015-05-17T09:01:02Z</time>
      </trkpt>
      <trkpt lat="45.41656" lon="5.63269">
        <ele>915.3</ele>
        <time>2015-05-17T09:01:05Z</time>
      </trkpt>
      <trkpt lat="45.41666" lon="5.6327">
        <ele>916.3</ele>
        <time>2015-05-17T09:01:08Z</time>
      </trkpt>
      <trkpt lat="45.41673" lon="5.63267">
        <ele>917</ele>
        <time>2015-05-17T09:01:10Z</time>
      </trkpt>
      <trkpt lat="45.41681" lon="5.63269">
        <ele>918.7</ele>
        <time>2015-05-17T09:01:15Z</time>
      </trkpt>
      <trkpt lat="45.41682" lon="5.63266">
        <ele>919.6</ele>
        <time>2015-05-17T09:01:22Z</time>
      </trkpt>
      <trkpt lat="45.41688" lon="5.63261">
        <ele>919.5</ele>
        <time>2015-05-17T09:01:36Z</time>
      </trkpt>
      <trkpt lat="45.41697" lon="5.63252">
        <ele>923.7</ele>
        <time>2015-05-17T09:02:57Z</time>
      </trkpt>
      <trkpt lat="45.41705" lon="5.63244">
        <ele>924.6</ele>
        <time>2015-05-17T09:03:00Z</time>
      </trkpt>
      <trkpt lat="45.41714" lon="5.63241">
        <ele>925.5</ele>
        <time>2015-05-17T09:03:03Z</time>
      </trkpt>
      <trkpt lat="45.41722" lon="5.63237">
        <ele>926.4</ele>
        <time>2015-05-17T09:03:07Z</time>
      </trkpt>
      <trkpt lat="45.4173" lon="5.63236">
        <ele>926.7</ele>
        <time>2015-05-17T09:03:11Z</time>
      </trkpt>
      <trkpt lat="45.41736" lon="5.63228">
        <ele>927</ele>
        <time>2015-05-17T09:03:14Z</time>
      </trkpt>
      <trkpt lat="45.41744" lon="5.6322">
        <ele>927</ele>
        <time>2015-05-17T09:03:17Z</time>
      </trkpt>
      <trkpt lat="45.41754" lon="5.63213">
        <ele>926.7</ele>
        <time>2015-05-17T09:03:21Z</time>
      </trkpt>
      <trkpt lat="45.4176" lon="5.63207">
        <ele>926.3</ele>
        <time>2015-05-17T09:03:23Z</time>
      </trkpt>
      <trkpt lat="45.41771" lon="5.632">
        <ele>926</ele>
        <time>2015-05-17T09:03:25Z</time>
      </trkpt>
      <trkpt lat="45.41781" lon="5.63195">
        <ele>922.3</ele>
        <time>2015-05-17T09:03:27Z</time>
      </trkpt>
      <trkpt lat="45.41793" lon="5.6319">
        <ele>920.6</ele>
        <time>2015-05-17T09:03:29Z</time>
      </trkpt>
      <trkpt lat="45.418" lon="5.63186">
        <ele>919.8</ele>
        <time>2015-05-17T09:03:30Z</time>
      </trkpt>
      <trkpt lat="45.41811" lon="5.63179">
        <ele>918.6</ele>
        <time>2015-05-17T09:03:31Z</time>
      </trkpt>
      <trkpt lat="45.41818" lon="5.63176">
        <ele>917.2</ele>
        <time>2015-05-17T09:03:32Z</time>
      </trkpt>
      <trkpt lat="45.41827" lon="5.63172">
        <ele>917</ele>
        <time>2015-05-17T09:03:34Z</time>
      </trkpt>
      <trkpt lat="45.41836" lon="5.63166">
        <ele>916.7</ele>
        <time>2015-05-17T09:03:36Z</time>
      </trkpt>
      <trkpt lat="45.41845" lon="5.63162">
        <ele>915.8</ele>
        <time>2015-05-17T09:03:41Z</time>
      </trkpt>
      <trkpt lat="45.41852" lon="5.63157">
        <ele>915.6</ele>
        <time>2015-05-17T09:03:43Z</time>
      </trkpt>
      <trkpt lat="45.4186" lon="5.63148">
        <ele>913.3</ele>
        <time>2015-05-17T09:03:45Z</time>
      </trkpt>
      <trkpt lat="45.41868" lon="5.63139">
        <ele>913</ele>
        <time>2015-05-17T09:03:47Z</time>
      </trkpt>
      <trkpt lat="45.41876" lon="5.63132">
        <ele>913.1</ele>
        <time>2015-05-17T09:03:49Z</time>
      </trkpt>
      <trkpt lat="45.41883" lon="5.63125">
        <ele>913.2</ele>
        <time>2015-05-17T09:03:52Z</time>
      </trkpt>
      <trkpt lat="45.41892" lon="5.63122">
        <ele>913.3</ele>
        <time>2015-05-17T09:03:54Z</time>
      </trkpt>
      <trkpt lat="45.419" lon="5.63118">
        <ele>913.5</ele>
        <time>2015-05-17T09:03:56Z</time>
      </trkpt>
      <trkpt lat="45.41909" lon="5.63116">
        <ele>913.5</ele>
        <time>2015-05-17T09:03:59Z</time>
      </trkpt>
      <trkpt lat="45.41918" lon="5.63117">
        <ele>913.7</ele>
        <time>2015-05-17T09:04:02Z</time>
      </trkpt>
      <trkpt lat="45.41926" lon="5.63119">
        <ele>913.5</ele>
        <time>2015-05-17T09:04:04Z</time>
      </trkpt>
      <trkpt lat="45.41936" lon="5.63123">
        <ele>912.8</ele>
        <time>2015-05-17T09:04:07Z</time>
      </trkpt>
      <trkpt lat="45.41943" lon="5.63127">
        <ele>912.4</ele>
        <time>2015-05-17T09:04:09Z</time>
      </trkpt>
      <trkpt lat="45.41952" lon="5.63136">
        <ele>912</ele>
        <time>2015-05-17T09:04:11Z</time>
      </trkpt>
      <trkpt lat="45.41961" lon="5.63138">
        <ele>909.2</ele>
        <time>2015-05-17T09:04:14Z</time>
      </trkpt>
      <trkpt lat="45.41968" lon="5.63144">
        <ele>908.9</ele>
        <time>2015-05-17T09:04:17Z</time>
      </trkpt>
      <trkpt lat="45.41975" lon="5.63151">
        <ele>908.4</ele>
        <time>2015-05-17T09:04:20Z</time>
      </trkpt>
      <trkpt lat="45.41982" lon="5.63157">
        <ele>908</ele>
        <time>2015-05-17T09:04:23Z</time>
      </trkpt>
      <trkpt lat="45.41991" lon="5.63167">
        <ele>907.8</ele>
        <time>2015-05-17T09:04:26Z</time>
      </trkpt>
      <trkpt lat="45.41999" lon="5.63175">
        <ele>907.8</ele>
        <time>2015-05-17T09:04:28Z</time>
      </trkpt>
      <trkpt lat="45.42006" lon="5.63181">
        <ele>907.8</ele>
        <time>2015-05-17T09:04:31Z</time>
      </trkpt>
      <trkpt lat="45.42014" lon="5.63187">
        <ele>907.8</ele>
        <time>2015-05-17T09:04:34Z</time>
      </trkpt>
      <trkpt lat="45.42021" lon="5.63198">
        <ele>907.7</ele>
        <time>2015-05-17T09:04:38Z</time>
      </trkpt>
      <trkpt lat="45.42025" lon="5.63207">
        <ele>907.5</ele>
        <time>2015-05-17T09:04:40Z</time>
      </trkpt>
      <trkpt lat="45.42029" lon="5.63217">
        <ele>907.2</ele>
        <time>2015-05-17T09:04:43Z</time>
      </trkpt>
      <trkpt lat="45.42034" lon="5.63226">
        <ele>906.8</ele>
        <time>2015-05-17T09:04:47Z</time>
      </trkpt>
      <trkpt lat="45.42035" lon="5.63239">
        <ele>906.4</ele>
        <time>2015-05-17T09:04:51Z</time>
      </trkpt>
      <trkpt lat="45.42033" lon="5.63251">
        <ele>905.8</ele>
        <time>2015-05-17T09:04:55Z</time>
      </trkpt>
      <trkpt lat="45.42031" lon="5.63262">
        <ele>905.7</ele>
        <time>2015-05-17T09:04:58Z</time>
      </trkpt>
      <trkpt lat="45.42035" lon="5.63269">
        <ele>905.9</ele>
        <time>2015-05-17T09:05:05Z</time>
      </trkpt>
      <trkpt lat="45.42043" lon="5.63265">
        <ele>906.3</ele>
        <time>2015-05-17T09:05:10Z</time>
      </trkpt>
      <trkpt lat="45.42052" lon="5.63259">
        <ele>906.2</ele>
        <time>2015-05-17T09:05:13Z</time>
      </trkpt>
      <trkpt lat="45.42059" lon="5.63252">
        <ele>906</ele>
        <time>2015-05-17T09:05:18Z</time>
      </trkpt>
      <trkpt lat="45.42066" lon="5.63243">
        <ele>904</ele>
        <time>2015-05-17T09:05:21Z</time>
      </trkpt>
      <trkpt lat="45.42071" lon="5.63234">
        <ele>903.8</ele>
        <time>2015-05-17T09:05:23Z</time>
      </trkpt>
      <trkpt lat="45.42075" lon="5.63224">
        <ele>903.3</ele>
        <time>2015-05-17T09:05:25Z</time>
      </trkpt>
      <trkpt lat="45.42079" lon="5.63212">
        <ele>903.4</ele>
        <time>2015-05-17T09:05:27Z</time>
      </trkpt>
      <trkpt lat="45.42082" lon="5.632">
        <ele>902.8</ele>
        <time>2015-05-17T09:05:29Z</time>
      </trkpt>
      <trkpt lat="45.42085" lon="5.6319">
        <ele>902.4</ele>
        <time>2015-05-17T09:05:31Z</time>
      </trkpt>
      <trkpt lat="45.42087" lon="5.63175">
        <ele>902.2</ele>
        <time>2015-05-17T09:05:34Z</time>
      </trkpt>
      <trkpt lat="45.42089" lon="5.63164">
        <ele>900.8</ele>
        <time>2015-05-17T09:05:36Z</time>
      </trkpt>
      <trkpt lat="45.4209" lon="5.63151">
        <ele>899.1</ele>
        <time>2015-05-17T09:05:38Z</time>
      </trkpt>
      <trkpt lat="45.42092" lon="5.63139">
        <ele>896.8</ele>
        <time>2015-05-17T09:05:40Z</time>
      </trkpt>
      <trkpt lat="45.42094" lon="5.63128">
        <ele>895.1</ele>
        <time>2015-05-17T09:05:42Z</time>
      </trkpt>
      <trkpt lat="45.42085" lon="5.6313">
        <ele>894.6</ele>
        <time>2015-05-17T09:05:48Z</time>
      </trkpt>
      <trkpt lat="45.42077" lon="5.63141">
        <ele>893.6</ele>
        <time>2015-05-17T09:05:51Z</time>
      </trkpt>
      <trkpt lat="45.42071" lon="5.63151">
        <ele>891.5</ele>
        <time>2015-05-17T09:05:53Z</time>
      </trkpt>
      <trkpt lat="45.42067" lon="5.63162">
        <ele>889.9</ele>
        <time>2015-05-17T09:05:56Z</time>
      </trkpt>
      <trkpt lat="45.42064" lon="5.63149">
        <ele>887.3</ele>
        <time>2015-05-17T09:06:02Z</time>
      </trkpt>
      <trkpt lat="45.42062" lon="5.63138">
        <ele>885.2</ele>
        <time>2015-05-17T09:06:04Z</time>
      </trkpt>
      <trkpt lat="45.42059" lon="5.63128">
        <ele>883.5</ele>
        <time>2015-05-17T09:06:06Z</time>
      </trkpt>
      <trkpt lat="45.42058" lon="5.63116">
        <ele>881.8</ele>
        <time>2015-05-17T09:06:08Z</time>
      </trkpt>
      <trkpt lat="45.42058" lon="5.63106">
        <ele>880.2</ele>
        <time>2015-05-17T09:06:10Z</time>
      </trkpt>
      <trkpt lat="45.42058" lon="5.6309">
        <ele>878.9</ele>
        <time>2015-05-17T09:06:13Z</time>
      </trkpt>
      <trkpt lat="45.42055" lon="5.6308">
        <ele>878.9</ele>
        <time>2015-05-17T09:06:16Z</time>
      </trkpt>
      <trkpt lat="45.42052" lon="5.63065">
        <ele>879.1</ele>
        <time>2015-05-17T09:06:19Z</time>
      </trkpt>
      <trkpt lat="45.42053" lon="5.6305">
        <ele>880.2</ele>
        <time>2015-05-17T09:06:21Z</time>
      </trkpt>
      <trkpt lat="45.42054" lon="5.63035">
        <ele>880.3</ele>
        <time>2015-05-17T09:06:23Z</time>
      </trkpt>
      <trkpt lat="45.42053" lon="5.63022">
        <ele>880.3</ele>
        <time>2015-05-17T09:06:25Z</time>
      </trkpt>
      <trkpt lat="45.42056" lon="5.63009">
        <ele>880</ele>
        <time>2015-05-17T09:06:27Z</time>
      </trkpt>
      <trkpt lat="45.42056" lon="5.62995">
        <ele>879.8</ele>
        <time>2015-05-17T09:06:29Z</time>
      </trkpt>
      <trkpt lat="45.42052" lon="5.62979">
        <ele>879.6</ele>
        <time>2015-05-17T09:06:31Z</time>
      </trkpt>
      <trkpt lat="45.4205" lon="5.62965">
        <ele>878.5</ele>
        <time>2015-05-17T09:06:33Z</time>
      </trkpt>
      <trkpt lat="45.42048" lon="5.62954">
        <ele>878.4</ele>
        <time>2015-05-17T09:06:35Z</time>
      </trkpt>
      <trkpt lat="45.42045" lon="5.62941">
        <ele>878.1</ele>
        <time>2015-05-17T09:06:38Z</time>
      </trkpt>
      <trkpt lat="45.42044" lon="5.6293">
        <ele>877.5</ele>
        <time>2015-05-17T09:06:42Z</time>
      </trkpt>
      <trkpt lat="45.42045" lon="5.62919">
        <ele>877.4</ele>
        <time>2015-05-17T09:06:44Z</time>
      </trkpt>
      <trkpt lat="45.42044" lon="5.62909">
        <ele>877.2</ele>
        <time>2015-05-17T09:06:46Z</time>
      </trkpt>
      <trkpt lat="45.42041" lon="5.62894">
        <ele>877.1</ele>
        <time>2015-05-17T09:06:49Z</time>
      </trkpt>
      <trkpt lat="45.42038" lon="5.62884">
        <ele>877</ele>
        <time>2015-05-17T09:06:50Z</time>
      </trkpt>
      <trkpt lat="45.42033" lon="5.62872">
        <ele>877</ele>
        <time>2015-05-17T09:06:53Z</time>
      </trkpt>
      <trkpt lat="45.4203" lon="5.62861">
        <ele>876.9</ele>
        <time>2015-05-17T09:06:56Z</time>
      </trkpt>
      <trkpt lat="45.42029" lon="5.62848">
        <ele>876.7</ele>
        <time>2015-05-17T09:06:59Z</time>
      </trkpt>
      <trkpt lat="45.42027" lon="5.62837">
        <ele>876.7</ele>
        <time>2015-05-17T09:07:01Z</time>
      </trkpt>
      <trkpt lat="45.42028" lon="5.62823">
        <ele>875.3</ele>
        <time>2015-05-17T09:07:03Z</time>
      </trkpt>
      <trkpt lat="45.42027" lon="5.62813">
        <ele>874.9</ele>
        <time>2015-05-17T09:07:04Z</time>
      </trkpt>
      <trkpt lat="45.42021" lon="5.62802">
        <ele>874.6</ele>
        <time>2015-05-17T09:07:06Z</time>
      </trkpt>
      <trkpt lat="45.42017" lon="5.62793">
        <ele>874.4</ele>
        <time>2015-05-17T09:07:08Z</time>
      </trkpt>
      <trkpt lat="45.42009" lon="5.62784">
        <ele>874</ele>
        <time>2015-05-17T09:07:10Z</time>
      </trkpt>
      <trkpt lat="45.42002" lon="5.62777">
        <ele>873.6</ele>
        <time>2015-05-17T09:07:12Z</time>
      </trkpt>
      <trkpt lat="45.41998" lon="5.62765">
        <ele>873</ele>
        <time>2015-05-17T09:07:14Z</time>
      </trkpt>
      <trkpt lat="45.41995" lon="5.62754">
        <ele>872.5</ele>
        <time>2015-05-17T09:07:16Z</time>
      </trkpt>
      <trkpt lat="45.41992" lon="5.62742">
        <ele>871.8</ele>
        <time>2015-05-17T09:07:20Z</time>
      </trkpt>
      <trkpt lat="45.41991" lon="5.6273">
        <ele>871.3</ele>
        <time>2015-05-17T09:07:23Z</time>
      </trkpt>
      <trkpt lat="45.41986" lon="5.6272">
        <ele>870.8</ele>
        <time>2015-05-17T09:07:26Z</time>
      </trkpt>
      <trkpt lat="45.41982" lon="5.62712">
        <ele>870.3</ele>
        <time>2015-05-17T09:07:28Z</time>
      </trkpt>
      <trkpt lat="45.41974" lon="5.62705">
        <ele>869.9</ele>
        <time>2015-05-17T09:07:30Z</time>
      </trkpt>
      <trkpt lat="45.41966" lon="5.62701">
        <ele>869.4</ele>
        <time>2015-05-17T09:07:32Z</time>
      </trkpt>
      <trkpt lat="45.41959" lon="5.62697">
        <ele>869.1</ele>
        <time>2015-05-17T09:07:33Z</time>
      </trkpt>
      <trkpt lat="45.41953" lon="5.62689">
        <ele>868.6</ele>
        <time>2015-05-17T09:07:35Z</time>
      </trkpt>
      <trkpt lat="45.41945" lon="5.62679">
        <ele>868.2</ele>
        <time>2015-05-17T09:07:38Z</time>
      </trkpt>
      <trkpt lat="45.41939" lon="5.62672">
        <ele>867.8</ele>
        <time>2015-05-17T09:07:41Z</time>
      </trkpt>
      <trkpt lat="45.41932" lon="5.62661">
        <ele>867.3</ele>
        <time>2015-05-17T09:07:44Z</time>
      </trkpt>
      <trkpt lat="45.41928" lon="5.62652">
        <ele>867</ele>
        <time>2015-05-17T09:07:46Z</time>
      </trkpt>
      <trkpt lat="45.41923" lon="5.62642">
        <ele>866</ele>
        <time>2015-05-17T09:07:51Z</time>
      </trkpt>
      <trkpt lat="45.41921" lon="5.62632">
        <ele>865.6</ele>
        <time>2015-05-17T09:07:54Z</time>
      </trkpt>
      <trkpt lat="45.41915" lon="5.62625">
        <ele>864.6</ele>
        <time>2015-05-17T09:07:59Z</time>
      </trkpt>
      <trkpt lat="45.41912" lon="5.62613">
        <ele>864.1</ele>
        <time>2015-05-17T09:08:02Z</time>
      </trkpt>
      <trkpt lat="45.41909" lon="5.62598">
        <ele>863.8</ele>
        <time>2015-05-17T09:08:04Z</time>
      </trkpt>
      <trkpt lat="45.41903" lon="5.62592">
        <ele>863.4</ele>
        <time>2015-05-17T09:08:07Z</time>
      </trkpt>
      <trkpt lat="45.419" lon="5.62573">
        <ele>861</ele>
        <time>2015-05-17T09:08:17Z</time>
      </trkpt>
      <trkpt lat="45.41896" lon="5.62564">
        <ele>860.8</ele>
        <time>2015-05-17T09:08:19Z</time>
      </trkpt>
      <trkpt lat="45.41893" lon="5.62552">
        <ele>860.5</ele>
        <time>2015-05-17T09:08:21Z</time>
      </trkpt>
      <trkpt lat="45.41891" lon="5.62541">
        <ele>860.2</ele>
        <time>2015-05-17T09:08:23Z</time>
      </trkpt>
      <trkpt lat="45.4189" lon="5.62531">
        <ele>860</ele>
        <time>2015-05-17T09:08:25Z</time>
      </trkpt>
      <trkpt lat="45.41887" lon="5.62519">
        <ele>859.8</ele>
        <time>2015-05-17T09:08:27Z</time>
      </trkpt>
      <trkpt lat="45.41884" lon="5.6251">
        <ele>859.4</ele>
        <time>2015-05-17T09:08:29Z</time>
      </trkpt>
      <trkpt lat="45.41881" lon="5.62499">
        <ele>858.7</ele>
        <time>2015-05-17T09:08:34Z</time>
      </trkpt>
      <trkpt lat="45.41877" lon="5.62488">
        <ele>858.5</ele>
        <time>2015-05-17T09:08:38Z</time>
      </trkpt>
      <trkpt lat="45.41874" lon="5.62478">
        <ele>858.2</ele>
        <time>2015-05-17T09:08:42Z</time>
      </trkpt>
      <trkpt lat="45.4187" lon="5.62465">
        <ele>858</ele>
        <time>2015-05-17T09:08:45Z</time>
      </trkpt>
      <trkpt lat="45.41862" lon="5.62447">
        <ele>855.9</ele>
        <time>2015-05-17T09:09:04Z</time>
      </trkpt>
      <trkpt lat="45.41862" lon="5.62436">
        <ele>855.6</ele>
        <time>2015-05-17T09:09:07Z</time>
      </trkpt>
      <trkpt lat="45.41861" lon="5.6242">
        <ele>855.3</ele>
        <time>2015-05-17T09:09:10Z</time>
      </trkpt>
      <trkpt lat="45.41862" lon="5.62407">
        <ele>855.1</ele>
        <time>2015-05-17T09:09:13Z</time>
      </trkpt>
      <trkpt lat="45.41866" lon="5.62397">
        <ele>854.7</ele>
        <time>2015-05-17T09:09:16Z</time>
      </trkpt>
      <trkpt lat="45.41873" lon="5.62386">
        <ele>854.4</ele>
        <time>2015-05-17T09:09:19Z</time>
      </trkpt>
      <trkpt lat="45.41882" lon="5.62378">
        <ele>854.2</ele>
        <time>2015-05-17T09:09:22Z</time>
      </trkpt>
      <trkpt lat="45.4189" lon="5.62371">
        <ele>854</ele>
        <time>2015-05-17T09:09:25Z</time>
      </trkpt>
      <trkpt lat="45.41897" lon="5.62366">
        <ele>853.9</ele>
        <time>2015-05-17T09:09:27Z</time>
      </trkpt>
      <trkpt lat="45.41903" lon="5.6236">
        <ele>853.7</ele>
        <time>2015-05-17T09:09:29Z</time>
      </trkpt>
      <trkpt lat="45.4191" lon="5.62357">
        <ele>853.5</ele>
        <time>2015-05-17T09:09:31Z</time>
      </trkpt>
      <trkpt lat="45.41917" lon="5.62353">
        <ele>853.2</ele>
        <time>2015-05-17T09:09:34Z</time>
      </trkpt>
      <trkpt lat="45.41922" lon="5.62344">
        <ele>852.6</ele>
        <time>2015-05-17T09:09:39Z</time>
      </trkpt>
      <trkpt lat="45.41927" lon="5.62337">
        <ele>852.3</ele>
        <time>2015-05-17T09:09:42Z</time>
      </trkpt>
      <trkpt lat="45.41933" lon="5.62331">
        <ele>852.1</ele>
        <time>2015-05-17T09:09:45Z</time>
      </trkpt>
      <trkpt lat="45.41942" lon="5.62331">
        <ele>851.9</ele>
        <time>2015-05-17T09:09:48Z</time>
      </trkpt>
      <trkpt lat="45.41951" lon="5.62331">
        <ele>851.8</ele>
        <time>2015-05-17T09:09:51Z</time>
      </trkpt>
      <trkpt lat="45.41959" lon="5.62333">
        <ele>851.7</ele>
        <time>2015-05-17T09:09:54Z</time>
      </trkpt>
      <trkpt lat="45.41968" lon="5.62336">
        <ele>851.4</ele>
        <time>2015-05-17T09:09:57Z</time>
      </trkpt>
      <trkpt lat="45.41976" lon="5.62335">
        <ele>851.2</ele>
        <time>2015-05-17T09:10:00Z</time>
      </trkpt>
      <trkpt lat="45.41984" lon="5.62335">
        <ele>850.9</ele>
        <time>2015-05-17T09:10:03Z</time>
      </trkpt>
      <trkpt lat="45.41992" lon="5.62332">
        <ele>850.7</ele>
        <time>2015-05-17T09:10:06Z</time>
      </trkpt>
      <trkpt lat="45.42" lon="5.62332">
        <ele>850.3</ele>
        <time>2015-05-17T09:10:10Z</time>
      </trkpt>
      <trkpt lat="45.42007" lon="5.62338">
        <ele>850</ele>
        <time>2015-05-17T09:10:16Z</time>
      </trkpt>
      <trkpt lat="45.42012" lon="5.62347">
        <ele>850.2</ele>
        <time>2015-05-17T09:10:19Z</time>
      </trkpt>
      <trkpt lat="45.4202" lon="5.62352">
        <ele>850.4</ele>
        <time>2015-05-17T09:10:23Z</time>
      </trkpt>
      <trkpt lat="45.42027" lon="5.62354">
        <ele>850.3</ele>
        <time>2015-05-17T09:10:26Z</time>
      </trkpt>
      <trkpt lat="45.42034" lon="5.62357">
        <ele>850.3</ele>
        <time>2015-05-17T09:10:28Z</time>
      </trkpt>
      <trkpt lat="45.4204" lon="5.62365">
        <ele>850.3</ele>
        <time>2015-05-17T09:10:30Z</time>
      </trkpt>
      <trkpt lat="45.42045" lon="5.62373">
        <ele>850.3</ele>
        <time>2015-05-17T09:10:32Z</time>
      </trkpt>
      <trkpt lat="45.42052" lon="5.62381">
        <ele>850.5</ele>
        <time>2015-05-17T09:10:34Z</time>
      </trkpt>
      <trkpt lat="45.42061" lon="5.62387">
        <ele>850.6</ele>
        <time>2015-05-17T09:10:37Z</time>
      </trkpt>
      <trkpt lat="45.42069" lon="5.62395">
        <ele>850.9</ele>
        <time>2015-05-17T09:10:40Z</time>
      </trkpt>
      <trkpt lat="45.42076" lon="5.62398">
        <ele>851.1</ele>
        <time>2015-05-17T09:10:42Z</time>
      </trkpt>
      <trkpt lat="45.42083" lon="5.624">
        <ele>851.3</ele>
        <time>2015-05-17T09:10:44Z</time>
      </trkpt>
      <trkpt lat="45.42093" lon="5.624">
        <ele>851.2</ele>
        <time>2015-05-17T09:10:46Z</time>
      </trkpt>
      <trkpt lat="45.42101" lon="5.62402">
        <ele>851.2</ele>
        <time>2015-05-17T09:10:48Z</time>
      </trkpt>
      <trkpt lat="45.4211" lon="5.62406">
        <ele>851</ele>
        <time>2015-05-17T09:10:53Z</time>
      </trkpt>
      <trkpt lat="45.42116" lon="5.62414">
        <ele>850.5</ele>
        <time>2015-05-17T09:10:57Z</time>
      </trkpt>
      <trkpt lat="45.42121" lon="5.62421">
        <ele>850.1</ele>
        <time>2015-05-17T09:11:00Z</time>
      </trkpt>
      <trkpt lat="45.42128" lon="5.62429">
        <ele>849.7</ele>
        <time>2015-05-17T09:11:03Z</time>
      </trkpt>
      <trkpt lat="45.42134" lon="5.62438">
        <ele>849.2</ele>
        <time>2015-05-17T09:11:06Z</time>
      </trkpt>
      <trkpt lat="45.4214" lon="5.62442">
        <ele>848.4</ele>
        <time>2015-05-17T09:11:10Z</time>
      </trkpt>
      <trkpt lat="45.42146" lon="5.62449">
        <ele>848.3</ele>
        <time>2015-05-17T09:11:13Z</time>
      </trkpt>
      <trkpt lat="45.42151" lon="5.62456">
        <ele>848.3</ele>
        <time>2015-05-17T09:11:17Z</time>
      </trkpt>
      <trkpt lat="45.42163" lon="5.62455">
        <ele>848.2</ele>
        <time>2015-05-17T09:11:22Z</time>
      </trkpt>
      <trkpt lat="45.42171" lon="5.6246">
        <ele>847.8</ele>
        <time>2015-05-17T09:11:25Z</time>
      </trkpt>
      <trkpt lat="45.42177" lon="5.6247">
        <ele>847.3</ele>
        <time>2015-05-17T09:11:29Z</time>
      </trkpt>
      <trkpt lat="45.42181" lon="5.6248">
        <ele>846.9</ele>
        <time>2015-05-17T09:11:32Z</time>
      </trkpt>
      <trkpt lat="45.42187" lon="5.62489">
        <ele>846.9</ele>
        <time>2015-05-17T09:11:34Z</time>
      </trkpt>
      <trkpt lat="45.42196" lon="5.62495">
        <ele>846.8</ele>
        <time>2015-05-17T09:11:37Z</time>
      </trkpt>
      <trkpt lat="45.42202" lon="5.62503">
        <ele>846.9</ele>
        <time>2015-05-17T09:11:40Z</time>
      </trkpt>
      <trkpt lat="45.42207" lon="5.62515">
        <ele>847.1</ele>
        <time>2015-05-17T09:11:43Z</time>
      </trkpt>
      <trkpt lat="45.42213" lon="5.62527">
        <ele>847.1</ele>
        <time>2015-05-17T09:11:46Z</time>
      </trkpt>
      <trkpt lat="45.4222" lon="5.62536">
        <ele>847</ele>
        <time>2015-05-17T09:11:49Z</time>
      </trkpt>
      <trkpt lat="45.42227" lon="5.62545">
        <ele>847.1</ele>
        <time>2015-05-17T09:11:53Z</time>
      </trkpt>
      <trkpt lat="45.42234" lon="5.62554">
        <ele>847.5</ele>
        <time>2015-05-17T09:11:56Z</time>
      </trkpt>
      <trkpt lat="45.42241" lon="5.62556">
        <ele>847.6</ele>
        <time>2015-05-17T09:11:59Z</time>
      </trkpt>
      <trkpt lat="45.42245" lon="5.62568">
        <ele>847.7</ele>
        <time>2015-05-17T09:12:02Z</time>
      </trkpt>
      <trkpt lat="45.42248" lon="5.62579">
        <ele>847.4</ele>
        <time>2015-05-17T09:12:05Z</time>
      </trkpt>
      <trkpt lat="45.42251" lon="5.62588">
        <ele>847.2</ele>
        <time>2015-05-17T09:12:07Z</time>
      </trkpt>
      <trkpt lat="45.42258" lon="5.62595">
        <ele>846.9</ele>
        <time>2015-05-17T09:12:11Z</time>
      </trkpt>
      <trkpt lat="45.42262" lon="5.62605">
        <ele>847</ele>
        <time>2015-05-17T09:12:14Z</time>
      </trkpt>
      <trkpt lat="45.42265" lon="5.62615">
        <ele>846.9</ele>
        <time>2015-05-17T09:12:18Z</time>
      </trkpt>
      <trkpt lat="45.42273" lon="5.62624">
        <ele>847</ele>
        <time>2015-05-17T09:12:22Z</time>
      </trkpt>
      <trkpt lat="45.42277" lon="5.62634">
        <ele>846.9</ele>
        <time>2015-05-17T09:12:24Z</time>
      </trkpt>
      <trkpt lat="45.42283" lon="5.62646">
        <ele>846.9</ele>
        <time>2015-05-17T09:12:26Z</time>
      </trkpt>
      <trkpt lat="45.42288" lon="5.62661">
        <ele>846.9</ele>
        <time>2015-05-17T09:12:28Z</time>
      </trkpt>
      <trkpt lat="45.42293" lon="5.62674">
        <ele>846.9</ele>
        <time>2015-05-17T09:12:30Z</time>
      </trkpt>
      <trkpt lat="45.423" lon="5.62684">
        <ele>846.4</ele>
        <time>2015-05-17T09:12:34Z</time>
      </trkpt>
      <trkpt lat="45.42304" lon="5.62696">
        <ele>845.2</ele>
        <time>2015-05-17T09:12:39Z</time>
      </trkpt>
      <trkpt lat="45.4231" lon="5.62704">
        <ele>844.4</ele>
        <time>2015-05-17T09:12:42Z</time>
      </trkpt>
      <trkpt lat="45.42314" lon="5.62715">
        <ele>843.5</ele>
        <time>2015-05-17T09:12:45Z</time>
      </trkpt>
      <trkpt lat="45.42318" lon="5.62724">
        <ele>843.1</ele>
        <time>2015-05-17T09:12:47Z</time>
      </trkpt>
      <trkpt lat="45.42325" lon="5.62736">
        <ele>841</ele>
        <time>2015-05-17T09:12:49Z</time>
      </trkpt>
      <trkpt lat="45.42334" lon="5.62737">
        <ele>840.1</ele>
        <time>2015-05-17T09:12:52Z</time>
      </trkpt>
      <trkpt lat="45.42342" lon="5.62745">
        <ele>839.8</ele>
        <time>2015-05-17T09:12:55Z</time>
      </trkpt>
      <trkpt lat="45.42347" lon="5.62754">
        <ele>839.5</ele>
        <time>2015-05-17T09:12:57Z</time>
      </trkpt>
      <trkpt lat="45.42353" lon="5.62768">
        <ele>838.1</ele>
        <time>2015-05-17T09:12:59Z</time>
      </trkpt>
      <trkpt lat="45.42358" lon="5.62778">
        <ele>836.4</ele>
        <time>2015-05-17T09:13:01Z</time>
      </trkpt>
      <trkpt lat="45.42362" lon="5.62791">
        <ele>836.3</ele>
        <time>2015-05-17T09:13:03Z</time>
      </trkpt>
      <trkpt lat="45.42365" lon="5.62801">
        <ele>836.1</ele>
        <time>2015-05-17T09:13:05Z</time>
      </trkpt>
      <trkpt lat="45.42369" lon="5.62811">
        <ele>836</ele>
        <time>2015-05-17T09:13:07Z</time>
      </trkpt>
      <trkpt lat="45.42372" lon="5.62821">
        <ele>835.9</ele>
        <time>2015-05-17T09:13:09Z</time>
      </trkpt>
      <trkpt lat="45.42375" lon="5.62832">
        <ele>835.9</ele>
        <time>2015-05-17T09:13:11Z</time>
      </trkpt>
      <trkpt lat="45.42379" lon="5.62841">
        <ele>835.8</ele>
        <time>2015-05-17T09:13:14Z</time>
      </trkpt>
      <trkpt lat="45.42384" lon="5.62851">
        <ele>835.8</ele>
        <time>2015-05-17T09:13:17Z</time>
      </trkpt>
      <trkpt lat="45.42388" lon="5.62862">
        <ele>835.8</ele>
        <time>2015-05-17T09:13:19Z</time>
      </trkpt>
      <trkpt lat="45.42393" lon="5.62872">
        <ele>835.5</ele>
        <time>2015-05-17T09:13:21Z</time>
      </trkpt>
      <trkpt lat="45.42398" lon="5.62882">
        <ele>835.7</ele>
        <time>2015-05-17T09:13:23Z</time>
      </trkpt>
      <trkpt lat="45.42404" lon="5.62894">
        <ele>835.5</ele>
        <time>2015-05-17T09:13:26Z</time>
      </trkpt>
      <trkpt lat="45.42408" lon="5.62905">
        <ele>835.4</ele>
        <time>2015-05-17T09:13:28Z</time>
      </trkpt>
      <trkpt lat="45.42412" lon="5.62914">
        <ele>835.1</ele>
        <time>2015-05-17T09:13:30Z</time>
      </trkpt>
      <trkpt lat="45.42417" lon="5.62929">
        <ele>834.6</ele>
        <time>2015-05-17T09:13:33Z</time>
      </trkpt>
      <trkpt lat="45.42423" lon="5.62941">
        <ele>833.6</ele>
        <time>2015-05-17T09:13:36Z</time>
      </trkpt>
      <trkpt lat="45.42427" lon="5.62954">
        <ele>832.3</ele>
        <time>2015-05-17T09:13:39Z</time>
      </trkpt>
      <trkpt lat="45.42432" lon="5.62964">
        <ele>831.4</ele>
        <time>2015-05-17T09:13:42Z</time>
      </trkpt>
      <trkpt lat="45.42437" lon="5.62974">
        <ele>827.6</ele>
        <time>2015-05-17T09:13:44Z</time>
      </trkpt>
      <trkpt lat="45.42444" lon="5.62989">
        <ele>826.9</ele>
        <time>2015-05-17T09:13:46Z</time>
      </trkpt>
      <trkpt lat="45.42451" lon="5.63002">
        <ele>825.9</ele>
        <time>2015-05-17T09:13:48Z</time>
      </trkpt>
      <trkpt lat="45.42458" lon="5.63013">
        <ele>824.3</ele>
        <time>2015-05-17T09:13:50Z</time>
      </trkpt>
      <trkpt lat="45.42462" lon="5.63022">
        <ele>823.7</ele>
        <time>2015-05-17T09:13:52Z</time>
      </trkpt>
      <trkpt lat="45.42466" lon="5.63034">
        <ele>823.5</ele>
        <time>2015-05-17T09:13:54Z</time>
      </trkpt>
      <trkpt lat="45.4247" lon="5.63048">
        <ele>823.9</ele>
        <time>2015-05-17T09:13:56Z</time>
      </trkpt>
      <trkpt lat="45.42475" lon="5.63062">
        <ele>824.4</ele>
        <time>2015-05-17T09:13:58Z</time>
      </trkpt>
      <trkpt lat="45.42479" lon="5.63078">
        <ele>824.4</ele>
        <time>2015-05-17T09:14:00Z</time>
      </trkpt>
      <trkpt lat="45.42484" lon="5.63095">
        <ele>822.8</ele>
        <time>2015-05-17T09:14:02Z</time>
      </trkpt>
      <trkpt lat="45.42489" lon="5.63106">
        <ele>822.1</ele>
        <time>2015-05-17T09:14:04Z</time>
      </trkpt>
      <trkpt lat="45.42494" lon="5.63116">
        <ele>821</ele>
        <time>2015-05-17T09:14:06Z</time>
      </trkpt>
      <trkpt lat="45.42501" lon="5.63124">
        <ele>820.8</ele>
        <time>2015-05-17T09:14:08Z</time>
      </trkpt>
      <trkpt lat="45.42509" lon="5.63132">
        <ele>820.5</ele>
        <time>2015-05-17T09:14:11Z</time>
      </trkpt>
      <trkpt lat="45.42517" lon="5.63138">
        <ele>820.3</ele>
        <time>2015-05-17T09:14:13Z</time>
      </trkpt>
      <trkpt lat="45.42527" lon="5.63148">
        <ele>819.9</ele>
        <time>2015-05-17T09:14:15Z</time>
      </trkpt>
      <trkpt lat="45.42533" lon="5.63161">
        <ele>819.1</ele>
        <time>2015-05-17T09:14:17Z</time>
      </trkpt>
      <trkpt lat="45.42539" lon="5.63176">
        <ele>819</ele>
        <time>2015-05-17T09:14:19Z</time>
      </trkpt>
      <trkpt lat="45.42542" lon="5.63186">
        <ele>818.9</ele>
        <time>2015-05-17T09:14:20Z</time>
      </trkpt>
      <trkpt lat="45.42545" lon="5.63196">
        <ele>818.3</ele>
        <time>2015-05-17T09:14:21Z</time>
      </trkpt>
      <trkpt lat="45.42548" lon="5.63207">
        <ele>818</ele>
        <time>2015-05-17T09:14:22Z</time>
      </trkpt>
      <trkpt lat="45.42552" lon="5.63218">
        <ele>817.8</ele>
        <time>2015-05-17T09:14:23Z</time>
      </trkpt>
      <trkpt lat="45.42556" lon="5.6323">
        <ele>817.8</ele>
        <time>2015-05-17T09:14:24Z</time>
      </trkpt>
      <trkpt lat="45.4256" lon="5.63242">
        <ele>818.5</ele>
        <time>2015-05-17T09:14:25Z</time>
      </trkpt>
      <trkpt lat="45.42563" lon="5.63253">
        <ele>818.2</ele>
        <time>2015-05-17T09:14:26Z</time>
      </trkpt>
      <trkpt lat="45.42565" lon="5.63265">
        <ele>816.5</ele>
        <time>2015-05-17T09:14:27Z</time>
      </trkpt>
      <trkpt lat="45.42567" lon="5.63278">
        <ele>814.8</ele>
        <time>2015-05-17T09:14:28Z</time>
      </trkpt>
      <trkpt lat="45.42569" lon="5.6329">
        <ele>813</ele>
        <time>2015-05-17T09:14:29Z</time>
      </trkpt>
      <trkpt lat="45.42571" lon="5.633">
        <ele>810.5</ele>
        <time>2015-05-17T09:14:30Z</time>
      </trkpt>
      <trkpt lat="45.42577" lon="5.63311">
        <ele>808.3</ele>
        <time>2015-05-17T09:14:32Z</time>
      </trkpt>
      <trkpt lat="45.42587" lon="5.63318">
        <ele>806.9</ele>
        <time>2015-05-17T09:14:34Z</time>
      </trkpt>
      <trkpt lat="45.42594" lon="5.6332">
        <ele>806.6</ele>
        <time>2015-05-17T09:14:36Z</time>
      </trkpt>
      <trkpt lat="45.42598" lon="5.63306">
        <ele>800.4</ele>
        <time>2015-05-17T09:14:39Z</time>
      </trkpt>
      <trkpt lat="45.42598" lon="5.63289">
        <ele>795.7</ele>
        <time>2015-05-17T09:14:41Z</time>
      </trkpt>
      <trkpt lat="45.426" lon="5.63276">
        <ele>793.7</ele>
        <time>2015-05-17T09:14:42Z</time>
      </trkpt>
      <trkpt lat="45.42604" lon="5.63264">
        <ele>791.8</ele>
        <time>2015-05-17T09:14:43Z</time>
      </trkpt>
      <trkpt lat="45.42608" lon="5.63251">
        <ele>790</ele>
        <time>2015-05-17T09:14:44Z</time>
      </trkpt>
      <trkpt lat="45.42611" lon="5.63237">
        <ele>788.5</ele>
        <time>2015-05-17T09:14:45Z</time>
      </trkpt>
      <trkpt lat="45.42615" lon="5.63221">
        <ele>786.9</ele>
        <time>2015-05-17T09:14:46Z</time>
      </trkpt>
      <trkpt lat="45.42618" lon="5.63209">
        <ele>785.4</ele>
        <time>2015-05-17T09:14:47Z</time>
      </trkpt>
      <trkpt lat="45.42622" lon="5.63195">
        <ele>784.9</ele>
        <time>2015-05-17T09:14:48Z</time>
      </trkpt>
      <trkpt lat="45.42625" lon="5.63183">
        <ele>783.9</ele>
        <time>2015-05-17T09:14:49Z</time>
      </trkpt>
      <trkpt lat="45.42629" lon="5.63171">
        <ele>783</ele>
        <time>2015-05-17T09:14:50Z</time>
      </trkpt>
      <trkpt lat="45.42634" lon="5.63159">
        <ele>782.2</ele>
        <time>2015-05-17T09:14:51Z</time>
      </trkpt>
      <trkpt lat="45.4264" lon="5.63146">
        <ele>781.7</ele>
        <time>2015-05-17T09:14:52Z</time>
      </trkpt>
      <trkpt lat="45.42645" lon="5.63135">
        <ele>781.4</ele>
        <time>2015-05-17T09:14:53Z</time>
      </trkpt>
      <trkpt lat="45.4265" lon="5.63122">
        <ele>780.9</ele>
        <time>2015-05-17T09:14:54Z</time>
      </trkpt>
      <trkpt lat="45.42655" lon="5.63109">
        <ele>780.1</ele>
        <time>2015-05-17T09:14:55Z</time>
      </trkpt>
      <trkpt lat="45.4266" lon="5.63097">
        <ele>779.3</ele>
        <time>2015-05-17T09:14:56Z</time>
      </trkpt>
      <trkpt lat="45.42665" lon="5.63086">
        <ele>778.5</ele>
        <time>2015-05-17T09:14:57Z</time>
      </trkpt>
      <trkpt lat="45.4267" lon="5.63074">
        <ele>777.6</ele>
        <time>2015-05-17T09:14:58Z</time>
      </trkpt>
      <trkpt lat="45.42674" lon="5.63062">
        <ele>776.6</ele>
        <time>2015-05-17T09:14:59Z</time>
      </trkpt>
      <trkpt lat="45.42679" lon="5.63051">
        <ele>776.2</ele>
        <time>2015-05-17T09:15:00Z</time>
      </trkpt>
      <trkpt lat="45.42685" lon="5.6304">
        <ele>775.5</ele>
        <time>2015-05-17T09:15:01Z</time>
      </trkpt>
      <trkpt lat="45.42692" lon="5.63029">
        <ele>774.8</ele>
        <time>2015-05-17T09:15:02Z</time>
      </trkpt>
      <trkpt lat="45.42698" lon="5.63019">
        <ele>774.2</ele>
        <time>2015-05-17T09:15:03Z</time>
      </trkpt>
      <trkpt lat="45.42704" lon="5.63011">
        <ele>774.1</ele>
        <time>2015-05-17T09:15:04Z</time>
      </trkpt>
      <trkpt lat="45.42712" lon="5.62998">
        <ele>773.2</ele>
        <time>2015-05-17T09:15:06Z</time>
      </trkpt>
      <trkpt lat="45.42722" lon="5.6299">
        <ele>772.1</ele>
        <time>2015-05-17T09:15:08Z</time>
      </trkpt>
      <trkpt lat="45.42733" lon="5.62991">
        <ele>771.4</ele>
        <time>2015-05-17T09:15:10Z</time>
      </trkpt>
      <trkpt lat="45.42747" lon="5.62995">
        <ele>770.9</ele>
        <time>2015-05-17T09:15:12Z</time>
      </trkpt>
      <trkpt lat="45.42757" lon="5.62992">
        <ele>771</ele>
        <time>2015-05-17T09:15:13Z</time>
      </trkpt>
      <trkpt lat="45.42767" lon="5.62988">
        <ele>771</ele>
        <time>2015-05-17T09:15:14Z</time>
      </trkpt>
      <trkpt lat="45.42776" lon="5.62983">
        <ele>770.6</ele>
        <time>2015-05-17T09:15:15Z</time>
      </trkpt>
      <trkpt lat="45.42785" lon="5.62979">
        <ele>770.1</ele>
        <time>2015-05-17T09:15:16Z</time>
      </trkpt>
      <trkpt lat="45.42793" lon="5.62974">
        <ele>769.6</ele>
        <time>2015-05-17T09:15:17Z</time>
      </trkpt>
      <trkpt lat="45.42801" lon="5.62969">
        <ele>769.3</ele>
        <time>2015-05-17T09:15:18Z</time>
      </trkpt>
      <trkpt lat="45.42809" lon="5.62965">
        <ele>768.8</ele>
        <time>2015-05-17T09:15:19Z</time>
      </trkpt>
      <trkpt lat="45.42824" lon="5.62962">
        <ele>767.7</ele>
        <time>2015-05-17T09:15:21Z</time>
      </trkpt>
      <trkpt lat="45.42833" lon="5.62961">
        <ele>767.1</ele>
        <time>2015-05-17T09:15:22Z</time>
      </trkpt>
      <trkpt lat="45.42842" lon="5.62956">
        <ele>765.9</ele>
        <time>2015-05-17T09:15:23Z</time>
      </trkpt>
      <trkpt lat="45.4285" lon="5.6295">
        <ele>764.8</ele>
        <time>2015-05-17T09:15:24Z</time>
      </trkpt>
      <trkpt lat="45.42856" lon="5.62942">
        <ele>763.6</ele>
        <time>2015-05-17T09:15:25Z</time>
      </trkpt>
      <trkpt lat="45.42862" lon="5.62934">
        <ele>762.4</ele>
        <time>2015-05-17T09:15:26Z</time>
      </trkpt>
      <trkpt lat="45.42868" lon="5.62925">
        <ele>761.9</ele>
        <time>2015-05-17T09:15:27Z</time>
      </trkpt>
      <trkpt lat="45.42873" lon="5.62916">
        <ele>761.1</ele>
        <time>2015-05-17T09:15:28Z</time>
      </trkpt>
      <trkpt lat="45.42878" lon="5.62909">
        <ele>760.6</ele>
        <time>2015-05-17T09:15:29Z</time>
      </trkpt>
      <trkpt lat="45.42881" lon="5.62899">
        <ele>759.7</ele>
        <time>2015-05-17T09:15:30Z</time>
      </trkpt>
      <trkpt lat="45.42884" lon="5.62888">
        <ele>758.6</ele>
        <time>2015-05-17T09:15:31Z</time>
      </trkpt>
      <trkpt lat="45.42887" lon="5.62875">
        <ele>757.4</ele>
        <time>2015-05-17T09:15:32Z</time>
      </trkpt>
      <trkpt lat="45.4289" lon="5.62862">
        <ele>756.6</ele>
        <time>2015-05-17T09:15:33Z</time>
      </trkpt>
      <trkpt lat="45.42892" lon="5.62853">
        <ele>755.9</ele>
        <time>2015-05-17T09:15:34Z</time>
      </trkpt>
      <trkpt lat="45.42895" lon="5.6284">
        <ele>755.2</ele>
        <time>2015-05-17T09:15:36Z</time>
      </trkpt>
      <trkpt lat="45.42897" lon="5.62837">
        <ele>754.4</ele>
        <time>2015-05-17T09:15:43Z</time>
      </trkpt>
      <trkpt lat="45.42902" lon="5.62846">
        <ele>754.3</ele>
        <time>2015-05-17T09:15:44Z</time>
      </trkpt>
      <trkpt lat="45.429" lon="5.62857">
        <ele>754.1</ele>
        <time>2015-05-17T09:15:46Z</time>
      </trkpt>
      <trkpt lat="45.42898" lon="5.62868">
        <ele>751.8</ele>
        <time>2015-05-17T09:15:48Z</time>
      </trkpt>
      <trkpt lat="45.42895" lon="5.62878">
        <ele>748.5</ele>
        <time>2015-05-17T09:15:50Z</time>
      </trkpt>
      <trkpt lat="45.42893" lon="5.6289">
        <ele>746.7</ele>
        <time>2015-05-17T09:15:52Z</time>
      </trkpt>
      <trkpt lat="45.42891" lon="5.62901">
        <ele>746.2</ele>
        <time>2015-05-17T09:15:54Z</time>
      </trkpt>
      <trkpt lat="45.42889" lon="5.62912">
        <ele>746.1</ele>
        <time>2015-05-17T09:15:56Z</time>
      </trkpt>
      <trkpt lat="45.42887" lon="5.62921">
        <ele>746.2</ele>
        <time>2015-05-17T09:16:03Z</time>
      </trkpt>
      <trkpt lat="45.42894" lon="5.6293">
        <ele>745.6</ele>
        <time>2015-05-17T09:17:18Z</time>
      </trkpt>
      <trkpt lat="45.42902" lon="5.62932">
        <ele>747.4</ele>
        <time>2015-05-17T09:17:20Z</time>
      </trkpt>
      <trkpt lat="45.42911" lon="5.62934">
        <ele>747.8</ele>
        <time>2015-05-17T09:17:22Z</time>
      </trkpt>
      <trkpt lat="45.42922" lon="5.62939">
        <ele>747.6</ele>
        <time>2015-05-17T09:17:24Z</time>
      </trkpt>
      <trkpt lat="45.42932" lon="5.62944">
        <ele>746.2</ele>
        <time>2015-05-17T09:17:26Z</time>
      </trkpt>
      <trkpt lat="45.42941" lon="5.62949">
        <ele>744.4</ele>
        <time>2015-05-17T09:17:28Z</time>
      </trkpt>
      <trkpt lat="45.4295" lon="5.62949">
        <ele>741.6</ele>
        <time>2015-05-17T09:17:30Z</time>
      </trkpt>
      <trkpt lat="45.42962" lon="5.62946">
        <ele>738.6</ele>
        <time>2015-05-17T09:17:32Z</time>
      </trkpt>
      <trkpt lat="45.42974" lon="5.62945">
        <ele>736.2</ele>
        <time>2015-05-17T09:17:34Z</time>
      </trkpt>
      <trkpt lat="45.42983" lon="5.62951">
        <ele>734.5</ele>
        <time>2015-05-17T09:17:36Z</time>
      </trkpt>
      <trkpt lat="45.42988" lon="5.62964">
        <ele>733.1</ele>
        <time>2015-05-17T09:17:38Z</time>
      </trkpt>
      <trkpt lat="45.42992" lon="5.62977">
        <ele>731.5</ele>
        <time>2015-05-17T09:17:40Z</time>
      </trkpt>
      <trkpt lat="45.42996" lon="5.62992">
        <ele>731.3</ele>
        <time>2015-05-17T09:17:42Z</time>
      </trkpt>
      <trkpt lat="45.42999" lon="5.63007">
        <ele>731.7</ele>
        <time>2015-05-17T09:17:44Z</time>
      </trkpt>
      <trkpt lat="45.43004" lon="5.6302">
        <ele>733</ele>
        <time>2015-05-17T09:17:46Z</time>
      </trkpt>
      <trkpt lat="45.43007" lon="5.63034">
        <ele>733</ele>
        <time>2015-05-17T09:17:48Z</time>
      </trkpt>
      <trkpt lat="45.43009" lon="5.63045">
        <ele>733.1</ele>
        <time>2015-05-17T09:17:50Z</time>
      </trkpt>
      <trkpt lat="45.43012" lon="5.63057">
        <ele>733.8</ele>
        <time>2015-05-17T09:17:52Z</time>
      </trkpt>
      <trkpt lat="45.43016" lon="5.63071">
        <ele>733.5</ele>
        <time>2015-05-17T09:17:54Z</time>
      </trkpt>
      <trkpt lat="45.43021" lon="5.63084">
        <ele>733</ele>
        <time>2015-05-17T09:17:56Z</time>
      </trkpt>
      <trkpt lat="45.43025" lon="5.63096">
        <ele>733.3</ele>
        <time>2015-05-17T09:17:58Z</time>
      </trkpt>
      <trkpt lat="45.43028" lon="5.63107">
        <ele>734</ele>
        <time>2015-05-17T09:18:00Z</time>
      </trkpt>
      <trkpt lat="45.43032" lon="5.6312">
        <ele>734.9</ele>
        <time>2015-05-17T09:18:02Z</time>
      </trkpt>
      <trkpt lat="45.43038" lon="5.63128">
        <ele>734.9</ele>
        <time>2015-05-17T09:18:04Z</time>
      </trkpt>
      <trkpt lat="45.43045" lon="5.63139">
        <ele>734.7</ele>
        <time>2015-05-17T09:18:06Z</time>
      </trkpt>
      <trkpt lat="45.43051" lon="5.6315">
        <ele>734.6</ele>
        <time>2015-05-17T09:18:08Z</time>
      </trkpt>
      <trkpt lat="45.43055" lon="5.6316">
        <ele>733.8</ele>
        <time>2015-05-17T09:18:10Z</time>
      </trkpt>
      <trkpt lat="45.43062" lon="5.63172">
        <ele>732.1</ele>
        <time>2015-05-17T09:18:12Z</time>
      </trkpt>
      <trkpt lat="45.43069" lon="5.63187">
        <ele>729.5</ele>
        <time>2015-05-17T09:18:14Z</time>
      </trkpt>
      <trkpt lat="45.43073" lon="5.632">
        <ele>727.8</ele>
        <time>2015-05-17T09:18:16Z</time>
      </trkpt>
      <trkpt lat="45.43078" lon="5.63208">
        <ele>727.6</ele>
        <time>2015-05-17T09:18:19Z</time>
      </trkpt>
      <trkpt lat="45.43084" lon="5.63216">
        <ele>727.6</ele>
        <time>2015-05-17T09:18:21Z</time>
      </trkpt>
      <trkpt lat="45.43091" lon="5.63226">
        <ele>727.4</ele>
        <time>2015-05-17T09:18:23Z</time>
      </trkpt>
      <trkpt lat="45.43099" lon="5.63232">
        <ele>726.3</ele>
        <time>2015-05-17T09:18:28Z</time>
      </trkpt>
      <trkpt lat="45.43106" lon="5.63235">
        <ele>725.7</ele>
        <time>2015-05-17T09:18:31Z</time>
      </trkpt>
      <trkpt lat="45.43107" lon="5.63236">
        <ele>723.7</ele>
        <time>2015-05-17T09:18:38Z</time>
      </trkpt>
      <trkpt lat="45.4312" lon="5.63235">
        <ele>722.9</ele>
        <time>2015-05-17T09:18:40Z</time>
      </trkpt>
      <trkpt lat="45.43129" lon="5.63236">
        <ele>722.1</ele>
        <time>2015-05-17T09:18:42Z</time>
      </trkpt>
      <trkpt lat="45.43138" lon="5.63234">
        <ele>721.4</ele>
        <time>2015-05-17T09:18:44Z</time>
      </trkpt>
      <trkpt lat="45.43148" lon="5.63235">
        <ele>719.9</ele>
        <time>2015-05-17T09:18:48Z</time>
      </trkpt>
      <trkpt lat="45.43156" lon="5.63229">
        <ele>718.2</ele>
        <time>2015-05-17T09:18:52Z</time>
      </trkpt>
      <trkpt lat="45.43164" lon="5.63225">
        <ele>716.8</ele>
        <time>2015-05-17T09:18:55Z</time>
      </trkpt>
      <trkpt lat="45.43173" lon="5.63232">
        <ele>709.9</ele>
        <time>2015-05-17T09:19:00Z</time>
      </trkpt>
      <trkpt lat="45.43177" lon="5.63241">
        <ele>708.7</ele>
        <time>2015-05-17T09:19:03Z</time>
      </trkpt>
      <trkpt lat="45.4318" lon="5.63252">
        <ele>707.7</ele>
        <time>2015-05-17T09:19:06Z</time>
      </trkpt>
      <trkpt lat="45.4318" lon="5.63255">
        <ele>705.9</ele>
        <time>2015-05-17T09:19:13Z</time>
      </trkpt>
      <trkpt lat="45.43185" lon="5.63266">
        <ele>701.7</ele>
        <time>2015-05-17T09:19:29Z</time>
      </trkpt>
      <trkpt lat="45.43189" lon="5.63278">
        <ele>700.2</ele>
        <time>2015-05-17T09:19:37Z</time>
      </trkpt>
      <trkpt lat="45.43193" lon="5.63293">
        <ele>698.9</ele>
        <time>2015-05-17T09:19:42Z</time>
      </trkpt>
      <trkpt lat="45.432" lon="5.63308">
        <ele>696.5</ele>
        <time>2015-05-17T09:19:58Z</time>
      </trkpt>
      <trkpt lat="45.43203" lon="5.6332">
        <ele>692.9</ele>
        <time>2015-05-17T09:20:13Z</time>
      </trkpt>
      <trkpt lat="45.43205" lon="5.63329">
        <ele>692.2</ele>
        <time>2015-05-17T09:20:16Z</time>
      </trkpt>
      <trkpt lat="45.43206" lon="5.63343">
        <ele>691.7</ele>
        <time>2015-05-17T09:20:19Z</time>
      </trkpt>
      <trkpt lat="45.43209" lon="5.63355">
        <ele>691.3</ele>
        <time>2015-05-17T09:20:22Z</time>
      </trkpt>
      <trkpt lat="45.43215" lon="5.63369">
        <ele>690.8</ele>
        <time>2015-05-17T09:20:26Z</time>
      </trkpt>
      <trkpt lat="45.43219" lon="5.63378">
        <ele>690.5</ele>
        <time>2015-05-17T09:20:28Z</time>
      </trkpt>
      <trkpt lat="45.43224" lon="5.63391">
        <ele>690</ele>
        <time>2015-05-17T09:20:31Z</time>
      </trkpt>
      <trkpt lat="45.43226" lon="5.63404">
        <ele>689.8</ele>
        <time>2015-05-17T09:20:34Z</time>
      </trkpt>
      <trkpt lat="45.43232" lon="5.63416">
        <ele>689.1</ele>
        <time>2015-05-17T09:20:38Z</time>
      </trkpt>
      <trkpt lat="45.43232" lon="5.6343">
        <ele>687.9</ele>
        <time>2015-05-17T09:20:43Z</time>
      </trkpt>
      <trkpt lat="45.43232" lon="5.63443">
        <ele>686.9</ele>
        <time>2015-05-17T09:20:47Z</time>
      </trkpt>
      <trkpt lat="45.43234" lon="5.63449">
        <ele>685.6</ele>
        <time>2015-05-17T09:20:54Z</time>
      </trkpt>
      <trkpt lat="45.43237" lon="5.63482">
        <ele>680.2</ele>
        <time>2015-05-17T09:21:45Z</time>
      </trkpt>
      <trkpt lat="45.43237" lon="5.63492">
        <ele>680.3</ele>
        <time>2015-05-17T09:21:48Z</time>
      </trkpt>
      <trkpt lat="45.43237" lon="5.63509">
        <ele>680.3</ele>
        <time>2015-05-17T09:21:57Z</time>
      </trkpt>
      <trkpt lat="45.43237" lon="5.63518">
        <ele>680.3</ele>
        <time>2015-05-17T09:22:04Z</time>
      </trkpt>
      <trkpt lat="45.43239" lon="5.6352">
        <ele>680.3</ele>
        <time>2015-05-17T09:22:11Z</time>
      </trkpt>
      <trkpt lat="45.43245" lon="5.63536">
        <ele>680.4</ele>
        <time>2015-05-17T09:22:20Z</time>
      </trkpt>
      <trkpt lat="45.43249" lon="5.63546">
        <ele>680.9</ele>
        <time>2015-05-17T09:22:37Z</time>
      </trkpt>
      <trkpt lat="45.4325" lon="5.63547">
        <ele>681.7</ele>
        <time>2015-05-17T09:22:44Z</time>
      </trkpt>
      <trkpt lat="45.43251" lon="5.63549">
        <ele>682.7</ele>
        <time>2015-05-17T09:22:55Z</time>
      </trkpt>
      <trkpt lat="45.43254" lon="5.6356">
        <ele>683.5</ele>
        <time>2015-05-17T09:23:01Z</time>
      </trkpt>
      <trkpt lat="45.43258" lon="5.6357">
        <ele>683.9</ele>
        <time>2015-05-17T09:23:05Z</time>
      </trkpt>
      <trkpt lat="45.4326" lon="5.63581">
        <ele>684.2</ele>
        <time>2015-05-17T09:23:10Z</time>
      </trkpt>
      <trkpt lat="45.43262" lon="5.63591">
        <ele>684.9</ele>
        <time>2015-05-17T09:23:15Z</time>
      </trkpt>
      <trkpt lat="45.43263" lon="5.636">
        <ele>685.6</ele>
        <time>2015-05-17T09:23:22Z</time>
      </trkpt>
      <trkpt lat="45.43267" lon="5.63612">
        <ele>683.8</ele>
        <time>2015-05-17T09:23:52Z</time>
      </trkpt>
      <trkpt lat="45.43267" lon="5.63625">
        <ele>683.5</ele>
        <time>2015-05-17T09:23:55Z</time>
      </trkpt>
      <trkpt lat="45.43269" lon="5.63636">
        <ele>683.5</ele>
        <time>2015-05-17T09:23:58Z</time>
      </trkpt>
      <trkpt lat="45.43267" lon="5.6364">
        <ele>683.2</ele>
        <time>2015-05-17T09:24:14Z</time>
      </trkpt>
      <trkpt lat="45.43268" lon="5.6366">
        <ele>682.9</ele>
        <time>2015-05-17T09:24:27Z</time>
      </trkpt>
      <trkpt lat="45.43268" lon="5.63667">
        <ele>683</ele>
        <time>2015-05-17T09:24:34Z</time>
      </trkpt>
      <trkpt lat="45.43267" lon="5.63674">
        <ele>683.4</ele>
        <time>2015-05-17T09:24:41Z</time>
      </trkpt>
      <trkpt lat="45.43266" lon="5.63685">
        <ele>683.9</ele>
        <time>2015-05-17T09:24:46Z</time>
      </trkpt>
      <trkpt lat="45.43262" lon="5.63695">
        <ele>684.5</ele>
        <time>2015-05-17T09:24:53Z</time>
      </trkpt>
      <trkpt lat="45.43258" lon="5.63705">
        <ele>685.1</ele>
        <time>2015-05-17T09:24:57Z</time>
      </trkpt>
      <trkpt lat="45.43254" lon="5.63715">
        <ele>685.7</ele>
        <time>2015-05-17T09:25:01Z</time>
      </trkpt>
      <trkpt lat="45.4325" lon="5.63724">
        <ele>686.2</ele>
        <time>2015-05-17T09:25:08Z</time>
      </trkpt>
      <trkpt lat="45.43248" lon="5.63735">
        <ele>686.4</ele>
        <time>2015-05-17T09:25:13Z</time>
      </trkpt>
      <trkpt lat="45.43247" lon="5.63747">
        <ele>687.5</ele>
        <time>2015-05-17T09:25:19Z</time>
      </trkpt>
      <trkpt lat="45.43251" lon="5.63753">
        <ele>688.5</ele>
        <time>2015-05-17T09:25:26Z</time>
      </trkpt>
      <trkpt lat="45.43258" lon="5.63758">
        <ele>689.2</ele>
        <time>2015-05-17T09:25:32Z</time>
      </trkpt>
      <trkpt lat="45.43264" lon="5.63763">
        <ele>690.1</ele>
        <time>2015-05-17T09:25:37Z</time>
      </trkpt>
      <trkpt lat="45.43271" lon="5.6377">
        <ele>691.2</ele>
        <time>2015-05-17T09:25:42Z</time>
      </trkpt>
      <trkpt lat="45.43277" lon="5.63777">
        <ele>692.7</ele>
        <time>2015-05-17T09:25:47Z</time>
      </trkpt>
      <trkpt lat="45.43283" lon="5.63786">
        <ele>694.4</ele>
        <time>2015-05-17T09:25:53Z</time>
      </trkpt>
      <trkpt lat="45.43288" lon="5.63795">
        <ele>696.6</ele>
        <time>2015-05-17T09:26:00Z</time>
      </trkpt>
      <trkpt lat="45.43294" lon="5.63802">
        <ele>698.2</ele>
        <time>2015-05-17T09:26:05Z</time>
      </trkpt>
      <trkpt lat="45.433" lon="5.63809">
        <ele>699.6</ele>
        <time>2015-05-17T09:26:10Z</time>
      </trkpt>
      <trkpt lat="45.43307" lon="5.63815">
        <ele>700.8</ele>
        <time>2015-05-17T09:26:14Z</time>
      </trkpt>
      <trkpt lat="45.43312" lon="5.63825">
        <ele>701.8</ele>
        <time>2015-05-17T09:26:19Z</time>
      </trkpt>
      <trkpt lat="45.43317" lon="5.63835">
        <ele>703.7</ele>
        <time>2015-05-17T09:26:26Z</time>
      </trkpt>
      <trkpt lat="45.4332" lon="5.63845">
        <ele>704.7</ele>
        <time>2015-05-17T09:26:31Z</time>
      </trkpt>
      <trkpt lat="45.43324" lon="5.63856">
        <ele>705</ele>
        <time>2015-05-17T09:26:35Z</time>
      </trkpt>
      <trkpt lat="45.43328" lon="5.63864">
        <ele>705.5</ele>
        <time>2015-05-17T09:26:39Z</time>
      </trkpt>
      <trkpt lat="45.43333" lon="5.63874">
        <ele>705.7</ele>
        <time>2015-05-17T09:26:43Z</time>
      </trkpt>
      <trkpt lat="45.43338" lon="5.63882">
        <ele>706</ele>
        <time>2015-05-17T09:26:47Z</time>
      </trkpt>
      <trkpt lat="45.4334" lon="5.63892">
        <ele>706.4</ele>
        <time>2015-05-17T09:26:53Z</time>
      </trkpt>
      <trkpt lat="45.43341" lon="5.63905">
        <ele>706.7</ele>
        <time>2015-05-17T09:26:58Z</time>
      </trkpt>
      <trkpt lat="45.43339" lon="5.63917">
        <ele>707.1</ele>
        <time>2015-05-17T09:27:03Z</time>
      </trkpt>
      <trkpt lat="45.43335" lon="5.63927">
        <ele>707.8</ele>
        <time>2015-05-17T09:27:07Z</time>
      </trkpt>
      <trkpt lat="45.43333" lon="5.63939">
        <ele>708.5</ele>
        <time>2015-05-17T09:27:11Z</time>
      </trkpt>
      <trkpt lat="45.43331" lon="5.63951">
        <ele>709.8</ele>
        <time>2015-05-17T09:27:16Z</time>
      </trkpt>
      <trkpt lat="45.4333" lon="5.63962">
        <ele>711.4</ele>
        <time>2015-05-17T09:27:20Z</time>
      </trkpt>
      <trkpt lat="45.4333" lon="5.63973">
        <ele>713.6</ele>
        <time>2015-05-17T09:27:25Z</time>
      </trkpt>
      <trkpt lat="45.43329" lon="5.63985">
        <ele>715.6</ele>
        <time>2015-05-17T09:27:32Z</time>
      </trkpt>
      <trkpt lat="45.43329" lon="5.63997">
        <ele>716.8</ele>
        <time>2015-05-17T09:27:38Z</time>
      </trkpt>
      <trkpt lat="45.43326" lon="5.64009">
        <ele>717.2</ele>
        <time>2015-05-17T09:27:44Z</time>
      </trkpt>
      <trkpt lat="45.43324" lon="5.64018">
        <ele>717.5</ele>
        <time>2015-05-17T09:27:47Z</time>
      </trkpt>
      <trkpt lat="45.43324" lon="5.64029">
        <ele>718.3</ele>
        <time>2015-05-17T09:27:53Z</time>
      </trkpt>
      <trkpt lat="45.43323" lon="5.64041">
        <ele>719</ele>
        <time>2015-05-17T09:27:58Z</time>
      </trkpt>
      <trkpt lat="45.43327" lon="5.64058">
        <ele>721.8</ele>
        <time>2015-05-17T09:28:10Z</time>
      </trkpt>
      <trkpt lat="45.43331" lon="5.64068">
        <ele>723.3</ele>
        <time>2015-05-17T09:28:16Z</time>
      </trkpt>
      <trkpt lat="45.43334" lon="5.64078">
        <ele>724.7</ele>
        <time>2015-05-17T09:28:21Z</time>
      </trkpt>
      <trkpt lat="45.43336" lon="5.64091">
        <ele>726</ele>
        <time>2015-05-17T09:28:25Z</time>
      </trkpt>
      <trkpt lat="45.4334" lon="5.64101">
        <ele>726.7</ele>
        <time>2015-05-17T09:28:28Z</time>
      </trkpt>
      <trkpt lat="45.43343" lon="5.64115">
        <ele>727.5</ele>
        <time>2015-05-17T09:28:31Z</time>
      </trkpt>
      <trkpt lat="45.43344" lon="5.64126">
        <ele>728</ele>
        <time>2015-05-17T09:28:34Z</time>
      </trkpt>
      <trkpt lat="45.43345" lon="5.6414">
        <ele>728.4</ele>
        <time>2015-05-17T09:28:38Z</time>
      </trkpt>
      <trkpt lat="45.43348" lon="5.64152">
        <ele>728.7</ele>
        <time>2015-05-17T09:28:42Z</time>
      </trkpt>
      <trkpt lat="45.43351" lon="5.64164">
        <ele>728.7</ele>
        <time>2015-05-17T09:28:45Z</time>
      </trkpt>
      <trkpt lat="45.43353" lon="5.64176">
        <ele>728.7</ele>
        <time>2015-05-17T09:28:48Z</time>
      </trkpt>
      <trkpt lat="45.43353" lon="5.64187">
        <ele>728.7</ele>
        <time>2015-05-17T09:28:51Z</time>
      </trkpt>
      <trkpt lat="45.43354" lon="5.64199">
        <ele>728.4</ele>
        <time>2015-05-17T09:28:55Z</time>
      </trkpt>
      <trkpt lat="45.43355" lon="5.6421">
        <ele>728.5</ele>
        <time>2015-05-17T09:28:58Z</time>
      </trkpt>
      <trkpt lat="45.43355" lon="5.64221">
        <ele>728.4</ele>
        <time>2015-05-17T09:29:01Z</time>
      </trkpt>
      <trkpt lat="45.43357" lon="5.64232">
        <ele>728.2</ele>
        <time>2015-05-17T09:29:04Z</time>
      </trkpt>
      <trkpt lat="45.43358" lon="5.64243">
        <ele>728</ele>
        <time>2015-05-17T09:29:08Z</time>
      </trkpt>
      <trkpt lat="45.43361" lon="5.64251">
        <ele>727.7</ele>
        <time>2015-05-17T09:29:15Z</time>
      </trkpt>
      <trkpt lat="45.4336" lon="5.64256">
        <ele>725.8</ele>
        <time>2015-05-17T09:29:29Z</time>
      </trkpt>
      <trkpt lat="45.4336" lon="5.64255">
        <ele>725.4</ele>
        <time>2015-05-17T09:29:36Z</time>
      </trkpt>
      <trkpt lat="45.43363" lon="5.6427">
        <ele>724.5</ele>
        <time>2015-05-17T09:30:03Z</time>
      </trkpt>
      <trkpt lat="45.43367" lon="5.64282">
        <ele>725</ele>
        <time>2015-05-17T09:30:07Z</time>
      </trkpt>
      <trkpt lat="45.43369" lon="5.64295">
        <ele>725.7</ele>
        <time>2015-05-17T09:30:11Z</time>
      </trkpt>
      <trkpt lat="45.43371" lon="5.64305">
        <ele>726.2</ele>
        <time>2015-05-17T09:30:14Z</time>
      </trkpt>
      <trkpt lat="45.43374" lon="5.64318">
        <ele>726.8</ele>
        <time>2015-05-17T09:30:17Z</time>
      </trkpt>
      <trkpt lat="45.43377" lon="5.6433">
        <ele>727.3</ele>
        <time>2015-05-17T09:30:20Z</time>
      </trkpt>
      <trkpt lat="45.4338" lon="5.64342">
        <ele>727.6</ele>
        <time>2015-05-17T09:30:23Z</time>
      </trkpt>
      <trkpt lat="45.43383" lon="5.64354">
        <ele>728</ele>
        <time>2015-05-17T09:30:27Z</time>
      </trkpt>
      <trkpt lat="45.43386" lon="5.64364">
        <ele>728.1</ele>
        <time>2015-05-17T09:30:30Z</time>
      </trkpt>
      <trkpt lat="45.43394" lon="5.64369">
        <ele>728.2</ele>
        <time>2015-05-17T09:30:33Z</time>
      </trkpt>
      <trkpt lat="45.43403" lon="5.6437">
        <ele>728.4</ele>
        <time>2015-05-17T09:30:36Z</time>
      </trkpt>
      <trkpt lat="45.43411" lon="5.64368">
        <ele>728.8</ele>
        <time>2015-05-17T09:30:39Z</time>
      </trkpt>
      <trkpt lat="45.43418" lon="5.64358">
        <ele>730.3</ele>
        <time>2015-05-17T09:30:42Z</time>
      </trkpt>
      <trkpt lat="45.4342" lon="5.64345">
        <ele>729.7</ele>
        <time>2015-05-17T09:30:45Z</time>
      </trkpt>
      <trkpt lat="45.43425" lon="5.64335">
        <ele>729.5</ele>
        <time>2015-05-17T09:30:48Z</time>
      </trkpt>
      <trkpt lat="45.43431" lon="5.64325">
        <ele>729.3</ele>
        <time>2015-05-17T09:30:51Z</time>
      </trkpt>
      <trkpt lat="45.43437" lon="5.64311">
        <ele>729.2</ele>
        <time>2015-05-17T09:30:54Z</time>
      </trkpt>
      <trkpt lat="45.43441" lon="5.643">
        <ele>728.9</ele>
        <time>2015-05-17T09:30:56Z</time>
      </trkpt>
      <trkpt lat="45.43445" lon="5.6429">
        <ele>729</ele>
        <time>2015-05-17T09:30:58Z</time>
      </trkpt>
      <trkpt lat="45.43449" lon="5.64279">
        <ele>729.8</ele>
        <time>2015-05-17T09:31:00Z</time>
      </trkpt>
      <trkpt lat="45.43452" lon="5.64267">
        <ele>730.5</ele>
        <time>2015-05-17T09:31:02Z</time>
      </trkpt>
      <trkpt lat="45.43454" lon="5.64255">
        <ele>730.8</ele>
        <time>2015-05-17T09:31:04Z</time>
      </trkpt>
      <trkpt lat="45.43457" lon="5.64243">
        <ele>731</ele>
        <time>2015-05-17T09:31:06Z</time>
      </trkpt>
      <trkpt lat="45.4346" lon="5.64233">
        <ele>731.4</ele>
        <time>2015-05-17T09:31:08Z</time>
      </trkpt>
      <trkpt lat="45.43465" lon="5.64221">
        <ele>731.4</ele>
        <time>2015-05-17T09:31:11Z</time>
      </trkpt>
      <trkpt lat="45.43471" lon="5.64213">
        <ele>731.4</ele>
        <time>2015-05-17T09:31:14Z</time>
      </trkpt>
      <trkpt lat="45.43478" lon="5.64205">
        <ele>731.5</ele>
        <time>2015-05-17T09:31:18Z</time>
      </trkpt>
      <trkpt lat="45.43484" lon="5.64199">
        <ele>731.8</ele>
        <time>2015-05-17T09:31:21Z</time>
      </trkpt>
      <trkpt lat="45.43492" lon="5.64195">
        <ele>732.2</ele>
        <time>2015-05-17T09:31:24Z</time>
      </trkpt>
      <trkpt lat="45.43499" lon="5.64189">
        <ele>732.4</ele>
        <time>2015-05-17T09:31:27Z</time>
      </trkpt>
      <trkpt lat="45.43506" lon="5.64184">
        <ele>732.5</ele>
        <time>2015-05-17T09:31:30Z</time>
      </trkpt>
      <trkpt lat="45.43514" lon="5.64177">
        <ele>733</ele>
        <time>2015-05-17T09:31:34Z</time>
      </trkpt>
      <trkpt lat="45.43521" lon="5.64171">
        <ele>733.5</ele>
        <time>2015-05-17T09:31:38Z</time>
      </trkpt>
      <trkpt lat="45.43527" lon="5.64165">
        <ele>733.9</ele>
        <time>2015-05-17T09:31:41Z</time>
      </trkpt>
      <trkpt lat="45.43534" lon="5.64158">
        <ele>734.4</ele>
        <time>2015-05-17T09:31:45Z</time>
      </trkpt>
      <trkpt lat="45.43541" lon="5.64152">
        <ele>734.8</ele>
        <time>2015-05-17T09:31:49Z</time>
      </trkpt>
      <trkpt lat="45.43548" lon="5.64147">
        <ele>735.2</ele>
        <time>2015-05-17T09:31:53Z</time>
      </trkpt>
      <trkpt lat="45.43555" lon="5.64141">
        <ele>735.9</ele>
        <time>2015-05-17T09:31:58Z</time>
      </trkpt>
      <trkpt lat="45.43562" lon="5.64138">
        <ele>737</ele>
        <time>2015-05-17T09:32:04Z</time>
      </trkpt>
      <trkpt lat="45.43569" lon="5.64137">
        <ele>737.9</ele>
        <time>2015-05-17T09:32:09Z</time>
      </trkpt>
      <trkpt lat="45.43576" lon="5.64129">
        <ele>738.5</ele>
        <time>2015-05-17T09:32:13Z</time>
      </trkpt>
      <trkpt lat="45.43582" lon="5.64123">
        <ele>739</ele>
        <time>2015-05-17T09:32:17Z</time>
      </trkpt>
      <trkpt lat="45.43588" lon="5.64115">
        <ele>740.1</ele>
        <time>2015-05-17T09:32:23Z</time>
      </trkpt>
      <trkpt lat="45.43595" lon="5.64111">
        <ele>741</ele>
        <time>2015-05-17T09:32:30Z</time>
      </trkpt>
      <trkpt lat="45.43602" lon="5.64105">
        <ele>742.1</ele>
        <time>2015-05-17T09:32:35Z</time>
      </trkpt>
      <trkpt lat="45.43607" lon="5.64098">
        <ele>742.6</ele>
        <time>2015-05-17T09:32:38Z</time>
      </trkpt>
      <trkpt lat="45.43615" lon="5.64093">
        <ele>743.6</ele>
        <time>2015-05-17T09:32:42Z</time>
      </trkpt>
      <trkpt lat="45.43622" lon="5.64087">
        <ele>744.2</ele>
        <time>2015-05-17T09:32:46Z</time>
      </trkpt>
      <trkpt lat="45.43631" lon="5.64082">
        <ele>745</ele>
        <time>2015-05-17T09:32:50Z</time>
      </trkpt>
      <trkpt lat="45.43639" lon="5.64077">
        <ele>745.6</ele>
        <time>2015-05-17T09:32:54Z</time>
      </trkpt>
      <trkpt lat="45.43646" lon="5.6407">
        <ele>746.8</ele>
        <time>2015-05-17T09:32:59Z</time>
      </trkpt>
      <trkpt lat="45.43653" lon="5.64067">
        <ele>748.1</ele>
        <time>2015-05-17T09:33:03Z</time>
      </trkpt>
      <trkpt lat="45.43661" lon="5.64065">
        <ele>749.3</ele>
        <time>2015-05-17T09:33:07Z</time>
      </trkpt>
      <trkpt lat="45.43669" lon="5.64065">
        <ele>750.4</ele>
        <time>2015-05-17T09:33:11Z</time>
      </trkpt>
      <trkpt lat="45.43677" lon="5.64065">
        <ele>751.1</ele>
        <time>2015-05-17T09:33:14Z</time>
      </trkpt>
      <trkpt lat="45.43685" lon="5.64065">
        <ele>751.8</ele>
        <time>2015-05-17T09:33:17Z</time>
      </trkpt>
      <trkpt lat="45.43694" lon="5.64063">
        <ele>752.7</ele>
        <time>2015-05-17T09:33:21Z</time>
      </trkpt>
      <trkpt lat="45.43701" lon="5.64061">
        <ele>753.3</ele>
        <time>2015-05-17T09:33:24Z</time>
      </trkpt>
      <trkpt lat="45.43708" lon="5.6406">
        <ele>753.9</ele>
        <time>2015-05-17T09:33:27Z</time>
      </trkpt>
      <trkpt lat="45.43718" lon="5.64059">
        <ele>755</ele>
        <time>2015-05-17T09:33:31Z</time>
      </trkpt>
      <trkpt lat="45.43727" lon="5.64061">
        <ele>755.7</ele>
        <time>2015-05-17T09:33:34Z</time>
      </trkpt>
      <trkpt lat="45.43735" lon="5.64064">
        <ele>756.5</ele>
        <time>2015-05-17T09:33:37Z</time>
      </trkpt>
      <trkpt lat="45.43744" lon="5.6407">
        <ele>757.3</ele>
        <time>2015-05-17T09:33:40Z</time>
      </trkpt>
      <trkpt lat="45.43752" lon="5.64076">
        <ele>758.2</ele>
        <time>2015-05-17T09:33:43Z</time>
      </trkpt>
      <trkpt lat="45.43761" lon="5.64082">
        <ele>759.1</ele>
        <time>2015-05-17T09:33:46Z</time>
      </trkpt>
      <trkpt lat="45.43768" lon="5.64088">
        <ele>759.9</ele>
        <time>2015-05-17T09:33:49Z</time>
      </trkpt>
      <trkpt lat="45.43774" lon="5.64094">
        <ele>760.7</ele>
        <time>2015-05-17T09:33:52Z</time>
      </trkpt>
      <trkpt lat="45.4378" lon="5.64101">
        <ele>761.3</ele>
        <time>2015-05-17T09:33:55Z</time>
      </trkpt>
      <trkpt lat="45.43788" lon="5.64107">
        <ele>762</ele>
        <time>2015-05-17T09:33:58Z</time>
      </trkpt>
      <trkpt lat="45.43795" lon="5.64113">
        <ele>762.7</ele>
        <time>2015-05-17T09:34:01Z</time>
      </trkpt>
      <trkpt lat="45.43802" lon="5.64118">
        <ele>763.6</ele>
        <time>2015-05-17T09:34:05Z</time>
      </trkpt>
      <trkpt lat="45.43804" lon="5.6412">
        <ele>764.1</ele>
        <time>2015-05-17T09:34:12Z</time>
      </trkpt>
      <trkpt lat="45.43807" lon="5.64124">
        <ele>766</ele>
        <time>2015-05-17T09:34:41Z</time>
      </trkpt>
      <trkpt lat="45.43806" lon="5.64126">
        <ele>767.2</ele>
        <time>2015-05-17T09:35:03Z</time>
      </trkpt>
      <trkpt lat="45.43807" lon="5.64126">
        <ele>770</ele>
        <time>2015-05-17T09:36:57Z</time>
      </trkpt>
      <trkpt lat="45.43808" lon="5.64126">
        <ele>770</ele>
        <time>2015-05-17T09:37:04Z</time>
      </trkpt>
      <trkpt lat="45.43807" lon="5.64122">
        <ele>770.5</ele>
        <time>2015-05-17T09:37:16Z</time>
      </trkpt>
      <trkpt lat="45.43804" lon="5.64122">
        <ele>770.3</ele>
        <time>2015-05-17T09:37:35Z</time>
      </trkpt>
      <trkpt lat="45.43806" lon="5.64121">
        <ele>770.6</ele>
        <time>2015-05-17T09:37:49Z</time>
      </trkpt>
      <trkpt lat="45.43808" lon="5.64125">
        <ele>770.5</ele>
        <time>2015-05-17T09:38:03Z</time>
      </trkpt>
      <trkpt lat="45.43807" lon="5.64125">
        <ele>770.6</ele>
        <time>2015-05-17T09:39:15Z</time>
      </trkpt>
      <trkpt lat="45.43805" lon="5.64126">
        <ele>770.6</ele>
        <time>2015-05-17T09:39:22Z</time>
      </trkpt>
      <trkpt lat="45.43804" lon="5.64124">
        <ele>770.4</ele>
        <time>2015-05-17T09:39:47Z</time>
      </trkpt>
      <trkpt lat="45.43806" lon="5.64121">
        <ele>771.4</ele>
        <time>2015-05-17T09:41:17Z</time>
      </trkpt>
      <trkpt lat="45.43806" lon="5.64125">
        <ele>772</ele>
        <time>2015-05-17T09:41:37Z</time>
      </trkpt>
      <trkpt lat="45.43806" lon="5.64124">
        <ele>772.3</ele>
        <time>2015-05-17T09:43:41Z</time>
      </trkpt>
      <trkpt lat="45.43806" lon="5.64127">
        <ele>772.1</ele>
        <time>2015-05-17T09:44:07Z</time>
      </trkpt>
      <trkpt lat="45.43806" lon="5.64134">
        <ele>771.9</ele>
        <time>2015-05-17T09:44:20Z</time>
      </trkpt>
      <trkpt lat="45.43807" lon="5.64143">
        <ele>772.3</ele>
        <time>2015-05-17T09:44:42Z</time>
      </trkpt>
      <trkpt lat="45.43808" lon="5.64154">
        <ele>772.6</ele>
        <time>2015-05-17T09:44:45Z</time>
      </trkpt>
      <trkpt lat="45.43808" lon="5.64164">
        <ele>772.9</ele>
        <time>2015-05-17T09:44:48Z</time>
      </trkpt>
      <trkpt lat="45.43811" lon="5.64174">
        <ele>773</ele>
        <time>2015-05-17T09:44:51Z</time>
      </trkpt>
      <trkpt lat="45.43815" lon="5.64186">
        <ele>773.2</ele>
        <time>2015-05-17T09:44:55Z</time>
      </trkpt>
      <trkpt lat="45.43818" lon="5.64196">
        <ele>773.3</ele>
        <time>2015-05-17T09:44:58Z</time>
      </trkpt>
      <trkpt lat="45.43823" lon="5.64206">
        <ele>773.4</ele>
        <time>2015-05-17T09:45:01Z</time>
      </trkpt>
      <trkpt lat="45.43827" lon="5.64221">
        <ele>772.8</ele>
        <time>2015-05-17T09:45:04Z</time>
      </trkpt>
      <trkpt lat="45.4383" lon="5.64233">
        <ele>772.5</ele>
        <time>2015-05-17T09:45:06Z</time>
      </trkpt>
      <trkpt lat="45.43832" lon="5.64245">
        <ele>772.1</ele>
        <time>2015-05-17T09:45:08Z</time>
      </trkpt>
      <trkpt lat="45.43835" lon="5.64257">
        <ele>771.7</ele>
        <time>2015-05-17T09:45:10Z</time>
      </trkpt>
      <trkpt lat="45.43839" lon="5.64269">
        <ele>771.2</ele>
        <time>2015-05-17T09:45:12Z</time>
      </trkpt>
      <trkpt lat="45.43842" lon="5.6428">
        <ele>770.6</ele>
        <time>2015-05-17T09:45:14Z</time>
      </trkpt>
      <trkpt lat="45.43845" lon="5.64291">
        <ele>770.1</ele>
        <time>2015-05-17T09:45:16Z</time>
      </trkpt>
      <trkpt lat="45.43847" lon="5.64303">
        <ele>770.1</ele>
        <time>2015-05-17T09:45:18Z</time>
      </trkpt>
      <trkpt lat="45.43848" lon="5.64316">
        <ele>769.9</ele>
        <time>2015-05-17T09:45:20Z</time>
      </trkpt>
      <trkpt lat="45.43849" lon="5.64327">
        <ele>769.6</ele>
        <time>2015-05-17T09:45:22Z</time>
      </trkpt>
      <trkpt lat="45.43851" lon="5.64338">
        <ele>769.5</ele>
        <time>2015-05-17T09:45:24Z</time>
      </trkpt>
      <trkpt lat="45.43854" lon="5.64352">
        <ele>769.5</ele>
        <time>2015-05-17T09:45:27Z</time>
      </trkpt>
      <trkpt lat="45.43857" lon="5.64364">
        <ele>770.6</ele>
        <time>2015-05-17T09:45:30Z</time>
      </trkpt>
      <trkpt lat="45.43862" lon="5.64374">
        <ele>771.1</ele>
        <time>2015-05-17T09:45:32Z</time>
      </trkpt>
      <trkpt lat="45.43869" lon="5.64384">
        <ele>772.4</ele>
        <time>2015-05-17T09:45:34Z</time>
      </trkpt>
      <trkpt lat="45.43877" lon="5.64392">
        <ele>773.2</ele>
        <time>2015-05-17T09:45:36Z</time>
      </trkpt>
      <trkpt lat="45.43888" lon="5.64401">
        <ele>772.7</ele>
        <time>2015-05-17T09:45:38Z</time>
      </trkpt>
      <trkpt lat="45.43898" lon="5.64412">
        <ele>771.9</ele>
        <time>2015-05-17T09:45:40Z</time>
      </trkpt>
      <trkpt lat="45.43906" lon="5.64425">
        <ele>771.1</ele>
        <time>2015-05-17T09:45:42Z</time>
      </trkpt>
      <trkpt lat="45.43914" lon="5.64435">
        <ele>770.7</ele>
        <time>2015-05-17T09:45:44Z</time>
      </trkpt>
      <trkpt lat="45.43922" lon="5.64444">
        <ele>770.7</ele>
        <time>2015-05-17T09:45:46Z</time>
      </trkpt>
      <trkpt lat="45.43932" lon="5.64449">
        <ele>770.3</ele>
        <time>2015-05-17T09:45:48Z</time>
      </trkpt>
      <trkpt lat="45.43944" lon="5.64455">
        <ele>768.4</ele>
        <time>2015-05-17T09:45:50Z</time>
      </trkpt>
      <trkpt lat="45.43956" lon="5.64463">
        <ele>766.5</ele>
        <time>2015-05-17T09:45:52Z</time>
      </trkpt>
      <trkpt lat="45.43969" lon="5.64472">
        <ele>766.3</ele>
        <time>2015-05-17T09:45:54Z</time>
      </trkpt>
      <trkpt lat="45.43976" lon="5.64477">
        <ele>766</ele>
        <time>2015-05-17T09:45:55Z</time>
      </trkpt>
      <trkpt lat="45.43984" lon="5.64482">
        <ele>765.6</ele>
        <time>2015-05-17T09:45:56Z</time>
      </trkpt>
      <trkpt lat="45.43992" lon="5.64487">
        <ele>765.1</ele>
        <time>2015-05-17T09:45:57Z</time>
      </trkpt>
      <trkpt lat="45.44" lon="5.64492">
        <ele>764.4</ele>
        <time>2015-05-17T09:45:58Z</time>
      </trkpt>
      <trkpt lat="45.44008" lon="5.64496">
        <ele>763.1</ele>
        <time>2015-05-17T09:45:59Z</time>
      </trkpt>
      <trkpt lat="45.44015" lon="5.64501">
        <ele>762</ele>
        <time>2015-05-17T09:46:00Z</time>
      </trkpt>
      <trkpt lat="45.44027" lon="5.64509">
        <ele>760.1</ele>
        <time>2015-05-17T09:46:02Z</time>
      </trkpt>
      <trkpt lat="45.44036" lon="5.64518">
        <ele>758</ele>
        <time>2015-05-17T09:46:04Z</time>
      </trkpt>
      <trkpt lat="45.44046" lon="5.64529">
        <ele>756.6</ele>
        <time>2015-05-17T09:46:06Z</time>
      </trkpt>
      <trkpt lat="45.44053" lon="5.64535">
        <ele>756.2</ele>
        <time>2015-05-17T09:46:07Z</time>
      </trkpt>
      <trkpt lat="45.44062" lon="5.64542">
        <ele>755.7</ele>
        <time>2015-05-17T09:46:09Z</time>
      </trkpt>
      <trkpt lat="45.44072" lon="5.64546">
        <ele>754.7</ele>
        <time>2015-05-17T09:46:11Z</time>
      </trkpt>
      <trkpt lat="45.4408" lon="5.64544">
        <ele>754.4</ele>
        <time>2015-05-17T09:46:13Z</time>
      </trkpt>
      <trkpt lat="45.44085" lon="5.64536">
        <ele>754.1</ele>
        <time>2015-05-17T09:46:17Z</time>
      </trkpt>
      <trkpt lat="45.44089" lon="5.64525">
        <ele>752.8</ele>
        <time>2015-05-17T09:46:21Z</time>
      </trkpt>
      <trkpt lat="45.4409" lon="5.64511">
        <ele>751.2</ele>
        <time>2015-05-17T09:46:23Z</time>
      </trkpt>
      <trkpt lat="45.44095" lon="5.64501">
        <ele>751</ele>
        <time>2015-05-17T09:46:25Z</time>
      </trkpt>
      <trkpt lat="45.44104" lon="5.64497">
        <ele>750.6</ele>
        <time>2015-05-17T09:46:30Z</time>
      </trkpt>
      <trkpt lat="45.4411" lon="5.64506">
        <ele>750.6</ele>
        <time>2015-05-17T09:46:33Z</time>
      </trkpt>
      <trkpt lat="45.44114" lon="5.64515">
        <ele>750.8</ele>
        <time>2015-05-17T09:46:35Z</time>
      </trkpt>
      <trkpt lat="45.4412" lon="5.64525">
        <ele>751.4</ele>
        <time>2015-05-17T09:46:37Z</time>
      </trkpt>
      <trkpt lat="45.44125" lon="5.64533">
        <ele>751.4</ele>
        <time>2015-05-17T09:46:39Z</time>
      </trkpt>
      <trkpt lat="45.44134" lon="5.64546">
        <ele>750.3</ele>
        <time>2015-05-17T09:46:41Z</time>
      </trkpt>
      <trkpt lat="45.44144" lon="5.64557">
        <ele>750.4</ele>
        <time>2015-05-17T09:46:43Z</time>
      </trkpt>
      <trkpt lat="45.44152" lon="5.64563">
        <ele>750.4</ele>
        <time>2015-05-17T09:46:45Z</time>
      </trkpt>
      <trkpt lat="45.44161" lon="5.64573">
        <ele>751.5</ele>
        <time>2015-05-17T09:46:47Z</time>
      </trkpt>
      <trkpt lat="45.4417" lon="5.64581">
        <ele>750.7</ele>
        <time>2015-05-17T09:46:49Z</time>
      </trkpt>
      <trkpt lat="45.44176" lon="5.64586">
        <ele>750.6</ele>
        <time>2015-05-17T09:46:50Z</time>
      </trkpt>
      <trkpt lat="45.44189" lon="5.64597">
        <ele>750.2</ele>
        <time>2015-05-17T09:46:52Z</time>
      </trkpt>
      <trkpt lat="45.44199" lon="5.64607">
        <ele>746.2</ele>
        <time>2015-05-17T09:46:54Z</time>
      </trkpt>
      <trkpt lat="45.4421" lon="5.64616">
        <ele>743.4</ele>
        <time>2015-05-17T09:46:56Z</time>
      </trkpt>
      <trkpt lat="45.44219" lon="5.64623">
        <ele>741.9</ele>
        <time>2015-05-17T09:46:58Z</time>
      </trkpt>
      <trkpt lat="45.4423" lon="5.64631">
        <ele>740.8</ele>
        <time>2015-05-17T09:47:00Z</time>
      </trkpt>
      <trkpt lat="45.44241" lon="5.64637">
        <ele>739.3</ele>
        <time>2015-05-17T09:47:02Z</time>
      </trkpt>
      <trkpt lat="45.44248" lon="5.64644">
        <ele>738.7</ele>
        <time>2015-05-17T09:47:04Z</time>
      </trkpt>
      <trkpt lat="45.44255" lon="5.64649">
        <ele>738.5</ele>
        <time>2015-05-17T09:47:06Z</time>
      </trkpt>
      <trkpt lat="45.44261" lon="5.64654">
        <ele>738.3</ele>
        <time>2015-05-17T09:47:08Z</time>
      </trkpt>
      <trkpt lat="45.44271" lon="5.64662">
        <ele>736.1</ele>
        <time>2015-05-17T09:47:10Z</time>
      </trkpt>
      <trkpt lat="45.4428" lon="5.6467">
        <ele>735.4</ele>
        <time>2015-05-17T09:47:12Z</time>
      </trkpt>
      <trkpt lat="45.44288" lon="5.64675">
        <ele>734.8</ele>
        <time>2015-05-17T09:47:14Z</time>
      </trkpt>
      <trkpt lat="45.44297" lon="5.64679">
        <ele>733.1</ele>
        <time>2015-05-17T09:47:16Z</time>
      </trkpt>
      <trkpt lat="45.44302" lon="5.64688">
        <ele>732.2</ele>
        <time>2015-05-17T09:47:18Z</time>
      </trkpt>
      <trkpt lat="45.44309" lon="5.64699">
        <ele>731.8</ele>
        <time>2015-05-17T09:47:20Z</time>
      </trkpt>
      <trkpt lat="45.44317" lon="5.6471">
        <ele>732.3</ele>
        <time>2015-05-17T09:47:22Z</time>
      </trkpt>
      <trkpt lat="45.44323" lon="5.64721">
        <ele>733.3</ele>
        <time>2015-05-17T09:47:24Z</time>
      </trkpt>
      <trkpt lat="45.4433" lon="5.64735">
        <ele>732.8</ele>
        <time>2015-05-17T09:47:26Z</time>
      </trkpt>
      <trkpt lat="45.44338" lon="5.64745">
        <ele>732.1</ele>
        <time>2015-05-17T09:47:28Z</time>
      </trkpt>
      <trkpt lat="45.44346" lon="5.64755">
        <ele>732.1</ele>
        <time>2015-05-17T09:47:30Z</time>
      </trkpt>
      <trkpt lat="45.44356" lon="5.64763">
        <ele>732.2</ele>
        <time>2015-05-17T09:47:32Z</time>
      </trkpt>
      <trkpt lat="45.44366" lon="5.64776">
        <ele>731.4</ele>
        <time>2015-05-17T09:47:34Z</time>
      </trkpt>
      <trkpt lat="45.44371" lon="5.64784">
        <ele>730.4</ele>
        <time>2015-05-17T09:47:35Z</time>
      </trkpt>
      <trkpt lat="45.44377" lon="5.64791">
        <ele>730.7</ele>
        <time>2015-05-17T09:47:36Z</time>
      </trkpt>
      <trkpt lat="45.44387" lon="5.64802">
        <ele>730.4</ele>
        <time>2015-05-17T09:47:38Z</time>
      </trkpt>
      <trkpt lat="45.44395" lon="5.64812">
        <ele>730.4</ele>
        <time>2015-05-17T09:47:40Z</time>
      </trkpt>
      <trkpt lat="45.44403" lon="5.64823">
        <ele>730.4</ele>
        <time>2015-05-17T09:47:42Z</time>
      </trkpt>
      <trkpt lat="45.44412" lon="5.6483">
        <ele>730.3</ele>
        <time>2015-05-17T09:47:44Z</time>
      </trkpt>
      <trkpt lat="45.44423" lon="5.64841">
        <ele>728.6</ele>
        <time>2015-05-17T09:47:46Z</time>
      </trkpt>
      <trkpt lat="45.44431" lon="5.64851">
        <ele>728.3</ele>
        <time>2015-05-17T09:47:48Z</time>
      </trkpt>
      <trkpt lat="45.44437" lon="5.64859">
        <ele>727.7</ele>
        <time>2015-05-17T09:47:50Z</time>
      </trkpt>
      <trkpt lat="45.44444" lon="5.6487">
        <ele>724.5</ele>
        <time>2015-05-17T09:47:52Z</time>
      </trkpt>
      <trkpt lat="45.44449" lon="5.64878">
        <ele>724.2</ele>
        <time>2015-05-17T09:47:53Z</time>
      </trkpt>
      <trkpt lat="45.44454" lon="5.64887">
        <ele>721.1</ele>
        <time>2015-05-17T09:47:54Z</time>
      </trkpt>
      <trkpt lat="45.44464" lon="5.64901">
        <ele>716.2</ele>
        <time>2015-05-17T09:47:56Z</time>
      </trkpt>
      <trkpt lat="45.44472" lon="5.64914">
        <ele>713.9</ele>
        <time>2015-05-17T09:47:58Z</time>
      </trkpt>
      <trkpt lat="45.4448" lon="5.64921">
        <ele>713.4</ele>
        <time>2015-05-17T09:48:01Z</time>
      </trkpt>
      <trkpt lat="45.44489" lon="5.64919">
        <ele>713</ele>
        <time>2015-05-17T09:48:05Z</time>
      </trkpt>
      <trkpt lat="45.44496" lon="5.64916">
        <ele>712.7</ele>
        <time>2015-05-17T09:48:07Z</time>
      </trkpt>
      <trkpt lat="45.44504" lon="5.64915">
        <ele>712.3</ele>
        <time>2015-05-17T09:48:10Z</time>
      </trkpt>
      <trkpt lat="45.44518" lon="5.64925">
        <ele>711</ele>
        <time>2015-05-17T09:48:18Z</time>
      </trkpt>
      <trkpt lat="45.44527" lon="5.64922">
        <ele>710.8</ele>
        <time>2015-05-17T09:48:22Z</time>
      </trkpt>
      <trkpt lat="45.44536" lon="5.64921">
        <ele>710.3</ele>
        <time>2015-05-17T09:48:25Z</time>
      </trkpt>
      <trkpt lat="45.44544" lon="5.64925">
        <ele>709.8</ele>
        <time>2015-05-17T09:48:28Z</time>
      </trkpt>
      <trkpt lat="45.4455" lon="5.64929">
        <ele>709.1</ele>
        <time>2015-05-17T09:48:32Z</time>
      </trkpt>
      <trkpt lat="45.44557" lon="5.64927">
        <ele>708.4</ele>
        <time>2015-05-17T09:48:36Z</time>
      </trkpt>
      <trkpt lat="45.44565" lon="5.64932">
        <ele>707.8</ele>
        <time>2015-05-17T09:48:40Z</time>
      </trkpt>
      <trkpt lat="45.44564" lon="5.64942">
        <ele>707.4</ele>
        <time>2015-05-17T09:48:43Z</time>
      </trkpt>
      <trkpt lat="45.44564" lon="5.64956">
        <ele>707.2</ele>
        <time>2015-05-17T09:48:45Z</time>
      </trkpt>
      <trkpt lat="45.44562" lon="5.64972">
        <ele>706.2</ele>
        <time>2015-05-17T09:48:47Z</time>
      </trkpt>
      <trkpt lat="45.44559" lon="5.64985">
        <ele>706.1</ele>
        <time>2015-05-17T09:48:49Z</time>
      </trkpt>
      <trkpt lat="45.44561" lon="5.64999">
        <ele>706</ele>
        <time>2015-05-17T09:48:51Z</time>
      </trkpt>
      <trkpt lat="45.4457" lon="5.65009">
        <ele>704.9</ele>
        <time>2015-05-17T09:48:53Z</time>
      </trkpt>
      <trkpt lat="45.4458" lon="5.65014">
        <ele>703.4</ele>
        <time>2015-05-17T09:48:56Z</time>
      </trkpt>
      <trkpt lat="45.44589" lon="5.65017">
        <ele>703.3</ele>
        <time>2015-05-17T09:48:58Z</time>
      </trkpt>
      <trkpt lat="45.44596" lon="5.6502">
        <ele>703.1</ele>
        <time>2015-05-17T09:49:00Z</time>
      </trkpt>
      <trkpt lat="45.44604" lon="5.65024">
        <ele>703</ele>
        <time>2015-05-17T09:49:02Z</time>
      </trkpt>
      <trkpt lat="45.44611" lon="5.65028">
        <ele>703</ele>
        <time>2015-05-17T09:49:04Z</time>
      </trkpt>
      <trkpt lat="45.44618" lon="5.65034">
        <ele>703</ele>
        <time>2015-05-17T09:49:07Z</time>
      </trkpt>
      <trkpt lat="45.44626" lon="5.65042">
        <ele>703</ele>
        <time>2015-05-17T09:49:11Z</time>
      </trkpt>
      <trkpt lat="45.44632" lon="5.65046">
        <ele>702.8</ele>
        <time>2015-05-17T09:49:14Z</time>
      </trkpt>
      <trkpt lat="45.4464" lon="5.65053">
        <ele>702.3</ele>
        <time>2015-05-17T09:49:19Z</time>
      </trkpt>
      <trkpt lat="45.44648" lon="5.65059">
        <ele>701.6</ele>
        <time>2015-05-17T09:49:22Z</time>
      </trkpt>
      <trkpt lat="45.44658" lon="5.65067">
        <ele>701.3</ele>
        <time>2015-05-17T09:49:25Z</time>
      </trkpt>
      <trkpt lat="45.44665" lon="5.65073">
        <ele>701.2</ele>
        <time>2015-05-17T09:49:27Z</time>
      </trkpt>
      <trkpt lat="45.44673" lon="5.6508">
        <ele>700.9</ele>
        <time>2015-05-17T09:49:29Z</time>
      </trkpt>
      <trkpt lat="45.4468" lon="5.65087">
        <ele>698.6</ele>
        <time>2015-05-17T09:49:31Z</time>
      </trkpt>
      <trkpt lat="45.44687" lon="5.65097">
        <ele>698.3</ele>
        <time>2015-05-17T09:49:33Z</time>
      </trkpt>
      <trkpt lat="45.44694" lon="5.65107">
        <ele>696.1</ele>
        <time>2015-05-17T09:49:35Z</time>
      </trkpt>
      <trkpt lat="45.44701" lon="5.65117">
        <ele>694.7</ele>
        <time>2015-05-17T09:49:37Z</time>
      </trkpt>
      <trkpt lat="45.44709" lon="5.65131">
        <ele>694.5</ele>
        <time>2015-05-17T09:49:39Z</time>
      </trkpt>
      <trkpt lat="45.44713" lon="5.65148">
        <ele>693.8</ele>
        <time>2015-05-17T09:49:41Z</time>
      </trkpt>
      <trkpt lat="45.44714" lon="5.65163">
        <ele>693.6</ele>
        <time>2015-05-17T09:49:43Z</time>
      </trkpt>
      <trkpt lat="45.44713" lon="5.65178">
        <ele>693.5</ele>
        <time>2015-05-17T09:49:45Z</time>
      </trkpt>
      <trkpt lat="45.44711" lon="5.6519">
        <ele>692.4</ele>
        <time>2015-05-17T09:49:47Z</time>
      </trkpt>
      <trkpt lat="45.44708" lon="5.65203">
        <ele>688.2</ele>
        <time>2015-05-17T09:49:49Z</time>
      </trkpt>
      <trkpt lat="45.44703" lon="5.65219">
        <ele>683.3</ele>
        <time>2015-05-17T09:49:51Z</time>
      </trkpt>
      <trkpt lat="45.44701" lon="5.65231">
        <ele>681</ele>
        <time>2015-05-17T09:49:53Z</time>
      </trkpt>
      <trkpt lat="45.4471" lon="5.6524">
        <ele>676.9</ele>
        <time>2015-05-17T09:49:56Z</time>
      </trkpt>
      <trkpt lat="45.44722" lon="5.65245">
        <ele>674.5</ele>
        <time>2015-05-17T09:49:58Z</time>
      </trkpt>
      <trkpt lat="45.44729" lon="5.65248">
        <ele>672.8</ele>
        <time>2015-05-17T09:49:59Z</time>
      </trkpt>
      <trkpt lat="45.44737" lon="5.65252">
        <ele>671.6</ele>
        <time>2015-05-17T09:50:00Z</time>
      </trkpt>
      <trkpt lat="45.44748" lon="5.65256">
        <ele>670.5</ele>
        <time>2015-05-17T09:50:02Z</time>
      </trkpt>
      <trkpt lat="45.44755" lon="5.65262">
        <ele>670.1</ele>
        <time>2015-05-17T09:50:04Z</time>
      </trkpt>
      <trkpt lat="45.44763" lon="5.65269">
        <ele>670.7</ele>
        <time>2015-05-17T09:50:06Z</time>
      </trkpt>
      <trkpt lat="45.44771" lon="5.65276">
        <ele>671.4</ele>
        <time>2015-05-17T09:50:08Z</time>
      </trkpt>
      <trkpt lat="45.44779" lon="5.65283">
        <ele>671.4</ele>
        <time>2015-05-17T09:50:10Z</time>
      </trkpt>
      <trkpt lat="45.44787" lon="5.65288">
        <ele>671.1</ele>
        <time>2015-05-17T09:50:12Z</time>
      </trkpt>
      <trkpt lat="45.44794" lon="5.65293">
        <ele>671.2</ele>
        <time>2015-05-17T09:50:14Z</time>
      </trkpt>
      <trkpt lat="45.44803" lon="5.653">
        <ele>671.7</ele>
        <time>2015-05-17T09:50:17Z</time>
      </trkpt>
      <trkpt lat="45.44813" lon="5.65305">
        <ele>671.7</ele>
        <time>2015-05-17T09:50:20Z</time>
      </trkpt>
      <trkpt lat="45.44822" lon="5.65309">
        <ele>671.6</ele>
        <time>2015-05-17T09:50:23Z</time>
      </trkpt>
      <trkpt lat="45.44831" lon="5.65313">
        <ele>671.5</ele>
        <time>2015-05-17T09:50:26Z</time>
      </trkpt>
      <trkpt lat="45.44839" lon="5.65317">
        <ele>671.6</ele>
        <time>2015-05-17T09:50:29Z</time>
      </trkpt>
      <trkpt lat="45.44846" lon="5.65321">
        <ele>671.8</ele>
        <time>2015-05-17T09:50:32Z</time>
      </trkpt>
      <trkpt lat="45.44853" lon="5.65326">
        <ele>672.1</ele>
        <time>2015-05-17T09:50:35Z</time>
      </trkpt>
      <trkpt lat="45.4486" lon="5.65332">
        <ele>672.4</ele>
        <time>2015-05-17T09:50:38Z</time>
      </trkpt>
      <trkpt lat="45.44866" lon="5.65337">
        <ele>672.6</ele>
        <time>2015-05-17T09:50:41Z</time>
      </trkpt>
      <trkpt lat="45.44873" lon="5.65345">
        <ele>673</ele>
        <time>2015-05-17T09:50:45Z</time>
      </trkpt>
      <trkpt lat="45.44881" lon="5.65351">
        <ele>673.2</ele>
        <time>2015-05-17T09:50:48Z</time>
      </trkpt>
      <trkpt lat="45.44888" lon="5.65358">
        <ele>673.4</ele>
        <time>2015-05-17T09:50:51Z</time>
      </trkpt>
      <trkpt lat="45.44894" lon="5.65363">
        <ele>673.8</ele>
        <time>2015-05-17T09:50:54Z</time>
      </trkpt>
      <trkpt lat="45.44901" lon="5.6537">
        <ele>674.3</ele>
        <time>2015-05-17T09:50:57Z</time>
      </trkpt>
      <trkpt lat="45.44908" lon="5.65375">
        <ele>674.7</ele>
        <time>2015-05-17T09:51:00Z</time>
      </trkpt>
      <trkpt lat="45.44915" lon="5.6538">
        <ele>675.1</ele>
        <time>2015-05-17T09:51:03Z</time>
      </trkpt>
      <trkpt lat="45.44924" lon="5.65383">
        <ele>675.5</ele>
        <time>2015-05-17T09:51:06Z</time>
      </trkpt>
      <trkpt lat="45.44932" lon="5.65384">
        <ele>675.9</ele>
        <time>2015-05-17T09:51:09Z</time>
      </trkpt>
      <trkpt lat="45.44939" lon="5.65385">
        <ele>676.5</ele>
        <time>2015-05-17T09:51:12Z</time>
      </trkpt>
      <trkpt lat="45.44948" lon="5.65386">
        <ele>677</ele>
        <time>2015-05-17T09:51:15Z</time>
      </trkpt>
      <trkpt lat="45.4496" lon="5.65386">
        <ele>680.9</ele>
        <time>2015-05-17T09:51:18Z</time>
      </trkpt>
      <trkpt lat="45.4497" lon="5.65388">
        <ele>681.8</ele>
        <time>2015-05-17T09:51:20Z</time>
      </trkpt>
      <trkpt lat="45.44983" lon="5.6539">
        <ele>681.7</ele>
        <time>2015-05-17T09:51:22Z</time>
      </trkpt>
      <trkpt lat="45.44998" lon="5.65396">
        <ele>680.4</ele>
        <time>2015-05-17T09:51:24Z</time>
      </trkpt>
      <trkpt lat="45.45005" lon="5.654">
        <ele>679.2</ele>
        <time>2015-05-17T09:51:25Z</time>
      </trkpt>
      <trkpt lat="45.45018" lon="5.65407">
        <ele>676.8</ele>
        <time>2015-05-17T09:51:27Z</time>
      </trkpt>
      <trkpt lat="45.45027" lon="5.6542">
        <ele>674.9</ele>
        <time>2015-05-17T09:51:29Z</time>
      </trkpt>
      <trkpt lat="45.45034" lon="5.65434">
        <ele>673.5</ele>
        <time>2015-05-17T09:51:31Z</time>
      </trkpt>
      <trkpt lat="45.45041" lon="5.65447">
        <ele>672.5</ele>
        <time>2015-05-17T09:51:33Z</time>
      </trkpt>
      <trkpt lat="45.45047" lon="5.65454">
        <ele>671.9</ele>
        <time>2015-05-17T09:51:34Z</time>
      </trkpt>
      <trkpt lat="45.45053" lon="5.6546">
        <ele>670.9</ele>
        <time>2015-05-17T09:51:35Z</time>
      </trkpt>
      <trkpt lat="45.45066" lon="5.65468">
        <ele>668.9</ele>
        <time>2015-05-17T09:51:37Z</time>
      </trkpt>
      <trkpt lat="45.45074" lon="5.65469">
        <ele>668</ele>
        <time>2015-05-17T09:51:38Z</time>
      </trkpt>
      <trkpt lat="45.45088" lon="5.65469">
        <ele>666.5</ele>
        <time>2015-05-17T09:51:40Z</time>
      </trkpt>
      <trkpt lat="45.45097" lon="5.65472">
        <ele>664.7</ele>
        <time>2015-05-17T09:51:42Z</time>
      </trkpt>
      <trkpt lat="45.45103" lon="5.65479">
        <ele>663.9</ele>
        <time>2015-05-17T09:51:43Z</time>
      </trkpt>
      <trkpt lat="45.4511" lon="5.65492">
        <ele>662.3</ele>
        <time>2015-05-17T09:51:45Z</time>
      </trkpt>
      <trkpt lat="45.45112" lon="5.65508">
        <ele>660.6</ele>
        <time>2015-05-17T09:51:47Z</time>
      </trkpt>
      <trkpt lat="45.45106" lon="5.65525">
        <ele>659.6</ele>
        <time>2015-05-17T09:51:49Z</time>
      </trkpt>
      <trkpt lat="45.45101" lon="5.65535">
        <ele>658.8</ele>
        <time>2015-05-17T09:51:50Z</time>
      </trkpt>
      <trkpt lat="45.45096" lon="5.65545">
        <ele>657.9</ele>
        <time>2015-05-17T09:51:51Z</time>
      </trkpt>
      <trkpt lat="45.45091" lon="5.65554">
        <ele>657.3</ele>
        <time>2015-05-17T09:51:52Z</time>
      </trkpt>
      <trkpt lat="45.45088" lon="5.65565">
        <ele>657</ele>
        <time>2015-05-17T09:51:53Z</time>
      </trkpt>
      <trkpt lat="45.45086" lon="5.65575">
        <ele>656.8</ele>
        <time>2015-05-17T09:51:54Z</time>
      </trkpt>
      <trkpt lat="45.45086" lon="5.65586">
        <ele>656.5</ele>
        <time>2015-05-17T09:51:55Z</time>
      </trkpt>
      <trkpt lat="45.45087" lon="5.65604">
        <ele>656.5</ele>
        <time>2015-05-17T09:51:57Z</time>
      </trkpt>
      <trkpt lat="45.45093" lon="5.65617">
        <ele>657</ele>
        <time>2015-05-17T09:51:59Z</time>
      </trkpt>
      <trkpt lat="45.45104" lon="5.65628">
        <ele>656.9</ele>
        <time>2015-05-17T09:52:01Z</time>
      </trkpt>
      <trkpt lat="45.45112" lon="5.65633">
        <ele>656.7</ele>
        <time>2015-05-17T09:52:02Z</time>
      </trkpt>
      <trkpt lat="45.45119" lon="5.65638">
        <ele>656</ele>
        <time>2015-05-17T09:52:03Z</time>
      </trkpt>
      <trkpt lat="45.45128" lon="5.65643">
        <ele>654.9</ele>
        <time>2015-05-17T09:52:04Z</time>
      </trkpt>
      <trkpt lat="45.45135" lon="5.65648">
        <ele>653.7</ele>
        <time>2015-05-17T09:52:05Z</time>
      </trkpt>
      <trkpt lat="45.45143" lon="5.65653">
        <ele>652.9</ele>
        <time>2015-05-17T09:52:06Z</time>
      </trkpt>
      <trkpt lat="45.4515" lon="5.65658">
        <ele>652.3</ele>
        <time>2015-05-17T09:52:07Z</time>
      </trkpt>
      <trkpt lat="45.45161" lon="5.65664">
        <ele>650.7</ele>
        <time>2015-05-17T09:52:09Z</time>
      </trkpt>
      <trkpt lat="45.4517" lon="5.65665">
        <ele>650.4</ele>
        <time>2015-05-17T09:52:13Z</time>
      </trkpt>
      <trkpt lat="45.45176" lon="5.65658">
        <ele>650</ele>
        <time>2015-05-17T09:52:19Z</time>
      </trkpt>
      <trkpt lat="45.45183" lon="5.65647">
        <ele>649.7</ele>
        <time>2015-05-17T09:52:22Z</time>
      </trkpt>
      <trkpt lat="45.4519" lon="5.65638">
        <ele>649.4</ele>
        <time>2015-05-17T09:52:24Z</time>
      </trkpt>
      <trkpt lat="45.45197" lon="5.65628">
        <ele>648.9</ele>
        <time>2015-05-17T09:52:26Z</time>
      </trkpt>
      <trkpt lat="45.45205" lon="5.65619">
        <ele>646.9</ele>
        <time>2015-05-17T09:52:28Z</time>
      </trkpt>
      <trkpt lat="45.45214" lon="5.65607">
        <ele>645.9</ele>
        <time>2015-05-17T09:52:30Z</time>
      </trkpt>
      <trkpt lat="45.45223" lon="5.65598">
        <ele>644.6</ele>
        <time>2015-05-17T09:52:32Z</time>
      </trkpt>
      <trkpt lat="45.45231" lon="5.65592">
        <ele>642.8</ele>
        <time>2015-05-17T09:52:34Z</time>
      </trkpt>
      <trkpt lat="45.45241" lon="5.65586">
        <ele>641.1</ele>
        <time>2015-05-17T09:52:36Z</time>
      </trkpt>
      <trkpt lat="45.4525" lon="5.65577">
        <ele>639.9</ele>
        <time>2015-05-17T09:52:38Z</time>
      </trkpt>
      <trkpt lat="45.45256" lon="5.65572">
        <ele>639.7</ele>
        <time>2015-05-17T09:52:40Z</time>
      </trkpt>
      <trkpt lat="45.45266" lon="5.65567">
        <ele>639.4</ele>
        <time>2015-05-17T09:52:43Z</time>
      </trkpt>
      <trkpt lat="45.45277" lon="5.65562">
        <ele>636.1</ele>
        <time>2015-05-17T09:52:46Z</time>
      </trkpt>
      <trkpt lat="45.45285" lon="5.65557">
        <ele>635.1</ele>
        <time>2015-05-17T09:52:48Z</time>
      </trkpt>
      <trkpt lat="45.45293" lon="5.6555">
        <ele>634.7</ele>
        <time>2015-05-17T09:52:51Z</time>
      </trkpt>
      <trkpt lat="45.45301" lon="5.65542">
        <ele>632.1</ele>
        <time>2015-05-17T09:52:54Z</time>
      </trkpt>
      <trkpt lat="45.45308" lon="5.65534">
        <ele>631.7</ele>
        <time>2015-05-17T09:52:56Z</time>
      </trkpt>
      <trkpt lat="45.45314" lon="5.65528">
        <ele>631.3</ele>
        <time>2015-05-17T09:52:58Z</time>
      </trkpt>
      <trkpt lat="45.45321" lon="5.65519">
        <ele>630.7</ele>
        <time>2015-05-17T09:53:01Z</time>
      </trkpt>
      <trkpt lat="45.45328" lon="5.65511">
        <ele>628.2</ele>
        <time>2015-05-17T09:53:03Z</time>
      </trkpt>
      <trkpt lat="45.45335" lon="5.65506">
        <ele>627.5</ele>
        <time>2015-05-17T09:53:06Z</time>
      </trkpt>
      <trkpt lat="45.45342" lon="5.65501">
        <ele>625.5</ele>
        <time>2015-05-17T09:53:08Z</time>
      </trkpt>
      <trkpt lat="45.45348" lon="5.65492">
        <ele>625.2</ele>
        <time>2015-05-17T09:53:10Z</time>
      </trkpt>
      <trkpt lat="45.45355" lon="5.65483">
        <ele>624.9</ele>
        <time>2015-05-17T09:53:12Z</time>
      </trkpt>
      <trkpt lat="45.4536" lon="5.65473">
        <ele>624.5</ele>
        <time>2015-05-17T09:53:15Z</time>
      </trkpt>
      <trkpt lat="45.45361" lon="5.65471">
        <ele>623.4</ele>
        <time>2015-05-17T09:53:22Z</time>
      </trkpt>
      <trkpt lat="45.45367" lon="5.65461">
        <ele>622.9</ele>
        <time>2015-05-17T09:53:27Z</time>
      </trkpt>
      <trkpt lat="45.45372" lon="5.65451">
        <ele>622.5</ele>
        <time>2015-05-17T09:53:31Z</time>
      </trkpt>
      <trkpt lat="45.45377" lon="5.65442">
        <ele>622</ele>
        <time>2015-05-17T09:53:35Z</time>
      </trkpt>
      <trkpt lat="45.45381" lon="5.6543">
        <ele>620.9</ele>
        <time>2015-05-17T09:53:40Z</time>
      </trkpt>
      <trkpt lat="45.45386" lon="5.65422">
        <ele>619.4</ele>
        <time>2015-05-17T09:53:46Z</time>
      </trkpt>
      <trkpt lat="45.4539" lon="5.65408">
        <ele>616.6</ele>
        <time>2015-05-17T09:53:57Z</time>
      </trkpt>
      <trkpt lat="45.454" lon="5.654">
        <ele>615.6</ele>
        <time>2015-05-17T09:54:02Z</time>
      </trkpt>
      <trkpt lat="45.45407" lon="5.65392">
        <ele>614.8</ele>
        <time>2015-05-17T09:54:06Z</time>
      </trkpt>
      <trkpt lat="45.45413" lon="5.65383">
        <ele>614.1</ele>
        <time>2015-05-17T09:54:09Z</time>
      </trkpt>
      <trkpt lat="45.45415" lon="5.6537">
        <ele>612.8</ele>
        <time>2015-05-17T09:54:14Z</time>
      </trkpt>
      <trkpt lat="45.45417" lon="5.65356">
        <ele>612.2</ele>
        <time>2015-05-17T09:54:17Z</time>
      </trkpt>
      <trkpt lat="45.45419" lon="5.65345">
        <ele>610.7</ele>
        <time>2015-05-17T09:54:19Z</time>
      </trkpt>
      <trkpt lat="45.45423" lon="5.65333">
        <ele>607.3</ele>
        <time>2015-05-17T09:54:21Z</time>
      </trkpt>
      <trkpt lat="45.45429" lon="5.65314">
        <ele>604.8</ele>
        <time>2015-05-17T09:54:23Z</time>
      </trkpt>
      <trkpt lat="45.45434" lon="5.65301">
        <ele>603.4</ele>
        <time>2015-05-17T09:54:25Z</time>
      </trkpt>
      <trkpt lat="45.45438" lon="5.65291">
        <ele>603.1</ele>
        <time>2015-05-17T09:54:27Z</time>
      </trkpt>
      <trkpt lat="45.45442" lon="5.65281">
        <ele>601.5</ele>
        <time>2015-05-17T09:54:28Z</time>
      </trkpt>
      <trkpt lat="45.45448" lon="5.65268">
        <ele>600.9</ele>
        <time>2015-05-17T09:54:31Z</time>
      </trkpt>
      <trkpt lat="45.45454" lon="5.65257">
        <ele>600.6</ele>
        <time>2015-05-17T09:54:33Z</time>
      </trkpt>
      <trkpt lat="45.4546" lon="5.65243">
        <ele>599.5</ele>
        <time>2015-05-17T09:54:35Z</time>
      </trkpt>
      <trkpt lat="45.45462" lon="5.65227">
        <ele>596.9</ele>
        <time>2015-05-17T09:54:37Z</time>
      </trkpt>
      <trkpt lat="45.45463" lon="5.65213">
        <ele>594.1</ele>
        <time>2015-05-17T09:54:39Z</time>
      </trkpt>
      <trkpt lat="45.45465" lon="5.652">
        <ele>592.9</ele>
        <time>2015-05-17T09:54:41Z</time>
      </trkpt>
      <trkpt lat="45.45466" lon="5.65189">
        <ele>592.5</ele>
        <time>2015-05-17T09:54:43Z</time>
      </trkpt>
      <trkpt lat="45.45464" lon="5.65178">
        <ele>592</ele>
        <time>2015-05-17T09:54:45Z</time>
      </trkpt>
      <trkpt lat="45.45463" lon="5.65167">
        <ele>591.5</ele>
        <time>2015-05-17T09:54:47Z</time>
      </trkpt>
      <trkpt lat="45.4546" lon="5.65154">
        <ele>587.6</ele>
        <time>2015-05-17T09:54:49Z</time>
      </trkpt>
      <trkpt lat="45.45457" lon="5.65139">
        <ele>583.4</ele>
        <time>2015-05-17T09:54:52Z</time>
      </trkpt>
      <trkpt lat="45.45453" lon="5.65124">
        <ele>577.4</ele>
        <time>2015-05-17T09:54:55Z</time>
      </trkpt>
      <trkpt lat="45.45451" lon="5.65114">
        <ele>576.9</ele>
        <time>2015-05-17T09:54:57Z</time>
      </trkpt>
      <trkpt lat="45.45448" lon="5.65098">
        <ele>576.1</ele>
        <time>2015-05-17T09:55:00Z</time>
      </trkpt>
      <trkpt lat="45.45447" lon="5.65086">
        <ele>575.7</ele>
        <time>2015-05-17T09:55:02Z</time>
      </trkpt>
      <trkpt lat="45.45446" lon="5.65069">
        <ele>572.9</ele>
        <time>2015-05-17T09:55:05Z</time>
      </trkpt>
      <trkpt lat="45.45445" lon="5.65056">
        <ele>570.9</ele>
        <time>2015-05-17T09:55:07Z</time>
      </trkpt>
      <trkpt lat="45.45445" lon="5.6504">
        <ele>570.3</ele>
        <time>2015-05-17T09:55:10Z</time>
      </trkpt>
      <trkpt lat="45.45447" lon="5.65026">
        <ele>567.8</ele>
        <time>2015-05-17T09:55:12Z</time>
      </trkpt>
      <trkpt lat="45.4545" lon="5.65013">
        <ele>565.9</ele>
        <time>2015-05-17T09:55:14Z</time>
      </trkpt>
      <trkpt lat="45.45454" lon="5.65002">
        <ele>564.1</ele>
        <time>2015-05-17T09:55:16Z</time>
      </trkpt>
      <trkpt lat="45.45459" lon="5.64992">
        <ele>563.2</ele>
        <time>2015-05-17T09:55:19Z</time>
      </trkpt>
      <trkpt lat="45.45466" lon="5.64983">
        <ele>562.2</ele>
        <time>2015-05-17T09:55:22Z</time>
      </trkpt>
      <trkpt lat="45.45474" lon="5.64981">
        <ele>557.8</ele>
        <time>2015-05-17T09:55:25Z</time>
      </trkpt>
      <trkpt lat="45.45483" lon="5.64985">
        <ele>552.8</ele>
        <time>2015-05-17T09:55:27Z</time>
      </trkpt>
      <trkpt lat="45.45494" lon="5.6499">
        <ele>549.2</ele>
        <time>2015-05-17T09:55:29Z</time>
      </trkpt>
      <trkpt lat="45.45505" lon="5.64989">
        <ele>546.8</ele>
        <time>2015-05-17T09:55:31Z</time>
      </trkpt>
      <trkpt lat="45.45513" lon="5.64982">
        <ele>543.8</ele>
        <time>2015-05-17T09:55:33Z</time>
      </trkpt>
      <trkpt lat="45.45517" lon="5.64966">
        <ele>542.3</ele>
        <time>2015-05-17T09:55:35Z</time>
      </trkpt>
      <trkpt lat="45.4552" lon="5.64956">
        <ele>541.9</ele>
        <time>2015-05-17T09:55:36Z</time>
      </trkpt>
      <trkpt lat="45.45525" lon="5.6494">
        <ele>540.4</ele>
        <time>2015-05-17T09:55:38Z</time>
      </trkpt>
      <trkpt lat="45.45531" lon="5.64926">
        <ele>539.7</ele>
        <time>2015-05-17T09:55:40Z</time>
      </trkpt>
      <trkpt lat="45.45538" lon="5.64911">
        <ele>539.4</ele>
        <time>2015-05-17T09:55:42Z</time>
      </trkpt>
      <trkpt lat="45.45544" lon="5.64899">
        <ele>538.6</ele>
        <time>2015-05-17T09:55:44Z</time>
      </trkpt>
      <trkpt lat="45.4555" lon="5.64888">
        <ele>536.8</ele>
        <time>2015-05-17T09:55:46Z</time>
      </trkpt>
      <trkpt lat="45.45556" lon="5.64879">
        <ele>535.3</ele>
        <time>2015-05-17T09:55:48Z</time>
      </trkpt>
      <trkpt lat="45.45562" lon="5.64868">
        <ele>534.6</ele>
        <time>2015-05-17T09:55:50Z</time>
      </trkpt>
      <trkpt lat="45.45569" lon="5.64852">
        <ele>534.1</ele>
        <time>2015-05-17T09:55:52Z</time>
      </trkpt>
      <trkpt lat="45.45573" lon="5.64843">
        <ele>533.5</ele>
        <time>2015-05-17T09:55:53Z</time>
      </trkpt>
      <trkpt lat="45.45578" lon="5.64833">
        <ele>533.3</ele>
        <time>2015-05-17T09:55:54Z</time>
      </trkpt>
      <trkpt lat="45.45582" lon="5.64824">
        <ele>533</ele>
        <time>2015-05-17T09:55:55Z</time>
      </trkpt>
      <trkpt lat="45.45586" lon="5.64814">
        <ele>532.4</ele>
        <time>2015-05-17T09:55:56Z</time>
      </trkpt>
      <trkpt lat="45.4559" lon="5.64804">
        <ele>531.6</ele>
        <time>2015-05-17T09:55:57Z</time>
      </trkpt>
      <trkpt lat="45.45594" lon="5.64794">
        <ele>530.8</ele>
        <time>2015-05-17T09:55:58Z</time>
      </trkpt>
      <trkpt lat="45.45598" lon="5.64783">
        <ele>529.8</ele>
        <time>2015-05-17T09:55:59Z</time>
      </trkpt>
      <trkpt lat="45.45603" lon="5.64773">
        <ele>528.6</ele>
        <time>2015-05-17T09:56:00Z</time>
      </trkpt>
      <trkpt lat="45.45607" lon="5.64764">
        <ele>527.4</ele>
        <time>2015-05-17T09:56:01Z</time>
      </trkpt>
      <trkpt lat="45.45612" lon="5.64754">
        <ele>526.5</ele>
        <time>2015-05-17T09:56:02Z</time>
      </trkpt>
      <trkpt lat="45.45616" lon="5.64743">
        <ele>525.5</ele>
        <time>2015-05-17T09:56:03Z</time>
      </trkpt>
      <trkpt lat="45.4562" lon="5.64734">
        <ele>524.4</ele>
        <time>2015-05-17T09:56:04Z</time>
      </trkpt>
      <trkpt lat="45.45627" lon="5.64716">
        <ele>522.5</ele>
        <time>2015-05-17T09:56:06Z</time>
      </trkpt>
      <trkpt lat="45.45631" lon="5.64706">
        <ele>521.9</ele>
        <time>2015-05-17T09:56:07Z</time>
      </trkpt>
      <trkpt lat="45.45638" lon="5.64689">
        <ele>521.4</ele>
        <time>2015-05-17T09:56:09Z</time>
      </trkpt>
      <trkpt lat="45.45645" lon="5.64672">
        <ele>521.3</ele>
        <time>2015-05-17T09:56:11Z</time>
      </trkpt>
      <trkpt lat="45.45648" lon="5.64663">
        <ele>520.9</ele>
        <time>2015-05-17T09:56:12Z</time>
      </trkpt>
      <trkpt lat="45.45656" lon="5.64646">
        <ele>519.8</ele>
        <time>2015-05-17T09:56:14Z</time>
      </trkpt>
      <trkpt lat="45.45662" lon="5.64627">
        <ele>519</ele>
        <time>2015-05-17T09:56:16Z</time>
      </trkpt>
      <trkpt lat="45.45666" lon="5.6461">
        <ele>518.4</ele>
        <time>2015-05-17T09:56:18Z</time>
      </trkpt>
      <trkpt lat="45.45669" lon="5.64597">
        <ele>518.3</ele>
        <time>2015-05-17T09:56:20Z</time>
      </trkpt>
      <trkpt lat="45.45677" lon="5.64598">
        <ele>518.5</ele>
        <time>2015-05-17T09:56:23Z</time>
      </trkpt>
      <trkpt lat="45.45685" lon="5.64607">
        <ele>518.6</ele>
        <time>2015-05-17T09:56:25Z</time>
      </trkpt>
      <trkpt lat="45.45696" lon="5.6462">
        <ele>518.3</ele>
        <time>2015-05-17T09:56:27Z</time>
      </trkpt>
      <trkpt lat="45.45702" lon="5.64627">
        <ele>517.9</ele>
        <time>2015-05-17T09:56:28Z</time>
      </trkpt>
      <trkpt lat="45.45714" lon="5.64633">
        <ele>516.7</ele>
        <time>2015-05-17T09:56:30Z</time>
      </trkpt>
      <trkpt lat="45.45724" lon="5.64626">
        <ele>515.5</ele>
        <time>2015-05-17T09:56:32Z</time>
      </trkpt>
      <trkpt lat="45.45733" lon="5.64612">
        <ele>514.2</ele>
        <time>2015-05-17T09:56:34Z</time>
      </trkpt>
      <trkpt lat="45.45741" lon="5.64599">
        <ele>512.3</ele>
        <time>2015-05-17T09:56:36Z</time>
      </trkpt>
      <trkpt lat="45.4575" lon="5.64587">
        <ele>509.9</ele>
        <time>2015-05-17T09:56:38Z</time>
      </trkpt>
      <trkpt lat="45.45762" lon="5.64575">
        <ele>507.9</ele>
        <time>2015-05-17T09:56:40Z</time>
      </trkpt>
      <trkpt lat="45.45773" lon="5.64565">
        <ele>505.3</ele>
        <time>2015-05-17T09:56:42Z</time>
      </trkpt>
      <trkpt lat="45.45783" lon="5.64554">
        <ele>502.9</ele>
        <time>2015-05-17T09:56:44Z</time>
      </trkpt>
      <trkpt lat="45.45791" lon="5.64542">
        <ele>501.1</ele>
        <time>2015-05-17T09:56:46Z</time>
      </trkpt>
      <trkpt lat="45.45796" lon="5.64532">
        <ele>499.5</ele>
        <time>2015-05-17T09:56:48Z</time>
      </trkpt>
      <trkpt lat="45.45801" lon="5.6452">
        <ele>497.8</ele>
        <time>2015-05-17T09:56:50Z</time>
      </trkpt>
      <trkpt lat="45.45807" lon="5.64512">
        <ele>496.3</ele>
        <time>2015-05-17T09:56:52Z</time>
      </trkpt>
      <trkpt lat="45.45812" lon="5.64503">
        <ele>494.8</ele>
        <time>2015-05-17T09:56:54Z</time>
      </trkpt>
      <trkpt lat="45.45819" lon="5.64492">
        <ele>493.2</ele>
        <time>2015-05-17T09:56:56Z</time>
      </trkpt>
      <trkpt lat="45.45824" lon="5.64484">
        <ele>491.4</ele>
        <time>2015-05-17T09:56:58Z</time>
      </trkpt>
      <trkpt lat="45.45833" lon="5.64473">
        <ele>489.5</ele>
        <time>2015-05-17T09:57:00Z</time>
      </trkpt>
      <trkpt lat="45.45841" lon="5.64461">
        <ele>487.4</ele>
        <time>2015-05-17T09:57:02Z</time>
      </trkpt>
      <trkpt lat="45.4585" lon="5.6445">
        <ele>486.3</ele>
        <time>2015-05-17T09:57:04Z</time>
      </trkpt>
      <trkpt lat="45.45859" lon="5.64444">
        <ele>485.5</ele>
        <time>2015-05-17T09:57:06Z</time>
      </trkpt>
      <trkpt lat="45.45867" lon="5.64436">
        <ele>483.4</ele>
        <time>2015-05-17T09:57:08Z</time>
      </trkpt>
      <trkpt lat="45.45873" lon="5.64427">
        <ele>483.2</ele>
        <time>2015-05-17T09:57:10Z</time>
      </trkpt>
      <trkpt lat="45.45877" lon="5.64418">
        <ele>482.8</ele>
        <time>2015-05-17T09:57:13Z</time>
      </trkpt>
      <trkpt lat="45.45882" lon="5.64407">
        <ele>482.1</ele>
        <time>2015-05-17T09:57:17Z</time>
      </trkpt>
      <trkpt lat="45.45888" lon="5.64399">
        <ele>481.6</ele>
        <time>2015-05-17T09:57:20Z</time>
      </trkpt>
      <trkpt lat="45.45895" lon="5.64389">
        <ele>481.1</ele>
        <time>2015-05-17T09:57:23Z</time>
      </trkpt>
      <trkpt lat="45.45896" lon="5.64378">
        <ele>480.4</ele>
        <time>2015-05-17T09:57:26Z</time>
      </trkpt>
      <trkpt lat="45.45888" lon="5.64371">
        <ele>473.5</ele>
        <time>2015-05-17T09:57:29Z</time>
      </trkpt>
      <trkpt lat="45.45887" lon="5.64361">
        <ele>471.8</ele>
        <time>2015-05-17T09:57:32Z</time>
      </trkpt>
      <trkpt lat="45.45895" lon="5.64356">
        <ele>471.3</ele>
        <time>2015-05-17T09:57:36Z</time>
      </trkpt>
      <trkpt lat="45.45902" lon="5.64355">
        <ele>470.7</ele>
        <time>2015-05-17T09:57:38Z</time>
      </trkpt>
      <trkpt lat="45.45909" lon="5.64354">
        <ele>470.3</ele>
        <time>2015-05-17T09:57:40Z</time>
      </trkpt>
      <trkpt lat="45.45921" lon="5.64354">
        <ele>469.1</ele>
        <time>2015-05-17T09:57:43Z</time>
      </trkpt>
      <trkpt lat="45.4593" lon="5.64354">
        <ele>467.5</ele>
        <time>2015-05-17T09:57:45Z</time>
      </trkpt>
      <trkpt lat="45.45938" lon="5.64351">
        <ele>466.2</ele>
        <time>2015-05-17T09:57:47Z</time>
      </trkpt>
      <trkpt lat="45.45941" lon="5.64351">
        <ele>465.4</ele>
        <time>2015-05-17T09:57:54Z</time>
      </trkpt>
      <trkpt lat="45.45935" lon="5.64356">
        <ele>462.2</ele>
        <time>2015-05-17T09:57:52Z</time>
      </trkpt>
      <trkpt lat="45.45942" lon="5.64353">
        <ele>459.5</ele>
        <time>2015-05-17T09:58:05Z</time>
      </trkpt>
      <trkpt lat="45.45951" lon="5.64352">
        <ele>456.6</ele>
        <time>2015-05-17T09:58:06Z</time>
      </trkpt>
      <trkpt lat="45.45961" lon="5.64349">
        <ele>453.7</ele>
        <time>2015-05-17T09:58:08Z</time>
      </trkpt>
      <trkpt lat="45.45972" lon="5.64344">
        <ele>451</ele>
        <time>2015-05-17T09:58:10Z</time>
      </trkpt>
      <trkpt lat="45.45981" lon="5.64339">
        <ele>449.1</ele>
        <time>2015-05-17T09:58:12Z</time>
      </trkpt>
      <trkpt lat="45.45984" lon="5.64326">
        <ele>449.2</ele>
        <time>2015-05-17T09:59:21Z</time>
      </trkpt>
      <trkpt lat="45.45984" lon="5.64312">
        <ele>449.1</ele>
        <time>2015-05-17T09:59:24Z</time>
      </trkpt>
      <trkpt lat="45.45983" lon="5.64299">
        <ele>448.3</ele>
        <time>2015-05-17T09:59:26Z</time>
      </trkpt>
      <trkpt lat="45.45982" lon="5.64289">
        <ele>447.9</ele>
        <time>2015-05-17T09:59:28Z</time>
      </trkpt>
      <trkpt lat="45.45983" lon="5.64278">
        <ele>447.6</ele>
        <time>2015-05-17T09:59:30Z</time>
      </trkpt>
      <trkpt lat="45.45985" lon="5.64268">
        <ele>447.7</ele>
        <time>2015-05-17T09:59:32Z</time>
      </trkpt>
      <trkpt lat="45.45989" lon="5.64256">
        <ele>447.8</ele>
        <time>2015-05-17T09:59:34Z</time>
      </trkpt>
      <trkpt lat="45.45992" lon="5.64245">
        <ele>447.8</ele>
        <time>2015-05-17T09:59:36Z</time>
      </trkpt>
      <trkpt lat="45.45996" lon="5.64236">
        <ele>447.8</ele>
        <time>2015-05-17T09:59:38Z</time>
      </trkpt>
      <trkpt lat="45.46" lon="5.64225">
        <ele>447.7</ele>
        <time>2015-05-17T09:59:41Z</time>
      </trkpt>
      <trkpt lat="45.46003" lon="5.64215">
        <ele>447.6</ele>
        <time>2015-05-17T09:59:44Z</time>
      </trkpt>
      <trkpt lat="45.46007" lon="5.64204">
        <ele>447.7</ele>
        <time>2015-05-17T09:59:48Z</time>
      </trkpt>
      <trkpt lat="45.46009" lon="5.64195">
        <ele>448.1</ele>
        <time>2015-05-17T09:59:54Z</time>
      </trkpt>
      <trkpt lat="45.46004" lon="5.64187">
        <ele>448.4</ele>
        <time>2015-05-17T09:59:57Z</time>
      </trkpt>
      <trkpt lat="45.45994" lon="5.64181">
        <ele>449.9</ele>
        <time>2015-05-17T10:00:00Z</time>
      </trkpt>
      <trkpt lat="45.45987" lon="5.64176">
        <ele>451.1</ele>
        <time>2015-05-17T10:00:02Z</time>
      </trkpt>
      <trkpt lat="45.4598" lon="5.64169">
        <ele>451.5</ele>
        <time>2015-05-17T10:00:04Z</time>
      </trkpt>
      <trkpt lat="45.45972" lon="5.64163">
        <ele>451.9</ele>
        <time>2015-05-17T10:00:06Z</time>
      </trkpt>
      <trkpt lat="45.45965" lon="5.64158">
        <ele>453.1</ele>
        <time>2015-05-17T10:00:08Z</time>
      </trkpt>
      <trkpt lat="45.45957" lon="5.64153">
        <ele>453.3</ele>
        <time>2015-05-17T10:00:10Z</time>
      </trkpt>
      <trkpt lat="45.45949" lon="5.64147">
        <ele>453</ele>
        <time>2015-05-17T10:00:12Z</time>
      </trkpt>
      <trkpt lat="45.4594" lon="5.64141">
        <ele>452.6</ele>
        <time>2015-05-17T10:00:14Z</time>
      </trkpt>
      <trkpt lat="45.45931" lon="5.64134">
        <ele>453</ele>
        <time>2015-05-17T10:00:16Z</time>
      </trkpt>
      <trkpt lat="45.45923" lon="5.64128">
        <ele>453.1</ele>
        <time>2015-05-17T10:00:18Z</time>
      </trkpt>
      <trkpt lat="45.45914" lon="5.64121">
        <ele>453.3</ele>
        <time>2015-05-17T10:00:20Z</time>
      </trkpt>
      <trkpt lat="45.45906" lon="5.64115">
        <ele>453.4</ele>
        <time>2015-05-17T10:00:22Z</time>
      </trkpt>
      <trkpt lat="45.45897" lon="5.64109">
        <ele>453.4</ele>
        <time>2015-05-17T10:00:24Z</time>
      </trkpt>
      <trkpt lat="45.45888" lon="5.64105">
        <ele>453.6</ele>
        <time>2015-05-17T10:00:26Z</time>
      </trkpt>
      <trkpt lat="45.45879" lon="5.641">
        <ele>453.3</ele>
        <time>2015-05-17T10:00:28Z</time>
      </trkpt>
      <trkpt lat="45.45869" lon="5.64095">
        <ele>452.6</ele>
        <time>2015-05-17T10:00:30Z</time>
      </trkpt>
      <trkpt lat="45.4586" lon="5.6409">
        <ele>452.4</ele>
        <time>2015-05-17T10:00:32Z</time>
      </trkpt>
      <trkpt lat="45.45851" lon="5.64085">
        <ele>451.7</ele>
        <time>2015-05-17T10:00:34Z</time>
      </trkpt>
      <trkpt lat="45.45841" lon="5.64079">
        <ele>450.6</ele>
        <time>2015-05-17T10:00:36Z</time>
      </trkpt>
      <trkpt lat="45.45832" lon="5.64074">
        <ele>450.7</ele>
        <time>2015-05-17T10:00:38Z</time>
      </trkpt>
      <trkpt lat="45.45824" lon="5.64069">
        <ele>450.4</ele>
        <time>2015-05-17T10:00:40Z</time>
      </trkpt>
      <trkpt lat="45.45815" lon="5.64064">
        <ele>450.6</ele>
        <time>2015-05-17T10:00:42Z</time>
      </trkpt>
      <trkpt lat="45.45807" lon="5.64058">
        <ele>451.3</ele>
        <time>2015-05-17T10:00:44Z</time>
      </trkpt>
      <trkpt lat="45.45798" lon="5.64052">
        <ele>452.9</ele>
        <time>2015-05-17T10:00:46Z</time>
      </trkpt>
      <trkpt lat="45.45788" lon="5.64046">
        <ele>453.4</ele>
        <time>2015-05-17T10:00:48Z</time>
      </trkpt>
      <trkpt lat="45.45781" lon="5.6404">
        <ele>453.6</ele>
        <time>2015-05-17T10:00:50Z</time>
      </trkpt>
      <trkpt lat="45.45771" lon="5.64033">
        <ele>453.7</ele>
        <time>2015-05-17T10:00:53Z</time>
      </trkpt>
      <trkpt lat="45.45763" lon="5.64026">
        <ele>453.8</ele>
        <time>2015-05-17T10:00:56Z</time>
      </trkpt>
      <trkpt lat="45.45755" lon="5.64019">
        <ele>454</ele>
        <time>2015-05-17T10:00:59Z</time>
      </trkpt>
      <trkpt lat="45.45747" lon="5.64012">
        <ele>454.3</ele>
        <time>2015-05-17T10:01:02Z</time>
      </trkpt>
      <trkpt lat="45.45738" lon="5.64005">
        <ele>454.5</ele>
        <time>2015-05-17T10:01:05Z</time>
      </trkpt>
      <trkpt lat="45.4573" lon="5.63999">
        <ele>454.8</ele>
        <time>2015-05-17T10:01:08Z</time>
      </trkpt>
      <trkpt lat="45.45722" lon="5.63996">
        <ele>455.1</ele>
        <time>2015-05-17T10:01:11Z</time>
      </trkpt>
      <trkpt lat="45.45715" lon="5.63987">
        <ele>455.4</ele>
        <time>2015-05-17T10:01:14Z</time>
      </trkpt>
      <trkpt lat="45.4571" lon="5.63977">
        <ele>455.8</ele>
        <time>2015-05-17T10:01:17Z</time>
      </trkpt>
      <trkpt lat="45.45705" lon="5.63968">
        <ele>456.3</ele>
        <time>2015-05-17T10:01:20Z</time>
      </trkpt>
      <trkpt lat="45.45701" lon="5.63957">
        <ele>456.7</ele>
        <time>2015-05-17T10:01:23Z</time>
      </trkpt>
      <trkpt lat="45.45697" lon="5.63945">
        <ele>457.1</ele>
        <time>2015-05-17T10:01:26Z</time>
      </trkpt>
      <trkpt lat="45.45694" lon="5.63934">
        <ele>457.6</ele>
        <time>2015-05-17T10:01:29Z</time>
      </trkpt>
      <trkpt lat="45.45691" lon="5.63924">
        <ele>458.2</ele>
        <time>2015-05-17T10:01:32Z</time>
      </trkpt>
      <trkpt lat="45.45687" lon="5.63914">
        <ele>459</ele>
        <time>2015-05-17T10:01:35Z</time>
      </trkpt>
      <trkpt lat="45.45683" lon="5.63902">
        <ele>459.6</ele>
        <time>2015-05-17T10:01:38Z</time>
      </trkpt>
      <trkpt lat="45.45681" lon="5.63891">
        <ele>460.3</ele>
        <time>2015-05-17T10:01:41Z</time>
      </trkpt>
      <trkpt lat="45.45679" lon="5.63877">
        <ele>461.4</ele>
        <time>2015-05-17T10:01:45Z</time>
      </trkpt>
      <trkpt lat="45.45674" lon="5.63861">
        <ele>461.9</ele>
        <time>2015-05-17T10:01:48Z</time>
      </trkpt>
      <trkpt lat="45.45673" lon="5.6385">
        <ele>462.3</ele>
        <time>2015-05-17T10:01:50Z</time>
      </trkpt>
      <trkpt lat="45.45671" lon="5.63836">
        <ele>462.8</ele>
        <time>2015-05-17T10:01:53Z</time>
      </trkpt>
      <trkpt lat="45.45669" lon="5.63823">
        <ele>463.4</ele>
        <time>2015-05-17T10:01:56Z</time>
      </trkpt>
      <trkpt lat="45.45667" lon="5.6381">
        <ele>464.1</ele>
        <time>2015-05-17T10:01:59Z</time>
      </trkpt>
      <trkpt lat="45.45665" lon="5.63796">
        <ele>464.8</ele>
        <time>2015-05-17T10:02:02Z</time>
      </trkpt>
      <trkpt lat="45.45663" lon="5.63784">
        <ele>465.5</ele>
        <time>2015-05-17T10:02:05Z</time>
      </trkpt>
      <trkpt lat="45.45662" lon="5.6377">
        <ele>466.3</ele>
        <time>2015-05-17T10:02:08Z</time>
      </trkpt>
      <trkpt lat="45.4566" lon="5.63756">
        <ele>467</ele>
        <time>2015-05-17T10:02:11Z</time>
      </trkpt>
      <trkpt lat="45.45658" lon="5.63742">
        <ele>467.6</ele>
        <time>2015-05-17T10:02:14Z</time>
      </trkpt>
      <trkpt lat="45.45658" lon="5.63729">
        <ele>468.3</ele>
        <time>2015-05-17T10:02:17Z</time>
      </trkpt>
      <trkpt lat="45.4566" lon="5.63718">
        <ele>469.1</ele>
        <time>2015-05-17T10:02:20Z</time>
      </trkpt>
      <trkpt lat="45.45661" lon="5.63706">
        <ele>469.8</ele>
        <time>2015-05-17T10:02:24Z</time>
      </trkpt>
      <trkpt lat="45.45661" lon="5.63694">
        <ele>470.5</ele>
        <time>2015-05-17T10:02:28Z</time>
      </trkpt>
      <trkpt lat="45.4566" lon="5.63684">
        <ele>471</ele>
        <time>2015-05-17T10:02:31Z</time>
      </trkpt>
      <trkpt lat="45.45664" lon="5.63674">
        <ele>471.7</ele>
        <time>2015-05-17T10:02:35Z</time>
      </trkpt>
      <trkpt lat="45.45671" lon="5.63678">
        <ele>472.9</ele>
        <time>2015-05-17T10:02:42Z</time>
      </trkpt>
      <trkpt lat="45.45673" lon="5.63689">
        <ele>473.4</ele>
        <time>2015-05-17T10:02:48Z</time>
      </trkpt>
      <trkpt lat="45.45675" lon="5.63701">
        <ele>473</ele>
        <time>2015-05-17T10:02:53Z</time>
      </trkpt>
      <trkpt lat="45.45678" lon="5.6371">
        <ele>473.5</ele>
        <time>2015-05-17T10:02:56Z</time>
      </trkpt>
      <trkpt lat="45.45684" lon="5.63718">
        <ele>474.6</ele>
        <time>2015-05-17T10:03:01Z</time>
      </trkpt>
      <trkpt lat="45.45688" lon="5.63726">
        <ele>475.9</ele>
        <time>2015-05-17T10:03:05Z</time>
      </trkpt>
      <trkpt lat="45.45691" lon="5.63738">
        <ele>478</ele>
        <time>2015-05-17T10:03:10Z</time>
      </trkpt>
      <trkpt lat="45.45693" lon="5.63749">
        <ele>479.4</ele>
        <time>2015-05-17T10:03:14Z</time>
      </trkpt>
      <trkpt lat="45.45696" lon="5.6376">
        <ele>480.7</ele>
        <time>2015-05-17T10:03:19Z</time>
      </trkpt>
      <trkpt lat="45.45703" lon="5.63767">
        <ele>481.7</ele>
        <time>2015-05-17T10:03:23Z</time>
      </trkpt>
      <trkpt lat="45.45709" lon="5.63773">
        <ele>482.8</ele>
        <time>2015-05-17T10:03:27Z</time>
      </trkpt>
      <trkpt lat="45.45716" lon="5.63781">
        <ele>484.7</ele>
        <time>2015-05-17T10:03:33Z</time>
      </trkpt>
      <trkpt lat="45.45723" lon="5.63789">
        <ele>486.1</ele>
        <time>2015-05-17T10:03:36Z</time>
      </trkpt>
      <trkpt lat="45.45731" lon="5.63794">
        <ele>487.3</ele>
        <time>2015-05-17T10:03:39Z</time>
      </trkpt>
      <trkpt lat="45.45738" lon="5.63806">
        <ele>488.7</ele>
        <time>2015-05-17T10:03:42Z</time>
      </trkpt>
      <trkpt lat="45.45743" lon="5.63817">
        <ele>489.6</ele>
        <time>2015-05-17T10:03:44Z</time>
      </trkpt>
      <trkpt lat="45.45748" lon="5.63828">
        <ele>496.9</ele>
        <time>2015-05-17T10:03:46Z</time>
      </trkpt>
      <trkpt lat="45.45753" lon="5.63838">
        <ele>502.1</ele>
        <time>2015-05-17T10:03:48Z</time>
      </trkpt>
      <trkpt lat="45.4576" lon="5.63844">
        <ele>503.6</ele>
        <time>2015-05-17T10:03:50Z</time>
      </trkpt>
      <trkpt lat="45.45768" lon="5.63847">
        <ele>503.9</ele>
        <time>2015-05-17T10:03:52Z</time>
      </trkpt>
      <trkpt lat="45.45777" lon="5.63849">
        <ele>504.1</ele>
        <time>2015-05-17T10:03:54Z</time>
      </trkpt>
      <trkpt lat="45.45784" lon="5.63847">
        <ele>504.2</ele>
        <time>2015-05-17T10:03:56Z</time>
      </trkpt>
      <trkpt lat="45.45794" lon="5.63845">
        <ele>504.2</ele>
        <time>2015-05-17T10:03:58Z</time>
      </trkpt>
      <trkpt lat="45.45805" lon="5.63842">
        <ele>504</ele>
        <time>2015-05-17T10:04:00Z</time>
      </trkpt>
      <trkpt lat="45.45815" lon="5.63837">
        <ele>503.8</ele>
        <time>2015-05-17T10:04:02Z</time>
      </trkpt>
      <trkpt lat="45.45821" lon="5.63831">
        <ele>503.7</ele>
        <time>2015-05-17T10:04:04Z</time>
      </trkpt>
      <trkpt lat="45.45828" lon="5.63827">
        <ele>503.4</ele>
        <time>2015-05-17T10:04:06Z</time>
      </trkpt>
      <trkpt lat="45.45835" lon="5.63819">
        <ele>503.2</ele>
        <time>2015-05-17T10:04:09Z</time>
      </trkpt>
      <trkpt lat="45.45841" lon="5.63808">
        <ele>502.9</ele>
        <time>2015-05-17T10:04:12Z</time>
      </trkpt>
      <trkpt lat="45.45847" lon="5.63801">
        <ele>502.8</ele>
        <time>2015-05-17T10:04:16Z</time>
      </trkpt>
      <trkpt lat="45.45851" lon="5.63792">
        <ele>502.8</ele>
        <time>2015-05-17T10:04:19Z</time>
      </trkpt>
      <trkpt lat="45.45855" lon="5.63782">
        <ele>502.7</ele>
        <time>2015-05-17T10:04:22Z</time>
      </trkpt>
      <trkpt lat="45.45857" lon="5.63771">
        <ele>503.2</ele>
        <time>2015-05-17T10:04:26Z</time>
      </trkpt>
      <trkpt lat="45.45862" lon="5.63761">
        <ele>503.8</ele>
        <time>2015-05-17T10:04:30Z</time>
      </trkpt>
      <trkpt lat="45.45866" lon="5.63751">
        <ele>504.4</ele>
        <time>2015-05-17T10:04:34Z</time>
      </trkpt>
      <trkpt lat="45.4587" lon="5.6374">
        <ele>504.5</ele>
        <time>2015-05-17T10:04:39Z</time>
      </trkpt>
      <trkpt lat="45.45874" lon="5.63729">
        <ele>505</ele>
        <time>2015-05-17T10:04:45Z</time>
      </trkpt>
      <trkpt lat="45.45874" lon="5.63713">
        <ele>507.6</ele>
        <time>2015-05-17T10:04:58Z</time>
      </trkpt>
      <trkpt lat="45.45874" lon="5.63701">
        <ele>509.4</ele>
        <time>2015-05-17T10:05:04Z</time>
      </trkpt>
      <trkpt lat="45.45877" lon="5.63688">
        <ele>510.7</ele>
        <time>2015-05-17T10:05:09Z</time>
      </trkpt>
      <trkpt lat="45.45878" lon="5.63678">
        <ele>511.2</ele>
        <time>2015-05-17T10:05:13Z</time>
      </trkpt>
      <trkpt lat="45.4588" lon="5.63666">
        <ele>511.7</ele>
        <time>2015-05-17T10:05:17Z</time>
      </trkpt>
      <trkpt lat="45.45881" lon="5.63655">
        <ele>512.5</ele>
        <time>2015-05-17T10:05:21Z</time>
      </trkpt>
      <trkpt lat="45.45881" lon="5.63643">
        <ele>513.1</ele>
        <time>2015-05-17T10:05:25Z</time>
      </trkpt>
      <trkpt lat="45.45882" lon="5.6363">
        <ele>513.5</ele>
        <time>2015-05-17T10:05:29Z</time>
      </trkpt>
      <trkpt lat="45.45878" lon="5.63622">
        <ele>513.9</ele>
        <time>2015-05-17T10:05:35Z</time>
      </trkpt>
      <trkpt lat="45.45879" lon="5.63611">
        <ele>514.2</ele>
        <time>2015-05-17T10:05:41Z</time>
      </trkpt>
      <trkpt lat="45.45879" lon="5.63599">
        <ele>514.5</ele>
        <time>2015-05-17T10:05:46Z</time>
      </trkpt>
      <trkpt lat="45.45874" lon="5.63591">
        <ele>515.3</ele>
        <time>2015-05-17T10:05:52Z</time>
      </trkpt>
      <trkpt lat="45.45876" lon="5.63573">
        <ele>518.5</ele>
        <time>2015-05-17T10:06:06Z</time>
      </trkpt>
      <trkpt lat="45.45879" lon="5.63564">
        <ele>519.4</ele>
        <time>2015-05-17T10:06:09Z</time>
      </trkpt>
      <trkpt lat="45.45885" lon="5.63556">
        <ele>520.4</ele>
        <time>2015-05-17T10:06:12Z</time>
      </trkpt>
      <trkpt lat="45.45891" lon="5.63548">
        <ele>521.1</ele>
        <time>2015-05-17T10:06:15Z</time>
      </trkpt>
      <trkpt lat="45.45898" lon="5.63542">
        <ele>521.7</ele>
        <time>2015-05-17T10:06:18Z</time>
      </trkpt>
      <trkpt lat="45.45904" lon="5.63533">
        <ele>522.4</ele>
        <time>2015-05-17T10:06:22Z</time>
      </trkpt>
      <trkpt lat="45.45906" lon="5.63522">
        <ele>523</ele>
        <time>2015-05-17T10:06:26Z</time>
      </trkpt>
      <trkpt lat="45.45905" lon="5.63511">
        <ele>523.7</ele>
        <time>2015-05-17T10:06:31Z</time>
      </trkpt>
      <trkpt lat="45.45903" lon="5.63501">
        <ele>524.3</ele>
        <time>2015-05-17T10:06:35Z</time>
      </trkpt>
      <trkpt lat="45.45901" lon="5.63489">
        <ele>525.3</ele>
        <time>2015-05-17T10:06:39Z</time>
      </trkpt>
      <trkpt lat="45.45899" lon="5.63478">
        <ele>526.4</ele>
        <time>2015-05-17T10:06:43Z</time>
      </trkpt>
      <trkpt lat="45.45896" lon="5.63468">
        <ele>527</ele>
        <time>2015-05-17T10:06:46Z</time>
      </trkpt>
      <trkpt lat="45.45894" lon="5.63458">
        <ele>527.9</ele>
        <time>2015-05-17T10:06:49Z</time>
      </trkpt>
      <trkpt lat="45.45887" lon="5.63448">
        <ele>528.9</ele>
        <time>2015-05-17T10:06:53Z</time>
      </trkpt>
      <trkpt lat="45.45881" lon="5.6344">
        <ele>529.4</ele>
        <time>2015-05-17T10:06:55Z</time>
      </trkpt>
      <trkpt lat="45.45876" lon="5.63431">
        <ele>534.5</ele>
        <time>2015-05-17T10:06:57Z</time>
      </trkpt>
      <trkpt lat="45.45871" lon="5.6342">
        <ele>537.3</ele>
        <time>2015-05-17T10:06:59Z</time>
      </trkpt>
      <trkpt lat="45.45869" lon="5.63406">
        <ele>538</ele>
        <time>2015-05-17T10:07:01Z</time>
      </trkpt>
      <trkpt lat="45.45871" lon="5.63392">
        <ele>537.1</ele>
        <time>2015-05-17T10:07:03Z</time>
      </trkpt>
      <trkpt lat="45.45872" lon="5.6338">
        <ele>536.5</ele>
        <time>2015-05-17T10:07:05Z</time>
      </trkpt>
      <trkpt lat="45.45874" lon="5.63368">
        <ele>536.5</ele>
        <time>2015-05-17T10:07:07Z</time>
      </trkpt>
      <trkpt lat="45.45873" lon="5.63358">
        <ele>537.2</ele>
        <time>2015-05-17T10:07:09Z</time>
      </trkpt>
      <trkpt lat="45.45875" lon="5.63347">
        <ele>537.3</ele>
        <time>2015-05-17T10:07:11Z</time>
      </trkpt>
      <trkpt lat="45.45878" lon="5.63335">
        <ele>537.5</ele>
        <time>2015-05-17T10:07:13Z</time>
      </trkpt>
      <trkpt lat="45.4588" lon="5.63321">
        <ele>535.8</ele>
        <time>2015-05-17T10:07:15Z</time>
      </trkpt>
      <trkpt lat="45.45879" lon="5.63308">
        <ele>534.2</ele>
        <time>2015-05-17T10:07:17Z</time>
      </trkpt>
      <trkpt lat="45.45875" lon="5.63299">
        <ele>534.4</ele>
        <time>2015-05-17T10:07:19Z</time>
      </trkpt>
      <trkpt lat="45.45866" lon="5.6329">
        <ele>536.3</ele>
        <time>2015-05-17T10:07:22Z</time>
      </trkpt>
      <trkpt lat="45.45857" lon="5.63283">
        <ele>536.2</ele>
        <time>2015-05-17T10:07:25Z</time>
      </trkpt>
      <trkpt lat="45.4585" lon="5.63279">
        <ele>536.4</ele>
        <time>2015-05-17T10:07:27Z</time>
      </trkpt>
      <trkpt lat="45.45843" lon="5.63275">
        <ele>534</ele>
        <time>2015-05-17T10:07:29Z</time>
      </trkpt>
      <trkpt lat="45.45832" lon="5.63273">
        <ele>534.4</ele>
        <time>2015-05-17T10:07:32Z</time>
      </trkpt>
      <trkpt lat="45.45826" lon="5.63269">
        <ele>534.5</ele>
        <time>2015-05-17T10:07:34Z</time>
      </trkpt>
      <trkpt lat="45.45817" lon="5.63264">
        <ele>534.5</ele>
        <time>2015-05-17T10:07:37Z</time>
      </trkpt>
      <trkpt lat="45.45811" lon="5.63258">
        <ele>534.4</ele>
        <time>2015-05-17T10:07:40Z</time>
      </trkpt>
      <trkpt lat="45.45803" lon="5.63252">
        <ele>534.6</ele>
        <time>2015-05-17T10:07:43Z</time>
      </trkpt>
      <trkpt lat="45.45793" lon="5.63249">
        <ele>535.1</ele>
        <time>2015-05-17T10:07:46Z</time>
      </trkpt>
      <trkpt lat="45.45783" lon="5.63245">
        <ele>535.4</ele>
        <time>2015-05-17T10:07:49Z</time>
      </trkpt>
      <trkpt lat="45.45775" lon="5.63241">
        <ele>536.5</ele>
        <time>2015-05-17T10:07:51Z</time>
      </trkpt>
      <trkpt lat="45.45768" lon="5.63237">
        <ele>537.5</ele>
        <time>2015-05-17T10:07:53Z</time>
      </trkpt>
      <trkpt lat="45.45761" lon="5.63236">
        <ele>537</ele>
        <time>2015-05-17T10:07:55Z</time>
      </trkpt>
      <trkpt lat="45.45749" lon="5.63236">
        <ele>536.3</ele>
        <time>2015-05-17T10:07:58Z</time>
      </trkpt>
      <trkpt lat="45.45741" lon="5.63234">
        <ele>534.8</ele>
        <time>2015-05-17T10:08:00Z</time>
      </trkpt>
      <trkpt lat="45.45732" lon="5.63232">
        <ele>532.9</ele>
        <time>2015-05-17T10:08:02Z</time>
      </trkpt>
      <trkpt lat="45.45723" lon="5.63228">
        <ele>532.4</ele>
        <time>2015-05-17T10:08:04Z</time>
      </trkpt>
      <trkpt lat="45.45716" lon="5.63227">
        <ele>530.6</ele>
        <time>2015-05-17T10:08:06Z</time>
      </trkpt>
      <trkpt lat="45.45708" lon="5.63224">
        <ele>529.1</ele>
        <time>2015-05-17T10:08:08Z</time>
      </trkpt>
      <trkpt lat="45.45697" lon="5.63223">
        <ele>529.2</ele>
        <time>2015-05-17T10:08:10Z</time>
      </trkpt>
      <trkpt lat="45.45687" lon="5.63221">
        <ele>529.8</ele>
        <time>2015-05-17T10:08:12Z</time>
      </trkpt>
      <trkpt lat="45.45677" lon="5.63218">
        <ele>530.6</ele>
        <time>2015-05-17T10:08:14Z</time>
      </trkpt>
      <trkpt lat="45.45665" lon="5.63215">
        <ele>530.6</ele>
        <time>2015-05-17T10:08:16Z</time>
      </trkpt>
      <trkpt lat="45.45651" lon="5.63212">
        <ele>529.8</ele>
        <time>2015-05-17T10:08:18Z</time>
      </trkpt>
      <trkpt lat="45.45638" lon="5.63209">
        <ele>528.6</ele>
        <time>2015-05-17T10:08:20Z</time>
      </trkpt>
      <trkpt lat="45.45624" lon="5.63202">
        <ele>527.5</ele>
        <time>2015-05-17T10:08:22Z</time>
      </trkpt>
      <trkpt lat="45.45615" lon="5.63192">
        <ele>526.6</ele>
        <time>2015-05-17T10:08:24Z</time>
      </trkpt>
      <trkpt lat="45.45604" lon="5.63182">
        <ele>525.7</ele>
        <time>2015-05-17T10:08:26Z</time>
      </trkpt>
      <trkpt lat="45.45592" lon="5.63174">
        <ele>524.7</ele>
        <time>2015-05-17T10:08:28Z</time>
      </trkpt>
      <trkpt lat="45.45579" lon="5.63163">
        <ele>523.6</ele>
        <time>2015-05-17T10:08:30Z</time>
      </trkpt>
      <trkpt lat="45.45573" lon="5.63157">
        <ele>523.2</ele>
        <time>2015-05-17T10:08:31Z</time>
      </trkpt>
      <trkpt lat="45.45566" lon="5.6315">
        <ele>522.6</ele>
        <time>2015-05-17T10:08:32Z</time>
      </trkpt>
      <trkpt lat="45.4556" lon="5.63143">
        <ele>521.5</ele>
        <time>2015-05-17T10:08:33Z</time>
      </trkpt>
      <trkpt lat="45.45553" lon="5.63135">
        <ele>520.8</ele>
        <time>2015-05-17T10:08:34Z</time>
      </trkpt>
      <trkpt lat="45.45548" lon="5.63124">
        <ele>520.3</ele>
        <time>2015-05-17T10:08:35Z</time>
      </trkpt>
      <trkpt lat="45.45543" lon="5.63113">
        <ele>519.3</ele>
        <time>2015-05-17T10:08:36Z</time>
      </trkpt>
      <trkpt lat="45.45542" lon="5.631">
        <ele>518.7</ele>
        <time>2015-05-17T10:08:37Z</time>
      </trkpt>
      <trkpt lat="45.45543" lon="5.63086">
        <ele>517.9</ele>
        <time>2015-05-17T10:08:38Z</time>
      </trkpt>
      <trkpt lat="45.45545" lon="5.63073">
        <ele>517</ele>
        <time>2015-05-17T10:08:39Z</time>
      </trkpt>
      <trkpt lat="45.45546" lon="5.63061">
        <ele>516.1</ele>
        <time>2015-05-17T10:08:40Z</time>
      </trkpt>
      <trkpt lat="45.45548" lon="5.63049">
        <ele>515.3</ele>
        <time>2015-05-17T10:08:41Z</time>
      </trkpt>
      <trkpt lat="45.4555" lon="5.63037">
        <ele>514.8</ele>
        <time>2015-05-17T10:08:42Z</time>
      </trkpt>
      <trkpt lat="45.45552" lon="5.63025">
        <ele>514.5</ele>
        <time>2015-05-17T10:08:43Z</time>
      </trkpt>
      <trkpt lat="45.45554" lon="5.63015">
        <ele>514.2</ele>
        <time>2015-05-17T10:08:44Z</time>
      </trkpt>
      <trkpt lat="45.45557" lon="5.63">
        <ele>513.8</ele>
        <time>2015-05-17T10:08:46Z</time>
      </trkpt>
      <trkpt lat="45.45552" lon="5.62988">
        <ele>513.8</ele>
        <time>2015-05-17T10:08:49Z</time>
      </trkpt>
      <trkpt lat="45.4555" lon="5.62979">
        <ele>513.9</ele>
        <time>2015-05-17T10:08:52Z</time>
      </trkpt>
      <trkpt lat="45.45552" lon="5.62967">
        <ele>514.3</ele>
        <time>2015-05-17T10:08:58Z</time>
      </trkpt>
      <trkpt lat="45.45556" lon="5.62956">
        <ele>515</ele>
        <time>2015-05-17T10:09:02Z</time>
      </trkpt>
      <trkpt lat="45.45558" lon="5.62945">
        <ele>515.8</ele>
        <time>2015-05-17T10:09:05Z</time>
      </trkpt>
      <trkpt lat="45.4556" lon="5.62934">
        <ele>516.7</ele>
        <time>2015-05-17T10:09:09Z</time>
      </trkpt>
      <trkpt lat="45.4556" lon="5.62929">
        <ele>518.1</ele>
        <time>2015-05-17T10:09:16Z</time>
      </trkpt>
      <trkpt lat="45.45571" lon="5.629">
        <ele>521.9</ele>
        <time>2015-05-17T10:09:25Z</time>
      </trkpt>
      <trkpt lat="45.45575" lon="5.62889">
        <ele>524.1</ele>
        <time>2015-05-17T10:09:29Z</time>
      </trkpt>
      <trkpt lat="45.4558" lon="5.62878">
        <ele>525.8</ele>
        <time>2015-05-17T10:09:37Z</time>
      </trkpt>
      <trkpt lat="45.45583" lon="5.62874">
        <ele>528.2</ele>
        <time>2015-05-17T10:09:44Z</time>
      </trkpt>
      <trkpt lat="45.45592" lon="5.62863">
        <ele>530.5</ele>
        <time>2015-05-17T10:09:49Z</time>
      </trkpt>
      <trkpt lat="45.45603" lon="5.62848">
        <ele>533.7</ele>
        <time>2015-05-17T10:09:57Z</time>
      </trkpt>
      <trkpt lat="45.45611" lon="5.62835">
        <ele>535.7</ele>
        <time>2015-05-17T10:10:04Z</time>
      </trkpt>
      <trkpt lat="45.45614" lon="5.62831">
        <ele>537.3</ele>
        <time>2015-05-17T10:10:11Z</time>
      </trkpt>
      <trkpt lat="45.45623" lon="5.62815">
        <ele>537.8</ele>
        <time>2015-05-17T10:10:13Z</time>
      </trkpt>
      <trkpt lat="45.45628" lon="5.62807">
        <ele>538.4</ele>
        <time>2015-05-17T10:10:18Z</time>
      </trkpt>
      <trkpt lat="45.45636" lon="5.62801">
        <ele>538.6</ele>
        <time>2015-05-17T10:10:22Z</time>
      </trkpt>
      <trkpt lat="45.45643" lon="5.62798">
        <ele>538.2</ele>
        <time>2015-05-17T10:10:26Z</time>
      </trkpt>
      <trkpt lat="45.45652" lon="5.62794">
        <ele>537.4</ele>
        <time>2015-05-17T10:10:30Z</time>
      </trkpt>
      <trkpt lat="45.45656" lon="5.62793">
        <ele>536.2</ele>
        <time>2015-05-17T10:10:37Z</time>
      </trkpt>
      <trkpt lat="45.45671" lon="5.62787">
        <ele>535.6</ele>
        <time>2015-05-17T10:10:41Z</time>
      </trkpt>
      <trkpt lat="45.45678" lon="5.62782">
        <ele>535.3</ele>
        <time>2015-05-17T10:10:43Z</time>
      </trkpt>
      <trkpt lat="45.45684" lon="5.62775">
        <ele>535.2</ele>
        <time>2015-05-17T10:10:45Z</time>
      </trkpt>
      <trkpt lat="45.45689" lon="5.62764">
        <ele>535.2</ele>
        <time>2015-05-17T10:10:48Z</time>
      </trkpt>
      <trkpt lat="45.45693" lon="5.62754">
        <ele>535.5</ele>
        <time>2015-05-17T10:10:51Z</time>
      </trkpt>
      <trkpt lat="45.45697" lon="5.62744">
        <ele>535.6</ele>
        <time>2015-05-17T10:10:55Z</time>
      </trkpt>
      <trkpt lat="45.457" lon="5.62731">
        <ele>535.9</ele>
        <time>2015-05-17T10:11:00Z</time>
      </trkpt>
      <trkpt lat="45.457" lon="5.62728">
        <ele>536.3</ele>
        <time>2015-05-17T10:11:07Z</time>
      </trkpt>
      <trkpt lat="45.45696" lon="5.62706">
        <ele>536.7</ele>
        <time>2015-05-17T10:11:11Z</time>
      </trkpt>
      <trkpt lat="45.45691" lon="5.62692">
        <ele>537.1</ele>
        <time>2015-05-17T10:11:14Z</time>
      </trkpt>
      <trkpt lat="45.45691" lon="5.62681">
        <ele>537.4</ele>
        <time>2015-05-17T10:11:19Z</time>
      </trkpt>
      <trkpt lat="45.45688" lon="5.62672">
        <ele>538.8</ele>
        <time>2015-05-17T10:11:26Z</time>
      </trkpt>
      <trkpt lat="45.45687" lon="5.62657">
        <ele>540.3</ele>
        <time>2015-05-17T10:11:31Z</time>
      </trkpt>
      <trkpt lat="45.45687" lon="5.62646">
        <ele>540.8</ele>
        <time>2015-05-17T10:11:33Z</time>
      </trkpt>
      <trkpt lat="45.45688" lon="5.62633">
        <ele>541.9</ele>
        <time>2015-05-17T10:11:37Z</time>
      </trkpt>
      <trkpt lat="45.45688" lon="5.62623">
        <ele>542.8</ele>
        <time>2015-05-17T10:11:40Z</time>
      </trkpt>
      <trkpt lat="45.4569" lon="5.62611">
        <ele>543.9</ele>
        <time>2015-05-17T10:11:44Z</time>
      </trkpt>
      <trkpt lat="45.45694" lon="5.62586">
        <ele>546.5</ele>
        <time>2015-05-17T10:11:52Z</time>
      </trkpt>
      <trkpt lat="45.45698" lon="5.62571">
        <ele>547.2</ele>
        <time>2015-05-17T10:11:56Z</time>
      </trkpt>
      <trkpt lat="45.45699" lon="5.62559">
        <ele>547.5</ele>
        <time>2015-05-17T10:11:59Z</time>
      </trkpt>
      <trkpt lat="45.45701" lon="5.62547">
        <ele>547.8</ele>
        <time>2015-05-17T10:12:03Z</time>
      </trkpt>
      <trkpt lat="45.45708" lon="5.62536">
        <ele>548.2</ele>
        <time>2015-05-17T10:12:08Z</time>
      </trkpt>
      <trkpt lat="45.45715" lon="5.62527">
        <ele>548.8</ele>
        <time>2015-05-17T10:12:12Z</time>
      </trkpt>
      <trkpt lat="45.45721" lon="5.62519">
        <ele>549.2</ele>
        <time>2015-05-17T10:12:16Z</time>
      </trkpt>
      <trkpt lat="45.45727" lon="5.62514">
        <ele>549.5</ele>
        <time>2015-05-17T10:12:20Z</time>
      </trkpt>
      <trkpt lat="45.45733" lon="5.62507">
        <ele>549.9</ele>
        <time>2015-05-17T10:12:24Z</time>
      </trkpt>
      <trkpt lat="45.4574" lon="5.625">
        <ele>550.2</ele>
        <time>2015-05-17T10:12:29Z</time>
      </trkpt>
      <trkpt lat="45.4575" lon="5.62498">
        <ele>550.6</ele>
        <time>2015-05-17T10:12:33Z</time>
      </trkpt>
      <trkpt lat="45.45758" lon="5.62494">
        <ele>550.8</ele>
        <time>2015-05-17T10:12:36Z</time>
      </trkpt>
      <trkpt lat="45.45766" lon="5.62491">
        <ele>551.1</ele>
        <time>2015-05-17T10:12:42Z</time>
      </trkpt>
      <trkpt lat="45.45775" lon="5.62487">
        <ele>551.2</ele>
        <time>2015-05-17T10:12:46Z</time>
      </trkpt>
      <trkpt lat="45.45786" lon="5.62486">
        <ele>551.2</ele>
        <time>2015-05-17T10:12:49Z</time>
      </trkpt>
      <trkpt lat="45.45795" lon="5.62486">
        <ele>551.3</ele>
        <time>2015-05-17T10:12:52Z</time>
      </trkpt>
      <trkpt lat="45.45805" lon="5.62482">
        <ele>551.4</ele>
        <time>2015-05-17T10:12:59Z</time>
      </trkpt>
      <trkpt lat="45.45812" lon="5.62476">
        <ele>551.6</ele>
        <time>2015-05-17T10:13:03Z</time>
      </trkpt>
      <trkpt lat="45.45819" lon="5.62469">
        <ele>552.1</ele>
        <time>2015-05-17T10:13:07Z</time>
      </trkpt>
      <trkpt lat="45.45826" lon="5.62461">
        <ele>552.4</ele>
        <time>2015-05-17T10:13:11Z</time>
      </trkpt>
      <trkpt lat="45.45833" lon="5.62457">
        <ele>552.5</ele>
        <time>2015-05-17T10:13:15Z</time>
      </trkpt>
      <trkpt lat="45.45842" lon="5.62455">
        <ele>552.6</ele>
        <time>2015-05-17T10:13:18Z</time>
      </trkpt>
      <trkpt lat="45.45849" lon="5.6245">
        <ele>552.8</ele>
        <time>2015-05-17T10:13:22Z</time>
      </trkpt>
      <trkpt lat="45.45856" lon="5.62447">
        <ele>553.2</ele>
        <time>2015-05-17T10:13:26Z</time>
      </trkpt>
      <trkpt lat="45.45864" lon="5.62443">
        <ele>554.2</ele>
        <time>2015-05-17T10:13:31Z</time>
      </trkpt>
      <trkpt lat="45.45875" lon="5.62442">
        <ele>555.2</ele>
        <time>2015-05-17T10:13:36Z</time>
      </trkpt>
      <trkpt lat="45.45884" lon="5.62439">
        <ele>556</ele>
        <time>2015-05-17T10:13:40Z</time>
      </trkpt>
      <trkpt lat="45.45891" lon="5.62435">
        <ele>556.9</ele>
        <time>2015-05-17T10:13:43Z</time>
      </trkpt>
      <trkpt lat="45.45899" lon="5.62432">
        <ele>557.9</ele>
        <time>2015-05-17T10:13:47Z</time>
      </trkpt>
      <trkpt lat="45.45907" lon="5.6243">
        <ele>558.6</ele>
        <time>2015-05-17T10:13:50Z</time>
      </trkpt>
      <trkpt lat="45.45915" lon="5.62432">
        <ele>559</ele>
        <time>2015-05-17T10:13:53Z</time>
      </trkpt>
      <trkpt lat="45.45923" lon="5.62434">
        <ele>559.4</ele>
        <time>2015-05-17T10:13:57Z</time>
      </trkpt>
      <trkpt lat="45.45932" lon="5.62439">
        <ele>559.4</ele>
        <time>2015-05-17T10:14:02Z</time>
      </trkpt>
      <trkpt lat="45.45934" lon="5.62437">
        <ele>559.7</ele>
        <time>2015-05-17T10:14:09Z</time>
      </trkpt>
      <trkpt lat="45.45928" lon="5.6243">
        <ele>560</ele>
        <time>2015-05-17T10:14:14Z</time>
      </trkpt>
      <trkpt lat="45.4592" lon="5.62424">
        <ele>560.5</ele>
        <time>2015-05-17T10:14:18Z</time>
      </trkpt>
      <trkpt lat="45.45914" lon="5.62416">
        <ele>561.1</ele>
        <time>2015-05-17T10:14:22Z</time>
      </trkpt>
      <trkpt lat="45.45906" lon="5.6241">
        <ele>561.5</ele>
        <time>2015-05-17T10:14:26Z</time>
      </trkpt>
      <trkpt lat="45.459" lon="5.62404">
        <ele>561.6</ele>
        <time>2015-05-17T10:14:29Z</time>
      </trkpt>
      <trkpt lat="45.45892" lon="5.62398">
        <ele>561.7</ele>
        <time>2015-05-17T10:14:33Z</time>
      </trkpt>
      <trkpt lat="45.45885" lon="5.62393">
        <ele>562.1</ele>
        <time>2015-05-17T10:14:36Z</time>
      </trkpt>
      <trkpt lat="45.45877" lon="5.62388">
        <ele>563</ele>
        <time>2015-05-17T10:14:39Z</time>
      </trkpt>
      <trkpt lat="45.45871" lon="5.62382">
        <ele>564.3</ele>
        <time>2015-05-17T10:14:43Z</time>
      </trkpt>
      <trkpt lat="45.45864" lon="5.62375">
        <ele>565.9</ele>
        <time>2015-05-17T10:14:48Z</time>
      </trkpt>
      <trkpt lat="45.45856" lon="5.62368">
        <ele>567.4</ele>
        <time>2015-05-17T10:14:52Z</time>
      </trkpt>
      <trkpt lat="45.45847" lon="5.62365">
        <ele>568.3</ele>
        <time>2015-05-17T10:14:55Z</time>
      </trkpt>
      <trkpt lat="45.4584" lon="5.6236">
        <ele>569.3</ele>
        <time>2015-05-17T10:14:59Z</time>
      </trkpt>
      <trkpt lat="45.45831" lon="5.62353">
        <ele>570.2</ele>
        <time>2015-05-17T10:15:03Z</time>
      </trkpt>
      <trkpt lat="45.45824" lon="5.62349">
        <ele>570.9</ele>
        <time>2015-05-17T10:15:06Z</time>
      </trkpt>
      <trkpt lat="45.45818" lon="5.62344">
        <ele>571.4</ele>
        <time>2015-05-17T10:15:09Z</time>
      </trkpt>
      <trkpt lat="45.45811" lon="5.62337">
        <ele>572.2</ele>
        <time>2015-05-17T10:15:13Z</time>
      </trkpt>
      <trkpt lat="45.45805" lon="5.62332">
        <ele>572.7</ele>
        <time>2015-05-17T10:15:15Z</time>
      </trkpt>
      <trkpt lat="45.45796" lon="5.62327">
        <ele>573.5</ele>
        <time>2015-05-17T10:15:19Z</time>
      </trkpt>
      <trkpt lat="45.45789" lon="5.62322">
        <ele>574.1</ele>
        <time>2015-05-17T10:15:22Z</time>
      </trkpt>
      <trkpt lat="45.4578" lon="5.62319">
        <ele>574.8</ele>
        <time>2015-05-17T10:15:26Z</time>
      </trkpt>
      <trkpt lat="45.45771" lon="5.62314">
        <ele>575.2</ele>
        <time>2015-05-17T10:15:30Z</time>
      </trkpt>
      <trkpt lat="45.45765" lon="5.62308">
        <ele>575.2</ele>
        <time>2015-05-17T10:15:33Z</time>
      </trkpt>
      <trkpt lat="45.4576" lon="5.62299">
        <ele>574.6</ele>
        <time>2015-05-17T10:15:37Z</time>
      </trkpt>
      <trkpt lat="45.45764" lon="5.62288">
        <ele>575.3</ele>
        <time>2015-05-17T10:15:44Z</time>
      </trkpt>
      <trkpt lat="45.45771" lon="5.62283">
        <ele>576</ele>
        <time>2015-05-17T10:15:47Z</time>
      </trkpt>
      <trkpt lat="45.4578" lon="5.62276">
        <ele>576.9</ele>
        <time>2015-05-17T10:15:51Z</time>
      </trkpt>
      <trkpt lat="45.45787" lon="5.62271">
        <ele>577.5</ele>
        <time>2015-05-17T10:15:54Z</time>
      </trkpt>
      <trkpt lat="45.45792" lon="5.62264">
        <ele>578</ele>
        <time>2015-05-17T10:15:57Z</time>
      </trkpt>
      <trkpt lat="45.45798" lon="5.62254">
        <ele>578.7</ele>
        <time>2015-05-17T10:16:01Z</time>
      </trkpt>
      <trkpt lat="45.45798" lon="5.6224">
        <ele>578.9</ele>
        <time>2015-05-17T10:16:05Z</time>
      </trkpt>
      <trkpt lat="45.45796" lon="5.62227">
        <ele>579.3</ele>
        <time>2015-05-17T10:16:09Z</time>
      </trkpt>
      <trkpt lat="45.45793" lon="5.62215">
        <ele>579.8</ele>
        <time>2015-05-17T10:16:13Z</time>
      </trkpt>
      <trkpt lat="45.45788" lon="5.62207">
        <ele>580</ele>
        <time>2015-05-17T10:16:17Z</time>
      </trkpt>
      <trkpt lat="45.45781" lon="5.62198">
        <ele>580.1</ele>
        <time>2015-05-17T10:16:22Z</time>
      </trkpt>
      <trkpt lat="45.45775" lon="5.6219">
        <ele>580.4</ele>
        <time>2015-05-17T10:16:26Z</time>
      </trkpt>
      <trkpt lat="45.4577" lon="5.62182">
        <ele>580.7</ele>
        <time>2015-05-17T10:16:30Z</time>
      </trkpt>
      <trkpt lat="45.45763" lon="5.62174">
        <ele>581</ele>
        <time>2015-05-17T10:16:34Z</time>
      </trkpt>
      <trkpt lat="45.45756" lon="5.62167">
        <ele>581.4</ele>
        <time>2015-05-17T10:16:38Z</time>
      </trkpt>
      <trkpt lat="45.45748" lon="5.62162">
        <ele>582.3</ele>
        <time>2015-05-17T10:16:44Z</time>
      </trkpt>
      <trkpt lat="45.45742" lon="5.62156">
        <ele>582.8</ele>
        <time>2015-05-17T10:16:47Z</time>
      </trkpt>
      <trkpt lat="45.45735" lon="5.62151">
        <ele>583.5</ele>
        <time>2015-05-17T10:16:50Z</time>
      </trkpt>
      <trkpt lat="45.45728" lon="5.62147">
        <ele>584.2</ele>
        <time>2015-05-17T10:16:53Z</time>
      </trkpt>
      <trkpt lat="45.4572" lon="5.62144">
        <ele>584.8</ele>
        <time>2015-05-17T10:16:56Z</time>
      </trkpt>
      <trkpt lat="45.45712" lon="5.6214">
        <ele>585.3</ele>
        <time>2015-05-17T10:16:59Z</time>
      </trkpt>
      <trkpt lat="45.45705" lon="5.62135">
        <ele>585.8</ele>
        <time>2015-05-17T10:17:02Z</time>
      </trkpt>
      <trkpt lat="45.45698" lon="5.62128">
        <ele>586</ele>
        <time>2015-05-17T10:17:05Z</time>
      </trkpt>
      <trkpt lat="45.4569" lon="5.62124">
        <ele>586</ele>
        <time>2015-05-17T10:17:09Z</time>
      </trkpt>
      <trkpt lat="45.45682" lon="5.62121">
        <ele>586.8</ele>
        <time>2015-05-17T10:17:16Z</time>
      </trkpt>
      <trkpt lat="45.45674" lon="5.62117">
        <ele>588.2</ele>
        <time>2015-05-17T10:17:22Z</time>
      </trkpt>
      <trkpt lat="45.45667" lon="5.62113">
        <ele>589.3</ele>
        <time>2015-05-17T10:17:27Z</time>
      </trkpt>
      <trkpt lat="45.4566" lon="5.62105">
        <ele>590.1</ele>
        <time>2015-05-17T10:17:33Z</time>
      </trkpt>
      <trkpt lat="45.45655" lon="5.62098">
        <ele>591.3</ele>
        <time>2015-05-17T10:17:38Z</time>
      </trkpt>
      <trkpt lat="45.4565" lon="5.6209">
        <ele>592.5</ele>
        <time>2015-05-17T10:17:43Z</time>
      </trkpt>
      <trkpt lat="45.45644" lon="5.62082">
        <ele>595</ele>
        <time>2015-05-17T10:17:50Z</time>
      </trkpt>
      <trkpt lat="45.45638" lon="5.62074">
        <ele>597.4</ele>
        <time>2015-05-17T10:17:56Z</time>
      </trkpt>
      <trkpt lat="45.45632" lon="5.62068">
        <ele>600</ele>
        <time>2015-05-17T10:18:03Z</time>
      </trkpt>
      <trkpt lat="45.45625" lon="5.62062">
        <ele>602.1</ele>
        <time>2015-05-17T10:18:09Z</time>
      </trkpt>
      <trkpt lat="45.45617" lon="5.62055">
        <ele>603.8</ele>
        <time>2015-05-17T10:18:14Z</time>
      </trkpt>
      <trkpt lat="45.45613" lon="5.62046">
        <ele>605.1</ele>
        <time>2015-05-17T10:18:18Z</time>
      </trkpt>
      <trkpt lat="45.45606" lon="5.62041">
        <ele>607.3</ele>
        <time>2015-05-17T10:18:25Z</time>
      </trkpt>
      <trkpt lat="45.45602" lon="5.62031">
        <ele>608.7</ele>
        <time>2015-05-17T10:18:29Z</time>
      </trkpt>
      <trkpt lat="45.45599" lon="5.62022">
        <ele>609.9</ele>
        <time>2015-05-17T10:18:33Z</time>
      </trkpt>
      <trkpt lat="45.45592" lon="5.62017">
        <ele>612</ele>
        <time>2015-05-17T10:18:39Z</time>
      </trkpt>
      <trkpt lat="45.45588" lon="5.62007">
        <ele>613.4</ele>
        <time>2015-05-17T10:18:44Z</time>
      </trkpt>
      <trkpt lat="45.45583" lon="5.61998">
        <ele>615.1</ele>
        <time>2015-05-17T10:18:49Z</time>
      </trkpt>
      <trkpt lat="45.45577" lon="5.6199">
        <ele>616.1</ele>
        <time>2015-05-17T10:18:52Z</time>
      </trkpt>
      <trkpt lat="45.45571" lon="5.61982">
        <ele>616.9</ele>
        <time>2015-05-17T10:18:56Z</time>
      </trkpt>
      <trkpt lat="45.45564" lon="5.61977">
        <ele>617.6</ele>
        <time>2015-05-17T10:19:01Z</time>
      </trkpt>
      <trkpt lat="45.45559" lon="5.61969">
        <ele>618.9</ele>
        <time>2015-05-17T10:19:06Z</time>
      </trkpt>
      <trkpt lat="45.45553" lon="5.61962">
        <ele>620</ele>
        <time>2015-05-17T10:19:10Z</time>
      </trkpt>
      <trkpt lat="45.45548" lon="5.61953">
        <ele>621.3</ele>
        <time>2015-05-17T10:19:15Z</time>
      </trkpt>
      <trkpt lat="45.45541" lon="5.61946">
        <ele>622.4</ele>
        <time>2015-05-17T10:19:20Z</time>
      </trkpt>
      <trkpt lat="45.45535" lon="5.61939">
        <ele>623.4</ele>
        <time>2015-05-17T10:19:24Z</time>
      </trkpt>
      <trkpt lat="45.4553" lon="5.61931">
        <ele>624.1</ele>
        <time>2015-05-17T10:19:28Z</time>
      </trkpt>
      <trkpt lat="45.45527" lon="5.61919">
        <ele>625</ele>
        <time>2015-05-17T10:19:32Z</time>
      </trkpt>
      <trkpt lat="45.45522" lon="5.61909">
        <ele>626.1</ele>
        <time>2015-05-17T10:19:37Z</time>
      </trkpt>
      <trkpt lat="45.45519" lon="5.61897">
        <ele>626.7</ele>
        <time>2015-05-17T10:19:41Z</time>
      </trkpt>
      <trkpt lat="45.45518" lon="5.61886">
        <ele>628.3</ele>
        <time>2015-05-17T10:19:48Z</time>
      </trkpt>
      <trkpt lat="45.45515" lon="5.61877">
        <ele>629.7</ele>
        <time>2015-05-17T10:19:54Z</time>
      </trkpt>
      <trkpt lat="45.45512" lon="5.61867">
        <ele>630.8</ele>
        <time>2015-05-17T10:19:59Z</time>
      </trkpt>
      <trkpt lat="45.45506" lon="5.6186">
        <ele>631.5</ele>
        <time>2015-05-17T10:20:02Z</time>
      </trkpt>
      <trkpt lat="45.455" lon="5.61851">
        <ele>632.2</ele>
        <time>2015-05-17T10:20:05Z</time>
      </trkpt>
      <trkpt lat="45.45496" lon="5.61841">
        <ele>632.5</ele>
        <time>2015-05-17T10:20:08Z</time>
      </trkpt>
      <trkpt lat="45.45492" lon="5.61828">
        <ele>632.4</ele>
        <time>2015-05-17T10:20:12Z</time>
      </trkpt>
      <trkpt lat="45.45488" lon="5.61816">
        <ele>632.3</ele>
        <time>2015-05-17T10:20:16Z</time>
      </trkpt>
      <trkpt lat="45.45484" lon="5.61806">
        <ele>632.4</ele>
        <time>2015-05-17T10:20:20Z</time>
      </trkpt>
      <trkpt lat="45.45484" lon="5.61802">
        <ele>632.4</ele>
        <time>2015-05-17T10:20:27Z</time>
      </trkpt>
      <trkpt lat="45.45483" lon="5.61799">
        <ele>632.3</ele>
        <time>2015-05-17T10:20:39Z</time>
      </trkpt>
      <trkpt lat="45.45481" lon="5.61802">
        <ele>631.6</ele>
        <time>2015-05-17T10:21:00Z</time>
      </trkpt>
      <trkpt lat="45.45481" lon="5.61803">
        <ele>631.5</ele>
        <time>2015-05-17T10:21:35Z</time>
      </trkpt>
      <trkpt lat="45.45484" lon="5.61802">
        <ele>632.5</ele>
        <time>2015-05-17T10:21:42Z</time>
      </trkpt>
      <trkpt lat="45.45484" lon="5.61803">
        <ele>632.3</ele>
        <time>2015-05-17T10:21:49Z</time>
      </trkpt>
      <trkpt lat="45.45491" lon="5.61813">
        <ele>632.4</ele>
        <time>2015-05-17T10:21:54Z</time>
      </trkpt>
      <trkpt lat="45.45496" lon="5.61822">
        <ele>632.5</ele>
        <time>2015-05-17T10:21:57Z</time>
      </trkpt>
      <trkpt lat="45.45502" lon="5.61834">
        <ele>632.6</ele>
        <time>2015-05-17T10:22:00Z</time>
      </trkpt>
      <trkpt lat="45.45508" lon="5.61845">
        <ele>632.7</ele>
        <time>2015-05-17T10:22:03Z</time>
      </trkpt>
      <trkpt lat="45.45515" lon="5.61857">
        <ele>633.2</ele>
        <time>2015-05-17T10:22:06Z</time>
      </trkpt>
      <trkpt lat="45.45521" lon="5.61867">
        <ele>633.3</ele>
        <time>2015-05-17T10:22:09Z</time>
      </trkpt>
      <trkpt lat="45.45528" lon="5.61878">
        <ele>633.5</ele>
        <time>2015-05-17T10:22:12Z</time>
      </trkpt>
      <trkpt lat="45.45534" lon="5.61887">
        <ele>633.8</ele>
        <time>2015-05-17T10:22:14Z</time>
      </trkpt>
      <trkpt lat="45.45539" lon="5.61895">
        <ele>633.2</ele>
        <time>2015-05-17T10:22:16Z</time>
      </trkpt>
      <trkpt lat="45.45546" lon="5.61903">
        <ele>633.2</ele>
        <time>2015-05-17T10:22:18Z</time>
      </trkpt>
      <trkpt lat="45.45553" lon="5.61912">
        <ele>633.3</ele>
        <time>2015-05-17T10:22:21Z</time>
      </trkpt>
      <trkpt lat="45.4556" lon="5.61919">
        <ele>633.5</ele>
        <time>2015-05-17T10:22:23Z</time>
      </trkpt>
      <trkpt lat="45.45567" lon="5.61927">
        <ele>634.3</ele>
        <time>2015-05-17T10:22:25Z</time>
      </trkpt>
      <trkpt lat="45.45573" lon="5.61933">
        <ele>635.1</ele>
        <time>2015-05-17T10:22:27Z</time>
      </trkpt>
      <trkpt lat="45.4558" lon="5.6194">
        <ele>635.7</ele>
        <time>2015-05-17T10:22:29Z</time>
      </trkpt>
      <trkpt lat="45.45587" lon="5.61945">
        <ele>635.8</ele>
        <time>2015-05-17T10:22:31Z</time>
      </trkpt>
      <trkpt lat="45.45595" lon="5.61953">
        <ele>635.4</ele>
        <time>2015-05-17T10:22:34Z</time>
      </trkpt>
      <trkpt lat="45.45602" lon="5.61958">
        <ele>635.4</ele>
        <time>2015-05-17T10:22:36Z</time>
      </trkpt>
      <trkpt lat="45.45608" lon="5.61962">
        <ele>635.3</ele>
        <time>2015-05-17T10:22:38Z</time>
      </trkpt>
      <trkpt lat="45.45619" lon="5.61966">
        <ele>635.2</ele>
        <time>2015-05-17T10:22:41Z</time>
      </trkpt>
      <trkpt lat="45.45629" lon="5.61971">
        <ele>635.2</ele>
        <time>2015-05-17T10:22:44Z</time>
      </trkpt>
      <trkpt lat="45.45636" lon="5.61974">
        <ele>635.1</ele>
        <time>2015-05-17T10:22:46Z</time>
      </trkpt>
      <trkpt lat="45.45643" lon="5.61977">
        <ele>635</ele>
        <time>2015-05-17T10:22:48Z</time>
      </trkpt>
      <trkpt lat="45.45651" lon="5.6198">
        <ele>634.9</ele>
        <time>2015-05-17T10:22:50Z</time>
      </trkpt>
      <trkpt lat="45.45658" lon="5.61982">
        <ele>634.3</ele>
        <time>2015-05-17T10:22:52Z</time>
      </trkpt>
      <trkpt lat="45.45666" lon="5.61983">
        <ele>633.8</ele>
        <time>2015-05-17T10:22:54Z</time>
      </trkpt>
      <trkpt lat="45.45674" lon="5.61982">
        <ele>633.6</ele>
        <time>2015-05-17T10:22:56Z</time>
      </trkpt>
      <trkpt lat="45.45682" lon="5.61985">
        <ele>634.4</ele>
        <time>2015-05-17T10:22:58Z</time>
      </trkpt>
      <trkpt lat="45.4569" lon="5.61987">
        <ele>634.8</ele>
        <time>2015-05-17T10:23:00Z</time>
      </trkpt>
      <trkpt lat="45.45699" lon="5.6199">
        <ele>633.8</ele>
        <time>2015-05-17T10:23:02Z</time>
      </trkpt>
      <trkpt lat="45.45708" lon="5.61993">
        <ele>632.7</ele>
        <time>2015-05-17T10:23:04Z</time>
      </trkpt>
      <trkpt lat="45.45717" lon="5.61995">
        <ele>633</ele>
        <time>2015-05-17T10:23:06Z</time>
      </trkpt>
      <trkpt lat="45.45728" lon="5.61997">
        <ele>633.9</ele>
        <time>2015-05-17T10:23:08Z</time>
      </trkpt>
      <trkpt lat="45.45735" lon="5.61998">
        <ele>633.7</ele>
        <time>2015-05-17T10:23:09Z</time>
      </trkpt>
      <trkpt lat="45.45743" lon="5.62">
        <ele>633.4</ele>
        <time>2015-05-17T10:23:10Z</time>
      </trkpt>
      <trkpt lat="45.4575" lon="5.62001">
        <ele>632.8</ele>
        <time>2015-05-17T10:23:11Z</time>
      </trkpt>
      <trkpt lat="45.45759" lon="5.62003">
        <ele>632</ele>
        <time>2015-05-17T10:23:12Z</time>
      </trkpt>
      <trkpt lat="45.45767" lon="5.62005">
        <ele>631.2</ele>
        <time>2015-05-17T10:23:13Z</time>
      </trkpt>
      <trkpt lat="45.45775" lon="5.62007">
        <ele>630.5</ele>
        <time>2015-05-17T10:23:14Z</time>
      </trkpt>
      <trkpt lat="45.45783" lon="5.62009">
        <ele>629.7</ele>
        <time>2015-05-17T10:23:15Z</time>
      </trkpt>
      <trkpt lat="45.45791" lon="5.62011">
        <ele>629.1</ele>
        <time>2015-05-17T10:23:16Z</time>
      </trkpt>
      <trkpt lat="45.45799" lon="5.62013">
        <ele>628.6</ele>
        <time>2015-05-17T10:23:17Z</time>
      </trkpt>
      <trkpt lat="45.45807" lon="5.62014">
        <ele>628.4</ele>
        <time>2015-05-17T10:23:18Z</time>
      </trkpt>
      <trkpt lat="45.45814" lon="5.62014">
        <ele>628.4</ele>
        <time>2015-05-17T10:23:19Z</time>
      </trkpt>
      <trkpt lat="45.45823" lon="5.62014">
        <ele>628.3</ele>
        <time>2015-05-17T10:23:20Z</time>
      </trkpt>
      <trkpt lat="45.45832" lon="5.62015">
        <ele>627.9</ele>
        <time>2015-05-17T10:23:21Z</time>
      </trkpt>
      <trkpt lat="45.45841" lon="5.62014">
        <ele>627.2</ele>
        <time>2015-05-17T10:23:22Z</time>
      </trkpt>
      <trkpt lat="45.45852" lon="5.62013">
        <ele>626.1</ele>
        <time>2015-05-17T10:23:23Z</time>
      </trkpt>
      <trkpt lat="45.45862" lon="5.62012">
        <ele>624.8</ele>
        <time>2015-05-17T10:23:24Z</time>
      </trkpt>
      <trkpt lat="45.45871" lon="5.62011">
        <ele>623.5</ele>
        <time>2015-05-17T10:23:25Z</time>
      </trkpt>
      <trkpt lat="45.45881" lon="5.62011">
        <ele>622.2</ele>
        <time>2015-05-17T10:23:26Z</time>
      </trkpt>
      <trkpt lat="45.4589" lon="5.6201">
        <ele>620.8</ele>
        <time>2015-05-17T10:23:27Z</time>
      </trkpt>
      <trkpt lat="45.45898" lon="5.62011">
        <ele>619.6</ele>
        <time>2015-05-17T10:23:28Z</time>
      </trkpt>
      <trkpt lat="45.45907" lon="5.62012">
        <ele>618.8</ele>
        <time>2015-05-17T10:23:29Z</time>
      </trkpt>
      <trkpt lat="45.45916" lon="5.62012">
        <ele>618.3</ele>
        <time>2015-05-17T10:23:30Z</time>
      </trkpt>
      <trkpt lat="45.45926" lon="5.62014">
        <ele>618</ele>
        <time>2015-05-17T10:23:31Z</time>
      </trkpt>
      <trkpt lat="45.45936" lon="5.62017">
        <ele>617.6</ele>
        <time>2015-05-17T10:23:32Z</time>
      </trkpt>
      <trkpt lat="45.45947" lon="5.6202">
        <ele>617.2</ele>
        <time>2015-05-17T10:23:33Z</time>
      </trkpt>
      <trkpt lat="45.45957" lon="5.62024">
        <ele>616.8</ele>
        <time>2015-05-17T10:23:34Z</time>
      </trkpt>
      <trkpt lat="45.45968" lon="5.62029">
        <ele>616.1</ele>
        <time>2015-05-17T10:23:35Z</time>
      </trkpt>
      <trkpt lat="45.45979" lon="5.62034">
        <ele>615.2</ele>
        <time>2015-05-17T10:23:36Z</time>
      </trkpt>
      <trkpt lat="45.4599" lon="5.62039">
        <ele>614.1</ele>
        <time>2015-05-17T10:23:37Z</time>
      </trkpt>
      <trkpt lat="45.46001" lon="5.62044">
        <ele>613.1</ele>
        <time>2015-05-17T10:23:38Z</time>
      </trkpt>
      <trkpt lat="45.46012" lon="5.62049">
        <ele>611.9</ele>
        <time>2015-05-17T10:23:39Z</time>
      </trkpt>
      <trkpt lat="45.46023" lon="5.62053">
        <ele>610.6</ele>
        <time>2015-05-17T10:23:40Z</time>
      </trkpt>
      <trkpt lat="45.46033" lon="5.62058">
        <ele>609.5</ele>
        <time>2015-05-17T10:23:41Z</time>
      </trkpt>
      <trkpt lat="45.46043" lon="5.62063">
        <ele>608.4</ele>
        <time>2015-05-17T10:23:42Z</time>
      </trkpt>
      <trkpt lat="45.46053" lon="5.62067">
        <ele>606.7</ele>
        <time>2015-05-17T10:23:43Z</time>
      </trkpt>
      <trkpt lat="45.46063" lon="5.62071">
        <ele>605.5</ele>
        <time>2015-05-17T10:23:44Z</time>
      </trkpt>
      <trkpt lat="45.46073" lon="5.62076">
        <ele>604.1</ele>
        <time>2015-05-17T10:23:45Z</time>
      </trkpt>
      <trkpt lat="45.46082" lon="5.6208">
        <ele>603</ele>
        <time>2015-05-17T10:23:46Z</time>
      </trkpt>
      <trkpt lat="45.4609" lon="5.62084">
        <ele>602.3</ele>
        <time>2015-05-17T10:23:47Z</time>
      </trkpt>
      <trkpt lat="45.46098" lon="5.62088">
        <ele>601.8</ele>
        <time>2015-05-17T10:23:48Z</time>
      </trkpt>
      <trkpt lat="45.46108" lon="5.62093">
        <ele>601.1</ele>
        <time>2015-05-17T10:23:49Z</time>
      </trkpt>
      <trkpt lat="45.46117" lon="5.62098">
        <ele>600.4</ele>
        <time>2015-05-17T10:23:50Z</time>
      </trkpt>
      <trkpt lat="45.46126" lon="5.62101">
        <ele>600.1</ele>
        <time>2015-05-17T10:23:51Z</time>
      </trkpt>
      <trkpt lat="45.46133" lon="5.62105">
        <ele>600</ele>
        <time>2015-05-17T10:23:52Z</time>
      </trkpt>
      <trkpt lat="45.46145" lon="5.62109">
        <ele>599.3</ele>
        <time>2015-05-17T10:23:54Z</time>
      </trkpt>
      <trkpt lat="45.46157" lon="5.62109">
        <ele>599.6</ele>
        <time>2015-05-17T10:23:56Z</time>
      </trkpt>
      <trkpt lat="45.46166" lon="5.62104">
        <ele>600.7</ele>
        <time>2015-05-17T10:23:58Z</time>
      </trkpt>
      <trkpt lat="45.46173" lon="5.62098">
        <ele>601.8</ele>
        <time>2015-05-17T10:24:00Z</time>
      </trkpt>
      <trkpt lat="45.46179" lon="5.62092">
        <ele>602</ele>
        <time>2015-05-17T10:24:02Z</time>
      </trkpt>
      <trkpt lat="45.46186" lon="5.62087">
        <ele>602.3</ele>
        <time>2015-05-17T10:24:04Z</time>
      </trkpt>
      <trkpt lat="45.46195" lon="5.62082">
        <ele>602.3</ele>
        <time>2015-05-17T10:24:07Z</time>
      </trkpt>
      <trkpt lat="45.46205" lon="5.62081">
        <ele>602.4</ele>
        <time>2015-05-17T10:24:10Z</time>
      </trkpt>
      <trkpt lat="45.46214" lon="5.62085">
        <ele>602.6</ele>
        <time>2015-05-17T10:24:13Z</time>
      </trkpt>
      <trkpt lat="45.46223" lon="5.6209">
        <ele>602.8</ele>
        <time>2015-05-17T10:24:16Z</time>
      </trkpt>
      <trkpt lat="45.46232" lon="5.62097">
        <ele>603</ele>
        <time>2015-05-17T10:24:19Z</time>
      </trkpt>
      <trkpt lat="45.46239" lon="5.62103">
        <ele>603.3</ele>
        <time>2015-05-17T10:24:22Z</time>
      </trkpt>
      <trkpt lat="45.46246" lon="5.62111">
        <ele>603.6</ele>
        <time>2015-05-17T10:24:25Z</time>
      </trkpt>
      <trkpt lat="45.46253" lon="5.62117">
        <ele>604.1</ele>
        <time>2015-05-17T10:24:29Z</time>
      </trkpt>
      <trkpt lat="45.4626" lon="5.62123">
        <ele>604.6</ele>
        <time>2015-05-17T10:24:33Z</time>
      </trkpt>
      <trkpt lat="45.46267" lon="5.62128">
        <ele>605</ele>
        <time>2015-05-17T10:24:36Z</time>
      </trkpt>
      <trkpt lat="45.46276" lon="5.62133">
        <ele>605.5</ele>
        <time>2015-05-17T10:24:40Z</time>
      </trkpt>
      <trkpt lat="45.46285" lon="5.62136">
        <ele>606.1</ele>
        <time>2015-05-17T10:24:44Z</time>
      </trkpt>
      <trkpt lat="45.46293" lon="5.62141">
        <ele>606.6</ele>
        <time>2015-05-17T10:24:47Z</time>
      </trkpt>
      <trkpt lat="45.463" lon="5.62145">
        <ele>607.3</ele>
        <time>2015-05-17T10:24:51Z</time>
      </trkpt>
      <trkpt lat="45.46307" lon="5.62148">
        <ele>608.3</ele>
        <time>2015-05-17T10:24:55Z</time>
      </trkpt>
      <trkpt lat="45.46315" lon="5.62152">
        <ele>609.4</ele>
        <time>2015-05-17T10:24:59Z</time>
      </trkpt>
      <trkpt lat="45.46324" lon="5.62156">
        <ele>610.5</ele>
        <time>2015-05-17T10:25:03Z</time>
      </trkpt>
      <trkpt lat="45.46333" lon="5.6216">
        <ele>611</ele>
        <time>2015-05-17T10:25:06Z</time>
      </trkpt>
      <trkpt lat="45.46341" lon="5.62163">
        <ele>611.7</ele>
        <time>2015-05-17T10:25:09Z</time>
      </trkpt>
      <trkpt lat="45.46349" lon="5.62168">
        <ele>612.5</ele>
        <time>2015-05-17T10:25:13Z</time>
      </trkpt>
      <trkpt lat="45.46357" lon="5.62174">
        <ele>613.3</ele>
        <time>2015-05-17T10:25:17Z</time>
      </trkpt>
      <trkpt lat="45.46365" lon="5.62179">
        <ele>614.1</ele>
        <time>2015-05-17T10:25:20Z</time>
      </trkpt>
      <trkpt lat="45.46374" lon="5.62182">
        <ele>615</ele>
        <time>2015-05-17T10:25:24Z</time>
      </trkpt>
      <trkpt lat="45.46383" lon="5.62183">
        <ele>615.7</ele>
        <time>2015-05-17T10:25:27Z</time>
      </trkpt>
      <trkpt lat="45.46391" lon="5.62184">
        <ele>616.3</ele>
        <time>2015-05-17T10:25:30Z</time>
      </trkpt>
      <trkpt lat="45.46401" lon="5.62184">
        <ele>616.8</ele>
        <time>2015-05-17T10:25:33Z</time>
      </trkpt>
      <trkpt lat="45.46408" lon="5.62186">
        <ele>617.3</ele>
        <time>2015-05-17T10:25:36Z</time>
      </trkpt>
      <trkpt lat="45.46416" lon="5.62189">
        <ele>617.9</ele>
        <time>2015-05-17T10:25:40Z</time>
      </trkpt>
      <trkpt lat="45.46424" lon="5.62192">
        <ele>618.5</ele>
        <time>2015-05-17T10:25:44Z</time>
      </trkpt>
      <trkpt lat="45.4643" lon="5.62199">
        <ele>619</ele>
        <time>2015-05-17T10:25:47Z</time>
      </trkpt>
      <trkpt lat="45.46437" lon="5.62211">
        <ele>619.4</ele>
        <time>2015-05-17T10:25:50Z</time>
      </trkpt>
      <trkpt lat="45.46443" lon="5.6222">
        <ele>619.7</ele>
        <time>2015-05-17T10:25:53Z</time>
      </trkpt>
      <trkpt lat="45.4645" lon="5.62228">
        <ele>620.4</ele>
        <time>2015-05-17T10:25:57Z</time>
      </trkpt>
      <trkpt lat="45.46457" lon="5.62233">
        <ele>620.9</ele>
        <time>2015-05-17T10:26:00Z</time>
      </trkpt>
      <trkpt lat="45.46464" lon="5.62238">
        <ele>621.4</ele>
        <time>2015-05-17T10:26:03Z</time>
      </trkpt>
      <trkpt lat="45.46472" lon="5.62243">
        <ele>622.2</ele>
        <time>2015-05-17T10:26:07Z</time>
      </trkpt>
      <trkpt lat="45.46481" lon="5.62248">
        <ele>623</ele>
        <time>2015-05-17T10:26:11Z</time>
      </trkpt>
      <trkpt lat="45.46488" lon="5.62251">
        <ele>623.6</ele>
        <time>2015-05-17T10:26:14Z</time>
      </trkpt>
      <trkpt lat="45.46495" lon="5.62254">
        <ele>624.2</ele>
        <time>2015-05-17T10:26:17Z</time>
      </trkpt>
      <trkpt lat="45.46504" lon="5.62259">
        <ele>625</ele>
        <time>2015-05-17T10:26:21Z</time>
      </trkpt>
      <trkpt lat="45.46512" lon="5.62263">
        <ele>625.9</ele>
        <time>2015-05-17T10:26:25Z</time>
      </trkpt>
      <trkpt lat="45.4652" lon="5.62266">
        <ele>626.4</ele>
        <time>2015-05-17T10:26:28Z</time>
      </trkpt>
      <trkpt lat="45.46527" lon="5.62268">
        <ele>627.2</ele>
        <time>2015-05-17T10:26:32Z</time>
      </trkpt>
      <trkpt lat="45.46535" lon="5.62271">
        <ele>627.8</ele>
        <time>2015-05-17T10:26:35Z</time>
      </trkpt>
      <trkpt lat="45.46544" lon="5.62275">
        <ele>628.7</ele>
        <time>2015-05-17T10:26:39Z</time>
      </trkpt>
      <trkpt lat="45.46552" lon="5.62277">
        <ele>629.7</ele>
        <time>2015-05-17T10:26:43Z</time>
      </trkpt>
      <trkpt lat="45.46561" lon="5.6228">
        <ele>630.9</ele>
        <time>2015-05-17T10:26:47Z</time>
      </trkpt>
      <trkpt lat="45.4657" lon="5.62285">
        <ele>631.9</ele>
        <time>2015-05-17T10:26:51Z</time>
      </trkpt>
      <trkpt lat="45.46577" lon="5.62287">
        <ele>632.5</ele>
        <time>2015-05-17T10:26:54Z</time>
      </trkpt>
      <trkpt lat="45.46586" lon="5.6229">
        <ele>633.3</ele>
        <time>2015-05-17T10:26:59Z</time>
      </trkpt>
      <trkpt lat="45.46595" lon="5.62292">
        <ele>633.9</ele>
        <time>2015-05-17T10:27:02Z</time>
      </trkpt>
      <trkpt lat="45.46603" lon="5.62296">
        <ele>634.8</ele>
        <time>2015-05-17T10:27:06Z</time>
      </trkpt>
      <trkpt lat="45.46612" lon="5.62299">
        <ele>635.7</ele>
        <time>2015-05-17T10:27:10Z</time>
      </trkpt>
      <trkpt lat="45.46621" lon="5.62301">
        <ele>636.6</ele>
        <time>2015-05-17T10:27:14Z</time>
      </trkpt>
      <trkpt lat="45.4663" lon="5.62299">
        <ele>637.4</ele>
        <time>2015-05-17T10:27:18Z</time>
      </trkpt>
      <trkpt lat="45.46638" lon="5.62292">
        <ele>638.2</ele>
        <time>2015-05-17T10:27:22Z</time>
      </trkpt>
      <trkpt lat="45.46644" lon="5.62284">
        <ele>639</ele>
        <time>2015-05-17T10:27:27Z</time>
      </trkpt>
      <trkpt lat="45.46648" lon="5.62274">
        <ele>639.6</ele>
        <time>2015-05-17T10:27:32Z</time>
      </trkpt>
      <trkpt lat="45.46654" lon="5.62266">
        <ele>640</ele>
        <time>2015-05-17T10:27:35Z</time>
      </trkpt>
      <trkpt lat="45.46662" lon="5.62267">
        <ele>640.5</ele>
        <time>2015-05-17T10:27:38Z</time>
      </trkpt>
      <trkpt lat="45.46671" lon="5.62268">
        <ele>640.6</ele>
        <time>2015-05-17T10:27:41Z</time>
      </trkpt>
      <trkpt lat="45.4668" lon="5.62271">
        <ele>641</ele>
        <time>2015-05-17T10:27:44Z</time>
      </trkpt>
      <trkpt lat="45.46687" lon="5.62274">
        <ele>641.2</ele>
        <time>2015-05-17T10:27:47Z</time>
      </trkpt>
      <trkpt lat="45.46694" lon="5.62277">
        <ele>642</ele>
        <time>2015-05-17T10:27:52Z</time>
      </trkpt>
      <trkpt lat="45.46703" lon="5.6228">
        <ele>643</ele>
        <time>2015-05-17T10:27:57Z</time>
      </trkpt>
      <trkpt lat="45.46711" lon="5.62283">
        <ele>644.1</ele>
        <time>2015-05-17T10:28:01Z</time>
      </trkpt>
      <trkpt lat="45.46714" lon="5.62285">
        <ele>645.8</ele>
        <time>2015-05-17T10:28:08Z</time>
      </trkpt>
      <trkpt lat="45.46725" lon="5.62288">
        <ele>646.6</ele>
        <time>2015-05-17T10:28:11Z</time>
      </trkpt>
      <trkpt lat="45.46731" lon="5.62288">
        <ele>648.9</ele>
        <time>2015-05-17T10:28:18Z</time>
      </trkpt>
      <trkpt lat="45.46739" lon="5.62285">
        <ele>649.8</ele>
        <time>2015-05-17T10:28:22Z</time>
      </trkpt>
      <trkpt lat="45.46748" lon="5.62282">
        <ele>651.5</ele>
        <time>2015-05-17T10:28:28Z</time>
      </trkpt>
      <trkpt lat="45.46755" lon="5.62281">
        <ele>652.8</ele>
        <time>2015-05-17T10:28:35Z</time>
      </trkpt>
      <trkpt lat="45.46763" lon="5.62281">
        <ele>653.8</ele>
        <time>2015-05-17T10:28:41Z</time>
      </trkpt>
      <trkpt lat="45.46778" lon="5.62276">
        <ele>655.9</ele>
        <time>2015-05-17T10:28:53Z</time>
      </trkpt>
      <trkpt lat="45.46787" lon="5.62277">
        <ele>656.4</ele>
        <time>2015-05-17T10:28:56Z</time>
      </trkpt>
      <trkpt lat="45.46796" lon="5.62278">
        <ele>656.8</ele>
        <time>2015-05-17T10:29:00Z</time>
      </trkpt>
      <trkpt lat="45.46803" lon="5.6228">
        <ele>657.5</ele>
        <time>2015-05-17T10:29:04Z</time>
      </trkpt>
      <trkpt lat="45.46811" lon="5.62281">
        <ele>658.7</ele>
        <time>2015-05-17T10:29:10Z</time>
      </trkpt>
      <trkpt lat="45.46819" lon="5.62281">
        <ele>659.5</ele>
        <time>2015-05-17T10:29:15Z</time>
      </trkpt>
      <trkpt lat="45.46826" lon="5.62275">
        <ele>660.6</ele>
        <time>2015-05-17T10:29:21Z</time>
      </trkpt>
      <trkpt lat="45.46831" lon="5.62267">
        <ele>662.2</ele>
        <time>2015-05-17T10:29:27Z</time>
      </trkpt>
      <trkpt lat="45.46833" lon="5.62265">
        <ele>662.8</ele>
        <time>2015-05-17T10:29:34Z</time>
      </trkpt>
      <trkpt lat="45.46833" lon="5.62262">
        <ele>663.4</ele>
        <time>2015-05-17T10:29:44Z</time>
      </trkpt>
      <trkpt lat="45.46844" lon="5.62265">
        <ele>665.4</ele>
        <time>2015-05-17T10:29:14Z</time>
      </trkpt>
      <trkpt lat="45.4685" lon="5.62274">
        <ele>665.9</ele>
        <time>2015-05-17T10:30:23Z</time>
      </trkpt>
      <trkpt lat="45.46856" lon="5.62282">
        <ele>666.6</ele>
        <time>2015-05-17T10:30:28Z</time>
      </trkpt>
      <trkpt lat="45.46858" lon="5.62295">
        <ele>666.9</ele>
        <time>2015-05-17T10:30:31Z</time>
      </trkpt>
      <trkpt lat="45.46858" lon="5.62307">
        <ele>667.1</ele>
        <time>2015-05-17T10:30:35Z</time>
      </trkpt>
      <trkpt lat="45.46857" lon="5.6232">
        <ele>667.2</ele>
        <time>2015-05-17T10:30:40Z</time>
      </trkpt>
      <trkpt lat="45.46854" lon="5.62329">
        <ele>667.6</ele>
        <time>2015-05-17T10:30:44Z</time>
      </trkpt>
      <trkpt lat="45.46846" lon="5.62335">
        <ele>668.3</ele>
        <time>2015-05-17T10:30:51Z</time>
      </trkpt>
      <trkpt lat="45.46835" lon="5.62339">
        <ele>669.8</ele>
        <time>2015-05-17T10:30:54Z</time>
      </trkpt>
      <trkpt lat="45.46825" lon="5.62344">
        <ele>670.1</ele>
        <time>2015-05-17T10:30:57Z</time>
      </trkpt>
      <trkpt lat="45.46815" lon="5.62346">
        <ele>670.3</ele>
        <time>2015-05-17T10:30:59Z</time>
      </trkpt>
      <trkpt lat="45.46808" lon="5.62356">
        <ele>670.6</ele>
        <time>2015-05-17T10:31:02Z</time>
      </trkpt>
      <trkpt lat="45.46804" lon="5.62364">
        <ele>670.8</ele>
        <time>2015-05-17T10:31:04Z</time>
      </trkpt>
      <trkpt lat="45.46798" lon="5.62371">
        <ele>671.1</ele>
        <time>2015-05-17T10:31:06Z</time>
      </trkpt>
      <trkpt lat="45.46791" lon="5.62377">
        <ele>671.2</ele>
        <time>2015-05-17T10:31:08Z</time>
      </trkpt>
      <trkpt lat="45.46789" lon="5.62391">
        <ele>671.1</ele>
        <time>2015-05-17T10:31:11Z</time>
      </trkpt>
      <trkpt lat="45.46792" lon="5.62403">
        <ele>671</ele>
        <time>2015-05-17T10:31:13Z</time>
      </trkpt>
      <trkpt lat="45.46794" lon="5.62416">
        <ele>669.8</ele>
        <time>2015-05-17T10:31:15Z</time>
      </trkpt>
      <trkpt lat="45.46797" lon="5.62432">
        <ele>669.6</ele>
        <time>2015-05-17T10:31:17Z</time>
      </trkpt>
      <trkpt lat="45.46799" lon="5.62445">
        <ele>669.4</ele>
        <time>2015-05-17T10:31:19Z</time>
      </trkpt>
      <trkpt lat="45.46803" lon="5.62455">
        <ele>668.4</ele>
        <time>2015-05-17T10:31:24Z</time>
      </trkpt>
      <trkpt lat="45.46809" lon="5.62457">
        <ele>666.9</ele>
        <time>2015-05-17T10:31:31Z</time>
      </trkpt>
      <trkpt lat="45.46816" lon="5.62457">
        <ele>666.1</ele>
        <time>2015-05-17T10:31:36Z</time>
      </trkpt>
      <trkpt lat="45.46824" lon="5.62467">
        <ele>665.7</ele>
        <time>2015-05-17T10:31:41Z</time>
      </trkpt>
      <trkpt lat="45.46825" lon="5.62478">
        <ele>665.2</ele>
        <time>2015-05-17T10:31:46Z</time>
      </trkpt>
      <trkpt lat="45.46828" lon="5.62492">
        <ele>664.7</ele>
        <time>2015-05-17T10:31:49Z</time>
      </trkpt>
      <trkpt lat="45.46833" lon="5.62502">
        <ele>664.1</ele>
        <time>2015-05-17T10:31:51Z</time>
      </trkpt>
      <trkpt lat="45.46841" lon="5.62514">
        <ele>663.5</ele>
        <time>2015-05-17T10:31:53Z</time>
      </trkpt>
      <trkpt lat="45.46849" lon="5.62525">
        <ele>662.9</ele>
        <time>2015-05-17T10:31:55Z</time>
      </trkpt>
      <trkpt lat="45.4686" lon="5.62534">
        <ele>662.4</ele>
        <time>2015-05-17T10:31:57Z</time>
      </trkpt>
      <trkpt lat="45.46865" lon="5.62545">
        <ele>661.3</ele>
        <time>2015-05-17T10:32:02Z</time>
      </trkpt>
      <trkpt lat="45.4687" lon="5.62559">
        <ele>661.1</ele>
        <time>2015-05-17T10:32:04Z</time>
      </trkpt>
      <trkpt lat="45.46878" lon="5.62572">
        <ele>660.9</ele>
        <time>2015-05-17T10:32:06Z</time>
      </trkpt>
      <trkpt lat="45.46883" lon="5.62581">
        <ele>660.9</ele>
        <time>2015-05-17T10:32:08Z</time>
      </trkpt>
      <trkpt lat="45.46891" lon="5.62592">
        <ele>660.8</ele>
        <time>2015-05-17T10:32:10Z</time>
      </trkpt>
      <trkpt lat="45.46899" lon="5.62602">
        <ele>660.7</ele>
        <time>2015-05-17T10:32:12Z</time>
      </trkpt>
      <trkpt lat="45.46907" lon="5.62613">
        <ele>660.6</ele>
        <time>2015-05-17T10:32:14Z</time>
      </trkpt>
      <trkpt lat="45.46916" lon="5.62621">
        <ele>660</ele>
        <time>2015-05-17T10:32:16Z</time>
      </trkpt>
      <trkpt lat="45.46925" lon="5.6263">
        <ele>659.6</ele>
        <time>2015-05-17T10:32:18Z</time>
      </trkpt>
      <trkpt lat="45.46932" lon="5.62635">
        <ele>659.5</ele>
        <time>2015-05-17T10:32:20Z</time>
      </trkpt>
      <trkpt lat="45.4694" lon="5.62639">
        <ele>659.5</ele>
        <time>2015-05-17T10:32:22Z</time>
      </trkpt>
      <trkpt lat="45.46949" lon="5.62645">
        <ele>659.4</ele>
        <time>2015-05-17T10:32:25Z</time>
      </trkpt>
      <trkpt lat="45.46956" lon="5.62649">
        <ele>659.5</ele>
        <time>2015-05-17T10:32:27Z</time>
      </trkpt>
      <trkpt lat="45.46963" lon="5.62652">
        <ele>659.4</ele>
        <time>2015-05-17T10:32:29Z</time>
      </trkpt>
      <trkpt lat="45.46972" lon="5.62656">
        <ele>658.2</ele>
        <time>2015-05-17T10:32:31Z</time>
      </trkpt>
      <trkpt lat="45.46978" lon="5.62658">
        <ele>658</ele>
        <time>2015-05-17T10:32:33Z</time>
      </trkpt>
      <trkpt lat="45.46986" lon="5.62661">
        <ele>658</ele>
        <time>2015-05-17T10:32:36Z</time>
      </trkpt>
      <trkpt lat="45.46995" lon="5.62661">
        <ele>657.9</ele>
        <time>2015-05-17T10:32:39Z</time>
      </trkpt>
      <trkpt lat="45.47003" lon="5.62662">
        <ele>657.7</ele>
        <time>2015-05-17T10:32:41Z</time>
      </trkpt>
      <trkpt lat="45.47011" lon="5.62662">
        <ele>657.5</ele>
        <time>2015-05-17T10:32:43Z</time>
      </trkpt>
      <trkpt lat="45.47019" lon="5.62664">
        <ele>657.4</ele>
        <time>2015-05-17T10:32:45Z</time>
      </trkpt>
      <trkpt lat="45.47027" lon="5.62666">
        <ele>657.1</ele>
        <time>2015-05-17T10:32:47Z</time>
      </trkpt>
      <trkpt lat="45.47036" lon="5.6267">
        <ele>655.9</ele>
        <time>2015-05-17T10:32:49Z</time>
      </trkpt>
      <trkpt lat="45.47048" lon="5.62674">
        <ele>654.9</ele>
        <time>2015-05-17T10:32:51Z</time>
      </trkpt>
      <trkpt lat="45.47057" lon="5.62678">
        <ele>655.5</ele>
        <time>2015-05-17T10:32:53Z</time>
      </trkpt>
      <trkpt lat="45.47066" lon="5.6268">
        <ele>656.7</ele>
        <time>2015-05-17T10:32:55Z</time>
      </trkpt>
      <trkpt lat="45.47076" lon="5.62682">
        <ele>656.7</ele>
        <time>2015-05-17T10:32:57Z</time>
      </trkpt>
      <trkpt lat="45.47084" lon="5.62684">
        <ele>656.5</ele>
        <time>2015-05-17T10:32:58Z</time>
      </trkpt>
      <trkpt lat="45.47091" lon="5.62685">
        <ele>655.9</ele>
        <time>2015-05-17T10:32:59Z</time>
      </trkpt>
      <trkpt lat="45.47106" lon="5.62689">
        <ele>655.5</ele>
        <time>2015-05-17T10:33:01Z</time>
      </trkpt>
      <trkpt lat="45.47114" lon="5.62691">
        <ele>654.8</ele>
        <time>2015-05-17T10:33:02Z</time>
      </trkpt>
      <trkpt lat="45.47121" lon="5.62693">
        <ele>653.9</ele>
        <time>2015-05-17T10:33:03Z</time>
      </trkpt>
      <trkpt lat="45.47133" lon="5.62694">
        <ele>653</ele>
        <time>2015-05-17T10:33:05Z</time>
      </trkpt>
      <trkpt lat="45.47147" lon="5.62697">
        <ele>652.2</ele>
        <time>2015-05-17T10:33:07Z</time>
      </trkpt>
      <trkpt lat="45.47155" lon="5.62698">
        <ele>651.6</ele>
        <time>2015-05-17T10:33:08Z</time>
      </trkpt>
      <trkpt lat="45.47166" lon="5.62698">
        <ele>650.5</ele>
        <time>2015-05-17T10:33:10Z</time>
      </trkpt>
      <trkpt lat="45.47174" lon="5.62697">
        <ele>650.2</ele>
        <time>2015-05-17T10:33:12Z</time>
      </trkpt>
      <trkpt lat="45.47182" lon="5.62699">
        <ele>650</ele>
        <time>2015-05-17T10:33:14Z</time>
      </trkpt>
      <trkpt lat="45.47192" lon="5.62701">
        <ele>649.8</ele>
        <time>2015-05-17T10:33:16Z</time>
      </trkpt>
      <trkpt lat="45.47204" lon="5.62704">
        <ele>649.6</ele>
        <time>2015-05-17T10:33:18Z</time>
      </trkpt>
      <trkpt lat="45.47214" lon="5.62703">
        <ele>649.5</ele>
        <time>2015-05-17T10:33:20Z</time>
      </trkpt>
      <trkpt lat="45.47224" lon="5.62703">
        <ele>649.6</ele>
        <time>2015-05-17T10:33:22Z</time>
      </trkpt>
      <trkpt lat="45.47232" lon="5.62701">
        <ele>649.5</ele>
        <time>2015-05-17T10:33:24Z</time>
      </trkpt>
      <trkpt lat="45.47241" lon="5.627">
        <ele>649.4</ele>
        <time>2015-05-17T10:33:27Z</time>
      </trkpt>
      <trkpt lat="45.47252" lon="5.62697">
        <ele>649.2</ele>
        <time>2015-05-17T10:33:29Z</time>
      </trkpt>
      <trkpt lat="45.47261" lon="5.62691">
        <ele>649.3</ele>
        <time>2015-05-17T10:33:31Z</time>
      </trkpt>
      <trkpt lat="45.47269" lon="5.62684">
        <ele>649.1</ele>
        <time>2015-05-17T10:33:35Z</time>
      </trkpt>
      <trkpt lat="45.47278" lon="5.62678">
        <ele>649.1</ele>
        <time>2015-05-17T10:33:38Z</time>
      </trkpt>
      <trkpt lat="45.47285" lon="5.62674">
        <ele>649.1</ele>
        <time>2015-05-17T10:33:40Z</time>
      </trkpt>
      <trkpt lat="45.47293" lon="5.62669">
        <ele>648.7</ele>
        <time>2015-05-17T10:33:43Z</time>
      </trkpt>
      <trkpt lat="45.473" lon="5.62667">
        <ele>648.3</ele>
        <time>2015-05-17T10:33:47Z</time>
      </trkpt>
      <trkpt lat="45.47308" lon="5.62664">
        <ele>648.1</ele>
        <time>2015-05-17T10:33:49Z</time>
      </trkpt>
      <trkpt lat="45.47316" lon="5.6266">
        <ele>648</ele>
        <time>2015-05-17T10:33:51Z</time>
      </trkpt>
      <trkpt lat="45.47326" lon="5.62654">
        <ele>647.6</ele>
        <time>2015-05-17T10:33:54Z</time>
      </trkpt>
      <trkpt lat="45.47333" lon="5.62649">
        <ele>645.6</ele>
        <time>2015-05-17T10:33:56Z</time>
      </trkpt>
      <trkpt lat="45.47341" lon="5.62646">
        <ele>645.2</ele>
        <time>2015-05-17T10:33:58Z</time>
      </trkpt>
      <trkpt lat="45.47352" lon="5.62643">
        <ele>644.9</ele>
        <time>2015-05-17T10:34:00Z</time>
      </trkpt>
      <trkpt lat="45.47362" lon="5.62639">
        <ele>644.5</ele>
        <time>2015-05-17T10:34:03Z</time>
      </trkpt>
      <trkpt lat="45.47372" lon="5.62635">
        <ele>643.5</ele>
        <time>2015-05-17T10:34:06Z</time>
      </trkpt>
      <trkpt lat="45.47382" lon="5.62625">
        <ele>643.5</ele>
        <time>2015-05-17T10:34:09Z</time>
      </trkpt>
      <trkpt lat="45.47391" lon="5.62613">
        <ele>645.4</ele>
        <time>2015-05-17T10:34:11Z</time>
      </trkpt>
      <trkpt lat="45.47398" lon="5.62608">
        <ele>646.5</ele>
        <time>2015-05-17T10:34:12Z</time>
      </trkpt>
      <trkpt lat="45.47408" lon="5.62601">
        <ele>647.1</ele>
        <time>2015-05-17T10:34:14Z</time>
      </trkpt>
      <trkpt lat="45.47416" lon="5.62595">
        <ele>647.2</ele>
        <time>2015-05-17T10:34:16Z</time>
      </trkpt>
      <trkpt lat="45.47424" lon="5.6259">
        <ele>647.2</ele>
        <time>2015-05-17T10:34:18Z</time>
      </trkpt>
      <trkpt lat="45.47432" lon="5.62583">
        <ele>647.1</ele>
        <time>2015-05-17T10:34:20Z</time>
      </trkpt>
      <trkpt lat="45.4744" lon="5.62575">
        <ele>647.1</ele>
        <time>2015-05-17T10:34:22Z</time>
      </trkpt>
      <trkpt lat="45.47447" lon="5.62565">
        <ele>647.1</ele>
        <time>2015-05-17T10:34:25Z</time>
      </trkpt>
      <trkpt lat="45.47453" lon="5.62557">
        <ele>647.2</ele>
        <time>2015-05-17T10:34:27Z</time>
      </trkpt>
      <trkpt lat="45.47462" lon="5.62551">
        <ele>647.1</ele>
        <time>2015-05-17T10:34:30Z</time>
      </trkpt>
      <trkpt lat="45.47469" lon="5.62548">
        <ele>647.1</ele>
        <time>2015-05-17T10:34:32Z</time>
      </trkpt>
      <trkpt lat="45.47476" lon="5.62545">
        <ele>647.2</ele>
        <time>2015-05-17T10:34:34Z</time>
      </trkpt>
      <trkpt lat="45.47485" lon="5.62544">
        <ele>647.3</ele>
        <time>2015-05-17T10:34:36Z</time>
      </trkpt>
      <trkpt lat="45.47493" lon="5.62541">
        <ele>647.4</ele>
        <time>2015-05-17T10:34:38Z</time>
      </trkpt>
      <trkpt lat="45.47501" lon="5.62541">
        <ele>647.5</ele>
        <time>2015-05-17T10:34:40Z</time>
      </trkpt>
      <trkpt lat="45.47509" lon="5.62536">
        <ele>647.9</ele>
        <time>2015-05-17T10:34:43Z</time>
      </trkpt>
      <trkpt lat="45.47519" lon="5.62533">
        <ele>648.1</ele>
        <time>2015-05-17T10:34:47Z</time>
      </trkpt>
      <trkpt lat="45.47527" lon="5.62529">
        <ele>648</ele>
        <time>2015-05-17T10:34:50Z</time>
      </trkpt>
      <trkpt lat="45.47535" lon="5.62526">
        <ele>647.9</ele>
        <time>2015-05-17T10:34:52Z</time>
      </trkpt>
      <trkpt lat="45.47545" lon="5.62522">
        <ele>647.7</ele>
        <time>2015-05-17T10:34:55Z</time>
      </trkpt>
      <trkpt lat="45.47552" lon="5.62521">
        <ele>647.6</ele>
        <time>2015-05-17T10:34:57Z</time>
      </trkpt>
      <trkpt lat="45.47559" lon="5.62517">
        <ele>647.5</ele>
        <time>2015-05-17T10:34:59Z</time>
      </trkpt>
      <trkpt lat="45.47566" lon="5.62511">
        <ele>646.4</ele>
        <time>2015-05-17T10:35:01Z</time>
      </trkpt>
      <trkpt lat="45.47577" lon="5.62502">
        <ele>646.3</ele>
        <time>2015-05-17T10:35:03Z</time>
      </trkpt>
      <trkpt lat="45.47584" lon="5.62495">
        <ele>646.4</ele>
        <time>2015-05-17T10:35:05Z</time>
      </trkpt>
      <trkpt lat="45.4759" lon="5.62487">
        <ele>646.5</ele>
        <time>2015-05-17T10:35:07Z</time>
      </trkpt>
      <trkpt lat="45.47598" lon="5.62478">
        <ele>646.8</ele>
        <time>2015-05-17T10:35:10Z</time>
      </trkpt>
      <trkpt lat="45.47604" lon="5.62469">
        <ele>647.1</ele>
        <time>2015-05-17T10:35:14Z</time>
      </trkpt>
      <trkpt lat="45.47609" lon="5.62458">
        <ele>647</ele>
        <time>2015-05-17T10:35:18Z</time>
      </trkpt>
      <trkpt lat="45.47612" lon="5.62448">
        <ele>646.3</ele>
        <time>2015-05-17T10:35:22Z</time>
      </trkpt>
      <trkpt lat="45.47617" lon="5.62436">
        <ele>646.4</ele>
        <time>2015-05-17T10:35:26Z</time>
      </trkpt>
      <trkpt lat="45.4762" lon="5.62427">
        <ele>646.3</ele>
        <time>2015-05-17T10:35:30Z</time>
      </trkpt>
      <trkpt lat="45.47623" lon="5.62417">
        <ele>646.2</ele>
        <time>2015-05-17T10:35:34Z</time>
      </trkpt>
      <trkpt lat="45.47627" lon="5.62407">
        <ele>646.3</ele>
        <time>2015-05-17T10:35:39Z</time>
      </trkpt>
      <trkpt lat="45.47629" lon="5.62397">
        <ele>646.4</ele>
        <time>2015-05-17T10:35:46Z</time>
      </trkpt>
      <trkpt lat="45.4763" lon="5.62387">
        <ele>646.8</ele>
        <time>2015-05-17T10:35:50Z</time>
      </trkpt>
      <trkpt lat="45.47635" lon="5.62378">
        <ele>647.1</ele>
        <time>2015-05-17T10:35:55Z</time>
      </trkpt>
      <trkpt lat="45.47641" lon="5.62368">
        <ele>647.5</ele>
        <time>2015-05-17T10:36:01Z</time>
      </trkpt>
      <trkpt lat="45.47645" lon="5.62358">
        <ele>647.7</ele>
        <time>2015-05-17T10:36:06Z</time>
      </trkpt>
      <trkpt lat="45.4765" lon="5.62347">
        <ele>648.1</ele>
        <time>2015-05-17T10:36:11Z</time>
      </trkpt>
      <trkpt lat="45.47652" lon="5.62335">
        <ele>648.6</ele>
        <time>2015-05-17T10:36:14Z</time>
      </trkpt>
      <trkpt lat="45.47655" lon="5.62324">
        <ele>648.7</ele>
        <time>2015-05-17T10:36:16Z</time>
      </trkpt>
      <trkpt lat="45.47659" lon="5.62316">
        <ele>648.9</ele>
        <time>2015-05-17T10:36:18Z</time>
      </trkpt>
      <trkpt lat="45.47663" lon="5.62303">
        <ele>649.4</ele>
        <time>2015-05-17T10:36:22Z</time>
      </trkpt>
      <trkpt lat="45.47668" lon="5.62293">
        <ele>649.8</ele>
        <time>2015-05-17T10:36:26Z</time>
      </trkpt>
      <trkpt lat="45.47675" lon="5.62285">
        <ele>650</ele>
        <time>2015-05-17T10:36:30Z</time>
      </trkpt>
      <trkpt lat="45.47682" lon="5.6228">
        <ele>650</ele>
        <time>2015-05-17T10:36:34Z</time>
      </trkpt>
      <trkpt lat="45.47689" lon="5.62276">
        <ele>649.9</ele>
        <time>2015-05-17T10:36:38Z</time>
      </trkpt>
      <trkpt lat="45.47697" lon="5.62274">
        <ele>649.7</ele>
        <time>2015-05-17T10:36:41Z</time>
      </trkpt>
      <trkpt lat="45.47706" lon="5.6227">
        <ele>649.6</ele>
        <time>2015-05-17T10:36:45Z</time>
      </trkpt>
      <trkpt lat="45.47714" lon="5.62268">
        <ele>649.5</ele>
        <time>2015-05-17T10:36:49Z</time>
      </trkpt>
      <trkpt lat="45.47723" lon="5.62267">
        <ele>649.4</ele>
        <time>2015-05-17T10:36:53Z</time>
      </trkpt>
      <trkpt lat="45.47732" lon="5.62267">
        <ele>649.3</ele>
        <time>2015-05-17T10:36:57Z</time>
      </trkpt>
      <trkpt lat="45.47741" lon="5.62267">
        <ele>649.4</ele>
        <time>2015-05-17T10:37:01Z</time>
      </trkpt>
      <trkpt lat="45.47749" lon="5.62266">
        <ele>649.5</ele>
        <time>2015-05-17T10:37:05Z</time>
      </trkpt>
      <trkpt lat="45.47757" lon="5.62267">
        <ele>649.6</ele>
        <time>2015-05-17T10:37:08Z</time>
      </trkpt>
      <trkpt lat="45.47766" lon="5.62268">
        <ele>649.8</ele>
        <time>2015-05-17T10:37:12Z</time>
      </trkpt>
      <trkpt lat="45.47775" lon="5.62271">
        <ele>650</ele>
        <time>2015-05-17T10:37:16Z</time>
      </trkpt>
      <trkpt lat="45.47784" lon="5.62276">
        <ele>650.2</ele>
        <time>2015-05-17T10:37:20Z</time>
      </trkpt>
      <trkpt lat="45.47792" lon="5.62282">
        <ele>650.5</ele>
        <time>2015-05-17T10:37:24Z</time>
      </trkpt>
      <trkpt lat="45.47798" lon="5.62287">
        <ele>650.7</ele>
        <time>2015-05-17T10:37:27Z</time>
      </trkpt>
      <trkpt lat="45.47807" lon="5.62292">
        <ele>651</ele>
        <time>2015-05-17T10:37:31Z</time>
      </trkpt>
      <trkpt lat="45.47814" lon="5.62295">
        <ele>651.1</ele>
        <time>2015-05-17T10:37:34Z</time>
      </trkpt>
      <trkpt lat="45.47822" lon="5.62298">
        <ele>651.4</ele>
        <time>2015-05-17T10:37:38Z</time>
      </trkpt>
      <trkpt lat="45.4783" lon="5.62297">
        <ele>651.6</ele>
        <time>2015-05-17T10:37:41Z</time>
      </trkpt>
      <trkpt lat="45.47839" lon="5.62299">
        <ele>651.7</ele>
        <time>2015-05-17T10:37:45Z</time>
      </trkpt>
      <trkpt lat="45.47847" lon="5.62308">
        <ele>651.8</ele>
        <time>2015-05-17T10:37:48Z</time>
      </trkpt>
      <trkpt lat="45.47853" lon="5.62313">
        <ele>651.9</ele>
        <time>2015-05-17T10:37:50Z</time>
      </trkpt>
      <trkpt lat="45.4786" lon="5.6232">
        <ele>652</ele>
        <time>2015-05-17T10:37:53Z</time>
      </trkpt>
      <trkpt lat="45.47867" lon="5.62329">
        <ele>652.3</ele>
        <time>2015-05-17T10:37:56Z</time>
      </trkpt>
      <trkpt lat="45.47872" lon="5.62337">
        <ele>652.4</ele>
        <time>2015-05-17T10:37:59Z</time>
      </trkpt>
      <trkpt lat="45.47878" lon="5.62348">
        <ele>653.2</ele>
        <time>2015-05-17T10:38:03Z</time>
      </trkpt>
      <trkpt lat="45.47885" lon="5.62358">
        <ele>653.7</ele>
        <time>2015-05-17T10:38:06Z</time>
      </trkpt>
      <trkpt lat="45.4789" lon="5.6237">
        <ele>654.3</ele>
        <time>2015-05-17T10:38:10Z</time>
      </trkpt>
      <trkpt lat="45.47894" lon="5.62378">
        <ele>654.7</ele>
        <time>2015-05-17T10:38:13Z</time>
      </trkpt>
      <trkpt lat="45.47898" lon="5.62388">
        <ele>655.1</ele>
        <time>2015-05-17T10:38:16Z</time>
      </trkpt>
      <trkpt lat="45.47902" lon="5.62398">
        <ele>655.5</ele>
        <time>2015-05-17T10:38:19Z</time>
      </trkpt>
      <trkpt lat="45.47905" lon="5.62409">
        <ele>655.9</ele>
        <time>2015-05-17T10:38:22Z</time>
      </trkpt>
      <trkpt lat="45.47909" lon="5.6242">
        <ele>656.3</ele>
        <time>2015-05-17T10:38:25Z</time>
      </trkpt>
      <trkpt lat="45.47913" lon="5.6243">
        <ele>656.6</ele>
        <time>2015-05-17T10:38:28Z</time>
      </trkpt>
      <trkpt lat="45.47917" lon="5.62441">
        <ele>657.2</ele>
        <time>2015-05-17T10:38:32Z</time>
      </trkpt>
      <trkpt lat="45.47919" lon="5.6245">
        <ele>657.7</ele>
        <time>2015-05-17T10:38:35Z</time>
      </trkpt>
      <trkpt lat="45.47924" lon="5.62459">
        <ele>658.1</ele>
        <time>2015-05-17T10:38:38Z</time>
      </trkpt>
      <trkpt lat="45.47929" lon="5.62467">
        <ele>658.4</ele>
        <time>2015-05-17T10:38:40Z</time>
      </trkpt>
      <trkpt lat="45.47934" lon="5.62475">
        <ele>659.5</ele>
        <time>2015-05-17T10:38:42Z</time>
      </trkpt>
      <trkpt lat="45.47938" lon="5.62484">
        <ele>660.9</ele>
        <time>2015-05-17T10:38:44Z</time>
      </trkpt>
      <trkpt lat="45.47943" lon="5.62494">
        <ele>660.9</ele>
        <time>2015-05-17T10:38:46Z</time>
      </trkpt>
      <trkpt lat="45.47949" lon="5.62506">
        <ele>661.2</ele>
        <time>2015-05-17T10:38:49Z</time>
      </trkpt>
      <trkpt lat="45.47953" lon="5.62515">
        <ele>661.2</ele>
        <time>2015-05-17T10:38:51Z</time>
      </trkpt>
      <trkpt lat="45.47959" lon="5.62526">
        <ele>661.3</ele>
        <time>2015-05-17T10:38:54Z</time>
      </trkpt>
      <trkpt lat="45.47963" lon="5.62535">
        <ele>661.5</ele>
        <time>2015-05-17T10:38:57Z</time>
      </trkpt>
      <trkpt lat="45.47969" lon="5.62542">
        <ele>661.6</ele>
        <time>2015-05-17T10:38:59Z</time>
      </trkpt>
      <trkpt lat="45.47976" lon="5.62551">
        <ele>661.6</ele>
        <time>2015-05-17T10:39:02Z</time>
      </trkpt>
      <trkpt lat="45.47984" lon="5.62559">
        <ele>661.7</ele>
        <time>2015-05-17T10:39:05Z</time>
      </trkpt>
      <trkpt lat="45.47992" lon="5.62565">
        <ele>661.6</ele>
        <time>2015-05-17T10:39:08Z</time>
      </trkpt>
      <trkpt lat="45.48001" lon="5.62568">
        <ele>661.7</ele>
        <time>2015-05-17T10:39:11Z</time>
      </trkpt>
      <trkpt lat="45.48009" lon="5.6257">
        <ele>661.8</ele>
        <time>2015-05-17T10:39:14Z</time>
      </trkpt>
      <trkpt lat="45.48017" lon="5.62575">
        <ele>662</ele>
        <time>2015-05-17T10:39:17Z</time>
      </trkpt>
      <trkpt lat="45.48024" lon="5.62583">
        <ele>662.2</ele>
        <time>2015-05-17T10:39:20Z</time>
      </trkpt>
      <trkpt lat="45.48031" lon="5.62593">
        <ele>662.3</ele>
        <time>2015-05-17T10:39:23Z</time>
      </trkpt>
      <trkpt lat="45.48038" lon="5.62604">
        <ele>662.5</ele>
        <time>2015-05-17T10:39:26Z</time>
      </trkpt>
      <trkpt lat="45.48044" lon="5.62611">
        <ele>662.8</ele>
        <time>2015-05-17T10:39:29Z</time>
      </trkpt>
      <trkpt lat="45.48049" lon="5.62621">
        <ele>663.3</ele>
        <time>2015-05-17T10:39:32Z</time>
      </trkpt>
      <trkpt lat="45.48055" lon="5.6263">
        <ele>663.6</ele>
        <time>2015-05-17T10:39:35Z</time>
      </trkpt>
      <trkpt lat="45.4806" lon="5.62638">
        <ele>663.7</ele>
        <time>2015-05-17T10:39:37Z</time>
      </trkpt>
      <trkpt lat="45.48066" lon="5.62646">
        <ele>663.8</ele>
        <time>2015-05-17T10:39:39Z</time>
      </trkpt>
      <trkpt lat="45.4807" lon="5.62654">
        <ele>664.6</ele>
        <time>2015-05-17T10:39:41Z</time>
      </trkpt>
      <trkpt lat="45.48076" lon="5.62668">
        <ele>665.1</ele>
        <time>2015-05-17T10:39:44Z</time>
      </trkpt>
      <trkpt lat="45.48081" lon="5.62681">
        <ele>665.8</ele>
        <time>2015-05-17T10:39:46Z</time>
      </trkpt>
      <trkpt lat="45.48086" lon="5.62692">
        <ele>665.8</ele>
        <time>2015-05-17T10:39:48Z</time>
      </trkpt>
      <trkpt lat="45.4809" lon="5.62703">
        <ele>665.8</ele>
        <time>2015-05-17T10:39:50Z</time>
      </trkpt>
      <trkpt lat="45.48097" lon="5.62716">
        <ele>667.3</ele>
        <time>2015-05-17T10:39:52Z</time>
      </trkpt>
      <trkpt lat="45.48105" lon="5.62727">
        <ele>667.5</ele>
        <time>2015-05-17T10:39:54Z</time>
      </trkpt>
      <trkpt lat="45.48116" lon="5.62736">
        <ele>668.1</ele>
        <time>2015-05-17T10:39:56Z</time>
      </trkpt>
      <trkpt lat="45.48126" lon="5.62744">
        <ele>669.1</ele>
        <time>2015-05-17T10:39:58Z</time>
      </trkpt>
      <trkpt lat="45.48136" lon="5.62757">
        <ele>669.8</ele>
        <time>2015-05-17T10:40:00Z</time>
      </trkpt>
      <trkpt lat="45.48145" lon="5.62773">
        <ele>669.3</ele>
        <time>2015-05-17T10:40:02Z</time>
      </trkpt>
      <trkpt lat="45.48151" lon="5.62791">
        <ele>667.5</ele>
        <time>2015-05-17T10:40:04Z</time>
      </trkpt>
      <trkpt lat="45.48158" lon="5.62808">
        <ele>665.1</ele>
        <time>2015-05-17T10:40:06Z</time>
      </trkpt>
      <trkpt lat="45.48165" lon="5.62824">
        <ele>663</ele>
        <time>2015-05-17T10:40:08Z</time>
      </trkpt>
      <trkpt lat="45.48171" lon="5.6283">
        <ele>661.8</ele>
        <time>2015-05-17T10:40:09Z</time>
      </trkpt>
      <trkpt lat="45.48178" lon="5.62833">
        <ele>660.5</ele>
        <time>2015-05-17T10:40:10Z</time>
      </trkpt>
      <trkpt lat="45.48186" lon="5.62834">
        <ele>659.4</ele>
        <time>2015-05-17T10:40:11Z</time>
      </trkpt>
      <trkpt lat="45.48202" lon="5.62836">
        <ele>656.2</ele>
        <time>2015-05-17T10:40:13Z</time>
      </trkpt>
      <trkpt lat="45.48211" lon="5.62837">
        <ele>654.7</ele>
        <time>2015-05-17T10:40:14Z</time>
      </trkpt>
      <trkpt lat="45.4822" lon="5.62836">
        <ele>653.1</ele>
        <time>2015-05-17T10:40:15Z</time>
      </trkpt>
      <trkpt lat="45.48227" lon="5.62835">
        <ele>651.7</ele>
        <time>2015-05-17T10:40:16Z</time>
      </trkpt>
      <trkpt lat="45.48238" lon="5.62832">
        <ele>649.3</ele>
        <time>2015-05-17T10:40:18Z</time>
      </trkpt>
      <trkpt lat="45.48242" lon="5.62841">
        <ele>649</ele>
        <time>2015-05-17T10:40:22Z</time>
      </trkpt>
      <trkpt lat="45.48237" lon="5.62856">
        <ele>649</ele>
        <time>2015-05-17T10:40:24Z</time>
      </trkpt>
      <trkpt lat="45.48233" lon="5.62876">
        <ele>647.3</ele>
        <time>2015-05-17T10:40:26Z</time>
      </trkpt>
      <trkpt lat="45.48231" lon="5.62892">
        <ele>645.1</ele>
        <time>2015-05-17T10:40:28Z</time>
      </trkpt>
      <trkpt lat="45.48234" lon="5.62909">
        <ele>643.6</ele>
        <time>2015-05-17T10:40:30Z</time>
      </trkpt>
      <trkpt lat="45.48243" lon="5.62925">
        <ele>643.2</ele>
        <time>2015-05-17T10:40:32Z</time>
      </trkpt>
      <trkpt lat="45.4825" lon="5.6294">
        <ele>641.1</ele>
        <time>2015-05-17T10:40:34Z</time>
      </trkpt>
      <trkpt lat="45.48252" lon="5.62953">
        <ele>640.8</ele>
        <time>2015-05-17T10:40:35Z</time>
      </trkpt>
      <trkpt lat="45.48256" lon="5.62964">
        <ele>639.8</ele>
        <time>2015-05-17T10:40:36Z</time>
      </trkpt>
      <trkpt lat="45.48259" lon="5.62974">
        <ele>639</ele>
        <time>2015-05-17T10:40:37Z</time>
      </trkpt>
      <trkpt lat="45.48263" lon="5.62982">
        <ele>637.8</ele>
        <time>2015-05-17T10:40:38Z</time>
      </trkpt>
      <trkpt lat="45.48273" lon="5.62994">
        <ele>634.6</ele>
        <time>2015-05-17T10:40:40Z</time>
      </trkpt>
      <trkpt lat="45.48283" lon="5.63002">
        <ele>632.6</ele>
        <time>2015-05-17T10:40:42Z</time>
      </trkpt>
      <trkpt lat="45.48293" lon="5.63008">
        <ele>631.4</ele>
        <time>2015-05-17T10:40:44Z</time>
      </trkpt>
      <trkpt lat="45.48301" lon="5.63013">
        <ele>630.8</ele>
        <time>2015-05-17T10:40:46Z</time>
      </trkpt>
      <trkpt lat="45.48311" lon="5.63018">
        <ele>630.9</ele>
        <time>2015-05-17T10:40:48Z</time>
      </trkpt>
      <trkpt lat="45.4832" lon="5.63024">
        <ele>631.2</ele>
        <time>2015-05-17T10:40:50Z</time>
      </trkpt>
      <trkpt lat="45.48328" lon="5.63029">
        <ele>631.8</ele>
        <time>2015-05-17T10:40:52Z</time>
      </trkpt>
      <trkpt lat="45.48339" lon="5.63035">
        <ele>631.3</ele>
        <time>2015-05-17T10:40:54Z</time>
      </trkpt>
      <trkpt lat="45.48349" lon="5.63038">
        <ele>630.7</ele>
        <time>2015-05-17T10:40:56Z</time>
      </trkpt>
      <trkpt lat="45.48361" lon="5.63037">
        <ele>630.5</ele>
        <time>2015-05-17T10:40:58Z</time>
      </trkpt>
      <trkpt lat="45.48372" lon="5.63035">
        <ele>629.7</ele>
        <time>2015-05-17T10:41:00Z</time>
      </trkpt>
      <trkpt lat="45.48386" lon="5.63034">
        <ele>628.3</ele>
        <time>2015-05-17T10:41:02Z</time>
      </trkpt>
      <trkpt lat="45.48398" lon="5.63034">
        <ele>627.6</ele>
        <time>2015-05-17T10:41:04Z</time>
      </trkpt>
      <trkpt lat="45.48409" lon="5.63036">
        <ele>628</ele>
        <time>2015-05-17T10:41:06Z</time>
      </trkpt>
      <trkpt lat="45.48419" lon="5.6304">
        <ele>628.9</ele>
        <time>2015-05-17T10:41:08Z</time>
      </trkpt>
      <trkpt lat="45.4843" lon="5.63043">
        <ele>629.4</ele>
        <time>2015-05-17T10:41:10Z</time>
      </trkpt>
      <trkpt lat="45.48441" lon="5.63047">
        <ele>629.3</ele>
        <time>2015-05-17T10:41:12Z</time>
      </trkpt>
      <trkpt lat="45.48449" lon="5.63051">
        <ele>629.6</ele>
        <time>2015-05-17T10:41:14Z</time>
      </trkpt>
      <trkpt lat="45.48457" lon="5.63055">
        <ele>629.9</ele>
        <time>2015-05-17T10:41:16Z</time>
      </trkpt>
      <trkpt lat="45.48466" lon="5.63058">
        <ele>630.3</ele>
        <time>2015-05-17T10:41:18Z</time>
      </trkpt>
      <trkpt lat="45.48476" lon="5.63063">
        <ele>630.3</ele>
        <time>2015-05-17T10:41:20Z</time>
      </trkpt>
      <trkpt lat="45.48484" lon="5.63067">
        <ele>631.1</ele>
        <time>2015-05-17T10:41:22Z</time>
      </trkpt>
      <trkpt lat="45.48493" lon="5.6307">
        <ele>631.8</ele>
        <time>2015-05-17T10:41:24Z</time>
      </trkpt>
      <trkpt lat="45.48501" lon="5.63074">
        <ele>631.3</ele>
        <time>2015-05-17T10:41:26Z</time>
      </trkpt>
      <trkpt lat="45.4851" lon="5.6308">
        <ele>631.2</ele>
        <time>2015-05-17T10:41:28Z</time>
      </trkpt>
      <trkpt lat="45.48515" lon="5.6309">
        <ele>631.6</ele>
        <time>2015-05-17T10:41:30Z</time>
      </trkpt>
      <trkpt lat="45.48519" lon="5.63107">
        <ele>631.2</ele>
        <time>2015-05-17T10:41:32Z</time>
      </trkpt>
      <trkpt lat="45.4852" lon="5.63119">
        <ele>630.2</ele>
        <time>2015-05-17T10:41:33Z</time>
      </trkpt>
      <trkpt lat="45.48521" lon="5.63132">
        <ele>629.1</ele>
        <time>2015-05-17T10:41:34Z</time>
      </trkpt>
      <trkpt lat="45.48522" lon="5.63145">
        <ele>627.5</ele>
        <time>2015-05-17T10:41:35Z</time>
      </trkpt>
      <trkpt lat="45.48522" lon="5.63158">
        <ele>625.8</ele>
        <time>2015-05-17T10:41:36Z</time>
      </trkpt>
      <trkpt lat="45.48521" lon="5.63171">
        <ele>624.1</ele>
        <time>2015-05-17T10:41:37Z</time>
      </trkpt>
      <trkpt lat="45.4852" lon="5.63184">
        <ele>622.6</ele>
        <time>2015-05-17T10:41:38Z</time>
      </trkpt>
      <trkpt lat="45.48518" lon="5.63197">
        <ele>621.5</ele>
        <time>2015-05-17T10:41:39Z</time>
      </trkpt>
      <trkpt lat="45.48516" lon="5.63208">
        <ele>620.5</ele>
        <time>2015-05-17T10:41:40Z</time>
      </trkpt>
      <trkpt lat="45.48514" lon="5.63218">
        <ele>619.7</ele>
        <time>2015-05-17T10:41:41Z</time>
      </trkpt>
      <trkpt lat="45.4851" lon="5.63235">
        <ele>618.6</ele>
        <time>2015-05-17T10:41:43Z</time>
      </trkpt>
      <trkpt lat="45.48507" lon="5.63247">
        <ele>618.8</ele>
        <time>2015-05-17T10:41:45Z</time>
      </trkpt>
      <trkpt lat="45.48504" lon="5.63258">
        <ele>618.9</ele>
        <time>2015-05-17T10:41:47Z</time>
      </trkpt>
      <trkpt lat="45.48501" lon="5.63268">
        <ele>618.9</ele>
        <time>2015-05-17T10:41:49Z</time>
      </trkpt>
      <trkpt lat="45.48496" lon="5.63279">
        <ele>618.6</ele>
        <time>2015-05-17T10:41:52Z</time>
      </trkpt>
      <trkpt lat="45.48491" lon="5.63291">
        <ele>617.8</ele>
        <time>2015-05-17T10:41:55Z</time>
      </trkpt>
      <trkpt lat="45.48488" lon="5.63301">
        <ele>617.1</ele>
        <time>2015-05-17T10:41:57Z</time>
      </trkpt>
      <trkpt lat="45.48486" lon="5.63312">
        <ele>617</ele>
        <time>2015-05-17T10:41:59Z</time>
      </trkpt>
      <trkpt lat="45.48485" lon="5.63324">
        <ele>617.4</ele>
        <time>2015-05-17T10:42:01Z</time>
      </trkpt>
      <trkpt lat="45.48479" lon="5.63334">
        <ele>617.2</ele>
        <time>2015-05-17T10:42:03Z</time>
      </trkpt>
      <trkpt lat="45.48471" lon="5.63339">
        <ele>617.9</ele>
        <time>2015-05-17T10:42:05Z</time>
      </trkpt>
      <trkpt lat="45.4846" lon="5.63343">
        <ele>618.5</ele>
        <time>2015-05-17T10:42:07Z</time>
      </trkpt>
      <trkpt lat="45.48449" lon="5.63347">
        <ele>618.1</ele>
        <time>2015-05-17T10:42:09Z</time>
      </trkpt>
      <trkpt lat="45.4844" lon="5.6335">
        <ele>616.5</ele>
        <time>2015-05-17T10:42:11Z</time>
      </trkpt>
      <trkpt lat="45.48429" lon="5.63354">
        <ele>614.9</ele>
        <time>2015-05-17T10:42:13Z</time>
      </trkpt>
      <trkpt lat="45.48421" lon="5.63357">
        <ele>612.9</ele>
        <time>2015-05-17T10:42:15Z</time>
      </trkpt>
      <trkpt lat="45.48411" lon="5.63361">
        <ele>613.7</ele>
        <time>2015-05-17T10:42:17Z</time>
      </trkpt>
      <trkpt lat="45.48401" lon="5.63365">
        <ele>613.1</ele>
        <time>2015-05-17T10:42:19Z</time>
      </trkpt>
      <trkpt lat="45.48395" lon="5.63374">
        <ele>612.4</ele>
        <time>2015-05-17T10:42:21Z</time>
      </trkpt>
      <trkpt lat="45.48397" lon="5.63385">
        <ele>613.1</ele>
        <time>2015-05-17T10:42:23Z</time>
      </trkpt>
      <trkpt lat="45.48402" lon="5.63396">
        <ele>613.7</ele>
        <time>2015-05-17T10:42:26Z</time>
      </trkpt>
      <trkpt lat="45.48408" lon="5.63406">
        <ele>613.9</ele>
        <time>2015-05-17T10:42:29Z</time>
      </trkpt>
      <trkpt lat="45.48414" lon="5.63416">
        <ele>614.2</ele>
        <time>2015-05-17T10:42:32Z</time>
      </trkpt>
      <trkpt lat="45.4842" lon="5.63426">
        <ele>614.6</ele>
        <time>2015-05-17T10:42:35Z</time>
      </trkpt>
      <trkpt lat="45.48427" lon="5.63436">
        <ele>614.8</ele>
        <time>2015-05-17T10:42:38Z</time>
      </trkpt>
      <trkpt lat="45.48433" lon="5.63444">
        <ele>615</ele>
        <time>2015-05-17T10:42:41Z</time>
      </trkpt>
      <trkpt lat="45.48438" lon="5.63454">
        <ele>615.4</ele>
        <time>2015-05-17T10:42:44Z</time>
      </trkpt>
      <trkpt lat="45.48442" lon="5.63463">
        <ele>616</ele>
        <time>2015-05-17T10:42:47Z</time>
      </trkpt>
      <trkpt lat="45.48448" lon="5.63474">
        <ele>616.5</ele>
        <time>2015-05-17T10:42:50Z</time>
      </trkpt>
      <trkpt lat="45.48453" lon="5.63483">
        <ele>617.1</ele>
        <time>2015-05-17T10:42:53Z</time>
      </trkpt>
      <trkpt lat="45.48457" lon="5.63491">
        <ele>617.7</ele>
        <time>2015-05-17T10:42:56Z</time>
      </trkpt>
      <trkpt lat="45.48462" lon="5.63501">
        <ele>618.4</ele>
        <time>2015-05-17T10:42:59Z</time>
      </trkpt>
      <trkpt lat="45.48467" lon="5.63512">
        <ele>619.5</ele>
        <time>2015-05-17T10:43:03Z</time>
      </trkpt>
      <trkpt lat="45.4847" lon="5.63523">
        <ele>620.7</ele>
        <time>2015-05-17T10:43:07Z</time>
      </trkpt>
      <trkpt lat="45.48473" lon="5.63533">
        <ele>621.6</ele>
        <time>2015-05-17T10:43:10Z</time>
      </trkpt>
      <trkpt lat="45.48475" lon="5.63542">
        <ele>622.8</ele>
        <time>2015-05-17T10:43:14Z</time>
      </trkpt>
      <trkpt lat="45.48475" lon="5.63554">
        <ele>623.9</ele>
        <time>2015-05-17T10:43:18Z</time>
      </trkpt>
      <trkpt lat="45.48475" lon="5.63565">
        <ele>624.6</ele>
        <time>2015-05-17T10:43:22Z</time>
      </trkpt>
      <trkpt lat="45.48476" lon="5.63576">
        <ele>625.3</ele>
        <time>2015-05-17T10:43:26Z</time>
      </trkpt>
      <trkpt lat="45.48477" lon="5.63587">
        <ele>626</ele>
        <time>2015-05-17T10:43:30Z</time>
      </trkpt>
      <trkpt lat="45.48477" lon="5.63599">
        <ele>626.8</ele>
        <time>2015-05-17T10:43:34Z</time>
      </trkpt>
      <trkpt lat="45.48475" lon="5.63609">
        <ele>627.7</ele>
        <time>2015-05-17T10:43:38Z</time>
      </trkpt>
      <trkpt lat="45.48472" lon="5.6362">
        <ele>628.5</ele>
        <time>2015-05-17T10:43:42Z</time>
      </trkpt>
      <trkpt lat="45.4847" lon="5.63632">
        <ele>629.4</ele>
        <time>2015-05-17T10:43:47Z</time>
      </trkpt>
      <trkpt lat="45.48468" lon="5.63643">
        <ele>630.2</ele>
        <time>2015-05-17T10:43:51Z</time>
      </trkpt>
      <trkpt lat="45.48466" lon="5.63654">
        <ele>630.9</ele>
        <time>2015-05-17T10:43:55Z</time>
      </trkpt>
      <trkpt lat="45.48465" lon="5.63665">
        <ele>631.7</ele>
        <time>2015-05-17T10:43:59Z</time>
      </trkpt>
      <trkpt lat="45.48465" lon="5.63677">
        <ele>632.7</ele>
        <time>2015-05-17T10:44:04Z</time>
      </trkpt>
      <trkpt lat="45.48466" lon="5.63689">
        <ele>633.6</ele>
        <time>2015-05-17T10:44:08Z</time>
      </trkpt>
      <trkpt lat="45.48468" lon="5.637">
        <ele>634.7</ele>
        <time>2015-05-17T10:44:12Z</time>
      </trkpt>
      <trkpt lat="45.48471" lon="5.6371">
        <ele>635.6</ele>
        <time>2015-05-17T10:44:16Z</time>
      </trkpt>
      <trkpt lat="45.48474" lon="5.6372">
        <ele>636.6</ele>
        <time>2015-05-17T10:44:20Z</time>
      </trkpt>
      <trkpt lat="45.48477" lon="5.6373">
        <ele>637.5</ele>
        <time>2015-05-17T10:44:24Z</time>
      </trkpt>
      <trkpt lat="45.4848" lon="5.6374">
        <ele>638.3</ele>
        <time>2015-05-17T10:44:28Z</time>
      </trkpt>
      <trkpt lat="45.48484" lon="5.63752">
        <ele>639.2</ele>
        <time>2015-05-17T10:44:32Z</time>
      </trkpt>
      <trkpt lat="45.48489" lon="5.63761">
        <ele>640.2</ele>
        <time>2015-05-17T10:44:36Z</time>
      </trkpt>
      <trkpt lat="45.48494" lon="5.63771">
        <ele>641.3</ele>
        <time>2015-05-17T10:44:40Z</time>
      </trkpt>
      <trkpt lat="45.485" lon="5.63778">
        <ele>642</ele>
        <time>2015-05-17T10:44:43Z</time>
      </trkpt>
      <trkpt lat="45.48506" lon="5.63783">
        <ele>642.4</ele>
        <time>2015-05-17T10:44:47Z</time>
      </trkpt>
      <trkpt lat="45.48514" lon="5.63787">
        <ele>642.9</ele>
        <time>2015-05-17T10:44:51Z</time>
      </trkpt>
      <trkpt lat="45.48522" lon="5.63791">
        <ele>643.5</ele>
        <time>2015-05-17T10:44:55Z</time>
      </trkpt>
      <trkpt lat="45.48529" lon="5.63793">
        <ele>643.9</ele>
        <time>2015-05-17T10:44:58Z</time>
      </trkpt>
      <trkpt lat="45.48536" lon="5.63796">
        <ele>644.3</ele>
        <time>2015-05-17T10:45:01Z</time>
      </trkpt>
      <trkpt lat="45.48544" lon="5.63795">
        <ele>645</ele>
        <time>2015-05-17T10:45:05Z</time>
      </trkpt>
      <trkpt lat="45.48552" lon="5.63797">
        <ele>645.7</ele>
        <time>2015-05-17T10:45:09Z</time>
      </trkpt>
      <trkpt lat="45.48561" lon="5.638">
        <ele>646.8</ele>
        <time>2015-05-17T10:45:13Z</time>
      </trkpt>
      <trkpt lat="45.48569" lon="5.63802">
        <ele>647.5</ele>
        <time>2015-05-17T10:45:16Z</time>
      </trkpt>
      <trkpt lat="45.48577" lon="5.63803">
        <ele>648</ele>
        <time>2015-05-17T10:45:19Z</time>
      </trkpt>
      <trkpt lat="45.48586" lon="5.63805">
        <ele>648.5</ele>
        <time>2015-05-17T10:45:22Z</time>
      </trkpt>
      <trkpt lat="45.48594" lon="5.63807">
        <ele>648.9</ele>
        <time>2015-05-17T10:45:25Z</time>
      </trkpt>
      <trkpt lat="45.48602" lon="5.6381">
        <ele>649.2</ele>
        <time>2015-05-17T10:45:28Z</time>
      </trkpt>
      <trkpt lat="45.4861" lon="5.63815">
        <ele>649.5</ele>
        <time>2015-05-17T10:45:31Z</time>
      </trkpt>
      <trkpt lat="45.48619" lon="5.63821">
        <ele>649.9</ele>
        <time>2015-05-17T10:45:34Z</time>
      </trkpt>
      <trkpt lat="45.48627" lon="5.63825">
        <ele>650.2</ele>
        <time>2015-05-17T10:45:37Z</time>
      </trkpt>
      <trkpt lat="45.48634" lon="5.63828">
        <ele>650.6</ele>
        <time>2015-05-17T10:45:40Z</time>
      </trkpt>
      <trkpt lat="45.4864" lon="5.63832">
        <ele>651.2</ele>
        <time>2015-05-17T10:45:43Z</time>
      </trkpt>
      <trkpt lat="45.48649" lon="5.63831">
        <ele>651.8</ele>
        <time>2015-05-17T10:45:46Z</time>
      </trkpt>
      <trkpt lat="45.48659" lon="5.63833">
        <ele>652.4</ele>
        <time>2015-05-17T10:45:49Z</time>
      </trkpt>
      <trkpt lat="45.48667" lon="5.63833">
        <ele>652.9</ele>
        <time>2015-05-17T10:45:52Z</time>
      </trkpt>
      <trkpt lat="45.48675" lon="5.63833">
        <ele>653.3</ele>
        <time>2015-05-17T10:45:55Z</time>
      </trkpt>
      <trkpt lat="45.48682" lon="5.63832">
        <ele>653.9</ele>
        <time>2015-05-17T10:45:59Z</time>
      </trkpt>
      <trkpt lat="45.4869" lon="5.63832">
        <ele>654.4</ele>
        <time>2015-05-17T10:46:02Z</time>
      </trkpt>
      <trkpt lat="45.487" lon="5.63833">
        <ele>655</ele>
        <time>2015-05-17T10:46:06Z</time>
      </trkpt>
      <trkpt lat="45.48709" lon="5.63833">
        <ele>655.4</ele>
        <time>2015-05-17T10:46:09Z</time>
      </trkpt>
      <trkpt lat="45.48719" lon="5.63834">
        <ele>655.6</ele>
        <time>2015-05-17T10:46:12Z</time>
      </trkpt>
      <trkpt lat="45.48728" lon="5.63837">
        <ele>655.7</ele>
        <time>2015-05-17T10:46:15Z</time>
      </trkpt>
      <trkpt lat="45.48736" lon="5.6384">
        <ele>655.9</ele>
        <time>2015-05-17T10:46:18Z</time>
      </trkpt>
      <trkpt lat="45.48747" lon="5.63843">
        <ele>656.2</ele>
        <time>2015-05-17T10:46:21Z</time>
      </trkpt>
      <trkpt lat="45.48754" lon="5.63844">
        <ele>656.5</ele>
        <time>2015-05-17T10:46:23Z</time>
      </trkpt>
      <trkpt lat="45.48761" lon="5.63846">
        <ele>657.8</ele>
        <time>2015-05-17T10:46:25Z</time>
      </trkpt>
      <trkpt lat="45.48769" lon="5.63848">
        <ele>658</ele>
        <time>2015-05-17T10:46:27Z</time>
      </trkpt>
      <trkpt lat="45.48777" lon="5.63852">
        <ele>658.8</ele>
        <time>2015-05-17T10:46:29Z</time>
      </trkpt>
      <trkpt lat="45.48784" lon="5.63855">
        <ele>659</ele>
        <time>2015-05-17T10:46:31Z</time>
      </trkpt>
      <trkpt lat="45.48792" lon="5.63858">
        <ele>658.9</ele>
        <time>2015-05-17T10:46:33Z</time>
      </trkpt>
      <trkpt lat="45.48801" lon="5.63862">
        <ele>659</ele>
        <time>2015-05-17T10:46:36Z</time>
      </trkpt>
      <trkpt lat="45.48811" lon="5.63865">
        <ele>659.1</ele>
        <time>2015-05-17T10:46:39Z</time>
      </trkpt>
      <trkpt lat="45.4882" lon="5.6387">
        <ele>659.3</ele>
        <time>2015-05-17T10:46:42Z</time>
      </trkpt>
      <trkpt lat="45.48828" lon="5.63874">
        <ele>660.6</ele>
        <time>2015-05-17T10:46:44Z</time>
      </trkpt>
      <trkpt lat="45.48836" lon="5.63879">
        <ele>661.2</ele>
        <time>2015-05-17T10:46:46Z</time>
      </trkpt>
      <trkpt lat="45.48843" lon="5.63883">
        <ele>661.4</ele>
        <time>2015-05-17T10:46:48Z</time>
      </trkpt>
      <trkpt lat="45.4885" lon="5.63887">
        <ele>661.6</ele>
        <time>2015-05-17T10:46:50Z</time>
      </trkpt>
      <trkpt lat="45.48857" lon="5.63892">
        <ele>661.6</ele>
        <time>2015-05-17T10:46:52Z</time>
      </trkpt>
      <trkpt lat="45.48865" lon="5.63896">
        <ele>661.6</ele>
        <time>2015-05-17T10:46:54Z</time>
      </trkpt>
      <trkpt lat="45.48872" lon="5.639">
        <ele>661.7</ele>
        <time>2015-05-17T10:46:56Z</time>
      </trkpt>
      <trkpt lat="45.48879" lon="5.63903">
        <ele>662.1</ele>
        <time>2015-05-17T10:46:58Z</time>
      </trkpt>
      <trkpt lat="45.48889" lon="5.63908">
        <ele>662.2</ele>
        <time>2015-05-17T10:47:01Z</time>
      </trkpt>
      <trkpt lat="45.48896" lon="5.63911">
        <ele>663</ele>
        <time>2015-05-17T10:47:03Z</time>
      </trkpt>
      <trkpt lat="45.48903" lon="5.63915">
        <ele>663.1</ele>
        <time>2015-05-17T10:47:05Z</time>
      </trkpt>
      <trkpt lat="45.48913" lon="5.6392">
        <ele>663.2</ele>
        <time>2015-05-17T10:47:08Z</time>
      </trkpt>
      <trkpt lat="45.48921" lon="5.63924">
        <ele>663.2</ele>
        <time>2015-05-17T10:47:10Z</time>
      </trkpt>
      <trkpt lat="45.4893" lon="5.63928">
        <ele>663.3</ele>
        <time>2015-05-17T10:47:13Z</time>
      </trkpt>
      <trkpt lat="45.48937" lon="5.63932">
        <ele>663.5</ele>
        <time>2015-05-17T10:47:16Z</time>
      </trkpt>
      <trkpt lat="45.48944" lon="5.63936">
        <ele>663.7</ele>
        <time>2015-05-17T10:47:19Z</time>
      </trkpt>
      <trkpt lat="45.48953" lon="5.6394">
        <ele>664</ele>
        <time>2015-05-17T10:47:23Z</time>
      </trkpt>
      <trkpt lat="45.48961" lon="5.63943">
        <ele>664.3</ele>
        <time>2015-05-17T10:47:26Z</time>
      </trkpt>
      <trkpt lat="45.48968" lon="5.63946">
        <ele>664.6</ele>
        <time>2015-05-17T10:47:29Z</time>
      </trkpt>
      <trkpt lat="45.48975" lon="5.6395">
        <ele>664.9</ele>
        <time>2015-05-17T10:47:32Z</time>
      </trkpt>
      <trkpt lat="45.48983" lon="5.63953">
        <ele>665.1</ele>
        <time>2015-05-17T10:47:35Z</time>
      </trkpt>
      <trkpt lat="45.4899" lon="5.63955">
        <ele>665.4</ele>
        <time>2015-05-17T10:47:38Z</time>
      </trkpt>
      <trkpt lat="45.48997" lon="5.63961">
        <ele>665.7</ele>
        <time>2015-05-17T10:47:41Z</time>
      </trkpt>
      <trkpt lat="45.49004" lon="5.63967">
        <ele>666</ele>
        <time>2015-05-17T10:47:44Z</time>
      </trkpt>
      <trkpt lat="45.49011" lon="5.63972">
        <ele>666.5</ele>
        <time>2015-05-17T10:47:47Z</time>
      </trkpt>
      <trkpt lat="45.49018" lon="5.63979">
        <ele>667</ele>
        <time>2015-05-17T10:47:51Z</time>
      </trkpt>
      <trkpt lat="45.49025" lon="5.63984">
        <ele>667.2</ele>
        <time>2015-05-17T10:47:54Z</time>
      </trkpt>
      <trkpt lat="45.49032" lon="5.63989">
        <ele>667.5</ele>
        <time>2015-05-17T10:47:57Z</time>
      </trkpt>
      <trkpt lat="45.49039" lon="5.63994">
        <ele>667.8</ele>
        <time>2015-05-17T10:48:00Z</time>
      </trkpt>
      <trkpt lat="45.49046" lon="5.63998">
        <ele>668.2</ele>
        <time>2015-05-17T10:48:03Z</time>
      </trkpt>
      <trkpt lat="45.49053" lon="5.64002">
        <ele>668.5</ele>
        <time>2015-05-17T10:48:06Z</time>
      </trkpt>
      <trkpt lat="45.49059" lon="5.64007">
        <ele>668.9</ele>
        <time>2015-05-17T10:48:09Z</time>
      </trkpt>
      <trkpt lat="45.49066" lon="5.64013">
        <ele>669.2</ele>
        <time>2015-05-17T10:48:12Z</time>
      </trkpt>
      <trkpt lat="45.49073" lon="5.64018">
        <ele>669.4</ele>
        <time>2015-05-17T10:48:15Z</time>
      </trkpt>
      <trkpt lat="45.49079" lon="5.64024">
        <ele>669.7</ele>
        <time>2015-05-17T10:48:18Z</time>
      </trkpt>
      <trkpt lat="45.49086" lon="5.6403">
        <ele>670</ele>
        <time>2015-05-17T10:48:21Z</time>
      </trkpt>
      <trkpt lat="45.49092" lon="5.64036">
        <ele>670.5</ele>
        <time>2015-05-17T10:48:24Z</time>
      </trkpt>
      <trkpt lat="45.49099" lon="5.64043">
        <ele>671</ele>
        <time>2015-05-17T10:48:27Z</time>
      </trkpt>
      <trkpt lat="45.49106" lon="5.6405">
        <ele>671.6</ele>
        <time>2015-05-17T10:48:30Z</time>
      </trkpt>
      <trkpt lat="45.49114" lon="5.64057">
        <ele>672.1</ele>
        <time>2015-05-17T10:48:33Z</time>
      </trkpt>
      <trkpt lat="45.49122" lon="5.64063">
        <ele>672.5</ele>
        <time>2015-05-17T10:48:36Z</time>
      </trkpt>
      <trkpt lat="45.49129" lon="5.64069">
        <ele>672.9</ele>
        <time>2015-05-17T10:48:39Z</time>
      </trkpt>
      <trkpt lat="45.49137" lon="5.64076">
        <ele>673.3</ele>
        <time>2015-05-17T10:48:42Z</time>
      </trkpt>
      <trkpt lat="45.49144" lon="5.64082">
        <ele>673.7</ele>
        <time>2015-05-17T10:48:45Z</time>
      </trkpt>
      <trkpt lat="45.4915" lon="5.64089">
        <ele>674</ele>
        <time>2015-05-17T10:48:48Z</time>
      </trkpt>
      <trkpt lat="45.49156" lon="5.64097">
        <ele>674.3</ele>
        <time>2015-05-17T10:48:51Z</time>
      </trkpt>
      <trkpt lat="45.49162" lon="5.64107">
        <ele>674.4</ele>
        <time>2015-05-17T10:48:54Z</time>
      </trkpt>
      <trkpt lat="45.49166" lon="5.64116">
        <ele>674.5</ele>
        <time>2015-05-17T10:48:56Z</time>
      </trkpt>
      <trkpt lat="45.49169" lon="5.64126">
        <ele>674.7</ele>
        <time>2015-05-17T10:48:59Z</time>
      </trkpt>
      <trkpt lat="45.49173" lon="5.64135">
        <ele>675</ele>
        <time>2015-05-17T10:49:02Z</time>
      </trkpt>
      <trkpt lat="45.49174" lon="5.64146">
        <ele>676.1</ele>
        <time>2015-05-17T10:49:09Z</time>
      </trkpt>
      <trkpt lat="45.49168" lon="5.64154">
        <ele>677.5</ele>
        <time>2015-05-17T10:49:14Z</time>
      </trkpt>
      <trkpt lat="45.49164" lon="5.64163">
        <ele>680.1</ele>
        <time>2015-05-17T10:49:20Z</time>
      </trkpt>
      <trkpt lat="45.4916" lon="5.64173">
        <ele>681.7</ele>
        <time>2015-05-17T10:49:24Z</time>
      </trkpt>
      <trkpt lat="45.49157" lon="5.64184">
        <ele>683.2</ele>
        <time>2015-05-17T10:49:29Z</time>
      </trkpt>
      <trkpt lat="45.49151" lon="5.64191">
        <ele>684.6</ele>
        <time>2015-05-17T10:49:35Z</time>
      </trkpt>
      <trkpt lat="45.49146" lon="5.64202">
        <ele>685.7</ele>
        <time>2015-05-17T10:49:40Z</time>
      </trkpt>
      <trkpt lat="45.4914" lon="5.64208">
        <ele>686.9</ele>
        <time>2015-05-17T10:49:44Z</time>
      </trkpt>
      <trkpt lat="45.49132" lon="5.64212">
        <ele>688.1</ele>
        <time>2015-05-17T10:49:48Z</time>
      </trkpt>
      <trkpt lat="45.49123" lon="5.64215">
        <ele>688.7</ele>
        <time>2015-05-17T10:49:51Z</time>
      </trkpt>
      <trkpt lat="45.49113" lon="5.6422">
        <ele>689.4</ele>
        <time>2015-05-17T10:49:54Z</time>
      </trkpt>
      <trkpt lat="45.49104" lon="5.64227">
        <ele>690.1</ele>
        <time>2015-05-17T10:49:58Z</time>
      </trkpt>
      <trkpt lat="45.49097" lon="5.64231">
        <ele>690.7</ele>
        <time>2015-05-17T10:50:01Z</time>
      </trkpt>
      <trkpt lat="45.49089" lon="5.64241">
        <ele>692.2</ele>
        <time>2015-05-17T10:50:06Z</time>
      </trkpt>
      <trkpt lat="45.49082" lon="5.64251">
        <ele>692.8</ele>
        <time>2015-05-17T10:50:09Z</time>
      </trkpt>
      <trkpt lat="45.49076" lon="5.64258">
        <ele>693.3</ele>
        <time>2015-05-17T10:50:11Z</time>
      </trkpt>
      <trkpt lat="45.49069" lon="5.64263">
        <ele>693.8</ele>
        <time>2015-05-17T10:50:13Z</time>
      </trkpt>
      <trkpt lat="45.49059" lon="5.64268">
        <ele>694.4</ele>
        <time>2015-05-17T10:50:15Z</time>
      </trkpt>
      <trkpt lat="45.49052" lon="5.64269">
        <ele>694.9</ele>
        <time>2015-05-17T10:50:17Z</time>
      </trkpt>
      <trkpt lat="45.49042" lon="5.64272">
        <ele>695.6</ele>
        <time>2015-05-17T10:50:20Z</time>
      </trkpt>
      <trkpt lat="45.49034" lon="5.64279">
        <ele>696.2</ele>
        <time>2015-05-17T10:50:23Z</time>
      </trkpt>
      <trkpt lat="45.49027" lon="5.64289">
        <ele>696.6</ele>
        <time>2015-05-17T10:50:26Z</time>
      </trkpt>
      <trkpt lat="45.49029" lon="5.643">
        <ele>697.1</ele>
        <time>2015-05-17T10:50:31Z</time>
      </trkpt>
      <trkpt lat="45.49033" lon="5.64313">
        <ele>697.4</ele>
        <time>2015-05-17T10:50:34Z</time>
      </trkpt>
      <trkpt lat="45.49037" lon="5.64323">
        <ele>697.8</ele>
        <time>2015-05-17T10:50:37Z</time>
      </trkpt>
      <trkpt lat="45.4904" lon="5.64333">
        <ele>698.3</ele>
        <time>2015-05-17T10:50:40Z</time>
      </trkpt>
      <trkpt lat="45.49041" lon="5.64345">
        <ele>698.9</ele>
        <time>2015-05-17T10:50:44Z</time>
      </trkpt>
      <trkpt lat="45.49043" lon="5.64346">
        <ele>698.9</ele>
        <time>2015-05-17T10:50:51Z</time>
      </trkpt>
      <trkpt lat="45.4904" lon="5.64351">
        <ele>698.4</ele>
        <time>2015-05-17T10:51:09Z</time>
      </trkpt>
      <trkpt lat="45.49037" lon="5.64358">
        <ele>698.3</ele>
        <time>2015-05-17T10:51:16Z</time>
      </trkpt>
      <trkpt lat="45.49029" lon="5.64359">
        <ele>698.6</ele>
        <time>2015-05-17T10:51:22Z</time>
      </trkpt>
      <trkpt lat="45.49018" lon="5.6436">
        <ele>698.6</ele>
        <time>2015-05-17T10:51:25Z</time>
      </trkpt>
      <trkpt lat="45.4901" lon="5.64363">
        <ele>698.6</ele>
        <time>2015-05-17T10:51:27Z</time>
      </trkpt>
      <trkpt lat="45.49001" lon="5.64364">
        <ele>698.6</ele>
        <time>2015-05-17T10:51:30Z</time>
      </trkpt>
      <trkpt lat="45.48992" lon="5.64362">
        <ele>698.6</ele>
        <time>2015-05-17T10:51:33Z</time>
      </trkpt>
      <trkpt lat="45.48982" lon="5.64365">
        <ele>698.3</ele>
        <time>2015-05-17T10:51:37Z</time>
      </trkpt>
      <trkpt lat="45.48974" lon="5.64366">
        <ele>698.1</ele>
        <time>2015-05-17T10:51:39Z</time>
      </trkpt>
      <trkpt lat="45.48965" lon="5.64366">
        <ele>697.9</ele>
        <time>2015-05-17T10:51:41Z</time>
      </trkpt>
      <trkpt lat="45.48957" lon="5.64363">
        <ele>697.6</ele>
        <time>2015-05-17T10:51:43Z</time>
      </trkpt>
      <trkpt lat="45.48948" lon="5.64357">
        <ele>697.6</ele>
        <time>2015-05-17T10:51:46Z</time>
      </trkpt>
      <trkpt lat="45.4894" lon="5.64349">
        <ele>697.4</ele>
        <time>2015-05-17T10:51:49Z</time>
      </trkpt>
      <trkpt lat="45.48931" lon="5.64349">
        <ele>696.9</ele>
        <time>2015-05-17T10:51:55Z</time>
      </trkpt>
      <trkpt lat="45.48924" lon="5.6435">
        <ele>696.7</ele>
        <time>2015-05-17T10:51:57Z</time>
      </trkpt>
      <trkpt lat="45.48916" lon="5.6435">
        <ele>696.5</ele>
        <time>2015-05-17T10:51:59Z</time>
      </trkpt>
      <trkpt lat="45.48908" lon="5.64346">
        <ele>696</ele>
        <time>2015-05-17T10:52:02Z</time>
      </trkpt>
      <trkpt lat="45.489" lon="5.64344">
        <ele>695.6</ele>
        <time>2015-05-17T10:52:05Z</time>
      </trkpt>
      <trkpt lat="45.48891" lon="5.64343">
        <ele>695.5</ele>
        <time>2015-05-17T10:52:07Z</time>
      </trkpt>
      <trkpt lat="45.48883" lon="5.64345">
        <ele>695.5</ele>
        <time>2015-05-17T10:52:09Z</time>
      </trkpt>
      <trkpt lat="45.48876" lon="5.64345">
        <ele>695.6</ele>
        <time>2015-05-17T10:52:11Z</time>
      </trkpt>
      <trkpt lat="45.48868" lon="5.64343">
        <ele>695.8</ele>
        <time>2015-05-17T10:52:13Z</time>
      </trkpt>
      <trkpt lat="45.48857" lon="5.64337">
        <ele>696</ele>
        <time>2015-05-17T10:52:15Z</time>
      </trkpt>
      <trkpt lat="45.48849" lon="5.64333">
        <ele>695.9</ele>
        <time>2015-05-17T10:52:17Z</time>
      </trkpt>
      <trkpt lat="45.48842" lon="5.64329">
        <ele>695.8</ele>
        <time>2015-05-17T10:52:20Z</time>
      </trkpt>
      <trkpt lat="45.48833" lon="5.64325">
        <ele>695.7</ele>
        <time>2015-05-17T10:52:22Z</time>
      </trkpt>
      <trkpt lat="45.48826" lon="5.64318">
        <ele>695.6</ele>
        <time>2015-05-17T10:52:25Z</time>
      </trkpt>
      <trkpt lat="45.48819" lon="5.64312">
        <ele>695.5</ele>
        <time>2015-05-17T10:52:30Z</time>
      </trkpt>
      <trkpt lat="45.48812" lon="5.64317">
        <ele>695.6</ele>
        <time>2015-05-17T10:52:36Z</time>
      </trkpt>
      <trkpt lat="45.48803" lon="5.64321">
        <ele>695.5</ele>
        <time>2015-05-17T10:52:39Z</time>
      </trkpt>
      <trkpt lat="45.48794" lon="5.64328">
        <ele>695.4</ele>
        <time>2015-05-17T10:52:42Z</time>
      </trkpt>
      <trkpt lat="45.48785" lon="5.64329">
        <ele>695.5</ele>
        <time>2015-05-17T10:52:46Z</time>
      </trkpt>
      <trkpt lat="45.48776" lon="5.64332">
        <ele>695.6</ele>
        <time>2015-05-17T10:52:49Z</time>
      </trkpt>
      <trkpt lat="45.48765" lon="5.64338">
        <ele>695.6</ele>
        <time>2015-05-17T10:52:52Z</time>
      </trkpt>
      <trkpt lat="45.48756" lon="5.64341">
        <ele>695.8</ele>
        <time>2015-05-17T10:52:54Z</time>
      </trkpt>
      <trkpt lat="45.48745" lon="5.64343">
        <ele>696</ele>
        <time>2015-05-17T10:52:56Z</time>
      </trkpt>
      <trkpt lat="45.48735" lon="5.64345">
        <ele>696.2</ele>
        <time>2015-05-17T10:52:58Z</time>
      </trkpt>
      <trkpt lat="45.48725" lon="5.64345">
        <ele>697.5</ele>
        <time>2015-05-17T10:53:00Z</time>
      </trkpt>
      <trkpt lat="45.48714" lon="5.64344">
        <ele>699</ele>
        <time>2015-05-17T10:53:02Z</time>
      </trkpt>
      <trkpt lat="45.48701" lon="5.64344">
        <ele>699.8</ele>
        <time>2015-05-17T10:53:04Z</time>
      </trkpt>
      <trkpt lat="45.48693" lon="5.64343">
        <ele>699.9</ele>
        <time>2015-05-17T10:53:06Z</time>
      </trkpt>
      <trkpt lat="45.48683" lon="5.64341">
        <ele>699.8</ele>
        <time>2015-05-17T10:53:08Z</time>
      </trkpt>
      <trkpt lat="45.48674" lon="5.64335">
        <ele>699.6</ele>
        <time>2015-05-17T10:53:11Z</time>
      </trkpt>
      <trkpt lat="45.48666" lon="5.64331">
        <ele>699.3</ele>
        <time>2015-05-17T10:53:14Z</time>
      </trkpt>
      <trkpt lat="45.48658" lon="5.6433">
        <ele>698.8</ele>
        <time>2015-05-17T10:53:18Z</time>
      </trkpt>
      <trkpt lat="45.48651" lon="5.64333">
        <ele>697.9</ele>
        <time>2015-05-17T10:53:21Z</time>
      </trkpt>
      <trkpt lat="45.48643" lon="5.64331">
        <ele>696.8</ele>
        <time>2015-05-17T10:53:24Z</time>
      </trkpt>
      <trkpt lat="45.48635" lon="5.64337">
        <ele>696.1</ele>
        <time>2015-05-17T10:53:27Z</time>
      </trkpt>
      <trkpt lat="45.48627" lon="5.64336">
        <ele>695.2</ele>
        <time>2015-05-17T10:53:31Z</time>
      </trkpt>
      <trkpt lat="45.48618" lon="5.64335">
        <ele>694.7</ele>
        <time>2015-05-17T10:53:34Z</time>
      </trkpt>
      <trkpt lat="45.4861" lon="5.64333">
        <ele>694.5</ele>
        <time>2015-05-17T10:53:37Z</time>
      </trkpt>
      <trkpt lat="45.486" lon="5.6433">
        <ele>694.4</ele>
        <time>2015-05-17T10:53:41Z</time>
      </trkpt>
      <trkpt lat="45.48592" lon="5.64331">
        <ele>694.5</ele>
        <time>2015-05-17T10:53:43Z</time>
      </trkpt>
      <trkpt lat="45.48584" lon="5.64331">
        <ele>694.8</ele>
        <time>2015-05-17T10:53:45Z</time>
      </trkpt>
      <trkpt lat="45.48577" lon="5.64329">
        <ele>694.8</ele>
        <time>2015-05-17T10:53:49Z</time>
      </trkpt>
      <trkpt lat="45.48571" lon="5.64326">
        <ele>695.2</ele>
        <time>2015-05-17T10:53:56Z</time>
      </trkpt>
      <trkpt lat="45.48563" lon="5.64325">
        <ele>695.3</ele>
        <time>2015-05-17T10:53:57Z</time>
      </trkpt>
      <trkpt lat="45.48554" lon="5.64326">
        <ele>695.3</ele>
        <time>2015-05-17T10:53:59Z</time>
      </trkpt>
      <trkpt lat="45.48545" lon="5.64325">
        <ele>695.3</ele>
        <time>2015-05-17T10:54:02Z</time>
      </trkpt>
      <trkpt lat="45.48534" lon="5.64322">
        <ele>695</ele>
        <time>2015-05-17T10:54:05Z</time>
      </trkpt>
      <trkpt lat="45.48524" lon="5.6432">
        <ele>694.8</ele>
        <time>2015-05-17T10:54:07Z</time>
      </trkpt>
      <trkpt lat="45.48516" lon="5.64318">
        <ele>694.5</ele>
        <time>2015-05-17T10:54:09Z</time>
      </trkpt>
      <trkpt lat="45.48505" lon="5.64317">
        <ele>694.2</ele>
        <time>2015-05-17T10:54:12Z</time>
      </trkpt>
      <trkpt lat="45.48496" lon="5.64317">
        <ele>694.1</ele>
        <time>2015-05-17T10:54:14Z</time>
      </trkpt>
      <trkpt lat="45.48487" lon="5.64317">
        <ele>693.9</ele>
        <time>2015-05-17T10:54:16Z</time>
      </trkpt>
      <trkpt lat="45.4848" lon="5.64317">
        <ele>693.6</ele>
        <time>2015-05-17T10:54:18Z</time>
      </trkpt>
      <trkpt lat="45.48472" lon="5.64316">
        <ele>691.9</ele>
        <time>2015-05-17T10:54:20Z</time>
      </trkpt>
      <trkpt lat="45.48465" lon="5.64307">
        <ele>691.5</ele>
        <time>2015-05-17T10:54:24Z</time>
      </trkpt>
      <trkpt lat="45.48469" lon="5.64298">
        <ele>689.6</ele>
        <time>2015-05-17T10:54:34Z</time>
      </trkpt>
      <trkpt lat="45.48478" lon="5.64295">
        <ele>689.1</ele>
        <time>2015-05-17T10:54:37Z</time>
      </trkpt>
      <trkpt lat="45.48487" lon="5.64292">
        <ele>688.6</ele>
        <time>2015-05-17T10:54:40Z</time>
      </trkpt>
      <trkpt lat="45.48494" lon="5.64291">
        <ele>688.3</ele>
        <time>2015-05-17T10:54:42Z</time>
      </trkpt>
      <trkpt lat="45.48501" lon="5.64289">
        <ele>688</ele>
        <time>2015-05-17T10:54:44Z</time>
      </trkpt>
      <trkpt lat="45.48508" lon="5.64287">
        <ele>686.4</ele>
        <time>2015-05-17T10:54:46Z</time>
      </trkpt>
      <trkpt lat="45.48518" lon="5.64284">
        <ele>686.1</ele>
        <time>2015-05-17T10:54:49Z</time>
      </trkpt>
      <trkpt lat="45.48529" lon="5.64281">
        <ele>684.3</ele>
        <time>2015-05-17T10:54:52Z</time>
      </trkpt>
      <trkpt lat="45.48538" lon="5.64276">
        <ele>684.1</ele>
        <time>2015-05-17T10:54:55Z</time>
      </trkpt>
      <trkpt lat="45.48545" lon="5.64272">
        <ele>684</ele>
        <time>2015-05-17T10:54:57Z</time>
      </trkpt>
      <trkpt lat="45.48553" lon="5.64267">
        <ele>683.7</ele>
        <time>2015-05-17T10:54:59Z</time>
      </trkpt>
      <trkpt lat="45.48561" lon="5.64258">
        <ele>683.5</ele>
        <time>2015-05-17T10:55:02Z</time>
      </trkpt>
      <trkpt lat="45.48565" lon="5.64245">
        <ele>683.3</ele>
        <time>2015-05-17T10:55:05Z</time>
      </trkpt>
      <trkpt lat="45.48561" lon="5.64236">
        <ele>682</ele>
        <time>2015-05-17T10:55:07Z</time>
      </trkpt>
      <trkpt lat="45.48552" lon="5.64223">
        <ele>679.8</ele>
        <time>2015-05-17T10:55:09Z</time>
      </trkpt>
      <trkpt lat="45.48543" lon="5.6421">
        <ele>678</ele>
        <time>2015-05-17T10:55:11Z</time>
      </trkpt>
      <trkpt lat="45.48534" lon="5.64197">
        <ele>676.5</ele>
        <time>2015-05-17T10:55:13Z</time>
      </trkpt>
      <trkpt lat="45.48524" lon="5.64184">
        <ele>675.1</ele>
        <time>2015-05-17T10:55:15Z</time>
      </trkpt>
      <trkpt lat="45.48515" lon="5.64169">
        <ele>674.4</ele>
        <time>2015-05-17T10:55:17Z</time>
      </trkpt>
      <trkpt lat="45.48505" lon="5.64155">
        <ele>673.7</ele>
        <time>2015-05-17T10:55:19Z</time>
      </trkpt>
      <trkpt lat="45.48496" lon="5.64142">
        <ele>673.6</ele>
        <time>2015-05-17T10:55:21Z</time>
      </trkpt>
      <trkpt lat="45.48491" lon="5.64134">
        <ele>673.6</ele>
        <time>2015-05-17T10:55:22Z</time>
      </trkpt>
      <trkpt lat="45.48486" lon="5.64125">
        <ele>673.4</ele>
        <time>2015-05-17T10:55:23Z</time>
      </trkpt>
      <trkpt lat="45.48478" lon="5.64109">
        <ele>673.6</ele>
        <time>2015-05-17T10:55:25Z</time>
      </trkpt>
      <trkpt lat="45.48475" lon="5.64099">
        <ele>673.5</ele>
        <time>2015-05-17T10:55:26Z</time>
      </trkpt>
      <trkpt lat="45.48472" lon="5.64089">
        <ele>673</ele>
        <time>2015-05-17T10:55:27Z</time>
      </trkpt>
      <trkpt lat="45.4847" lon="5.64077">
        <ele>672.6</ele>
        <time>2015-05-17T10:55:28Z</time>
      </trkpt>
      <trkpt lat="45.48468" lon="5.64064">
        <ele>672.2</ele>
        <time>2015-05-17T10:55:29Z</time>
      </trkpt>
      <trkpt lat="45.48466" lon="5.64052">
        <ele>672</ele>
        <time>2015-05-17T10:55:30Z</time>
      </trkpt>
      <trkpt lat="45.48464" lon="5.64041">
        <ele>671.7</ele>
        <time>2015-05-17T10:55:31Z</time>
      </trkpt>
      <trkpt lat="45.48462" lon="5.64023">
        <ele>670.6</ele>
        <time>2015-05-17T10:55:33Z</time>
      </trkpt>
      <trkpt lat="45.4846" lon="5.64007">
        <ele>669</ele>
        <time>2015-05-17T10:55:35Z</time>
      </trkpt>
      <trkpt lat="45.48455" lon="5.64">
        <ele>668.8</ele>
        <time>2015-05-17T10:55:37Z</time>
      </trkpt>
      <trkpt lat="45.48445" lon="5.63997">
        <ele>667.8</ele>
        <time>2015-05-17T10:55:40Z</time>
      </trkpt>
      <trkpt lat="45.48433" lon="5.63999">
        <ele>667.4</ele>
        <time>2015-05-17T10:55:43Z</time>
      </trkpt>
      <trkpt lat="45.48425" lon="5.64">
        <ele>667.4</ele>
        <time>2015-05-17T10:55:45Z</time>
      </trkpt>
      <trkpt lat="45.48417" lon="5.64001">
        <ele>668.4</ele>
        <time>2015-05-17T10:55:47Z</time>
      </trkpt>
      <trkpt lat="45.48409" lon="5.64003">
        <ele>668.8</ele>
        <time>2015-05-17T10:55:49Z</time>
      </trkpt>
      <trkpt lat="45.48401" lon="5.64005">
        <ele>669.2</ele>
        <time>2015-05-17T10:55:51Z</time>
      </trkpt>
      <trkpt lat="45.48393" lon="5.64011">
        <ele>669.8</ele>
        <time>2015-05-17T10:55:53Z</time>
      </trkpt>
      <trkpt lat="45.48382" lon="5.64015">
        <ele>670.1</ele>
        <time>2015-05-17T10:55:55Z</time>
      </trkpt>
      <trkpt lat="45.48373" lon="5.64018">
        <ele>669.3</ele>
        <time>2015-05-17T10:55:57Z</time>
      </trkpt>
      <trkpt lat="45.48364" lon="5.64021">
        <ele>668.8</ele>
        <time>2015-05-17T10:55:59Z</time>
      </trkpt>
      <trkpt lat="45.48356" lon="5.64024">
        <ele>668.8</ele>
        <time>2015-05-17T10:56:01Z</time>
      </trkpt>
      <trkpt lat="45.48347" lon="5.64025">
        <ele>668.6</ele>
        <time>2015-05-17T10:56:03Z</time>
      </trkpt>
      <trkpt lat="45.48338" lon="5.64028">
        <ele>669.1</ele>
        <time>2015-05-17T10:56:05Z</time>
      </trkpt>
      <trkpt lat="45.48329" lon="5.64031">
        <ele>670.2</ele>
        <time>2015-05-17T10:56:07Z</time>
      </trkpt>
      <trkpt lat="45.4832" lon="5.64034">
        <ele>669.2</ele>
        <time>2015-05-17T10:56:09Z</time>
      </trkpt>
      <trkpt lat="45.48311" lon="5.64036">
        <ele>667</ele>
        <time>2015-05-17T10:56:11Z</time>
      </trkpt>
      <trkpt lat="45.48302" lon="5.64038">
        <ele>666.5</ele>
        <time>2015-05-17T10:56:13Z</time>
      </trkpt>
      <trkpt lat="45.48292" lon="5.6404">
        <ele>667.5</ele>
        <time>2015-05-17T10:56:15Z</time>
      </trkpt>
      <trkpt lat="45.48282" lon="5.64042">
        <ele>668.9</ele>
        <time>2015-05-17T10:56:17Z</time>
      </trkpt>
      <trkpt lat="45.48273" lon="5.64043">
        <ele>669.7</ele>
        <time>2015-05-17T10:56:19Z</time>
      </trkpt>
      <trkpt lat="45.48265" lon="5.64044">
        <ele>670.7</ele>
        <time>2015-05-17T10:56:21Z</time>
      </trkpt>
      <trkpt lat="45.48256" lon="5.64044">
        <ele>671.3</ele>
        <time>2015-05-17T10:56:23Z</time>
      </trkpt>
      <trkpt lat="45.48248" lon="5.64047">
        <ele>671.6</ele>
        <time>2015-05-17T10:56:25Z</time>
      </trkpt>
      <trkpt lat="45.48242" lon="5.64054">
        <ele>671.6</ele>
        <time>2015-05-17T10:56:27Z</time>
      </trkpt>
      <trkpt lat="45.48237" lon="5.64066">
        <ele>671.6</ele>
        <time>2015-05-17T10:56:30Z</time>
      </trkpt>
      <trkpt lat="45.48233" lon="5.64079">
        <ele>671.7</ele>
        <time>2015-05-17T10:56:33Z</time>
      </trkpt>
      <trkpt lat="45.4823" lon="5.64091">
        <ele>671.7</ele>
        <time>2015-05-17T10:56:36Z</time>
      </trkpt>
      <trkpt lat="45.48226" lon="5.64102">
        <ele>671.8</ele>
        <time>2015-05-17T10:56:39Z</time>
      </trkpt>
      <trkpt lat="45.48223" lon="5.64114">
        <ele>672</ele>
        <time>2015-05-17T10:56:43Z</time>
      </trkpt>
      <trkpt lat="45.48218" lon="5.64126">
        <ele>672.2</ele>
        <time>2015-05-17T10:56:46Z</time>
      </trkpt>
      <trkpt lat="45.48213" lon="5.64136">
        <ele>672.3</ele>
        <time>2015-05-17T10:56:49Z</time>
      </trkpt>
      <trkpt lat="45.48209" lon="5.64146">
        <ele>672.4</ele>
        <time>2015-05-17T10:56:52Z</time>
      </trkpt>
      <trkpt lat="45.48205" lon="5.64157">
        <ele>672.8</ele>
        <time>2015-05-17T10:56:56Z</time>
      </trkpt>
      <trkpt lat="45.482" lon="5.64168">
        <ele>673.2</ele>
        <time>2015-05-17T10:57:00Z</time>
      </trkpt>
      <trkpt lat="45.48196" lon="5.64179">
        <ele>673.5</ele>
        <time>2015-05-17T10:57:03Z</time>
      </trkpt>
      <trkpt lat="45.48192" lon="5.6419">
        <ele>673.9</ele>
        <time>2015-05-17T10:57:06Z</time>
      </trkpt>
      <trkpt lat="45.48188" lon="5.64199">
        <ele>674.3</ele>
        <time>2015-05-17T10:57:09Z</time>
      </trkpt>
      <trkpt lat="45.48183" lon="5.6421">
        <ele>674.7</ele>
        <time>2015-05-17T10:57:13Z</time>
      </trkpt>
      <trkpt lat="45.48179" lon="5.6422">
        <ele>675.1</ele>
        <time>2015-05-17T10:57:16Z</time>
      </trkpt>
      <trkpt lat="45.48172" lon="5.6423">
        <ele>675.6</ele>
        <time>2015-05-17T10:57:20Z</time>
      </trkpt>
      <trkpt lat="45.48167" lon="5.6424">
        <ele>676</ele>
        <time>2015-05-17T10:57:24Z</time>
      </trkpt>
      <trkpt lat="45.48162" lon="5.6425">
        <ele>676.4</ele>
        <time>2015-05-17T10:57:27Z</time>
      </trkpt>
      <trkpt lat="45.48158" lon="5.64261">
        <ele>677</ele>
        <time>2015-05-17T10:57:31Z</time>
      </trkpt>
      <trkpt lat="45.48153" lon="5.64271">
        <ele>677.5</ele>
        <time>2015-05-17T10:57:35Z</time>
      </trkpt>
      <trkpt lat="45.48148" lon="5.64282">
        <ele>677.9</ele>
        <time>2015-05-17T10:57:38Z</time>
      </trkpt>
      <trkpt lat="45.48143" lon="5.64293">
        <ele>678.4</ele>
        <time>2015-05-17T10:57:41Z</time>
      </trkpt>
      <trkpt lat="45.48138" lon="5.64303">
        <ele>678.9</ele>
        <time>2015-05-17T10:57:44Z</time>
      </trkpt>
      <trkpt lat="45.48133" lon="5.64314">
        <ele>679.5</ele>
        <time>2015-05-17T10:57:47Z</time>
      </trkpt>
      <trkpt lat="45.48128" lon="5.64324">
        <ele>680</ele>
        <time>2015-05-17T10:57:50Z</time>
      </trkpt>
      <trkpt lat="45.48124" lon="5.64334">
        <ele>680.5</ele>
        <time>2015-05-17T10:57:53Z</time>
      </trkpt>
      <trkpt lat="45.4812" lon="5.64344">
        <ele>681.1</ele>
        <time>2015-05-17T10:57:56Z</time>
      </trkpt>
      <trkpt lat="45.48116" lon="5.64355">
        <ele>681.7</ele>
        <time>2015-05-17T10:57:59Z</time>
      </trkpt>
      <trkpt lat="45.48111" lon="5.64364">
        <ele>682.2</ele>
        <time>2015-05-17T10:58:02Z</time>
      </trkpt>
      <trkpt lat="45.48106" lon="5.64375">
        <ele>682.6</ele>
        <time>2015-05-17T10:58:05Z</time>
      </trkpt>
      <trkpt lat="45.48101" lon="5.64385">
        <ele>683</ele>
        <time>2015-05-17T10:58:08Z</time>
      </trkpt>
      <trkpt lat="45.48098" lon="5.64396">
        <ele>683.5</ele>
        <time>2015-05-17T10:58:11Z</time>
      </trkpt>
      <trkpt lat="45.48093" lon="5.64406">
        <ele>683.9</ele>
        <time>2015-05-17T10:58:14Z</time>
      </trkpt>
      <trkpt lat="45.48087" lon="5.64417">
        <ele>684.3</ele>
        <time>2015-05-17T10:58:17Z</time>
      </trkpt>
      <trkpt lat="45.48082" lon="5.64427">
        <ele>684.6</ele>
        <time>2015-05-17T10:58:20Z</time>
      </trkpt>
      <trkpt lat="45.48076" lon="5.64437">
        <ele>685</ele>
        <time>2015-05-17T10:58:23Z</time>
      </trkpt>
      <trkpt lat="45.4807" lon="5.64449">
        <ele>685.6</ele>
        <time>2015-05-17T10:58:26Z</time>
      </trkpt>
      <trkpt lat="45.48064" lon="5.64458">
        <ele>685.9</ele>
        <time>2015-05-17T10:58:29Z</time>
      </trkpt>
      <trkpt lat="45.4806" lon="5.64469">
        <ele>686.3</ele>
        <time>2015-05-17T10:58:32Z</time>
      </trkpt>
      <trkpt lat="45.48057" lon="5.64481">
        <ele>686.7</ele>
        <time>2015-05-17T10:58:35Z</time>
      </trkpt>
      <trkpt lat="45.48054" lon="5.6449">
        <ele>687.1</ele>
        <time>2015-05-17T10:58:38Z</time>
      </trkpt>
      <trkpt lat="45.4805" lon="5.64499">
        <ele>687.3</ele>
        <time>2015-05-17T10:58:40Z</time>
      </trkpt>
      <trkpt lat="45.48046" lon="5.64512">
        <ele>688.7</ele>
        <time>2015-05-17T10:58:43Z</time>
      </trkpt>
      <trkpt lat="45.48041" lon="5.64524">
        <ele>688.9</ele>
        <time>2015-05-17T10:58:46Z</time>
      </trkpt>
      <trkpt lat="45.48038" lon="5.64537">
        <ele>688.8</ele>
        <time>2015-05-17T10:58:48Z</time>
      </trkpt>
      <trkpt lat="45.48037" lon="5.64549">
        <ele>688.8</ele>
        <time>2015-05-17T10:58:50Z</time>
      </trkpt>
      <trkpt lat="45.48032" lon="5.6456">
        <ele>688.8</ele>
        <time>2015-05-17T10:58:52Z</time>
      </trkpt>
      <trkpt lat="45.48027" lon="5.64566">
        <ele>687.9</ele>
        <time>2015-05-17T10:58:54Z</time>
      </trkpt>
      <trkpt lat="45.4802" lon="5.64571">
        <ele>687.7</ele>
        <time>2015-05-17T10:58:56Z</time>
      </trkpt>
      <trkpt lat="45.48013" lon="5.64577">
        <ele>686.7</ele>
        <time>2015-05-17T10:58:58Z</time>
      </trkpt>
      <trkpt lat="45.48005" lon="5.64587">
        <ele>686.7</ele>
        <time>2015-05-17T10:59:00Z</time>
      </trkpt>
      <trkpt lat="45.47999" lon="5.64598">
        <ele>686.5</ele>
        <time>2015-05-17T10:59:03Z</time>
      </trkpt>
      <trkpt lat="45.47995" lon="5.6461">
        <ele>686.4</ele>
        <time>2015-05-17T10:59:05Z</time>
      </trkpt>
      <trkpt lat="45.47993" lon="5.64622">
        <ele>686</ele>
        <time>2015-05-17T10:59:08Z</time>
      </trkpt>
      <trkpt lat="45.47991" lon="5.64632">
        <ele>685.4</ele>
        <time>2015-05-17T10:59:11Z</time>
      </trkpt>
      <trkpt lat="45.47986" lon="5.64643">
        <ele>684.6</ele>
        <time>2015-05-17T10:59:14Z</time>
      </trkpt>
      <trkpt lat="45.47982" lon="5.64654">
        <ele>683.9</ele>
        <time>2015-05-17T10:59:16Z</time>
      </trkpt>
      <trkpt lat="45.4798" lon="5.64664">
        <ele>678.9</ele>
        <time>2015-05-17T10:59:18Z</time>
      </trkpt>
      <trkpt lat="45.47976" lon="5.64676">
        <ele>674.2</ele>
        <time>2015-05-17T10:59:20Z</time>
      </trkpt>
      <trkpt lat="45.47975" lon="5.6469">
        <ele>672.9</ele>
        <time>2015-05-17T10:59:23Z</time>
      </trkpt>
      <trkpt lat="45.47975" lon="5.64706">
        <ele>664</ele>
        <time>2015-05-17T10:59:26Z</time>
      </trkpt>
      <trkpt lat="45.47976" lon="5.64717">
        <ele>659.3</ele>
        <time>2015-05-17T10:59:28Z</time>
      </trkpt>
      <trkpt lat="45.47976" lon="5.6473">
        <ele>656.8</ele>
        <time>2015-05-17T10:59:30Z</time>
      </trkpt>
      <trkpt lat="45.47976" lon="5.64743">
        <ele>654.3</ele>
        <time>2015-05-17T10:59:32Z</time>
      </trkpt>
      <trkpt lat="45.47976" lon="5.64758">
        <ele>651.4</ele>
        <time>2015-05-17T10:59:34Z</time>
      </trkpt>
      <trkpt lat="45.47976" lon="5.64775">
        <ele>648.6</ele>
        <time>2015-05-17T10:59:36Z</time>
      </trkpt>
      <trkpt lat="45.47976" lon="5.6479">
        <ele>646.2</ele>
        <time>2015-05-17T10:59:38Z</time>
      </trkpt>
      <trkpt lat="45.47976" lon="5.64804">
        <ele>644.8</ele>
        <time>2015-05-17T10:59:40Z</time>
      </trkpt>
      <trkpt lat="45.47976" lon="5.64816">
        <ele>643.8</ele>
        <time>2015-05-17T10:59:42Z</time>
      </trkpt>
      <trkpt lat="45.47977" lon="5.64828">
        <ele>642.5</ele>
        <time>2015-05-17T10:59:44Z</time>
      </trkpt>
      <trkpt lat="45.47978" lon="5.64842">
        <ele>641.1</ele>
        <time>2015-05-17T10:59:46Z</time>
      </trkpt>
      <trkpt lat="45.4798" lon="5.64857">
        <ele>639.6</ele>
        <time>2015-05-17T10:59:48Z</time>
      </trkpt>
      <trkpt lat="45.47981" lon="5.64873">
        <ele>637.8</ele>
        <time>2015-05-17T10:59:50Z</time>
      </trkpt>
      <trkpt lat="45.47982" lon="5.64888">
        <ele>635.9</ele>
        <time>2015-05-17T10:59:52Z</time>
      </trkpt>
      <trkpt lat="45.47981" lon="5.64903">
        <ele>634</ele>
        <time>2015-05-17T10:59:54Z</time>
      </trkpt>
      <trkpt lat="45.47979" lon="5.64919">
        <ele>632.4</ele>
        <time>2015-05-17T10:59:56Z</time>
      </trkpt>
      <trkpt lat="45.47977" lon="5.64936">
        <ele>630.6</ele>
        <time>2015-05-17T10:59:58Z</time>
      </trkpt>
      <trkpt lat="45.47975" lon="5.64954">
        <ele>628.6</ele>
        <time>2015-05-17T11:00:00Z</time>
      </trkpt>
      <trkpt lat="45.47973" lon="5.64969">
        <ele>626.7</ele>
        <time>2015-05-17T11:00:02Z</time>
      </trkpt>
      <trkpt lat="45.47971" lon="5.64985">
        <ele>625.3</ele>
        <time>2015-05-17T11:00:04Z</time>
      </trkpt>
      <trkpt lat="45.4797" lon="5.64998">
        <ele>624.2</ele>
        <time>2015-05-17T11:00:06Z</time>
      </trkpt>
      <trkpt lat="45.47969" lon="5.65009">
        <ele>624.1</ele>
        <time>2015-05-17T11:00:08Z</time>
      </trkpt>
      <trkpt lat="45.47965" lon="5.6502">
        <ele>624</ele>
        <time>2015-05-17T11:00:11Z</time>
      </trkpt>
      <trkpt lat="45.47965" lon="5.65022">
        <ele>623.9</ele>
        <time>2015-05-17T11:00:18Z</time>
      </trkpt>
      <trkpt lat="45.47957" lon="5.65028">
        <ele>623.1</ele>
        <time>2015-05-17T10:59:56Z</time>
      </trkpt>
      <trkpt lat="45.47948" lon="5.6503">
        <ele>623.1</ele>
        <time>2015-05-17T11:01:04Z</time>
      </trkpt>
      <trkpt lat="45.47941" lon="5.65032">
        <ele>623</ele>
        <time>2015-05-17T11:01:06Z</time>
      </trkpt>
      <trkpt lat="45.47934" lon="5.65035">
        <ele>623</ele>
        <time>2015-05-17T11:01:08Z</time>
      </trkpt>
      <trkpt lat="45.47927" lon="5.65036">
        <ele>623.2</ele>
        <time>2015-05-17T11:01:10Z</time>
      </trkpt>
      <trkpt lat="45.47919" lon="5.65036">
        <ele>623.3</ele>
        <time>2015-05-17T11:01:12Z</time>
      </trkpt>
      <trkpt lat="45.4791" lon="5.65036">
        <ele>624.3</ele>
        <time>2015-05-17T11:01:14Z</time>
      </trkpt>
      <trkpt lat="45.47903" lon="5.65035">
        <ele>624.9</ele>
        <time>2015-05-17T11:01:16Z</time>
      </trkpt>
      <trkpt lat="45.47896" lon="5.65033">
        <ele>624.9</ele>
        <time>2015-05-17T11:01:18Z</time>
      </trkpt>
      <trkpt lat="45.47888" lon="5.65031">
        <ele>625</ele>
        <time>2015-05-17T11:01:20Z</time>
      </trkpt>
      <trkpt lat="45.47879" lon="5.65028">
        <ele>625</ele>
        <time>2015-05-17T11:01:23Z</time>
      </trkpt>
      <trkpt lat="45.47869" lon="5.65025">
        <ele>625</ele>
        <time>2015-05-17T11:01:26Z</time>
      </trkpt>
      <trkpt lat="45.47861" lon="5.65023">
        <ele>625.3</ele>
        <time>2015-05-17T11:01:28Z</time>
      </trkpt>
      <trkpt lat="45.47854" lon="5.6502">
        <ele>625.4</ele>
        <time>2015-05-17T11:01:30Z</time>
      </trkpt>
      <trkpt lat="45.47844" lon="5.65018">
        <ele>625.6</ele>
        <time>2015-05-17T11:01:33Z</time>
      </trkpt>
      <trkpt lat="45.47836" lon="5.65016">
        <ele>625.8</ele>
        <time>2015-05-17T11:01:35Z</time>
      </trkpt>
      <trkpt lat="45.47829" lon="5.65015">
        <ele>625.8</ele>
        <time>2015-05-17T11:01:37Z</time>
      </trkpt>
      <trkpt lat="45.4782" lon="5.65014">
        <ele>625.7</ele>
        <time>2015-05-17T11:01:39Z</time>
      </trkpt>
      <trkpt lat="45.47812" lon="5.65013">
        <ele>625.8</ele>
        <time>2015-05-17T11:01:41Z</time>
      </trkpt>
      <trkpt lat="45.47805" lon="5.65012">
        <ele>625.8</ele>
        <time>2015-05-17T11:01:43Z</time>
      </trkpt>
      <trkpt lat="45.47794" lon="5.65011">
        <ele>626.3</ele>
        <time>2015-05-17T11:01:46Z</time>
      </trkpt>
      <trkpt lat="45.47787" lon="5.65009">
        <ele>626.4</ele>
        <time>2015-05-17T11:01:48Z</time>
      </trkpt>
      <trkpt lat="45.47779" lon="5.65008">
        <ele>626.2</ele>
        <time>2015-05-17T11:01:51Z</time>
      </trkpt>
      <trkpt lat="45.47769" lon="5.65007">
        <ele>626.3</ele>
        <time>2015-05-17T11:01:54Z</time>
      </trkpt>
      <trkpt lat="45.4776" lon="5.65006">
        <ele>626.4</ele>
        <time>2015-05-17T11:01:56Z</time>
      </trkpt>
      <trkpt lat="45.47753" lon="5.65006">
        <ele>626.5</ele>
        <time>2015-05-17T11:01:58Z</time>
      </trkpt>
      <trkpt lat="45.47743" lon="5.65005">
        <ele>627.7</ele>
        <time>2015-05-17T11:02:01Z</time>
      </trkpt>
      <trkpt lat="45.47735" lon="5.65003">
        <ele>628.9</ele>
        <time>2015-05-17T11:02:03Z</time>
      </trkpt>
      <trkpt lat="45.47725" lon="5.65001">
        <ele>629.5</ele>
        <time>2015-05-17T11:02:05Z</time>
      </trkpt>
      <trkpt lat="45.47717" lon="5.65">
        <ele>630.2</ele>
        <time>2015-05-17T11:02:07Z</time>
      </trkpt>
      <trkpt lat="45.47709" lon="5.64998">
        <ele>631</ele>
        <time>2015-05-17T11:02:09Z</time>
      </trkpt>
      <trkpt lat="45.477" lon="5.64997">
        <ele>631.6</ele>
        <time>2015-05-17T11:02:11Z</time>
      </trkpt>
      <trkpt lat="45.47692" lon="5.64996">
        <ele>632.3</ele>
        <time>2015-05-17T11:02:13Z</time>
      </trkpt>
      <trkpt lat="45.47683" lon="5.64994">
        <ele>632.6</ele>
        <time>2015-05-17T11:02:15Z</time>
      </trkpt>
      <trkpt lat="45.47674" lon="5.64993">
        <ele>632.4</ele>
        <time>2015-05-17T11:02:17Z</time>
      </trkpt>
      <trkpt lat="45.47664" lon="5.64992">
        <ele>632</ele>
        <time>2015-05-17T11:02:19Z</time>
      </trkpt>
      <trkpt lat="45.47654" lon="5.64991">
        <ele>631.2</ele>
        <time>2015-05-17T11:02:22Z</time>
      </trkpt>
      <trkpt lat="45.47645" lon="5.64988">
        <ele>629.9</ele>
        <time>2015-05-17T11:02:24Z</time>
      </trkpt>
      <trkpt lat="45.47636" lon="5.64985">
        <ele>629.3</ele>
        <time>2015-05-17T11:02:26Z</time>
      </trkpt>
      <trkpt lat="45.47628" lon="5.64983">
        <ele>629.9</ele>
        <time>2015-05-17T11:02:28Z</time>
      </trkpt>
      <trkpt lat="45.47619" lon="5.6498">
        <ele>629.9</ele>
        <time>2015-05-17T11:02:30Z</time>
      </trkpt>
      <trkpt lat="45.4761" lon="5.64977">
        <ele>630.3</ele>
        <time>2015-05-17T11:02:32Z</time>
      </trkpt>
      <trkpt lat="45.47602" lon="5.64973">
        <ele>630.5</ele>
        <time>2015-05-17T11:02:34Z</time>
      </trkpt>
      <trkpt lat="45.47592" lon="5.64969">
        <ele>630.8</ele>
        <time>2015-05-17T11:02:36Z</time>
      </trkpt>
      <trkpt lat="45.47584" lon="5.64964">
        <ele>630.9</ele>
        <time>2015-05-17T11:02:38Z</time>
      </trkpt>
      <trkpt lat="45.47575" lon="5.64959">
        <ele>631.6</ele>
        <time>2015-05-17T11:02:40Z</time>
      </trkpt>
      <trkpt lat="45.47566" lon="5.64956">
        <ele>631.6</ele>
        <time>2015-05-17T11:02:42Z</time>
      </trkpt>
      <trkpt lat="45.47554" lon="5.64952">
        <ele>632.1</ele>
        <time>2015-05-17T11:02:44Z</time>
      </trkpt>
      <trkpt lat="45.47542" lon="5.64946">
        <ele>632</ele>
        <time>2015-05-17T11:02:46Z</time>
      </trkpt>
      <trkpt lat="45.47532" lon="5.6494">
        <ele>632</ele>
        <time>2015-05-17T11:02:48Z</time>
      </trkpt>
      <trkpt lat="45.47521" lon="5.64932">
        <ele>632</ele>
        <time>2015-05-17T11:02:50Z</time>
      </trkpt>
      <trkpt lat="45.4751" lon="5.64923">
        <ele>631.9</ele>
        <time>2015-05-17T11:02:52Z</time>
      </trkpt>
      <trkpt lat="45.47504" lon="5.64918">
        <ele>632</ele>
        <time>2015-05-17T11:02:53Z</time>
      </trkpt>
      <trkpt lat="45.47497" lon="5.64912">
        <ele>632.6</ele>
        <time>2015-05-17T11:02:54Z</time>
      </trkpt>
      <trkpt lat="45.4749" lon="5.64906">
        <ele>633.3</ele>
        <time>2015-05-17T11:02:55Z</time>
      </trkpt>
      <trkpt lat="45.47484" lon="5.64901">
        <ele>633.6</ele>
        <time>2015-05-17T11:02:56Z</time>
      </trkpt>
      <trkpt lat="45.47473" lon="5.64889">
        <ele>633.7</ele>
        <time>2015-05-17T11:02:58Z</time>
      </trkpt>
      <trkpt lat="45.47467" lon="5.64883">
        <ele>633.6</ele>
        <time>2015-05-17T11:02:59Z</time>
      </trkpt>
      <trkpt lat="45.47461" lon="5.64877">
        <ele>633.3</ele>
        <time>2015-05-17T11:03:00Z</time>
      </trkpt>
      <trkpt lat="45.47454" lon="5.64869">
        <ele>632.6</ele>
        <time>2015-05-17T11:03:01Z</time>
      </trkpt>
      <trkpt lat="45.47448" lon="5.64861">
        <ele>631</ele>
        <time>2015-05-17T11:03:02Z</time>
      </trkpt>
      <trkpt lat="45.47443" lon="5.64854">
        <ele>629.9</ele>
        <time>2015-05-17T11:03:03Z</time>
      </trkpt>
      <trkpt lat="45.47437" lon="5.64846">
        <ele>628.9</ele>
        <time>2015-05-17T11:03:04Z</time>
      </trkpt>
      <trkpt lat="45.47431" lon="5.64837">
        <ele>628</ele>
        <time>2015-05-17T11:03:05Z</time>
      </trkpt>
      <trkpt lat="45.47426" lon="5.64829">
        <ele>627.1</ele>
        <time>2015-05-17T11:03:06Z</time>
      </trkpt>
      <trkpt lat="45.4742" lon="5.64821">
        <ele>626.3</ele>
        <time>2015-05-17T11:03:07Z</time>
      </trkpt>
      <trkpt lat="45.47415" lon="5.64813">
        <ele>625.3</ele>
        <time>2015-05-17T11:03:08Z</time>
      </trkpt>
      <trkpt lat="45.47409" lon="5.64806">
        <ele>624.4</ele>
        <time>2015-05-17T11:03:09Z</time>
      </trkpt>
      <trkpt lat="45.47397" lon="5.64797">
        <ele>621.4</ele>
        <time>2015-05-17T11:03:11Z</time>
      </trkpt>
      <trkpt lat="45.47389" lon="5.64793">
        <ele>619.8</ele>
        <time>2015-05-17T11:03:12Z</time>
      </trkpt>
      <trkpt lat="45.47379" lon="5.64793">
        <ele>618</ele>
        <time>2015-05-17T11:03:13Z</time>
      </trkpt>
      <trkpt lat="45.47369" lon="5.64792">
        <ele>616.8</ele>
        <time>2015-05-17T11:03:14Z</time>
      </trkpt>
      <trkpt lat="45.47359" lon="5.64787">
        <ele>615.7</ele>
        <time>2015-05-17T11:03:15Z</time>
      </trkpt>
      <trkpt lat="45.47348" lon="5.64782">
        <ele>614.6</ele>
        <time>2015-05-17T11:03:16Z</time>
      </trkpt>
      <trkpt lat="45.47337" lon="5.64778">
        <ele>612.9</ele>
        <time>2015-05-17T11:03:17Z</time>
      </trkpt>
      <trkpt lat="45.47326" lon="5.64773">
        <ele>611.5</ele>
        <time>2015-05-17T11:03:18Z</time>
      </trkpt>
      <trkpt lat="45.47315" lon="5.6477">
        <ele>610.2</ele>
        <time>2015-05-17T11:03:19Z</time>
      </trkpt>
      <trkpt lat="45.47305" lon="5.64765">
        <ele>609.2</ele>
        <time>2015-05-17T11:03:20Z</time>
      </trkpt>
      <trkpt lat="45.47295" lon="5.64761">
        <ele>608.6</ele>
        <time>2015-05-17T11:03:21Z</time>
      </trkpt>
      <trkpt lat="45.47287" lon="5.64753">
        <ele>607.5</ele>
        <time>2015-05-17T11:03:22Z</time>
      </trkpt>
      <trkpt lat="45.47278" lon="5.64746">
        <ele>606</ele>
        <time>2015-05-17T11:03:23Z</time>
      </trkpt>
      <trkpt lat="45.4727" lon="5.64738">
        <ele>604.9</ele>
        <time>2015-05-17T11:03:24Z</time>
      </trkpt>
      <trkpt lat="45.47263" lon="5.64731">
        <ele>603.7</ele>
        <time>2015-05-17T11:03:25Z</time>
      </trkpt>
      <trkpt lat="45.47255" lon="5.64724">
        <ele>602.7</ele>
        <time>2015-05-17T11:03:26Z</time>
      </trkpt>
      <trkpt lat="45.47248" lon="5.64716">
        <ele>601.8</ele>
        <time>2015-05-17T11:03:27Z</time>
      </trkpt>
      <trkpt lat="45.4724" lon="5.64708">
        <ele>600.9</ele>
        <time>2015-05-17T11:03:28Z</time>
      </trkpt>
      <trkpt lat="45.47233" lon="5.64702">
        <ele>600</ele>
        <time>2015-05-17T11:03:29Z</time>
      </trkpt>
      <trkpt lat="45.47225" lon="5.64695">
        <ele>599</ele>
        <time>2015-05-17T11:03:30Z</time>
      </trkpt>
      <trkpt lat="45.47218" lon="5.64689">
        <ele>597.9</ele>
        <time>2015-05-17T11:03:31Z</time>
      </trkpt>
      <trkpt lat="45.47209" lon="5.64682">
        <ele>596.5</ele>
        <time>2015-05-17T11:03:32Z</time>
      </trkpt>
      <trkpt lat="45.47202" lon="5.64676">
        <ele>596</ele>
        <time>2015-05-17T11:03:33Z</time>
      </trkpt>
      <trkpt lat="45.47195" lon="5.64671">
        <ele>596</ele>
        <time>2015-05-17T11:03:34Z</time>
      </trkpt>
      <trkpt lat="45.47187" lon="5.64666">
        <ele>596</ele>
        <time>2015-05-17T11:03:35Z</time>
      </trkpt>
      <trkpt lat="45.4718" lon="5.64661">
        <ele>596.3</ele>
        <time>2015-05-17T11:03:36Z</time>
      </trkpt>
      <trkpt lat="45.47173" lon="5.64655">
        <ele>597.1</ele>
        <time>2015-05-17T11:03:37Z</time>
      </trkpt>
      <trkpt lat="45.47165" lon="5.64649">
        <ele>598.2</ele>
        <time>2015-05-17T11:03:38Z</time>
      </trkpt>
      <trkpt lat="45.47156" lon="5.64643">
        <ele>598.8</ele>
        <time>2015-05-17T11:03:39Z</time>
      </trkpt>
      <trkpt lat="45.47148" lon="5.64636">
        <ele>598.8</ele>
        <time>2015-05-17T11:03:40Z</time>
      </trkpt>
      <trkpt lat="45.47141" lon="5.64632">
        <ele>598.9</ele>
        <time>2015-05-17T11:03:41Z</time>
      </trkpt>
      <trkpt lat="45.47132" lon="5.64629">
        <ele>599</ele>
        <time>2015-05-17T11:03:42Z</time>
      </trkpt>
      <trkpt lat="45.47122" lon="5.64627">
        <ele>599.2</ele>
        <time>2015-05-17T11:03:43Z</time>
      </trkpt>
      <trkpt lat="45.47114" lon="5.64625">
        <ele>599</ele>
        <time>2015-05-17T11:03:44Z</time>
      </trkpt>
      <trkpt lat="45.47105" lon="5.64623">
        <ele>598.6</ele>
        <time>2015-05-17T11:03:45Z</time>
      </trkpt>
      <trkpt lat="45.47096" lon="5.64624">
        <ele>597.9</ele>
        <time>2015-05-17T11:03:46Z</time>
      </trkpt>
      <trkpt lat="45.4709" lon="5.64628">
        <ele>596.9</ele>
        <time>2015-05-17T11:03:47Z</time>
      </trkpt>
      <trkpt lat="45.47084" lon="5.64635">
        <ele>596</ele>
        <time>2015-05-17T11:03:48Z</time>
      </trkpt>
      <trkpt lat="45.47082" lon="5.64653">
        <ele>593.8</ele>
        <time>2015-05-17T11:03:50Z</time>
      </trkpt>
      <trkpt lat="45.47083" lon="5.64671">
        <ele>592.7</ele>
        <time>2015-05-17T11:03:52Z</time>
      </trkpt>
      <trkpt lat="45.47084" lon="5.64688">
        <ele>592.5</ele>
        <time>2015-05-17T11:03:54Z</time>
      </trkpt>
      <trkpt lat="45.47087" lon="5.64706">
        <ele>592</ele>
        <time>2015-05-17T11:03:56Z</time>
      </trkpt>
      <trkpt lat="45.4709" lon="5.64724">
        <ele>591.5</ele>
        <time>2015-05-17T11:03:58Z</time>
      </trkpt>
      <trkpt lat="45.47093" lon="5.64742">
        <ele>591.2</ele>
        <time>2015-05-17T11:04:00Z</time>
      </trkpt>
      <trkpt lat="45.47097" lon="5.64758">
        <ele>590.8</ele>
        <time>2015-05-17T11:04:02Z</time>
      </trkpt>
      <trkpt lat="45.47096" lon="5.64774">
        <ele>590.2</ele>
        <time>2015-05-17T11:04:04Z</time>
      </trkpt>
      <trkpt lat="45.47087" lon="5.64779">
        <ele>589.2</ele>
        <time>2015-05-17T11:04:06Z</time>
      </trkpt>
      <trkpt lat="45.47074" lon="5.64779">
        <ele>589.3</ele>
        <time>2015-05-17T11:04:08Z</time>
      </trkpt>
      <trkpt lat="45.47062" lon="5.64778">
        <ele>589</ele>
        <time>2015-05-17T11:04:10Z</time>
      </trkpt>
      <trkpt lat="45.47049" lon="5.64774">
        <ele>589.3</ele>
        <time>2015-05-17T11:04:12Z</time>
      </trkpt>
      <trkpt lat="45.47036" lon="5.64768">
        <ele>590.6</ele>
        <time>2015-05-17T11:04:14Z</time>
      </trkpt>
      <trkpt lat="45.47025" lon="5.64764">
        <ele>591.3</ele>
        <time>2015-05-17T11:04:16Z</time>
      </trkpt>
      <trkpt lat="45.47021" lon="5.64762">
        <ele>591</ele>
        <time>2015-05-17T11:04:23Z</time>
      </trkpt>
      <trkpt lat="45.47028" lon="5.64766">
        <ele>590.1</ele>
        <time>2015-05-17T11:04:27Z</time>
      </trkpt>
      <trkpt lat="45.47038" lon="5.64774">
        <ele>588.7</ele>
        <time>2015-05-17T11:04:29Z</time>
      </trkpt>
      <trkpt lat="45.47048" lon="5.64781">
        <ele>587.6</ele>
        <time>2015-05-17T11:04:31Z</time>
      </trkpt>
      <trkpt lat="45.47058" lon="5.64788">
        <ele>586.5</ele>
        <time>2015-05-17T11:04:33Z</time>
      </trkpt>
      <trkpt lat="45.47067" lon="5.64794">
        <ele>585.3</ele>
        <time>2015-05-17T11:04:35Z</time>
      </trkpt>
      <trkpt lat="45.47077" lon="5.64801">
        <ele>583.3</ele>
        <time>2015-05-17T11:04:37Z</time>
      </trkpt>
      <trkpt lat="45.47086" lon="5.64807">
        <ele>582.4</ele>
        <time>2015-05-17T11:04:39Z</time>
      </trkpt>
      <trkpt lat="45.47094" lon="5.64815">
        <ele>582.7</ele>
        <time>2015-05-17T11:04:41Z</time>
      </trkpt>
      <trkpt lat="45.47101" lon="5.64824">
        <ele>583.7</ele>
        <time>2015-05-17T11:04:43Z</time>
      </trkpt>
      <trkpt lat="45.47108" lon="5.64832">
        <ele>584.5</ele>
        <time>2015-05-17T11:04:45Z</time>
      </trkpt>
      <trkpt lat="45.47114" lon="5.64841">
        <ele>585.3</ele>
        <time>2015-05-17T11:04:47Z</time>
      </trkpt>
      <trkpt lat="45.4712" lon="5.64852">
        <ele>585.5</ele>
        <time>2015-05-17T11:04:49Z</time>
      </trkpt>
      <trkpt lat="45.47124" lon="5.64863">
        <ele>586.1</ele>
        <time>2015-05-17T11:04:51Z</time>
      </trkpt>
      <trkpt lat="45.47126" lon="5.64876">
        <ele>586.2</ele>
        <time>2015-05-17T11:04:53Z</time>
      </trkpt>
      <trkpt lat="45.47128" lon="5.64889">
        <ele>587.6</ele>
        <time>2015-05-17T11:04:55Z</time>
      </trkpt>
      <trkpt lat="45.47129" lon="5.64904">
        <ele>589.9</ele>
        <time>2015-05-17T11:04:57Z</time>
      </trkpt>
      <trkpt lat="45.47129" lon="5.64918">
        <ele>591.8</ele>
        <time>2015-05-17T11:04:59Z</time>
      </trkpt>
      <trkpt lat="45.47129" lon="5.64933">
        <ele>593.7</ele>
        <time>2015-05-17T11:05:01Z</time>
      </trkpt>
      <trkpt lat="45.47128" lon="5.64946">
        <ele>594.9</ele>
        <time>2015-05-17T11:05:03Z</time>
      </trkpt>
      <trkpt lat="45.47126" lon="5.64959">
        <ele>594.1</ele>
        <time>2015-05-17T11:05:05Z</time>
      </trkpt>
      <trkpt lat="45.47123" lon="5.64973">
        <ele>593.6</ele>
        <time>2015-05-17T11:05:07Z</time>
      </trkpt>
      <trkpt lat="45.4712" lon="5.64987">
        <ele>591.4</ele>
        <time>2015-05-17T11:05:09Z</time>
      </trkpt>
      <trkpt lat="45.47118" lon="5.65">
        <ele>590.6</ele>
        <time>2015-05-17T11:05:11Z</time>
      </trkpt>
      <trkpt lat="45.47117" lon="5.65013">
        <ele>590.4</ele>
        <time>2015-05-17T11:05:13Z</time>
      </trkpt>
      <trkpt lat="45.47115" lon="5.65028">
        <ele>591.6</ele>
        <time>2015-05-17T11:05:16Z</time>
      </trkpt>
      <trkpt lat="45.47115" lon="5.6504">
        <ele>592.6</ele>
        <time>2015-05-17T11:05:18Z</time>
      </trkpt>
      <trkpt lat="45.47115" lon="5.65051">
        <ele>593</ele>
        <time>2015-05-17T11:05:20Z</time>
      </trkpt>
      <trkpt lat="45.47117" lon="5.65062">
        <ele>593.8</ele>
        <time>2015-05-17T11:05:22Z</time>
      </trkpt>
      <trkpt lat="45.4712" lon="5.65072">
        <ele>593.3</ele>
        <time>2015-05-17T11:05:24Z</time>
      </trkpt>
      <trkpt lat="45.47122" lon="5.65084">
        <ele>592.7</ele>
        <time>2015-05-17T11:05:26Z</time>
      </trkpt>
      <trkpt lat="45.47126" lon="5.65097">
        <ele>592.7</ele>
        <time>2015-05-17T11:05:28Z</time>
      </trkpt>
      <trkpt lat="45.47131" lon="5.65109">
        <ele>592.5</ele>
        <time>2015-05-17T11:05:30Z</time>
      </trkpt>
      <trkpt lat="45.47135" lon="5.6512">
        <ele>592.9</ele>
        <time>2015-05-17T11:05:32Z</time>
      </trkpt>
      <trkpt lat="45.47138" lon="5.65131">
        <ele>593.1</ele>
        <time>2015-05-17T11:05:34Z</time>
      </trkpt>
      <trkpt lat="45.47143" lon="5.65142">
        <ele>593.1</ele>
        <time>2015-05-17T11:05:36Z</time>
      </trkpt>
      <trkpt lat="45.47147" lon="5.65153">
        <ele>592.5</ele>
        <time>2015-05-17T11:05:38Z</time>
      </trkpt>
      <trkpt lat="45.47152" lon="5.65164">
        <ele>592</ele>
        <time>2015-05-17T11:05:40Z</time>
      </trkpt>
      <trkpt lat="45.47157" lon="5.65175">
        <ele>591.7</ele>
        <time>2015-05-17T11:05:42Z</time>
      </trkpt>
      <trkpt lat="45.47163" lon="5.65184">
        <ele>591.8</ele>
        <time>2015-05-17T11:05:44Z</time>
      </trkpt>
      <trkpt lat="45.4717" lon="5.65191">
        <ele>591.9</ele>
        <time>2015-05-17T11:05:46Z</time>
      </trkpt>
      <trkpt lat="45.47179" lon="5.65197">
        <ele>592</ele>
        <time>2015-05-17T11:05:48Z</time>
      </trkpt>
      <trkpt lat="45.47189" lon="5.65202">
        <ele>591.7</ele>
        <time>2015-05-17T11:05:50Z</time>
      </trkpt>
      <trkpt lat="45.47198" lon="5.65205">
        <ele>591.1</ele>
        <time>2015-05-17T11:05:52Z</time>
      </trkpt>
      <trkpt lat="45.47208" lon="5.65206">
        <ele>590.6</ele>
        <time>2015-05-17T11:05:54Z</time>
      </trkpt>
      <trkpt lat="45.47218" lon="5.65207">
        <ele>590.3</ele>
        <time>2015-05-17T11:05:56Z</time>
      </trkpt>
      <trkpt lat="45.47227" lon="5.65208">
        <ele>590.1</ele>
        <time>2015-05-17T11:05:58Z</time>
      </trkpt>
      <trkpt lat="45.47237" lon="5.6521">
        <ele>589.9</ele>
        <time>2015-05-17T11:06:00Z</time>
      </trkpt>
      <trkpt lat="45.47246" lon="5.65211">
        <ele>590</ele>
        <time>2015-05-17T11:06:02Z</time>
      </trkpt>
      <trkpt lat="45.47255" lon="5.65214">
        <ele>590.4</ele>
        <time>2015-05-17T11:06:04Z</time>
      </trkpt>
      <trkpt lat="45.47265" lon="5.65217">
        <ele>590.9</ele>
        <time>2015-05-17T11:06:06Z</time>
      </trkpt>
      <trkpt lat="45.47274" lon="5.65222">
        <ele>590.9</ele>
        <time>2015-05-17T11:06:08Z</time>
      </trkpt>
      <trkpt lat="45.47283" lon="5.65229">
        <ele>590.8</ele>
        <time>2015-05-17T11:06:10Z</time>
      </trkpt>
      <trkpt lat="45.47291" lon="5.65237">
        <ele>590.6</ele>
        <time>2015-05-17T11:06:12Z</time>
      </trkpt>
      <trkpt lat="45.47299" lon="5.65245">
        <ele>590.9</ele>
        <time>2015-05-17T11:06:14Z</time>
      </trkpt>
      <trkpt lat="45.47307" lon="5.65255">
        <ele>591.3</ele>
        <time>2015-05-17T11:06:16Z</time>
      </trkpt>
      <trkpt lat="45.47315" lon="5.65264">
        <ele>591.7</ele>
        <time>2015-05-17T11:06:18Z</time>
      </trkpt>
      <trkpt lat="45.47323" lon="5.65275">
        <ele>592.1</ele>
        <time>2015-05-17T11:06:20Z</time>
      </trkpt>
      <trkpt lat="45.47332" lon="5.65285">
        <ele>592.7</ele>
        <time>2015-05-17T11:06:22Z</time>
      </trkpt>
      <trkpt lat="45.47341" lon="5.65294">
        <ele>593.9</ele>
        <time>2015-05-17T11:06:24Z</time>
      </trkpt>
      <trkpt lat="45.47351" lon="5.65302">
        <ele>594.7</ele>
        <time>2015-05-17T11:06:26Z</time>
      </trkpt>
      <trkpt lat="45.47361" lon="5.6531">
        <ele>595.4</ele>
        <time>2015-05-17T11:06:28Z</time>
      </trkpt>
      <trkpt lat="45.47371" lon="5.65316">
        <ele>595.7</ele>
        <time>2015-05-17T11:06:30Z</time>
      </trkpt>
      <trkpt lat="45.47379" lon="5.65318">
        <ele>595.8</ele>
        <time>2015-05-17T11:06:32Z</time>
      </trkpt>
      <trkpt lat="45.47381" lon="5.65329">
        <ele>595.7</ele>
        <time>2015-05-17T11:06:36Z</time>
      </trkpt>
      <trkpt lat="45.47376" lon="5.65341">
        <ele>595.6</ele>
        <time>2015-05-17T11:06:39Z</time>
      </trkpt>
      <trkpt lat="45.47371" lon="5.65351">
        <ele>595.8</ele>
        <time>2015-05-17T11:06:41Z</time>
      </trkpt>
      <trkpt lat="45.47366" lon="5.6536">
        <ele>595.9</ele>
        <time>2015-05-17T11:06:43Z</time>
      </trkpt>
      <trkpt lat="45.47362" lon="5.6537">
        <ele>595.9</ele>
        <time>2015-05-17T11:06:45Z</time>
      </trkpt>
      <trkpt lat="45.47357" lon="5.6538">
        <ele>595.9</ele>
        <time>2015-05-17T11:06:47Z</time>
      </trkpt>
      <trkpt lat="45.47351" lon="5.65391">
        <ele>595.9</ele>
        <time>2015-05-17T11:06:50Z</time>
      </trkpt>
      <trkpt lat="45.47343" lon="5.65396">
        <ele>595.9</ele>
        <time>2015-05-17T11:06:53Z</time>
      </trkpt>
      <trkpt lat="45.47333" lon="5.65401">
        <ele>595.8</ele>
        <time>2015-05-17T11:06:56Z</time>
      </trkpt>
      <trkpt lat="45.47325" lon="5.65406">
        <ele>596.1</ele>
        <time>2015-05-17T11:06:59Z</time>
      </trkpt>
      <trkpt lat="45.47319" lon="5.65413">
        <ele>596.4</ele>
        <time>2015-05-17T11:07:02Z</time>
      </trkpt>
      <trkpt lat="45.47312" lon="5.65419">
        <ele>597</ele>
        <time>2015-05-17T11:07:06Z</time>
      </trkpt>
      <trkpt lat="45.47303" lon="5.65427">
        <ele>597.4</ele>
        <time>2015-05-17T11:07:10Z</time>
      </trkpt>
      <trkpt lat="45.47298" lon="5.65436">
        <ele>597.7</ele>
        <time>2015-05-17T11:07:13Z</time>
      </trkpt>
      <trkpt lat="45.47296" lon="5.65441">
        <ele>598.4</ele>
        <time>2015-05-17T11:07:20Z</time>
      </trkpt>
      <trkpt lat="45.47296" lon="5.65442">
        <ele>602.4</ele>
        <time>2015-05-17T11:10:47Z</time>
      </trkpt>
      <trkpt lat="45.47295" lon="5.65445">
        <ele>602.5</ele>
        <time>2015-05-17T11:10:17Z</time>
      </trkpt>
      <trkpt lat="45.47285" lon="5.65432">
        <ele>601.3</ele>
        <time>2015-05-17T11:12:35Z</time>
      </trkpt>
      <trkpt lat="45.47276" lon="5.65432">
        <ele>601.4</ele>
        <time>2015-05-17T11:12:40Z</time>
      </trkpt>
      <trkpt lat="45.47269" lon="5.65436">
        <ele>601.5</ele>
        <time>2015-05-17T11:12:43Z</time>
      </trkpt>
      <trkpt lat="45.47261" lon="5.65442">
        <ele>601.6</ele>
        <time>2015-05-17T11:12:46Z</time>
      </trkpt>
      <trkpt lat="45.47254" lon="5.65448">
        <ele>601.7</ele>
        <time>2015-05-17T11:12:49Z</time>
      </trkpt>
      <trkpt lat="45.47245" lon="5.65455">
        <ele>601.9</ele>
        <time>2015-05-17T11:12:52Z</time>
      </trkpt>
      <trkpt lat="45.47238" lon="5.65464">
        <ele>602</ele>
        <time>2015-05-17T11:12:55Z</time>
      </trkpt>
      <trkpt lat="45.47233" lon="5.65474">
        <ele>602.1</ele>
        <time>2015-05-17T11:12:58Z</time>
      </trkpt>
      <trkpt lat="45.4723" lon="5.65486">
        <ele>602.4</ele>
        <time>2015-05-17T11:13:02Z</time>
      </trkpt>
      <trkpt lat="45.47231" lon="5.65498">
        <ele>602.6</ele>
        <time>2015-05-17T11:13:05Z</time>
      </trkpt>
      <trkpt lat="45.47232" lon="5.6551">
        <ele>602.9</ele>
        <time>2015-05-17T11:13:08Z</time>
      </trkpt>
      <trkpt lat="45.47232" lon="5.65524">
        <ele>603.2</ele>
        <time>2015-05-17T11:13:11Z</time>
      </trkpt>
      <trkpt lat="45.4723" lon="5.65534">
        <ele>603.5</ele>
        <time>2015-05-17T11:13:14Z</time>
      </trkpt>
      <trkpt lat="45.47225" lon="5.65545">
        <ele>603.7</ele>
        <time>2015-05-17T11:13:17Z</time>
      </trkpt>
      <trkpt lat="45.47219" lon="5.65554">
        <ele>605.3</ele>
        <time>2015-05-17T11:13:19Z</time>
      </trkpt>
      <trkpt lat="45.47212" lon="5.65561">
        <ele>606.4</ele>
        <time>2015-05-17T11:13:21Z</time>
      </trkpt>
      <trkpt lat="45.47203" lon="5.65569">
        <ele>607.5</ele>
        <time>2015-05-17T11:13:24Z</time>
      </trkpt>
      <trkpt lat="45.47195" lon="5.65572">
        <ele>607.8</ele>
        <time>2015-05-17T11:13:26Z</time>
      </trkpt>
      <trkpt lat="45.47187" lon="5.65574">
        <ele>608.4</ele>
        <time>2015-05-17T11:13:28Z</time>
      </trkpt>
      <trkpt lat="45.47178" lon="5.65574">
        <ele>608.5</ele>
        <time>2015-05-17T11:13:30Z</time>
      </trkpt>
      <trkpt lat="45.47167" lon="5.65574">
        <ele>608.3</ele>
        <time>2015-05-17T11:13:32Z</time>
      </trkpt>
      <trkpt lat="45.47158" lon="5.65572">
        <ele>608.2</ele>
        <time>2015-05-17T11:13:34Z</time>
      </trkpt>
      <trkpt lat="45.4715" lon="5.6557">
        <ele>607.7</ele>
        <time>2015-05-17T11:13:36Z</time>
      </trkpt>
      <trkpt lat="45.4714" lon="5.65568">
        <ele>607.8</ele>
        <time>2015-05-17T11:13:39Z</time>
      </trkpt>
      <trkpt lat="45.47132" lon="5.65566">
        <ele>608</ele>
        <time>2015-05-17T11:13:42Z</time>
      </trkpt>
      <trkpt lat="45.47124" lon="5.65565">
        <ele>608.2</ele>
        <time>2015-05-17T11:13:45Z</time>
      </trkpt>
      <trkpt lat="45.47117" lon="5.65563">
        <ele>608.3</ele>
        <time>2015-05-17T11:13:48Z</time>
      </trkpt>
      <trkpt lat="45.47109" lon="5.65562">
        <ele>608.6</ele>
        <time>2015-05-17T11:13:51Z</time>
      </trkpt>
      <trkpt lat="45.47101" lon="5.65561">
        <ele>608.8</ele>
        <time>2015-05-17T11:13:54Z</time>
      </trkpt>
      <trkpt lat="45.47094" lon="5.65559">
        <ele>609.1</ele>
        <time>2015-05-17T11:13:58Z</time>
      </trkpt>
      <trkpt lat="45.47086" lon="5.65559">
        <ele>609.3</ele>
        <time>2015-05-17T11:14:01Z</time>
      </trkpt>
      <trkpt lat="45.47077" lon="5.65557">
        <ele>609.4</ele>
        <time>2015-05-17T11:14:05Z</time>
      </trkpt>
      <trkpt lat="45.47067" lon="5.65559">
        <ele>609.8</ele>
        <time>2015-05-17T11:14:09Z</time>
      </trkpt>
      <trkpt lat="45.47062" lon="5.65569">
        <ele>609.9</ele>
        <time>2015-05-17T11:14:11Z</time>
      </trkpt>
      <trkpt lat="45.47058" lon="5.65582">
        <ele>610.1</ele>
        <time>2015-05-17T11:14:14Z</time>
      </trkpt>
      <trkpt lat="45.47056" lon="5.65596">
        <ele>610.2</ele>
        <time>2015-05-17T11:14:17Z</time>
      </trkpt>
      <trkpt lat="45.47054" lon="5.65607">
        <ele>611.1</ele>
        <time>2015-05-17T11:14:20Z</time>
      </trkpt>
      <trkpt lat="45.47052" lon="5.65619">
        <ele>611.8</ele>
        <time>2015-05-17T11:14:22Z</time>
      </trkpt>
      <trkpt lat="45.47049" lon="5.65631">
        <ele>611.8</ele>
        <time>2015-05-17T11:14:24Z</time>
      </trkpt>
      <trkpt lat="45.47046" lon="5.65645">
        <ele>611.4</ele>
        <time>2015-05-17T11:14:26Z</time>
      </trkpt>
      <trkpt lat="45.47045" lon="5.65658">
        <ele>611.3</ele>
        <time>2015-05-17T11:14:28Z</time>
      </trkpt>
      <trkpt lat="45.47042" lon="5.6567">
        <ele>611.4</ele>
        <time>2015-05-17T11:14:30Z</time>
      </trkpt>
      <trkpt lat="45.47039" lon="5.6568">
        <ele>611.4</ele>
        <time>2015-05-17T11:14:34Z</time>
      </trkpt>
      <trkpt lat="45.47036" lon="5.65692">
        <ele>611.5</ele>
        <time>2015-05-17T11:14:38Z</time>
      </trkpt>
      <trkpt lat="45.47033" lon="5.65704">
        <ele>611.7</ele>
        <time>2015-05-17T11:14:43Z</time>
      </trkpt>
      <trkpt lat="45.47031" lon="5.65714">
        <ele>612.5</ele>
        <time>2015-05-17T11:14:50Z</time>
      </trkpt>
      <trkpt lat="45.47028" lon="5.65724">
        <ele>613.5</ele>
        <time>2015-05-17T11:14:56Z</time>
      </trkpt>
      <trkpt lat="45.47027" lon="5.65728">
        <ele>614.6</ele>
        <time>2015-05-17T11:15:03Z</time>
      </trkpt>
      <trkpt lat="45.47025" lon="5.65731">
        <ele>615.4</ele>
        <time>2015-05-17T11:15:10Z</time>
      </trkpt>
      <trkpt lat="45.47025" lon="5.65736">
        <ele>616</ele>
        <time>2015-05-17T11:15:17Z</time>
      </trkpt>
      <trkpt lat="45.47032" lon="5.65741">
        <ele>617.6</ele>
        <time>2015-05-17T11:15:31Z</time>
      </trkpt>
      <trkpt lat="45.47037" lon="5.65745">
        <ele>619.2</ele>
        <time>2015-05-17T11:15:45Z</time>
      </trkpt>
      <trkpt lat="45.47041" lon="5.65748">
        <ele>620.4</ele>
        <time>2015-05-17T11:15:52Z</time>
      </trkpt>
      <trkpt lat="45.47042" lon="5.65757">
        <ele>622</ele>
        <time>2015-05-17T11:15:59Z</time>
      </trkpt>
      <trkpt lat="45.47042" lon="5.65766">
        <ele>623</ele>
        <time>2015-05-17T11:16:06Z</time>
      </trkpt>
      <trkpt lat="45.47043" lon="5.65772">
        <ele>623.5</ele>
        <time>2015-05-17T11:16:13Z</time>
      </trkpt>
      <trkpt lat="45.47045" lon="5.65783">
        <ele>625.2</ele>
        <time>2015-05-17T11:16:23Z</time>
      </trkpt>
      <trkpt lat="45.47045" lon="5.65794">
        <ele>626.6</ele>
        <time>2015-05-17T11:16:28Z</time>
      </trkpt>
      <trkpt lat="45.47046" lon="5.65804">
        <ele>627.8</ele>
        <time>2015-05-17T11:16:32Z</time>
      </trkpt>
      <trkpt lat="45.47049" lon="5.65814">
        <ele>628.5</ele>
        <time>2015-05-17T11:16:35Z</time>
      </trkpt>
      <trkpt lat="45.47055" lon="5.65825">
        <ele>629.4</ele>
        <time>2015-05-17T11:16:39Z</time>
      </trkpt>
      <trkpt lat="45.47061" lon="5.65834">
        <ele>630.3</ele>
        <time>2015-05-17T11:16:43Z</time>
      </trkpt>
      <trkpt lat="45.47066" lon="5.65844">
        <ele>631.3</ele>
        <time>2015-05-17T11:16:47Z</time>
      </trkpt>
      <trkpt lat="45.4707" lon="5.65854">
        <ele>631.8</ele>
        <time>2015-05-17T11:16:50Z</time>
      </trkpt>
      <trkpt lat="45.47073" lon="5.65867">
        <ele>632.5</ele>
        <time>2015-05-17T11:16:54Z</time>
      </trkpt>
      <trkpt lat="45.47077" lon="5.65876">
        <ele>633</ele>
        <time>2015-05-17T11:16:57Z</time>
      </trkpt>
      <trkpt lat="45.47081" lon="5.65888">
        <ele>633.5</ele>
        <time>2015-05-17T11:17:01Z</time>
      </trkpt>
      <trkpt lat="45.47086" lon="5.65899">
        <ele>634</ele>
        <time>2015-05-17T11:17:05Z</time>
      </trkpt>
      <trkpt lat="45.4709" lon="5.65909">
        <ele>634.4</ele>
        <time>2015-05-17T11:17:08Z</time>
      </trkpt>
      <trkpt lat="45.47095" lon="5.6592">
        <ele>634.9</ele>
        <time>2015-05-17T11:17:12Z</time>
      </trkpt>
      <trkpt lat="45.471" lon="5.65931">
        <ele>635.5</ele>
        <time>2015-05-17T11:17:16Z</time>
      </trkpt>
      <trkpt lat="45.47104" lon="5.65939">
        <ele>635.9</ele>
        <time>2015-05-17T11:17:19Z</time>
      </trkpt>
      <trkpt lat="45.47109" lon="5.65949">
        <ele>636.2</ele>
        <time>2015-05-17T11:17:22Z</time>
      </trkpt>
      <trkpt lat="45.47114" lon="5.65959">
        <ele>636.5</ele>
        <time>2015-05-17T11:17:25Z</time>
      </trkpt>
      <trkpt lat="45.47121" lon="5.65969">
        <ele>637</ele>
        <time>2015-05-17T11:17:29Z</time>
      </trkpt>
      <trkpt lat="45.47126" lon="5.65976">
        <ele>637.1</ele>
        <time>2015-05-17T11:17:31Z</time>
      </trkpt>
      <trkpt lat="45.47134" lon="5.65984">
        <ele>637.2</ele>
        <time>2015-05-17T11:17:34Z</time>
      </trkpt>
      <trkpt lat="45.47141" lon="5.65991">
        <ele>637.5</ele>
        <time>2015-05-17T11:17:37Z</time>
      </trkpt>
      <trkpt lat="45.47149" lon="5.65997">
        <ele>637.8</ele>
        <time>2015-05-17T11:17:40Z</time>
      </trkpt>
      <trkpt lat="45.4716" lon="5.65999">
        <ele>638.1</ele>
        <time>2015-05-17T11:17:43Z</time>
      </trkpt>
      <trkpt lat="45.47168" lon="5.65999">
        <ele>639.5</ele>
        <time>2015-05-17T11:17:45Z</time>
      </trkpt>
      <trkpt lat="45.47176" lon="5.66001">
        <ele>641.1</ele>
        <time>2015-05-17T11:17:47Z</time>
      </trkpt>
      <trkpt lat="45.47184" lon="5.66003">
        <ele>641.3</ele>
        <time>2015-05-17T11:17:49Z</time>
      </trkpt>
      <trkpt lat="45.47192" lon="5.66007">
        <ele>640.9</ele>
        <time>2015-05-17T11:17:51Z</time>
      </trkpt>
      <trkpt lat="45.472" lon="5.66012">
        <ele>640.8</ele>
        <time>2015-05-17T11:17:53Z</time>
      </trkpt>
      <trkpt lat="45.47206" lon="5.66018">
        <ele>641.6</ele>
        <time>2015-05-17T11:17:55Z</time>
      </trkpt>
      <trkpt lat="45.47214" lon="5.66029">
        <ele>641.5</ele>
        <time>2015-05-17T11:17:58Z</time>
      </trkpt>
      <trkpt lat="45.4722" lon="5.66036">
        <ele>641.6</ele>
        <time>2015-05-17T11:18:00Z</time>
      </trkpt>
      <trkpt lat="45.4723" lon="5.66035">
        <ele>641.4</ele>
        <time>2015-05-17T11:18:03Z</time>
      </trkpt>
      <trkpt lat="45.47235" lon="5.66023">
        <ele>641.3</ele>
        <time>2015-05-17T11:18:06Z</time>
      </trkpt>
      <trkpt lat="45.47239" lon="5.66013">
        <ele>642</ele>
        <time>2015-05-17T11:18:08Z</time>
      </trkpt>
      <trkpt lat="45.47245" lon="5.66">
        <ele>642.7</ele>
        <time>2015-05-17T11:18:10Z</time>
      </trkpt>
      <trkpt lat="45.47251" lon="5.65988">
        <ele>642.4</ele>
        <time>2015-05-17T11:18:12Z</time>
      </trkpt>
      <trkpt lat="45.47258" lon="5.65975">
        <ele>642.6</ele>
        <time>2015-05-17T11:18:14Z</time>
      </trkpt>
      <trkpt lat="45.47269" lon="5.65966">
        <ele>642.4</ele>
        <time>2015-05-17T11:18:16Z</time>
      </trkpt>
      <trkpt lat="45.47281" lon="5.65964">
        <ele>640</ele>
        <time>2015-05-17T11:18:18Z</time>
      </trkpt>
      <trkpt lat="45.47292" lon="5.65964">
        <ele>637.2</ele>
        <time>2015-05-17T11:18:20Z</time>
      </trkpt>
      <trkpt lat="45.47303" lon="5.65966">
        <ele>635.2</ele>
        <time>2015-05-17T11:18:22Z</time>
      </trkpt>
      <trkpt lat="45.47312" lon="5.65966">
        <ele>633.8</ele>
        <time>2015-05-17T11:18:24Z</time>
      </trkpt>
      <trkpt lat="45.47322" lon="5.65969">
        <ele>633</ele>
        <time>2015-05-17T11:18:26Z</time>
      </trkpt>
      <trkpt lat="45.47332" lon="5.65972">
        <ele>632.4</ele>
        <time>2015-05-17T11:18:28Z</time>
      </trkpt>
      <trkpt lat="45.47342" lon="5.65975">
        <ele>632.1</ele>
        <time>2015-05-17T11:18:30Z</time>
      </trkpt>
      <trkpt lat="45.4735" lon="5.65977">
        <ele>631.2</ele>
        <time>2015-05-17T11:18:32Z</time>
      </trkpt>
      <trkpt lat="45.4736" lon="5.6598">
        <ele>631.3</ele>
        <time>2015-05-17T11:18:34Z</time>
      </trkpt>
      <trkpt lat="45.47371" lon="5.65985">
        <ele>630.9</ele>
        <time>2015-05-17T11:18:36Z</time>
      </trkpt>
      <trkpt lat="45.47379" lon="5.65991">
        <ele>630.5</ele>
        <time>2015-05-17T11:18:38Z</time>
      </trkpt>
      <trkpt lat="45.4739" lon="5.65996">
        <ele>630.7</ele>
        <time>2015-05-17T11:18:40Z</time>
      </trkpt>
      <trkpt lat="45.47401" lon="5.66003">
        <ele>630.6</ele>
        <time>2015-05-17T11:18:42Z</time>
      </trkpt>
      <trkpt lat="45.4741" lon="5.66008">
        <ele>630.9</ele>
        <time>2015-05-17T11:18:44Z</time>
      </trkpt>
      <trkpt lat="45.4742" lon="5.66012">
        <ele>630.8</ele>
        <time>2015-05-17T11:18:46Z</time>
      </trkpt>
      <trkpt lat="45.47429" lon="5.66014">
        <ele>630.8</ele>
        <time>2015-05-17T11:18:48Z</time>
      </trkpt>
      <trkpt lat="45.47437" lon="5.66016">
        <ele>630.9</ele>
        <time>2015-05-17T11:18:50Z</time>
      </trkpt>
      <trkpt lat="45.47445" lon="5.66014">
        <ele>630.7</ele>
        <time>2015-05-17T11:18:52Z</time>
      </trkpt>
      <trkpt lat="45.47452" lon="5.66012">
        <ele>630.3</ele>
        <time>2015-05-17T11:18:54Z</time>
      </trkpt>
      <trkpt lat="45.4746" lon="5.66012">
        <ele>630.3</ele>
        <time>2015-05-17T11:18:56Z</time>
      </trkpt>
      <trkpt lat="45.47471" lon="5.66015">
        <ele>631.3</ele>
        <time>2015-05-17T11:18:59Z</time>
      </trkpt>
      <trkpt lat="45.47478" lon="5.66017">
        <ele>632</ele>
        <time>2015-05-17T11:19:01Z</time>
      </trkpt>
      <trkpt lat="45.47487" lon="5.6602">
        <ele>632.8</ele>
        <time>2015-05-17T11:19:03Z</time>
      </trkpt>
      <trkpt lat="45.47496" lon="5.66024">
        <ele>632.7</ele>
        <time>2015-05-17T11:19:05Z</time>
      </trkpt>
      <trkpt lat="45.47503" lon="5.66028">
        <ele>632.4</ele>
        <time>2015-05-17T11:19:07Z</time>
      </trkpt>
      <trkpt lat="45.47512" lon="5.66031">
        <ele>632.3</ele>
        <time>2015-05-17T11:19:09Z</time>
      </trkpt>
      <trkpt lat="45.47521" lon="5.66034">
        <ele>632</ele>
        <time>2015-05-17T11:19:11Z</time>
      </trkpt>
      <trkpt lat="45.47531" lon="5.66039">
        <ele>632.3</ele>
        <time>2015-05-17T11:19:13Z</time>
      </trkpt>
      <trkpt lat="45.47542" lon="5.66042">
        <ele>632.5</ele>
        <time>2015-05-17T11:19:15Z</time>
      </trkpt>
      <trkpt lat="45.47551" lon="5.66047">
        <ele>632.6</ele>
        <time>2015-05-17T11:19:17Z</time>
      </trkpt>
      <trkpt lat="45.47561" lon="5.66045">
        <ele>632.5</ele>
        <time>2015-05-17T11:19:19Z</time>
      </trkpt>
      <trkpt lat="45.4757" lon="5.66045">
        <ele>632.4</ele>
        <time>2015-05-17T11:19:21Z</time>
      </trkpt>
      <trkpt lat="45.47578" lon="5.66048">
        <ele>631.6</ele>
        <time>2015-05-17T11:19:23Z</time>
      </trkpt>
      <trkpt lat="45.47588" lon="5.6605">
        <ele>631</ele>
        <time>2015-05-17T11:19:25Z</time>
      </trkpt>
      <trkpt lat="45.47597" lon="5.66051">
        <ele>630.8</ele>
        <time>2015-05-17T11:19:27Z</time>
      </trkpt>
      <trkpt lat="45.47605" lon="5.6605">
        <ele>630.7</ele>
        <time>2015-05-17T11:19:30Z</time>
      </trkpt>
      <trkpt lat="45.47615" lon="5.66049">
        <ele>630.7</ele>
        <time>2015-05-17T11:19:34Z</time>
      </trkpt>
      <trkpt lat="45.47624" lon="5.66047">
        <ele>630.7</ele>
        <time>2015-05-17T11:19:37Z</time>
      </trkpt>
      <trkpt lat="45.47632" lon="5.66043">
        <ele>630.5</ele>
        <time>2015-05-17T11:19:40Z</time>
      </trkpt>
      <trkpt lat="45.4764" lon="5.66039">
        <ele>630.5</ele>
        <time>2015-05-17T11:19:42Z</time>
      </trkpt>
      <trkpt lat="45.47647" lon="5.66036">
        <ele>630.6</ele>
        <time>2015-05-17T11:19:44Z</time>
      </trkpt>
      <trkpt lat="45.47656" lon="5.66032">
        <ele>630.3</ele>
        <time>2015-05-17T11:19:46Z</time>
      </trkpt>
      <trkpt lat="45.47665" lon="5.66029">
        <ele>629.6</ele>
        <time>2015-05-17T11:19:48Z</time>
      </trkpt>
      <trkpt lat="45.47675" lon="5.66029">
        <ele>629.2</ele>
        <time>2015-05-17T11:19:50Z</time>
      </trkpt>
      <trkpt lat="45.47685" lon="5.66029">
        <ele>629.1</ele>
        <time>2015-05-17T11:19:52Z</time>
      </trkpt>
      <trkpt lat="45.47694" lon="5.66032">
        <ele>628.1</ele>
        <time>2015-05-17T11:19:54Z</time>
      </trkpt>
      <trkpt lat="45.47703" lon="5.66036">
        <ele>626.7</ele>
        <time>2015-05-17T11:19:56Z</time>
      </trkpt>
      <trkpt lat="45.47713" lon="5.6604">
        <ele>625.3</ele>
        <time>2015-05-17T11:19:58Z</time>
      </trkpt>
      <trkpt lat="45.47723" lon="5.66044">
        <ele>625.1</ele>
        <time>2015-05-17T11:20:00Z</time>
      </trkpt>
      <trkpt lat="45.47733" lon="5.66046">
        <ele>624.9</ele>
        <time>2015-05-17T11:20:02Z</time>
      </trkpt>
      <trkpt lat="45.47743" lon="5.66051">
        <ele>624.9</ele>
        <time>2015-05-17T11:20:04Z</time>
      </trkpt>
      <trkpt lat="45.47752" lon="5.66058">
        <ele>625.4</ele>
        <time>2015-05-17T11:20:06Z</time>
      </trkpt>
      <trkpt lat="45.47762" lon="5.66065">
        <ele>625.5</ele>
        <time>2015-05-17T11:20:08Z</time>
      </trkpt>
      <trkpt lat="45.47772" lon="5.66073">
        <ele>625.8</ele>
        <time>2015-05-17T11:20:10Z</time>
      </trkpt>
      <trkpt lat="45.47782" lon="5.66078">
        <ele>626.4</ele>
        <time>2015-05-17T11:20:12Z</time>
      </trkpt>
      <trkpt lat="45.47791" lon="5.66081">
        <ele>626.1</ele>
        <time>2015-05-17T11:20:14Z</time>
      </trkpt>
      <trkpt lat="45.47799" lon="5.66085">
        <ele>625.3</ele>
        <time>2015-05-17T11:20:16Z</time>
      </trkpt>
      <trkpt lat="45.47809" lon="5.66089">
        <ele>624.4</ele>
        <time>2015-05-17T11:20:18Z</time>
      </trkpt>
      <trkpt lat="45.47818" lon="5.66092">
        <ele>623.8</ele>
        <time>2015-05-17T11:20:20Z</time>
      </trkpt>
      <trkpt lat="45.47828" lon="5.66096">
        <ele>623.5</ele>
        <time>2015-05-17T11:20:22Z</time>
      </trkpt>
      <trkpt lat="45.47838" lon="5.66099">
        <ele>623.2</ele>
        <time>2015-05-17T11:20:24Z</time>
      </trkpt>
      <trkpt lat="45.47847" lon="5.661">
        <ele>623.5</ele>
        <time>2015-05-17T11:20:26Z</time>
      </trkpt>
      <trkpt lat="45.47855" lon="5.66099">
        <ele>623.6</ele>
        <time>2015-05-17T11:20:28Z</time>
      </trkpt>
      <trkpt lat="45.47862" lon="5.66095">
        <ele>623.5</ele>
        <time>2015-05-17T11:20:30Z</time>
      </trkpt>
      <trkpt lat="45.4787" lon="5.66089">
        <ele>622.9</ele>
        <time>2015-05-17T11:20:32Z</time>
      </trkpt>
      <trkpt lat="45.47878" lon="5.66084">
        <ele>622.6</ele>
        <time>2015-05-17T11:20:34Z</time>
      </trkpt>
      <trkpt lat="45.47887" lon="5.66078">
        <ele>622.6</ele>
        <time>2015-05-17T11:20:36Z</time>
      </trkpt>
      <trkpt lat="45.47898" lon="5.66072">
        <ele>622.1</ele>
        <time>2015-05-17T11:20:38Z</time>
      </trkpt>
      <trkpt lat="45.47908" lon="5.66067">
        <ele>621.6</ele>
        <time>2015-05-17T11:20:40Z</time>
      </trkpt>
      <trkpt lat="45.4792" lon="5.66062">
        <ele>621.1</ele>
        <time>2015-05-17T11:20:42Z</time>
      </trkpt>
      <trkpt lat="45.4793" lon="5.66064">
        <ele>620.9</ele>
        <time>2015-05-17T11:20:44Z</time>
      </trkpt>
      <trkpt lat="45.47941" lon="5.66066">
        <ele>621</ele>
        <time>2015-05-17T11:20:46Z</time>
      </trkpt>
      <trkpt lat="45.47953" lon="5.6607">
        <ele>620.7</ele>
        <time>2015-05-17T11:20:48Z</time>
      </trkpt>
      <trkpt lat="45.47964" lon="5.66074">
        <ele>620.5</ele>
        <time>2015-05-17T11:20:50Z</time>
      </trkpt>
      <trkpt lat="45.47975" lon="5.66077">
        <ele>621.2</ele>
        <time>2015-05-17T11:20:52Z</time>
      </trkpt>
      <trkpt lat="45.47986" lon="5.66081">
        <ele>621.1</ele>
        <time>2015-05-17T11:20:54Z</time>
      </trkpt>
      <trkpt lat="45.47998" lon="5.66084">
        <ele>620.9</ele>
        <time>2015-05-17T11:20:56Z</time>
      </trkpt>
      <trkpt lat="45.48006" lon="5.66092">
        <ele>620.4</ele>
        <time>2015-05-17T11:20:58Z</time>
      </trkpt>
      <trkpt lat="45.48011" lon="5.66104">
        <ele>620.4</ele>
        <time>2015-05-17T11:21:00Z</time>
      </trkpt>
      <trkpt lat="45.4801" lon="5.66117">
        <ele>620.1</ele>
        <time>2015-05-17T11:21:02Z</time>
      </trkpt>
      <trkpt lat="45.48006" lon="5.6613">
        <ele>619.8</ele>
        <time>2015-05-17T11:21:04Z</time>
      </trkpt>
      <trkpt lat="45.48001" lon="5.6614">
        <ele>619.4</ele>
        <time>2015-05-17T11:21:06Z</time>
      </trkpt>
      <trkpt lat="45.47998" lon="5.66151">
        <ele>619.4</ele>
        <time>2015-05-17T11:21:08Z</time>
      </trkpt>
      <trkpt lat="45.47995" lon="5.66164">
        <ele>619.7</ele>
        <time>2015-05-17T11:21:11Z</time>
      </trkpt>
      <trkpt lat="45.47991" lon="5.66177">
        <ele>619.9</ele>
        <time>2015-05-17T11:21:14Z</time>
      </trkpt>
      <trkpt lat="45.47984" lon="5.66188">
        <ele>621</ele>
        <time>2015-05-17T11:21:17Z</time>
      </trkpt>
      <trkpt lat="45.47977" lon="5.66199">
        <ele>622.9</ele>
        <time>2015-05-17T11:21:20Z</time>
      </trkpt>
      <trkpt lat="45.47971" lon="5.66211">
        <ele>623.1</ele>
        <time>2015-05-17T11:21:23Z</time>
      </trkpt>
      <trkpt lat="45.47966" lon="5.66219">
        <ele>623.3</ele>
        <time>2015-05-17T11:21:25Z</time>
      </trkpt>
      <trkpt lat="45.4796" lon="5.66227">
        <ele>623.5</ele>
        <time>2015-05-17T11:21:27Z</time>
      </trkpt>
      <trkpt lat="45.47952" lon="5.66236">
        <ele>623.7</ele>
        <time>2015-05-17T11:21:30Z</time>
      </trkpt>
      <trkpt lat="45.47943" lon="5.66243">
        <ele>623.9</ele>
        <time>2015-05-17T11:21:33Z</time>
      </trkpt>
      <trkpt lat="45.47935" lon="5.66248">
        <ele>624.1</ele>
        <time>2015-05-17T11:21:36Z</time>
      </trkpt>
      <trkpt lat="45.47926" lon="5.66255">
        <ele>624.5</ele>
        <time>2015-05-17T11:21:39Z</time>
      </trkpt>
      <trkpt lat="45.4792" lon="5.6626">
        <ele>624.6</ele>
        <time>2015-05-17T11:21:41Z</time>
      </trkpt>
      <trkpt lat="45.47912" lon="5.66267">
        <ele>624.8</ele>
        <time>2015-05-17T11:21:44Z</time>
      </trkpt>
      <trkpt lat="45.47902" lon="5.66274">
        <ele>625.1</ele>
        <time>2015-05-17T11:21:47Z</time>
      </trkpt>
      <trkpt lat="45.47894" lon="5.66282">
        <ele>625.3</ele>
        <time>2015-05-17T11:21:50Z</time>
      </trkpt>
      <trkpt lat="45.47887" lon="5.6629">
        <ele>625.5</ele>
        <time>2015-05-17T11:21:53Z</time>
      </trkpt>
      <trkpt lat="45.47879" lon="5.66299">
        <ele>625.8</ele>
        <time>2015-05-17T11:21:56Z</time>
      </trkpt>
      <trkpt lat="45.47874" lon="5.66308">
        <ele>626.2</ele>
        <time>2015-05-17T11:21:59Z</time>
      </trkpt>
      <trkpt lat="45.47868" lon="5.66314">
        <ele>626.6</ele>
        <time>2015-05-17T11:22:02Z</time>
      </trkpt>
      <trkpt lat="45.47861" lon="5.66321">
        <ele>626.9</ele>
        <time>2015-05-17T11:22:05Z</time>
      </trkpt>
      <trkpt lat="45.47853" lon="5.66327">
        <ele>627.5</ele>
        <time>2015-05-17T11:22:08Z</time>
      </trkpt>
      <trkpt lat="45.47845" lon="5.66333">
        <ele>628</ele>
        <time>2015-05-17T11:22:11Z</time>
      </trkpt>
      <trkpt lat="45.47836" lon="5.66339">
        <ele>628.6</ele>
        <time>2015-05-17T11:22:14Z</time>
      </trkpt>
      <trkpt lat="45.47827" lon="5.66345">
        <ele>629</ele>
        <time>2015-05-17T11:22:17Z</time>
      </trkpt>
      <trkpt lat="45.47819" lon="5.66353">
        <ele>629.4</ele>
        <time>2015-05-17T11:22:20Z</time>
      </trkpt>
      <trkpt lat="45.47812" lon="5.66362">
        <ele>629.8</ele>
        <time>2015-05-17T11:22:23Z</time>
      </trkpt>
      <trkpt lat="45.47805" lon="5.66371">
        <ele>630.2</ele>
        <time>2015-05-17T11:22:26Z</time>
      </trkpt>
      <trkpt lat="45.478" lon="5.66382">
        <ele>630.6</ele>
        <time>2015-05-17T11:22:29Z</time>
      </trkpt>
      <trkpt lat="45.47799" lon="5.66393">
        <ele>631.1</ele>
        <time>2015-05-17T11:22:32Z</time>
      </trkpt>
      <trkpt lat="45.47799" lon="5.66407">
        <ele>631.5</ele>
        <time>2015-05-17T11:22:35Z</time>
      </trkpt>
      <trkpt lat="45.478" lon="5.66418">
        <ele>631.9</ele>
        <time>2015-05-17T11:22:38Z</time>
      </trkpt>
      <trkpt lat="45.47801" lon="5.66428">
        <ele>632.3</ele>
        <time>2015-05-17T11:22:40Z</time>
      </trkpt>
      <trkpt lat="45.47802" lon="5.66442">
        <ele>632.7</ele>
        <time>2015-05-17T11:22:43Z</time>
      </trkpt>
      <trkpt lat="45.47801" lon="5.66454">
        <ele>633.2</ele>
        <time>2015-05-17T11:22:46Z</time>
      </trkpt>
      <trkpt lat="45.47799" lon="5.66466">
        <ele>633.4</ele>
        <time>2015-05-17T11:22:48Z</time>
      </trkpt>
      <trkpt lat="45.47796" lon="5.66477">
        <ele>633.7</ele>
        <time>2015-05-17T11:22:50Z</time>
      </trkpt>
      <trkpt lat="45.47793" lon="5.66487">
        <ele>634.8</ele>
        <time>2015-05-17T11:22:52Z</time>
      </trkpt>
      <trkpt lat="45.47788" lon="5.66495">
        <ele>635.7</ele>
        <time>2015-05-17T11:22:54Z</time>
      </trkpt>
      <trkpt lat="45.47782" lon="5.66503">
        <ele>636.8</ele>
        <time>2015-05-17T11:22:56Z</time>
      </trkpt>
      <trkpt lat="45.47776" lon="5.66511">
        <ele>637.2</ele>
        <time>2015-05-17T11:22:58Z</time>
      </trkpt>
      <trkpt lat="45.47768" lon="5.66519">
        <ele>637.6</ele>
        <time>2015-05-17T11:23:01Z</time>
      </trkpt>
      <trkpt lat="45.47763" lon="5.66529">
        <ele>638</ele>
        <time>2015-05-17T11:23:03Z</time>
      </trkpt>
      <trkpt lat="45.47758" lon="5.66538">
        <ele>638.3</ele>
        <time>2015-05-17T11:23:05Z</time>
      </trkpt>
      <trkpt lat="45.47754" lon="5.66548">
        <ele>638.6</ele>
        <time>2015-05-17T11:23:07Z</time>
      </trkpt>
      <trkpt lat="45.47751" lon="5.66561">
        <ele>640</ele>
        <time>2015-05-17T11:23:10Z</time>
      </trkpt>
      <trkpt lat="45.47751" lon="5.66576">
        <ele>641.1</ele>
        <time>2015-05-17T11:23:13Z</time>
      </trkpt>
      <trkpt lat="45.4775" lon="5.66587">
        <ele>642</ele>
        <time>2015-05-17T11:23:15Z</time>
      </trkpt>
      <trkpt lat="45.47744" lon="5.66601">
        <ele>641.7</ele>
        <time>2015-05-17T11:23:17Z</time>
      </trkpt>
      <trkpt lat="45.47736" lon="5.66616">
        <ele>640.5</ele>
        <time>2015-05-17T11:23:19Z</time>
      </trkpt>
      <trkpt lat="45.47729" lon="5.66633">
        <ele>638.8</ele>
        <time>2015-05-17T11:23:21Z</time>
      </trkpt>
      <trkpt lat="45.47725" lon="5.66643">
        <ele>638.1</ele>
        <time>2015-05-17T11:23:22Z</time>
      </trkpt>
      <trkpt lat="45.47722" lon="5.66653">
        <ele>637.3</ele>
        <time>2015-05-17T11:23:23Z</time>
      </trkpt>
      <trkpt lat="45.47718" lon="5.66662">
        <ele>636.4</ele>
        <time>2015-05-17T11:23:24Z</time>
      </trkpt>
      <trkpt lat="45.47713" lon="5.66679">
        <ele>635</ele>
        <time>2015-05-17T11:23:26Z</time>
      </trkpt>
      <trkpt lat="45.47709" lon="5.66693">
        <ele>634</ele>
        <time>2015-05-17T11:23:28Z</time>
      </trkpt>
      <trkpt lat="45.47709" lon="5.66706">
        <ele>632.8</ele>
        <time>2015-05-17T11:23:30Z</time>
      </trkpt>
      <trkpt lat="45.47713" lon="5.66719">
        <ele>631.4</ele>
        <time>2015-05-17T11:23:32Z</time>
      </trkpt>
      <trkpt lat="45.47721" lon="5.66733">
        <ele>630.5</ele>
        <time>2015-05-17T11:23:34Z</time>
      </trkpt>
      <trkpt lat="45.47729" lon="5.66747">
        <ele>629.7</ele>
        <time>2015-05-17T11:23:36Z</time>
      </trkpt>
      <trkpt lat="45.47737" lon="5.66761">
        <ele>629.4</ele>
        <time>2015-05-17T11:23:38Z</time>
      </trkpt>
      <trkpt lat="45.47744" lon="5.66773">
        <ele>629.8</ele>
        <time>2015-05-17T11:23:40Z</time>
      </trkpt>
      <trkpt lat="45.4775" lon="5.66787">
        <ele>630.4</ele>
        <time>2015-05-17T11:23:42Z</time>
      </trkpt>
      <trkpt lat="45.47754" lon="5.66803">
        <ele>629.8</ele>
        <time>2015-05-17T11:23:44Z</time>
      </trkpt>
      <trkpt lat="45.47758" lon="5.66819">
        <ele>630.2</ele>
        <time>2015-05-17T11:23:46Z</time>
      </trkpt>
      <trkpt lat="45.47762" lon="5.66832">
        <ele>630.1</ele>
        <time>2015-05-17T11:23:48Z</time>
      </trkpt>
      <trkpt lat="45.47769" lon="5.66846">
        <ele>630.1</ele>
        <time>2015-05-17T11:23:50Z</time>
      </trkpt>
      <trkpt lat="45.47776" lon="5.66859">
        <ele>629.9</ele>
        <time>2015-05-17T11:23:52Z</time>
      </trkpt>
      <trkpt lat="45.47784" lon="5.66874">
        <ele>629.6</ele>
        <time>2015-05-17T11:23:54Z</time>
      </trkpt>
      <trkpt lat="45.47792" lon="5.6689">
        <ele>628.8</ele>
        <time>2015-05-17T11:23:56Z</time>
      </trkpt>
      <trkpt lat="45.478" lon="5.66903">
        <ele>628.4</ele>
        <time>2015-05-17T11:23:58Z</time>
      </trkpt>
      <trkpt lat="45.47806" lon="5.66914">
        <ele>627.4</ele>
        <time>2015-05-17T11:24:00Z</time>
      </trkpt>
      <trkpt lat="45.47814" lon="5.66926">
        <ele>626.5</ele>
        <time>2015-05-17T11:24:02Z</time>
      </trkpt>
      <trkpt lat="45.4782" lon="5.66936">
        <ele>626.3</ele>
        <time>2015-05-17T11:24:04Z</time>
      </trkpt>
      <trkpt lat="45.47827" lon="5.66948">
        <ele>626.1</ele>
        <time>2015-05-17T11:24:06Z</time>
      </trkpt>
      <trkpt lat="45.47836" lon="5.6696">
        <ele>625.6</ele>
        <time>2015-05-17T11:24:08Z</time>
      </trkpt>
      <trkpt lat="45.47845" lon="5.66974">
        <ele>624.9</ele>
        <time>2015-05-17T11:24:10Z</time>
      </trkpt>
      <trkpt lat="45.47854" lon="5.66987">
        <ele>623.9</ele>
        <time>2015-05-17T11:24:12Z</time>
      </trkpt>
      <trkpt lat="45.47861" lon="5.67003">
        <ele>622.8</ele>
        <time>2015-05-17T11:24:14Z</time>
      </trkpt>
      <trkpt lat="45.47869" lon="5.6702">
        <ele>622.6</ele>
        <time>2015-05-17T11:24:16Z</time>
      </trkpt>
      <trkpt lat="45.47875" lon="5.67035">
        <ele>623</ele>
        <time>2015-05-17T11:24:18Z</time>
      </trkpt>
      <trkpt lat="45.47882" lon="5.6705">
        <ele>623.9</ele>
        <time>2015-05-17T11:24:20Z</time>
      </trkpt>
      <trkpt lat="45.47888" lon="5.67063">
        <ele>623.7</ele>
        <time>2015-05-17T11:24:22Z</time>
      </trkpt>
      <trkpt lat="45.47893" lon="5.67075">
        <ele>624.7</ele>
        <time>2015-05-17T11:24:24Z</time>
      </trkpt>
      <trkpt lat="45.47898" lon="5.6709">
        <ele>625.3</ele>
        <time>2015-05-17T11:24:26Z</time>
      </trkpt>
      <trkpt lat="45.47903" lon="5.67101">
        <ele>625.3</ele>
        <time>2015-05-17T11:24:28Z</time>
      </trkpt>
      <trkpt lat="45.4791" lon="5.67112">
        <ele>624.9</ele>
        <time>2015-05-17T11:24:30Z</time>
      </trkpt>
      <trkpt lat="45.47915" lon="5.67128">
        <ele>623.5</ele>
        <time>2015-05-17T11:24:32Z</time>
      </trkpt>
      <trkpt lat="45.47916" lon="5.67139">
        <ele>622.7</ele>
        <time>2015-05-17T11:24:34Z</time>
      </trkpt>
      <trkpt lat="45.47914" lon="5.6715">
        <ele>622.5</ele>
        <time>2015-05-17T11:24:36Z</time>
      </trkpt>
      <trkpt lat="45.47912" lon="5.67161">
        <ele>622.5</ele>
        <time>2015-05-17T11:24:38Z</time>
      </trkpt>
      <trkpt lat="45.47912" lon="5.67173">
        <ele>622.4</ele>
        <time>2015-05-17T11:24:41Z</time>
      </trkpt>
      <trkpt lat="45.47911" lon="5.67186">
        <ele>622.4</ele>
        <time>2015-05-17T11:24:44Z</time>
      </trkpt>
      <trkpt lat="45.47913" lon="5.67196">
        <ele>622.4</ele>
        <time>2015-05-17T11:24:46Z</time>
      </trkpt>
      <trkpt lat="45.47917" lon="5.67209">
        <ele>622.7</ele>
        <time>2015-05-17T11:24:48Z</time>
      </trkpt>
      <trkpt lat="45.47922" lon="5.67221">
        <ele>622.9</ele>
        <time>2015-05-17T11:24:50Z</time>
      </trkpt>
      <trkpt lat="45.47929" lon="5.67234">
        <ele>623</ele>
        <time>2015-05-17T11:24:52Z</time>
      </trkpt>
      <trkpt lat="45.47935" lon="5.67242">
        <ele>622.2</ele>
        <time>2015-05-17T11:24:54Z</time>
      </trkpt>
      <trkpt lat="45.47941" lon="5.67248">
        <ele>622.2</ele>
        <time>2015-05-17T11:24:56Z</time>
      </trkpt>
      <trkpt lat="45.47948" lon="5.67254">
        <ele>622.1</ele>
        <time>2015-05-17T11:24:58Z</time>
      </trkpt>
      <trkpt lat="45.47955" lon="5.67257">
        <ele>622</ele>
        <time>2015-05-17T11:25:01Z</time>
      </trkpt>
      <trkpt lat="45.47965" lon="5.67258">
        <ele>621.8</ele>
        <time>2015-05-17T11:25:04Z</time>
      </trkpt>
      <trkpt lat="45.47974" lon="5.67259">
        <ele>621.6</ele>
        <time>2015-05-17T11:25:07Z</time>
      </trkpt>
      <trkpt lat="45.47982" lon="5.67262">
        <ele>621.4</ele>
        <time>2015-05-17T11:25:10Z</time>
      </trkpt>
      <trkpt lat="45.47991" lon="5.67265">
        <ele>621.4</ele>
        <time>2015-05-17T11:25:14Z</time>
      </trkpt>
      <trkpt lat="45.47998" lon="5.67268">
        <ele>621.4</ele>
        <time>2015-05-17T11:25:17Z</time>
      </trkpt>
      <trkpt lat="45.48005" lon="5.67272">
        <ele>621.6</ele>
        <time>2015-05-17T11:25:20Z</time>
      </trkpt>
      <trkpt lat="45.48013" lon="5.67276">
        <ele>621.7</ele>
        <time>2015-05-17T11:25:23Z</time>
      </trkpt>
      <trkpt lat="45.48021" lon="5.67278">
        <ele>621.8</ele>
        <time>2015-05-17T11:25:26Z</time>
      </trkpt>
      <trkpt lat="45.48031" lon="5.6728">
        <ele>621.9</ele>
        <time>2015-05-17T11:25:29Z</time>
      </trkpt>
      <trkpt lat="45.4804" lon="5.67283">
        <ele>622.3</ele>
        <time>2015-05-17T11:25:31Z</time>
      </trkpt>
      <trkpt lat="45.48048" lon="5.67286">
        <ele>622.2</ele>
        <time>2015-05-17T11:25:33Z</time>
      </trkpt>
      <trkpt lat="45.48057" lon="5.67289">
        <ele>621.5</ele>
        <time>2015-05-17T11:25:35Z</time>
      </trkpt>
      <trkpt lat="45.48067" lon="5.67293">
        <ele>621.1</ele>
        <time>2015-05-17T11:25:37Z</time>
      </trkpt>
      <trkpt lat="45.48078" lon="5.67298">
        <ele>620.3</ele>
        <time>2015-05-17T11:25:39Z</time>
      </trkpt>
      <trkpt lat="45.48088" lon="5.67301">
        <ele>618.6</ele>
        <time>2015-05-17T11:25:41Z</time>
      </trkpt>
      <trkpt lat="45.48098" lon="5.67304">
        <ele>617.1</ele>
        <time>2015-05-17T11:25:43Z</time>
      </trkpt>
      <trkpt lat="45.48108" lon="5.67302">
        <ele>616</ele>
        <time>2015-05-17T11:25:45Z</time>
      </trkpt>
      <trkpt lat="45.48118" lon="5.673">
        <ele>614.2</ele>
        <time>2015-05-17T11:25:47Z</time>
      </trkpt>
      <trkpt lat="45.4813" lon="5.673">
        <ele>611.8</ele>
        <time>2015-05-17T11:25:49Z</time>
      </trkpt>
      <trkpt lat="45.48142" lon="5.673">
        <ele>609.3</ele>
        <time>2015-05-17T11:25:51Z</time>
      </trkpt>
      <trkpt lat="45.48152" lon="5.67304">
        <ele>606.7</ele>
        <time>2015-05-17T11:25:53Z</time>
      </trkpt>
      <trkpt lat="45.48162" lon="5.67309">
        <ele>604.7</ele>
        <time>2015-05-17T11:25:55Z</time>
      </trkpt>
      <trkpt lat="45.48175" lon="5.67313">
        <ele>602.8</ele>
        <time>2015-05-17T11:25:57Z</time>
      </trkpt>
      <trkpt lat="45.48186" lon="5.67315">
        <ele>600.8</ele>
        <time>2015-05-17T11:25:59Z</time>
      </trkpt>
      <trkpt lat="45.48196" lon="5.67311">
        <ele>599.5</ele>
        <time>2015-05-17T11:26:01Z</time>
      </trkpt>
      <trkpt lat="45.48207" lon="5.67305">
        <ele>597.8</ele>
        <time>2015-05-17T11:26:03Z</time>
      </trkpt>
      <trkpt lat="45.48218" lon="5.67301">
        <ele>595.7</ele>
        <time>2015-05-17T11:26:05Z</time>
      </trkpt>
      <trkpt lat="45.48231" lon="5.67306">
        <ele>593.3</ele>
        <time>2015-05-17T11:26:07Z</time>
      </trkpt>
      <trkpt lat="45.48241" lon="5.67317">
        <ele>591.6</ele>
        <time>2015-05-17T11:26:09Z</time>
      </trkpt>
      <trkpt lat="45.4825" lon="5.67328">
        <ele>591</ele>
        <time>2015-05-17T11:26:11Z</time>
      </trkpt>
      <trkpt lat="45.48263" lon="5.67334">
        <ele>590.7</ele>
        <time>2015-05-17T11:26:13Z</time>
      </trkpt>
      <trkpt lat="45.48271" lon="5.67336">
        <ele>589.9</ele>
        <time>2015-05-17T11:26:14Z</time>
      </trkpt>
      <trkpt lat="45.48279" lon="5.67337">
        <ele>588.9</ele>
        <time>2015-05-17T11:26:15Z</time>
      </trkpt>
      <trkpt lat="45.48287" lon="5.67338">
        <ele>587.7</ele>
        <time>2015-05-17T11:26:16Z</time>
      </trkpt>
      <trkpt lat="45.48295" lon="5.67339">
        <ele>586.5</ele>
        <time>2015-05-17T11:26:17Z</time>
      </trkpt>
      <trkpt lat="45.48303" lon="5.67339">
        <ele>585.4</ele>
        <time>2015-05-17T11:26:18Z</time>
      </trkpt>
      <trkpt lat="45.48316" lon="5.6734">
        <ele>584.1</ele>
        <time>2015-05-17T11:26:20Z</time>
      </trkpt>
      <trkpt lat="45.48326" lon="5.6734">
        <ele>582.7</ele>
        <time>2015-05-17T11:26:22Z</time>
      </trkpt>
      <trkpt lat="45.48331" lon="5.6734">
        <ele>582.4</ele>
        <time>2015-05-17T11:26:29Z</time>
      </trkpt>
      <trkpt lat="45.48332" lon="5.67349">
        <ele>581.8</ele>
        <time>2015-05-17T11:26:41Z</time>
      </trkpt>
      <trkpt lat="45.48326" lon="5.67355">
        <ele>581.7</ele>
        <time>2015-05-17T11:26:43Z</time>
      </trkpt>
      <trkpt lat="45.48319" lon="5.67362">
        <ele>581.6</ele>
        <time>2015-05-17T11:26:45Z</time>
      </trkpt>
      <trkpt lat="45.48311" lon="5.67371">
        <ele>581.6</ele>
        <time>2015-05-17T11:26:47Z</time>
      </trkpt>
      <trkpt lat="45.48305" lon="5.67378">
        <ele>581.5</ele>
        <time>2015-05-17T11:26:49Z</time>
      </trkpt>
      <trkpt lat="45.48302" lon="5.67389">
        <ele>581.3</ele>
        <time>2015-05-17T11:26:51Z</time>
      </trkpt>
      <trkpt lat="45.48299" lon="5.67399">
        <ele>579.9</ele>
        <time>2015-05-17T11:26:53Z</time>
      </trkpt>
      <trkpt lat="45.48297" lon="5.6741">
        <ele>579.4</ele>
        <time>2015-05-17T11:26:55Z</time>
      </trkpt>
      <trkpt lat="45.48296" lon="5.67421">
        <ele>578.8</ele>
        <time>2015-05-17T11:26:57Z</time>
      </trkpt>
      <trkpt lat="45.48294" lon="5.67434">
        <ele>578.8</ele>
        <time>2015-05-17T11:26:59Z</time>
      </trkpt>
      <trkpt lat="45.48292" lon="5.67448">
        <ele>578.5</ele>
        <time>2015-05-17T11:27:01Z</time>
      </trkpt>
      <trkpt lat="45.48286" lon="5.67459">
        <ele>577.8</ele>
        <time>2015-05-17T11:27:03Z</time>
      </trkpt>
      <trkpt lat="45.48278" lon="5.67463">
        <ele>578</ele>
        <time>2015-05-17T11:27:05Z</time>
      </trkpt>
      <trkpt lat="45.48269" lon="5.67468">
        <ele>577.9</ele>
        <time>2015-05-17T11:27:08Z</time>
      </trkpt>
      <trkpt lat="45.48259" lon="5.67474">
        <ele>578.1</ele>
        <time>2015-05-17T11:27:11Z</time>
      </trkpt>
      <trkpt lat="45.48252" lon="5.67479">
        <ele>579.3</ele>
        <time>2015-05-17T11:27:13Z</time>
      </trkpt>
      <trkpt lat="45.48246" lon="5.67486">
        <ele>579.8</ele>
        <time>2015-05-17T11:27:15Z</time>
      </trkpt>
      <trkpt lat="45.4824" lon="5.67494">
        <ele>579.9</ele>
        <time>2015-05-17T11:27:17Z</time>
      </trkpt>
      <trkpt lat="45.48235" lon="5.67504">
        <ele>579.9</ele>
        <time>2015-05-17T11:27:20Z</time>
      </trkpt>
      <trkpt lat="45.48233" lon="5.67515">
        <ele>579.4</ele>
        <time>2015-05-17T11:27:22Z</time>
      </trkpt>
      <trkpt lat="45.48234" lon="5.67529">
        <ele>579.6</ele>
        <time>2015-05-17T11:27:25Z</time>
      </trkpt>
      <trkpt lat="45.48235" lon="5.67546">
        <ele>582</ele>
        <time>2015-05-17T11:27:28Z</time>
      </trkpt>
      <trkpt lat="45.48238" lon="5.67558">
        <ele>583.7</ele>
        <time>2015-05-17T11:27:30Z</time>
      </trkpt>
      <trkpt lat="45.4824" lon="5.6757">
        <ele>585.3</ele>
        <time>2015-05-17T11:27:32Z</time>
      </trkpt>
      <trkpt lat="45.48242" lon="5.67583">
        <ele>586.1</ele>
        <time>2015-05-17T11:27:34Z</time>
      </trkpt>
      <trkpt lat="45.48244" lon="5.67596">
        <ele>586.4</ele>
        <time>2015-05-17T11:27:36Z</time>
      </trkpt>
      <trkpt lat="45.48246" lon="5.6761">
        <ele>586.4</ele>
        <time>2015-05-17T11:27:38Z</time>
      </trkpt>
      <trkpt lat="45.48248" lon="5.67624">
        <ele>586.6</ele>
        <time>2015-05-17T11:27:40Z</time>
      </trkpt>
      <trkpt lat="45.4825" lon="5.67638">
        <ele>586.6</ele>
        <time>2015-05-17T11:27:42Z</time>
      </trkpt>
      <trkpt lat="45.48253" lon="5.67651">
        <ele>586.8</ele>
        <time>2015-05-17T11:27:44Z</time>
      </trkpt>
      <trkpt lat="45.48257" lon="5.67664">
        <ele>587.1</ele>
        <time>2015-05-17T11:27:46Z</time>
      </trkpt>
      <trkpt lat="45.48261" lon="5.67679">
        <ele>587.2</ele>
        <time>2015-05-17T11:27:48Z</time>
      </trkpt>
      <trkpt lat="45.48266" lon="5.67695">
        <ele>587.2</ele>
        <time>2015-05-17T11:27:50Z</time>
      </trkpt>
      <trkpt lat="45.48271" lon="5.67711">
        <ele>587.1</ele>
        <time>2015-05-17T11:27:52Z</time>
      </trkpt>
      <trkpt lat="45.48275" lon="5.67727">
        <ele>587</ele>
        <time>2015-05-17T11:27:54Z</time>
      </trkpt>
      <trkpt lat="45.48279" lon="5.67744">
        <ele>586.7</ele>
        <time>2015-05-17T11:27:56Z</time>
      </trkpt>
      <trkpt lat="45.48284" lon="5.67761">
        <ele>586.2</ele>
        <time>2015-05-17T11:27:58Z</time>
      </trkpt>
      <trkpt lat="45.48289" lon="5.67777">
        <ele>586.1</ele>
        <time>2015-05-17T11:28:00Z</time>
      </trkpt>
      <trkpt lat="45.48294" lon="5.67793">
        <ele>586</ele>
        <time>2015-05-17T11:28:02Z</time>
      </trkpt>
      <trkpt lat="45.483" lon="5.67811">
        <ele>585.6</ele>
        <time>2015-05-17T11:28:04Z</time>
      </trkpt>
      <trkpt lat="45.48305" lon="5.67829">
        <ele>584.9</ele>
        <time>2015-05-17T11:28:06Z</time>
      </trkpt>
      <trkpt lat="45.48311" lon="5.67847">
        <ele>584.1</ele>
        <time>2015-05-17T11:28:08Z</time>
      </trkpt>
      <trkpt lat="45.48317" lon="5.67865">
        <ele>583.2</ele>
        <time>2015-05-17T11:28:10Z</time>
      </trkpt>
      <trkpt lat="45.48324" lon="5.67883">
        <ele>582.5</ele>
        <time>2015-05-17T11:28:12Z</time>
      </trkpt>
      <trkpt lat="45.4833" lon="5.67901">
        <ele>582</ele>
        <time>2015-05-17T11:28:14Z</time>
      </trkpt>
      <trkpt lat="45.48335" lon="5.67916">
        <ele>581.8</ele>
        <time>2015-05-17T11:28:16Z</time>
      </trkpt>
      <trkpt lat="45.48341" lon="5.67932">
        <ele>581.8</ele>
        <time>2015-05-17T11:28:18Z</time>
      </trkpt>
      <trkpt lat="45.48346" lon="5.67949">
        <ele>581.5</ele>
        <time>2015-05-17T11:28:20Z</time>
      </trkpt>
      <trkpt lat="45.48352" lon="5.67966">
        <ele>580.6</ele>
        <time>2015-05-17T11:28:22Z</time>
      </trkpt>
      <trkpt lat="45.48356" lon="5.67981">
        <ele>580.4</ele>
        <time>2015-05-17T11:28:24Z</time>
      </trkpt>
      <trkpt lat="45.4836" lon="5.67997">
        <ele>580.3</ele>
        <time>2015-05-17T11:28:26Z</time>
      </trkpt>
      <trkpt lat="45.48361" lon="5.68014">
        <ele>580.4</ele>
        <time>2015-05-17T11:28:28Z</time>
      </trkpt>
      <trkpt lat="45.48359" lon="5.68031">
        <ele>580.6</ele>
        <time>2015-05-17T11:28:30Z</time>
      </trkpt>
      <trkpt lat="45.48356" lon="5.68047">
        <ele>580.6</ele>
        <time>2015-05-17T11:28:32Z</time>
      </trkpt>
      <trkpt lat="45.48355" lon="5.68065">
        <ele>580.1</ele>
        <time>2015-05-17T11:28:34Z</time>
      </trkpt>
      <trkpt lat="45.48357" lon="5.68081">
        <ele>579.7</ele>
        <time>2015-05-17T11:28:36Z</time>
      </trkpt>
      <trkpt lat="45.48359" lon="5.68097">
        <ele>579.9</ele>
        <time>2015-05-17T11:28:38Z</time>
      </trkpt>
      <trkpt lat="45.48364" lon="5.68112">
        <ele>580.1</ele>
        <time>2015-05-17T11:28:40Z</time>
      </trkpt>
      <trkpt lat="45.48372" lon="5.68128">
        <ele>580.4</ele>
        <time>2015-05-17T11:28:42Z</time>
      </trkpt>
      <trkpt lat="45.48376" lon="5.68136">
        <ele>580.3</ele>
        <time>2015-05-17T11:28:43Z</time>
      </trkpt>
      <trkpt lat="45.4838" lon="5.68146">
        <ele>580.3</ele>
        <time>2015-05-17T11:28:44Z</time>
      </trkpt>
      <trkpt lat="45.48388" lon="5.68163">
        <ele>580.4</ele>
        <time>2015-05-17T11:28:46Z</time>
      </trkpt>
      <trkpt lat="45.48392" lon="5.68173">
        <ele>580.1</ele>
        <time>2015-05-17T11:28:47Z</time>
      </trkpt>
      <trkpt lat="45.48394" lon="5.68182">
        <ele>579.8</ele>
        <time>2015-05-17T11:28:48Z</time>
      </trkpt>
      <trkpt lat="45.48398" lon="5.68192">
        <ele>579.3</ele>
        <time>2015-05-17T11:28:49Z</time>
      </trkpt>
      <trkpt lat="45.484" lon="5.68202">
        <ele>579</ele>
        <time>2015-05-17T11:28:50Z</time>
      </trkpt>
      <trkpt lat="45.48403" lon="5.68212">
        <ele>578.8</ele>
        <time>2015-05-17T11:28:51Z</time>
      </trkpt>
      <trkpt lat="45.48405" lon="5.68223">
        <ele>578.6</ele>
        <time>2015-05-17T11:28:52Z</time>
      </trkpt>
      <trkpt lat="45.48408" lon="5.68233">
        <ele>578.4</ele>
        <time>2015-05-17T11:28:53Z</time>
      </trkpt>
      <trkpt lat="45.4841" lon="5.68245">
        <ele>578</ele>
        <time>2015-05-17T11:28:54Z</time>
      </trkpt>
      <trkpt lat="45.48413" lon="5.68256">
        <ele>577.5</ele>
        <time>2015-05-17T11:28:55Z</time>
      </trkpt>
      <trkpt lat="45.48415" lon="5.68268">
        <ele>577.1</ele>
        <time>2015-05-17T11:28:56Z</time>
      </trkpt>
      <trkpt lat="45.48418" lon="5.68278">
        <ele>576.7</ele>
        <time>2015-05-17T11:28:57Z</time>
      </trkpt>
      <trkpt lat="45.4842" lon="5.68288">
        <ele>576.4</ele>
        <time>2015-05-17T11:28:58Z</time>
      </trkpt>
      <trkpt lat="45.48423" lon="5.68298">
        <ele>576.3</ele>
        <time>2015-05-17T11:28:59Z</time>
      </trkpt>
      <trkpt lat="45.48425" lon="5.6831">
        <ele>576.1</ele>
        <time>2015-05-17T11:29:00Z</time>
      </trkpt>
      <trkpt lat="45.48426" lon="5.6832">
        <ele>575.9</ele>
        <time>2015-05-17T11:29:01Z</time>
      </trkpt>
      <trkpt lat="45.48428" lon="5.68331">
        <ele>575.6</ele>
        <time>2015-05-17T11:29:02Z</time>
      </trkpt>
      <trkpt lat="45.48432" lon="5.68349">
        <ele>575.1</ele>
        <time>2015-05-17T11:29:04Z</time>
      </trkpt>
      <trkpt lat="45.48436" lon="5.68368">
        <ele>574.7</ele>
        <time>2015-05-17T11:29:06Z</time>
      </trkpt>
      <trkpt lat="45.4844" lon="5.68385">
        <ele>574.5</ele>
        <time>2015-05-17T11:29:08Z</time>
      </trkpt>
      <trkpt lat="45.48444" lon="5.68403">
        <ele>574.8</ele>
        <time>2015-05-17T11:29:10Z</time>
      </trkpt>
      <trkpt lat="45.48447" lon="5.68414">
        <ele>575.1</ele>
        <time>2015-05-17T11:29:11Z</time>
      </trkpt>
      <trkpt lat="45.48449" lon="5.68424">
        <ele>575.3</ele>
        <time>2015-05-17T11:29:12Z</time>
      </trkpt>
      <trkpt lat="45.48455" lon="5.68441">
        <ele>575.2</ele>
        <time>2015-05-17T11:29:14Z</time>
      </trkpt>
      <trkpt lat="45.4846" lon="5.68456">
        <ele>575.2</ele>
        <time>2015-05-17T11:29:16Z</time>
      </trkpt>
      <trkpt lat="45.48466" lon="5.6847">
        <ele>575.6</ele>
        <time>2015-05-17T11:29:18Z</time>
      </trkpt>
      <trkpt lat="45.48473" lon="5.68483">
        <ele>576.5</ele>
        <time>2015-05-17T11:29:20Z</time>
      </trkpt>
      <trkpt lat="45.48478" lon="5.68497">
        <ele>577.5</ele>
        <time>2015-05-17T11:29:22Z</time>
      </trkpt>
      <trkpt lat="45.48483" lon="5.6851">
        <ele>578.4</ele>
        <time>2015-05-17T11:29:24Z</time>
      </trkpt>
      <trkpt lat="45.48489" lon="5.68524">
        <ele>578.8</ele>
        <time>2015-05-17T11:29:26Z</time>
      </trkpt>
      <trkpt lat="45.48492" lon="5.6854">
        <ele>579</ele>
        <time>2015-05-17T11:29:28Z</time>
      </trkpt>
      <trkpt lat="45.48485" lon="5.68554">
        <ele>577.6</ele>
        <time>2015-05-17T11:29:30Z</time>
      </trkpt>
      <trkpt lat="45.48478" lon="5.68565">
        <ele>577</ele>
        <time>2015-05-17T11:29:32Z</time>
      </trkpt>
      <trkpt lat="45.48468" lon="5.68576">
        <ele>575.9</ele>
        <time>2015-05-17T11:29:34Z</time>
      </trkpt>
      <trkpt lat="45.4846" lon="5.68584">
        <ele>574.7</ele>
        <time>2015-05-17T11:29:36Z</time>
      </trkpt>
      <trkpt lat="45.48453" lon="5.68592">
        <ele>575</ele>
        <time>2015-05-17T11:29:38Z</time>
      </trkpt>
      <trkpt lat="45.48446" lon="5.68601">
        <ele>575.4</ele>
        <time>2015-05-17T11:29:40Z</time>
      </trkpt>
      <trkpt lat="45.48442" lon="5.68611">
        <ele>575.5</ele>
        <time>2015-05-17T11:29:42Z</time>
      </trkpt>
      <trkpt lat="45.48443" lon="5.68622">
        <ele>575.9</ele>
        <time>2015-05-17T11:29:44Z</time>
      </trkpt>
      <trkpt lat="45.48445" lon="5.68633">
        <ele>576.1</ele>
        <time>2015-05-17T11:29:46Z</time>
      </trkpt>
      <trkpt lat="45.48449" lon="5.68647">
        <ele>576.9</ele>
        <time>2015-05-17T11:29:49Z</time>
      </trkpt>
      <trkpt lat="45.48453" lon="5.68657">
        <ele>578.4</ele>
        <time>2015-05-17T11:29:51Z</time>
      </trkpt>
      <trkpt lat="45.48456" lon="5.68668">
        <ele>579.2</ele>
        <time>2015-05-17T11:29:53Z</time>
      </trkpt>
      <trkpt lat="45.48457" lon="5.68679">
        <ele>579.5</ele>
        <time>2015-05-17T11:29:55Z</time>
      </trkpt>
      <trkpt lat="45.48458" lon="5.6869">
        <ele>579.2</ele>
        <time>2015-05-17T11:29:57Z</time>
      </trkpt>
      <trkpt lat="45.48462" lon="5.68701">
        <ele>579.3</ele>
        <time>2015-05-17T11:29:59Z</time>
      </trkpt>
      <trkpt lat="45.48466" lon="5.68711">
        <ele>580.3</ele>
        <time>2015-05-17T11:30:01Z</time>
      </trkpt>
      <trkpt lat="45.48474" lon="5.68722">
        <ele>581</ele>
        <time>2015-05-17T11:30:04Z</time>
      </trkpt>
      <trkpt lat="45.4848" lon="5.68732">
        <ele>581.2</ele>
        <time>2015-05-17T11:30:06Z</time>
      </trkpt>
      <trkpt lat="45.48483" lon="5.68742">
        <ele>581.4</ele>
        <time>2015-05-17T11:30:08Z</time>
      </trkpt>
      <trkpt lat="45.48485" lon="5.68755">
        <ele>583.4</ele>
        <time>2015-05-17T11:30:10Z</time>
      </trkpt>
      <trkpt lat="45.48488" lon="5.68768">
        <ele>583.3</ele>
        <time>2015-05-17T11:30:12Z</time>
      </trkpt>
      <trkpt lat="45.48489" lon="5.68783">
        <ele>583.3</ele>
        <time>2015-05-17T11:30:14Z</time>
      </trkpt>
      <trkpt lat="45.4849" lon="5.68802">
        <ele>583.3</ele>
        <time>2015-05-17T11:30:16Z</time>
      </trkpt>
      <trkpt lat="45.48493" lon="5.68816">
        <ele>583.3</ele>
        <time>2015-05-17T11:30:18Z</time>
      </trkpt>
      <trkpt lat="45.48499" lon="5.68829">
        <ele>584</ele>
        <time>2015-05-17T11:30:20Z</time>
      </trkpt>
      <trkpt lat="45.48503" lon="5.68838">
        <ele>584</ele>
        <time>2015-05-17T11:30:22Z</time>
      </trkpt>
      <trkpt lat="45.48509" lon="5.68852">
        <ele>583.6</ele>
        <time>2015-05-17T11:30:24Z</time>
      </trkpt>
      <trkpt lat="45.48516" lon="5.68869">
        <ele>581.9</ele>
        <time>2015-05-17T11:30:26Z</time>
      </trkpt>
      <trkpt lat="45.48523" lon="5.68885">
        <ele>582.1</ele>
        <time>2015-05-17T11:30:28Z</time>
      </trkpt>
      <trkpt lat="45.48527" lon="5.68899">
        <ele>582.1</ele>
        <time>2015-05-17T11:30:30Z</time>
      </trkpt>
      <trkpt lat="45.48531" lon="5.68914">
        <ele>582.1</ele>
        <time>2015-05-17T11:30:32Z</time>
      </trkpt>
      <trkpt lat="45.48537" lon="5.68924">
        <ele>581.9</ele>
        <time>2015-05-17T11:30:34Z</time>
      </trkpt>
      <trkpt lat="45.48543" lon="5.68936">
        <ele>581.5</ele>
        <time>2015-05-17T11:30:36Z</time>
      </trkpt>
      <trkpt lat="45.4855" lon="5.68947">
        <ele>581</ele>
        <time>2015-05-17T11:30:38Z</time>
      </trkpt>
      <trkpt lat="45.48556" lon="5.68959">
        <ele>580.4</ele>
        <time>2015-05-17T11:30:40Z</time>
      </trkpt>
      <trkpt lat="45.48565" lon="5.68971">
        <ele>579.6</ele>
        <time>2015-05-17T11:30:42Z</time>
      </trkpt>
      <trkpt lat="45.48574" lon="5.68978">
        <ele>578.8</ele>
        <time>2015-05-17T11:30:44Z</time>
      </trkpt>
      <trkpt lat="45.48579" lon="5.68986">
        <ele>577.9</ele>
        <time>2015-05-17T11:30:46Z</time>
      </trkpt>
      <trkpt lat="45.48588" lon="5.68997">
        <ele>570.6</ele>
        <time>2015-05-17T11:30:48Z</time>
      </trkpt>
      <trkpt lat="45.48592" lon="5.69009">
        <ele>569.9</ele>
        <time>2015-05-17T11:30:50Z</time>
      </trkpt>
      <trkpt lat="45.48596" lon="5.69021">
        <ele>569.2</ele>
        <time>2015-05-17T11:30:52Z</time>
      </trkpt>
      <trkpt lat="45.48599" lon="5.69034">
        <ele>568.4</ele>
        <time>2015-05-17T11:30:54Z</time>
      </trkpt>
      <trkpt lat="45.48599" lon="5.69048">
        <ele>567.5</ele>
        <time>2015-05-17T11:30:56Z</time>
      </trkpt>
      <trkpt lat="45.48599" lon="5.69061">
        <ele>566.6</ele>
        <time>2015-05-17T11:30:58Z</time>
      </trkpt>
      <trkpt lat="45.486" lon="5.69078">
        <ele>565.2</ele>
        <time>2015-05-17T11:31:01Z</time>
      </trkpt>
      <trkpt lat="45.48599" lon="5.69089">
        <ele>564.2</ele>
        <time>2015-05-17T11:31:03Z</time>
      </trkpt>
      <trkpt lat="45.48596" lon="5.691">
        <ele>562.7</ele>
        <time>2015-05-17T11:31:06Z</time>
      </trkpt>
      <trkpt lat="45.48592" lon="5.69113">
        <ele>561.8</ele>
        <time>2015-05-17T11:31:08Z</time>
      </trkpt>
      <trkpt lat="45.4859" lon="5.69126">
        <ele>560.9</ele>
        <time>2015-05-17T11:31:10Z</time>
      </trkpt>
      <trkpt lat="45.48588" lon="5.69138">
        <ele>559.9</ele>
        <time>2015-05-17T11:31:12Z</time>
      </trkpt>
      <trkpt lat="45.48589" lon="5.69152">
        <ele>554</ele>
        <time>2015-05-17T11:31:14Z</time>
      </trkpt>
      <trkpt lat="45.48596" lon="5.69165">
        <ele>552.7</ele>
        <time>2015-05-17T11:31:17Z</time>
      </trkpt>
      <trkpt lat="45.48603" lon="5.69172">
        <ele>543.8</ele>
        <time>2015-05-17T11:31:19Z</time>
      </trkpt>
      <trkpt lat="45.48614" lon="5.69175">
        <ele>542.8</ele>
        <time>2015-05-17T11:31:22Z</time>
      </trkpt>
      <trkpt lat="45.48623" lon="5.69177">
        <ele>542.3</ele>
        <time>2015-05-17T11:31:24Z</time>
      </trkpt>
      <trkpt lat="45.48632" lon="5.6918">
        <ele>541.9</ele>
        <time>2015-05-17T11:31:26Z</time>
      </trkpt>
      <trkpt lat="45.48642" lon="5.6918">
        <ele>538.9</ele>
        <time>2015-05-17T11:31:28Z</time>
      </trkpt>
      <trkpt lat="45.48655" lon="5.69182">
        <ele>536.9</ele>
        <time>2015-05-17T11:31:30Z</time>
      </trkpt>
      <trkpt lat="45.48667" lon="5.69183">
        <ele>535.7</ele>
        <time>2015-05-17T11:31:32Z</time>
      </trkpt>
      <trkpt lat="45.4868" lon="5.69185">
        <ele>534.9</ele>
        <time>2015-05-17T11:31:34Z</time>
      </trkpt>
      <trkpt lat="45.48691" lon="5.69187">
        <ele>534.7</ele>
        <time>2015-05-17T11:31:36Z</time>
      </trkpt>
      <trkpt lat="45.48698" lon="5.69189">
        <ele>534.5</ele>
        <time>2015-05-17T11:31:38Z</time>
      </trkpt>
      <trkpt lat="45.48702" lon="5.69189">
        <ele>533.9</ele>
        <time>2015-05-17T11:31:45Z</time>
      </trkpt>
      <trkpt lat="45.48701" lon="5.69161">
        <ele>524.9</ele>
        <time>2015-05-17T11:31:21Z</time>
      </trkpt>
      <trkpt lat="45.48701" lon="5.6915">
        <ele>524.3</ele>
        <time>2015-05-17T11:32:30Z</time>
      </trkpt>
      <trkpt lat="45.48699" lon="5.69139">
        <ele>524.1</ele>
        <time>2015-05-17T11:32:34Z</time>
      </trkpt>
      <trkpt lat="45.487" lon="5.69128">
        <ele>524</ele>
        <time>2015-05-17T11:32:38Z</time>
      </trkpt>
      <trkpt lat="45.48701" lon="5.69116">
        <ele>523.8</ele>
        <time>2015-05-17T11:32:42Z</time>
      </trkpt>
      <trkpt lat="45.48701" lon="5.69104">
        <ele>523.5</ele>
        <time>2015-05-17T11:32:48Z</time>
      </trkpt>
      <trkpt lat="45.48699" lon="5.69095">
        <ele>524.5</ele>
        <time>2015-05-17T11:32:55Z</time>
      </trkpt>
      <trkpt lat="45.48698" lon="5.69079">
        <ele>525.4</ele>
        <time>2015-05-17T11:33:00Z</time>
      </trkpt>
      <trkpt lat="45.48699" lon="5.69062">
        <ele>526.5</ele>
        <time>2015-05-17T11:33:06Z</time>
      </trkpt>
      <trkpt lat="45.48697" lon="5.69046">
        <ele>528.1</ele>
        <time>2015-05-17T11:33:14Z</time>
      </trkpt>
      <trkpt lat="45.48697" lon="5.69029">
        <ele>528.8</ele>
        <time>2015-05-17T11:33:19Z</time>
      </trkpt>
      <trkpt lat="45.48696" lon="5.69026">
        <ele>529.8</ele>
        <time>2015-05-17T11:33:26Z</time>
      </trkpt>
      <trkpt lat="45.4869" lon="5.69007">
        <ele>530.5</ele>
        <time>2015-05-17T11:33:29Z</time>
      </trkpt>
      <trkpt lat="45.48689" lon="5.69003">
        <ele>532.3</ele>
        <time>2015-05-17T11:33:36Z</time>
      </trkpt>
      <trkpt lat="45.48686" lon="5.68981">
        <ele>532.7</ele>
        <time>2015-05-17T11:33:38Z</time>
      </trkpt>
      <trkpt lat="45.48685" lon="5.68964">
        <ele>533.2</ele>
        <time>2015-05-17T11:33:43Z</time>
      </trkpt>
      <trkpt lat="45.48688" lon="5.68949">
        <ele>534</ele>
        <time>2015-05-17T11:33:49Z</time>
      </trkpt>
      <trkpt lat="45.48689" lon="5.6894">
        <ele>535</ele>
        <time>2015-05-17T11:33:56Z</time>
      </trkpt>
      <trkpt lat="45.48685" lon="5.68923">
        <ele>535.4</ele>
        <time>2015-05-17T11:33:58Z</time>
      </trkpt>
      <trkpt lat="45.48689" lon="5.68906">
        <ele>537.3</ele>
        <time>2015-05-17T11:34:06Z</time>
      </trkpt>
      <trkpt lat="45.48691" lon="5.68893">
        <ele>538.2</ele>
        <time>2015-05-17T11:34:10Z</time>
      </trkpt>
      <trkpt lat="45.48694" lon="5.68878">
        <ele>539.4</ele>
        <time>2015-05-17T11:34:17Z</time>
      </trkpt>
      <trkpt lat="45.48693" lon="5.6886">
        <ele>540.6</ele>
        <time>2015-05-17T11:34:24Z</time>
      </trkpt>
      <trkpt lat="45.48692" lon="5.68848">
        <ele>541.6</ele>
        <time>2015-05-17T11:34:29Z</time>
      </trkpt>
      <trkpt lat="45.48693" lon="5.68835">
        <ele>542.7</ele>
        <time>2015-05-17T11:34:35Z</time>
      </trkpt>
      <trkpt lat="45.48693" lon="5.68823">
        <ele>543.4</ele>
        <time>2015-05-17T11:34:39Z</time>
      </trkpt>
      <trkpt lat="45.48696" lon="5.68809">
        <ele>544</ele>
        <time>2015-05-17T11:34:43Z</time>
      </trkpt>
      <trkpt lat="45.48695" lon="5.68797">
        <ele>545.1</ele>
        <time>2015-05-17T11:34:49Z</time>
      </trkpt>
      <trkpt lat="45.487" lon="5.68778">
        <ele>546.1</ele>
        <time>2015-05-17T11:34:56Z</time>
      </trkpt>
      <trkpt lat="45.48704" lon="5.68766">
        <ele>546.9</ele>
        <time>2015-05-17T11:35:00Z</time>
      </trkpt>
      <trkpt lat="45.48709" lon="5.68749">
        <ele>547.3</ele>
        <time>2015-05-17T11:35:13Z</time>
      </trkpt>
      <trkpt lat="45.48713" lon="5.68732">
        <ele>547.2</ele>
        <time>2015-05-17T11:35:17Z</time>
      </trkpt>
      <trkpt lat="45.48719" lon="5.68721">
        <ele>547.4</ele>
        <time>2015-05-17T11:35:18Z</time>
      </trkpt>
      <trkpt lat="45.48725" lon="5.68713">
        <ele>547.7</ele>
        <time>2015-05-17T11:35:20Z</time>
      </trkpt>
      <trkpt lat="45.48725" lon="5.68711">
        <ele>548</ele>
        <time>2015-05-17T11:35:27Z</time>
      </trkpt>
      <trkpt lat="45.4874" lon="5.68712">
        <ele>547.9</ele>
        <time>2015-05-17T11:35:32Z</time>
      </trkpt>
      <trkpt lat="45.4875" lon="5.68717">
        <ele>547.8</ele>
        <time>2015-05-17T11:35:34Z</time>
      </trkpt>
      <trkpt lat="45.4876" lon="5.68722">
        <ele>547.8</ele>
        <time>2015-05-17T11:35:36Z</time>
      </trkpt>
      <trkpt lat="45.48768" lon="5.68725">
        <ele>547.7</ele>
        <time>2015-05-17T11:35:38Z</time>
      </trkpt>
      <trkpt lat="45.48777" lon="5.68728">
        <ele>547.5</ele>
        <time>2015-05-17T11:35:40Z</time>
      </trkpt>
      <trkpt lat="45.48785" lon="5.6873">
        <ele>547.3</ele>
        <time>2015-05-17T11:35:42Z</time>
      </trkpt>
      <trkpt lat="45.48791" lon="5.68733">
        <ele>547</ele>
        <time>2015-05-17T11:35:44Z</time>
      </trkpt>
      <trkpt lat="45.48801" lon="5.68739">
        <ele>546.7</ele>
        <time>2015-05-17T11:35:47Z</time>
      </trkpt>
      <trkpt lat="45.48808" lon="5.68746">
        <ele>546.4</ele>
        <time>2015-05-17T11:35:50Z</time>
      </trkpt>
      <trkpt lat="45.48815" lon="5.68751">
        <ele>545.9</ele>
        <time>2015-05-17T11:35:53Z</time>
      </trkpt>
      <trkpt lat="45.48819" lon="5.68752">
        <ele>545</ele>
        <time>2015-05-17T11:36:00Z</time>
      </trkpt>
      <trkpt lat="45.48826" lon="5.68757">
        <ele>543.6</ele>
        <time>2015-05-17T11:36:06Z</time>
      </trkpt>
      <trkpt lat="45.48831" lon="5.68768">
        <ele>542.6</ele>
        <time>2015-05-17T11:36:10Z</time>
      </trkpt>
      <trkpt lat="45.48837" lon="5.68773">
        <ele>540.8</ele>
        <time>2015-05-17T11:36:16Z</time>
      </trkpt>
      <trkpt lat="45.48845" lon="5.68779">
        <ele>539.8</ele>
        <time>2015-05-17T11:36:19Z</time>
      </trkpt>
      <trkpt lat="45.4885" lon="5.68786">
        <ele>539.1</ele>
        <time>2015-05-17T11:36:21Z</time>
      </trkpt>
      <trkpt lat="45.48857" lon="5.68797">
        <ele>538.1</ele>
        <time>2015-05-17T11:36:24Z</time>
      </trkpt>
      <trkpt lat="45.48862" lon="5.68808">
        <ele>536.9</ele>
        <time>2015-05-17T11:36:27Z</time>
      </trkpt>
      <trkpt lat="45.48868" lon="5.68819">
        <ele>535.5</ele>
        <time>2015-05-17T11:36:30Z</time>
      </trkpt>
      <trkpt lat="45.48877" lon="5.68824">
        <ele>533.2</ele>
        <time>2015-05-17T11:36:36Z</time>
      </trkpt>
      <trkpt lat="45.48885" lon="5.68825">
        <ele>532.4</ele>
        <time>2015-05-17T11:36:38Z</time>
      </trkpt>
      <trkpt lat="45.48893" lon="5.68831">
        <ele>531.4</ele>
        <time>2015-05-17T11:36:41Z</time>
      </trkpt>
      <trkpt lat="45.48899" lon="5.68841">
        <ele>530.1</ele>
        <time>2015-05-17T11:36:44Z</time>
      </trkpt>
      <trkpt lat="45.48906" lon="5.68853">
        <ele>528.5</ele>
        <time>2015-05-17T11:36:48Z</time>
      </trkpt>
      <trkpt lat="45.48911" lon="5.68862">
        <ele>527.7</ele>
        <time>2015-05-17T11:36:50Z</time>
      </trkpt>
      <trkpt lat="45.48917" lon="5.68868">
        <ele>526.2</ele>
        <time>2015-05-17T11:36:53Z</time>
      </trkpt>
      <trkpt lat="45.48925" lon="5.68872">
        <ele>524.6</ele>
        <time>2015-05-17T11:36:56Z</time>
      </trkpt>
      <trkpt lat="45.48933" lon="5.68876">
        <ele>523.7</ele>
        <time>2015-05-17T11:36:58Z</time>
      </trkpt>
      <trkpt lat="45.4894" lon="5.68881">
        <ele>522.8</ele>
        <time>2015-05-17T11:37:00Z</time>
      </trkpt>
      <trkpt lat="45.48946" lon="5.68889">
        <ele>521.8</ele>
        <time>2015-05-17T11:37:02Z</time>
      </trkpt>
      <trkpt lat="45.48948" lon="5.68899">
        <ele>520.4</ele>
        <time>2015-05-17T11:37:05Z</time>
      </trkpt>
      <trkpt lat="45.48948" lon="5.68911">
        <ele>519.3</ele>
        <time>2015-05-17T11:37:08Z</time>
      </trkpt>
      <trkpt lat="45.48945" lon="5.68926">
        <ele>518</ele>
        <time>2015-05-17T11:37:11Z</time>
      </trkpt>
      <trkpt lat="45.48944" lon="5.68941">
        <ele>517</ele>
        <time>2015-05-17T11:37:13Z</time>
      </trkpt>
      <trkpt lat="45.48943" lon="5.68955">
        <ele>515.9</ele>
        <time>2015-05-17T11:37:15Z</time>
      </trkpt>
      <trkpt lat="45.4894" lon="5.68968">
        <ele>514.6</ele>
        <time>2015-05-17T11:37:17Z</time>
      </trkpt>
      <trkpt lat="45.48934" lon="5.68976">
        <ele>512.9</ele>
        <time>2015-05-17T11:37:20Z</time>
      </trkpt>
      <trkpt lat="45.4893" lon="5.68985">
        <ele>511.1</ele>
        <time>2015-05-17T11:37:23Z</time>
      </trkpt>
      <trkpt lat="45.48929" lon="5.68995">
        <ele>508.7</ele>
        <time>2015-05-17T11:37:27Z</time>
      </trkpt>
      <trkpt lat="45.48931" lon="5.69009">
        <ele>504.7</ele>
        <time>2015-05-17T11:37:34Z</time>
      </trkpt>
      <trkpt lat="45.48928" lon="5.69019">
        <ele>502.5</ele>
        <time>2015-05-17T11:37:40Z</time>
      </trkpt>
      <trkpt lat="45.48926" lon="5.69026">
        <ele>502.2</ele>
        <time>2015-05-17T11:37:47Z</time>
      </trkpt>
      <trkpt lat="45.48929" lon="5.69028">
        <ele>500.7</ele>
        <time>2015-05-17T11:37:59Z</time>
      </trkpt>
      <trkpt lat="45.48938" lon="5.69027">
        <ele>493.7</ele>
        <time>2015-05-17T11:38:22Z</time>
      </trkpt>
      <trkpt lat="45.48946" lon="5.6903">
        <ele>488.7</ele>
        <time>2015-05-17T11:38:24Z</time>
      </trkpt>
      <trkpt lat="45.48955" lon="5.6904">
        <ele>480.9</ele>
        <time>2015-05-17T11:38:26Z</time>
      </trkpt>
      <trkpt lat="45.48965" lon="5.69052">
        <ele>473.9</ele>
        <time>2015-05-17T11:38:28Z</time>
      </trkpt>
      <trkpt lat="45.48975" lon="5.69066">
        <ele>469.8</ele>
        <time>2015-05-17T11:38:30Z</time>
      </trkpt>
      <trkpt lat="45.48984" lon="5.69078">
        <ele>466.7</ele>
        <time>2015-05-17T11:38:32Z</time>
      </trkpt>
      <trkpt lat="45.48993" lon="5.69089">
        <ele>464</ele>
        <time>2015-05-17T11:38:34Z</time>
      </trkpt>
      <trkpt lat="45.49" lon="5.691">
        <ele>460.5</ele>
        <time>2015-05-17T11:38:36Z</time>
      </trkpt>
      <trkpt lat="45.49003" lon="5.69112">
        <ele>457.5</ele>
        <time>2015-05-17T11:38:38Z</time>
      </trkpt>
      <trkpt lat="45.49004" lon="5.69125">
        <ele>457.5</ele>
        <time>2015-05-17T11:38:41Z</time>
      </trkpt>
      <trkpt lat="45.49005" lon="5.69136">
        <ele>457.4</ele>
        <time>2015-05-17T11:38:44Z</time>
      </trkpt>
      <trkpt lat="45.49009" lon="5.69149">
        <ele>457.4</ele>
        <time>2015-05-17T11:38:47Z</time>
      </trkpt>
      <trkpt lat="45.49012" lon="5.69158">
        <ele>457.4</ele>
        <time>2015-05-17T11:38:49Z</time>
      </trkpt>
      <trkpt lat="45.49016" lon="5.69171">
        <ele>457.1</ele>
        <time>2015-05-17T11:38:52Z</time>
      </trkpt>
      <trkpt lat="45.49021" lon="5.69178">
        <ele>457.1</ele>
        <time>2015-05-17T11:38:55Z</time>
      </trkpt>
      <trkpt lat="45.49029" lon="5.69184">
        <ele>457.3</ele>
        <time>2015-05-17T11:38:58Z</time>
      </trkpt>
      <trkpt lat="45.49037" lon="5.69186">
        <ele>457.7</ele>
        <time>2015-05-17T11:39:01Z</time>
      </trkpt>
      <trkpt lat="45.49048" lon="5.69187">
        <ele>457.7</ele>
        <time>2015-05-17T11:39:04Z</time>
      </trkpt>
      <trkpt lat="45.49055" lon="5.69188">
        <ele>457.6</ele>
        <time>2015-05-17T11:39:06Z</time>
      </trkpt>
      <trkpt lat="45.49065" lon="5.69188">
        <ele>457.5</ele>
        <time>2015-05-17T11:39:09Z</time>
      </trkpt>
      <trkpt lat="45.49074" lon="5.69187">
        <ele>457.6</ele>
        <time>2015-05-17T11:39:13Z</time>
      </trkpt>
      <trkpt lat="45.49083" lon="5.69187">
        <ele>457.6</ele>
        <time>2015-05-17T11:39:15Z</time>
      </trkpt>
      <trkpt lat="45.49094" lon="5.69187">
        <ele>457.6</ele>
        <time>2015-05-17T11:39:18Z</time>
      </trkpt>
      <trkpt lat="45.491" lon="5.69196">
        <ele>456.8</ele>
        <time>2015-05-17T11:39:21Z</time>
      </trkpt>
      <trkpt lat="45.49097" lon="5.69207">
        <ele>455.7</ele>
        <time>2015-05-17T11:39:23Z</time>
      </trkpt>
      <trkpt lat="45.49092" lon="5.69218">
        <ele>454.9</ele>
        <time>2015-05-17T11:39:25Z</time>
      </trkpt>
      <trkpt lat="45.49089" lon="5.69234">
        <ele>454.1</ele>
        <time>2015-05-17T11:39:27Z</time>
      </trkpt>
      <trkpt lat="45.49087" lon="5.6925">
        <ele>453.4</ele>
        <time>2015-05-17T11:39:29Z</time>
      </trkpt>
      <trkpt lat="45.49087" lon="5.6927">
        <ele>452.8</ele>
        <time>2015-05-17T11:39:31Z</time>
      </trkpt>
      <trkpt lat="45.49087" lon="5.69289">
        <ele>451.8</ele>
        <time>2015-05-17T11:39:33Z</time>
      </trkpt>
      <trkpt lat="45.49087" lon="5.69301">
        <ele>451</ele>
        <time>2015-05-17T11:39:34Z</time>
      </trkpt>
      <trkpt lat="45.49087" lon="5.69313">
        <ele>450.4</ele>
        <time>2015-05-17T11:39:35Z</time>
      </trkpt>
      <trkpt lat="45.49088" lon="5.69325">
        <ele>450</ele>
        <time>2015-05-17T11:39:36Z</time>
      </trkpt>
      <trkpt lat="45.49088" lon="5.69336">
        <ele>449.5</ele>
        <time>2015-05-17T11:39:37Z</time>
      </trkpt>
      <trkpt lat="45.49088" lon="5.69349">
        <ele>448.9</ele>
        <time>2015-05-17T11:39:38Z</time>
      </trkpt>
      <trkpt lat="45.49089" lon="5.69363">
        <ele>448</ele>
        <time>2015-05-17T11:39:39Z</time>
      </trkpt>
      <trkpt lat="45.49089" lon="5.69375">
        <ele>447.3</ele>
        <time>2015-05-17T11:39:40Z</time>
      </trkpt>
      <trkpt lat="45.4909" lon="5.69388">
        <ele>446.8</ele>
        <time>2015-05-17T11:39:41Z</time>
      </trkpt>
      <trkpt lat="45.49091" lon="5.69402">
        <ele>446.3</ele>
        <time>2015-05-17T11:39:42Z</time>
      </trkpt>
      <trkpt lat="45.49092" lon="5.69415">
        <ele>445.9</ele>
        <time>2015-05-17T11:39:43Z</time>
      </trkpt>
      <trkpt lat="45.49092" lon="5.69429">
        <ele>445.5</ele>
        <time>2015-05-17T11:39:44Z</time>
      </trkpt>
      <trkpt lat="45.49093" lon="5.69444">
        <ele>445</ele>
        <time>2015-05-17T11:39:45Z</time>
      </trkpt>
      <trkpt lat="45.49095" lon="5.69458">
        <ele>444.4</ele>
        <time>2015-05-17T11:39:46Z</time>
      </trkpt>
      <trkpt lat="45.49096" lon="5.69471">
        <ele>443.5</ele>
        <time>2015-05-17T11:39:47Z</time>
      </trkpt>
      <trkpt lat="45.49098" lon="5.6949">
        <ele>441.7</ele>
        <time>2015-05-17T11:39:49Z</time>
      </trkpt>
      <trkpt lat="45.49101" lon="5.69506">
        <ele>440.3</ele>
        <time>2015-05-17T11:39:51Z</time>
      </trkpt>
      <trkpt lat="45.49102" lon="5.69517">
        <ele>440.2</ele>
        <time>2015-05-17T11:39:53Z</time>
      </trkpt>
      <trkpt lat="45.49094" lon="5.69527">
        <ele>437.9</ele>
        <time>2015-05-17T11:39:56Z</time>
      </trkpt>
      <trkpt lat="45.49084" lon="5.69533">
        <ele>437.1</ele>
        <time>2015-05-17T11:39:58Z</time>
      </trkpt>
      <trkpt lat="45.49074" lon="5.69542">
        <ele>436.6</ele>
        <time>2015-05-17T11:40:00Z</time>
      </trkpt>
      <trkpt lat="45.49063" lon="5.69553">
        <ele>436.3</ele>
        <time>2015-05-17T11:40:02Z</time>
      </trkpt>
      <trkpt lat="45.49056" lon="5.6956">
        <ele>435.9</ele>
        <time>2015-05-17T11:40:03Z</time>
      </trkpt>
      <trkpt lat="45.4905" lon="5.69567">
        <ele>435.5</ele>
        <time>2015-05-17T11:40:04Z</time>
      </trkpt>
      <trkpt lat="45.49044" lon="5.69574">
        <ele>434.8</ele>
        <time>2015-05-17T11:40:05Z</time>
      </trkpt>
      <trkpt lat="45.49038" lon="5.69581">
        <ele>434</ele>
        <time>2015-05-17T11:40:06Z</time>
      </trkpt>
      <trkpt lat="45.49028" lon="5.69592">
        <ele>433</ele>
        <time>2015-05-17T11:40:08Z</time>
      </trkpt>
      <trkpt lat="45.49018" lon="5.69603">
        <ele>432.4</ele>
        <time>2015-05-17T11:40:10Z</time>
      </trkpt>
      <trkpt lat="45.49011" lon="5.69613">
        <ele>432.3</ele>
        <time>2015-05-17T11:40:12Z</time>
      </trkpt>
      <trkpt lat="45.49002" lon="5.69621">
        <ele>432.5</ele>
        <time>2015-05-17T11:40:14Z</time>
      </trkpt>
      <trkpt lat="45.48991" lon="5.69624">
        <ele>432.9</ele>
        <time>2015-05-17T11:40:16Z</time>
      </trkpt>
      <trkpt lat="45.4898" lon="5.69626">
        <ele>432.5</ele>
        <time>2015-05-17T11:40:18Z</time>
      </trkpt>
      <trkpt lat="45.4897" lon="5.69628">
        <ele>431.9</ele>
        <time>2015-05-17T11:40:20Z</time>
      </trkpt>
      <trkpt lat="45.4896" lon="5.6963">
        <ele>431.9</ele>
        <time>2015-05-17T11:40:22Z</time>
      </trkpt>
      <trkpt lat="45.4895" lon="5.69633">
        <ele>432.3</ele>
        <time>2015-05-17T11:40:24Z</time>
      </trkpt>
      <trkpt lat="45.48939" lon="5.69638">
        <ele>432.6</ele>
        <time>2015-05-17T11:40:26Z</time>
      </trkpt>
      <trkpt lat="45.48932" lon="5.69644">
        <ele>432.9</ele>
        <time>2015-05-17T11:40:28Z</time>
      </trkpt>
      <trkpt lat="45.48925" lon="5.69651">
        <ele>434.2</ele>
        <time>2015-05-17T11:40:30Z</time>
      </trkpt>
      <trkpt lat="45.48917" lon="5.69657">
        <ele>436.2</ele>
        <time>2015-05-17T11:40:32Z</time>
      </trkpt>
      <trkpt lat="45.4891" lon="5.69661">
        <ele>437.9</ele>
        <time>2015-05-17T11:40:34Z</time>
      </trkpt>
      <trkpt lat="45.48902" lon="5.69664">
        <ele>437.4</ele>
        <time>2015-05-17T11:40:36Z</time>
      </trkpt>
      <trkpt lat="45.48892" lon="5.69667">
        <ele>437.7</ele>
        <time>2015-05-17T11:40:39Z</time>
      </trkpt>
      <trkpt lat="45.48881" lon="5.69668">
        <ele>438.4</ele>
        <time>2015-05-17T11:40:41Z</time>
      </trkpt>
      <trkpt lat="45.48872" lon="5.69671">
        <ele>439.2</ele>
        <time>2015-05-17T11:40:43Z</time>
      </trkpt>
      <trkpt lat="45.48864" lon="5.69673">
        <ele>439.3</ele>
        <time>2015-05-17T11:40:45Z</time>
      </trkpt>
      <trkpt lat="45.48853" lon="5.69674">
        <ele>440.7</ele>
        <time>2015-05-17T11:40:47Z</time>
      </trkpt>
      <trkpt lat="45.48845" lon="5.69677">
        <ele>440.7</ele>
        <time>2015-05-17T11:40:49Z</time>
      </trkpt>
      <trkpt lat="45.48835" lon="5.69678">
        <ele>440.5</ele>
        <time>2015-05-17T11:40:51Z</time>
      </trkpt>
      <trkpt lat="45.48826" lon="5.69676">
        <ele>439.8</ele>
        <time>2015-05-17T11:40:53Z</time>
      </trkpt>
      <trkpt lat="45.48815" lon="5.69673">
        <ele>440.5</ele>
        <time>2015-05-17T11:40:55Z</time>
      </trkpt>
      <trkpt lat="45.48805" lon="5.69671">
        <ele>441.1</ele>
        <time>2015-05-17T11:40:57Z</time>
      </trkpt>
      <trkpt lat="45.48796" lon="5.69666">
        <ele>441.2</ele>
        <time>2015-05-17T11:41:00Z</time>
      </trkpt>
      <trkpt lat="45.48788" lon="5.6966">
        <ele>441.3</ele>
        <time>2015-05-17T11:41:03Z</time>
      </trkpt>
      <trkpt lat="45.48781" lon="5.69655">
        <ele>441.3</ele>
        <time>2015-05-17T11:41:06Z</time>
      </trkpt>
      <trkpt lat="45.48773" lon="5.69651">
        <ele>441.3</ele>
        <time>2015-05-17T11:41:08Z</time>
      </trkpt>
      <trkpt lat="45.48765" lon="5.69647">
        <ele>441.4</ele>
        <time>2015-05-17T11:41:10Z</time>
      </trkpt>
      <trkpt lat="45.48756" lon="5.69646">
        <ele>441.2</ele>
        <time>2015-05-17T11:41:13Z</time>
      </trkpt>
      <trkpt lat="45.48747" lon="5.69644">
        <ele>441.1</ele>
        <time>2015-05-17T11:41:15Z</time>
      </trkpt>
      <trkpt lat="45.48737" lon="5.69641">
        <ele>441.1</ele>
        <time>2015-05-17T11:41:18Z</time>
      </trkpt>
      <trkpt lat="45.4873" lon="5.6964">
        <ele>441.4</ele>
        <time>2015-05-17T11:41:22Z</time>
      </trkpt>
      <trkpt lat="45.48722" lon="5.69641">
        <ele>442.2</ele>
        <time>2015-05-17T11:41:26Z</time>
      </trkpt>
      <trkpt lat="45.48713" lon="5.69641">
        <ele>443</ele>
        <time>2015-05-17T11:41:30Z</time>
      </trkpt>
      <trkpt lat="45.48706" lon="5.6964">
        <ele>443.8</ele>
        <time>2015-05-17T11:41:33Z</time>
      </trkpt>
      <trkpt lat="45.48698" lon="5.69638">
        <ele>445.1</ele>
        <time>2015-05-17T11:41:38Z</time>
      </trkpt>
      <trkpt lat="45.48689" lon="5.69634">
        <ele>445.9</ele>
        <time>2015-05-17T11:41:42Z</time>
      </trkpt>
      <trkpt lat="45.4868" lon="5.69628">
        <ele>446.6</ele>
        <time>2015-05-17T11:41:45Z</time>
      </trkpt>
      <trkpt lat="45.48673" lon="5.69623">
        <ele>447.1</ele>
        <time>2015-05-17T11:41:47Z</time>
      </trkpt>
      <trkpt lat="45.48664" lon="5.69615">
        <ele>447.5</ele>
        <time>2015-05-17T11:41:49Z</time>
      </trkpt>
      <trkpt lat="45.48657" lon="5.69609">
        <ele>447.8</ele>
        <time>2015-05-17T11:41:50Z</time>
      </trkpt>
      <trkpt lat="45.48645" lon="5.69603">
        <ele>448.4</ele>
        <time>2015-05-17T11:41:52Z</time>
      </trkpt>
      <trkpt lat="45.48632" lon="5.69598">
        <ele>452.7</ele>
        <time>2015-05-17T11:41:54Z</time>
      </trkpt>
      <trkpt lat="45.4862" lon="5.69585">
        <ele>457.1</ele>
        <time>2015-05-17T11:41:56Z</time>
      </trkpt>
      <trkpt lat="45.48613" lon="5.69579">
        <ele>457.8</ele>
        <time>2015-05-17T11:41:57Z</time>
      </trkpt>
      <trkpt lat="45.48603" lon="5.69569">
        <ele>458.9</ele>
        <time>2015-05-17T11:41:59Z</time>
      </trkpt>
      <trkpt lat="45.48591" lon="5.69563">
        <ele>458.8</ele>
        <time>2015-05-17T11:42:01Z</time>
      </trkpt>
      <trkpt lat="45.48579" lon="5.69563">
        <ele>458.1</ele>
        <time>2015-05-17T11:42:03Z</time>
      </trkpt>
      <trkpt lat="45.48567" lon="5.69564">
        <ele>458.5</ele>
        <time>2015-05-17T11:42:05Z</time>
      </trkpt>
      <trkpt lat="45.48554" lon="5.6956">
        <ele>459.6</ele>
        <time>2015-05-17T11:42:07Z</time>
      </trkpt>
      <trkpt lat="45.48546" lon="5.69556">
        <ele>459.5</ele>
        <time>2015-05-17T11:42:08Z</time>
      </trkpt>
      <trkpt lat="45.48539" lon="5.6955">
        <ele>459</ele>
        <time>2015-05-17T11:42:09Z</time>
      </trkpt>
      <trkpt lat="45.48534" lon="5.69543">
        <ele>458.6</ele>
        <time>2015-05-17T11:42:10Z</time>
      </trkpt>
      <trkpt lat="45.48521" lon="5.69532">
        <ele>456.3</ele>
        <time>2015-05-17T11:42:12Z</time>
      </trkpt>
      <trkpt lat="45.48512" lon="5.69518">
        <ele>453.2</ele>
        <time>2015-05-17T11:42:14Z</time>
      </trkpt>
      <trkpt lat="45.48507" lon="5.69508">
        <ele>451.6</ele>
        <time>2015-05-17T11:42:15Z</time>
      </trkpt>
      <trkpt lat="45.485" lon="5.69496">
        <ele>450</ele>
        <time>2015-05-17T11:42:17Z</time>
      </trkpt>
      <trkpt lat="45.48494" lon="5.69484">
        <ele>449.6</ele>
        <time>2015-05-17T11:42:19Z</time>
      </trkpt>
      <trkpt lat="45.48485" lon="5.69474">
        <ele>447.1</ele>
        <time>2015-05-17T11:42:22Z</time>
      </trkpt>
      <trkpt lat="45.48477" lon="5.69469">
        <ele>442.7</ele>
        <time>2015-05-17T11:42:24Z</time>
      </trkpt>
      <trkpt lat="45.48467" lon="5.6946">
        <ele>440.4</ele>
        <time>2015-05-17T11:42:26Z</time>
      </trkpt>
      <trkpt lat="45.48458" lon="5.69451">
        <ele>437.9</ele>
        <time>2015-05-17T11:42:28Z</time>
      </trkpt>
      <trkpt lat="45.4845" lon="5.69442">
        <ele>434.6</ele>
        <time>2015-05-17T11:42:30Z</time>
      </trkpt>
      <trkpt lat="45.48445" lon="5.69435">
        <ele>434.4</ele>
        <time>2015-05-17T11:42:32Z</time>
      </trkpt>
      <trkpt lat="45.48438" lon="5.69429">
        <ele>434.1</ele>
        <time>2015-05-17T11:42:34Z</time>
      </trkpt>
      <trkpt lat="45.4843" lon="5.69423">
        <ele>433.5</ele>
        <time>2015-05-17T11:42:36Z</time>
      </trkpt>
      <trkpt lat="45.48422" lon="5.69417">
        <ele>428.9</ele>
        <time>2015-05-17T11:42:38Z</time>
      </trkpt>
      <trkpt lat="45.48412" lon="5.69412">
        <ele>428.1</ele>
        <time>2015-05-17T11:42:41Z</time>
      </trkpt>
      <trkpt lat="45.48401" lon="5.69407">
        <ele>424.7</ele>
        <time>2015-05-17T11:42:44Z</time>
      </trkpt>
      <trkpt lat="45.48394" lon="5.69403">
        <ele>422.5</ele>
        <time>2015-05-17T11:42:45Z</time>
      </trkpt>
      <trkpt lat="45.48387" lon="5.69398">
        <ele>420.4</ele>
        <time>2015-05-17T11:42:46Z</time>
      </trkpt>
      <trkpt lat="45.4838" lon="5.69391">
        <ele>418.5</ele>
        <time>2015-05-17T11:42:47Z</time>
      </trkpt>
      <trkpt lat="45.48372" lon="5.69386">
        <ele>416.9</ele>
        <time>2015-05-17T11:42:48Z</time>
      </trkpt>
      <trkpt lat="45.48365" lon="5.69379">
        <ele>415</ele>
        <time>2015-05-17T11:42:49Z</time>
      </trkpt>
      <trkpt lat="45.48358" lon="5.69372">
        <ele>413.6</ele>
        <time>2015-05-17T11:42:50Z</time>
      </trkpt>
      <trkpt lat="45.48352" lon="5.69366">
        <ele>412.4</ele>
        <time>2015-05-17T11:42:51Z</time>
      </trkpt>
      <trkpt lat="45.48345" lon="5.69358">
        <ele>411.1</ele>
        <time>2015-05-17T11:42:52Z</time>
      </trkpt>
      <trkpt lat="45.48339" lon="5.69349">
        <ele>409.6</ele>
        <time>2015-05-17T11:42:53Z</time>
      </trkpt>
      <trkpt lat="45.48332" lon="5.6934">
        <ele>408.5</ele>
        <time>2015-05-17T11:42:54Z</time>
      </trkpt>
      <trkpt lat="45.48326" lon="5.69332">
        <ele>407</ele>
        <time>2015-05-17T11:42:55Z</time>
      </trkpt>
      <trkpt lat="45.48319" lon="5.69323">
        <ele>405.2</ele>
        <time>2015-05-17T11:42:56Z</time>
      </trkpt>
      <trkpt lat="45.48311" lon="5.69316">
        <ele>403.5</ele>
        <time>2015-05-17T11:42:57Z</time>
      </trkpt>
      <trkpt lat="45.48304" lon="5.69309">
        <ele>401.8</ele>
        <time>2015-05-17T11:42:58Z</time>
      </trkpt>
      <trkpt lat="45.48297" lon="5.69302">
        <ele>400.3</ele>
        <time>2015-05-17T11:42:59Z</time>
      </trkpt>
      <trkpt lat="45.48288" lon="5.69296">
        <ele>399.5</ele>
        <time>2015-05-17T11:43:00Z</time>
      </trkpt>
      <trkpt lat="45.48278" lon="5.6929">
        <ele>399</ele>
        <time>2015-05-17T11:43:01Z</time>
      </trkpt>
      <trkpt lat="45.48269" lon="5.69283">
        <ele>398.5</ele>
        <time>2015-05-17T11:43:02Z</time>
      </trkpt>
      <trkpt lat="45.48261" lon="5.69279">
        <ele>398.1</ele>
        <time>2015-05-17T11:43:03Z</time>
      </trkpt>
      <trkpt lat="45.48253" lon="5.69274">
        <ele>397.7</ele>
        <time>2015-05-17T11:43:04Z</time>
      </trkpt>
      <trkpt lat="45.48244" lon="5.69268">
        <ele>397.4</ele>
        <time>2015-05-17T11:43:05Z</time>
      </trkpt>
      <trkpt lat="45.48236" lon="5.69263">
        <ele>396.9</ele>
        <time>2015-05-17T11:43:06Z</time>
      </trkpt>
      <trkpt lat="45.48227" lon="5.69258">
        <ele>396.6</ele>
        <time>2015-05-17T11:43:07Z</time>
      </trkpt>
      <trkpt lat="45.48217" lon="5.69252">
        <ele>396</ele>
        <time>2015-05-17T11:43:08Z</time>
      </trkpt>
      <trkpt lat="45.48209" lon="5.69247">
        <ele>395.1</ele>
        <time>2015-05-17T11:43:09Z</time>
      </trkpt>
      <trkpt lat="45.482" lon="5.69243">
        <ele>394.4</ele>
        <time>2015-05-17T11:43:10Z</time>
      </trkpt>
      <trkpt lat="45.48191" lon="5.69239">
        <ele>393.6</ele>
        <time>2015-05-17T11:43:11Z</time>
      </trkpt>
      <trkpt lat="45.48181" lon="5.69235">
        <ele>392.3</ele>
        <time>2015-05-17T11:43:12Z</time>
      </trkpt>
      <trkpt lat="45.48173" lon="5.69232">
        <ele>390.9</ele>
        <time>2015-05-17T11:43:13Z</time>
      </trkpt>
      <trkpt lat="45.48165" lon="5.69229">
        <ele>389.7</ele>
        <time>2015-05-17T11:43:14Z</time>
      </trkpt>
      <trkpt lat="45.48158" lon="5.69226">
        <ele>388.3</ele>
        <time>2015-05-17T11:43:15Z</time>
      </trkpt>
      <trkpt lat="45.48149" lon="5.69222">
        <ele>386.3</ele>
        <time>2015-05-17T11:43:17Z</time>
      </trkpt>
      <trkpt lat="45.4814" lon="5.69217">
        <ele>386.1</ele>
        <time>2015-05-17T11:43:19Z</time>
      </trkpt>
      <trkpt lat="45.48133" lon="5.6921">
        <ele>385.3</ele>
        <time>2015-05-17T11:43:21Z</time>
      </trkpt>
      <trkpt lat="45.48126" lon="5.69202">
        <ele>383.8</ele>
        <time>2015-05-17T11:43:23Z</time>
      </trkpt>
      <trkpt lat="45.48121" lon="5.69194">
        <ele>383.4</ele>
        <time>2015-05-17T11:43:25Z</time>
      </trkpt>
      <trkpt lat="45.48117" lon="5.69185">
        <ele>383.4</ele>
        <time>2015-05-17T11:43:30Z</time>
      </trkpt>
      <trkpt lat="45.4811" lon="5.69175">
        <ele>383.6</ele>
        <time>2015-05-17T11:43:34Z</time>
      </trkpt>
      <trkpt lat="45.48102" lon="5.69166">
        <ele>385</ele>
        <time>2015-05-17T11:43:36Z</time>
      </trkpt>
      <trkpt lat="45.48094" lon="5.69155">
        <ele>385.2</ele>
        <time>2015-05-17T11:43:38Z</time>
      </trkpt>
      <trkpt lat="45.48087" lon="5.69144">
        <ele>385.3</ele>
        <time>2015-05-17T11:43:40Z</time>
      </trkpt>
      <trkpt lat="45.48078" lon="5.69133">
        <ele>385.7</ele>
        <time>2015-05-17T11:43:42Z</time>
      </trkpt>
      <trkpt lat="45.4807" lon="5.69122">
        <ele>386.2</ele>
        <time>2015-05-17T11:43:44Z</time>
      </trkpt>
      <trkpt lat="45.48061" lon="5.69114">
        <ele>386.4</ele>
        <time>2015-05-17T11:43:46Z</time>
      </trkpt>
      <trkpt lat="45.48053" lon="5.69107">
        <ele>386.4</ele>
        <time>2015-05-17T11:43:48Z</time>
      </trkpt>
      <trkpt lat="45.48043" lon="5.69102">
        <ele>386.3</ele>
        <time>2015-05-17T11:43:50Z</time>
      </trkpt>
      <trkpt lat="45.48034" lon="5.69099">
        <ele>385.4</ele>
        <time>2015-05-17T11:43:52Z</time>
      </trkpt>
      <trkpt lat="45.48023" lon="5.69098">
        <ele>384.6</ele>
        <time>2015-05-17T11:43:54Z</time>
      </trkpt>
      <trkpt lat="45.48012" lon="5.69098">
        <ele>384</ele>
        <time>2015-05-17T11:43:56Z</time>
      </trkpt>
      <trkpt lat="45.48" lon="5.69097">
        <ele>383.6</ele>
        <time>2015-05-17T11:43:58Z</time>
      </trkpt>
      <trkpt lat="45.47989" lon="5.69097">
        <ele>382.9</ele>
        <time>2015-05-17T11:44:00Z</time>
      </trkpt>
      <trkpt lat="45.47979" lon="5.69096">
        <ele>382.6</ele>
        <time>2015-05-17T11:44:02Z</time>
      </trkpt>
      <trkpt lat="45.47967" lon="5.69096">
        <ele>382.7</ele>
        <time>2015-05-17T11:44:04Z</time>
      </trkpt>
      <trkpt lat="45.47956" lon="5.69095">
        <ele>383.3</ele>
        <time>2015-05-17T11:44:06Z</time>
      </trkpt>
      <trkpt lat="45.47946" lon="5.69095">
        <ele>384.6</ele>
        <time>2015-05-17T11:44:08Z</time>
      </trkpt>
      <trkpt lat="45.47935" lon="5.69094">
        <ele>386</ele>
        <time>2015-05-17T11:44:10Z</time>
      </trkpt>
      <trkpt lat="45.47924" lon="5.69092">
        <ele>387.5</ele>
        <time>2015-05-17T11:44:12Z</time>
      </trkpt>
      <trkpt lat="45.47914" lon="5.69088">
        <ele>388.4</ele>
        <time>2015-05-17T11:44:14Z</time>
      </trkpt>
      <trkpt lat="45.47905" lon="5.69083">
        <ele>388.7</ele>
        <time>2015-05-17T11:44:16Z</time>
      </trkpt>
      <trkpt lat="45.47895" lon="5.69078">
        <ele>387.8</ele>
        <time>2015-05-17T11:44:18Z</time>
      </trkpt>
      <trkpt lat="45.47885" lon="5.69074">
        <ele>387.7</ele>
        <time>2015-05-17T11:44:20Z</time>
      </trkpt>
      <trkpt lat="45.47875" lon="5.69069">
        <ele>388.1</ele>
        <time>2015-05-17T11:44:22Z</time>
      </trkpt>
      <trkpt lat="45.47865" lon="5.69064">
        <ele>388</ele>
        <time>2015-05-17T11:44:24Z</time>
      </trkpt>
      <trkpt lat="45.47856" lon="5.69058">
        <ele>388.6</ele>
        <time>2015-05-17T11:44:26Z</time>
      </trkpt>
      <trkpt lat="45.47849" lon="5.6905">
        <ele>388.8</ele>
        <time>2015-05-17T11:44:28Z</time>
      </trkpt>
      <trkpt lat="45.47841" lon="5.69045">
        <ele>388.1</ele>
        <time>2015-05-17T11:44:30Z</time>
      </trkpt>
      <trkpt lat="45.47829" lon="5.69043">
        <ele>386.7</ele>
        <time>2015-05-17T11:44:32Z</time>
      </trkpt>
      <trkpt lat="45.47818" lon="5.69042">
        <ele>386.4</ele>
        <time>2015-05-17T11:44:34Z</time>
      </trkpt>
      <trkpt lat="45.47808" lon="5.69039">
        <ele>386.2</ele>
        <time>2015-05-17T11:44:36Z</time>
      </trkpt>
      <trkpt lat="45.478" lon="5.69033">
        <ele>385.5</ele>
        <time>2015-05-17T11:44:38Z</time>
      </trkpt>
      <trkpt lat="45.47791" lon="5.69029">
        <ele>385</ele>
        <time>2015-05-17T11:44:40Z</time>
      </trkpt>
      <trkpt lat="45.4778" lon="5.69025">
        <ele>384.7</ele>
        <time>2015-05-17T11:44:42Z</time>
      </trkpt>
      <trkpt lat="45.47773" lon="5.69022">
        <ele>384.7</ele>
        <time>2015-05-17T11:44:44Z</time>
      </trkpt>
      <trkpt lat="45.47763" lon="5.69018">
        <ele>384.8</ele>
        <time>2015-05-17T11:44:46Z</time>
      </trkpt>
      <trkpt lat="45.47751" lon="5.69014">
        <ele>385.2</ele>
        <time>2015-05-17T11:44:48Z</time>
      </trkpt>
      <trkpt lat="45.47739" lon="5.69011">
        <ele>385</ele>
        <time>2015-05-17T11:44:50Z</time>
      </trkpt>
      <trkpt lat="45.47727" lon="5.69006">
        <ele>384.8</ele>
        <time>2015-05-17T11:44:52Z</time>
      </trkpt>
      <trkpt lat="45.47715" lon="5.69002">
        <ele>384</ele>
        <time>2015-05-17T11:44:54Z</time>
      </trkpt>
      <trkpt lat="45.47704" lon="5.68997">
        <ele>383.9</ele>
        <time>2015-05-17T11:44:56Z</time>
      </trkpt>
      <trkpt lat="45.47694" lon="5.68992">
        <ele>383.7</ele>
        <time>2015-05-17T11:44:58Z</time>
      </trkpt>
      <trkpt lat="45.47685" lon="5.68986">
        <ele>382.6</ele>
        <time>2015-05-17T11:45:00Z</time>
      </trkpt>
      <trkpt lat="45.47675" lon="5.68978">
        <ele>381.5</ele>
        <time>2015-05-17T11:45:02Z</time>
      </trkpt>
      <trkpt lat="45.47666" lon="5.68971">
        <ele>381</ele>
        <time>2015-05-17T11:45:04Z</time>
      </trkpt>
      <trkpt lat="45.47658" lon="5.68963">
        <ele>381.1</ele>
        <time>2015-05-17T11:45:06Z</time>
      </trkpt>
      <trkpt lat="45.47649" lon="5.68955">
        <ele>381.4</ele>
        <time>2015-05-17T11:45:08Z</time>
      </trkpt>
      <trkpt lat="45.47641" lon="5.68949">
        <ele>381.9</ele>
        <time>2015-05-17T11:45:10Z</time>
      </trkpt>
      <trkpt lat="45.47632" lon="5.68943">
        <ele>382.4</ele>
        <time>2015-05-17T11:45:12Z</time>
      </trkpt>
      <trkpt lat="45.47622" lon="5.6894">
        <ele>383.2</ele>
        <time>2015-05-17T11:45:14Z</time>
      </trkpt>
      <trkpt lat="45.47612" lon="5.68939">
        <ele>384.3</ele>
        <time>2015-05-17T11:45:16Z</time>
      </trkpt>
      <trkpt lat="45.47602" lon="5.68935">
        <ele>385.4</ele>
        <time>2015-05-17T11:45:18Z</time>
      </trkpt>
      <trkpt lat="45.47592" lon="5.68929">
        <ele>386.2</ele>
        <time>2015-05-17T11:45:20Z</time>
      </trkpt>
      <trkpt lat="45.47584" lon="5.6892">
        <ele>386.8</ele>
        <time>2015-05-17T11:45:22Z</time>
      </trkpt>
      <trkpt lat="45.47575" lon="5.68917">
        <ele>386.6</ele>
        <time>2015-05-17T11:45:24Z</time>
      </trkpt>
      <trkpt lat="45.47566" lon="5.68919">
        <ele>386.2</ele>
        <time>2015-05-17T11:45:28Z</time>
      </trkpt>
      <trkpt lat="45.47561" lon="5.68908">
        <ele>384.9</ele>
        <time>2015-05-17T11:45:30Z</time>
      </trkpt>
      <trkpt lat="45.47558" lon="5.68895">
        <ele>384.6</ele>
        <time>2015-05-17T11:45:32Z</time>
      </trkpt>
      <trkpt lat="45.47553" lon="5.68884">
        <ele>383.4</ele>
        <time>2015-05-17T11:45:34Z</time>
      </trkpt>
      <trkpt lat="45.47547" lon="5.68876">
        <ele>383.3</ele>
        <time>2015-05-17T11:45:36Z</time>
      </trkpt>
      <trkpt lat="45.47538" lon="5.68873">
        <ele>383.9</ele>
        <time>2015-05-17T11:45:38Z</time>
      </trkpt>
      <trkpt lat="45.47526" lon="5.68869">
        <ele>384.1</ele>
        <time>2015-05-17T11:45:40Z</time>
      </trkpt>
      <trkpt lat="45.47519" lon="5.68871">
        <ele>383.9</ele>
        <time>2015-05-17T11:45:41Z</time>
      </trkpt>
      <trkpt lat="45.47508" lon="5.68879">
        <ele>384</ele>
        <time>2015-05-17T11:45:43Z</time>
      </trkpt>
      <trkpt lat="45.47497" lon="5.68885">
        <ele>381.7</ele>
        <time>2015-05-17T11:45:45Z</time>
      </trkpt>
      <trkpt lat="45.47487" lon="5.68891">
        <ele>381.8</ele>
        <time>2015-05-17T11:45:47Z</time>
      </trkpt>
      <trkpt lat="45.47478" lon="5.68896">
        <ele>382.9</ele>
        <time>2015-05-17T11:45:49Z</time>
      </trkpt>
      <trkpt lat="45.47468" lon="5.689">
        <ele>383.6</ele>
        <time>2015-05-17T11:45:51Z</time>
      </trkpt>
      <trkpt lat="45.47459" lon="5.68904">
        <ele>383.8</ele>
        <time>2015-05-17T11:45:53Z</time>
      </trkpt>
      <trkpt lat="45.4745" lon="5.68907">
        <ele>383.7</ele>
        <time>2015-05-17T11:45:56Z</time>
      </trkpt>
      <trkpt lat="45.47443" lon="5.6891">
        <ele>383.7</ele>
        <time>2015-05-17T11:46:01Z</time>
      </trkpt>
      <trkpt lat="45.47435" lon="5.68911">
        <ele>383.7</ele>
        <time>2015-05-17T11:46:06Z</time>
      </trkpt>
      <trkpt lat="45.47428" lon="5.68911">
        <ele>383.4</ele>
        <time>2015-05-17T11:46:10Z</time>
      </trkpt>
      <trkpt lat="45.4742" lon="5.68914">
        <ele>383.2</ele>
        <time>2015-05-17T11:46:15Z</time>
      </trkpt>
      <trkpt lat="45.47418" lon="5.68915">
        <ele>383.1</ele>
        <time>2015-05-17T11:46:22Z</time>
      </trkpt>
      <trkpt lat="45.47418" lon="5.68901">
        <ele>382.9</ele>
        <time>2015-05-17T11:47:45Z</time>
      </trkpt>
      <trkpt lat="45.47426" lon="5.68898">
        <ele>382.9</ele>
        <time>2015-05-17T11:47:52Z</time>
      </trkpt>
      <trkpt lat="45.47432" lon="5.68899">
        <ele>381.6</ele>
        <time>2015-05-17T11:51:01Z</time>
      </trkpt>
      <trkpt lat="45.47435" lon="5.689">
        <ele>381.6</ele>
        <time>2015-05-17T11:51:26Z</time>
      </trkpt>
      <trkpt lat="45.47433" lon="5.68907">
        <ele>381.3</ele>
        <time>2015-05-17T11:51:19Z</time>
      </trkpt>
      <trkpt lat="45.47433" lon="5.68908">
        <ele>381.5</ele>
        <time>2015-05-17T11:52:31Z</time>
      </trkpt>
      <trkpt lat="45.47427" lon="5.68914">
        <ele>381.5</ele>
        <time>2015-05-17T11:52:38Z</time>
      </trkpt>
      <trkpt lat="45.47421" lon="5.68918">
        <ele>381.3</ele>
        <time>2015-05-17T11:52:45Z</time>
      </trkpt>
      <trkpt lat="45.4742" lon="5.68918">
        <ele>381.2</ele>
        <time>2015-05-17T11:52:52Z</time>
      </trkpt>
      <trkpt lat="45.47419" lon="5.6892">
        <ele>380.9</ele>
        <time>2015-05-17T11:53:01Z</time>
      </trkpt>
      <trkpt lat="45.4741" lon="5.68919">
        <ele>380.6</ele>
        <time>2015-05-17T11:53:57Z</time>
      </trkpt>
      <trkpt lat="45.47402" lon="5.68917">
        <ele>380.7</ele>
        <time>2015-05-17T11:54:01Z</time>
      </trkpt>
      <trkpt lat="45.47399" lon="5.68906">
        <ele>381</ele>
        <time>2015-05-17T11:54:07Z</time>
      </trkpt>
      <trkpt lat="45.47396" lon="5.68897">
        <ele>381.2</ele>
        <time>2015-05-17T11:54:11Z</time>
      </trkpt>
      <trkpt lat="45.47397" lon="5.68886">
        <ele>381.5</ele>
        <time>2015-05-17T11:54:17Z</time>
      </trkpt>
      <trkpt lat="45.47404" lon="5.6888">
        <ele>381.8</ele>
        <time>2015-05-17T11:54:20Z</time>
      </trkpt>
      <trkpt lat="45.4741" lon="5.68875">
        <ele>382.1</ele>
        <time>2015-05-17T11:54:23Z</time>
      </trkpt>
      <trkpt lat="45.47418" lon="5.6887">
        <ele>382.3</ele>
        <time>2015-05-17T11:54:26Z</time>
      </trkpt>
      <trkpt lat="45.47427" lon="5.68866">
        <ele>382.5</ele>
        <time>2015-05-17T11:54:30Z</time>
      </trkpt>
      <trkpt lat="45.47434" lon="5.68861">
        <ele>382.6</ele>
        <time>2015-05-17T11:54:33Z</time>
      </trkpt>
      <trkpt lat="45.47441" lon="5.68856">
        <ele>382.9</ele>
        <time>2015-05-17T11:54:36Z</time>
      </trkpt>
      <trkpt lat="45.47447" lon="5.68849">
        <ele>383.4</ele>
        <time>2015-05-17T11:54:39Z</time>
      </trkpt>
      <trkpt lat="45.47454" lon="5.68842">
        <ele>383.9</ele>
        <time>2015-05-17T11:54:42Z</time>
      </trkpt>
      <trkpt lat="45.47461" lon="5.68834">
        <ele>384.4</ele>
        <time>2015-05-17T11:54:45Z</time>
      </trkpt>
      <trkpt lat="45.47469" lon="5.68827">
        <ele>384.8</ele>
        <time>2015-05-17T11:54:48Z</time>
      </trkpt>
      <trkpt lat="45.47477" lon="5.68821">
        <ele>385.2</ele>
        <time>2015-05-17T11:54:51Z</time>
      </trkpt>
      <trkpt lat="45.47485" lon="5.68816">
        <ele>385.5</ele>
        <time>2015-05-17T11:54:54Z</time>
      </trkpt>
      <trkpt lat="45.47491" lon="5.68809">
        <ele>385.8</ele>
        <time>2015-05-17T11:54:57Z</time>
      </trkpt>
      <trkpt lat="45.47489" lon="5.68799">
        <ele>386.5</ele>
        <time>2015-05-17T11:55:02Z</time>
      </trkpt>
      <trkpt lat="45.47483" lon="5.68789">
        <ele>387.8</ele>
        <time>2015-05-17T11:55:07Z</time>
      </trkpt>
      <trkpt lat="45.4748" lon="5.68779">
        <ele>388.1</ele>
        <time>2015-05-17T11:55:11Z</time>
      </trkpt>
      <trkpt lat="45.47477" lon="5.68768">
        <ele>388.4</ele>
        <time>2015-05-17T11:55:15Z</time>
      </trkpt>
      <trkpt lat="45.47473" lon="5.68758">
        <ele>388.8</ele>
        <time>2015-05-17T11:55:20Z</time>
      </trkpt>
      <trkpt lat="45.4747" lon="5.68746">
        <ele>389.4</ele>
        <time>2015-05-17T11:55:25Z</time>
      </trkpt>
      <trkpt lat="45.47468" lon="5.68736">
        <ele>390</ele>
        <time>2015-05-17T11:55:29Z</time>
      </trkpt>
      <trkpt lat="45.47466" lon="5.68725">
        <ele>390.9</ele>
        <time>2015-05-17T11:55:34Z</time>
      </trkpt>
      <trkpt lat="45.47463" lon="5.68715">
        <ele>391.5</ele>
        <time>2015-05-17T11:55:39Z</time>
      </trkpt>
      <trkpt lat="45.47459" lon="5.68705">
        <ele>392.1</ele>
        <time>2015-05-17T11:55:44Z</time>
      </trkpt>
      <trkpt lat="45.47455" lon="5.68696">
        <ele>393</ele>
        <time>2015-05-17T11:55:49Z</time>
      </trkpt>
      <trkpt lat="45.47451" lon="5.68687">
        <ele>394.1</ele>
        <time>2015-05-17T11:55:53Z</time>
      </trkpt>
      <trkpt lat="45.47445" lon="5.68677">
        <ele>395.3</ele>
        <time>2015-05-17T11:55:58Z</time>
      </trkpt>
      <trkpt lat="45.4744" lon="5.68669">
        <ele>396.2</ele>
        <time>2015-05-17T11:56:02Z</time>
      </trkpt>
      <trkpt lat="45.47438" lon="5.68658">
        <ele>397.7</ele>
        <time>2015-05-17T11:56:07Z</time>
      </trkpt>
      <trkpt lat="45.47435" lon="5.68648">
        <ele>399.1</ele>
        <time>2015-05-17T11:56:11Z</time>
      </trkpt>
      <trkpt lat="45.47432" lon="5.68636">
        <ele>401.1</ele>
        <time>2015-05-17T11:56:16Z</time>
      </trkpt>
      <trkpt lat="45.47429" lon="5.68626">
        <ele>402.2</ele>
        <time>2015-05-17T11:56:20Z</time>
      </trkpt>
      <trkpt lat="45.47425" lon="5.68616">
        <ele>403.8</ele>
        <time>2015-05-17T11:56:24Z</time>
      </trkpt>
      <trkpt lat="45.47421" lon="5.68605">
        <ele>405.1</ele>
        <time>2015-05-17T11:56:28Z</time>
      </trkpt>
      <trkpt lat="45.47419" lon="5.68595">
        <ele>406</ele>
        <time>2015-05-17T11:56:32Z</time>
      </trkpt>
      <trkpt lat="45.47417" lon="5.68584">
        <ele>406.9</ele>
        <time>2015-05-17T11:56:37Z</time>
      </trkpt>
      <trkpt lat="45.47417" lon="5.68573">
        <ele>407.4</ele>
        <time>2015-05-17T11:56:41Z</time>
      </trkpt>
      <trkpt lat="45.47418" lon="5.68562">
        <ele>408</ele>
        <time>2015-05-17T11:56:45Z</time>
      </trkpt>
      <trkpt lat="45.47421" lon="5.68552">
        <ele>408.8</ele>
        <time>2015-05-17T11:56:49Z</time>
      </trkpt>
      <trkpt lat="45.47424" lon="5.68541">
        <ele>410</ele>
        <time>2015-05-17T11:56:54Z</time>
      </trkpt>
      <trkpt lat="45.47426" lon="5.68529">
        <ele>411.4</ele>
        <time>2015-05-17T11:56:59Z</time>
      </trkpt>
      <trkpt lat="45.47431" lon="5.68518">
        <ele>412.7</ele>
        <time>2015-05-17T11:57:03Z</time>
      </trkpt>
      <trkpt lat="45.47434" lon="5.68507">
        <ele>414</ele>
        <time>2015-05-17T11:57:08Z</time>
      </trkpt>
      <trkpt lat="45.47436" lon="5.68495">
        <ele>415.2</ele>
        <time>2015-05-17T11:57:13Z</time>
      </trkpt>
      <trkpt lat="45.47439" lon="5.68484">
        <ele>416.4</ele>
        <time>2015-05-17T11:57:18Z</time>
      </trkpt>
      <trkpt lat="45.47442" lon="5.68473">
        <ele>417.3</ele>
        <time>2015-05-17T11:57:22Z</time>
      </trkpt>
      <trkpt lat="45.47446" lon="5.68462">
        <ele>418</ele>
        <time>2015-05-17T11:57:26Z</time>
      </trkpt>
      <trkpt lat="45.4745" lon="5.68453">
        <ele>418.9</ele>
        <time>2015-05-17T11:57:30Z</time>
      </trkpt>
      <trkpt lat="45.47453" lon="5.68443">
        <ele>420</ele>
        <time>2015-05-17T11:57:34Z</time>
      </trkpt>
      <trkpt lat="45.47457" lon="5.68433">
        <ele>421.2</ele>
        <time>2015-05-17T11:57:38Z</time>
      </trkpt>
      <trkpt lat="45.47459" lon="5.68422">
        <ele>422.4</ele>
        <time>2015-05-17T11:57:42Z</time>
      </trkpt>
      <trkpt lat="45.47462" lon="5.68412">
        <ele>423.4</ele>
        <time>2015-05-17T11:57:46Z</time>
      </trkpt>
      <trkpt lat="45.47466" lon="5.68401">
        <ele>424.4</ele>
        <time>2015-05-17T11:57:50Z</time>
      </trkpt>
      <trkpt lat="45.47469" lon="5.68391">
        <ele>425.2</ele>
        <time>2015-05-17T11:57:54Z</time>
      </trkpt>
      <trkpt lat="45.47473" lon="5.6838">
        <ele>425.9</ele>
        <time>2015-05-17T11:57:58Z</time>
      </trkpt>
      <trkpt lat="45.47477" lon="5.68368">
        <ele>426.6</ele>
        <time>2015-05-17T11:58:02Z</time>
      </trkpt>
      <trkpt lat="45.4748" lon="5.68358">
        <ele>427.3</ele>
        <time>2015-05-17T11:58:05Z</time>
      </trkpt>
      <trkpt lat="45.47483" lon="5.68348">
        <ele>427.9</ele>
        <time>2015-05-17T11:58:08Z</time>
      </trkpt>
      <trkpt lat="45.47486" lon="5.68336">
        <ele>428.6</ele>
        <time>2015-05-17T11:58:12Z</time>
      </trkpt>
      <trkpt lat="45.47491" lon="5.68326">
        <ele>429.5</ele>
        <time>2015-05-17T11:58:16Z</time>
      </trkpt>
      <trkpt lat="45.47496" lon="5.68317">
        <ele>430.4</ele>
        <time>2015-05-17T11:58:20Z</time>
      </trkpt>
      <trkpt lat="45.47496" lon="5.68317">
        <ele>431.3</ele>
        <time>2015-05-17T11:58:38Z</time>
      </trkpt>
      <trkpt lat="45.47499" lon="5.68308">
        <ele>432</ele>
        <time>2015-05-17T11:58:42Z</time>
      </trkpt>
      <trkpt lat="45.47503" lon="5.68298">
        <ele>432.4</ele>
        <time>2015-05-17T11:58:45Z</time>
      </trkpt>
      <trkpt lat="45.47505" lon="5.68288">
        <ele>432.9</ele>
        <time>2015-05-17T11:58:48Z</time>
      </trkpt>
      <trkpt lat="45.47509" lon="5.68276">
        <ele>436.8</ele>
        <time>2015-05-17T11:58:50Z</time>
      </trkpt>
      <trkpt lat="45.47513" lon="5.68264">
        <ele>439.2</ele>
        <time>2015-05-17T11:58:52Z</time>
      </trkpt>
      <trkpt lat="45.47519" lon="5.6825">
        <ele>440.5</ele>
        <time>2015-05-17T11:58:54Z</time>
      </trkpt>
      <trkpt lat="45.47527" lon="5.68238">
        <ele>441.3</ele>
        <time>2015-05-17T11:58:56Z</time>
      </trkpt>
      <trkpt lat="45.47533" lon="5.68233">
        <ele>441.2</ele>
        <time>2015-05-17T11:59:03Z</time>
      </trkpt>
      <trkpt lat="45.47532" lon="5.68233">
        <ele>439.1</ele>
        <time>2015-05-17T11:59:45Z</time>
      </trkpt>
      <trkpt lat="45.47541" lon="5.68223">
        <ele>439.7</ele>
        <time>2015-05-17T12:00:15Z</time>
      </trkpt>
      <trkpt lat="45.47549" lon="5.68217">
        <ele>440.6</ele>
        <time>2015-05-17T12:00:17Z</time>
      </trkpt>
      <trkpt lat="45.47556" lon="5.68209">
        <ele>439.8</ele>
        <time>2015-05-17T12:00:19Z</time>
      </trkpt>
      <trkpt lat="45.47564" lon="5.68201">
        <ele>437.9</ele>
        <time>2015-05-17T12:00:21Z</time>
      </trkpt>
      <trkpt lat="45.47572" lon="5.68194">
        <ele>436</ele>
        <time>2015-05-17T12:00:23Z</time>
      </trkpt>
      <trkpt lat="45.47579" lon="5.68185">
        <ele>435.4</ele>
        <time>2015-05-17T12:00:25Z</time>
      </trkpt>
      <trkpt lat="45.47584" lon="5.68177">
        <ele>435.1</ele>
        <time>2015-05-17T12:00:29Z</time>
      </trkpt>
      <trkpt lat="45.47587" lon="5.68166">
        <ele>434.8</ele>
        <time>2015-05-17T12:00:34Z</time>
      </trkpt>
      <trkpt lat="45.47592" lon="5.68157">
        <ele>434.6</ele>
        <time>2015-05-17T12:00:39Z</time>
      </trkpt>
      <trkpt lat="45.47593" lon="5.68146">
        <ele>434.6</ele>
        <time>2015-05-17T12:00:44Z</time>
      </trkpt>
      <trkpt lat="45.47592" lon="5.68142">
        <ele>434.2</ele>
        <time>2015-05-17T12:00:51Z</time>
      </trkpt>
      <trkpt lat="45.47588" lon="5.68132">
        <ele>434.1</ele>
        <time>2015-05-17T12:00:58Z</time>
      </trkpt>
      <trkpt lat="45.47592" lon="5.68122">
        <ele>434.2</ele>
        <time>2015-05-17T12:01:02Z</time>
      </trkpt>
      <trkpt lat="45.47596" lon="5.68115">
        <ele>434.4</ele>
        <time>2015-05-17T12:01:09Z</time>
      </trkpt>
      <trkpt lat="45.47598" lon="5.68108">
        <ele>434.8</ele>
        <time>2015-05-17T12:01:16Z</time>
      </trkpt>
      <trkpt lat="45.47599" lon="5.68108">
        <ele>434.9</ele>
        <time>2015-05-17T12:01:23Z</time>
      </trkpt>
      <trkpt lat="45.47597" lon="5.68105">
        <ele>433.4</ele>
        <time>2015-05-17T12:01:42Z</time>
      </trkpt>
    </trkseg>
  </trk>
</gpx>